
Distance (Route):
Temperature : 22.4°C
Humidity : 45.8%
Pressure : 960.3hPa| Receiver | Frames | First received | Last received |
|---|---|---|---|
| BIOWL1-15 | 785 | 2026-09-03 16:59:21 | 2026-09-03 19:31:42 |
| DK7TD | 760 | 2026-09-03 17:32:20 | 2026-09-03 19:53:07 |
| DM0DOS-11 | 621 | 2026-09-03 17:00:45 | 2026-09-03 19:31:10 |
| DL1XH-west | 334 | 2026-09-03 18:07:25 | 2026-09-03 19:10:46 |
| DO3MHA-11 | 276 | 2026-09-03 17:14:00 | 2026-09-03 19:31:11 |
| DL1XH1-15 | 232 | 2026-09-03 18:13:41 | 2026-09-03 19:11:01 |
| DJ2DS-15 | 110 | 2026-09-03 17:49:51 | 2026-09-03 19:15:47 |
| DB0UT-9 | 98 | 2026-09-03 16:37:21 | 2026-09-03 19:27:56 |
| DB0UT-7 | 95 | 2026-09-03 16:45:05 | 2026-09-03 19:30:50 |
| DL1XH-15 | 92 | 2026-09-03 18:30:57 | 2026-09-03 19:05:52 |
| DB0ND-19 | 90 | 2026-09-03 16:47:54 | 2026-09-03 19:44:53 |
| DF8AY | 89 | 2026-09-03 18:34:58 | 2026-09-03 19:03:39 |
| DF3TZ-5 | 81 | 2026-09-03 17:14:13 | 2026-09-03 19:54:05 |
| DF7PN | 79 | 2026-09-03 16:51:21 | 2026-09-03 19:47:51 |
| DK5PH-5 | 76 | 2026-09-03 16:54:33 | 2026-09-03 19:28:10 |
| DL1ZP-14 | 73 | 2026-09-03 17:20:28 | 2026-09-03 19:40:45 |
| CB1BUN | 71 | 2026-09-03 16:48:03 | 2026-09-03 19:30:03 |
| HSKMA3-T | 67 | 2026-09-03 18:35:35 | 2026-09-03 19:04:42 |
| IW2NTF | 66 | 2026-09-03 18:12:59 | 2026-09-03 19:13:08 |
| BIOWL9-15 | 65 | 2026-09-03 17:01:07 | 2026-09-03 19:16:45 |
| HEMX73-11 | 57 | 2026-09-03 16:50:34 | 2026-09-03 19:20:12 |
| NBG1-10 | 53 | 2026-09-03 17:14:25 | 2026-09-03 19:29:52 |
| DF1GD-15 | 52 | 2026-09-03 16:56:13 | 2026-09-03 19:23:05 |
| DL8DAS-14 | 50 | 2026-09-03 17:18:53 | 2026-09-03 19:16:51 |
| DL9PN | 47 | 2026-09-03 16:47:31 | 2026-09-03 18:28:02 |
| DN1GJH-1 | 45 | 2026-09-03 17:29:09 | 2026-09-03 19:30:23 |
| DB0NH | 39 | 2026-09-03 17:36:40 | 2026-09-03 19:19:32 |
| DM7RM-13 | 36 | 2026-09-03 17:55:29 | 2026-09-03 19:30:12 |
| DL0LBS | 35 | 2026-09-03 17:55:31 | 2026-09-03 19:27:54 |
| DM3KS-11 | 34 | 2026-09-03 16:51:34 | 2026-09-03 17:35:33 |
| BIOWL7-15 | 34 | 2026-09-03 17:01:18 | 2026-09-03 19:18:03 |
| DD1CC8 | 34 | 2026-09-03 17:35:09 | 2026-09-03 19:01:11 |
| DL1NUX | 34 | 2026-09-03 17:38:29 | 2026-09-03 17:46:10 |
| KANTATE | 33 | 2026-09-03 17:50:07 | 2026-09-03 19:30:49 |
| DL6DJ-15 | 33 | 2026-09-03 18:08:55 | 2026-09-03 19:11:35 |
| AZAK | 32 | 2026-09-03 17:52:21 | 2026-09-03 19:53:50 |
| DL8DAS-15 | 31 | 2026-09-03 17:23:33 | 2026-09-03 19:00:27 |
| DO1YAY-16 | 30 | 2026-09-03 17:18:57 | 2026-09-03 19:08:17 |
| DJ2KF-10 | 27 | 2026-09-03 18:11:46 | 2026-09-03 19:06:24 |
| DJTTGO | 26 | 2026-09-03 17:42:11 | 2026-09-03 19:14:30 |
| DL4BBY-15 | 25 | 2026-09-03 18:18:44 | 2026-09-03 19:11:45 |
| SFWM-10 | 24 | 2026-09-03 17:16:34 | 2026-09-03 19:21:52 |
| OE5DRO-10 | 24 | 2026-09-03 18:12:07 | 2026-09-03 19:08:09 |
| AU51GT2 | 22 | 2026-09-03 18:05:14 | 2026-09-03 19:10:56 |
| SONDE2-11 | 20 | 2026-09-03 18:14:10 | 2026-09-03 19:05:23 |
| DO3DL | 19 | 2026-09-03 17:28:55 | 2026-09-03 19:20:26 |
| DO8TBO-1 | 18 | 2026-09-03 18:03:28 | 2026-09-03 19:23:32 |
| DH7VM-15 | 16 | 2026-09-03 16:56:40 | 2026-09-03 18:57:38 |
| DL2OL | 14 | 2026-09-03 17:34:29 | 2026-09-03 18:26:24 |
| EDDB2-12 | 11 | 2026-09-03 18:49:42 | 2026-09-03 19:08:19 |
| SONCRA | 8 | 2026-09-03 18:37:44 | 2026-09-03 18:56:22 |
| PG1ADW-2 | 8 | 2026-09-03 18:50:42 | 2026-09-03 19:01:23 |
| EDDB2-11 | 4 | 2026-09-03 18:46:48 | 2026-09-03 19:00:46 |
| OE9MKV-15 | 4 | 2026-09-03 18:53:56 | 2026-09-03 19:01:42 |
| DG1MJG | 3 | 2026-09-03 18:29:24 | 2026-09-03 19:02:01 |
| LOEBOVI | 3 | 2026-09-03 18:36:30 | 2026-09-03 18:46:37 |
| OE3JTB-15 | 2 | 2026-09-03 17:54:07 | 2026-09-03 19:11:46 |
| OE5DXL-15 | 2 | 2026-09-03 19:00:25 | 2026-09-03 19:06:10 |
| HEMX73-6 | 1 | 2026-09-03 17:34:10 | 2026-09-03 17:34:10 |
| SO1NDE-10 | 1 | 2026-09-03 17:42:47 | 2026-09-03 17:42:47 |
| DO2KSM | 1 | 2026-09-03 18:37:09 | 2026-09-03 18:37:09 |
| Receiver | Date | Latitude | Longitude | Direction | Speed | Altitude | Climb | Temperature | Humidity | Pressure | Voltage | Killtimer | Uptime | BKT | XDATA |
|---|---|---|---|---|---|---|---|---|---|---|---|---|---|---|---|
| DF3TZ-5 | 2026-09-03 19:54:05 | 48.75781 | 9.20401 | 88° | 22km/h | 569m | -4.8m/s | 22.4°C | 45.8% | 960.3hPa | 2.7V | 00:00:00 | 00:00:00 | 00:00:00 | |
| AZAK | 2026-09-03 19:53:50 | 48.75780 | 9.20434 | 99° | 20km/h | 549m | -4.5m/s | 22.6°C | 45.3% | 962.7hPa | 2.7V | 01:55:00 | 00:00:00 | 00:00:00 | |
| DF3TZ-5 | 2026-09-03 19:53:34 | 48.75789 | 9.20256 | 96° | 24km/h | 646m | -5.4m/s | 22.3°C | 46.1% | 952.2hPa | 2.7V | 00:00:00 | 00:00:00 | 00:00:00 | |
| AZAK | 2026-09-03 19:53:29 | 48.75792 | 9.20225 | 98° | 29km/h | 663m | -5.9m/s | 22.2°C | 46.6% | 950.3hPa | 2.7V | 01:55:00 | 00:00:00 | 00:00:00 | |
| DK7TD | 2026-09-03 19:53:07 | 48.75829 | 9.19949 | 105° | 33km/h | 792m | -5.6m/s | 21°C | 55.4% | 936.3hPa | 2.7V | 01:56:34 | 03:23:10 | 00:00:00 | |
| DK7TD | 2026-09-03 19:52:48 | 48.75867 | 9.19700 | 107° | 37km/h | 894m | -4.9m/s | 20°C | 57.4% | 925.1hPa | 2.7V | 01:56:34 | 03:22:51 | 00:00:00 | |
| DK7TD | 2026-09-03 19:52:33 | 48.75914 | 9.19483 | 107° | 44km/h | 968m | -4.9m/s | 19.4°C | 59.5% | 917.4hPa | 2.7V | 01:56:34 | 03:22:36 | 00:00:00 | |
| DK7TD | 2026-09-03 19:52:31 | 48.75921 | 9.19451 | 110° | 42km/h | 978m | -5.6m/s | 19.3°C | 59.3% | 916.3hPa | 2.7V | 01:56:34 | 03:22:34 | 00:00:00 | |
| DK7TD | 2026-09-03 19:52:30 | 48.75924 | 9.19436 | 112° | 40km/h | 984m | -5.5m/s | 19.3°C | 59.3% | 915.8hPa | 2.7V | 01:56:34 | 03:22:33 | 00:00:00 | |
| DK7TD | 2026-09-03 19:52:28 | 48.75932 | 9.19408 | 115° | 40km/h | 995m | -5.4m/s | 19.2°C | 59.3% | 914.6hPa | 2.6V | 01:56:34 | 03:22:31 | 00:00:00 | |
| DK7TD | 2026-09-03 19:52:27 | 48.75937 | 9.19394 | 115° | 42km/h | 999m | -4.6m/s | 19.1°C | 59.4% | 913.9hPa | 2.7V | 01:56:34 | 03:22:30 | 00:00:00 | |
| DK7TD | 2026-09-03 19:52:25 | 48.75945 | 9.19364 | 113° | 42km/h | 1009m | -4.6m/s | 19°C | 59.1% | 912.8hPa | 2.7V | 01:56:34 | 03:22:28 | 00:00:00 | |
| DK7TD | 2026-09-03 19:52:24 | 48.75949 | 9.19350 | 111° | 40km/h | 1014m | -4.8m/s | 19°C | 59.1% | 912.4hPa | 2.7V | 01:56:34 | 03:22:27 | 00:00:00 | |
| DK7TD | 2026-09-03 19:52:19 | 48.75968 | 9.19274 | 111° | 42km/h | 1038m | -4.8m/s | 18.8°C | 59.3% | 909.8hPa | 2.7V | 01:56:34 | 03:22:22 | 00:00:00 | |
| DK7TD | 2026-09-03 19:52:15 | 48.75985 | 9.19214 | 113° | 42km/h | 1058m | -4.4m/s | 18.6°C | 59.6% | 907.8hPa | 2.7V | 01:56:34 | 03:22:18 | 00:00:00 | |
| DK7TD | 2026-09-03 19:52:13 | 48.75993 | 9.19185 | 113° | 42km/h | 1067m | -4.7m/s | 18.5°C | 59.9% | 906.8hPa | 2.6V | 01:57:25 | 03:22:16 | 00:00:00 | |
| DK7TD | 2026-09-03 19:52:10 | 48.76005 | 9.19139 | 110° | 44km/h | 1082m | -4.7m/s | 18.4°C | 60.3% | 905.1hPa | 2.7V | 01:57:25 | 03:22:13 | 00:00:00 | |
| DK7TD | 2026-09-03 19:52:09 | 48.76009 | 9.19123 | 110° | 46km/h | 1087m | -4.4m/s | 18.4°C | 60.5% | 904.8hPa | 2.7V | 01:57:25 | 03:22:12 | 00:00:00 | |
| DK7TD | 2026-09-03 19:52:07 | 48.76016 | 9.19091 | 112° | 44km/h | 1096m | -4.6m/s | 18.3°C | 60.8% | 903.5hPa | 2.7V | 01:57:25 | 03:22:10 | 00:00:00 | |
| DK7TD | 2026-09-03 19:52:04 | 48.76028 | 9.19044 | 108° | 44km/h | 1112m | -5.2m/s | 18.1°C | 61.4% | 902hPa | 2.7V | 01:57:25 | 03:22:07 | 00:00:00 | |
| DK7TD | 2026-09-03 19:52:02 | 48.76035 | 9.19012 | 109° | 44km/h | 1122m | -4.9m/s | 18.1°C | 61.8% | 900.9hPa | 2.7V | 01:57:25 | 03:22:05 | 00:00:00 | |
| DK7TD | 2026-09-03 19:52:01 | 48.76039 | 9.18996 | 107° | 44km/h | 1127m | -6m/s | 18°C | 61.8% | 900.3hPa | 2.7V | 01:57:25 | 03:22:04 | 00:00:00 | |
| DK7TD | 2026-09-03 19:51:59 | 48.76045 | 9.18963 | 104° | 42km/h | 1138m | -5.6m/s | 17.9°C | 61.9% | 899.3hPa | 2.7V | 01:57:25 | 03:22:02 | 00:00:00 | |
| DK7TD | 2026-09-03 19:51:57 | 48.76050 | 9.18932 | 107° | 42km/h | 1148m | -5.3m/s | 17.9°C | 62% | 898.4hPa | 2.7V | 01:57:25 | 03:22:00 | 00:00:00 | |
| DK7TD | 2026-09-03 19:51:56 | 48.76053 | 9.18917 | 108° | 42km/h | 1153m | -4.8m/s | 17.8°C | 62% | 897.7hPa | 2.7V | 01:57:25 | 03:21:59 | 00:00:00 | |
| DK7TD | 2026-09-03 19:51:54 | 48.76060 | 9.18886 | 109° | 44km/h | 1163m | -4.9m/s | 17.7°C | 62.3% | 896.7hPa | 2.7V | 01:57:25 | 03:21:57 | 00:00:00 | |
| DK7TD | 2026-09-03 19:51:51 | 48.76072 | 9.18836 | 107° | 46km/h | 1179m | -5.6m/s | 17.6°C | 62.7% | 895hPa | 2.6V | 01:57:25 | 03:21:54 | 00:00:00 | |
| DK7TD | 2026-09-03 19:51:49 | 48.76079 | 9.18802 | 106° | 44km/h | 1189m | -5.7m/s | 17.5°C | 63% | 893.8hPa | 2.7V | 01:57:25 | 03:21:52 | 00:00:00 | |
| DK7TD | 2026-09-03 19:51:47 | 48.76085 | 9.18770 | 106° | 46km/h | 1199m | -5.1m/s | 17.5°C | 63.4% | 893hPa | 2.7V | 01:57:25 | 03:21:50 | 00:00:00 | |
| DK7TD | 2026-09-03 19:51:44 | 48.76095 | 9.18720 | 109° | 44km/h | 1215m | -4.8m/s | 17.3°C | 63.9% | 891.4hPa | 2.6V | 01:57:25 | 03:21:47 | 00:00:00 | |
| DK7TD | 2026-09-03 19:51:42 | 48.76102 | 9.18688 | 106° | 44km/h | 1224m | -4.9m/s | 17.2°C | 64.1% | 890.3hPa | 2.7V | 01:57:25 | 03:21:45 | 00:00:00 | |
| DK7TD | 2026-09-03 19:51:38 | 48.76114 | 9.18624 | 107° | 42km/h | 1244m | -4.8m/s | 17.1°C | 64.8% | 888.3hPa | 2.7V | 01:57:25 | 03:21:41 | 00:00:00 | |
| DK7TD | 2026-09-03 19:51:36 | 48.76120 | 9.18593 | 106° | 42km/h | 1253m | -4.7m/s | 17°C | 65.3% | 887.2hPa | 2.7V | 01:57:25 | 03:21:39 | 00:00:00 | |
| DK7TD | 2026-09-03 19:51:35 | 48.76123 | 9.18577 | 105° | 44km/h | 1258m | -5.4m/s | 17°C | 65.6% | 886.9hPa | 2.7V | 01:57:25 | 03:21:38 | 00:00:00 | |
| DK7TD | 2026-09-03 19:51:33 | 48.76128 | 9.18544 | 102° | 44km/h | 1269m | -5.4m/s | 16.9°C | 66% | 885.6hPa | 2.7V | 01:57:25 | 03:21:36 | 00:00:00 | |
| DK7TD | 2026-09-03 19:51:31 | 48.76133 | 9.18512 | 103° | 42km/h | 1279m | -5.2m/s | 16.8°C | 66.2% | 884.7hPa | 2.7V | 01:57:25 | 03:21:34 | 00:00:00 | |
| DK7TD | 2026-09-03 19:51:29 | 48.76138 | 9.18480 | 104° | 44km/h | 1289m | -5.1m/s | 16.7°C | 66.3% | 883.5hPa | 2.7V | 01:57:25 | 03:21:32 | 00:00:00 | |
| DK7TD | 2026-09-03 19:51:26 | 48.76146 | 9.18431 | 104° | 44km/h | 1305m | -4.5m/s | 16.5°C | 66.7% | 882hPa | 2.7V | 01:57:25 | 03:21:29 | 00:00:00 | |
| DK7TD | 2026-09-03 19:51:25 | 48.76149 | 9.18415 | 102° | 44km/h | 1310m | -4.9m/s | 16.5°C | 66.9% | 881.5hPa | 2.7V | 01:57:25 | 03:21:28 | 00:00:00 | |
| DK7TD | 2026-09-03 19:51:23 | 48.76153 | 9.18382 | 101° | 44km/h | 1319m | -4.9m/s | 16.4°C | 67.4% | 880.5hPa | 2.6V | 01:58:16 | 03:21:26 | 00:00:00 | |
| DK7TD | 2026-09-03 19:51:18 | 48.76163 | 9.18301 | 101° | 46km/h | 1344m | -4.4m/s | 16.2°C | 68.6% | 878hPa | 2.7V | 01:58:16 | 03:21:21 | 00:00:00 | |
| DK7TD | 2026-09-03 19:51:17 | 48.76165 | 9.18284 | 103° | 46km/h | 1349m | -4.6m/s | 16.2°C | 68.9% | 877.3hPa | 2.6V | 01:58:16 | 03:21:20 | 00:00:00 | |
| DK7TD | 2026-09-03 19:51:13 | 48.76174 | 9.18213 | 100° | 46km/h | 1369m | -4.5m/s | 16°C | 69.3% | 875.5hPa | 2.7V | 01:58:16 | 03:21:16 | 00:00:00 | |
| DK7TD | 2026-09-03 19:51:11 | 48.76178 | 9.18179 | 98° | 44km/h | 1378m | -4.7m/s | 15.9°C | 69.8% | 874.4hPa | 2.7V | 01:58:16 | 03:21:14 | 00:00:00 | |
| DK7TD | 2026-09-03 19:51:08 | 48.76182 | 9.18131 | 98° | 42km/h | 1393m | -4.9m/s | 15.8°C | 70% | 873hPa | 2.7V | 01:58:16 | 03:21:11 | 00:00:00 | |
| DK7TD | 2026-09-03 19:51:07 | 48.76184 | 9.18115 | 98° | 42km/h | 1397m | -4.3m/s | 15.8°C | 70.1% | 872.4hPa | 2.7V | 01:58:16 | 03:21:10 | 00:00:00 | |
| DK7TD | 2026-09-03 19:51:03 | 48.76190 | 9.18050 | 100° | 44km/h | 1417m | -4.8m/s | 15.6°C | 70.1% | 870.4hPa | 2.7V | 01:58:16 | 03:21:06 | 00:00:00 | |
| DK7TD | 2026-09-03 19:51:02 | 48.76192 | 9.18033 | 98° | 46km/h | 1422m | -5.2m/s | 15.6°C | 70.2% | 869.9hPa | 2.7V | 01:58:16 | 03:21:05 | 00:00:00 | |
| DK7TD | 2026-09-03 19:50:54 | 48.76207 | 9.17892 | 99° | 47km/h | 1462m | -5.2m/s | 15.3°C | 71.3% | 865.9hPa | 2.7V | 01:58:16 | 03:20:57 | 00:00:00 | |
| DK7TD | 2026-09-03 19:50:53 | 48.76208 | 9.17874 | 99° | 47km/h | 1467m | -5m/s | 15.3°C | 71.3% | 865.4hPa | 2.7V | 01:58:16 | 03:20:56 | 00:00:00 | |
| DK7TD | 2026-09-03 19:50:48 | 48.76216 | 9.17786 | 96° | 46km/h | 1493m | -4.9m/s | 15.1°C | 71.9% | 862.9hPa | 2.7V | 01:58:16 | 03:20:51 | 00:00:00 | |
| DK7TD | 2026-09-03 19:50:46 | 48.76219 | 9.17750 | 96° | 47km/h | 1503m | -5m/s | 15°C | 72.2% | 861.8hPa | 2.7V | 01:58:16 | 03:20:49 | 00:00:00 | |
| DK7TD | 2026-09-03 19:50:43 | 48.76223 | 9.17697 | 96° | 47km/h | 1517m | -4.7m/s | 14.8°C | 72.4% | 860.3hPa | 2.7V | 01:58:16 | 03:20:46 | 00:00:00 | |
| DK7TD | 2026-09-03 19:50:41 | 48.76225 | 9.17660 | 95° | 46km/h | 1527m | -5.1m/s | 14.8°C | 72.9% | 859.4hPa | 2.7V | 01:58:16 | 03:20:44 | 00:00:00 | |
| DK7TD | 2026-09-03 19:50:38 | 48.76230 | 9.17607 | 99° | 49km/h | 1543m | -5.4m/s | 14.6°C | 72.9% | 857.7hPa | 2.7V | 01:58:16 | 03:20:41 | 00:00:00 | |
| DK7TD | 2026-09-03 19:50:36 | 48.76233 | 9.17569 | 96° | 51km/h | 1553m | -4.8m/s | 14.6°C | 73.4% | 856.7hPa | 2.7V | 01:58:16 | 03:20:39 | 00:00:00 | |
| DK7TD | 2026-09-03 19:50:33 | 48.76236 | 9.17512 | 94° | 49km/h | 1568m | -4.6m/s | 14.4°C | 73.5% | 855.2hPa | 2.6V | 01:58:16 | 03:20:36 | 00:00:00 | |
| DK7TD | 2026-09-03 19:50:32 | 48.76237 | 9.17493 | 94° | 49km/h | 1572m | -4.5m/s | 14.4°C | 73.7% | 854.5hPa | 2.7V | 01:59:07 | 03:20:35 | 00:00:00 | |
| DK7TD | 2026-09-03 19:50:29 | 48.76239 | 9.17440 | 94° | 44km/h | 1587m | -4.7m/s | 14.3°C | 74.5% | 853.2hPa | 2.7V | 01:59:07 | 03:20:32 | 00:00:00 | |
| DK7TD | 2026-09-03 19:50:28 | 48.76240 | 9.17423 | 98° | 46km/h | 1592m | -5.3m/s | 14.2°C | 74.9% | 852.7hPa | 2.7V | 01:59:07 | 03:20:31 | 00:00:00 | |
| DK7TD | 2026-09-03 19:50:26 | 48.76243 | 9.17388 | 98° | 47km/h | 1603m | -5.2m/s | 14.1°C | 75.6% | 851.6hPa | 2.7V | 01:59:07 | 03:20:29 | 00:00:00 | |
| DK7TD | 2026-09-03 19:50:24 | 48.76246 | 9.17351 | 96° | 47km/h | 1615m | -6.2m/s | 14°C | 75.6% | 850.3hPa | 2.7V | 01:59:07 | 03:20:27 | 00:00:00 | |
| DK7TD | 2026-09-03 19:50:22 | 48.76248 | 9.17314 | 97° | 49km/h | 1627m | -5.9m/s | 13.9°C | 75.5% | 849.3hPa | 2.7V | 01:59:07 | 03:20:25 | 00:00:00 | |
| DK7TD | 2026-09-03 19:50:20 | 48.76251 | 9.17277 | 96° | 49km/h | 1637m | -5.1m/s | 13.8°C | 75.2% | 848.1hPa | 2.7V | 01:59:07 | 03:20:23 | 00:00:00 | |
| DK7TD | 2026-09-03 19:50:18 | 48.76254 | 9.17241 | 95° | 47km/h | 1647m | -5.4m/s | 13.7°C | 75.5% | 847.1hPa | 2.7V | 01:59:07 | 03:20:21 | 00:00:00 | |
| DK7TD | 2026-09-03 19:50:16 | 48.76255 | 9.17205 | 94° | 47km/h | 1657m | -4.6m/s | 13.7°C | 75.3% | 846hPa | 2.7V | 01:59:07 | 03:20:19 | 00:00:00 | |
| DK7TD | 2026-09-03 19:50:15 | 48.76256 | 9.17187 | 94° | 47km/h | 1662m | -4.6m/s | 13.6°C | 75.5% | 845.7hPa | 2.6V | 01:59:07 | 03:20:18 | 00:00:00 | |
| DK7TD | 2026-09-03 19:50:13 | 48.76258 | 9.17151 | 93° | 47km/h | 1672m | -4.5m/s | 13.5°C | 75.8% | 844.7hPa | 2.7V | 01:59:07 | 03:20:16 | 00:00:00 | |
| DK7TD | 2026-09-03 19:50:12 | 48.76258 | 9.17133 | 93° | 47km/h | 1676m | -4.3m/s | 13.5°C | 75.9% | 844.5hPa | 2.7V | 01:59:07 | 03:20:15 | 00:00:00 | |
| DK7TD | 2026-09-03 19:50:11 | 48.76259 | 9.17115 | 93° | 47km/h | 1681m | -5m/s | 13.5°C | 76.1% | 843.7hPa | 2.7V | 01:59:07 | 03:20:14 | 00:00:00 | |
| DK7TD | 2026-09-03 19:50:10 | 48.76259 | 9.17097 | 93° | 47km/h | 1686m | -5m/s | 13.4°C | 76.4% | 843.3hPa | 2.7V | 01:59:07 | 03:20:13 | 00:00:00 | |
| DK7TD | 2026-09-03 19:50:09 | 48.76260 | 9.17078 | 94° | 47km/h | 1691m | -5.3m/s | 13.4°C | 76.7% | 842.9hPa | 2.7V | 01:59:07 | 03:20:12 | 00:00:00 | |
| DK7TD | 2026-09-03 19:50:07 | 48.76262 | 9.17042 | 94° | 47km/h | 1700m | -4.8m/s | 13.3°C | 77.2% | 842hPa | 2.7V | 01:59:07 | 03:20:10 | 00:00:00 | |
| DK7TD | 2026-09-03 19:50:05 | 48.76264 | 9.17005 | 95° | 47km/h | 1711m | -5m/s | 13.2°C | 77.8% | 840.9hPa | 2.6V | 01:59:07 | 03:20:08 | 00:00:00 | |
| DK7TD | 2026-09-03 19:50:04 | 48.76264 | 9.16987 | 93° | 47km/h | 1715m | -5.1m/s | 13.2°C | 78.1% | 840.4hPa | 2.7V | 01:59:07 | 03:20:07 | 00:00:00 | |
| DK7TD | 2026-09-03 19:50:02 | 48.76266 | 9.16950 | 92° | 47km/h | 1726m | -5m/s | 13.1°C | 78.9% | 839.2hPa | 2.7V | 01:59:07 | 03:20:05 | 00:00:00 | |
| DK7TD | 2026-09-03 19:50:01 | 48.76266 | 9.16932 | 92° | 47km/h | 1731m | -5m/s | 13.1°C | 79.4% | 838.9hPa | 2.7V | 01:59:07 | 03:20:04 | 00:00:00 | |
| DK7TD | 2026-09-03 19:50:00 | 48.76266 | 9.16914 | 93° | 47km/h | 1736m | -5m/s | 13°C | 79.8% | 838.3hPa | 2.7V | 01:59:07 | 03:20:03 | 00:00:00 | |
| DK7TD | 2026-09-03 19:49:59 | 48.76267 | 9.16895 | 92° | 49km/h | 1742m | -6.1m/s | 13°C | 80.1% | 837.8hPa | 2.6V | 01:59:07 | 03:20:02 | 00:00:00 | |
| DK7TD | 2026-09-03 19:49:58 | 48.76267 | 9.16877 | 93° | 47km/h | 1747m | -5.6m/s | 12.9°C | 80.2% | 837.3hPa | 2.7V | 01:59:07 | 03:20:01 | 00:00:00 | |
| DK7TD | 2026-09-03 19:49:56 | 48.76269 | 9.16840 | 93° | 47km/h | 1758m | -5.8m/s | 12.8°C | 80.1% | 836hPa | 2.7V | 01:59:07 | 03:19:59 | 00:00:00 | |
| DK7TD | 2026-09-03 19:49:55 | 48.76269 | 9.16822 | 93° | 47km/h | 1764m | -5.9m/s | 12.8°C | 79.7% | 835.4hPa | 2.7V | 01:59:07 | 03:19:58 | 00:00:00 | |
| DK7TD | 2026-09-03 19:49:54 | 48.76270 | 9.16804 | 94° | 49km/h | 1769m | -4.4m/s | 12.7°C | 79.5% | 834.8hPa | 2.7V | 01:59:07 | 03:19:57 | 00:00:00 | |
| DK7TD | 2026-09-03 19:49:52 | 48.76272 | 9.16765 | 95° | 51km/h | 1778m | -4.3m/s | 12.6°C | 80% | 834.2hPa | 2.7V | 01:59:07 | 03:19:55 | 00:00:00 | |
| DK7TD | 2026-09-03 19:49:51 | 48.76273 | 9.16746 | 97° | 51km/h | 1782m | -4.2m/s | 12.6°C | 80.4% | 833.6hPa | 2.7V | 01:59:07 | 03:19:54 | 00:00:00 | |
| DK7TD | 2026-09-03 19:49:49 | 48.76276 | 9.16708 | 97° | 49km/h | 1791m | -5.1m/s | 12.5°C | 80.7% | 832.6hPa | 2.7V | 01:59:07 | 03:19:52 | 00:00:00 | |
| DK7TD | 2026-09-03 19:49:47 | 48.76280 | 9.16671 | 98° | 47km/h | 1801m | -4.6m/s | 12.4°C | 80.7% | 831.7hPa | 2.7V | 01:59:07 | 03:19:50 | 00:00:00 | |
| DK7TD | 2026-09-03 19:49:46 | 48.76281 | 9.16653 | 98° | 47km/h | 1805m | -4.6m/s | 12.4°C | 80.8% | 831.2hPa | 2.7V | 01:59:07 | 03:19:49 | 00:00:00 | |
| DK7TD | 2026-09-03 19:49:44 | 48.76284 | 9.16618 | 98° | 46km/h | 1814m | -4.4m/s | 12.3°C | 80.8% | 830.4hPa | 2.7V | 01:59:07 | 03:19:47 | 00:00:00 | |
| DK7TD | 2026-09-03 19:49:43 | 48.76286 | 9.16601 | 98° | 44km/h | 1818m | -4.1m/s | 12.3°C | 81% | 829.9hPa | 2.7V | 01:59:07 | 03:19:46 | 00:00:00 | |
| DK7TD | 2026-09-03 19:49:42 | 48.76287 | 9.16584 | 97° | 46km/h | 1823m | -4.2m/s | 12.3°C | 81.7% | 829.4hPa | 2.7V | 01:59:07 | 03:19:45 | 00:00:00 | |
| DK7TD | 2026-09-03 19:49:40 | 48.76290 | 9.16549 | 97° | 46km/h | 1832m | -5m/s | 12.3°C | 82.6% | 828.6hPa | 2.7V | 01:59:58 | 03:19:43 | 00:00:00 | |
| DK7TD | 2026-09-03 19:49:39 | 48.76292 | 9.16531 | 98° | 47km/h | 1836m | -4.5m/s | 12.3°C | 83.1% | 828.1hPa | 2.6V | 01:59:58 | 03:19:42 | 00:00:00 | |
| DK7TD | 2026-09-03 19:49:37 | 48.76295 | 9.16495 | 100° | 47km/h | 1845m | -4.6m/s | 12.2°C | 83.5% | 827.3hPa | 2.7V | 01:59:58 | 03:19:40 | 00:00:00 | |
| DK7TD | 2026-09-03 19:49:36 | 48.76298 | 9.16477 | 100° | 49km/h | 1850m | -4.3m/s | 12.1°C | 84% | 826.8hPa | 2.7V | 01:59:58 | 03:19:39 | 00:00:00 | |
| DK7TD | 2026-09-03 19:49:35 | 48.76300 | 9.16459 | 100° | 49km/h | 1854m | -4.6m/s | 12.1°C | 84.3% | 826.4hPa | 2.7V | 01:59:58 | 03:19:38 | 00:00:00 | |
| DK7TD | 2026-09-03 19:49:34 | 48.76302 | 9.16440 | 100° | 49km/h | 1859m | -5.4m/s | 12.1°C | 84.6% | 826hPa | 2.7V | 01:59:58 | 03:19:37 | 00:00:00 | |
| DK7TD | 2026-09-03 19:49:32 | 48.76306 | 9.16404 | 101° | 47km/h | 1869m | -4.2m/s | 12°C | 84.6% | 824.8hPa | 2.7V | 01:59:58 | 03:19:35 | 00:00:00 | |
| DK7TD | 2026-09-03 19:49:30 | 48.76311 | 9.16370 | 103° | 46km/h | 1878m | -4.8m/s | 11.9°C | 85% | 823.9hPa | 2.7V | 01:59:58 | 03:19:33 | 00:00:00 | |
| DK7TD | 2026-09-03 19:49:29 | 48.76314 | 9.16353 | 103° | 46km/h | 1883m | -4.6m/s | 11.9°C | 85.4% | 823.6hPa | 2.6V | 01:59:58 | 03:19:32 | 00:00:00 | |
| DK7TD | 2026-09-03 19:49:28 | 48.76316 | 9.16336 | 103° | 46km/h | 1888m | -4.7m/s | 11.8°C | 85.5% | 822.9hPa | 2.6V | 01:59:58 | 03:19:31 | 00:00:00 | |
| DK7TD | 2026-09-03 19:49:26 | 48.76321 | 9.16302 | 101° | 46km/h | 1897m | -4.4m/s | 11.7°C | 85.7% | 822.2hPa | 2.7V | 01:59:58 | 03:19:29 | 00:00:00 | |
| DK7TD | 2026-09-03 19:49:25 | 48.76323 | 9.16285 | 100° | 46km/h | 1902m | -4.5m/s | 11.7°C | 86% | 821.5hPa | 2.7V | 01:59:58 | 03:19:28 | 00:00:00 | |
| DK7TD | 2026-09-03 19:49:24 | 48.76325 | 9.16269 | 100° | 44km/h | 1906m | -4.3m/s | 11.7°C | 86.3% | 821.4hPa | 2.7V | 01:59:58 | 03:19:27 | 00:00:00 | |
| DK7TD | 2026-09-03 19:49:23 | 48.76327 | 9.16252 | 100° | 44km/h | 1910m | -4.5m/s | 11.6°C | 86.6% | 820.8hPa | 2.7V | 01:59:58 | 03:19:26 | 00:00:00 | |
| DK7TD | 2026-09-03 19:49:21 | 48.76331 | 9.16219 | 101° | 44km/h | 1919m | -4.9m/s | 11.6°C | 87.2% | 820hPa | 2.7V | 01:59:58 | 03:19:24 | 00:00:00 | |
| DK7TD | 2026-09-03 19:49:19 | 48.76336 | 9.16185 | 104° | 46km/h | 1929m | -4.3m/s | 11.5°C | 88.2% | 819hPa | 2.7V | 01:59:58 | 03:19:22 | 00:00:00 | |
| DK7TD | 2026-09-03 19:49:18 | 48.76339 | 9.16168 | 106° | 46km/h | 1934m | -4.9m/s | 11.5°C | 88.7% | 818.5hPa | 2.7V | 01:59:58 | 03:19:21 | 00:00:00 | |
| DK7TD | 2026-09-03 19:49:16 | 48.76345 | 9.16134 | 107° | 46km/h | 1944m | -5.2m/s | 11.4°C | 89% | 817.6hPa | 2.7V | 01:59:58 | 03:19:19 | 00:00:00 | |
| DK7TD | 2026-09-03 19:49:14 | 48.76352 | 9.16102 | 107° | 44km/h | 1953m | -4.4m/s | 11.3°C | 89.9% | 816.6hPa | 2.7V | 01:59:58 | 03:19:17 | 00:00:00 | |
| DK7TD | 2026-09-03 19:49:13 | 48.76355 | 9.16086 | 105° | 42km/h | 1958m | -4.8m/s | 11.3°C | 90.3% | 816.3hPa | 2.7V | 01:59:58 | 03:19:16 | 00:00:00 | |
| DK7TD | 2026-09-03 19:49:12 | 48.76358 | 9.16070 | 105° | 42km/h | 1962m | -4.6m/s | 11.3°C | 90.8% | 815.9hPa | 2.6V | 01:59:58 | 03:19:15 | 00:00:00 | |
| DK7TD | 2026-09-03 19:49:10 | 48.76363 | 9.16040 | 107° | 42km/h | 1972m | -5m/s | 11.2°C | 90.9% | 814.9hPa | 2.7V | 01:59:58 | 03:19:13 | 00:00:00 | |
| DK7TD | 2026-09-03 19:49:08 | 48.76370 | 9.16009 | 108° | 42km/h | 1982m | -6.3m/s | 11.1°C | 91.5% | 813.9hPa | 2.7V | 01:59:58 | 03:19:11 | 00:00:00 | |
| DK7TD | 2026-09-03 19:49:07 | 48.76373 | 9.15994 | 108° | 40km/h | 1988m | -5.3m/s | 11.1°C | 90.9% | 813.3hPa | 2.7V | 01:59:58 | 03:19:10 | 00:00:00 | |
| DK7TD | 2026-09-03 19:49:05 | 48.76380 | 9.15964 | 111° | 42km/h | 1997m | -4.8m/s | 11°C | 90.3% | 812.4hPa | 2.7V | 01:59:58 | 03:19:08 | 00:00:00 | |
| DK7TD | 2026-09-03 19:48:56 | 48.76410 | 9.15826 | 110° | 42km/h | 2045m | -4.9m/s | 10.8°C | 91.4% | 807.9hPa | 2.7V | 01:59:58 | 03:18:59 | 00:00:00 | |
| DK7TD | 2026-09-03 19:48:46 | 48.76450 | 9.15687 | 116° | 37km/h | 2110m | -5.2m/s | 10.2°C | 95% | 801.6hPa | 2.7V | 02:00:49 | 03:18:49 | 00:00:00 | |
| DK7TD | 2026-09-03 19:48:35 | 48.76501 | 9.15542 | 117° | 38km/h | 2174m | -5m/s | 9.7°C | 96.4% | 795.4hPa | 2.7V | 02:00:49 | 03:18:38 | 00:00:00 | |
| DK7TD | 2026-09-03 19:48:25 | 48.76552 | 9.15410 | 119° | 38km/h | 2224m | -4.9m/s | 9.4°C | 97.2% | 790.6hPa | 2.7V | 02:00:49 | 03:18:28 | 00:00:00 | |
| DK7TD | 2026-09-03 19:48:15 | 48.76601 | 9.15283 | 120° | 40km/h | 2275m | -5m/s | 9°C | 99.1% | 785.9hPa | 2.7V | 02:00:49 | 03:18:18 | 00:00:00 | |
| DK7TD | 2026-09-03 19:48:05 | 48.76650 | 9.15140 | 118° | 42km/h | 2327m | -5.5m/s | 8.7°C | 100% | 781.1hPa | 2.7V | 02:00:49 | 03:18:08 | 00:00:00 | |
| DK7TD | 2026-09-03 19:47:54 | 48.76702 | 9.14983 | 115° | 44km/h | 2383m | -4.8m/s | 8.5°C | 99.1% | 775.6hPa | 2.6V | 02:01:40 | 03:17:57 | 00:00:00 | |
| DF3TZ-5 | 2026-09-03 19:47:52 | 48.76712 | 9.14953 | 116° | 42km/h | 2393m | -5.8m/s | 8.4°C | 93.8% | 774.9hPa | 2.7V | 00:00:00 | 00:00:00 | 00:00:00 | |
| DF7PN | 2026-09-03 19:47:51 | 48.76725 | 9.14908 | 113° | 42km/h | 2410m | -5.5m/s | 8.3°C | 93.6% | 773.2hPa | 2.7V | 00:00:00 | 00:00:00 | 00:00:00 | |
| DK7TD | 2026-09-03 19:47:43 | 48.76753 | 9.14819 | 117° | 44km/h | 2441m | -5.5m/s | 8.1°C | 98.5% | 770.3hPa | 2.7V | 02:01:40 | 03:17:46 | 00:00:00 | |
| DK7TD | 2026-09-03 19:47:32 | 48.76804 | 9.14649 | 112° | 44km/h | 2500m | -5.2m/s | 7.9°C | 97.9% | 764.7hPa | 2.7V | 02:01:40 | 03:17:35 | 00:00:00 | |
| DK7TD | 2026-09-03 19:47:21 | 48.76855 | 9.14484 | 115° | 42km/h | 2560m | -5.3m/s | 7.8°C | 98.3% | 759hPa | 2.7V | 02:01:40 | 03:17:24 | 00:00:00 | |
| DK7TD | 2026-09-03 19:47:10 | 48.76909 | 9.14330 | 120° | 40km/h | 2619m | -6m/s | 7.6°C | 97.9% | 753.7hPa | 2.6V | 02:01:40 | 03:17:13 | 00:00:00 | |
| DK7TD | 2026-09-03 19:46:59 | 48.76962 | 9.14179 | 119° | 40km/h | 2680m | -5.3m/s | 7.2°C | 95.8% | 748hPa | 2.7V | 02:02:31 | 03:17:02 | 00:00:00 | |
| DK7TD | 2026-09-03 19:46:49 | 48.77010 | 9.14040 | 116° | 40km/h | 2754m | -10.6m/s | 6.8°C | 99.8% | 741.8hPa | 2.7V | 02:02:31 | 03:16:52 | 00:00:00 | |
| DK7TD | 2026-09-03 19:46:39 | 48.77056 | 9.13892 | 114° | 42km/h | 2824m | -7m/s | 6.3°C | 97.9% | 735.4hPa | 2.7V | 02:02:31 | 03:16:42 | 00:00:00 | |
| DK7TD | 2026-09-03 19:46:28 | 48.77103 | 9.13737 | 117° | 40km/h | 2894m | -6m/s | 5.8°C | 98.7% | 729.2hPa | 2.7V | 02:02:31 | 03:16:31 | 00:00:00 | |
| DK7TD | 2026-09-03 19:46:18 | 48.77144 | 9.13606 | 111° | 35km/h | 2956m | -7.2m/s | 5.1°C | 100% | 723.5hPa | 2.6V | 02:02:31 | 03:16:21 | 00:00:00 | |
| DK7TD | 2026-09-03 19:46:08 | 48.77180 | 9.13478 | 112° | 37km/h | 3026m | -5.9m/s | 4.5°C | 100% | 717.4hPa | 2.6V | 02:03:22 | 03:16:11 | 00:00:00 | |
| DK7TD | 2026-09-03 19:45:57 | 48.77215 | 9.13324 | 112° | 40km/h | 3100m | -6.3m/s | 4°C | 100% | 710.9hPa | 2.7V | 02:03:22 | 03:16:00 | 00:00:00 | |
| DK7TD | 2026-09-03 19:45:47 | 48.77243 | 9.13185 | 104° | 40km/h | 3170m | -6.4m/s | 3.5°C | 100% | 704.9hPa | 2.7V | 02:03:22 | 03:15:50 | 00:00:00 | |
| DK7TD | 2026-09-03 19:45:36 | 48.77268 | 9.13012 | 104° | 44km/h | 3241m | -7m/s | 3.7°C | 98.1% | 698.8hPa | 2.7V | 02:03:22 | 03:15:39 | 00:00:00 | |
| DK7TD | 2026-09-03 19:45:25 | 48.77299 | 9.12829 | 107° | 46km/h | 3315m | -5.7m/s | 4.1°C | 86.7% | 692.4hPa | 2.6V | 02:04:13 | 03:15:28 | 00:00:00 | |
| DK7TD | 2026-09-03 19:45:14 | 48.77333 | 9.12638 | 104° | 47km/h | 3389m | -6.4m/s | 3.6°C | 90.4% | 686hPa | 2.7V | 02:04:13 | 03:15:17 | 00:00:00 | |
| DK7TD | 2026-09-03 19:45:04 | 48.77364 | 9.12456 | 105° | 51km/h | 3456m | -5.8m/s | 3.1°C | 91.3% | 680.6hPa | 2.6V | 02:04:13 | 03:15:07 | 00:00:00 | |
| DK7TD | 2026-09-03 19:44:53 | 48.77404 | 9.12242 | 106° | 51km/h | 3516m | -5.7m/s | 3°C | 81% | 675.2hPa | 2.7V | 02:04:13 | 03:14:56 | 00:00:00 | |
| DB0ND-19 | 2026-09-03 19:44:53 | 48.77407 | 9.12223 | 106° | 51km/h | 3522m | -5.3m/s | 3.0°C | 75.8% | 674.9hPa | 2.7V | 00:00:00 | 00:00:00 | 00:00:00 | |
| DF3TZ-5 | 2026-09-03 19:44:46 | 48.77431 | 9.12108 | 107° | 51km/h | 3554m | -5.6m/s | 2.8°C | 74.3% | 672.2hPa | 2.7V | 00:00:00 | 00:00:00 | 00:00:00 | |
| DF7PN | 2026-09-03 19:44:45 | 48.77435 | 9.12089 | 107° | 51km/h | 3559m | -5.4m/s | 2.8°C | 74.8% | 671.8hPa | 2.7V | 00:00:00 | 00:00:00 | 00:00:00 | |
| DK7TD | 2026-09-03 19:44:42 | 48.77447 | 9.12031 | 107° | 53km/h | 3575m | -5.9m/s | 2.7°C | 81.9% | 670.5hPa | 2.7V | 02:04:13 | 03:14:45 | 00:00:00 | |
| DK7TD | 2026-09-03 19:44:31 | 48.77487 | 9.11825 | 105° | 47km/h | 3638m | -5.4m/s | 3.3°C | 17.8% | 665.3hPa | 2.7V | 02:05:04 | 03:14:34 | 00:00:00 | |
| DK7TD | 2026-09-03 19:44:21 | 48.77521 | 9.11648 | 107° | 47km/h | 3700m | -6.1m/s | 3.2°C | 8.6% | 660.1hPa | 2.7V | 02:05:04 | 03:14:24 | 00:00:00 | |
| DK7TD | 2026-09-03 19:44:10 | 48.77563 | 9.11447 | 107° | 51km/h | 3769m | -6.9m/s | 2.4°C | 54.3% | 654.6hPa | 2.7V | 02:05:04 | 03:14:13 | 00:00:00 | |
| DK7TD | 2026-09-03 19:44:00 | 48.77604 | 9.11266 | 109° | 49km/h | 3836m | -5.6m/s | 1.6°C | 70.6% | 649.3hPa | 2.6V | 02:05:04 | 03:14:03 | 00:00:00 | |
| DK7TD | 2026-09-03 19:43:50 | 48.77645 | 9.11082 | 108° | 51km/h | 3900m | -6.4m/s | 1°C | 80.1% | 644.1hPa | 2.7V | 02:05:04 | 03:13:53 | 00:00:00 | |
| DK7TD | 2026-09-03 19:43:39 | 48.77689 | 9.10881 | 110° | 49km/h | 3966m | -5.3m/s | 0.7°C | 78% | 638.7hPa | 2.7V | 02:05:55 | 03:13:42 | 00:00:00 | |
| DK7TD | 2026-09-03 19:43:29 | 48.77737 | 9.10713 | 115° | 47km/h | 4021m | -5.4m/s | 0.8°C | 62.7% | 634.5hPa | 2.6V | 02:05:55 | 03:13:32 | 00:00:00 | |
| DK7TD | 2026-09-03 19:43:18 | 48.77796 | 9.10527 | 117° | 49km/h | 4079m | -5.3m/s | 1.6°C | 26.2% | 629.9hPa | 2.7V | 02:05:55 | 03:13:21 | 00:00:00 | |
| DK7TD | 2026-09-03 19:43:08 | 48.77857 | 9.10356 | 120° | 53km/h | 4129m | -4.6m/s | 1.5°C | 30.6% | 626hPa | 2.7V | 02:05:55 | 03:13:11 | 00:00:00 | |
| DK7TD | 2026-09-03 19:42:58 | 48.77925 | 9.10177 | 120° | 55km/h | 4179m | -5.7m/s | 1.2°C | 36.3% | 621.9hPa | 2.6V | 02:05:55 | 03:13:01 | 00:00:00 | |
| DK7TD | 2026-09-03 19:42:47 | 48.78003 | 9.09969 | 118° | 58km/h | 4248m | -6.4m/s | 1°C | 31.9% | 616.8hPa | 2.6V | 02:06:46 | 03:12:50 | 00:00:00 | |
| DK7TD | 2026-09-03 19:42:36 | 48.78081 | 9.09742 | 119° | 60km/h | 4319m | -7.5m/s | 0.5°C | 28.4% | 611.2hPa | 2.6V | 02:06:46 | 03:12:39 | 00:00:00 | |
| DK7TD | 2026-09-03 19:42:26 | 48.78152 | 9.09541 | 116° | 60km/h | 4388m | -7.2m/s | 0.3°C | 14.7% | 606hPa | 2.7V | 02:06:46 | 03:12:29 | 00:00:00 | |
| DK7TD | 2026-09-03 19:42:15 | 48.78234 | 9.09316 | 120° | 60km/h | 4466m | -7.6m/s | -0.3°C | 18.5% | 600.4hPa | 2.6V | 02:06:46 | 03:12:18 | 00:00:00 | |
| DK7TD | 2026-09-03 19:42:05 | 48.78313 | 9.09109 | 122° | 64km/h | 4536m | -6.6m/s | -0.6°C | 27.5% | 595.3hPa | 2.6V | 02:06:46 | 03:12:08 | 00:00:00 | |
| DK7TD | 2026-09-03 19:41:55 | 48.78399 | 9.08909 | 124° | 62km/h | 4609m | -7.4m/s | -1.1°C | 38.9% | 589.9hPa | 2.5V | 02:07:37 | 03:11:58 | 00:00:00 | |
| DK7TD | 2026-09-03 19:41:44 | 48.78501 | 9.08685 | 124° | 66km/h | 4682m | -6.5m/s | -1.6°C | 51% | 584.4hPa | 2.6V | 02:07:37 | 03:11:47 | 00:00:00 | |
| DK7TD | 2026-09-03 19:41:34 | 48.78598 | 9.08477 | 126° | 68km/h | 4752m | -6.6m/s | -2°C | 62.2% | 579.5hPa | 2.6V | 02:07:37 | 03:11:37 | 00:00:00 | |
| DK7TD | 2026-09-03 19:41:24 | 48.78698 | 9.08264 | 125° | 69km/h | 4816m | -5.8m/s | -2.5°C | 67.5% | 574.6hPa | 2.6V | 02:07:37 | 03:11:27 | 00:00:00 | |
| DK7TD | 2026-09-03 19:41:13 | 48.78801 | 9.08024 | 123° | 68km/h | 4880m | -5.9m/s | -3.1°C | 69.1% | 569.9hPa | 2.6V | 02:07:37 | 03:11:16 | 00:00:00 | |
| DK7TD | 2026-09-03 19:41:02 | 48.78909 | 9.07785 | 123° | 68km/h | 4943m | -6.1m/s | -3.6°C | 70.9% | 565.6hPa | 2.6V | 02:08:28 | 03:11:05 | 00:00:00 | |
| DK7TD | 2026-09-03 19:40:52 | 48.79006 | 9.07569 | 124° | 69km/h | 4999m | -5.6m/s | -4.1°C | 79.5% | 561.6hPa | 2.6V | 02:08:28 | 03:10:55 | 00:00:00 | |
| DL1ZP-14 | 2026-09-03 19:40:45 | 48.79077 | 9.07414 | 126° | 69km/h | 5038m | -6.0m/s | -4.4°C | 76.9% | 558.7hPa | 2.6V | 00:00:00 | 00:00:00 | 00:00:00 | |
| DB0ND-19 | 2026-09-03 19:40:44 | 48.79087 | 9.07393 | 127° | 69km/h | 5044m | -5.4m/s | -4.5°C | 77.7% | 558.5hPa | 2.6V | 00:00:00 | 00:00:00 | 00:00:00 | |
| DK7TD | 2026-09-03 19:40:41 | 48.79121 | 9.07330 | 129° | 71km/h | 5061m | -5.1m/s | -4.6°C | 86.1% | 557.2hPa | 2.6V | 02:08:28 | 03:10:44 | 00:00:00 | |
| DK7TD | 2026-09-03 19:40:31 | 48.79228 | 9.07114 | 126° | 73km/h | 5123m | -5.4m/s | -5.1°C | 87.3% | 552.9hPa | 2.6V | 02:08:28 | 03:10:34 | 00:00:00 | |
| DK7TD | 2026-09-03 19:40:21 | 48.79337 | 9.06899 | 127° | 71km/h | 5180m | -6.4m/s | -5.6°C | 89.9% | 548.8hPa | 2.5V | 02:08:28 | 03:10:24 | 00:00:00 | |
| DK7TD | 2026-09-03 19:40:10 | 48.79451 | 9.06652 | 125° | 73km/h | 5245m | -5.8m/s | -6.2°C | 90.4% | 544.4hPa | 2.5V | 02:09:19 | 03:10:13 | 00:00:00 | |
| DK7TD | 2026-09-03 19:40:00 | 48.79555 | 9.06421 | 124° | 75km/h | 5301m | -5.2m/s | -6.6°C | 92.9% | 540.4hPa | 2.5V | 02:09:19 | 03:10:03 | 00:00:00 | |
| DK7TD | 2026-09-03 19:39:49 | 48.79669 | 9.06160 | 122° | 73km/h | 5364m | -5.2m/s | -7.1°C | 93.8% | 536hPa | 2.5V | 02:09:19 | 03:09:52 | 00:00:00 | |
| DK7TD | 2026-09-03 19:39:38 | 48.79779 | 9.05892 | 123° | 77km/h | 5427m | -5.6m/s | -7.6°C | 91.8% | 531.7hPa | 2.6V | 02:09:19 | 03:09:41 | 00:00:00 | |
| DK7TD | 2026-09-03 19:39:28 | 48.79887 | 9.05643 | 124° | 77km/h | 5482m | -5.7m/s | -7.9°C | 88.6% | 527.9hPa | 2.6V | 02:10:10 | 03:09:31 | 00:00:00 | |
| DK7TD | 2026-09-03 19:39:17 | 48.80009 | 9.05366 | 125° | 78km/h | 5548m | -5.7m/s | -8.4°C | 88.2% | 523.6hPa | 2.5V | 02:10:10 | 03:09:20 | 00:00:00 | |
| DK7TD | 2026-09-03 19:39:07 | 48.80124 | 9.05124 | 127° | 78km/h | 5606m | -5.8m/s | -8.8°C | 89.8% | 519.6hPa | 2.5V | 02:10:10 | 03:09:10 | 00:00:00 | |
| DK7TD | 2026-09-03 19:38:56 | 48.80253 | 9.04863 | 128° | 73km/h | 5671m | -6m/s | -9.3°C | 88.2% | 515.4hPa | 2.5V | 02:10:10 | 03:08:59 | 00:00:00 | |
| DK7TD | 2026-09-03 19:38:46 | 48.80371 | 9.04632 | 128° | 77km/h | 5735m | -5.9m/s | -9.8°C | 89.4% | 511hPa | 2.6V | 02:10:10 | 03:08:49 | 00:00:00 | |
| DK7TD | 2026-09-03 19:38:35 | 48.80495 | 9.04386 | 127° | 71km/h | 5804m | -7m/s | -10.3°C | 96.6% | 506.5hPa | 2.5V | 02:11:01 | 03:08:38 | 00:00:00 | |
| DK7TD | 2026-09-03 19:38:24 | 48.80614 | 9.04139 | 125° | 73km/h | 5871m | -6.2m/s | -10.7°C | 96.3% | 502.1hPa | 2.6V | 02:11:01 | 03:08:27 | 00:00:00 | |
| DK7TD | 2026-09-03 19:38:13 | 48.80731 | 9.03873 | 124° | 78km/h | 5938m | -6.2m/s | -11.1°C | 97.4% | 497.7hPa | 2.5V | 02:11:01 | 03:08:16 | 00:00:00 | |
| DK7TD | 2026-09-03 19:38:02 | 48.80856 | 9.03598 | 125° | 80km/h | 6006m | -6m/s | -11.4°C | 98.4% | 493.3hPa | 2.6V | 02:11:01 | 03:08:05 | 00:00:00 | |
| DK7TD | 2026-09-03 19:37:52 | 48.80978 | 9.03342 | 126° | 82km/h | 6069m | -6.1m/s | -11.6°C | 96.6% | 489.4hPa | 2.6V | 02:11:01 | 03:07:55 | 00:00:00 | |
| DK7TD | 2026-09-03 19:37:41 | 48.81117 | 9.03058 | 128° | 86km/h | 6137m | -5.9m/s | -12.1°C | 97.6% | 485hPa | 2.5V | 02:11:52 | 03:07:44 | 00:00:00 | |
| DK7TD | 2026-09-03 19:37:31 | 48.81251 | 9.02798 | 129° | 86km/h | 6198m | -5.8m/s | -12.5°C | 98.3% | 481.2hPa | 2.5V | 02:11:52 | 03:07:34 | 00:00:00 | |
| DK7TD | 2026-09-03 19:37:20 | 48.81404 | 9.02515 | 129° | 89km/h | 6265m | -5.8m/s | -12.6°C | 94.9% | 476.9hPa | 2.5V | 02:11:52 | 03:07:23 | 00:00:00 | |
| DK7TD | 2026-09-03 19:37:09 | 48.81557 | 9.02223 | 128° | 89km/h | 6332m | -5.9m/s | -12.9°C | 92.3% | 472.8hPa | 2.5V | 02:11:52 | 03:07:12 | 00:00:00 | |
| DK7TD | 2026-09-03 19:36:58 | 48.81707 | 9.01930 | 128° | 88km/h | 6400m | -6.1m/s | -13.3°C | 89% | 468.6hPa | 2.5V | 02:11:52 | 03:07:01 | 00:00:00 | |
| DK7TD | 2026-09-03 19:36:47 | 48.81854 | 9.01637 | 126° | 88km/h | 6466m | -5.9m/s | -13.5°C | 87.2% | 464.5hPa | 2.6V | 02:12:43 | 03:06:50 | 00:00:00 | |
| DK7TD | 2026-09-03 19:36:36 | 48.82003 | 9.01344 | 128° | 88km/h | 6534m | -6.3m/s | -13.9°C | 87.1% | 460.4hPa | 2.6V | 02:12:43 | 03:06:39 | 00:00:00 | |
| DK7TD | 2026-09-03 19:36:25 | 48.82157 | 9.01047 | 127° | 89km/h | 6600m | -6m/s | -14.3°C | 87.2% | 456.4hPa | 2.5V | 02:12:43 | 03:06:28 | 00:00:00 | |
| DK7TD | 2026-09-03 19:36:14 | 48.82304 | 9.00749 | 127° | 88km/h | 6664m | -5.7m/s | -14.6°C | 86% | 452.6hPa | 2.6V | 02:12:43 | 03:06:17 | 00:00:00 | |
| DK7TD | 2026-09-03 19:36:04 | 48.82436 | 9.00479 | 127° | 88km/h | 6722m | -6.4m/s | -15°C | 84.9% | 449.1hPa | 2.5V | 02:13:34 | 03:06:07 | 00:00:00 | |
| DK7TD | 2026-09-03 19:35:53 | 48.82582 | 9.00186 | 127° | 88km/h | 6786m | -5.9m/s | -15.4°C | 84.6% | 445.3hPa | 2.6V | 02:13:34 | 03:05:56 | 00:00:00 | |
| DK7TD | 2026-09-03 19:35:42 | 48.82728 | 8.99903 | 129° | 84km/h | 6852m | -5.8m/s | -15.8°C | 82.6% | 441.5hPa | 2.5V | 02:13:34 | 03:05:45 | 00:00:00 | |
| DK7TD | 2026-09-03 19:35:32 | 48.82856 | 8.99645 | 128° | 80km/h | 6909m | -5.7m/s | -16.2°C | 81.8% | 438.2hPa | 2.6V | 02:13:34 | 03:05:35 | 00:00:00 | |
| DK7TD | 2026-09-03 19:35:21 | 48.82998 | 8.99371 | 129° | 84km/h | 6970m | -5.3m/s | -16.6°C | 82.3% | 434.6hPa | 2.6V | 02:13:34 | 03:05:24 | 00:00:00 | |
| DK7TD | 2026-09-03 19:35:11 | 48.83131 | 8.99114 | 127° | 82km/h | 7027m | -5.6m/s | -17.1°C | 84.1% | 431.4hPa | 2.5V | 02:14:25 | 03:05:14 | 00:00:00 | |
| DK7TD | 2026-09-03 19:35:01 | 48.83258 | 8.98867 | 126° | 80km/h | 7089m | -6m/s | -17.4°C | 82.4% | 427.8hPa | 2.5V | 02:14:25 | 03:05:04 | 00:00:00 | |
| DK7TD | 2026-09-03 19:34:50 | 48.83392 | 8.98605 | 127° | 80km/h | 7153m | -5.9m/s | -17.9°C | 81.7% | 424.1hPa | 2.6V | 02:14:25 | 03:04:53 | 00:00:00 | |
| DK7TD | 2026-09-03 19:34:40 | 48.83509 | 8.98358 | 125° | 78km/h | 7212m | -5.7m/s | -18.2°C | 80.5% | 420.8hPa | 2.6V | 02:14:25 | 03:04:43 | 00:00:00 | |
| DK7TD | 2026-09-03 19:34:29 | 48.83642 | 8.98084 | 127° | 82km/h | 7275m | -5.5m/s | -18.7°C | 80.5% | 417.3hPa | 2.5V | 02:14:25 | 03:04:32 | 00:00:00 | |
| DK7TD | 2026-09-03 19:34:19 | 48.83764 | 8.97838 | 126° | 80km/h | 7331m | -5.7m/s | -19.1°C | 80.1% | 414.1hPa | 2.6V | 02:15:16 | 03:04:22 | 00:00:00 | |
| DK7TD | 2026-09-03 19:34:09 | 48.83884 | 8.97593 | 127° | 78km/h | 7389m | -6.4m/s | -19.5°C | 80.3% | 411.1hPa | 2.6V | 02:15:16 | 03:04:12 | 00:00:00 | |
| DK7TD | 2026-09-03 19:33:59 | 48.84002 | 8.97348 | 127° | 78km/h | 7446m | -6.2m/s | -20°C | 79.7% | 407.8hPa | 2.6V | 02:15:16 | 03:04:02 | 00:00:00 | |
| DK7TD | 2026-09-03 19:33:48 | 48.84136 | 8.97079 | 128° | 78km/h | 7509m | -6.4m/s | -20.4°C | 79.3% | 404.4hPa | 2.6V | 02:15:16 | 03:03:51 | 00:00:00 | |
| DK7TD | 2026-09-03 19:33:38 | 48.84255 | 8.96845 | 127° | 78km/h | 7578m | -10.1m/s | -20.9°C | 80.2% | 400.7hPa | 2.6V | 02:15:16 | 03:03:41 | 00:00:00 | |
| DK7TD | 2026-09-03 19:33:28 | 48.84379 | 8.96605 | 129° | 80km/h | 7641m | -5.6m/s | -21.4°C | 81.5% | 397.2hPa | 2.6V | 02:16:07 | 03:03:31 | 00:00:00 | |
| DK7TD | 2026-09-03 19:33:17 | 48.84521 | 8.96348 | 132° | 78km/h | 7706m | -6.6m/s | -21.9°C | 78.3% | 393.7hPa | 2.6V | 02:16:07 | 03:03:20 | 00:00:00 | |
| DK7TD | 2026-09-03 19:33:06 | 48.84666 | 8.96090 | 131° | 78km/h | 7772m | -5.5m/s | -22.5°C | 78.7% | 390.1hPa | 2.6V | 02:16:07 | 03:03:09 | 00:00:00 | |
| DK7TD | 2026-09-03 19:32:55 | 48.84811 | 8.95837 | 131° | 80km/h | 7837m | -5.8m/s | -23°C | 80.2% | 386.7hPa | 2.6V | 02:16:07 | 03:02:58 | 00:00:00 | |
| DK7TD | 2026-09-03 19:32:45 | 48.84948 | 8.95602 | 130° | 84km/h | 7900m | -6.1m/s | -23.5°C | 83.2% | 383.4hPa | 2.5V | 02:16:07 | 03:02:48 | 00:00:00 | |
| DK7TD | 2026-09-03 19:32:35 | 48.85085 | 8.95360 | 131° | 82km/h | 7963m | -6.4m/s | -24°C | 83.5% | 380hPa | 2.5V | 02:16:58 | 03:02:38 | 00:00:00 | |
| DK7TD | 2026-09-03 19:32:24 | 48.85239 | 8.95093 | 133° | 84km/h | 8033m | -6.2m/s | -24.6°C | 83.6% | 376.4hPa | 2.6V | 02:16:58 | 03:02:27 | 00:00:00 | |
| DK7TD | 2026-09-03 19:32:14 | 48.85381 | 8.94853 | 135° | 84km/h | 8097m | -6.7m/s | -25.1°C | 86.5% | 373.1hPa | 2.5V | 02:16:58 | 03:02:17 | 00:00:00 | |
| DK7TD | 2026-09-03 19:32:04 | 48.85527 | 8.94621 | 131° | 78km/h | 8173m | -9.1m/s | -25.5°C | 83.5% | 369.4hPa | 2.6V | 02:16:58 | 03:02:07 | 00:00:00 | |
| DK7TD | 2026-09-03 19:31:53 | 48.85688 | 8.94358 | 132° | 88km/h | 8256m | -7.6m/s | -26.2°C | 85.8% | 365.1hPa | 2.6V | 02:16:58 | 03:01:56 | 00:00:00 | |
| DF3TZ-5 | 2026-09-03 19:31:50 | 48.85732 | 8.94284 | 131° | 88km/h | 8279m | -7.3m/s | -26.5°C | 79.7% | 364.0hPa | 2.5V | 00:00:00 | 00:00:00 | 00:00:00 | |
| DF7PN | 2026-09-03 19:31:49 | 48.85760 | 8.94232 | 128° | 84km/h | 8294m | -8.0m/s | -26.6°C | 79.6% | 363.2hPa | 2.5V | 00:00:00 | 00:00:00 | 00:00:00 | |
| BIOWL1-15 | 2026-09-03 19:31:42 | 48.85842 | 8.94092 | 133° | 84km/h | 8341m | -7.2m/s | -26.9°C | 86.5% | 360.9hPa | 2.5V | 02:17:49 | 03:01:45 | 00:00:00 | |
| DK7TD | 2026-09-03 19:31:32 | 48.85986 | 8.93846 | 134° | 86km/h | 8412m | -6.6m/s | -27.6°C | 87.4% | 357.3hPa | 2.6V | 02:17:49 | 03:01:35 | 00:00:00 | |
| BIOWL1-15 | 2026-09-03 19:31:30 | 48.86171 | 8.93519 | 132° | 91km/h | 8500m | -6.6m/s | -28.3°C | 86.6% | 352.9hPa | 2.5V | 02:17:49 | 03:01:22 | 00:00:00 | |
| DK7TD | 2026-09-03 19:31:22 | 48.86126 | 8.93596 | 131° | 88km/h | 8479m | -7.5m/s | -28.1°C | 86.5% | 354hPa | 2.5V | 02:17:49 | 03:01:25 | 00:00:00 | |
| BIOWL1-15 | 2026-09-03 19:31:20 | 48.86186 | 8.93492 | 132° | 91km/h | 8506m | -6.6m/s | -28.4°C | 86.6% | 352.6hPa | 2.5V | 02:17:49 | 03:01:21 | 00:00:00 | |
| DK7TD | 2026-09-03 19:31:11 | 48.86295 | 8.93319 | 135° | 82km/h | 8553m | -8m/s | -28.7°C | 84.5% | 350.3hPa | 2.6V | 02:17:49 | 03:01:14 | 00:00:00 | |
| DO3MHA-11 | 2026-09-03 19:31:11 | 48.86295 | 8.93319 | 136° | 84km/h | 8553m | -7.9m/s | -28.7°C | 86.4% | 350.3hPa | 2.6V | 00:00:00 | 03:01:14 | 00:00:00 | |
| DM0DOS-11 | 2026-09-03 19:31:10 | 48.86385 | 8.93187 | 136° | 84km/h | 8599m | -7.8m/s | -28.9°C | 78.5% | 348.1hPa | 2.6V | 02:17:44 | 03:01:08 | 00:00:00 | |
| BIOWL1-15 | 2026-09-03 19:31:08 | 48.86340 | 8.93253 | 136° | 82km/h | 8576m | -8.7m/s | -28.8°C | 82% | 349.3hPa | 2.5V | 02:17:49 | 03:01:11 | 00:00:00 | |
| DK7TD | 2026-09-03 19:31:01 | 48.86446 | 8.93092 | 133° | 89km/h | 8629m | -7.3m/s | -28.9°C | 73.1% | 346.6hPa | 2.6V | 02:17:49 | 03:01:04 | 00:00:00 | |
| BIOWL1-15 | 2026-09-03 19:30:59 | 48.86509 | 8.92990 | 133° | 91km/h | 8658m | -6.5m/s | -29.1°C | 71.3% | 345.2hPa | 2.5V | 02:18:40 | 03:01:00 | 00:00:00 | |
| DM0DOS-11 | 2026-09-03 19:30:58 | 48.86571 | 8.92889 | 133° | 88km/h | 8684m | -7m/s | -29.3°C | 70.8% | 343.9hPa | 2.5V | 02:17:56 | 03:00:56 | 00:00:00 | |
| DK7TD | 2026-09-03 19:30:50 | 48.86617 | 8.92815 | 132° | 88km/h | 8705m | -6.4m/s | -29.5°C | 71.5% | 343hPa | 2.6V | 02:18:40 | 03:00:53 | 00:00:00 | |
| DB0UT-7 | 2026-09-03 19:30:50 | 48.86617 | 8.92815 | 132° | 88km/h | 8705m | -6.3m/s | -29.4°C | 70.4% | 342.9hPa | 2.6V | 02:17:00 | 03:00:53 | 00:00:00 | |
| KANTATE | 2026-09-03 19:30:49 | 48.86617 | 8.92815 | 133° | 88km/h | 8705m | -6.4m/s | -29.5°C | 64.6% | 343.0hPa | 2.5V | 02:18:00 | 00:00:00 | 00:00:00 | |
| DM0DOS-11 | 2026-09-03 19:30:48 | 48.86723 | 8.92635 | 132° | 91km/h | 8753m | -6.8m/s | -29.9°C | 71.7% | 340.6hPa | 2.5V | 02:18:06 | 03:00:46 | 00:00:00 | |
| BIOWL1-15 | 2026-09-03 19:30:47 | 48.86660 | 8.92739 | 131° | 89km/h | 8725m | -7.5m/s | -29.6°C | 72.1% | 0hPa | 2.5V | 02:18:40 | 03:00:50 | 00:00:00 | |
| DF7PN | 2026-09-03 19:30:47 | 48.86676 | 8.92714 | 132° | 89km/h | 8732m | -6.7m/s | -29.7°C | 65.3% | 341.6hPa | 2.5V | 00:00:00 | 00:00:00 | 00:00:00 | |
| DK7TD | 2026-09-03 19:30:39 | 48.86783 | 8.92535 | 132° | 86km/h | 8782m | -7.5m/s | -30.1°C | 73% | 339.3hPa | 2.5V | 02:18:40 | 03:00:42 | 00:00:00 | |
| BIOWL1-15 | 2026-09-03 19:30:38 | 48.86828 | 8.92460 | 132° | 89km/h | 8804m | -7.7m/s | -30.3°C | 72.4% | 0hPa | 2.6V | 02:18:40 | 03:00:39 | 00:00:00 | |
| DK7TD | 2026-09-03 19:30:28 | 48.86945 | 8.92254 | 131° | 88km/h | 8859m | -7.4m/s | -30.8°C | 69.2% | 335.6hPa | 2.5V | 02:18:40 | 03:00:31 | 00:00:00 | |
| BIOWL1-15 | 2026-09-03 19:30:25 | 48.86989 | 8.92178 | 132° | 88km/h | 8880m | -6.7m/s | -30.9°C | 69.8% | 0hPa | 2.6V | 02:18:40 | 03:00:28 | 00:00:00 | |
| DL1ZP-14 | 2026-09-03 19:30:24 | 48.87003 | 8.92153 | 130° | 86km/h | 8886m | -7.1m/s | -31.0°C | 62.9% | 334.4hPa | 2.5V | 00:00:00 | 00:00:00 | 00:00:00 | |
| DN1GJH-1 | 2026-09-03 19:30:23 | 48.87003 | 8.92153 | 132° | 86km/h | 8887m | -7.1m/s | -31.0°C | 62.9% | 334.4hPa | 2.6V | 02:18:00 | 00:00:00 | 00:00:00 | |
| DO3MHA-11 | 2026-09-03 19:30:21 | 48.87047 | 8.92077 | 131° | 89km/h | 8909m | -7.9m/s | -31.1°C | 69.5% | 333.3hPa | 2.6V | 02:18:00 | 03:00:24 | 00:00:00 | |
| DM0DOS-11 | 2026-09-03 19:30:20 | 48.87136 | 8.91919 | 130° | 89km/h | 8953m | -7.4m/s | -31.5°C | 67.2% | 331.3hPa | 2.6V | 02:18:34 | 03:00:18 | 00:00:00 | |
| DK7TD | 2026-09-03 19:30:17 | 48.87107 | 8.91972 | 131° | 91km/h | 8938m | -7.4m/s | -31.4°C | 69.4% | 332hPa | 2.5V | 02:18:40 | 03:00:20 | 00:00:00 | |
| BIOWL1-15 | 2026-09-03 19:30:14 | 48.87151 | 8.91893 | 131° | 91km/h | 8960m | -7.4m/s | 0°C | 0% | 0hPa | 2.5V | 02:18:40 | 03:00:17 | 00:00:00 | |
| AZAK | 2026-09-03 19:30:14 | 48.87151 | 8.91892 | 132° | 91km/h | 8960m | -7.4m/s | -31.6°C | 60.7% | 331.0hPa | 2.6V | 02:18:00 | 00:00:00 | 00:00:00 | |
| DM7RM-13 | 2026-09-03 19:30:12 | 48.87166 | 8.91866 | 131° | 89km/h | 8968m | -7.7m/s | -31.6°C | 60.1% | 330.6hPa | 2.6V | 02:18:00 | 00:00:00 | 00:00:00 | |
| DO3MHA-11 | 2026-09-03 19:30:11 | 48.87195 | 8.91814 | 131° | 91km/h | 8982m | -6.8m/s | -31.7°C | 65.4% | 329.9hPa | 2.6V | 00:00:00 | 03:00:14 | 00:00:00 | |
| DM0DOS-11 | 2026-09-03 19:30:10 | 48.87284 | 8.91654 | 129° | 91km/h | 9025m | -7.4m/s | -32.1°C | 66.1% | 327.9hPa | 2.6V | 02:18:44 | 03:00:08 | 00:00:00 | |
| DK7TD | 2026-09-03 19:30:07 | 48.87255 | 8.91708 | 129° | 91km/h | 9010m | -7.6m/s | -32°C | 67.6% | 328.6hPa | 2.5V | 02:19:31 | 03:00:10 | 00:00:00 | |
| BIOWL1-15 | 2026-09-03 19:30:04 | 48.87299 | 8.91626 | 129° | 91km/h | 9033m | -8m/s | 0°C | 0% | 0hPa | 2.5V | 18:12:15 | 03:00:07 | 00:00:00 | |
| CB1BUN | 2026-09-03 19:30:03 | 48.87299 | 8.91626 | 130° | 91km/h | 9033m | -8.0m/s | -32.2°C | 60.3% | 327.6hPa | 2.6V | 02:19:00 | 00:00:00 | 00:00:00 | |
| DO3MHA-11 | 2026-09-03 19:30:01 | 48.87343 | 8.91546 | 132° | 89km/h | 9056m | -7.6m/s | -32.4°C | 66.5% | 326.5hPa | 2.6V | 00:00:00 | 03:00:04 | 00:00:00 | |
| DM0DOS-11 | 2026-09-03 19:30:00 | 48.87432 | 8.91392 | 130° | 89km/h | 9100m | -7.6m/s | -32.8°C | 64.9% | 324.5hPa | 2.6V | 02:18:54 | 02:59:58 | 00:00:00 | |
| DK7TD | 2026-09-03 19:29:57 | 48.87403 | 8.91443 | 132° | 88km/h | 9085m | -7.1m/s | -32.7°C | 67.3% | 325.2hPa | 2.5V | 02:19:31 | 03:00:00 | 00:00:00 | |
| BIOWL1-15 | 2026-09-03 19:29:53 | 48.87599 | 8.91099 | 131° | 91km/h | 9182m | -7.5m/s | 0°C | 0% | 0hPa | 2.6V | 18:12:15 | 02:59:47 | 00:00:00 | |
| AZAK | 2026-09-03 19:29:53 | 48.87461 | 8.91339 | 131° | 89km/h | 9115m | -7.5m/s | -32.9°C | 58.2% | 323.8hPa | 2.5V | 00:00:00 | 00:00:00 | 00:00:00 | |
| NBG1-10 | 2026-09-03 19:29:52 | 48.87476 | 8.91312 | 130° | 93km/h | 9122m | -7.6m/s | -32.9°C | 63.9% | 323.5hPa | 2.5V | 00:00:00 | 02:59:55 | 00:00:00 | |
| DO3MHA-11 | 2026-09-03 19:29:51 | 48.87491 | 8.91286 | 131° | 91km/h | 9130m | -7.7m/s | -33.0°C | 63.8% | 323.1hPa | 2.5V | 02:18:00 | 02:59:54 | 00:00:00 | |
| DM0DOS-11 | 2026-09-03 19:29:50 | 48.87584 | 8.91125 | 131° | 93km/h | 9174m | -7.6m/s | -33.4°C | 63.5% | 321.1hPa | 2.6V | 02:19:04 | 02:59:48 | 00:00:00 | |
| DK7TD | 2026-09-03 19:29:46 | 48.87568 | 8.91152 | 132° | 93km/h | 9167m | -7.4m/s | -33.4°C | 65.2% | 321.4hPa | 2.5V | 02:19:31 | 02:59:49 | 00:00:00 | |
| DF7PN | 2026-09-03 19:29:44 | 48.87599 | 8.91099 | 130° | 91km/h | 9182m | -7.5m/s | -33.5°C | 57.1% | 320.8hPa | 2.6V | 00:00:00 | 00:00:00 | 00:00:00 | |
| CB1BUN | 2026-09-03 19:29:43 | 48.87599 | 8.91099 | 132° | 91km/h | 9182m | -7.5m/s | -33.5°C | 57.1% | 320.7hPa | 2.6V | 02:19:00 | 00:00:00 | 00:00:00 | |
| KANTATE | 2026-09-03 19:29:42 | 48.87614 | 8.91072 | 132° | 91km/h | 9190m | -7.4m/s | -33.6°C | 56.5% | 320.4hPa | 2.6V | 02:19:00 | 00:00:00 | 00:00:00 | |
| DO3MHA-11 | 2026-09-03 19:29:41 | 48.87644 | 8.91019 | 130° | 91km/h | 9204m | -7.3m/s | -33.6°C | 61.3% | 319.7hPa | 2.6V | 00:00:00 | 02:59:44 | 00:00:00 | |
| DM0DOS-11 | 2026-09-03 19:29:40 | 48.87732 | 8.90861 | 130° | 89km/h | 9249m | -7.3m/s | -34°C | 54.7% | 317.6hPa | 2.6V | 02:19:14 | 02:59:38 | 00:00:00 | |
| DK7TD | 2026-09-03 19:29:35 | 48.87732 | 8.90861 | 130° | 89km/h | 9249m | -7.3m/s | -34°C | 56.5% | 317.6hPa | 2.6V | 02:19:31 | 02:59:38 | 00:00:00 | |
| DM7RM-13 | 2026-09-03 19:29:32 | 48.87762 | 8.90808 | 132° | 91km/h | 9264m | -7.3m/s | -34.1°C | 48.5% | 317.1hPa | 2.5V | 02:19:00 | 00:00:00 | 00:00:00 | |
| DM0DOS-11 | 2026-09-03 19:29:30 | 48.87889 | 8.90597 | 132° | 93km/h | 9322m | -7.6m/s | -34.5°C | 50.3% | 314.4hPa | 2.5V | 02:19:24 | 02:59:28 | 00:00:00 | |
| DK7TD | 2026-09-03 19:29:24 | 48.87905 | 8.90570 | 132° | 95km/h | 9330m | -7.2m/s | -34.6°C | 52.3% | 314hPa | 2.6V | 02:19:31 | 02:59:27 | 00:00:00 | |
| DB0ND-19 | 2026-09-03 19:29:22 | 48.87953 | 8.90490 | 131° | 95km/h | 9353m | -7.5m/s | -34.8°C | 43.8% | 313.0hPa | 2.5V | 00:00:00 | 00:00:00 | 00:00:00 | |
| DO3MHA-11 | 2026-09-03 19:29:21 | 48.87953 | 8.90490 | 132° | 97km/h | 9353m | -7.5m/s | -34.7°C | 49.0% | 312.9hPa | 2.5V | 02:19:00 | 02:59:24 | 00:00:00 | |
| DM0DOS-11 | 2026-09-03 19:29:20 | 48.88052 | 8.90328 | 134° | 97km/h | 9395m | -7.7m/s | -35.1°C | 48.6% | 311.2hPa | 2.5V | 02:19:34 | 02:59:18 | 00:00:00 | |
| DK7TD | 2026-09-03 19:29:13 | 48.88086 | 8.90274 | 135° | 97km/h | 9408m | -6.5m/s | -35.2°C | 50.4% | 310.6hPa | 2.6V | 02:20:22 | 02:59:16 | 00:00:00 | |
| DO3MHA-11 | 2026-09-03 19:29:11 | 48.88120 | 8.90221 | 135° | 99km/h | 9420m | -6.4m/s | -35.2°C | 49.3% | 309.9hPa | 2.5V | 00:00:00 | 02:59:14 | 00:00:00 | |
| DM0DOS-11 | 2026-09-03 19:29:10 | 48.88220 | 8.90055 | 132° | 99km/h | 9458m | -6.7m/s | -35.6°C | 50.7% | 308.3hPa | 2.5V | 02:19:44 | 02:59:08 | 00:00:00 | |
| DK7TD | 2026-09-03 19:29:03 | 48.88254 | 8.90001 | 135° | 99km/h | 9471m | -6.9m/s | -35.8°C | 53% | 307.7hPa | 2.6V | 02:20:22 | 02:59:06 | 00:00:00 | |
| DO3MHA-11 | 2026-09-03 19:29:01 | 48.88290 | 8.89948 | 137° | 99km/h | 9485m | -7.3m/s | -35.8°C | 51.5% | 307.0hPa | 2.5V | 00:00:00 | 02:59:04 | 00:00:00 | |
| DM0DOS-11 | 2026-09-03 19:29:00 | 48.88400 | 8.89796 | 135° | 99km/h | 9524m | -6.2m/s | -36.3°C | 53.6% | 305.4hPa | 2.5V | 02:19:54 | 02:58:58 | 00:00:00 | |
| DK7TD | 2026-09-03 19:28:53 | 48.88435 | 8.89742 | 136° | 99km/h | 9537m | -6.5m/s | -36.4°C | 56.5% | 304.7hPa | 2.5V | 02:20:22 | 02:58:56 | 00:00:00 | |
| DB0ND-19 | 2026-09-03 19:28:51 | 48.88489 | 8.89665 | 138° | 97km/h | 9557m | -6.6m/s | -36.5°C | 50.2% | 303.9hPa | 2.6V | 00:00:00 | 00:00:00 | 00:00:00 | |
| DM0DOS-11 | 2026-09-03 19:28:50 | 48.88584 | 8.89539 | 138° | 100km/h | 9589m | -6.3m/s | -36.8°C | 58.4% | 302.6hPa | 2.6V | 02:20:04 | 02:58:48 | 00:00:00 | |
| DF3TZ-5 | 2026-09-03 19:28:44 | 48.88602 | 8.89513 | 136° | 100km/h | 9596m | -6.4m/s | -36.9°C | 52.5% | 302.3hPa | 2.5V | 00:00:00 | 00:00:00 | 00:00:00 | |
| DK7TD | 2026-09-03 19:28:42 | 48.88639 | 8.89459 | 135° | 102km/h | 9608m | -5.7m/s | -37°C | 60.9% | 301.7hPa | 2.5V | 02:20:22 | 02:58:45 | 00:00:00 | |
| DO3MHA-11 | 2026-09-03 19:28:41 | 48.88658 | 8.89431 | 136° | 102km/h | 9614m | -6.8m/s | -37.0°C | 59.4% | 301.4hPa | 2.6V | 00:00:00 | 02:58:44 | 00:00:00 | |
| DM0DOS-11 | 2026-09-03 19:28:40 | 48.88771 | 8.89269 | 138° | 102km/h | 9654m | -5.7m/s | -37.5°C | 62.7% | 299.7hPa | 2.6V | 02:20:14 | 02:58:38 | 00:00:00 | |
| DK7TD | 2026-09-03 19:28:32 | 48.88830 | 8.89194 | 140° | 99km/h | 9673m | -6.6m/s | -37.6°C | 63.9% | 298.9hPa | 2.5V | 02:20:22 | 02:58:35 | 00:00:00 | |
| DO3MHA-11 | 2026-09-03 19:28:31 | 48.88849 | 8.89170 | 141° | 99km/h | 9680m | -7.2m/s | -37.7°C | 63.5% | 298.6hPa | 2.5V | 00:00:00 | 02:58:34 | 00:00:00 | |
| DM0DOS-11 | 2026-09-03 19:28:30 | 48.88960 | 8.89016 | 135° | 100km/h | 9722m | -8m/s | -38.1°C | 65.9% | 296.8hPa | 2.5V | 02:20:24 | 02:58:28 | 00:00:00 | |
| DK7TD | 2026-09-03 19:28:21 | 48.89032 | 8.88910 | 137° | 99km/h | 9754m | -8.3m/s | -38.4°C | 68.6% | 295.5hPa | 2.4V | 02:21:13 | 02:58:24 | 00:00:00 | |
| DK7TD | 2026-09-03 19:28:10 | 48.89246 | 8.88657 | 144° | 99km/h | 9848m | -8.3m/s | -39.3°C | 73.9% | 291.5hPa | 2.5V | 02:21:13 | 02:58:13 | 00:00:00 | |
| DK5PH-5 | 2026-09-03 19:28:10 | 48.89246 | 8.88657 | 145° | 110km/h | 9848m | -8.2m/s | -39.2°C | 74.8% | 291.4hPa | 2.6V | 00:00:00 | 02:58:13 | 00:00:00 | |
| DO3MHA-11 | 2026-09-03 19:28:01 | 48.89430 | 8.88445 | 145° | 111km/h | 9922m | -7.8m/s | -39.9°C | 77.8% | 288.3hPa | 2.6V | 00:00:00 | 02:58:04 | 00:00:00 | |
| DM0DOS-11 | 2026-09-03 19:28:00 | 48.89566 | 8.88299 | 145° | 113km/h | 9966m | -8.2m/s | -40.3°C | 75.3% | 286.6hPa | 2.6V | 02:20:54 | 02:57:58 | 00:00:00 | |
| DK7TD | 2026-09-03 19:27:59 | 48.89474 | 8.88397 | 145° | 110km/h | 9937m | -7.5m/s | -40.1°C | 75.6% | 287.7hPa | 2.5V | 02:21:13 | 02:58:02 | 00:00:00 | |
| DN1GJH-1 | 2026-09-03 19:27:58 | 48.89474 | 8.88397 | 146° | 110km/h | 9937m | -7.5m/s | -40.1°C | 69.7% | 287.7hPa | 2.5V | 02:21:00 | 00:00:00 | 00:00:00 | |
| DB0UT-9 | 2026-09-03 19:27:56 | 48.89520 | 8.88348 | 146° | 111km/h | 9952m | -6.8m/s | -40.2°C | 69.0% | 287.2hPa | 2.5V | 02:21:00 | 00:00:00 | 00:00:00 | |
| KANTATE | 2026-09-03 19:27:55 | 48.89543 | 8.88324 | 146° | 111km/h | 9958m | -6.9m/s | -40.3°C | 68.1% | 286.8hPa | 2.5V | 02:21:00 | 00:00:00 | 00:00:00 | |
| DL0LBS | 2026-09-03 19:27:54 | 48.89566 | 8.88299 | 147° | 113km/h | 9966m | -8.2m/s | -40.3°C | 67.1% | 286.6hPa | 2.5V | 02:21:00 | 00:00:00 | 00:00:00 | |
| AZAK | 2026-09-03 19:27:53 | 48.89590 | 8.88275 | 147° | 113km/h | 9974m | -7.3m/s | -40.4°C | 66.1% | 286.2hPa | 2.5V | 02:21:00 | 00:00:00 | 00:00:00 | |
| DO3MHA-11 | 2026-09-03 19:27:51 | 48.89661 | 8.88202 | 146° | 113km/h | 9995m | -6.9m/s | -40.4°C | 67.4% | 285.3hPa | 2.5V | 02:20:00 | 02:57:54 | 00:00:00 | |
| DM0DOS-11 | 2026-09-03 19:27:50 | 48.89799 | 8.88054 | 144° | 113km/h | 10035m | -7.3m/s | -40.6°C | 57.5% | 283.6hPa | 2.5V | 02:21:04 | 02:57:48 | 00:00:00 | |
| DK7TD | 2026-09-03 19:27:49 | 48.89707 | 8.88153 | 145° | 111km/h | 10009m | -7m/s | -40.5°C | 63.3% | 284.7hPa | 2.6V | 02:21:13 | 02:57:52 | 00:00:00 | |
| DB0ND-19 | 2026-09-03 19:27:49 | 48.89730 | 8.88129 | 145° | 110km/h | 10016m | -6.6m/s | -40.5°C | 55.2% | 284.5hPa | 2.5V | 00:00:00 | 00:00:00 | 00:00:00 | |
| DF3TZ-5 | 2026-09-03 19:27:42 | 48.89894 | 8.87952 | 145° | 115km/h | 10063m | -6.6m/s | -40.8°C | 44.0% | 282.5hPa | 2.5V | 00:00:00 | 00:00:00 | 00:00:00 | |
| DO3MHA-11 | 2026-09-03 19:27:41 | 48.89894 | 8.87952 | 146° | 115km/h | 10063m | -6.5m/s | -40.7°C | 50.3% | 282.4hPa | 2.5V | 00:00:00 | 02:57:44 | 00:00:00 | |
| DM0DOS-11 | 2026-09-03 19:27:40 | 48.90040 | 8.87805 | 147° | 113km/h | 10102m | -6.8m/s | -41°C | 39.5% | 280.8hPa | 2.5V | 02:21:14 | 02:57:38 | 00:00:00 | |
| DK7TD | 2026-09-03 19:27:38 | 48.89967 | 8.87877 | 147° | 117km/h | 10083m | -6.9m/s | -40.9°C | 43.7% | 281.7hPa | 2.6V | 02:21:13 | 02:57:41 | 00:00:00 | |
| DN1GJH-1 | 2026-09-03 19:27:37 | 48.89967 | 8.87877 | 148° | 117km/h | 10083m | -6.9m/s | -40.9°C | 36.5% | 281.7hPa | 2.5V | 02:21:00 | 00:00:00 | 00:00:00 | |
| DB0UT-9 | 2026-09-03 19:27:35 | 48.90016 | 8.87829 | 148° | 113km/h | 10096m | -6.5m/s | -41.0°C | 34.1% | 281.1hPa | 2.5V | 02:21:00 | 00:00:00 | 00:00:00 | |
| KANTATE | 2026-09-03 19:27:34 | 48.90040 | 8.87805 | 148° | 113km/h | 10103m | -6.8m/s | -41.0°C | 34.2% | 280.8hPa | 2.5V | 02:22:00 | 00:00:00 | 00:00:00 | |
| DL0LBS | 2026-09-03 19:27:33 | 48.90063 | 8.87782 | 148° | 111km/h | 10109m | -6.4m/s | -41.1°C | 35.4% | 280.6hPa | 2.5V | 02:22:00 | 00:00:00 | 00:00:00 | |
| AZAK | 2026-09-03 19:27:32 | 48.90087 | 8.87758 | 147° | 111km/h | 10116m | -6.5m/s | -41.1°C | 37.4% | 280.3hPa | 2.5V | 00:00:00 | 00:00:00 | 00:00:00 | |
| DO3MHA-11 | 2026-09-03 19:27:31 | 48.90134 | 8.87709 | 146° | 119km/h | 10129m | -6.6m/s | -41.2°C | 44.3% | 279.7hPa | 2.5V | 00:00:00 | 02:57:34 | 00:00:00 | |
| DM0DOS-11 | 2026-09-03 19:27:30 | 48.90279 | 8.87544 | 141° | 120km/h | 10169m | -6.7m/s | -41.6°C | 47.9% | 278.1hPa | 2.5V | 02:21:24 | 02:57:28 | 00:00:00 | |
| DK7TD | 2026-09-03 19:27:28 | 48.90207 | 8.87630 | 143° | 120km/h | 10149m | -7.1m/s | -41.5°C | 48.2% | 278.8hPa | 2.5V | 02:22:04 | 02:57:31 | 00:00:00 | |
| DO3MHA-11 | 2026-09-03 19:27:21 | 48.90374 | 8.87436 | 144° | 115km/h | 10197m | -6.6m/s | -41.9°C | 50.3% | 276.9hPa | 2.6V | 02:21:00 | 02:57:24 | 00:00:00 | |
| DM0DOS-11 | 2026-09-03 19:27:20 | 48.90514 | 8.87279 | 143° | 113km/h | 10238m | -7.3m/s | -42.2°C | 50.8% | 275.3hPa | 2.6V | 02:21:34 | 02:57:18 | 00:00:00 | |
| BIOWL1-15 | 2026-09-03 19:27:20 | 48.90444 | 8.87358 | 143° | 115km/h | 10217m | -6.8m/s | -42.1°C | 52.7% | 276.1hPa | 2.5V | 02:22:04 | 02:57:21 | 00:00:00 | |
| DK7TD | 2026-09-03 19:27:17 | 48.90468 | 8.87332 | 143° | 115km/h | 10224m | -7.3m/s | -42.1°C | 52.7% | 275.8hPa | 2.5V | 02:22:04 | 02:57:20 | 00:00:00 | |
| DN1GJH-1 | 2026-09-03 19:27:16 | 48.90467 | 8.87332 | 144° | 115km/h | 10224m | -7.3m/s | -42.1°C | 44.5% | 275.8hPa | 2.6V | 00:00:00 | 00:00:00 | 00:00:00 | |
| DB0UT-9 | 2026-09-03 19:27:14 | 48.90514 | 8.87279 | 144° | 113km/h | 10238m | -7.3m/s | -42.2°C | 44.3% | 275.3hPa | 2.6V | 02:22:00 | 00:00:00 | 00:00:00 | |
| KANTATE | 2026-09-03 19:27:13 | 48.90537 | 8.87253 | 144° | 115km/h | 10245m | -6.8m/s | -42.3°C | 44.4% | 275.0hPa | 2.6V | 02:22:00 | 00:00:00 | 00:00:00 | |
| DL0LBS | 2026-09-03 19:27:12 | 48.90560 | 8.87227 | 145° | 115km/h | 10252m | -7.3m/s | -42.4°C | 44.4% | 274.7hPa | 2.6V | 02:22:00 | 00:00:00 | 00:00:00 | |
| DF3TZ-5 | 2026-09-03 19:27:11 | 48.90632 | 8.87147 | 143° | 117km/h | 10274m | -6.9m/s | -42.6°C | 44.5% | 273.9hPa | 2.6V | 00:00:00 | 00:00:00 | 00:00:00 | |
| DK5PH-5 | 2026-09-03 19:27:10 | 48.90632 | 8.87147 | 144° | 117km/h | 10274m | -6.8m/s | -42.5°C | 51.2% | 273.8hPa | 2.6V | 00:00:00 | 02:57:13 | 00:00:00 | |
| DM0DOS-11 | 2026-09-03 19:27:09 | 48.90773 | 8.86984 | 141° | 117km/h | 10315m | -7m/s | -43°C | 53.4% | 272.2hPa | 2.6V | 02:21:45 | 02:57:07 | 00:00:00 | |
| BIOWL1-15 | 2026-09-03 19:27:07 | 48.90703 | 8.87066 | 143° | 117km/h | 10294m | -6.8m/s | -42.8°C | 53% | 273hPa | 2.5V | 02:22:04 | 02:57:10 | 00:00:00 | |
| BIOWL1-15 | 2026-09-03 19:26:59 | 48.90936 | 8.86788 | 141° | 119km/h | 10364m | -7m/s | -43.4°C | 54.5% | 270.3hPa | 2.6V | 02:22:04 | 02:57:00 | 00:00:00 | |
| DK7TD | 2026-09-03 19:26:56 | 48.90959 | 8.86760 | 141° | 117km/h | 10370m | -6.2m/s | -43.5°C | 53.5% | 269.9hPa | 2.5V | 02:22:04 | 02:56:59 | 00:00:00 | |
| BIOWL1-15 | 2026-09-03 19:26:46 | 48.91186 | 8.86476 | 140° | 119km/h | 10439m | -6.9m/s | -44°C | 46.3% | 267.2hPa | 2.6V | 02:22:04 | 02:56:49 | 00:00:00 | |
| DK7TD | 2026-09-03 19:26:45 | 48.91209 | 8.86447 | 141° | 119km/h | 10445m | -7.1m/s | -44.1°C | 46.4% | 266.9hPa | 2.6V | 02:22:04 | 02:56:48 | 00:00:00 | |
| BIOWL1-15 | 2026-09-03 19:26:39 | 48.91414 | 8.86193 | 140° | 115km/h | 10509m | -7.6m/s | -44.7°C | 48.5% | 264.5hPa | 2.5V | 02:22:55 | 02:56:39 | 00:00:00 | |
| DK7TD | 2026-09-03 19:26:34 | 48.91458 | 8.86135 | 139° | 117km/h | 10523m | -7.1m/s | -44.8°C | 49% | 263.9hPa | 2.6V | 02:22:55 | 02:56:37 | 00:00:00 | |
| BIOWL1-15 | 2026-09-03 19:26:25 | 48.91662 | 8.85868 | 139° | 119km/h | 10587m | -7.3m/s | -45.4°C | 51.6% | 261.3hPa | 2.5V | 02:22:55 | 02:56:28 | 00:00:00 | |
| DK7TD | 2026-09-03 19:26:24 | 48.91685 | 8.85838 | 139° | 120km/h | 10595m | -7.4m/s | -45.5°C | 51.8% | 261.1hPa | 2.5V | 02:22:55 | 02:56:27 | 00:00:00 | |
| DO3MHA-11 | 2026-09-03 19:26:21 | 48.91754 | 8.85749 | 140° | 117km/h | 10616m | -7.1m/s | -45.6°C | 50.8% | 260.2hPa | 2.6V | 02:22:00 | 02:56:24 | 00:00:00 | |
| DB0UT-7 | 2026-09-03 19:26:20 | 48.91777 | 8.85719 | 141° | 117km/h | 10623m | -7.1m/s | -45.7°C | 50.9% | 260.0hPa | 2.5V | 02:22:00 | 00:00:00 | 00:00:00 | |
| DM0DOS-11 | 2026-09-03 19:26:15 | 48.92005 | 8.85435 | 140° | 117km/h | 10699m | -7.2m/s | -46.4°C | 58.4% | 257.1hPa | 2.6V | 02:22:39 | 02:56:13 | 00:00:00 | |
| DK7TD | 2026-09-03 19:26:14 | 48.91913 | 8.85549 | 141° | 119km/h | 10669m | -7.7m/s | -46.1°C | 57.5% | 258.2hPa | 2.5V | 02:22:55 | 02:56:17 | 00:00:00 | |
| BIOWL1-15 | 2026-09-03 19:26:05 | 48.92167 | 8.85235 | 141° | 117km/h | 10750m | -7m/s | -46.8°C | 63.1% | 255.1hPa | 2.6V | 02:22:55 | 02:56:06 | 00:00:00 | |
| DK7TD | 2026-09-03 19:26:04 | 48.92144 | 8.85264 | 141° | 117km/h | 10743m | -6.8m/s | -46.8°C | 62.7% | 255.4hPa | 2.6V | 02:22:55 | 02:56:07 | 00:00:00 | |
| DK7TD | 2026-09-03 19:25:53 | 48.92396 | 8.84952 | 141° | 120km/h | 10823m | -6.3m/s | -47.5°C | 65.1% | 252.3hPa | 2.5V | 02:23:46 | 02:55:56 | 00:00:00 | |
| BIOWL1-15 | 2026-09-03 19:25:52 | 48.92420 | 8.84923 | 141° | 120km/h | 10830m | -7.7m/s | -47.6°C | 65.5% | 252.1hPa | 2.6V | 02:23:46 | 02:55:55 | 00:00:00 | |
| DM0DOS-11 | 2026-09-03 19:25:51 | 48.92561 | 8.84751 | 141° | 117km/h | 10874m | -7.4m/s | -48°C | 65.5% | 250.4hPa | 2.6V | 02:23:03 | 02:55:49 | 00:00:00 | |
| DB0ND-19 | 2026-09-03 19:25:44 | 48.92607 | 8.84694 | 141° | 117km/h | 10889m | -7.6m/s | -48.1°C | 56.3% | 249.9hPa | 2.5V | 00:00:00 | 00:00:00 | 00:00:00 | |
| DK7TD | 2026-09-03 19:25:43 | 48.92631 | 8.84665 | 141° | 119km/h | 10897m | -7.5m/s | -48.2°C | 66.6% | 249.5hPa | 2.5V | 02:23:46 | 02:55:46 | 00:00:00 | |
| BIOWL1-15 | 2026-09-03 19:25:43 | 48.92678 | 8.84607 | 141° | 120km/h | 10911m | -7m/s | -48.3°C | 67% | 249hPa | 2.5V | 02:23:46 | 02:55:44 | 00:00:00 | |
| DM0DOS-11 | 2026-09-03 19:25:41 | 48.92796 | 8.84463 | 140° | 119km/h | 10948m | -6.9m/s | -48.6°C | 67.5% | 247.6hPa | 2.5V | 02:23:13 | 02:55:39 | 00:00:00 | |
| DK7TD | 2026-09-03 19:25:32 | 48.92888 | 8.84349 | 141° | 117km/h | 10976m | -7m/s | -48.9°C | 69.2% | 246.5hPa | 2.5V | 02:23:46 | 02:55:35 | 00:00:00 | |
| BIOWL1-15 | 2026-09-03 19:25:30 | 48.92957 | 8.84265 | 142° | 119km/h | 10999m | -8.1m/s | -49.1°C | 69.5% | 245.6hPa | 2.5V | 02:23:46 | 02:55:32 | 00:00:00 | |
| DK7TD | 2026-09-03 19:25:22 | 48.93125 | 8.84068 | 142° | 119km/h | 11054m | -7.9m/s | -49.7°C | 71.3% | 243.6hPa | 2.6V | 02:23:46 | 02:55:25 | 00:00:00 | |
| BIOWL1-15 | 2026-09-03 19:25:19 | 48.93196 | 8.83983 | 142° | 117km/h | 11077m | -8.3m/s | -49.9°C | 72% | 242.7hPa | 2.5V | 02:23:46 | 02:55:22 | 00:00:00 | |
| DK7TD | 2026-09-03 19:25:12 | 48.93360 | 8.83790 | 143° | 117km/h | 11131m | -7.3m/s | -50.4°C | 72.5% | 240.8hPa | 2.5V | 02:23:46 | 02:55:15 | 00:00:00 | |
| BIOWL1-15 | 2026-09-03 19:25:11 | 48.93430 | 8.83707 | 142° | 117km/h | 11153m | -7.4m/s | -50.6°C | 72.3% | 240hPa | 2.6V | 02:23:46 | 02:55:12 | 00:00:00 | |
| DK7TD | 2026-09-03 19:25:01 | 48.93618 | 8.83485 | 143° | 119km/h | 11212m | -7.3m/s | -51.2°C | 70% | 237.8hPa | 2.5V | 02:24:37 | 02:55:04 | 00:00:00 | |
| DO3MHA-11 | 2026-09-03 19:25:01 | 48.93618 | 8.83484 | 143° | 117km/h | 11212m | -7.2m/s | -51.1°C | 70.6% | 237.8hPa | 2.5V | 00:00:00 | 02:55:04 | 00:00:00 | |
| DM0DOS-11 | 2026-09-03 19:24:59 | 48.93781 | 8.83289 | 140° | 117km/h | 11264m | -7.5m/s | -51.6°C | 67.1% | 235.9hPa | 2.5V | 02:23:55 | 02:54:57 | 00:00:00 | |
| BIOWL1-15 | 2026-09-03 19:24:58 | 48.93689 | 8.83402 | 142° | 119km/h | 11234m | -7.8m/s | -51.4°C | 68.8% | 237hPa | 2.5V | 02:24:37 | 02:55:01 | 00:00:00 | |
| DK7TD | 2026-09-03 19:24:51 | 48.93850 | 8.83205 | 141° | 117km/h | 11286m | -7.6m/s | -51.8°C | 65.7% | 235.1hPa | 2.6V | 02:24:37 | 02:54:54 | 00:00:00 | |
| DB0UT-7 | 2026-09-03 19:24:50 | 48.93873 | 8.83177 | 142° | 120km/h | 11294m | -7.8m/s | -51.9°C | 65.2% | 234.8hPa | 2.6V | 02:23:00 | 02:54:53 | 00:00:00 | |
| DM0DOS-11 | 2026-09-03 19:24:49 | 48.94012 | 8.83008 | 141° | 117km/h | 11339m | -7.1m/s | -52.3°C | 61% | 233.2hPa | 2.6V | 02:24:05 | 02:54:47 | 00:00:00 | |
| BIOWL1-15 | 2026-09-03 19:24:48 | 48.93919 | 8.83120 | 142° | 119km/h | 11309m | -7.5m/s | -52°C | 63.6% | 234.2hPa | 2.5V | 02:24:37 | 02:54:51 | 00:00:00 | |
| DK7TD | 2026-09-03 19:24:41 | 48.94081 | 8.82924 | 141° | 115km/h | 11362m | -8m/s | -52.5°C | 58.4% | 232.4hPa | 2.5V | 02:24:37 | 02:54:44 | 00:00:00 | |
| DO3MHA-11 | 2026-09-03 19:24:41 | 48.94081 | 8.82924 | 142° | 117km/h | 11362m | -7.9m/s | -52.4°C | 58.1% | 232.3hPa | 2.5V | 00:00:00 | 02:54:44 | 00:00:00 | |
| DK5PH-5 | 2026-09-03 19:24:40 | 48.94103 | 8.82897 | 142° | 124km/h | 11370m | -8.1m/s | -52.5°C | 57.4% | 232.1hPa | 2.5V | 02:24:00 | 02:54:43 | 00:00:00 | |
| DM0DOS-11 | 2026-09-03 19:24:39 | 48.94243 | 8.82730 | 142° | 117km/h | 11417m | -7.9m/s | -52.9°C | 54.4% | 230.5hPa | 2.5V | 02:24:15 | 02:54:37 | 00:00:00 | |
| BIOWL1-15 | 2026-09-03 19:24:39 | 48.94172 | 8.82812 | 142° | 117km/h | 11393m | -7.8m/s | -52.7°C | 56.3% | 231.3hPa | 2.6V | 02:24:37 | 02:54:40 | 00:00:00 | |
| DK7TD | 2026-09-03 19:24:30 | 48.94339 | 8.82614 | 140° | 124km/h | 11447m | -8.4m/s | -53.1°C | 53.8% | 229.3hPa | 2.5V | 02:24:37 | 02:54:33 | 00:00:00 | |
| DM0DOS-11 | 2026-09-03 19:24:29 | 48.94484 | 8.82431 | 141° | 124km/h | 11494m | -8.1m/s | -53.5°C | 51.4% | 227.7hPa | 2.5V | 02:24:25 | 02:54:27 | 00:00:00 | |
| BIOWL1-15 | 2026-09-03 19:24:27 | 48.94411 | 8.82521 | 140° | 124km/h | 11470m | -7.6m/s | -53.3°C | 52.7% | 228.5hPa | 2.5V | 02:24:37 | 02:54:30 | 00:00:00 | |
| DK7TD | 2026-09-03 19:24:19 | 48.94607 | 8.82278 | 141° | 128km/h | 11533m | -8m/s | -53.6°C | 49.8% | 226.4hPa | 2.6V | 02:24:37 | 02:54:22 | 00:00:00 | |
| BIOWL1-15 | 2026-09-03 19:24:19 | 48.94658 | 8.82216 | 141° | 131km/h | 11549m | -7.6m/s | -53.7°C | 49.3% | 225.8hPa | 2.5V | 02:24:37 | 02:54:20 | 00:00:00 | |
| DK7TD | 2026-09-03 19:24:09 | 48.94865 | 8.81963 | 141° | 133km/h | 11610m | -7.7m/s | -54.2°C | 48.2% | 223.7hPa | 2.5V | 02:25:28 | 02:54:12 | 00:00:00 | |
| BIOWL1-15 | 2026-09-03 19:24:07 | 48.94917 | 8.81899 | 141° | 133km/h | 11625m | -7.8m/s | -54.3°C | 47.9% | 223.2hPa | 2.6V | 02:25:28 | 02:54:10 | 00:00:00 | |
| DK7TD | 2026-09-03 19:23:58 | 48.95153 | 8.81600 | 139° | 135km/h | 11696m | -7.7m/s | -54.7°C | 46.4% | 220.7hPa | 2.5V | 02:25:28 | 02:54:01 | 00:00:00 | |
| BIOWL1-15 | 2026-09-03 19:23:56 | 48.95205 | 8.81531 | 138° | 137km/h | 11713m | -7.6m/s | -54.9°C | 46% | 220.2hPa | 2.5V | 02:25:28 | 02:53:59 | 00:00:00 | |
| DK7TD | 2026-09-03 19:23:48 | 48.95412 | 8.81249 | 137° | 137km/h | 11774m | -7.8m/s | -55.2°C | 45.6% | 218.1hPa | 2.6V | 02:25:28 | 02:53:51 | 00:00:00 | |
| BIOWL1-15 | 2026-09-03 19:23:46 | 48.95462 | 8.81176 | 136° | 137km/h | 11789m | -7.4m/s | -55.3°C | 45.7% | 217.5hPa | 2.5V | 02:25:28 | 02:53:49 | 00:00:00 | |
| AZAK | 2026-09-03 19:23:45 | 48.95486 | 8.81139 | 136° | 137km/h | 11797m | -7.5m/s | -55.4°C | 36.3% | 217.2hPa | 2.5V | 02:25:00 | 00:00:00 | 00:00:00 | |
| DM7RM-13 | 2026-09-03 19:23:43 | 48.95510 | 8.81102 | 136° | 135km/h | 11804m | -7.8m/s | -55.5°C | 36.3% | 217.0hPa | 2.5V | 02:25:00 | 00:00:00 | 00:00:00 | |
| DO3MHA-11 | 2026-09-03 19:23:41 | 48.95583 | 8.80991 | 136° | 135km/h | 11828m | -7.7m/s | -55.6°C | 45.0% | 216.2hPa | 2.5V | 00:00:00 | 02:53:44 | 00:00:00 | |
| DL1ZP-14 | 2026-09-03 19:23:40 | 48.95608 | 8.80955 | 135° | 135km/h | 11836m | -8.2m/s | -55.7°C | 36.2% | 215.9hPa | 2.5V | 00:00:00 | 00:00:00 | 00:00:00 | |
| DM0DOS-11 | 2026-09-03 19:23:39 | 48.95756 | 8.80737 | 135° | 137km/h | 11884m | -8.2m/s | -56°C | 46% | 214.3hPa | 2.5V | 02:25:15 | 02:53:37 | 00:00:00 | |
| DK7TD | 2026-09-03 19:23:38 | 48.95657 | 8.80882 | 136° | 135km/h | 11852m | -8.2m/s | -55.8°C | 46.2% | 215.4hPa | 2.5V | 02:25:28 | 02:53:41 | 00:00:00 | |
| BIOWL1-15 | 2026-09-03 19:23:35 | 48.95731 | 8.80774 | 136° | 137km/h | 11876m | -8.3m/s | -55.9°C | 46.6% | 214.6hPa | 2.5V | 02:25:28 | 02:53:38 | 00:00:00 | |
| DF3TZ-5 | 2026-09-03 19:23:33 | 48.95780 | 8.80700 | 135° | 135km/h | 11892m | -7.5m/s | -56.1°C | 37.3% | 214.0hPa | 2.6V | 00:00:00 | 00:00:00 | 00:00:00 | |
| DO8TBO-1 | 2026-09-03 19:23:32 | 48.95805 | 8.80663 | 136° | 141km/h | 11900m | -7.5m/s | -56.1°C | 46.8% | 213.7hPa | 2.6V | 00:00:00 | 02:53:35 | 00:00:00 | |
| DO3MHA-11 | 2026-09-03 19:23:31 | 48.95829 | 8.80627 | 135° | 137km/h | 11907m | -7.7m/s | -56.2°C | 47.1% | 213.4hPa | 2.6V | 00:00:00 | 02:53:34 | 00:00:00 | |
| DM0DOS-11 | 2026-09-03 19:23:29 | 48.95997 | 8.80366 | 133° | 139km/h | 11962m | -7.8m/s | -56.7°C | 47.9% | 211.7hPa | 2.6V | 02:25:25 | 02:53:27 | 00:00:00 | |
| DK7TD | 2026-09-03 19:23:28 | 48.95901 | 8.80516 | 135° | 135km/h | 11931m | -8.1m/s | -56.5°C | 48% | 212.7hPa | 2.5V | 02:25:28 | 02:53:31 | 00:00:00 | |
| BIOWL1-15 | 2026-09-03 19:23:25 | 48.95973 | 8.80404 | 134° | 137km/h | 11954m | -8.3m/s | -56.7°C | 48.3% | 212hPa | 2.5V | 02:25:28 | 02:53:28 | 00:00:00 | |
| AZAK | 2026-09-03 19:23:24 | 48.95973 | 8.80404 | 135° | 137km/h | 11954m | -8.3m/s | -56.7°C | 38.3% | 212.0hPa | 2.5V | 02:25:00 | 00:00:00 | 00:00:00 | |
| DM7RM-13 | 2026-09-03 19:23:22 | 48.96021 | 8.80327 | 135° | 141km/h | 11970m | -8.0m/s | -56.8°C | 38.6% | 211.4hPa | 2.5V | 02:25:00 | 00:00:00 | 00:00:00 | |
| DO3MHA-11 | 2026-09-03 19:23:21 | 48.96071 | 8.80249 | 135° | 139km/h | 11986m | -8.3m/s | -56.9°C | 48.4% | 210.8hPa | 2.5V | 02:25:00 | 02:53:24 | 00:00:00 | |
| DB0UT-7 | 2026-09-03 19:23:20 | 48.96096 | 8.80210 | 134° | 142km/h | 11994m | -8.4m/s | -57.0°C | 48.7% | 210.6hPa | 2.5V | 02:25:00 | 00:00:00 | 00:00:00 | |
| DM0DOS-11 | 2026-09-03 19:23:19 | 48.96242 | 8.79975 | 133° | 137km/h | 12044m | -8.2m/s | -57.3°C | 50% | 208.9hPa | 2.5V | 02:25:35 | 02:53:17 | 00:00:00 | |
| DK7TD | 2026-09-03 19:23:17 | 48.96169 | 8.80091 | 133° | 141km/h | 12020m | -7.7m/s | -57.2°C | 49.5% | 209.8hPa | 2.6V | 02:26:19 | 02:53:20 | 00:00:00 | |
| BIOWL1-15 | 2026-09-03 19:23:14 | 48.96242 | 8.79975 | 134° | 137km/h | 12044m | -8.2m/s | -57.3°C | 50.1% | 208.9hPa | 2.5V | 02:26:19 | 02:53:17 | 00:00:00 | |
| NBG1-10 | 2026-09-03 19:23:12 | 48.96290 | 8.79899 | 134° | 144km/h | 12061m | -7.5m/s | -57.4°C | 51.0% | 208.4hPa | 2.5V | 00:00:00 | 02:53:15 | 00:00:00 | |
| DO3MHA-11 | 2026-09-03 19:23:11 | 48.96314 | 8.79861 | 134° | 144km/h | 12069m | -7.5m/s | -57.5°C | 51.3% | 208.1hPa | 2.5V | 00:00:00 | 02:53:14 | 00:00:00 | |
| DK5PH-5 | 2026-09-03 19:23:10 | 48.96338 | 8.79823 | 135° | 144km/h | 12076m | -8.0m/s | -57.5°C | 51.7% | 207.9hPa | 2.5V | 02:25:00 | 02:53:13 | 00:00:00 | |
| DM0DOS-11 | 2026-09-03 19:23:09 | 48.96490 | 8.79581 | 132° | 146km/h | 12126m | -8.5m/s | -58°C | 53.7% | 206.3hPa | 2.5V | 02:25:45 | 02:53:07 | 00:00:00 | |
| DK7TD | 2026-09-03 19:23:06 | 48.96439 | 8.79663 | 134° | 148km/h | 12109m | -8.6m/s | -57.9°C | 53.3% | 206.9hPa | 2.6V | 02:26:19 | 02:53:09 | 00:00:00 | |
| DF1GD-15 | 2026-09-03 19:23:05 | 48.96439 | 8.79663 | 135° | 148km/h | 12109m | -8.6m/s | -57.9°C | 42.4% | 206.9hPa | 2.5V | 02:26:00 | 00:00:00 | 00:00:00 | |
| AZAK | 2026-09-03 19:23:04 | 48.96490 | 8.79581 | 134° | 146km/h | 12126m | -8.5m/s | -58.1°C | 43.1% | 206.3hPa | 2.5V | 02:26:00 | 00:00:00 | 00:00:00 | |
| DO8TBO-1 | 2026-09-03 19:23:02 | 48.96539 | 8.79499 | 132° | 148km/h | 12144m | -8.6m/s | -58.2°C | 54.5% | 205.6hPa | 2.5V | 02:25:00 | 02:53:05 | 00:00:00 | |
| DO3MHA-11 | 2026-09-03 19:23:01 | 48.96563 | 8.79458 | 132° | 144km/h | 12153m | -9.0m/s | -58.3°C | 54.7% | 205.3hPa | 2.5V | 00:00:00 | 02:53:04 | 00:00:00 | |
| DM0DOS-11 | 2026-09-03 19:22:59 | 48.96737 | 8.79177 | 133° | 142km/h | 12214m | -8.1m/s | -58.9°C | 57.7% | 203.4hPa | 2.5V | 02:25:55 | 02:52:57 | 00:00:00 | |
| DK7TD | 2026-09-03 19:22:56 | 48.96687 | 8.79256 | 134° | 144km/h | 12197m | -8.4m/s | -58.7°C | 56.9% | 204hPa | 2.5V | 02:26:19 | 02:52:59 | 00:00:00 | |
| DO3MHA-11 | 2026-09-03 19:22:51 | 48.96811 | 8.79056 | 133° | 146km/h | 12239m | -8.7m/s | -59.0°C | 58.5% | 202.6hPa | 2.5V | 02:25:00 | 02:52:54 | 00:00:00 | |
| DB0UT-7 | 2026-09-03 19:22:50 | 48.96835 | 8.79014 | 132° | 146km/h | 12248m | -8.4m/s | -59.1°C | 58.8% | 202.3hPa | 2.5V | 00:00:00 | 02:52:53 | 00:00:00 | |
| DM0DOS-11 | 2026-09-03 19:22:49 | 48.96987 | 8.78765 | 132° | 146km/h | 12299m | -7.7m/s | -59.6°C | 61.5% | 200.6hPa | 2.5V | 02:26:05 | 02:52:47 | 00:00:00 | |
| DK7TD | 2026-09-03 19:22:46 | 48.96936 | 8.78847 | 133° | 148km/h | 12282m | -7.9m/s | -59.5°C | 59.5% | 201.2hPa | 2.6V | 02:26:19 | 02:52:49 | 00:00:00 | |
| BIOWL1-15 | 2026-09-03 19:22:41 | 48.97061 | 8.78641 | 132° | 146km/h | 12323m | -8.3m/s | -59.9°C | 60.8% | 199.9hPa | 2.6V | 02:26:19 | 02:52:44 | 00:00:00 | |
| DO3MHA-11 | 2026-09-03 19:22:41 | 48.97061 | 8.78640 | 132° | 146km/h | 12323m | -8.2m/s | -59.8°C | 62.3% | 199.8hPa | 2.6V | 00:00:00 | 02:52:44 | 00:00:00 | |
| DK5PH-5 | 2026-09-03 19:22:40 | 48.97086 | 8.78599 | 132° | 146km/h | 12331m | -8.1m/s | -59.9°C | 62.6% | 199.6hPa | 2.6V | 00:00:00 | 02:52:43 | 00:00:00 | |
| DM0DOS-11 | 2026-09-03 19:22:39 | 48.97231 | 8.78342 | 130° | 146km/h | 12381m | -9m/s | -60.4°C | 64.7% | 198hPa | 2.6V | 02:26:15 | 02:52:37 | 00:00:00 | |
| DK7TD | 2026-09-03 19:22:36 | 48.97183 | 8.78428 | 130° | 148km/h | 12364m | -8.1m/s | -60.2°C | 62% | 198.6hPa | 2.5V | 02:26:19 | 02:52:39 | 00:00:00 | |
| BIOWL1-15 | 2026-09-03 19:22:30 | 48.97329 | 8.78175 | 132° | 144km/h | 12416m | -7.9m/s | -60.6°C | 62.2% | 197hPa | 2.5V | 02:26:19 | 02:52:33 | 00:00:00 | |
| DF7PN | 2026-09-03 19:22:30 | 48.97353 | 8.78133 | 131° | 146km/h | 12424m | -8.9m/s | -60.7°C | 51.2% | 196.7hPa | 2.5V | 00:00:00 | 00:00:00 | 00:00:00 | |
| DM0DOS-11 | 2026-09-03 19:22:29 | 48.97473 | 8.77919 | 129° | 146km/h | 12469m | -9.6m/s | -61.1°C | 63% | 195.3hPa | 2.5V | 02:26:25 | 02:52:27 | 00:00:00 | |
| DK7TD | 2026-09-03 19:22:25 | 48.97450 | 8.77962 | 130° | 146km/h | 12460m | -9.8m/s | -61°C | 61.7% | 195.6hPa | 2.5V | 02:27:10 | 02:52:28 | 00:00:00 | |
| BIOWL1-15 | 2026-09-03 19:22:19 | 48.97591 | 8.77701 | 130° | 146km/h | 12517m | -9.5m/s | -61.5°C | 60.9% | 193.8hPa | 2.5V | 02:27:10 | 02:52:22 | 00:00:00 | |
| DK7TD | 2026-09-03 19:22:14 | 48.97709 | 8.77486 | 130° | 144km/h | 12564m | -9.2m/s | -61.9°C | 59.9% | 192.3hPa | 2.5V | 02:27:10 | 02:52:17 | 00:00:00 | |
| BIOWL1-15 | 2026-09-03 19:22:12 | 48.97826 | 8.77270 | 129° | 148km/h | 12609m | -8.6m/s | -62.3°C | 59% | 190.9hPa | 2.5V | 02:27:10 | 02:52:12 | 00:00:00 | |
| DO3MHA-11 | 2026-09-03 19:22:11 | 48.97779 | 8.77358 | 130° | 148km/h | 12592m | -8.7m/s | -62.1°C | 61.6% | 191.4hPa | 2.6V | 00:00:00 | 02:52:14 | 00:00:00 | |
| DK5PH-5 | 2026-09-03 19:22:10 | 48.97803 | 8.77314 | 129° | 150km/h | 12600m | -8.8m/s | -62.1°C | 61.5% | 191.1hPa | 2.6V | 00:00:00 | 02:52:13 | 00:00:00 | |
| DM0DOS-11 | 2026-09-03 19:22:09 | 48.97943 | 8.77044 | 127° | 150km/h | 12653m | -8.9m/s | -62.6°C | 61.3% | 189.6hPa | 2.6V | 02:26:45 | 02:52:07 | 00:00:00 | |
| DK7TD | 2026-09-03 19:22:04 | 48.97943 | 8.77044 | 128° | 150km/h | 12653m | -8.9m/s | -62.6°C | 58.1% | 189.6hPa | 2.6V | 02:27:10 | 02:52:07 | 00:00:00 | |
| CB1BUN | 2026-09-03 19:22:03 | 48.97943 | 8.77044 | 129° | 150km/h | 12653m | -8.9m/s | -62.6°C | 48.2% | 189.6hPa | 2.6V | 02:27:00 | 00:00:00 | 00:00:00 | |
| AZAK | 2026-09-03 19:22:01 | 48.97989 | 8.76953 | 128° | 146km/h | 12669m | -7.6m/s | -62.6°C | 47.6% | 189.1hPa | 2.6V | 00:00:00 | 00:00:00 | 00:00:00 | |
| DF3TZ-5 | 2026-09-03 19:22:00 | 48.98033 | 8.76863 | 126° | 142km/h | 12686m | -8.3m/s | -62.7°C | 46.7% | 188.6hPa | 2.6V | 00:00:00 | 00:00:00 | 00:00:00 | |
| DF7PN | 2026-09-03 19:21:59 | 48.98076 | 8.76774 | 126° | 144km/h | 12703m | -8.8m/s | -62.9°C | 45.9% | 188.0hPa | 2.6V | 00:00:00 | 00:00:00 | 00:00:00 | |
| DM0DOS-11 | 2026-09-03 19:21:58 | 48.98187 | 8.76548 | 126° | 150km/h | 12748m | -9.1m/s | -63.2°C | 57.9% | 186.7hPa | 2.6V | 02:26:56 | 02:51:56 | 00:00:00 | |
| BIOWL1-15 | 2026-09-03 19:21:58 | 48.98076 | 8.76774 | 127° | 144km/h | 12703m | -8.8m/s | -62.9°C | 56.6% | 188hPa | 2.6V | 02:27:10 | 02:52:01 | 00:00:00 | |
| DK7TD | 2026-09-03 19:21:53 | 48.98187 | 8.76548 | 127° | 150km/h | 12748m | -9.1m/s | -63.2°C | 55.6% | 186.7hPa | 2.6V | 02:27:10 | 02:51:56 | 00:00:00 | |
| SFWM-10 | 2026-09-03 19:21:52 | 48.98187 | 8.76548 | 128° | 150km/h | 12748m | -9.1m/s | -63.2°C | 45.1% | 186.7hPa | 2.5V | 02:27:00 | 00:00:00 | 00:00:00 | |
| DB0UT-7 | 2026-09-03 19:21:50 | 48.98255 | 8.76408 | 127° | 150km/h | 12774m | -8.2m/s | -63.4°C | 57.6% | 185.8hPa | 2.5V | 02:26:00 | 02:51:53 | 00:00:00 | |
| DM0DOS-11 | 2026-09-03 19:21:48 | 48.98419 | 8.76083 | 127° | 151km/h | 12834m | -8.9m/s | -64°C | 55.9% | 184.1hPa | 2.5V | 02:27:06 | 02:51:46 | 00:00:00 | |
| BIOWL1-15 | 2026-09-03 19:21:43 | 48.98491 | 8.75947 | 129° | 150km/h | 12862m | -9.2m/s | -64.2°C | 52.5% | 183.3hPa | 2.6V | 02:27:10 | 02:51:43 | 00:00:00 | |
| DK7TD | 2026-09-03 19:21:42 | 48.98443 | 8.76037 | 128° | 151km/h | 12843m | -9.4m/s | -64°C | 53% | 183.8hPa | 2.5V | 02:27:10 | 02:51:45 | 00:00:00 | |
| DO3MHA-11 | 2026-09-03 19:21:41 | 48.98467 | 8.75992 | 130° | 151km/h | 12853m | -9.3m/s | -64.1°C | 55.5% | 183.5hPa | 2.6V | 00:00:00 | 02:51:44 | 00:00:00 | |
| NBG1-10 | 2026-09-03 19:21:40 | 48.98490 | 8.75947 | 130° | 148km/h | 12862m | -9.1m/s | -64.1°C | 55.4% | 183.2hPa | 2.6V | 02:27:00 | 02:51:43 | 00:00:00 | |
| DM0DOS-11 | 2026-09-03 19:21:38 | 48.98658 | 8.75631 | 128° | 151km/h | 12924m | -8.3m/s | -64.6°C | 54.5% | 181.3hPa | 2.5V | 02:27:16 | 02:51:36 | 00:00:00 | |
| BIOWL1-15 | 2026-09-03 19:21:33 | 48.98658 | 8.75631 | 128° | 151km/h | 12924m | -8.3m/s | -64.6°C | 50.8% | 181.3hPa | 2.5V | 02:28:01 | 02:51:36 | 00:00:00 | |
| DK7TD | 2026-09-03 19:21:31 | 48.98705 | 8.75540 | 128° | 150km/h | 12941m | -8.4m/s | -64.7°C | 50.3% | 180.9hPa | 2.5V | 02:28:01 | 02:51:34 | 00:00:00 | |
| BIOWL1-15 | 2026-09-03 19:21:27 | 48.98888 | 8.75178 | 128° | 150km/h | 13009m | -9m/s | -65.3°C | 48.4% | 178.8hPa | 2.6V | 02:28:01 | 02:51:26 | 00:00:00 | |
| DK7TD | 2026-09-03 19:21:20 | 48.98961 | 8.75043 | 130° | 151km/h | 13037m | -9.4m/s | -65.5°C | 47.8% | 178hPa | 2.5V | 02:28:01 | 02:51:23 | 00:00:00 | |
| BIOWL1-15 | 2026-09-03 19:21:13 | 48.99137 | 8.74730 | 131° | 157km/h | 13100m | -9m/s | -65.6°C | 46.5% | 176.2hPa | 2.5V | 02:28:01 | 02:51:16 | 00:00:00 | |
| DK7TD | 2026-09-03 19:21:09 | 48.99243 | 8.74551 | 133° | 155km/h | 13137m | -9.2m/s | -65.8°C | 45.8% | 175.1hPa | 2.5V | 02:28:01 | 02:51:12 | 00:00:00 | |
| BIOWL1-15 | 2026-09-03 19:21:05 | 48.99406 | 8.74297 | 135° | 153km/h | 13191m | -10m/s | -66.1°C | 44.1% | 173.6hPa | 2.5V | 02:28:01 | 02:51:06 | 00:00:00 | |
| DK7TD | 2026-09-03 19:20:59 | 48.99515 | 8.74131 | 135° | 151km/h | 13230m | -9.4m/s | -66.3°C | 42.8% | 172.6hPa | 2.6V | 02:28:01 | 02:51:02 | 00:00:00 | |
| BIOWL1-15 | 2026-09-03 19:20:52 | 48.99712 | 8.73854 | 139° | 151km/h | 13297m | -10m/s | -66.3°C | 39.8% | 170.6hPa | 2.5V | 02:28:01 | 02:50:55 | 00:00:00 | |
| DK7TD | 2026-09-03 19:20:48 | 48.99824 | 8.73704 | 138° | 144km/h | 13338m | -10.4m/s | -66.5°C | 37.6% | 169.4hPa | 2.6V | 02:28:01 | 02:50:51 | 00:00:00 | |
| SFWM-10 | 2026-09-03 19:20:45 | 48.99878 | 8.73632 | 140° | 142km/h | 13359m | -10.9m/s | -66.6°C | 31.2% | 168.8hPa | 2.5V | 02:28:00 | 00:00:00 | 00:00:00 | |
| NBG1-10 | 2026-09-03 19:20:43 | 48.99958 | 8.73526 | 140° | 133km/h | 13391m | -10.8m/s | -66.4°C | 40.8% | 167.9hPa | 2.5V | 00:00:00 | 02:50:46 | 00:00:00 | |
| DM0DOS-11 | 2026-09-03 19:20:42 | 49.00116 | 8.73328 | 140° | 133km/h | 13457m | -11.1m/s | -65.9°C | 33.5% | 166.1hPa | 2.5V | 02:28:12 | 02:50:40 | 00:00:00 | |
| BIOWL1-15 | 2026-09-03 19:20:41 | 49.00012 | 8.73459 | 140° | 135km/h | 13413m | -11.6m/s | -66°C | 32.2% | 167.3hPa | 2.6V | 02:28:52 | 02:50:44 | 00:00:00 | |
| DK7TD | 2026-09-03 19:20:37 | 49.00116 | 8.73327 | 140° | 133km/h | 13457m | -11.1m/s | -65.9°C | 29.1% | 166.1hPa | 2.5V | 02:28:52 | 02:50:40 | 00:00:00 | |
| BIOWL1-15 | 2026-09-03 19:20:32 | 49.00293 | 8.73089 | 136° | 137km/h | 13533m | -9.7m/s | -65.9°C | 24.6% | 164hPa | 2.6V | 02:28:52 | 02:50:33 | 00:00:00 | |
| DM0DOS-11 | 2026-09-03 19:20:31 | 49.00396 | 8.72944 | 138° | 139km/h | 13571m | -9.7m/s | -66.1°C | 29% | 163hPa | 2.5V | 02:28:23 | 02:50:29 | 00:00:00 | |
| DK7TD | 2026-09-03 19:20:27 | 49.00370 | 8.72980 | 137° | 139km/h | 13562m | -9.3m/s | -66°C | 23% | 163.2hPa | 2.5V | 02:28:52 | 02:50:30 | 00:00:00 | |
| DF3TZ-5 | 2026-09-03 19:20:27 | 49.00370 | 8.72980 | 137° | 137km/h | 13562m | -9.3m/s | -66.0°C | 19.5% | 163.2hPa | 2.5V | 00:00:00 | 00:00:00 | 00:00:00 | |
| DO3DL | 2026-09-03 19:20:26 | 49.00369 | 8.72980 | 138° | 139km/h | 13562m | -9.3m/s | -66.0°C | 19.6% | 163.2hPa | 2.5V | 02:28:00 | 00:00:00 | 00:00:00 | |
| DF7PN | 2026-09-03 19:20:25 | 49.00422 | 8.72909 | 138° | 139km/h | 13581m | -9.3m/s | -66.1°C | 18.8% | 162.8hPa | 2.5V | 00:00:00 | 00:00:00 | 00:00:00 | |
| DB0UT-9 | 2026-09-03 19:20:23 | 49.00449 | 8.72874 | 141° | 139km/h | 13590m | -9.8m/s | -66.2°C | 18.5% | 162.5hPa | 2.5V | 02:28:00 | 00:00:00 | 00:00:00 | |
| DF1GD-15 | 2026-09-03 19:20:22 | 49.00476 | 8.72840 | 142° | 137km/h | 13600m | -10.2m/s | -66.3°C | 18.0% | 162.3hPa | 2.5V | 02:28:00 | 00:00:00 | 00:00:00 | |
| DM0DOS-11 | 2026-09-03 19:20:21 | 49.00661 | 8.72616 | 142° | 128km/h | 13669m | -9.7m/s | -65.6°C | 21.9% | 160.4hPa | 2.5V | 02:28:33 | 02:50:19 | 00:00:00 | |
| BIOWL1-15 | 2026-09-03 19:20:20 | 49.00556 | 8.72742 | 141° | 135km/h | 13630m | -9.3m/s | -66.1°C | 18.3% | 161.4hPa | 2.5V | 02:28:52 | 02:50:23 | 00:00:00 | |
| DK7TD | 2026-09-03 19:20:16 | 49.00661 | 8.72616 | 142° | 128km/h | 13669m | -9.7m/s | -65.6°C | 15.5% | 160.4hPa | 2.5V | 02:28:52 | 02:50:19 | 00:00:00 | |
| HEMX73-11 | 2026-09-03 19:20:12 | 49.00734 | 8.72527 | 142° | 120km/h | 13699m | -9.8m/s | -64.9°C | 11.4% | 159.7hPa | 2.6V | 02:28:00 | 00:00:00 | 00:00:00 | |
| DM0DOS-11 | 2026-09-03 19:20:11 | 49.00885 | 8.72326 | 138° | 111km/h | 13773m | -10.7m/s | -63.9°C | 14.7% | 157.8hPa | 2.6V | 02:28:43 | 02:50:09 | 00:00:00 | |
| BIOWL1-15 | 2026-09-03 19:20:09 | 49.00822 | 8.72412 | 138° | 110km/h | 13741m | -10.4m/s | -64.3°C | 11.3% | 158.6hPa | 2.5V | 02:28:52 | 02:50:12 | 00:00:00 | |
| DK7TD | 2026-09-03 19:20:05 | 49.00905 | 8.72298 | 138° | 110km/h | 13785m | -11.6m/s | -63.7°C | 9.5% | 157.5hPa | 2.5V | 02:28:52 | 02:50:08 | 00:00:00 | |
| DL1ZP-14 | 2026-09-03 19:20:03 | 49.00964 | 8.72211 | 134° | 106km/h | 13819m | -11.5m/s | -63.4°C | 7.1% | 156.6hPa | 2.6V | 00:00:00 | 00:00:00 | 00:00:00 | |
| DM0DOS-11 | 2026-09-03 19:20:01 | 49.01076 | 8.72024 | 130° | 111km/h | 13887m | -11.4m/s | -62.9°C | 11.5% | 154.9hPa | 2.6V | 02:28:53 | 02:49:59 | 00:00:00 | |
| BIOWL1-15 | 2026-09-03 19:20:00 | 49.01040 | 8.72089 | 131° | 110km/h | 13864m | -11.6m/s | -63.1°C | 7.5% | 155.5hPa | 2.5V | 02:28:52 | 02:50:01 | 00:00:00 | |
| DK7TD | 2026-09-03 19:19:54 | 49.01112 | 8.71959 | 130° | 110km/h | 13910m | -11.9m/s | -62.6°C | 6.4% | 154.2hPa | 2.5V | 02:30:34 | 02:49:57 | 00:00:00 | |
| AZAK | 2026-09-03 19:19:52 | 49.01148 | 8.71894 | 131° | 110km/h | 13934m | -11.7m/s | -62.5°C | 5.2% | 153.7hPa | 2.5V | 02:29:00 | 00:00:00 | 00:00:00 | |
| DM0DOS-11 | 2026-09-03 19:19:51 | 49.01252 | 8.71700 | 128° | 108km/h | 14002m | -11.1m/s | -61.4°C | 8.7% | 152hPa | 2.5V | 02:29:03 | 02:49:49 | 00:00:00 | |
| BIOWL1-15 | 2026-09-03 19:19:47 | 49.01235 | 8.71733 | 129° | 108km/h | 13991m | -11.2m/s | -61.6°C | 5.1% | 152.3hPa | 2.5V | 02:29:43 | 02:49:50 | 00:00:00 | |
| DK7TD | 2026-09-03 19:19:44 | 49.01286 | 8.71635 | 128° | 110km/h | 14024m | -11.2m/s | -61.5°C | 4.9% | 151.5hPa | 2.6V | 02:30:34 | 02:49:47 | 00:00:00 | |
| DB0UT-9 | 2026-09-03 19:19:43 | 49.01286 | 8.71635 | 129° | 110km/h | 14024m | -11.2m/s | -61.5°C | 4.2% | 151.5hPa | 2.5V | 02:29:00 | 00:00:00 | 00:00:00 | |
| DM0DOS-11 | 2026-09-03 19:19:41 | 49.01426 | 8.71372 | 130° | 110km/h | 14112m | -11m/s | -61.4°C | 8.3% | 149.3hPa | 2.5V | 02:29:13 | 02:49:39 | 00:00:00 | |
| BIOWL1-15 | 2026-09-03 19:19:39 | 49.01408 | 8.71404 | 130° | 110km/h | 14101m | -11m/s | -61.3°C | 4.4% | 149.6hPa | 2.5V | 02:29:43 | 02:49:40 | 00:00:00 | |
| DK7TD | 2026-09-03 19:19:34 | 49.01461 | 8.71308 | 131° | 110km/h | 14134m | -10.7m/s | -61.6°C | 4.4% | 148.8hPa | 2.5V | 02:30:34 | 02:49:37 | 00:00:00 | |
| DM7RM-13 | 2026-09-03 19:19:33 | 49.01461 | 8.71308 | 132° | 110km/h | 14134m | -10.7m/s | -61.6°C | 4.0% | 148.8hPa | 2.5V | 02:29:00 | 00:00:00 | 00:00:00 | |
| DB0NH | 2026-09-03 19:19:32 | 49.01497 | 8.71244 | 131° | 110km/h | 14155m | -9.8m/s | -61.5°C | 8.4% | 148.3hPa | 2.5V | 00:00:00 | 02:49:35 | 00:00:00 | |
| DM0DOS-11 | 2026-09-03 19:19:31 | 49.01607 | 8.71046 | 130° | 115km/h | 14216m | -10.3m/s | -61.6°C | 8.3% | 146.9hPa | 2.5V | 02:29:23 | 02:49:29 | 00:00:00 | |
| BIOWL1-15 | 2026-09-03 19:19:31 | 49.01588 | 8.71079 | 130° | 115km/h | 14206m | -9.9m/s | -61.6°C | 4.1% | 147.1hPa | 2.6V | 02:29:43 | 02:49:30 | 00:00:00 | |
| DO3MHA-11 | 2026-09-03 19:19:29 | 49.01551 | 8.71147 | 130° | 113km/h | 14185m | -10.1m/s | -61.5°C | 8.3% | 147.6hPa | 2.6V | 00:00:00 | 02:49:32 | 00:00:00 | |
| KANTATE | 2026-09-03 19:19:27 | 49.01570 | 8.71113 | 131° | 113km/h | 14195m | -10.3m/s | -61.6°C | 3.8% | 147.3hPa | 2.6V | 02:29:00 | 00:00:00 | 00:00:00 | |
| DF3TZ-5 | 2026-09-03 19:19:25 | 49.01644 | 8.70980 | 131° | 111km/h | 14236m | -10.5m/s | -61.7°C | 3.7% | 146.4hPa | 2.6V | 00:00:00 | 00:00:00 | 00:00:00 | |
| DF7PN | 2026-09-03 19:19:23 | 49.01663 | 8.70947 | 132° | 111km/h | 14246m | -10.3m/s | -61.7°C | 3.7% | 146.1hPa | 2.6V | 00:00:00 | 00:00:00 | 00:00:00 | |
| DB0UT-9 | 2026-09-03 19:19:22 | 49.01663 | 8.70947 | 133° | 111km/h | 14246m | -10.3m/s | -61.7°C | 3.7% | 146.1hPa | 2.6V | 02:29:00 | 00:00:00 | 00:00:00 | |
| DM0DOS-11 | 2026-09-03 19:19:21 | 49.01796 | 8.70730 | 133° | 110km/h | 14318m | -10.7m/s | -61.8°C | 8% | 144.5hPa | 2.6V | 02:29:33 | 02:49:19 | 00:00:00 | |
| DK7TD | 2026-09-03 19:19:18 | 49.01758 | 8.70790 | 134° | 110km/h | 14297m | -10.7m/s | -61.8°C | 3.7% | 144.9hPa | 2.5V | 02:30:34 | 02:49:21 | 00:00:00 | |
| BIOWL1-15 | 2026-09-03 19:19:16 | 49.01815 | 8.70699 | 134° | 110km/h | 14328m | -10.2m/s | -61.9°C | 3.6% | 144.2hPa | 2.6V | 02:29:43 | 02:49:18 | 00:00:00 | |
| DM7RM-13 | 2026-09-03 19:19:13 | 49.01834 | 8.70669 | 135° | 108km/h | 14339m | -10.6m/s | -61.9°C | 3.6% | 144.0hPa | 2.5V | 02:29:00 | 00:00:00 | 00:00:00 | |
| DM0DOS-11 | 2026-09-03 19:19:11 | 49.01985 | 8.70435 | 135° | 106km/h | 14424m | -10.8m/s | -61.2°C | 7.8% | 142hPa | 2.5V | 02:29:43 | 02:49:09 | 00:00:00 | |
| DK7TD | 2026-09-03 19:19:07 | 49.01966 | 8.70464 | 135° | 106km/h | 14413m | -10.2m/s | -61.3°C | 3.4% | 142.3hPa | 2.5V | 02:30:34 | 02:49:10 | 00:00:00 | |
| BIOWL1-15 | 2026-09-03 19:19:05 | 49.02022 | 8.70379 | 135° | 102km/h | 14445m | -10.6m/s | -61.1°C | 3.2% | 141.6hPa | 2.6V | 02:30:34 | 02:49:07 | 00:00:00 | |
| BIOWL1-15 | 2026-09-03 19:18:55 | 49.02189 | 8.70110 | 133° | 93km/h | 14550m | -11.7m/s | -60.6°C | 2.6% | 139.2hPa | 2.6V | 02:30:34 | 02:48:57 | 00:00:00 | |
| DK7TD | 2026-09-03 19:18:52 | 49.02221 | 8.70057 | 132° | 95km/h | 14572m | -10.4m/s | -60.1°C | 2.3% | 138.7hPa | 2.5V | 02:30:34 | 02:48:55 | 00:00:00 | |
| BIOWL1-15 | 2026-09-03 19:18:44 | 49.02339 | 8.69837 | 128° | 93km/h | 14644m | -9.3m/s | -60.2°C | 2.1% | 137.1hPa | 2.5V | 02:30:34 | 02:48:47 | 00:00:00 | |
| DK7TD | 2026-09-03 19:18:40 | 49.02400 | 8.69723 | 131° | 97km/h | 14685m | -11.1m/s | -60.1°C | 2% | 136.2hPa | 2.5V | 02:30:34 | 02:48:43 | 00:00:00 | |
| BIOWL1-15 | 2026-09-03 19:18:37 | 49.02514 | 8.69535 | 133° | 93km/h | 14761m | -11.1m/s | -60.2°C | 2% | 134.5hPa | 2.5V | 02:30:34 | 02:48:36 | 00:00:00 | |
| DL0LBS | 2026-09-03 19:18:36 | 49.02449 | 8.69640 | 134° | 95km/h | 14717m | -10.1m/s | -60.1°C | 2.4% | 135.5hPa | 2.6V | 02:30:00 | 00:00:00 | 00:00:00 | |
| DN1GJH-1 | 2026-09-03 19:18:35 | 49.02465 | 8.69614 | 134° | 95km/h | 14728m | -11.2m/s | -60.1°C | 2.5% | 135.3hPa | 2.6V | 00:00:00 | 00:00:00 | 00:00:00 | |
| CB1BUN | 2026-09-03 19:18:34 | 49.02482 | 8.69587 | 134° | 93km/h | 14739m | -11.2m/s | -60.2°C | 2.4% | 135.0hPa | 2.6V | 02:30:00 | 00:00:00 | 00:00:00 | |
| DM7RM-13 | 2026-09-03 19:18:32 | 49.02514 | 8.69534 | 134° | 93km/h | 14761m | -11.1m/s | -60.2°C | 2.5% | 134.5hPa | 2.6V | 02:30:00 | 00:00:00 | 00:00:00 | |
| DM0DOS-11 | 2026-09-03 19:18:31 | 49.02623 | 8.69356 | 133° | 84km/h | 14834m | -10.4m/s | -59.4°C | 6.3% | 132.9hPa | 2.6V | 02:30:23 | 02:48:29 | 00:00:00 | |
| DK7TD | 2026-09-03 19:18:30 | 49.02562 | 8.69456 | 133° | 93km/h | 14793m | -9.9m/s | -59.7°C | 2% | 133.8hPa | 2.6V | 02:30:34 | 02:48:33 | 00:00:00 | |
| BIOWL1-15 | 2026-09-03 19:18:24 | 49.02682 | 8.69265 | 134° | 84km/h | 14876m | -10.7m/s | -59.2°C | 1.9% | 132.1hPa | 2.5V | 02:30:34 | 02:48:25 | 00:00:00 | |
| KANTATE | 2026-09-03 19:18:22 | 49.02668 | 8.69288 | 136° | 82km/h | 14865m | -11.0m/s | -59.3°C | 2.3% | 132.3hPa | 2.5V | 00:00:00 | 00:00:00 | 00:00:00 | |
| DM0DOS-11 | 2026-09-03 19:18:21 | 49.02765 | 8.69122 | 128° | 80km/h | 14940m | -11.3m/s | -58.2°C | 5.6% | 130.8hPa | 2.5V | 02:30:33 | 02:48:19 | 00:00:00 | |
| DK7TD | 2026-09-03 19:18:20 | 49.02711 | 8.69218 | 132° | 84km/h | 14897m | -10.9m/s | -59°C | 1.8% | 131.7hPa | 2.6V | 02:30:34 | 02:48:23 | 00:00:00 | |
| BIOWL1-15 | 2026-09-03 19:18:11 | 49.02828 | 8.69002 | 128° | 78km/h | 14993m | -10.5m/s | -58.2°C | 1.6% | 129.6hPa | 2.5V | 02:31:25 | 02:48:14 | 00:00:00 | |
| DK7TD | 2026-09-03 19:18:09 | 49.02852 | 8.68953 | 127° | 80km/h | 15015m | -11.5m/s | -58.3°C | 1.6% | 129.2hPa | 2.6V | 02:31:25 | 02:48:12 | 00:00:00 | |
| BIOWL1-15 | 2026-09-03 19:18:05 | 49.02947 | 8.68740 | 123° | 84km/h | 15100m | -10.4m/s | -58.6°C | 1.6% | 127.5hPa | 2.5V | 02:31:25 | 02:48:04 | 00:00:00 | |
| BIOWL7-15 | 2026-09-03 19:18:03 | 49.02912 | 8.68822 | 124° | 84km/h | 15069m | -10.5m/s | -58.5°C | 2.1% | 128.1hPa | 2.5V | 00:00:00 | 00:00:00 | 00:00:00 | |
| KANTATE | 2026-09-03 19:18:01 | 49.02935 | 8.68767 | 123° | 84km/h | 15089m | -10.5m/s | -58.6°C | 2.1% | 127.7hPa | 2.5V | 02:31:00 | 00:00:00 | 00:00:00 | |
| DM0DOS-11 | 2026-09-03 19:18:00 | 49.03016 | 8.68586 | 124° | 82km/h | 15163m | -10.3m/s | -58.9°C | 5.8% | 126.2hPa | 2.5V | 02:30:54 | 02:47:58 | 00:00:00 | |
| DK7TD | 2026-09-03 19:17:59 | 49.02970 | 8.68687 | 124° | 80km/h | 15121m | -10.5m/s | -58.7°C | 1.6% | 127hPa | 2.5V | 02:31:25 | 02:48:02 | 00:00:00 | |
| BIOWL1-15 | 2026-09-03 19:17:54 | 49.03076 | 8.68460 | 128° | 78km/h | 15217m | -10.9m/s | -58.9°C | 1.5% | 125.2hPa | 2.5V | 02:31:25 | 02:47:53 | 00:00:00 | |
| DK7TD | 2026-09-03 19:17:48 | 49.03099 | 8.68412 | 126° | 77km/h | 15241m | -12.2m/s | -58.9°C | 1.5% | 124.7hPa | 2.5V | 02:31:25 | 02:47:51 | 00:00:00 | |
| BIOWL1-15 | 2026-09-03 19:17:42 | 49.03196 | 8.68202 | 126° | 91km/h | 15321m | -10.5m/s | -58.5°C | 1.5% | 123hPa | 2.5V | 02:31:25 | 02:47:43 | 00:00:00 | |
| DM0DOS-11 | 2026-09-03 19:17:40 | 49.03263 | 8.68064 | 127° | 84km/h | 15373m | -9.9m/s | -58.5°C | 5.7% | 122hPa | 2.6V | 02:31:14 | 02:47:38 | 00:00:00 | |
| DK7TD | 2026-09-03 19:17:38 | 49.03223 | 8.68145 | 126° | 91km/h | 15342m | -10.2m/s | -58.4°C | 1.4% | 122.7hPa | 2.5V | 02:31:25 | 02:47:41 | 00:00:00 | |
| BIOWL1-15 | 2026-09-03 19:17:31 | 49.03348 | 8.67916 | 134° | 89km/h | 15435m | -9.9m/s | -58.4°C | 1.4% | 120.8hPa | 2.5V | 02:31:25 | 02:47:32 | 00:00:00 | |
| DM0DOS-11 | 2026-09-03 19:17:30 | 49.03413 | 8.67821 | 138° | 88km/h | 15476m | -9.8m/s | -58.5°C | 5.6% | 120.1hPa | 2.6V | 02:31:24 | 02:47:28 | 00:00:00 | |
| DK7TD | 2026-09-03 19:17:27 | 49.03380 | 8.67867 | 136° | 89km/h | 15456m | -10.6m/s | -58.4°C | 1.3% | 120.5hPa | 2.5V | 02:31:25 | 02:47:30 | 00:00:00 | |
| AZAK | 2026-09-03 19:17:26 | 49.03379 | 8.67867 | 137° | 89km/h | 15456m | -10.6m/s | -58.4°C | 1.9% | 120.5hPa | 2.5V | 00:00:00 | 00:00:00 | 00:00:00 | |
| DO3MHA-11 | 2026-09-03 19:17:25 | 49.03412 | 8.67821 | 139° | 80km/h | 15476m | -9.7m/s | -58.4°C | 5.6% | 120.0hPa | 2.5V | 00:00:00 | 02:47:28 | 00:00:00 | |
| NBG1-10 | 2026-09-03 19:17:22 | 49.03461 | 8.67756 | 139° | 73km/h | 15505m | -9.7m/s | -58.4°C | 5.6% | 119.5hPa | 2.5V | 02:31:00 | 02:47:25 | 00:00:00 | |
| DF3TZ-5 | 2026-09-03 19:17:21 | 49.03491 | 8.67715 | 137° | 78km/h | 15526m | -10.1m/s | -58.1°C | 1.9% | 119.1hPa | 2.5V | 00:00:00 | 00:00:00 | 00:00:00 | |
| DM0DOS-11 | 2026-09-03 19:17:20 | 49.03564 | 8.67611 | 135° | 80km/h | 15578m | -11.1m/s | -58°C | 5.4% | 118.1hPa | 2.5V | 02:31:34 | 02:47:18 | 00:00:00 | |
| BIOWL1-15 | 2026-09-03 19:17:18 | 49.03520 | 8.67674 | 137° | 78km/h | 15546m | -10.4m/s | -57.9°C | 1.3% | 118.8hPa | 2.5V | 02:32:16 | 02:47:21 | 00:00:00 | |
| DK7TD | 2026-09-03 19:17:16 | 49.03549 | 8.67632 | 136° | 80km/h | 15567m | -10.7m/s | -58°C | 1.2% | 118.3hPa | 2.5V | 02:32:16 | 02:47:19 | 00:00:00 | |
| DO3MHA-11 | 2026-09-03 19:17:14 | 49.03578 | 8.67589 | 136° | 73km/h | 15589m | -10.5m/s | -57.9°C | 5.4% | 117.8hPa | 2.6V | 02:31:00 | 02:47:17 | 00:00:00 | |
| DL0LBS | 2026-09-03 19:17:13 | 49.03578 | 8.67589 | 136° | 80km/h | 15589m | -10.6m/s | -58.0°C | 1.9% | 117.9hPa | 2.5V | 02:32:00 | 00:00:00 | 00:00:00 | |
| CB1BUN | 2026-09-03 19:17:12 | 49.03592 | 8.67567 | 136° | 78km/h | 15599m | -10.7m/s | -57.9°C | 1.8% | 117.7hPa | 2.5V | 02:32:00 | 00:00:00 | 00:00:00 | |
| DM0DOS-11 | 2026-09-03 19:17:10 | 49.03692 | 8.67405 | 128° | 69km/h | 15680m | -10.4m/s | -58°C | 5.3% | 116.2hPa | 2.5V | 02:31:44 | 02:47:08 | 00:00:00 | |
| BIOWL1-15 | 2026-09-03 19:17:08 | 49.03658 | 8.67465 | 133° | 69km/h | 15650m | -10.6m/s | -58.1°C | 1.2% | 116.8hPa | 2.6V | 02:32:16 | 02:47:11 | 00:00:00 | |
| DK7TD | 2026-09-03 19:17:05 | 49.03692 | 8.67405 | 129° | 69km/h | 15681m | -10.4m/s | -58.1°C | 1.1% | 116.2hPa | 2.5V | 02:32:16 | 02:47:08 | 00:00:00 | |
| DO3MHA-11 | 2026-09-03 19:17:04 | 49.03703 | 8.67384 | 129° | 71km/h | 15692m | -12.4m/s | -58.0°C | 5.3% | 116.0hPa | 2.5V | 00:00:00 | 02:47:07 | 00:00:00 | |
| DM0DOS-11 | 2026-09-03 19:17:00 | 49.03807 | 8.67198 | 134° | 69km/h | 15788m | -10.7m/s | -57.8°C | 5.2% | 114.2hPa | 2.5V | 02:31:54 | 02:46:58 | 00:00:00 | |
| BIOWL1-15 | 2026-09-03 19:16:57 | 49.03782 | 8.67238 | 133° | 73km/h | 15766m | -10.5m/s | -57.9°C | 1% | 114.7hPa | 2.6V | 02:32:16 | 02:47:00 | 00:00:00 | |
| DK7TD | 2026-09-03 19:16:54 | 49.03820 | 8.67180 | 135° | 69km/h | 15799m | -10.5m/s | -57.8°C | 1% | 114hPa | 2.5V | 02:32:16 | 02:46:57 | 00:00:00 | |
| DL8DAS-14 | 2026-09-03 19:16:51 | 49.03886 | 8.67067 | 132° | 62km/h | 15861m | -11.1m/s | -57.6°C | 1.6% | 112.9hPa | 2.5V | 00:00:00 | 00:00:00 | 00:00:00 | |
| DM0DOS-11 | 2026-09-03 19:16:50 | 49.03917 | 8.67016 | 131° | 58km/h | 15892m | -10.3m/s | -57.4°C | 5.2% | 112.4hPa | 2.5V | 02:32:04 | 02:46:48 | 00:00:00 | |
| BIOWL1-15 | 2026-09-03 19:16:46 | 49.03907 | 8.67032 | 132° | 60km/h | 15882m | -10m/s | -57.4°C | 1% | 112.5hPa | 2.6V | 02:32:16 | 02:46:49 | 00:00:00 | |
| BIOWL9-15 | 2026-09-03 19:16:45 | 49.03917 | 8.67016 | 131° | 57km/h | 15892m | -10.3m/s | -57.4°C | 1.6% | 112.4hPa | 2.5V | 00:00:00 | 00:00:00 | 00:00:00 | |
| DK7TD | 2026-09-03 19:16:43 | 49.03936 | 8.66982 | 129° | 58km/h | 15912m | -10.8m/s | -57.3°C | 0.9% | 112hPa | 2.5V | 02:32:16 | 02:46:46 | 00:00:00 | |
| DM0DOS-11 | 2026-09-03 19:16:40 | 49.04008 | 8.66812 | 119° | 66km/h | 15999m | -10.8m/s | -57.5°C | 5.2% | 110.5hPa | 2.6V | 02:32:14 | 02:46:38 | 00:00:00 | |
| BIOWL1-15 | 2026-09-03 19:16:35 | 49.04008 | 8.66812 | 120° | 66km/h | 15999m | -10.8m/s | -57.5°C | 0.9% | 110.5hPa | 2.6V | 02:32:16 | 02:46:38 | 00:00:00 | |
| DK7TD | 2026-09-03 19:16:32 | 49.04032 | 8.66750 | 119° | 58km/h | 16031m | -10.5m/s | -57.4°C | 0.8% | 109.9hPa | 2.5V | 02:33:07 | 02:46:35 | 00:00:00 | |
| CB1BUN | 2026-09-03 19:16:31 | 49.04031 | 8.66749 | 120° | 58km/h | 16031m | -10.5m/s | -57.4°C | 1.5% | 109.9hPa | 2.6V | 02:33:00 | 00:00:00 | 00:00:00 | |
| DM0DOS-11 | 2026-09-03 19:16:30 | 49.04082 | 8.66624 | 125° | 53km/h | 16105m | -10.2m/s | -56.7°C | 4.8% | 108.7hPa | 2.6V | 02:32:24 | 02:46:28 | 00:00:00 | |
| BIOWL1-15 | 2026-09-03 19:16:24 | 49.04090 | 8.66607 | 126° | 53km/h | 16116m | -11.3m/s | -56.6°C | 0.6% | 108.5hPa | 2.6V | 02:33:07 | 02:46:27 | 00:00:00 | |
| DK7TD | 2026-09-03 19:16:22 | 49.04106 | 8.66574 | 124° | 53km/h | 16138m | -10.7m/s | -56.5°C | 0.6% | 108.1hPa | 2.5V | 02:33:07 | 02:46:25 | 00:00:00 | |
| DB0UT-7 | 2026-09-03 19:16:20 | 49.04121 | 8.66542 | 124° | 47km/h | 16160m | -11.5m/s | -56.4°C | 4.7% | 107.7hPa | 2.6V | 00:00:00 | 00:00:00 | 00:00:00 | |
| DM0DOS-11 | 2026-09-03 19:16:19 | 49.04160 | 8.66452 | 126° | 49km/h | 16224m | -10.4m/s | -56.2°C | 4.6% | 106.6hPa | 2.6V | 02:32:35 | 02:46:17 | 00:00:00 | |
| BIOWL1-15 | 2026-09-03 19:16:13 | 49.04168 | 8.66437 | 127° | 51km/h | 16235m | -11.3m/s | -56.2°C | 0.5% | 106.4hPa | 2.6V | 02:33:07 | 02:46:16 | 00:00:00 | |
| DK7TD | 2026-09-03 19:16:11 | 49.04183 | 8.66406 | 124° | 47km/h | 16257m | -11m/s | -55.7°C | 0.4% | 106hPa | 2.5V | 02:33:07 | 02:46:14 | 00:00:00 | |
| DK5PH-5 | 2026-09-03 19:16:10 | 49.04189 | 8.66390 | 122° | 49km/h | 16268m | -10.7m/s | -55.7°C | 4.5% | 105.8hPa | 2.5V | 00:00:00 | 02:46:13 | 00:00:00 | |
| DM0DOS-11 | 2026-09-03 19:16:09 | 49.04217 | 8.66299 | 111° | 44km/h | 16335m | -10.6m/s | -55.2°C | 4.3% | 104.8hPa | 2.5V | 02:32:45 | 02:46:07 | 00:00:00 | |
| BIOWL1-15 | 2026-09-03 19:16:04 | 49.04225 | 8.66267 | 108° | 46km/h | 16357m | -11.7m/s | -55.1°C | 0.3% | 104.4hPa | 2.6V | 02:33:07 | 02:46:05 | 00:00:00 | |
| DK7TD | 2026-09-03 19:16:00 | 49.04232 | 8.66233 | 110° | 47km/h | 16381m | -11.4m/s | -55.1°C | 0.3% | 104.1hPa | 2.5V | 02:33:07 | 02:46:03 | 00:00:00 | |
| DM0DOS-11 | 2026-09-03 19:15:59 | 49.04260 | 8.66128 | 118° | 51km/h | 16449m | -11.6m/s | -55.2°C | 4.3% | 103hPa | 2.5V | 02:32:55 | 02:45:57 | 00:00:00 | |
| BIOWL1-15 | 2026-09-03 19:15:52 | 49.04274 | 8.66093 | 123° | 55km/h | 16472m | -11.3m/s | -55.1°C | 0.3% | 102.6hPa | 2.6V | 02:33:07 | 02:45:55 | 00:00:00 | |
| DK7TD | 2026-09-03 19:15:50 | 49.04290 | 8.66058 | 126° | 57km/h | 16495m | -11.2m/s | -55.1°C | 0.3% | 102.2hPa | 2.5V | 02:33:07 | 02:45:53 | 00:00:00 | |
| DB0UT-7 | 2026-09-03 19:15:50 | 49.04290 | 8.66058 | 126° | 46km/h | 16495m | -11.1m/s | -55.1°C | 4.2% | 102.2hPa | 2.5V | 02:32:00 | 02:45:53 | 00:00:00 | |
| DM0DOS-11 | 2026-09-03 19:15:49 | 49.04340 | 8.65959 | 126° | 51km/h | 16563m | -10.3m/s | -55.2°C | 4.4% | 101.1hPa | 2.5V | 02:33:05 | 02:45:47 | 00:00:00 | |
| DF3TZ-5 | 2026-09-03 19:15:48 | 49.04316 | 8.66007 | 128° | 55km/h | 16530m | -11.4m/s | -55.2°C | 1.2% | 101.7hPa | 2.5V | 00:00:00 | 00:00:00 | 00:00:00 | |
| DJ2DS-15 | 2026-09-03 19:15:47 | 49.04324 | 8.65990 | 127° | 53km/h | 16541m | -10.9m/s | -55.2°C | 1.2% | 101.5hPa | 2.5V | 00:00:00 | 00:00:00 | 00:00:00 | |
| DF7PN | 2026-09-03 19:15:46 | 49.04324 | 8.65990 | 127° | 53km/h | 16541m | -10.9m/s | -55.2°C | 1.2% | 101.5hPa | 2.5V | 00:00:00 | 00:00:00 | 00:00:00 | |
| BIOWL1-15 | 2026-09-03 19:15:44 | 49.04355 | 8.65928 | 129° | 47km/h | 16585m | -11m/s | -55°C | 0.3% | 100.7hPa | 2.5V | 02:33:07 | 02:45:45 | 00:00:00 | |
| DK7TD | 2026-09-03 19:15:40 | 49.04369 | 8.65900 | 127° | 44km/h | 16607m | -10.9m/s | -54.6°C | 0.2% | 100.4hPa | 2.6V | 02:33:58 | 02:45:43 | 00:00:00 | |
| DK5PH-5 | 2026-09-03 19:15:40 | 49.04369 | 8.65900 | 127° | 44km/h | 16608m | -10.8m/s | -54.6°C | 4.1% | 100.4hPa | 2.6V | 02:33:00 | 02:45:43 | 00:00:00 | |
| DM0DOS-11 | 2026-09-03 19:15:39 | 49.04407 | 8.65822 | 129° | 42km/h | 16677m | -11.6m/s | -54.6°C | 4.1% | 99.3hPa | 2.5V | 02:33:15 | 02:45:37 | 00:00:00 | |
| BIOWL1-15 | 2026-09-03 19:15:34 | 49.04421 | 8.65796 | 127° | 44km/h | 16700m | -12.5m/s | -54.7°C | 0.2% | 99hPa | 2.5V | 02:35:40 | 02:45:35 | 00:00:00 | |
| DK7TD | 2026-09-03 19:15:30 | 49.04433 | 8.65768 | 121° | 46km/h | 16724m | -11.5m/s | -54.8°C | 0.2% | 98.6hPa | 2.6V | 02:33:58 | 02:45:33 | 00:00:00 | |
| DM0DOS-11 | 2026-09-03 19:15:29 | 49.04456 | 8.65677 | 101° | 40km/h | 16795m | -11.4m/s | -54.6°C | 4.1% | 97.5hPa | 2.6V | 02:33:25 | 02:45:27 | 00:00:00 | |
| BIOWL1-15 | 2026-09-03 19:15:21 | 49.04464 | 8.65633 | 111° | 40km/h | 16830m | -12.1m/s | -54.4°C | 0.1% | 97hPa | 2.5V | 02:35:40 | 02:45:24 | 00:00:00 | |
| DK7TD | 2026-09-03 19:15:19 | 49.04473 | 8.65606 | 120° | 40km/h | 16855m | -12.4m/s | -54.4°C | 0.1% | 96.6hPa | 2.6V | 02:33:58 | 02:45:22 | 00:00:00 | |
| BIOWL1-15 | 2026-09-03 19:15:11 | 49.04522 | 8.65481 | 115° | 49km/h | 16953m | -11.8m/s | -54.4°C | 0.1% | 95.1hPa | 2.5V | 02:35:40 | 02:45:14 | 00:00:00 | |
| DK7TD | 2026-09-03 19:15:09 | 49.04531 | 8.65449 | 113° | 44km/h | 16977m | -12.2m/s | -54.4°C | 0.2% | 94.8hPa | 2.6V | 02:33:58 | 02:45:12 | 00:00:00 | |
| BIOWL1-15 | 2026-09-03 19:15:02 | 49.04590 | 8.65324 | 136° | 55km/h | 17095m | -14.7m/s | -55.2°C | 0.1% | 93hPa | 2.5V | 02:35:40 | 02:45:03 | 00:00:00 | |
| DK7TD | 2026-09-03 19:14:58 | 49.04609 | 8.65294 | 132° | 55km/h | 17124m | -13.9m/s | -55.4°C | 0.2% | 92.6hPa | 2.6V | 02:33:58 | 02:45:01 | 00:00:00 | |
| DB0ND-19 | 2026-09-03 19:14:53 | 49.04648 | 8.65206 | 120° | 33km/h | 17207m | -14.1m/s | -55.8°C | 1.1% | 91.5hPa | 2.6V | 00:00:00 | 00:00:00 | 00:00:00 | |
| DB0NH | 2026-09-03 19:14:52 | 49.04647 | 8.65206 | 121° | 31km/h | 17207m | -14.1m/s | -55.7°C | 4.2% | 91.4hPa | 2.6V | 02:33:00 | 02:44:55 | 00:00:00 | |
| DM0DOS-11 | 2026-09-03 19:14:51 | 49.04681 | 8.65152 | 138° | 33km/h | 17290m | -14.9m/s | -56.2°C | 4.4% | 90.2hPa | 2.5V | 02:34:03 | 02:44:49 | 00:00:00 | |
| BIOWL1-15 | 2026-09-03 19:14:48 | 49.04669 | 8.65168 | 139° | 33km/h | 17262m | -14m/s | -56.1°C | 0.3% | 90.6hPa | 2.6V | 02:35:40 | 02:44:51 | 00:00:00 | |
| DL8DAS-14 | 2026-09-03 19:14:47 | 49.04675 | 8.65160 | 139° | 31km/h | 17276m | -14.1m/s | -56.2°C | 1.1% | 90.4hPa | 2.5V | 00:00:00 | 00:00:00 | 00:00:00 | |
| DF3TZ-5 | 2026-09-03 19:14:46 | 49.04687 | 8.65144 | 140° | 31km/h | 17305m | -14.4m/s | -56.3°C | 1.2% | 90.0hPa | 2.5V | 00:00:00 | 00:00:00 | 00:00:00 | |
| DM7RM-13 | 2026-09-03 19:14:45 | 49.04681 | 8.65152 | 140° | 33km/h | 17290m | -14.9m/s | -56.2°C | 1.2% | 90.2hPa | 2.5V | 00:00:00 | 00:00:00 | 00:00:00 | |
| DO3MHA-11 | 2026-09-03 19:14:44 | 49.04694 | 8.65136 | 141° | 35km/h | 17320m | -14.6m/s | -56.2°C | 4.3% | 89.8hPa | 2.5V | 02:34:00 | 02:44:47 | 00:00:00 | |
| BIOWL9-15 | 2026-09-03 19:14:41 | 49.04720 | 8.65098 | 136° | 37km/h | 17377m | -14.6m/s | -56.3°C | 1.2% | 89.0hPa | 2.5V | 00:00:00 | 00:00:00 | 00:00:00 | |
| DK5PH-5 | 2026-09-03 19:14:40 | 49.04720 | 8.65098 | 137° | 33km/h | 17377m | -14.6m/s | -56.3°C | 4.3% | 88.9hPa | 2.5V | 00:00:00 | 02:44:43 | 00:00:00 | |
| DM0DOS-11 | 2026-09-03 19:14:39 | 49.04752 | 8.65041 | 125° | 27km/h | 17464m | -14.8m/s | -56.7°C | 4.5% | 87.8hPa | 2.5V | 02:34:15 | 02:44:37 | 00:00:00 | |
| DK7TD | 2026-09-03 19:14:37 | 49.04739 | 8.65069 | 128° | 33km/h | 17421m | -14.2m/s | -56.5°C | 0.3% | 88.4hPa | 2.6V | 02:34:49 | 02:44:40 | 00:00:00 | |
| DJ2DS-15 | 2026-09-03 19:14:35 | 49.04752 | 8.65041 | 125° | 26km/h | 17464m | -14.8m/s | -56.7°C | 1.2% | 87.8hPa | 2.5V | 00:00:00 | 00:00:00 | 00:00:00 | |
| DO3MHA-11 | 2026-09-03 19:14:34 | 49.04752 | 8.65041 | 126° | 27km/h | 17464m | -14.7m/s | -56.6°C | 4.5% | 87.7hPa | 2.5V | 00:00:00 | 02:44:37 | 00:00:00 | |
| DJ2DS-15 | 2026-09-03 19:14:32 | 49.04760 | 8.65024 | 126° | 33km/h | 17494m | -14.2m/s | -56.6°C | 4.4% | 87.3hPa | 2.5V | 00:00:00 | 02:44:35 | 00:00:00 | |
| DL0LBS | 2026-09-03 19:14:31 | 49.04763 | 8.65017 | 130° | 24km/h | 17508m | -14.1m/s | -56.6°C | 1.2% | 87.2hPa | 2.5V | 02:34:00 | 00:00:00 | 00:00:00 | |
| DJTTGO | 2026-09-03 19:14:30 | 49.04763 | 8.65017 | 130° | 24km/h | 17508m | -14.1m/s | -56.6°C | 1.2% | 87.2hPa | 2.5V | 02:34:00 | 00:00:00 | 00:00:00 | |
| DM0DOS-11 | 2026-09-03 19:14:29 | 49.04793 | 8.64954 | 124° | 35km/h | 17609m | -14.1m/s | -56.9°C | 4.4% | 85.8hPa | 2.5V | 02:34:25 | 02:44:27 | 00:00:00 | |
| DK7TD | 2026-09-03 19:14:27 | 49.04780 | 8.64985 | 126° | 31km/h | 17566m | -14m/s | -56.7°C | 0.2% | 86.4hPa | 2.6V | 02:34:49 | 02:44:30 | 00:00:00 | |
| BIOWL1-15 | 2026-09-03 19:14:26 | 49.04798 | 8.64943 | 119° | 37km/h | 17624m | -14.6m/s | -57°C | 0.3% | 85.7hPa | 2.5V | 02:35:40 | 02:44:26 | 00:00:00 | |
| DN1GJH-1 | 2026-09-03 19:14:25 | 49.04785 | 8.64975 | 123° | 31km/h | 17580m | -14.1m/s | -56.8°C | 1.2% | 86.2hPa | 2.6V | 00:00:00 | 00:00:00 | 00:00:00 | |
| DO3MHA-11 | 2026-09-03 19:14:24 | 49.04793 | 8.64954 | 125° | 37km/h | 17610m | -14.1m/s | -56.9°C | 4.4% | 85.8hPa | 2.6V | 00:00:00 | 02:44:27 | 00:00:00 | |
| DB0ND-19 | 2026-09-03 19:14:22 | 49.04807 | 8.64918 | 115° | 35km/h | 17654m | -15.2m/s | -57.1°C | 1.2% | 85.2hPa | 2.6V | 00:00:00 | 00:00:00 | 00:00:00 | |
| DL1ZP-14 | 2026-09-03 19:14:21 | 49.04807 | 8.64918 | 115° | 35km/h | 17654m | -15.2m/s | -57.1°C | 1.2% | 85.2hPa | 2.6V | 00:00:00 | 00:00:00 | 00:00:00 | |
| DB0UT-7 | 2026-09-03 19:14:20 | 49.04810 | 8.64906 | 116° | 37km/h | 17669m | -14.6m/s | -57.1°C | 4.5% | 85.0hPa | 2.6V | 02:34:00 | 00:00:00 | 00:00:00 | |
| DM0DOS-11 | 2026-09-03 19:14:19 | 49.04839 | 8.64836 | 130° | 35km/h | 17754m | -14.7m/s | -57.4°C | 4.5% | 83.9hPa | 2.5V | 02:34:35 | 02:44:17 | 00:00:00 | |
| DK7TD | 2026-09-03 19:14:17 | 49.04824 | 8.64869 | 120° | 37km/h | 17711m | -13.7m/s | -57.4°C | 0.3% | 84.4hPa | 2.5V | 02:34:49 | 02:44:20 | 00:00:00 | |
| BIOWL1-15 | 2026-09-03 19:14:17 | 49.04845 | 8.64826 | 134° | 37km/h | 17769m | -14.6m/s | -57.3°C | 0.3% | 83.7hPa | 2.5V | 02:35:40 | 02:44:16 | 00:00:00 | |
| DL8DAS-14 | 2026-09-03 19:14:16 | 49.04829 | 8.64857 | 122° | 35km/h | 17725m | -14.1m/s | -57.5°C | 1.2% | 84.3hPa | 2.5V | 00:00:00 | 00:00:00 | 00:00:00 | |
| DF3TZ-5 | 2026-09-03 19:14:15 | 49.04839 | 8.64836 | 130° | 33km/h | 17754m | -14.7m/s | -57.4°C | 1.2% | 83.9hPa | 2.5V | 00:00:00 | 00:00:00 | 00:00:00 | |
| DO3MHA-11 | 2026-09-03 19:14:14 | 49.04839 | 8.64836 | 131° | 37km/h | 17754m | -14.6m/s | -57.3°C | 4.5% | 83.8hPa | 2.5V | 02:34:00 | 02:44:17 | 00:00:00 | |
| DF7PN | 2026-09-03 19:14:13 | 49.04845 | 8.64826 | 133° | 37km/h | 17769m | -14.6m/s | -57.3°C | 1.2% | 83.7hPa | 2.5V | 00:00:00 | 00:00:00 | 00:00:00 | |
| DJ2DS-15 | 2026-09-03 19:14:12 | 49.04852 | 8.64816 | 137° | 38km/h | 17784m | -15.5m/s | -57.3°C | 4.5% | 83.5hPa | 2.5V | 02:34:00 | 02:44:15 | 00:00:00 | |
| DF1GD-15 | 2026-09-03 19:14:11 | 49.04852 | 8.64816 | 138° | 38km/h | 17784m | -15.5m/s | -57.4°C | 1.2% | 83.5hPa | 2.6V | 02:34:00 | 00:00:00 | 00:00:00 | |
| DK5PH-5 | 2026-09-03 19:14:10 | 49.04866 | 8.64797 | 139° | 33km/h | 17814m | -14.1m/s | -57.3°C | 4.5% | 83.0hPa | 2.6V | 02:34:00 | 02:44:13 | 00:00:00 | |
| DM0DOS-11 | 2026-09-03 19:14:09 | 49.04910 | 8.64743 | 141° | 37km/h | 17897m | -13.4m/s | -57.7°C | 4.6% | 82hPa | 2.5V | 02:34:45 | 02:44:07 | 00:00:00 | |
| DK7TD | 2026-09-03 19:14:06 | 49.04896 | 8.64761 | 142° | 38km/h | 17870m | -13.9m/s | -57.6°C | 0.3% | 82.4hPa | 2.6V | 02:34:49 | 02:44:09 | 00:00:00 | |
| BIOWL1-15 | 2026-09-03 19:14:03 | 49.04925 | 8.64725 | 140° | 40km/h | 17923m | -13.3m/s | -57.8°C | 0.3% | 81.7hPa | 2.5V | 02:35:40 | 02:44:05 | 00:00:00 | |
| DK7TD | 2026-09-03 19:13:56 | 49.04972 | 8.64668 | 144° | 37km/h | 18005m | -14.1m/s | -57.8°C | 0.3% | 80.6hPa | 2.5V | 02:35:40 | 02:43:59 | 00:00:00 | |
| DO3MHA-11 | 2026-09-03 19:13:54 | 49.04986 | 8.64651 | 140° | 29km/h | 18033m | -12.4m/s | -57.9°C | 4.6% | 80.2hPa | 2.6V | 00:00:00 | 02:43:57 | 00:00:00 | |
| DB0UT-9 | 2026-09-03 19:13:53 | 49.04986 | 8.64651 | 141° | 35km/h | 18033m | -12.5m/s | -57.9°C | 1.2% | 80.2hPa | 2.6V | 02:35:00 | 00:00:00 | 00:00:00 | |
| DM0DOS-11 | 2026-09-03 19:13:52 | 49.05021 | 8.64596 | 119° | 26km/h | 18125m | -12.5m/s | -58°C | 4.8% | 79.1hPa | 2.6V | 02:35:02 | 02:43:50 | 00:00:00 | |
| BIOWL1-15 | 2026-09-03 19:13:52 | 49.04999 | 8.64635 | 140° | 33km/h | 18058m | -13.5m/s | -58°C | 0.3% | 79.9hPa | 2.5V | 02:35:40 | 02:43:55 | 00:00:00 | |
| DK7TD | 2026-09-03 19:13:46 | 49.05024 | 8.64587 | 118° | 26km/h | 18138m | -13.6m/s | -58.1°C | 0.3% | 78.9hPa | 2.5V | 02:35:40 | 02:43:49 | 00:00:00 | |
| DL8DAS-14 | 2026-09-03 19:13:45 | 49.05027 | 8.64578 | 116° | 26km/h | 18151m | -13.4m/s | -58.1°C | 1.2% | 78.7hPa | 2.5V | 00:00:00 | 00:00:00 | 00:00:00 | |
| DO3MHA-11 | 2026-09-03 19:13:44 | 49.05030 | 8.64569 | 115° | 22km/h | 18165m | -12.6m/s | -58.1°C | 4.9% | 78.5hPa | 2.5V | 02:35:00 | 02:43:47 | 00:00:00 | |
| KANTATE | 2026-09-03 19:13:43 | 49.05030 | 8.64569 | 115° | 26km/h | 18165m | -12.6m/s | -58.1°C | 1.2% | 78.5hPa | 2.6V | 00:00:00 | 00:00:00 | 00:00:00 | |
| DM0DOS-11 | 2026-09-03 19:13:42 | 49.05036 | 8.64514 | 79° | 18km/h | 18253m | -15.1m/s | -58.2°C | 5% | 77.5hPa | 2.6V | 02:35:12 | 02:43:40 | 00:00:00 | |
| BIOWL1-15 | 2026-09-03 19:13:41 | 49.05036 | 8.64543 | 101° | 22km/h | 18201m | -12.3m/s | -58.1°C | 0.4% | 78.2hPa | 2.6V | 02:35:40 | 02:43:44 | 00:00:00 | |
| DK7TD | 2026-09-03 19:13:35 | 49.05034 | 8.64499 | 85° | 22km/h | 18281m | -13.3m/s | -58.3°C | 0.5% | 77.1hPa | 2.5V | 02:35:40 | 02:43:38 | 00:00:00 | |
| DO3MHA-11 | 2026-09-03 19:13:34 | 49.05034 | 8.64490 | 90° | 33km/h | 18294m | -13.0m/s | -58.2°C | 5.0% | 76.9hPa | 2.5V | 00:00:00 | 02:43:37 | 00:00:00 | |
| DM0DOS-11 | 2026-09-03 19:13:32 | 49.05038 | 8.64401 | 98° | 38km/h | 18390m | -14.5m/s | -57.7°C | 4.9% | 75.8hPa | 2.5V | 02:35:22 | 02:43:30 | 00:00:00 | |
| BIOWL1-15 | 2026-09-03 19:13:30 | 49.05035 | 8.64444 | 94° | 35km/h | 18348m | -14.8m/s | -57.7°C | 0.3% | 76.3hPa | 2.6V | 02:35:40 | 02:43:33 | 00:00:00 | |
| DK7TD | 2026-09-03 19:13:25 | 49.05041 | 8.64373 | 104° | 35km/h | 18418m | -14.2m/s | -57.4°C | 0.3% | 75.5hPa | 2.5V | 02:35:40 | 02:43:28 | 00:00:00 | |
| DO3MHA-11 | 2026-09-03 19:13:24 | 49.05043 | 8.64360 | 106° | 33km/h | 18432m | -13.4m/s | -57.0°C | 4.7% | 75.3hPa | 2.5V | 00:00:00 | 02:43:27 | 00:00:00 | |
| KANTATE | 2026-09-03 19:13:23 | 49.05043 | 8.64360 | 106° | 35km/h | 18432m | -13.4m/s | -57.1°C | 1.1% | 75.3hPa | 2.5V | 00:00:00 | 00:00:00 | 00:00:00 | |
| DM0DOS-11 | 2026-09-03 19:13:22 | 49.05062 | 8.64281 | 110° | 37km/h | 18528m | -13.4m/s | -56.5°C | 4.4% | 74.2hPa | 2.5V | 02:35:32 | 02:43:20 | 00:00:00 | |
| BIOWL1-15 | 2026-09-03 19:13:19 | 49.05065 | 8.64268 | 111° | 38km/h | 18541m | -13.5m/s | -56.4°C | 0.2% | 74hPa | 2.5V | 02:35:40 | 02:43:19 | 00:00:00 | |
| DK7TD | 2026-09-03 19:13:14 | 49.05073 | 8.64242 | 120° | 37km/h | 18568m | -14.2m/s | -56.1°C | 0.1% | 73.7hPa | 2.6V | 02:35:40 | 02:43:17 | 00:00:00 | |
| DO3MHA-11 | 2026-09-03 19:13:14 | 49.05073 | 8.64242 | 120° | 31km/h | 18568m | -14.2m/s | -56.0°C | 4.3% | 73.6hPa | 2.6V | 02:35:00 | 02:43:17 | 00:00:00 | |
| AZAK | 2026-09-03 19:13:13 | 49.05073 | 8.64242 | 121° | 37km/h | 18568m | -14.2m/s | -56.1°C | 1.0% | 73.7hPa | 2.5V | 02:35:00 | 00:00:00 | 00:00:00 | |
| DM0DOS-11 | 2026-09-03 19:13:12 | 49.05105 | 8.64176 | 121° | 27km/h | 18667m | -15.9m/s | -55.6°C | 4.1% | 72.6hPa | 2.5V | 02:35:42 | 02:43:10 | 00:00:00 | |
| DJ2DS-15 | 2026-09-03 19:13:12 | 49.05082 | 8.64220 | 128° | 31km/h | 18598m | -15.1m/s | -55.7°C | 4.2% | 73.3hPa | 2.5V | 02:35:00 | 02:43:15 | 00:00:00 | |
| DF7PN | 2026-09-03 19:13:11 | 49.05093 | 8.64202 | 132° | 31km/h | 18626m | -12.9m/s | -55.7°C | 1.0% | 73.1hPa | 2.5V | 00:00:00 | 00:00:00 | 00:00:00 | |
| DK5PH-5 | 2026-09-03 19:13:10 | 49.05093 | 8.64201 | 133° | 29km/h | 18626m | -12.9m/s | -55.7°C | 4.2% | 73.0hPa | 2.5V | 00:00:00 | 02:43:13 | 00:00:00 | |
| IW2NTF | 2026-09-03 19:13:08 | 49.05118 | 8.64125 | 104° | 29km/h | 18745m | -16.2m/s | -55.9°C | 4.1% | 71.7hPa | 2.5V | 02:35:47 | 02:43:05 | 00:00:00 | |
| BIOWL1-15 | 2026-09-03 19:13:07 | 49.05109 | 8.64166 | 115° | 27km/h | 18683m | -15.8m/s | -55.6°C | 0% | 72.4hPa | 2.5V | 02:36:31 | 02:43:09 | 00:00:00 | |
| DK7TD | 2026-09-03 19:13:04 | 49.05114 | 8.64146 | 107° | 29km/h | 18714m | -15m/s | -55.7°C | 0% | 72hPa | 2.6V | 02:36:31 | 02:43:07 | 00:00:00 | |
| DO3MHA-11 | 2026-09-03 19:13:04 | 49.05114 | 8.64146 | 107° | 33km/h | 18714m | -14.9m/s | -55.7°C | 4.1% | 72.0hPa | 2.5V | 00:00:00 | 02:43:07 | 00:00:00 | |
| DM0DOS-11 | 2026-09-03 19:13:02 | 49.05130 | 8.64065 | 107° | 35km/h | 18821m | -14.8m/s | -56.3°C | 4.3% | 70.9hPa | 2.5V | 02:35:52 | 02:43:00 | 00:00:00 | |
| BIOWL1-15 | 2026-09-03 19:13:00 | 49.05130 | 8.64065 | 107° | 35km/h | 18821m | -14.8m/s | -56.3°C | 0.1% | 70.9hPa | 2.5V | 02:36:31 | 02:43:00 | 00:00:00 | |
| NBG1-10 | 2026-09-03 19:12:59 | 49.05125 | 8.64090 | 108° | 29km/h | 18792m | -14.8m/s | -56.1°C | 4.2% | 71.1hPa | 2.5V | 00:00:00 | 02:43:02 | 00:00:00 | |
| DM7RM-13 | 2026-09-03 19:12:57 | 49.05127 | 8.64078 | 108° | 35km/h | 18807m | -14.2m/s | -56.2°C | 1.0% | 71.0hPa | 2.5V | 02:36:00 | 00:00:00 | 00:00:00 | |
| IW2NTF | 2026-09-03 19:12:56 | 49.05156 | 8.63985 | 133° | 31km/h | 18926m | -15.5m/s | -56.3°C | 4.4% | 69.7hPa | 2.5V | 02:35:59 | 02:42:53 | 00:00:00 | |
| DK7TD | 2026-09-03 19:12:53 | 49.05143 | 8.64015 | 119° | 33km/h | 18883m | -15.6m/s | -56.5°C | 0.2% | 70.2hPa | 2.6V | 02:36:31 | 02:42:56 | 00:00:00 | |
| DM0DOS-11 | 2026-09-03 19:12:52 | 49.05172 | 8.63960 | 141° | 29km/h | 18973m | -15.2m/s | -56.2°C | 4.5% | 69.2hPa | 2.5V | 02:36:02 | 02:42:50 | 00:00:00 | |
| BIOWL1-15 | 2026-09-03 19:12:47 | 49.05172 | 8.63960 | 141° | 29km/h | 18973m | -15.2m/s | -56.2°C | 0.2% | 69.2hPa | 2.5V | 02:36:31 | 02:42:50 | 00:00:00 | |
| DL0LBS | 2026-09-03 19:12:46 | 49.05172 | 8.63960 | 142° | 29km/h | 18973m | -15.2m/s | -56.2°C | 1.1% | 69.2hPa | 2.6V | 02:36:00 | 00:00:00 | 00:00:00 | |
| IW2NTF | 2026-09-03 19:12:45 | 49.05203 | 8.63915 | 120° | 22km/h | 19081m | -15.7m/s | -56°C | 4.3% | 68hPa | 2.6V | 02:36:09 | 02:42:43 | 00:00:00 | |
| DK7TD | 2026-09-03 19:12:43 | 49.05193 | 8.63934 | 141° | 26km/h | 19034m | -15.7m/s | -55.9°C | 0.1% | 68.5hPa | 2.5V | 02:36:31 | 02:42:46 | 00:00:00 | |
| DL8DAS-14 | 2026-09-03 19:12:43 | 49.05197 | 8.63928 | 132° | 20km/h | 19049m | -15.4m/s | -55.9°C | 1.0% | 68.4hPa | 2.5V | 00:00:00 | 00:00:00 | 00:00:00 | |
| DM0DOS-11 | 2026-09-03 19:12:42 | 49.05210 | 8.63889 | 105° | 27km/h | 19130m | -15.4m/s | -56.2°C | 4.5% | 67.5hPa | 2.5V | 02:36:12 | 02:42:40 | 00:00:00 | |
| BIOWL1-15 | 2026-09-03 19:12:37 | 49.05210 | 8.63889 | 105° | 27km/h | 19130m | -15.4m/s | -56.2°C | 0.2% | 67.5hPa | 2.5V | 02:36:31 | 02:42:40 | 00:00:00 | |
| DK7TD | 2026-09-03 19:12:33 | 49.05220 | 8.63844 | 116° | 35km/h | 19191m | -15.9m/s | -56.1°C | 0.3% | 66.8hPa | 2.5V | 02:36:31 | 02:42:36 | 00:00:00 | |
| BIOWL1-15 | 2026-09-03 19:12:27 | 49.05242 | 8.63776 | 119° | 31km/h | 19283m | -15.3m/s | -55°C | 0% | 65.9hPa | 2.5V | 02:36:31 | 02:42:30 | 00:00:00 | |
| DK7TD | 2026-09-03 19:12:22 | 49.05264 | 8.63731 | 135° | 35km/h | 19361m | -16.1m/s | -55°C | 0% | 65.1hPa | 2.5V | 02:36:31 | 02:42:25 | 00:00:00 | |
| BIOWL1-15 | 2026-09-03 19:12:19 | 49.05300 | 8.63686 | 145° | 37km/h | 19441m | -16.5m/s | -55.4°C | 0% | 64.3hPa | 2.5V | 02:37:22 | 02:42:20 | 00:00:00 | |
| DK7TD | 2026-09-03 19:12:11 | 49.05337 | 8.63652 | 160° | 24km/h | 19539m | -15.5m/s | -55.2°C | 0.1% | 63.3hPa | 2.6V | 02:37:22 | 02:42:14 | 00:00:00 | |
| BIOWL1-15 | 2026-09-03 19:12:08 | 49.05364 | 8.63644 | 177° | 20km/h | 19620m | -16.1m/s | -54.8°C | 0% | 62.5hPa | 2.6V | 02:37:22 | 02:42:09 | 00:00:00 | |
| DK7TD | 2026-09-03 19:12:00 | 49.05382 | 8.63630 | 111° | 13km/h | 19717m | -14.6m/s | -55.6°C | 0.2% | 61.6hPa | 2.6V | 02:37:22 | 02:42:03 | 00:00:00 | |
| BIOWL1-15 | 2026-09-03 19:11:56 | 49.05387 | 8.63608 | 110° | 16km/h | 19779m | -15.9m/s | -55.7°C | 0.1% | 61hPa | 2.6V | 02:37:22 | 02:41:59 | 00:00:00 | |
| KANTATE | 2026-09-03 19:11:55 | 49.05387 | 8.63608 | 111° | 16km/h | 19780m | -15.9m/s | -55.7°C | 1.0% | 61.0hPa | 2.6V | 00:00:00 | 00:00:00 | 00:00:00 | |
| DO3MHA-11 | 2026-09-03 19:11:54 | 49.05390 | 8.63595 | 116° | 22km/h | 19810m | -16.6m/s | -55.2°C | 4.1% | 60.6hPa | 2.6V | 00:00:00 | 02:41:57 | 00:00:00 | |
| DJ2DS-15 | 2026-09-03 19:11:52 | 49.05396 | 8.63581 | 125° | 20km/h | 19842m | -15.3m/s | -55.1°C | 4.0% | 60.3hPa | 2.6V | 00:00:00 | 02:41:55 | 00:00:00 | |
| DM0DOS-11 | 2026-09-03 19:11:51 | 49.05415 | 8.63539 | 124° | 24km/h | 19940m | -16.9m/s | -55.2°C | 4.1% | 59.4hPa | 2.6V | 02:37:03 | 02:41:49 | 00:00:00 | |
| DK7TD | 2026-09-03 19:11:50 | 49.05402 | 8.63567 | 125° | 24km/h | 19874m | -15.3m/s | -54.9°C | 0% | 60hPa | 2.6V | 02:37:22 | 02:41:53 | 00:00:00 | |
| BIOWL1-15 | 2026-09-03 19:11:46 | 49.05415 | 8.63539 | 125° | 24km/h | 19940m | -16.9m/s | -55.2°C | 0.1% | 59.4hPa | 2.6V | 02:37:22 | 02:41:49 | 00:00:00 | |
| OE3JTB-15 | 2026-09-03 19:11:46 | 49.05415 | 8.63539 | 125° | 24km/h | 19940m | -16.9m/s | -55.2°C | 4.1% | 59.4hPa | 2.5V | 00:00:00 | 02:41:49 | 00:00:00 | |
| DL4BBY-15 | 2026-09-03 19:11:45 | 49.05419 | 8.63532 | 126° | 22km/h | 19957m | -16.2m/s | -55.6°C | 0% | 0hPa | 2.5V | 00:00:00 | 00:00:00 | 00:00:00 | |
| DO3MHA-11 | 2026-09-03 19:11:44 | 49.05422 | 8.63525 | 129° | 16km/h | 19972m | -15.2m/s | -55.0°C | 4.0% | 59.1hPa | 2.5V | 02:37:00 | 02:41:47 | 00:00:00 | |
| DM0DOS-11 | 2026-09-03 19:11:41 | 49.05438 | 8.63479 | 107° | 15km/h | 20102m | -16.4m/s | -55.2°C | 4% | 58hPa | 2.6V | 02:37:13 | 02:41:39 | 00:00:00 | |
| DK7TD | 2026-09-03 19:11:40 | 49.05433 | 8.63501 | 116° | 15km/h | 20036m | -15.9m/s | -55.1°C | 0% | 58.5hPa | 2.6V | 02:37:22 | 02:41:43 | 00:00:00 | |
| BIOWL1-15 | 2026-09-03 19:11:37 | 49.05439 | 8.63474 | 93° | 15km/h | 20117m | -15.5m/s | -55.2°C | 0% | 57.8hPa | 2.6V | 02:37:22 | 02:41:38 | 00:00:00 | |
| DL6DJ-15 | 2026-09-03 19:11:35 | 49.05439 | 8.63467 | 99° | 16km/h | 20134m | -17.4m/s | -55.3°C | 0.9% | 57.7hPa | 2.6V | 00:00:00 | 00:00:00 | 00:00:00 | |
| DO3MHA-11 | 2026-09-03 19:11:34 | 49.05439 | 8.63467 | 100° | 18km/h | 20134m | -17.4m/s | -55.2°C | 4.0% | 57.6hPa | 2.6V | 00:00:00 | 02:41:37 | 00:00:00 | |
| DM0DOS-11 | 2026-09-03 19:11:32 | 49.05441 | 8.63402 | 104° | 22km/h | 20290m | -17.9m/s | -55.5°C | 4.2% | 56.2hPa | 2.6V | 02:37:24 | 02:41:28 | 00:00:00 | |
| DK7TD | 2026-09-03 19:11:29 | 49.05438 | 8.63432 | 89° | 18km/h | 20221m | -18.6m/s | -55.7°C | 0.1% | 56.9hPa | 2.5V | 02:37:22 | 02:41:32 | 00:00:00 | |
| BIOWL1-15 | 2026-09-03 19:11:27 | 49.05441 | 8.63402 | 104° | 22km/h | 20290m | -17.9m/s | -55.5°C | 0.1% | 56.2hPa | 2.6V | 02:38:13 | 02:41:28 | 00:00:00 | |
| DK7TD | 2026-09-03 19:11:19 | 49.05452 | 8.63339 | 106° | 37km/h | 20390m | -16.4m/s | -55.6°C | 0.1% | 55.4hPa | 2.5V | 02:38:13 | 02:41:22 | 00:00:00 | |
| DM0DOS-11 | 2026-09-03 19:11:19 | 49.05465 | 8.63276 | 110° | 29km/h | 20474m | -16.1m/s | -55.8°C | 4.4% | 54.7hPa | 2.5V | 02:37:35 | 02:41:17 | 00:00:00 | |
| BIOWL1-15 | 2026-09-03 19:11:14 | 49.05465 | 8.63276 | 110° | 29km/h | 20474m | -16.1m/s | -55.8°C | 0.2% | 54.7hPa | 2.5V | 02:38:13 | 02:41:17 | 00:00:00 | |
| DO3MHA-11 | 2026-09-03 19:11:14 | 49.05465 | 8.63276 | 111° | 31km/h | 20474m | -16.1m/s | -55.7°C | 4.4% | 54.6hPa | 2.5V | 02:37:00 | 02:41:17 | 00:00:00 | |
| KANTATE | 2026-09-03 19:11:13 | 49.05465 | 8.63276 | 111° | 29km/h | 20474m | -16.1m/s | -55.8°C | 1.0% | 54.7hPa | 2.5V | 02:38:00 | 00:00:00 | 00:00:00 | |
| DJ2DS-15 | 2026-09-03 19:11:12 | 49.05471 | 8.63256 | 119° | 29km/h | 20508m | -17.2m/s | -55.6°C | 4.3% | 54.3hPa | 2.5V | 02:37:00 | 02:41:15 | 00:00:00 | |
| DO3DL | 2026-09-03 19:11:11 | 49.05471 | 8.63256 | 120° | 27km/h | 20508m | -17.2m/s | -55.7°C | 0.9% | 54.4hPa | 2.6V | 02:38:00 | 00:00:00 | 00:00:00 | |
| DK5PH-5 | 2026-09-03 19:11:10 | 49.05479 | 8.63239 | 125° | 31km/h | 20543m | -16.8m/s | -55.4°C | 4.3% | 54.1hPa | 2.6V | 02:37:00 | 02:41:13 | 00:00:00 | |
| DM0DOS-11 | 2026-09-03 19:11:09 | 49.05516 | 8.63185 | 145° | 40km/h | 20650m | -17.4m/s | -55°C | 4.1% | 53.2hPa | 2.5V | 02:37:45 | 02:41:07 | 00:00:00 | |
| DK7TD | 2026-09-03 19:11:08 | 49.05487 | 8.63222 | 134° | 31km/h | 20576m | -18.3m/s | -55.2°C | 0.1% | 53.8hPa | 2.5V | 02:38:13 | 02:41:11 | 00:00:00 | |
| BIOWL1-15 | 2026-09-03 19:11:04 | 49.05516 | 8.63185 | 145° | 40km/h | 20650m | -17.4m/s | -55.1°C | 0.1% | 53.2hPa | 2.5V | 02:38:13 | 02:41:07 | 00:00:00 | |
| DO3MHA-11 | 2026-09-03 19:11:04 | 49.05516 | 8.63185 | 146° | 29km/h | 20650m | -17.3m/s | -55.0°C | 4.1% | 53.2hPa | 2.6V | 00:00:00 | 02:41:07 | 00:00:00 | |
| DL0LBS | 2026-09-03 19:11:02 | 49.05524 | 8.63177 | 148° | 38km/h | 20667m | -16.3m/s | -55.1°C | 0.9% | 53.1hPa | 2.6V | 02:38:00 | 00:00:00 | 00:00:00 | |
| DL1XH1-15 | 2026-09-03 19:11:01 | 49.05571 | 8.63138 | 150° | 22km/h | 20788m | -17.5m/s | -55°C | 4.1% | 52.1hPa | 2.6V | 02:37:53 | 02:40:59 | 00:00:00 | |
| DK7TD | 2026-09-03 19:10:57 | 49.05566 | 8.63142 | 154° | 24km/h | 20771m | -16.6m/s | -55.1°C | 0.1% | 52.2hPa | 2.5V | 02:38:13 | 02:41:00 | 00:00:00 | |
| AU51GT2 | 2026-09-03 19:10:56 | 49.05580 | 8.63129 | 143° | 22km/h | 20823m | -17.5m/s | -54.9°C | 0.9% | 51.8hPa | 2.6V | 00:00:00 | 00:00:00 | 00:00:00 | |
| DM0DOS-11 | 2026-09-03 19:10:55 | 49.05599 | 8.63104 | 139° | 27km/h | 20894m | -17.4m/s | -54.7°C | 4.1% | 51.2hPa | 2.6V | 02:37:59 | 02:40:53 | 00:00:00 | |
| BIOWL1-15 | 2026-09-03 19:10:55 | 49.05585 | 8.63123 | 140° | 24km/h | 20840m | -18m/s | -54.9°C | 0.1% | 51.7hPa | 2.5V | 02:38:13 | 02:40:56 | 00:00:00 | |
| DO3MHA-11 | 2026-09-03 19:10:54 | 49.05580 | 8.63129 | 144° | 27km/h | 20823m | -17.4m/s | -54.8°C | 4.1% | 51.8hPa | 2.5V | 00:00:00 | 02:40:57 | 00:00:00 | |
| DO3DL | 2026-09-03 19:10:52 | 49.05589 | 8.63117 | 137° | 24km/h | 20859m | -18.5m/s | -54.8°C | 0.9% | 51.5hPa | 2.5V | 02:38:00 | 00:00:00 | 00:00:00 | |
| KANTATE | 2026-09-03 19:10:51 | 49.05589 | 8.63117 | 137° | 24km/h | 20859m | -18.5m/s | -54.8°C | 0.9% | 51.5hPa | 2.5V | 02:38:00 | 00:00:00 | 00:00:00 | |
| DB0UT-7 | 2026-09-03 19:10:50 | 49.05599 | 8.63104 | 140° | 24km/h | 20894m | -17.4m/s | -54.7°C | 4.1% | 51.2hPa | 2.5V | 00:00:00 | 02:40:53 | 00:00:00 | |
| DL1XH1-15 | 2026-09-03 19:10:49 | 49.05637 | 8.63060 | 148° | 33km/h | 20999m | -16.9m/s | -54.3°C | 3.9% | 50.4hPa | 2.5V | 02:38:05 | 02:40:47 | 00:00:00 | |
| DK7TD | 2026-09-03 19:10:47 | 49.05616 | 8.63082 | 142° | 33km/h | 20947m | -16.3m/s | -54.5°C | 0% | 50.8hPa | 2.5V | 02:38:13 | 02:40:50 | 00:00:00 | |
| DL1XH-west | 2026-09-03 19:10:46 | 49.05623 | 8.63075 | 143° | 33km/h | 20964m | -16.9m/s | -54.6°C | 0% | 50.7hPa | 2.6V | 02:38:13 | 02:40:49 | 00:00:00 | |
| DB0ND-19 | 2026-09-03 19:10:44 | 49.05637 | 8.63060 | 148° | 31km/h | 20999m | -16.9m/s | -54.3°C | 0.8% | 50.4hPa | 2.5V | 00:00:00 | 00:00:00 | 00:00:00 | |
| BIOWL1-15 | 2026-09-03 19:10:42 | 49.05651 | 8.63049 | 156° | 31km/h | 21033m | -18m/s | -53.9°C | 0% | 50.1hPa | 2.5V | 02:38:13 | 02:40:45 | 00:00:00 | |
| DL1XH-west | 2026-09-03 19:10:36 | 49.05690 | 8.63025 | 164° | 26km/h | 21138m | -18.7m/s | -53.7°C | 0% | 49.4hPa | 2.5V | 02:38:13 | 02:40:39 | 00:00:00 | |
| DO3DL | 2026-09-03 19:10:35 | 49.05690 | 8.63025 | 165° | 26km/h | 21138m | -18.7m/s | -53.7°C | 0.8% | 49.4hPa | 2.5V | 02:38:00 | 00:00:00 | 00:00:00 | |
| DO3MHA-11 | 2026-09-03 19:10:34 | 49.05702 | 8.63021 | 171° | 16km/h | 21174m | -18.0m/s | -53.8°C | 3.6% | 49.0hPa | 2.5V | 00:00:00 | 02:40:37 | 00:00:00 | |
| DL6DJ-15 | 2026-09-03 19:10:33 | 49.05708 | 8.63020 | 174° | 20km/h | 21193m | -19.1m/s | -54.0°C | 0.8% | 48.9hPa | 2.5V | 00:00:00 | 00:00:00 | 00:00:00 | |
| DJ2DS-15 | 2026-09-03 19:10:32 | 49.05713 | 8.63019 | 179° | 20km/h | 21212m | -18.0m/s | -54.0°C | 3.7% | 48.8hPa | 2.5V | 00:00:00 | 02:40:35 | 00:00:00 | |
| DM0DOS-11 | 2026-09-03 19:10:31 | 49.05736 | 8.63015 | 150° | 13km/h | 21323m | -17m/s | -54.9°C | 4% | 47.9hPa | 2.5V | 02:38:23 | 02:40:29 | 00:00:00 | |
| BIOWL1-15 | 2026-09-03 19:10:31 | 49.05718 | 8.63019 | 182° | 18km/h | 21231m | -19.5m/s | -54.2°C | 0% | 48.7hPa | 2.5V | 02:39:04 | 02:40:34 | 00:00:00 | |
| KANTATE | 2026-09-03 19:10:30 | 49.05718 | 8.63019 | 183° | 18km/h | 21231m | -19.5m/s | -54.2°C | 0.8% | 48.7hPa | 2.6V | 00:00:00 | 00:00:00 | 00:00:00 | |
| DL1XH1-15 | 2026-09-03 19:10:28 | 49.05745 | 8.63006 | 145° | 16km/h | 21375m | -17.6m/s | -55.1°C | 4.1% | 47.5hPa | 2.6V | 02:38:26 | 02:40:26 | 00:00:00 | |
| DK7TD | 2026-09-03 19:10:26 | 49.05736 | 8.63015 | 150° | 13km/h | 21323m | -17m/s | -54.9°C | 0% | 47.9hPa | 2.5V | 02:39:04 | 02:40:29 | 00:00:00 | |
| DL1XH-west | 2026-09-03 19:10:24 | 49.05741 | 8.63009 | 142° | 15km/h | 21359m | -15.6m/s | -55.1°C | 0% | 47.6hPa | 2.6V | 02:39:04 | 02:40:27 | 00:00:00 | |
| DO3MHA-11 | 2026-09-03 19:10:24 | 49.05741 | 8.63009 | 143° | 22km/h | 21359m | -15.5m/s | -55.1°C | 4.1% | 47.6hPa | 2.5V | 00:00:00 | 02:40:27 | 00:00:00 | |
| DO3DL | 2026-09-03 19:10:23 | 49.05742 | 8.63009 | 143° | 15km/h | 21359m | -15.6m/s | -55.1°C | 0.9% | 47.7hPa | 2.5V | 00:00:00 | 00:00:00 | 00:00:00 | |
| DJ2DS-15 | 2026-09-03 19:10:22 | 49.05753 | 8.62998 | 150° | 20km/h | 21413m | -19.2m/s | -55.0°C | 0.8% | 47.3hPa | 2.5V | 00:00:00 | 00:00:00 | 00:00:00 | |
| DM0DOS-11 | 2026-09-03 19:10:21 | 49.05779 | 8.62977 | 149° | 26km/h | 21506m | -17.9m/s | -55.1°C | 4.2% | 46.6hPa | 2.5V | 02:38:33 | 02:40:19 | 00:00:00 | |
| BIOWL1-15 | 2026-09-03 19:10:20 | 49.05758 | 8.62994 | 152° | 22km/h | 21431m | -18.9m/s | -55°C | 0% | 47.1hPa | 2.5V | 02:39:04 | 02:40:23 | 00:00:00 | |
| DB0UT-7 | 2026-09-03 19:10:20 | 49.05758 | 8.62994 | 153° | 26km/h | 21432m | -18.8m/s | -55.0°C | 4.1% | 47.1hPa | 2.6V | 00:00:00 | 00:00:00 | 00:00:00 | |
| CB1BUN | 2026-09-03 19:10:19 | 49.05758 | 8.62994 | 153° | 22km/h | 21432m | -18.9m/s | -55.0°C | 0.9% | 47.1hPa | 2.6V | 02:39:00 | 00:00:00 | 00:00:00 | |
| DL1XH1-15 | 2026-09-03 19:10:18 | 49.05794 | 8.62961 | 141° | 22km/h | 21559m | -18.1m/s | -55.3°C | 4.3% | 46.1hPa | 2.6V | 02:38:36 | 02:40:16 | 00:00:00 | |
| DK7TD | 2026-09-03 19:10:16 | 49.05779 | 8.62977 | 150° | 26km/h | 21506m | -17.9m/s | -55.1°C | 0.2% | 46.6hPa | 2.5V | 02:39:04 | 02:40:19 | 00:00:00 | |
| DL1XH-west | 2026-09-03 19:10:13 | 49.05794 | 8.62961 | 142° | 22km/h | 21560m | -18.1m/s | -55.3°C | 0.1% | 46.1hPa | 2.6V | 02:39:04 | 02:40:16 | 00:00:00 | |
| DL1ZP-14 | 2026-09-03 19:10:13 | 49.05799 | 8.62956 | 139° | 22km/h | 21579m | -20.0m/s | -55.3°C | 0.9% | 46.0hPa | 2.6V | 00:00:00 | 00:00:00 | 00:00:00 | |
| DJ2DS-15 | 2026-09-03 19:10:12 | 49.05799 | 8.62956 | 140° | 27km/h | 21579m | -19.9m/s | -55.2°C | 4.3% | 46.0hPa | 2.6V | 02:38:00 | 02:40:15 | 00:00:00 | |
| DM0DOS-11 | 2026-09-03 19:10:11 | 49.05826 | 8.62922 | 142° | 26km/h | 21691m | -21.4m/s | -55.1°C | 4.3% | 45.2hPa | 2.6V | 02:38:43 | 02:40:09 | 00:00:00 | |
| BIOWL1-15 | 2026-09-03 19:10:09 | 49.05816 | 8.62933 | 142° | 24km/h | 21654m | -19.2m/s | -55.1°C | 0.2% | 45.5hPa | 2.5V | 02:39:04 | 02:40:11 | 00:00:00 | |
| DK7TD | 2026-09-03 19:10:05 | 49.05831 | 8.62915 | 142° | 27km/h | 21713m | -21m/s | -55.1°C | 0.2% | 45.1hPa | 2.5V | 02:39:04 | 02:40:08 | 00:00:00 | |
| DL1XH-west | 2026-09-03 19:10:03 | 49.05843 | 8.62903 | 146° | 29km/h | 21753m | -19.9m/s | -54.6°C | 0.1% | 44.8hPa | 2.5V | 02:39:04 | 02:40:06 | 00:00:00 | |
| DL6DJ-15 | 2026-09-03 19:10:02 | 49.05849 | 8.62897 | 148° | 29km/h | 21772m | -18.7m/s | -54.2°C | 0.8% | 44.7hPa | 2.6V | 00:00:00 | 00:00:00 | 00:00:00 | |
| DM0DOS-11 | 2026-09-03 19:10:01 | 49.05894 | 8.62875 | 179° | 31km/h | 21883m | -15.9m/s | -53.6°C | 3.7% | 43.9hPa | 2.6V | 02:38:53 | 02:39:59 | 00:00:00 | |
| BIOWL1-15 | 2026-09-03 19:09:58 | 49.05894 | 8.62875 | 179° | 31km/h | 21884m | -16m/s | -53.6°C | 0% | 43.9hPa | 2.6V | 02:39:04 | 02:39:59 | 00:00:00 | |
| DL1XH1-15 | 2026-09-03 19:09:58 | 49.05914 | 8.62880 | 195° | 24km/h | 21938m | -19m/s | -53.4°C | 3.6% | 43.6hPa | 2.5V | 02:38:56 | 02:39:56 | 00:00:00 | |
| DK7TD | 2026-09-03 19:09:55 | 49.05901 | 8.62876 | 187° | 27km/h | 21901m | -18.9m/s | -53.5°C | 0% | 43.8hPa | 2.6V | 02:39:04 | 02:39:58 | 00:00:00 | |
| DL1XH-west | 2026-09-03 19:09:53 | 49.05914 | 8.62880 | 196° | 24km/h | 21938m | -19m/s | -53.4°C | 0% | 43.6hPa | 2.5V | 02:39:04 | 02:39:56 | 00:00:00 | |
| NBG1-10 | 2026-09-03 19:09:53 | 49.05914 | 8.62880 | 196° | 15km/h | 21938m | -18.9m/s | -53.4°C | 3.6% | 43.5hPa | 2.5V | 00:00:00 | 02:39:56 | 00:00:00 | |
| DJ2DS-15 | 2026-09-03 19:09:52 | 49.05920 | 8.62883 | 201° | 11km/h | 21957m | -19.4m/s | -53.2°C | 3.6% | 43.4hPa | 2.5V | 00:00:00 | 02:39:55 | 00:00:00 | |
| DM0DOS-11 | 2026-09-03 19:09:51 | 49.05946 | 8.62899 | 204° | 11km/h | 22076m | -19.2m/s | -53.4°C | 3.6% | 42.6hPa | 2.5V | 02:39:03 | 02:39:49 | 00:00:00 | |
| BIOWL1-15 | 2026-09-03 19:09:47 | 49.05943 | 8.62897 | 201° | 15km/h | 22057m | -18.1m/s | -53.3°C | 0% | 42.8hPa | 2.5V | 02:39:04 | 02:39:50 | 00:00:00 | |
| DK7TD | 2026-09-03 19:09:45 | 49.05948 | 8.62901 | 205° | 7km/h | 22096m | -20.9m/s | -53.5°C | 0% | 42.5hPa | 2.5V | 02:39:04 | 02:39:48 | 00:00:00 | |
| DL1XH-west | 2026-09-03 19:09:43 | 49.05951 | 8.62903 | 221° | 5km/h | 22137m | -17.9m/s | -53.7°C | 0% | 42.2hPa | 2.6V | 02:39:55 | 02:39:46 | 00:00:00 | |
| DL1ZP-14 | 2026-09-03 19:09:42 | 49.05952 | 8.62907 | 270° | 4km/h | 22175m | -18.0m/s | -53.9°C | 0.8% | 42.0hPa | 2.5V | 00:00:00 | 00:00:00 | 00:00:00 | |
| DM0DOS-11 | 2026-09-03 19:09:41 | 49.05951 | 8.62912 | 83° | 5km/h | 22264m | -17.7m/s | -54.3°C | 4% | 41.4hPa | 2.5V | 02:39:13 | 02:39:39 | 00:00:00 | |
| BIOWL1-15 | 2026-09-03 19:09:36 | 49.05951 | 8.62912 | 83° | 5km/h | 22264m | -17.7m/s | -54.3°C | 0% | 41.4hPa | 2.5V | 02:39:55 | 02:39:39 | 00:00:00 | |
| DK7TD | 2026-09-03 19:09:34 | 49.05951 | 8.62904 | 84° | 13km/h | 22299m | -15.8m/s | -54.5°C | 0% | 41.1hPa | 2.5V | 02:39:55 | 02:39:37 | 00:00:00 | |
| DL1XH-west | 2026-09-03 19:09:32 | 49.05951 | 8.62892 | 91° | 18km/h | 22335m | -18.1m/s | -54.6°C | 0% | 40.9hPa | 2.6V | 02:39:55 | 02:39:35 | 00:00:00 | |
| DJ2DS-15 | 2026-09-03 19:09:32 | 49.05951 | 8.62892 | 92° | 15km/h | 22335m | -18.1m/s | -54.6°C | 4.1% | 40.9hPa | 2.6V | 00:00:00 | 02:39:35 | 00:00:00 | |
| DM0DOS-11 | 2026-09-03 19:09:31 | 49.05970 | 8.62855 | 146° | 24km/h | 22451m | -18.9m/s | -54.3°C | 4.1% | 40.2hPa | 2.6V | 02:39:23 | 02:39:29 | 00:00:00 | |
| BIOWL1-15 | 2026-09-03 19:09:26 | 49.05970 | 8.62855 | 147° | 24km/h | 22452m | -19m/s | -54.3°C | 0% | 40.2hPa | 2.6V | 02:39:55 | 02:39:29 | 00:00:00 | |
| DK7TD | 2026-09-03 19:09:23 | 49.05982 | 8.62840 | 137° | 20km/h | 22509m | -17.2m/s | -53.8°C | 0% | 39.8hPa | 2.5V | 02:39:55 | 02:39:26 | 00:00:00 | |
| DL1XH-west | 2026-09-03 19:09:21 | 49.05988 | 8.62830 | 129° | 15km/h | 22545m | -17.7m/s | -53.7°C | 0% | 39.6hPa | 2.6V | 02:39:55 | 02:39:24 | 00:00:00 | |
| DB0UT-7 | 2026-09-03 19:09:20 | 49.05990 | 8.62826 | 129° | 16km/h | 22563m | -17.9m/s | -53.4°C | 3.7% | 39.5hPa | 2.5V | 00:00:00 | 00:00:00 | 00:00:00 | |
| DM0DOS-11 | 2026-09-03 19:09:19 | 49.05996 | 8.62811 | 103° | 9km/h | 22675m | -17.4m/s | -53.6°C | 3.9% | 38.8hPa | 2.5V | 02:39:35 | 02:39:17 | 00:00:00 | |
| BIOWL1-15 | 2026-09-03 19:09:18 | 49.05995 | 8.62817 | 115° | 7km/h | 22640m | -18m/s | -53.5°C | 0% | 39.1hPa | 2.6V | 02:39:55 | 02:39:19 | 00:00:00 | |
| DL1XH1-15 | 2026-09-03 19:09:17 | 49.05997 | 8.62804 | 100° | 11km/h | 22711m | -19.6m/s | -53.3°C | 3.7% | 38.6hPa | 2.5V | 02:39:37 | 02:39:15 | 00:00:00 | |
| DK7TD | 2026-09-03 19:09:13 | 49.05997 | 8.62808 | 104° | 9km/h | 22693m | -17m/s | -53.6°C | 0% | 38.7hPa | 2.5V | 02:39:55 | 02:39:16 | 00:00:00 | |
| DL1XH-west | 2026-09-03 19:09:11 | 49.05998 | 8.62799 | 105° | 15km/h | 22731m | -19.5m/s | -53.1°C | 0% | 38.5hPa | 2.6V | 02:39:55 | 02:39:14 | 00:00:00 | |
| DL1ZP-14 | 2026-09-03 19:09:11 | 49.05999 | 8.62793 | 107° | 15km/h | 22751m | -19.1m/s | -53.0°C | 0.7% | 38.4hPa | 2.6V | 00:00:00 | 00:00:00 | 00:00:00 | |
| DK5PH-5 | 2026-09-03 19:09:10 | 49.05999 | 8.62793 | 108° | 16km/h | 22751m | -19.0m/s | -53.0°C | 3.7% | 38.3hPa | 2.5V | 00:00:00 | 02:39:13 | 00:00:00 | |
| DM0DOS-11 | 2026-09-03 19:09:09 | 49.06012 | 8.62759 | 141° | 18km/h | 22866m | -20.4m/s | -53.2°C | 3.7% | 37.7hPa | 2.5V | 02:39:45 | 02:39:07 | 00:00:00 | |
| NBG1-10 | 2026-09-03 19:09:08 | 49.06002 | 8.62781 | 108° | 15km/h | 22788m | -18.8m/s | -53.0°C | 3.6% | 38.1hPa | 2.5V | 02:39:00 | 02:39:11 | 00:00:00 | |
| DL1XH1-15 | 2026-09-03 19:09:07 | 49.06020 | 8.62752 | 158° | 20km/h | 22905m | -17.2m/s | -53.3°C | 3.7% | 37.5hPa | 2.5V | 02:39:47 | 02:39:05 | 00:00:00 | |
| BIOWL1-15 | 2026-09-03 19:09:06 | 49.06006 | 8.62769 | 125° | 18km/h | 22825m | -17.5m/s | -53.2°C | 0% | 37.9hPa | 2.6V | 02:39:55 | 02:39:09 | 00:00:00 | |
| DK7TD | 2026-09-03 19:09:03 | 49.06016 | 8.62755 | 151° | 20km/h | 22886m | -20.3m/s | -53.2°C | 0% | 37.6hPa | 2.5V | 02:39:55 | 02:39:06 | 00:00:00 | |
| DL1XH-west | 2026-09-03 19:09:00 | 49.06030 | 8.62749 | 175° | 22km/h | 22942m | -18.5m/s | -53.3°C | 0% | 37.2hPa | 2.6V | 02:39:55 | 02:39:03 | 00:00:00 | |
| DL6DJ-15 | 2026-09-03 19:09:00 | 49.06036 | 8.62749 | 183° | 22km/h | 22963m | -21.4m/s | -53.3°C | 0.7% | 37.1hPa | 2.6V | 00:00:00 | 00:00:00 | 00:00:00 | |
| DL0LBS | 2026-09-03 19:08:58 | 49.06036 | 8.62749 | 185° | 24km/h | 22963m | -21.4m/s | -53.3°C | 0.8% | 37.1hPa | 2.6V | 02:39:00 | 00:00:00 | 00:00:00 | |
| DL1XH1-15 | 2026-09-03 19:08:57 | 49.06074 | 8.62764 | 202° | 16km/h | 23098m | -20.5m/s | -53°C | 3.7% | 36.4hPa | 2.6V | 02:39:57 | 02:38:55 | 00:00:00 | |
| BIOWL1-15 | 2026-09-03 19:08:55 | 49.06059 | 8.62756 | 197° | 24km/h | 23041m | -19.7m/s | -53.2°C | 0% | 36.7hPa | 2.5V | 02:39:55 | 02:38:58 | 00:00:00 | |
| DK7TD | 2026-09-03 19:08:52 | 49.06074 | 8.62764 | 202° | 16km/h | 23098m | -20.5m/s | -53.1°C | 0% | 36.4hPa | 2.6V | 02:40:46 | 02:38:55 | 00:00:00 | |
| DJ2DS-15 | 2026-09-03 19:08:52 | 49.06074 | 8.62764 | 203° | 11km/h | 23098m | -20.4m/s | -53.0°C | 3.7% | 36.3hPa | 2.6V | 00:00:00 | 02:38:55 | 00:00:00 | |
| DJTTGO | 2026-09-03 19:08:51 | 49.06074 | 8.62764 | 203° | 16km/h | 23098m | -20.5m/s | -53.1°C | 0.7% | 36.4hPa | 2.6V | 00:00:00 | 00:00:00 | 00:00:00 | |
| DM0DOS-11 | 2026-09-03 19:08:50 | 49.06087 | 8.62778 | 209° | 7km/h | 23235m | -19.7m/s | -53.4°C | 3.8% | 35.6hPa | 2.6V | 02:40:04 | 02:38:48 | 00:00:00 | |
| DL1XH-west | 2026-09-03 19:08:49 | 49.06083 | 8.62771 | 223° | 9km/h | 23158m | -20.9m/s | -53.1°C | 0% | 36hPa | 2.5V | 02:40:46 | 02:38:52 | 00:00:00 | |
| DB0NH | 2026-09-03 19:08:48 | 49.06084 | 8.62773 | 249° | 13km/h | 23179m | -20.0m/s | -53.2°C | 3.7% | 35.8hPa | 2.5V | 02:40:00 | 02:38:51 | 00:00:00 | |
| DL1XH1-15 | 2026-09-03 19:08:47 | 49.06093 | 8.62783 | 200° | 9km/h | 23296m | -20m/s | -53.2°C | 3.8% | 35.2hPa | 2.5V | 02:40:07 | 02:38:45 | 00:00:00 | |
| BIOWL1-15 | 2026-09-03 19:08:47 | 49.06087 | 8.62778 | 209° | 7km/h | 23235m | -19.7m/s | -53.4°C | 0% | 35.6hPa | 2.6V | 02:40:46 | 02:38:48 | 00:00:00 | |
| DK7TD | 2026-09-03 19:08:42 | 49.06093 | 8.62783 | 201° | 9km/h | 23296m | -20m/s | -53.2°C | 0% | 35.2hPa | 2.5V | 02:40:46 | 02:38:45 | 00:00:00 | |
| DF1GD-15 | 2026-09-03 19:08:41 | 49.06093 | 8.62783 | 201° | 9km/h | 23296m | -20.0m/s | -53.2°C | 0.8% | 35.2hPa | 2.5V | 02:40:00 | 00:00:00 | 00:00:00 | |
| DM0DOS-11 | 2026-09-03 19:08:40 | 49.06112 | 8.62796 | 194° | 13km/h | 23425m | -15.7m/s | -52.8°C | 3.7% | 34.5hPa | 2.5V | 02:40:14 | 02:38:38 | 00:00:00 | |
| DL1XH-west | 2026-09-03 19:08:38 | 49.06103 | 8.62790 | 205° | 11km/h | 23371m | -18.1m/s | -52.7°C | 0% | 34.8hPa | 2.6V | 02:40:46 | 02:38:41 | 00:00:00 | |
| DL1XH1-15 | 2026-09-03 19:08:37 | 49.06123 | 8.62798 | 187° | 16km/h | 23484m | -19.8m/s | -52.9°C | 3.7% | 34.2hPa | 2.6V | 02:40:17 | 02:38:35 | 00:00:00 | |
| BIOWL1-15 | 2026-09-03 19:08:34 | 49.06115 | 8.62797 | 187° | 15km/h | 23443m | -20m/s | -52.8°C | 0% | 34.5hPa | 2.5V | 02:40:46 | 02:38:37 | 00:00:00 | |
| DK7TD | 2026-09-03 19:08:31 | 49.06128 | 8.62799 | 191° | 16km/h | 23503m | -16.6m/s | -53°C | 0% | 34.1hPa | 2.6V | 02:40:46 | 02:38:34 | 00:00:00 | |
| DM0DOS-11 | 2026-09-03 19:08:30 | 49.06147 | 8.62825 | 250° | 18km/h | 23618m | -21.4m/s | -52.6°C | 3.6% | 33.5hPa | 2.6V | 02:40:24 | 02:38:28 | 00:00:00 | |
| DL1XH-west | 2026-09-03 19:08:28 | 49.06139 | 8.62808 | 219° | 16km/h | 23556m | -17.8m/s | -52.7°C | 0% | 33.9hPa | 2.5V | 02:40:46 | 02:38:31 | 00:00:00 | |
| BIOWL1-15 | 2026-09-03 19:08:26 | 49.06148 | 8.62832 | 254° | 18km/h | 23638m | -19.7m/s | -52.6°C | 0% | 33.4hPa | 2.6V | 02:40:46 | 02:38:27 | 00:00:00 | |
| DK7TD | 2026-09-03 19:08:20 | 49.06151 | 8.62854 | 282° | 9km/h | 23721m | -22.2m/s | -52.4°C | 0% | 33hPa | 2.5V | 02:40:46 | 02:38:23 | 00:00:00 | |
| DB0UT-7 | 2026-09-03 19:08:20 | 49.06151 | 8.62854 | 283° | 13km/h | 23721m | -22.1m/s | -52.4°C | 3.6% | 33.0hPa | 2.5V | 02:40:00 | 00:00:00 | 00:00:00 | |
| EDDB2-12 | 2026-09-03 19:08:19 | 49.06151 | 8.62857 | 287° | 5km/h | 23743m | -21.1m/s | -52.4°C | 0.6% | 32.9hPa | 2.6V | 00:00:00 | 00:00:00 | 00:00:00 | |
| DL1XH1-15 | 2026-09-03 19:08:17 | 49.06139 | 8.62857 | 17° | 11km/h | 23883m | -19.7m/s | -52°C | 3.4% | 32.2hPa | 2.6V | 02:40:37 | 02:38:15 | 00:00:00 | |
| DL1XH-west | 2026-09-03 19:08:17 | 49.06149 | 8.62860 | 352° | 5km/h | 23786m | -21.9m/s | -52.3°C | 0% | 32.7hPa | 2.6V | 02:40:46 | 02:38:20 | 00:00:00 | |
| DO1YAY-16 | 2026-09-03 19:08:17 | 49.06148 | 8.62860 | 0° | 7km/h | 23807m | -19.7m/s | -52.3°C | 0.7% | 32.6hPa | 2.5V | 00:00:00 | 00:00:00 | 00:00:00 | |
| CB1BUN | 2026-09-03 19:08:16 | 49.06148 | 8.62860 | 1° | 9km/h | 23807m | -19.7m/s | -52.3°C | 0.7% | 32.6hPa | 2.5V | 02:40:00 | 00:00:00 | 00:00:00 | |
| HEMX73-11 | 2026-09-03 19:08:15 | 49.06148 | 8.62860 | 1° | 9km/h | 23807m | -19.7m/s | -52.3°C | 0.7% | 32.6hPa | 2.5V | 02:40:00 | 00:00:00 | 00:00:00 | |
| IW2NTF | 2026-09-03 19:08:14 | 49.06132 | 8.62850 | 47° | 13km/h | 23943m | -17.2m/s | -52.1°C | 3.5% | 31.9hPa | 2.5V | 02:40:40 | 02:38:12 | 00:00:00 | |
| BIOWL1-15 | 2026-09-03 19:08:13 | 49.06141 | 8.62858 | 16° | 11km/h | 23863m | -19.5m/s | -51.9°C | 0% | 32.3hPa | 2.5V | 02:40:46 | 02:38:16 | 00:00:00 | |
| DJ2DS-15 | 2026-09-03 19:08:12 | 49.06139 | 8.62857 | 18° | 16km/h | 23884m | -19.7m/s | -51.9°C | 3.4% | 32.1hPa | 2.6V | 02:40:00 | 02:38:15 | 00:00:00 | |
| DM0DOS-11 | 2026-09-03 19:08:10 | 49.06123 | 8.62826 | 73° | 22km/h | 24018m | -21.9m/s | -52.3°C | 3.5% | 31.5hPa | 2.6V | 02:40:44 | 02:38:08 | 00:00:00 | |
| DK7TD | 2026-09-03 19:08:10 | 49.06134 | 8.62853 | 33° | 11km/h | 23924m | -20.3m/s | -52.1°C | 0% | 32hPa | 2.6V | 02:40:46 | 02:38:13 | 00:00:00 | |
| DK5PH-5 | 2026-09-03 19:08:10 | 49.06134 | 8.62853 | 34° | 15km/h | 23924m | -20.2m/s | -52.0°C | 3.4% | 31.9hPa | 2.6V | 02:40:00 | 02:38:13 | 00:00:00 | |
| OE5DRO-10 | 2026-09-03 19:08:09 | 49.06132 | 8.62850 | 48° | 15km/h | 23944m | -17.1m/s | -52.1°C | 3.5% | 31.8hPa | 2.5V | 00:00:00 | 00:00:00 | 00:00:00 | |
| DM7RM-13 | 2026-09-03 19:08:08 | 49.06132 | 8.62850 | 48° | 13km/h | 23944m | -17.2m/s | -52.1°C | 0.7% | 31.9hPa | 2.5V | 02:40:00 | 00:00:00 | 00:00:00 | |
| DL1XH1-15 | 2026-09-03 19:08:07 | 49.06120 | 8.62800 | 84° | 22km/h | 24080m | -20.5m/s | -52.2°C | 3.5% | 31.2hPa | 2.5V | 02:40:47 | 02:38:05 | 00:00:00 | |
| DL1XH-west | 2026-09-03 19:08:06 | 49.06125 | 8.62834 | 65° | 22km/h | 23997m | -19.4m/s | -52.2°C | 0% | 31.6hPa | 2.5V | 02:40:46 | 02:38:09 | 00:00:00 | |
| DL4BBY-15 | 2026-09-03 19:08:06 | 49.06125 | 8.62834 | 66° | 20km/h | 23998m | -19.4m/s | -52.6°C | 0% | 0hPa | 2.5V | 00:00:00 | 00:00:00 | 00:00:00 | |
| IW2NTF | 2026-09-03 19:08:04 | 49.06120 | 8.62777 | 99° | 18km/h | 24139m | -19.6m/s | -52.2°C | 3.5% | 30.9hPa | 2.5V | 02:40:50 | 02:38:02 | 00:00:00 | |
| BIOWL1-15 | 2026-09-03 19:08:03 | 49.06120 | 8.62809 | 83° | 24km/h | 24059m | -21.5m/s | -52.3°C | 0% | 31.3hPa | 2.6V | 02:40:46 | 02:38:06 | 00:00:00 | |
| NBG1-10 | 2026-09-03 19:08:02 | 49.06120 | 8.62800 | 85° | 11km/h | 24081m | -20.4m/s | -52.2°C | 3.5% | 31.1hPa | 2.5V | 00:00:00 | 02:38:05 | 00:00:00 | |
| DM0DOS-11 | 2026-09-03 19:08:00 | 49.06125 | 8.62758 | 122° | 9km/h | 24217m | -19.3m/s | -52.2°C | 3.5% | 30.6hPa | 2.5V | 02:40:54 | 02:37:58 | 00:00:00 | |
| DK7TD | 2026-09-03 19:07:59 | 49.06120 | 8.62777 | 100° | 18km/h | 24139m | -19.6m/s | -52.2°C | 0% | 30.9hPa | 2.5V | 02:41:37 | 02:38:02 | 00:00:00 | |
| BIOWL9-15 | 2026-09-03 19:07:58 | 49.06122 | 8.62765 | 114° | 13km/h | 24179m | -20.2m/s | -52.2°C | 0.6% | 30.7hPa | 2.5V | 00:00:00 | 00:00:00 | 00:00:00 | |
| DL1XH1-15 | 2026-09-03 19:07:57 | 49.06129 | 8.62753 | 168° | 7km/h | 24282m | -21.9m/s | -52.5°C | 3.5% | 30.3hPa | 2.5V | 02:40:57 | 02:37:55 | 00:00:00 | |
| DL1XH-west | 2026-09-03 19:07:55 | 49.06125 | 8.62758 | 122° | 9km/h | 24217m | -19.3m/s | -52.2°C | 0% | 30.6hPa | 2.5V | 02:41:37 | 02:37:58 | 00:00:00 | |
| BIOWL1-15 | 2026-09-03 19:07:52 | 49.06130 | 8.62753 | 168° | 7km/h | 24282m | -21.9m/s | -52.5°C | 0% | 30.3hPa | 2.5V | 02:41:37 | 02:37:55 | 00:00:00 | |
| DJ2DS-15 | 2026-09-03 19:07:52 | 49.06130 | 8.62753 | 169° | 22km/h | 24283m | -21.9m/s | -52.5°C | 3.5% | 30.2hPa | 2.5V | 00:00:00 | 02:37:55 | 00:00:00 | |
| DM0DOS-11 | 2026-09-03 19:07:50 | 49.06144 | 8.62743 | 123° | 11km/h | 24425m | -19.9m/s | -52.5°C | 3.6% | 29.6hPa | 2.5V | 02:41:04 | 02:37:48 | 00:00:00 | |
| DK7TD | 2026-09-03 19:07:48 | 49.06138 | 8.62749 | 166° | 9km/h | 24363m | -21m/s | -52.6°C | 0% | 29.9hPa | 2.5V | 02:41:37 | 02:37:51 | 00:00:00 | |
| DL1XH-west | 2026-09-03 19:07:45 | 49.06144 | 8.62743 | 124° | 11km/h | 24425m | -19.9m/s | -52.5°C | 0% | 29.6hPa | 2.5V | 02:41:37 | 02:37:48 | 00:00:00 | |
| BIOWL1-15 | 2026-09-03 19:07:42 | 49.06149 | 8.62725 | 110° | 24km/h | 24487m | -21m/s | -52.8°C | 0% | 29.3hPa | 2.6V | 02:41:37 | 02:37:45 | 00:00:00 | |
| DO1YAY-16 | 2026-09-03 19:07:41 | 49.06153 | 8.62704 | 107° | 31km/h | 24532m | -22.4m/s | -52.7°C | 0.6% | 29.1hPa | 2.6V | 00:00:00 | 00:00:00 | 00:00:00 | |
| DM0DOS-11 | 2026-09-03 19:07:40 | 49.06173 | 8.62644 | 125° | 37km/h | 24632m | -19.9m/s | -52.6°C | 3.7% | 28.6hPa | 2.6V | 02:41:14 | 02:37:38 | 00:00:00 | |
| DK7TD | 2026-09-03 19:07:38 | 49.06159 | 8.62680 | 112° | 35km/h | 24573m | -19.5m/s | -52.6°C | 0% | 28.9hPa | 2.5V | 02:41:37 | 02:37:41 | 00:00:00 | |
| DL1XH-west | 2026-09-03 19:07:34 | 49.06178 | 8.62633 | 129° | 35km/h | 24652m | -20.1m/s | -52.7°C | 0% | 28.6hPa | 2.5V | 02:41:37 | 02:37:37 | 00:00:00 | |
| BIOWL1-15 | 2026-09-03 19:07:34 | 49.06189 | 8.62616 | 136° | 27km/h | 24693m | -19.6m/s | -52.6°C | 0% | 28.4hPa | 2.5V | 02:41:37 | 02:37:35 | 00:00:00 | |
| DO3MHA-11 | 2026-09-03 19:07:34 | 49.06178 | 8.62633 | 130° | 22km/h | 24653m | -20.1m/s | -52.6°C | 3.6% | 28.5hPa | 2.6V | 00:00:00 | 02:37:37 | 00:00:00 | |
| DJ2DS-15 | 2026-09-03 19:07:32 | 49.06189 | 8.62616 | 136° | 20km/h | 24693m | -19.6m/s | -52.6°C | 3.6% | 28.3hPa | 2.6V | 00:00:00 | 02:37:35 | 00:00:00 | |
| DF3TZ-5 | 2026-09-03 19:07:31 | 49.06193 | 8.62609 | 138° | 22km/h | 24714m | -22.6m/s | -52.6°C | 0.6% | 28.3hPa | 2.6V | 00:00:00 | 00:00:00 | 00:00:00 | |
| DM0DOS-11 | 2026-09-03 19:07:30 | 49.06216 | 8.62587 | 154° | 20km/h | 24838m | -20.7m/s | -52.2°C | 3.5% | 27.7hPa | 2.6V | 02:41:24 | 02:37:28 | 00:00:00 | |
| DK7TD | 2026-09-03 19:07:27 | 49.06208 | 8.62593 | 154° | 16km/h | 24798m | -20.4m/s | -52.3°C | 0% | 27.9hPa | 2.5V | 02:41:37 | 02:37:30 | 00:00:00 | |
| DL1XH-west | 2026-09-03 19:07:23 | 49.06226 | 8.62580 | 157° | 22km/h | 24878m | -18.1m/s | -52°C | 0% | 27.6hPa | 2.5V | 02:41:37 | 02:37:26 | 00:00:00 | |
| BIOWL1-15 | 2026-09-03 19:07:21 | 49.06237 | 8.62575 | 165° | 24km/h | 24911m | -16.3m/s | -51.9°C | 0% | 27.4hPa | 2.6V | 02:41:37 | 02:37:24 | 00:00:00 | |
| DM0DOS-11 | 2026-09-03 19:07:20 | 49.06268 | 8.62576 | 204° | 13km/h | 25029m | -21.1m/s | -51.9°C | 3.4% | 26.9hPa | 2.5V | 02:41:34 | 02:37:18 | 00:00:00 | |
| DK7TD | 2026-09-03 19:07:17 | 49.06259 | 8.62572 | 188° | 20km/h | 24988m | -20.2m/s | -51.9°C | 0% | 27.1hPa | 2.5V | 02:41:37 | 02:37:20 | 00:00:00 | |
| DL0LBS | 2026-09-03 19:07:15 | 49.06264 | 8.62574 | 195° | 16km/h | 25009m | -20.6m/s | -51.9°C | 0.6% | 27.0hPa | 2.6V | 02:41:00 | 00:00:00 | 00:00:00 | |
| DO3MHA-11 | 2026-09-03 19:07:14 | 49.06270 | 8.62578 | 216° | 9km/h | 25051m | -21.8m/s | -51.8°C | 3.4% | 26.8hPa | 2.6V | 02:41:00 | 02:37:17 | 00:00:00 | |
| HEMX73-11 | 2026-09-03 19:07:13 | 49.06270 | 8.62578 | 217° | 11km/h | 25051m | -21.9m/s | -51.8°C | 0.6% | 26.9hPa | 2.6V | 02:41:00 | 00:00:00 | 00:00:00 | |
| IW2NTF | 2026-09-03 19:07:12 | 49.06281 | 8.62589 | 190° | 11km/h | 25201m | -23.1m/s | -51.9°C | 3.5% | 26.2hPa | 2.6V | 02:41:42 | 02:37:10 | 00:00:00 | |
| DL1XH-west | 2026-09-03 19:07:12 | 49.06273 | 8.62583 | 239° | 7km/h | 25093m | -19.1m/s | -51.8°C | 0% | 26.7hPa | 2.6V | 02:41:37 | 02:37:15 | 00:00:00 | |
| BIOWL1-15 | 2026-09-03 19:07:11 | 49.06274 | 8.62585 | 235° | 5km/h | 25113m | -20.2m/s | -51.8°C | 0% | 26.6hPa | 2.5V | 02:42:28 | 02:37:14 | 00:00:00 | |
| DM0DOS-11 | 2026-09-03 19:07:10 | 49.06286 | 8.62591 | 191° | 9km/h | 25244m | -21.3m/s | -52°C | 3.5% | 26.1hPa | 2.6V | 02:41:44 | 02:37:08 | 00:00:00 | |
| DK7TD | 2026-09-03 19:07:07 | 49.06281 | 8.62589 | 191° | 11km/h | 25201m | -23.1m/s | -51.9°C | 0% | 26.2hPa | 2.6V | 02:42:28 | 02:37:10 | 00:00:00 | |
| DL1ZP-14 | 2026-09-03 19:07:06 | 49.06284 | 8.62590 | 193° | 9km/h | 25223m | -19.7m/s | -52.0°C | 0.6% | 26.1hPa | 2.6V | 00:00:00 | 00:00:00 | 00:00:00 | |
| DL4BBY-15 | 2026-09-03 19:07:05 | 49.06286 | 8.62591 | 192° | 11km/h | 25244m | -21.2m/s | -52.4°C | 0% | 0hPa | 2.5V | 00:00:00 | 00:00:00 | 00:00:00 | |
| DO3MHA-11 | 2026-09-03 19:07:04 | 49.06288 | 8.62591 | 190° | 5km/h | 25264m | -19.6m/s | -52.0°C | 3.5% | 25.9hPa | 2.5V | 00:00:00 | 02:37:07 | 00:00:00 | |
| DL1XH1-15 | 2026-09-03 19:07:03 | 49.06293 | 8.62592 | 60° | 2km/h | 25381m | -20.3m/s | -52.1°C | 3.6% | 25.5hPa | 2.5V | 02:41:51 | 02:37:01 | 00:00:00 | |
| DL1XH-west | 2026-09-03 19:07:02 | 49.06292 | 8.62592 | 188° | 4km/h | 25303m | -19.9m/s | -52°C | 0% | 25.8hPa | 2.5V | 02:42:28 | 02:37:05 | 00:00:00 | |
| BIOWL1-15 | 2026-09-03 19:07:00 | 49.06293 | 8.62593 | 197° | 2km/h | 25342m | -16.6m/s | -52.1°C | 0% | 25.6hPa | 2.6V | 02:42:28 | 02:37:03 | 00:00:00 | |
| DK7TD | 2026-09-03 19:06:56 | 49.06293 | 8.62590 | 111° | 5km/h | 25423m | -21m/s | -52.2°C | 0% | 25.3hPa | 2.6V | 02:42:28 | 02:36:59 | 00:00:00 | |
| BIOWL9-15 | 2026-09-03 19:06:56 | 49.06294 | 8.62587 | 133° | 7km/h | 25444m | -20.8m/s | -52.2°C | 0.6% | 25.3hPa | 2.5V | 00:00:00 | 00:00:00 | 00:00:00 | |
| DO8TBO-1 | 2026-09-03 19:06:55 | 49.06294 | 8.62587 | 134° | 13km/h | 25444m | -20.7m/s | -52.2°C | 3.6% | 25.2hPa | 2.5V | 00:00:00 | 02:36:58 | 00:00:00 | |
| DO3MHA-11 | 2026-09-03 19:06:54 | 49.06296 | 8.62584 | 142° | 16km/h | 25465m | -21.2m/s | -52.2°C | 3.6% | 25.1hPa | 2.5V | 00:00:00 | 02:36:57 | 00:00:00 | |
| DL1XH1-15 | 2026-09-03 19:06:53 | 49.06319 | 8.62562 | 139° | 18km/h | 25590m | -21m/s | -52.2°C | 3.7% | 24.7hPa | 2.5V | 02:42:01 | 02:36:51 | 00:00:00 | |
| DL1XH-west | 2026-09-03 19:06:52 | 49.06303 | 8.62578 | 150° | 18km/h | 25508m | -20.3m/s | -52.2°C | 0% | 25hPa | 2.6V | 02:42:28 | 02:36:55 | 00:00:00 | |
| BIOWL1-15 | 2026-09-03 19:06:52 | 49.06311 | 8.62571 | 144° | 20km/h | 25549m | -21.8m/s | -52.3°C | 0% | 24.9hPa | 2.5V | 02:42:28 | 02:36:53 | 00:00:00 | |
| DK7TD | 2026-09-03 19:06:46 | 49.06325 | 8.62555 | 143° | 13km/h | 25631m | -20.7m/s | -51.8°C | 0% | 24.5hPa | 2.6V | 02:42:28 | 02:36:49 | 00:00:00 | |
| DJ2DS-15 | 2026-09-03 19:06:46 | 49.06325 | 8.62555 | 142° | 11km/h | 25632m | -20.7m/s | -51.8°C | 0.6% | 24.5hPa | 2.5V | 00:00:00 | 00:00:00 | 00:00:00 | |
| AZAK | 2026-09-03 19:06:45 | 49.06325 | 8.62555 | 144° | 13km/h | 25632m | -20.7m/s | -51.8°C | 0.6% | 24.5hPa | 2.5V | 02:42:00 | 00:00:00 | 00:00:00 | |
| DO3MHA-11 | 2026-09-03 19:06:44 | 49.06329 | 8.62550 | 149° | 13km/h | 25673m | -19.8m/s | -51.8°C | 3.8% | 24.3hPa | 2.5V | 02:42:00 | 02:36:47 | 00:00:00 | |
| DL1XH1-15 | 2026-09-03 19:06:43 | 49.06344 | 8.62539 | 145° | 16km/h | 25804m | -23.8m/s | -51.5°C | 3.7% | 23.9hPa | 2.5V | 02:42:11 | 02:36:41 | 00:00:00 | |
| DL1XH-west | 2026-09-03 19:06:41 | 49.06336 | 8.62546 | 158° | 9km/h | 25734m | -18.9m/s | -51.7°C | 0% | 24.1hPa | 2.6V | 02:42:28 | 02:36:44 | 00:00:00 | |
| DM0DOS-11 | 2026-09-03 19:06:40 | 49.06353 | 8.62530 | 147° | 13km/h | 25876m | -25.6m/s | -50.9°C | 3.5% | 23.6hPa | 2.6V | 02:42:14 | 02:36:38 | 00:00:00 | |
| BIOWL1-15 | 2026-09-03 19:06:39 | 49.06341 | 8.62542 | 153° | 15km/h | 25780m | -25.3m/s | -51.7°C | 0% | 24hPa | 2.5V | 02:42:28 | 02:36:42 | 00:00:00 | |
| DK7TD | 2026-09-03 19:06:36 | 49.06350 | 8.62533 | 147° | 16km/h | 25852m | -23.7m/s | -51.1°C | 0% | 23.7hPa | 2.5V | 02:42:28 | 02:36:39 | 00:00:00 | |
| DL4BBY-15 | 2026-09-03 19:06:35 | 49.06353 | 8.62530 | 148° | 18km/h | 25876m | -25.6m/s | -51.3°C | 0% | 0hPa | 2.6V | 00:00:00 | 00:00:00 | 00:00:00 | |
| DO3MHA-11 | 2026-09-03 19:06:34 | 49.06356 | 8.62527 | 150° | 22km/h | 25902m | -24.4m/s | -50.8°C | 3.5% | 23.5hPa | 2.6V | 00:00:00 | 02:36:37 | 00:00:00 | |
| DL1XH1-15 | 2026-09-03 19:06:33 | 49.06385 | 8.62516 | 172° | 27km/h | 26047m | -22.8m/s | -49.7°C | 3.2% | 23hPa | 2.6V | 02:42:21 | 02:36:31 | 00:00:00 | |
| DL1XH-west | 2026-09-03 19:06:31 | 49.06368 | 8.62521 | 163° | 18km/h | 25973m | -24.7m/s | -50.6°C | 0% | 23.3hPa | 2.5V | 02:42:28 | 02:36:34 | 00:00:00 | |
| DL8DAS-14 | 2026-09-03 19:06:31 | 49.06373 | 8.62519 | 168° | 22km/h | 25998m | -25.0m/s | -50.3°C | 0.6% | 23.2hPa | 2.5V | 00:00:00 | 00:00:00 | 00:00:00 | |
| DM0DOS-11 | 2026-09-03 19:06:30 | 49.06405 | 8.62511 | 170° | 26km/h | 26118m | -24.2m/s | -49.2°C | 3.1% | 22.8hPa | 2.5V | 02:42:24 | 02:36:28 | 00:00:00 | |
| BIOWL1-15 | 2026-09-03 19:06:29 | 49.06379 | 8.62517 | 170° | 26km/h | 26023m | -25.3m/s | -50°C | 0% | 23.1hPa | 2.6V | 02:42:28 | 02:36:32 | 00:00:00 | |
| DK7TD | 2026-09-03 19:06:25 | 49.06405 | 8.62511 | 170° | 26km/h | 26118m | -24.2m/s | -49.2°C | 0% | 22.8hPa | 2.5V | 02:42:28 | 02:36:28 | 00:00:00 | |
| DJ2KF-10 | 2026-09-03 19:06:24 | 49.06411 | 8.62509 | 166° | 16km/h | 26143m | -25.2m/s | -49.1°C | 3.1% | 22.6hPa | 2.5V | 00:00:00 | 02:36:27 | 00:00:00 | |
| DL1XH1-15 | 2026-09-03 19:06:23 | 49.06427 | 8.62495 | 145° | 7km/h | 26294m | -24.3m/s | -48.8°C | 3.1% | 22.1hPa | 2.5V | 02:42:31 | 02:36:21 | 00:00:00 | |
| DL1XH-west | 2026-09-03 19:06:21 | 49.06422 | 8.62502 | 141° | 13km/h | 26220m | -24.8m/s | -48.9°C | 0% | 22.4hPa | 2.5V | 02:42:28 | 02:36:24 | 00:00:00 | |
| DM0DOS-11 | 2026-09-03 19:06:20 | 49.06433 | 8.62491 | 168° | 13km/h | 26366m | -24.9m/s | -48.7°C | 3% | 21.9hPa | 2.6V | 02:42:34 | 02:36:18 | 00:00:00 | |
| DK7TD | 2026-09-03 19:06:14 | 49.06437 | 8.62490 | 165° | 15km/h | 26390m | -24.6m/s | -48.6°C | 0% | 21.8hPa | 2.6V | 02:43:19 | 02:36:17 | 00:00:00 | |
| DO3MHA-11 | 2026-09-03 19:06:14 | 49.06436 | 8.62490 | 165° | 22km/h | 26391m | -24.6m/s | -48.6°C | 3.0% | 21.8hPa | 2.6V | 02:42:00 | 02:36:17 | 00:00:00 | |
| DL1XH1-15 | 2026-09-03 19:06:13 | 49.06467 | 8.62476 | 167° | 26km/h | 26543m | -24.5m/s | -48.4°C | 3% | 21.3hPa | 2.5V | 02:42:41 | 02:36:11 | 00:00:00 | |
| NBG1-10 | 2026-09-03 19:06:13 | 49.06440 | 8.62488 | 164° | 24km/h | 26417m | -27.2m/s | -48.5°C | 3.0% | 21.7hPa | 2.5V | 00:00:00 | 02:36:16 | 00:00:00 | |
| DJ2DS-15 | 2026-09-03 19:06:12 | 49.06445 | 8.62486 | 163° | 22km/h | 26444m | -27.5m/s | -48.5°C | 3.0% | 21.6hPa | 2.5V | 02:42:00 | 02:36:15 | 00:00:00 | |
| DM0DOS-11 | 2026-09-03 19:06:10 | 49.06485 | 8.62472 | 175° | 22km/h | 26614m | -24.1m/s | -48.3°C | 2.9% | 21.1hPa | 2.6V | 02:42:44 | 02:36:08 | 00:00:00 | |
| DL1XH-west | 2026-09-03 19:06:10 | 49.06455 | 8.62481 | 163° | 24km/h | 26496m | -24.9m/s | -48.6°C | 0% | 21.5hPa | 2.6V | 02:43:19 | 02:36:13 | 00:00:00 | |
| BIOWL1-15 | 2026-09-03 19:06:10 | 49.06467 | 8.62476 | 167° | 26km/h | 26544m | -24.5m/s | -48.4°C | 0% | 21.3hPa | 2.5V | 02:43:19 | 02:36:11 | 00:00:00 | |
| OE5DXL-15 | 2026-09-03 19:06:10 | 49.06455 | 8.62481 | 163° | 22km/h | 26496m | -24.9m/s | 0°C | 0% | 0hPa | 2.5V | 02:42:00 | 00:00:00 | 00:00:00 | |
| HEMX73-11 | 2026-09-03 19:06:08 | 49.06461 | 8.62478 | 166° | 26km/h | 26520m | -22.5m/s | -48.5°C | 0.5% | 21.4hPa | 2.5V | 02:43:00 | 00:00:00 | 00:00:00 | |
| IW2NTF | 2026-09-03 19:06:07 | 49.06499 | 8.62473 | 191° | 16km/h | 26683m | -23.5m/s | -48.2°C | 2.9% | 20.9hPa | 2.5V | 02:42:47 | 02:36:05 | 00:00:00 | |
| DL4BBY-15 | 2026-09-03 19:06:05 | 49.06486 | 8.62472 | 176° | 24km/h | 26614m | -24.1m/s | -48.7°C | 0% | 0hPa | 2.5V | 00:00:00 | 00:00:00 | 00:00:00 | |
| DL1ZP-14 | 2026-09-03 19:06:04 | 49.06491 | 8.62471 | 177° | 18km/h | 26638m | -23.1m/s | -48.3°C | 0.5% | 21.0hPa | 2.5V | 00:00:00 | 00:00:00 | 00:00:00 | |
| DL1XH1-15 | 2026-09-03 19:06:03 | 49.06516 | 8.62474 | 175° | 18km/h | 26784m | -24.7m/s | -48°C | 2.9% | 20.5hPa | 2.5V | 02:42:51 | 02:36:01 | 00:00:00 | |
| DK7TD | 2026-09-03 19:06:01 | 49.06503 | 8.62474 | 186° | 16km/h | 26707m | -25.2m/s | -48.2°C | 0% | 20.8hPa | 2.6V | 02:43:19 | 02:36:04 | 00:00:00 | |
| DL1XH-west | 2026-09-03 19:06:00 | 49.06507 | 8.62474 | 182° | 16km/h | 26732m | -24.9m/s | -48.2°C | 0% | 20.7hPa | 2.6V | 02:43:19 | 02:36:03 | 00:00:00 | |
| BIOWL1-15 | 2026-09-03 19:05:58 | 49.06516 | 8.62474 | 176° | 18km/h | 26784m | -24.7m/s | -48°C | 0% | 20.5hPa | 2.5V | 02:43:19 | 02:36:01 | 00:00:00 | |
| DF7PN | 2026-09-03 19:05:56 | 49.06526 | 8.62472 | 165° | 20km/h | 26832m | -23.7m/s | -47.7°C | 0.4% | 20.4hPa | 2.6V | 00:00:00 | 00:00:00 | 00:00:00 | |
| DF1GD-15 | 2026-09-03 19:05:55 | 49.06526 | 8.62472 | 167° | 22km/h | 26833m | -23.7m/s | -47.7°C | 0.5% | 20.4hPa | 2.6V | 02:43:00 | 00:00:00 | 00:00:00 | |
| DJ2KF-10 | 2026-09-03 19:05:54 | 49.06537 | 8.62469 | 174° | 18km/h | 26878m | -22.0m/s | -47.5°C | 2.7% | 20.2hPa | 2.6V | 00:00:00 | 02:35:57 | 00:00:00 | |
| DL1XH1-15 | 2026-09-03 19:05:53 | 49.06576 | 8.62492 | 216° | 35km/h | 27015m | -24.1m/s | -47.4°C | 2.7% | 19.9hPa | 2.6V | 02:43:01 | 02:35:51 | 00:00:00 | |
| DL1XH-15 | 2026-09-03 19:05:52 | 49.06582 | 8.62501 | 221° | 35km/h | 27039m | -24m/s | -47.5°C | 2.7% | 19.8hPa | 2.6V | 02:43:02 | 02:35:50 | 00:00:00 | |
| DL1XH-west | 2026-09-03 19:05:50 | 49.06562 | 8.62478 | 210° | 29km/h | 26966m | -23.9m/s | -47.3°C | 0% | 20hPa | 2.5V | 02:43:19 | 02:35:53 | 00:00:00 | |
| BIOWL1-15 | 2026-09-03 19:05:47 | 49.06582 | 8.62501 | 221° | 35km/h | 27039m | -24m/s | -47.5°C | 0% | 19.8hPa | 2.6V | 02:43:19 | 02:35:50 | 00:00:00 | |
| AU51GT2 | 2026-09-03 19:05:46 | 49.06595 | 8.62517 | 221° | 29km/h | 27093m | -27.3m/s | -47.7°C | 0.4% | 19.7hPa | 2.5V | 00:00:00 | 00:00:00 | 00:00:00 | |
| DM7RM-13 | 2026-09-03 19:05:45 | 49.06589 | 8.62509 | 219° | 33km/h | 27066m | -27.4m/s | -47.6°C | 0.5% | 19.7hPa | 2.5V | 02:43:00 | 00:00:00 | 00:00:00 | |
| DO3MHA-11 | 2026-09-03 19:05:44 | 49.06601 | 8.62523 | 215° | 22km/h | 27120m | -27.4m/s | -47.8°C | 2.8% | 19.5hPa | 2.5V | 02:43:00 | 02:35:47 | 00:00:00 | |
| DL1XH1-15 | 2026-09-03 19:05:43 | 49.06626 | 8.62557 | 243° | 20km/h | 27270m | -25.2m/s | -47.9°C | 2.9% | 19.1hPa | 2.5V | 02:43:11 | 02:35:41 | 00:00:00 | |
| AZAK | 2026-09-03 19:05:41 | 49.06611 | 8.62534 | 216° | 24km/h | 27171m | -23.2m/s | -47.8°C | 0.4% | 19.4hPa | 2.6V | 02:43:00 | 00:00:00 | 00:00:00 | |
| DM0DOS-11 | 2026-09-03 19:05:40 | 49.06628 | 8.62579 | 275° | 20km/h | 27341m | -25.9m/s | -48°C | 2.9% | 18.9hPa | 2.6V | 02:43:14 | 02:35:38 | 00:00:00 | |
| DL1XH-west | 2026-09-03 19:05:39 | 49.06623 | 8.62550 | 239° | 18km/h | 27245m | -26.2m/s | -47.8°C | 0% | 19.2hPa | 2.5V | 02:43:19 | 02:35:42 | 00:00:00 | |
| BIOWL1-15 | 2026-09-03 19:05:37 | 49.06627 | 8.62564 | 256° | 18km/h | 27295m | -22.8m/s | -48°C | 0% | 19hPa | 2.5V | 02:43:19 | 02:35:40 | 00:00:00 | |
| DK7TD | 2026-09-03 19:05:36 | 49.06628 | 8.62571 | 267° | 20km/h | 27317m | -22.5m/s | -48°C | 0% | 18.9hPa | 2.6V | 02:43:19 | 02:35:39 | 00:00:00 | |
| DL4BBY-15 | 2026-09-03 19:05:35 | 49.06627 | 8.62579 | 276° | 13km/h | 27341m | -25.9m/s | -48.4°C | 0% | 0hPa | 2.5V | 00:00:00 | 00:00:00 | 00:00:00 | |
| DO3MHA-11 | 2026-09-03 19:05:34 | 49.06627 | 8.62585 | 285° | 5km/h | 27367m | -26.1m/s | -48.1°C | 3.0% | 18.8hPa | 2.5V | 00:00:00 | 02:35:37 | 00:00:00 | |
| DL1XH1-15 | 2026-09-03 19:05:33 | 49.06625 | 8.62598 | 129° | 2km/h | 27521m | -25m/s | -48°C | 3% | 18.4hPa | 2.5V | 02:43:21 | 02:35:31 | 00:00:00 | |
| DJ2DS-15 | 2026-09-03 19:05:32 | 49.06625 | 8.62595 | 300° | 5km/h | 27419m | -26.3m/s | -48.3°C | 3.0% | 18.6hPa | 2.6V | 00:00:00 | 02:35:35 | 00:00:00 | |
| DM0DOS-11 | 2026-09-03 19:05:30 | 49.06626 | 8.62599 | 244° | 4km/h | 27604m | -27m/s | -47.6°C | 2.9% | 18.2hPa | 2.6V | 02:43:24 | 02:35:28 | 00:00:00 | |
| DL1XH-west | 2026-09-03 19:05:29 | 49.06625 | 8.62598 | 144° | 2km/h | 27497m | -23.6m/s | -48.2°C | 0% | 18.4hPa | 2.6V | 02:44:10 | 02:35:32 | 00:00:00 | |
| DL8DAS-14 | 2026-09-03 19:05:28 | 49.06625 | 8.62598 | 129° | 0km/h | 27521m | -25.0m/s | -48.0°C | 0.5% | 18.4hPa | 2.5V | 00:00:00 | 00:00:00 | 00:00:00 | |
| DL1XH-15 | 2026-09-03 19:05:27 | 49.06628 | 8.62605 | 225° | 5km/h | 27678m | -23.8m/s | -47.4°C | 2.8% | 17.9hPa | 2.5V | 02:43:27 | 02:35:25 | 00:00:00 | |
| DK7TD | 2026-09-03 19:05:26 | 49.06626 | 8.62598 | 233° | 2km/h | 27576m | -27.5m/s | -47.8°C | 0% | 18.3hPa | 2.5V | 02:44:10 | 02:35:29 | 00:00:00 | |
| DF7PN | 2026-09-03 19:05:25 | 49.06627 | 8.62601 | 248° | 4km/h | 27630m | -24.9m/s | -47.6°C | 0.4% | 18.1hPa | 2.6V | 00:00:00 | 00:00:00 | 00:00:00 | |
| DO3MHA-11 | 2026-09-03 19:05:24 | 49.06627 | 8.62601 | 249° | 7km/h | 27630m | -24.8m/s | -47.6°C | 2.9% | 18.0hPa | 2.6V | 00:00:00 | 02:35:27 | 00:00:00 | |
| DL1XH1-15 | 2026-09-03 19:05:23 | 49.06635 | 8.62604 | 156° | 7km/h | 27778m | -23m/s | -47.3°C | 2.8% | 17.7hPa | 2.6V | 02:43:31 | 02:35:21 | 00:00:00 | |
| SONDE2-11 | 2026-09-03 19:05:23 | 49.06627 | 8.62603 | 239° | 5km/h | 27654m | -23.6m/s | -47.5°C | 0.4% | 18.0hPa | 2.5V | 00:00:00 | 00:00:00 | 00:00:00 | |
| BIOWL9-15 | 2026-09-03 19:05:22 | 49.06628 | 8.62605 | 225° | 4km/h | 27678m | -23.8m/s | -47.4°C | 0.4% | 17.9hPa | 2.5V | 00:00:00 | 00:00:00 | 00:00:00 | |
| DM0DOS-11 | 2026-09-03 19:05:20 | 49.06640 | 8.62602 | 176° | 5km/h | 27851m | -25.6m/s | -47°C | 2.8% | 17.5hPa | 2.5V | 02:43:34 | 02:35:18 | 00:00:00 | |
| DL1XH-west | 2026-09-03 19:05:18 | 49.06634 | 8.62604 | 157° | 7km/h | 27778m | -23m/s | -47.3°C | 0% | 17.7hPa | 2.6V | 02:44:10 | 02:35:21 | 00:00:00 | |
| BIOWL1-15 | 2026-09-03 19:05:18 | 49.06638 | 8.62602 | 169° | 7km/h | 27825m | -26.1m/s | -47.1°C | 0% | 17.5hPa | 2.6V | 02:44:10 | 02:35:19 | 00:00:00 | |
| DK7TD | 2026-09-03 19:05:15 | 49.06640 | 8.62602 | 176° | 5km/h | 27851m | -25.6m/s | -47.1°C | 0% | 17.5hPa | 2.5V | 02:44:10 | 02:35:18 | 00:00:00 | |
| AU51GT2 | 2026-09-03 19:05:15 | 49.06642 | 8.62602 | 217° | 4km/h | 27879m | -28.3m/s | -47.0°C | -1.0% | -1.0hPa | 2.5V | 00:00:00 | 00:00:00 | 00:00:00 | |
| DO3MHA-11 | 2026-09-03 19:05:14 | 49.06642 | 8.62602 | 218° | 13km/h | 27879m | -28.3m/s | -46.9°C | 2.8% | 17.4hPa | 2.5V | 02:43:00 | 02:35:17 | 00:00:00 | |
| DL1XH1-15 | 2026-09-03 19:05:13 | 49.06648 | 8.62628 | 256° | 16km/h | 28032m | -22.7m/s | -46.8°C | 2.8% | 16.9hPa | 2.5V | 02:43:41 | 02:35:11 | 00:00:00 | |
| EDDB2-12 | 2026-09-03 19:05:13 | 49.06644 | 8.62607 | 244° | 9km/h | 27931m | -26.5m/s | -46.9°C | 0.4% | 17.3hPa | 2.6V | 00:00:00 | 00:00:00 | 00:00:00 | |
| DJ2DS-15 | 2026-09-03 19:05:12 | 49.06644 | 8.62607 | 245° | 9km/h | 27932m | -26.4m/s | -46.9°C | 2.8% | 17.2hPa | 2.6V | 02:43:00 | 02:35:15 | 00:00:00 | |
| DL0LBS | 2026-09-03 19:05:11 | 49.06644 | 8.62607 | 246° | 11km/h | 27932m | -26.5m/s | -46.9°C | 0.4% | 17.3hPa | 2.6V | 02:44:00 | 00:00:00 | 00:00:00 | |
| DM0DOS-11 | 2026-09-03 19:05:10 | 49.06651 | 8.62644 | 267° | 11km/h | 28103m | -24.8m/s | -46.6°C | 2.7% | 16.8hPa | 2.6V | 02:43:44 | 02:35:08 | 00:00:00 | |
| DL1XH-west | 2026-09-03 19:05:08 | 49.06648 | 8.62628 | 257° | 16km/h | 28032m | -22.7m/s | -46.8°C | 0% | 16.9hPa | 2.5V | 02:44:10 | 02:35:11 | 00:00:00 | |
| BIOWL1-15 | 2026-09-03 19:05:05 | 49.06651 | 8.62644 | 268° | 11km/h | 28103m | -24.8m/s | -46.6°C | 0% | 16.8hPa | 2.6V | 02:44:10 | 02:35:08 | 00:00:00 | |
| DK7TD | 2026-09-03 19:05:04 | 49.06651 | 8.62648 | 290° | 9km/h | 28129m | -29m/s | -46.5°C | 0% | 16.7hPa | 2.5V | 02:44:10 | 02:35:07 | 00:00:00 | |
| DL4BBY-15 | 2026-09-03 19:05:04 | 49.06651 | 8.62648 | 290° | 9km/h | 28130m | -29.0m/s | -46.9°C | 0% | 0hPa | 2.5V | 00:00:00 | 00:00:00 | 00:00:00 | |
| DB0ND-19 | 2026-09-03 19:05:03 | 49.06650 | 8.62651 | 286° | 5km/h | 28158m | -28.2m/s | -46.5°C | 0.4% | 16.6hPa | 2.5V | 00:00:00 | 00:00:00 | 00:00:00 | |
| DL1ZP-14 | 2026-09-03 19:05:02 | 49.06649 | 8.62653 | 309° | 5km/h | 28185m | -25.7m/s | -46.4°C | 0.4% | 16.6hPa | 2.5V | 00:00:00 | 00:00:00 | 00:00:00 | |
| DB0NH | 2026-09-03 19:05:01 | 49.06648 | 8.62654 | 321° | 7km/h | 28211m | -25.8m/s | -46.4°C | 2.7% | 16.5hPa | 2.5V | 00:00:00 | 02:35:04 | 00:00:00 | |
| DM0DOS-11 | 2026-09-03 19:05:00 | 49.06653 | 8.62658 | 212° | 13km/h | 28363m | -27.2m/s | -46.2°C | 2.7% | 16.1hPa | 2.5V | 02:43:54 | 02:34:58 | 00:00:00 | |
| DL1XH-15 | 2026-09-03 19:04:59 | 49.06656 | 8.62660 | 213° | 13km/h | 28390m | -26.9m/s | -46.1°C | 2.7% | 16.1hPa | 2.6V | 02:43:55 | 02:34:57 | 00:00:00 | |
| DL1XH-west | 2026-09-03 19:04:58 | 49.06648 | 8.62655 | 183° | 4km/h | 28288m | -23m/s | -46.5°C | 0% | 16.3hPa | 2.6V | 02:44:10 | 02:35:01 | 00:00:00 | |
| BIOWL1-15 | 2026-09-03 19:04:54 | 49.06656 | 8.62660 | 214° | 13km/h | 28390m | -26.9m/s | -46.1°C | 0% | 16.1hPa | 2.6V | 02:44:10 | 02:34:57 | 00:00:00 | |
| DF7PN | 2026-09-03 19:04:54 | 49.06658 | 8.62663 | 223° | 13km/h | 28419m | -30.3m/s | -46.0°C | 0.4% | 16.1hPa | 2.6V | 00:00:00 | 00:00:00 | 00:00:00 | |
| DL1XH1-15 | 2026-09-03 19:04:53 | 49.06668 | 8.62678 | 234° | 5km/h | 28552m | -23.5m/s | -45.5°C | 2.6% | 15.7hPa | 2.6V | 02:44:01 | 02:34:51 | 00:00:00 | |
| SONDE2-11 | 2026-09-03 19:04:52 | 49.06661 | 8.62667 | 227° | 11km/h | 28449m | -30.1m/s | -45.9°C | 0.4% | 16.0hPa | 2.5V | 00:00:00 | 00:00:00 | 00:00:00 | |
| BIOWL9-15 | 2026-09-03 19:04:51 | 49.06663 | 8.62670 | 220° | 11km/h | 28477m | -27.7m/s | -45.8°C | 0.4% | 15.9hPa | 2.5V | 00:00:00 | 00:00:00 | 00:00:00 | |
| DM0DOS-11 | 2026-09-03 19:04:50 | 49.06668 | 8.62687 | 273° | 15km/h | 28630m | -27.2m/s | -45.4°C | 2.6% | 15.5hPa | 2.5V | 02:44:04 | 02:34:48 | 00:00:00 | |
| DB0UT-7 | 2026-09-03 19:04:50 | 49.06665 | 8.62673 | 219° | 9km/h | 28503m | -24.3m/s | -45.7°C | 2.6% | 15.7hPa | 2.5V | 00:00:00 | 02:34:53 | 00:00:00 | |
| DL1XH-15 | 2026-09-03 19:04:48 | 49.06667 | 8.62699 | 278° | 16km/h | 28681m | -23.8m/s | -45.4°C | 2.5% | 15.4hPa | 2.5V | 02:44:06 | 02:34:46 | 00:00:00 | |
| DL1XH-west | 2026-09-03 19:04:47 | 49.06668 | 8.62680 | 270° | 7km/h | 28577m | -25.3m/s | -45.5°C | 0% | 15.7hPa | 2.6V | 02:44:10 | 02:34:50 | 00:00:00 | |
| BIOWL1-15 | 2026-09-03 19:04:46 | 49.06668 | 8.62693 | 278° | 16km/h | 28656m | -26.1m/s | -45.4°C | 0% | 15.4hPa | 2.5V | 02:44:10 | 02:34:47 | 00:00:00 | |
| DK7TD | 2026-09-03 19:04:43 | 49.06667 | 8.62699 | 279° | 16km/h | 28681m | -23.8m/s | -45.4°C | 0% | 15.4hPa | 2.5V | 02:44:10 | 02:34:46 | 00:00:00 | |
| HSKMA3-T | 2026-09-03 19:04:42 | 49.06667 | 8.62705 | 277° | 16km/h | 28705m | -25.4m/s | -45.2°C | 0% | 15.3hPa | 2.6V | 02:45:01 | 02:34:45 | 00:00:00 | |
| EDDB2-12 | 2026-09-03 19:04:42 | 49.06666 | 8.62711 | 280° | 13km/h | 28732m | -27.1m/s | -45.1°C | 0.3% | 15.3hPa | 2.6V | 00:00:00 | 00:00:00 | 00:00:00 | |
| DM0DOS-11 | 2026-09-03 19:04:40 | 49.06656 | 8.62713 | 45° | 11km/h | 28880m | -21.9m/s | -44.9°C | 2.4% | 14.9hPa | 2.6V | 02:44:14 | 02:34:38 | 00:00:00 | |
| DL1XH-15 | 2026-09-03 19:04:38 | 49.06654 | 8.62709 | 54° | 2km/h | 28929m | -25.6m/s | -45°C | 2.5% | 14.8hPa | 2.5V | 02:44:16 | 02:34:36 | 00:00:00 | |
| DL1XH-west | 2026-09-03 19:04:36 | 49.06658 | 8.62716 | 40° | 11km/h | 28858m | -23.9m/s | -44.9°C | 0% | 15hPa | 2.6V | 02:45:01 | 02:34:39 | 00:00:00 | |
| BIOWL1-15 | 2026-09-03 19:04:36 | 49.06654 | 8.62711 | 48° | 7km/h | 28904m | -25.4m/s | -44.9°C | 0% | 14.9hPa | 2.5V | 02:45:01 | 02:34:37 | 00:00:00 | |
| DK7TD | 2026-09-03 19:04:33 | 49.06654 | 8.62709 | 55° | 2km/h | 28929m | -25.6m/s | -45°C | 0% | 14.8hPa | 2.5V | 02:45:52 | 02:34:36 | 00:00:00 | |
| DL1XH1-15 | 2026-09-03 19:04:33 | 49.06659 | 8.62721 | 222° | 9km/h | 29063m | -27.7m/s | -44.9°C | 2.5% | 14.5hPa | 2.5V | 02:44:21 | 02:34:31 | 00:00:00 | |
| DJ2DS-15 | 2026-09-03 19:04:32 | 49.06654 | 8.62710 | 220° | 5km/h | 28955m | -24.2m/s | -45.0°C | 2.5% | 14.7hPa | 2.6V | 00:00:00 | 02:34:35 | 00:00:00 | |
| DL1ZP-14 | 2026-09-03 19:04:31 | 49.06655 | 8.62711 | 234° | 7km/h | 28979m | -25.4m/s | -45.0°C | 0.3% | 14.7hPa | 2.6V | 00:00:00 | 00:00:00 | 00:00:00 | |
| DM0DOS-11 | 2026-09-03 19:04:30 | 49.06662 | 8.62724 | 173° | 4km/h | 29141m | -24.9m/s | -45°C | 2.5% | 14.3hPa | 2.6V | 02:44:24 | 02:34:28 | 00:00:00 | |
| CB1BUN | 2026-09-03 19:04:29 | 49.06656 | 8.62714 | 245° | 11km/h | 29006m | -26.8m/s | -45.0°C | 0.3% | 14.7hPa | 2.5V | 02:45:00 | 00:00:00 | 00:00:00 | |
| DL1XH-15 | 2026-09-03 19:04:28 | 49.06665 | 8.62723 | 154° | 4km/h | 29195m | -28m/s | -45°C | 2.5% | 14.2hPa | 2.5V | 02:44:26 | 02:34:26 | 00:00:00 | |
| DL1XH-west | 2026-09-03 19:04:25 | 49.06662 | 8.62724 | 174° | 4km/h | 29141m | -24.9m/s | -45°C | 0% | 14.3hPa | 2.6V | 02:45:01 | 02:34:28 | 00:00:00 | |
| BIOWL1-15 | 2026-09-03 19:04:24 | 49.06663 | 8.62724 | 168° | 5km/h | 29167m | -27.1m/s | -45°C | 0% | 14.3hPa | 2.6V | 02:45:01 | 02:34:27 | 00:00:00 | |
| DJ2KF-10 | 2026-09-03 19:04:24 | 49.06663 | 8.62724 | 168° | 11km/h | 29168m | -27.1m/s | -44.9°C | 2.5% | 14.3hPa | 2.6V | 00:00:00 | 02:34:27 | 00:00:00 | |
| DL1XH1-15 | 2026-09-03 19:04:23 | 49.06669 | 8.62726 | 250° | 2km/h | 29336m | -27.5m/s | -45.1°C | 2.6% | 13.9hPa | 2.6V | 02:44:31 | 02:34:21 | 00:00:00 | |
| DK7TD | 2026-09-03 19:04:22 | 49.06665 | 8.62723 | 194° | 4km/h | 29223m | -28.6m/s | -45°C | 0% | 14.2hPa | 2.5V | 02:45:52 | 02:34:25 | 00:00:00 | |
| DJ2DS-15 | 2026-09-03 19:04:22 | 49.06666 | 8.62724 | 199° | 4km/h | 29252m | -27.5m/s | -45.1°C | 0.4% | 14.1hPa | 2.5V | 00:00:00 | 00:00:00 | 00:00:00 | |
| SONDE2-11 | 2026-09-03 19:04:21 | 49.06666 | 8.62724 | 199° | 4km/h | 29252m | -27.5m/s | -45.1°C | 0.4% | 14.1hPa | 2.5V | 00:00:00 | 00:00:00 | 00:00:00 | |
| DM0DOS-11 | 2026-09-03 19:04:20 | 49.06670 | 8.62729 | 283° | 4km/h | 29417m | -31.3m/s | -44.9°C | 2.6% | 13.8hPa | 2.5V | 02:44:34 | 02:34:18 | 00:00:00 | |
| DB0UT-7 | 2026-09-03 19:04:20 | 49.06668 | 8.62725 | 210° | 9km/h | 29280m | -28.4m/s | -45.1°C | 2.6% | 14.0hPa | 2.6V | 00:00:00 | 00:00:00 | 00:00:00 | |
| DJTTGO | 2026-09-03 19:04:19 | 49.06668 | 8.62724 | 210° | 5km/h | 29280m | -28.5m/s | -45.2°C | 0.4% | 14.1hPa | 2.6V | 02:45:00 | 00:00:00 | 00:00:00 | |
| DL1XH-15 | 2026-09-03 19:04:18 | 49.06668 | 8.62733 | 305° | 9km/h | 29480m | -31.9m/s | -44.9°C | 2.6% | 13.6hPa | 2.6V | 02:44:36 | 02:34:16 | 00:00:00 | |
| BIOWL1-15 | 2026-09-03 19:04:15 | 49.06669 | 8.62733 | 306° | 9km/h | 29480m | -31.9m/s | -44.9°C | 0% | 13.7hPa | 2.6V | 02:45:01 | 02:34:16 | 00:00:00 | |
| DL1XH-west | 2026-09-03 19:04:15 | 49.06670 | 8.62729 | 284° | 4km/h | 29417m | -31.3m/s | -44.9°C | 0% | 13.8hPa | 2.5V | 02:45:01 | 02:34:18 | 00:00:00 | |
| HSKMA3-T | 2026-09-03 19:04:14 | 49.06670 | 8.62731 | 303° | 5km/h | 29449m | -30.5m/s | -45°C | 0% | 13.7hPa | 2.5V | 02:45:01 | 02:34:17 | 00:00:00 | |
| DO3MHA-11 | 2026-09-03 19:04:14 | 49.06669 | 8.62731 | 303° | 9km/h | 29449m | -30.5m/s | -44.9°C | 2.6% | 13.6hPa | 2.5V | 02:44:00 | 02:34:17 | 00:00:00 | |
| DL1XH1-15 | 2026-09-03 19:04:13 | 49.06663 | 8.62750 | 286° | 13km/h | 29634m | -31.5m/s | -44.7°C | 2.6% | 13.4hPa | 2.5V | 02:44:41 | 02:34:11 | 00:00:00 | |
| DK7TD | 2026-09-03 19:04:11 | 49.06666 | 8.62739 | 297° | 9km/h | 29541m | -30m/s | -44.8°C | 0% | 13.5hPa | 2.6V | 02:45:52 | 02:34:14 | 00:00:00 | |
| EDDB2-12 | 2026-09-03 19:04:11 | 49.06665 | 8.62742 | 300° | 11km/h | 29572m | -30.6m/s | -44.8°C | 0.3% | 13.5hPa | 2.5V | 00:00:00 | 00:00:00 | 00:00:00 | |
| DM0DOS-11 | 2026-09-03 19:04:10 | 49.06664 | 8.62763 | 233° | 9km/h | 29720m | -26.4m/s | -44.5°C | 2.7% | 13.1hPa | 2.5V | 02:44:44 | 02:34:08 | 00:00:00 | |
| DL0LBS | 2026-09-03 19:04:09 | 49.06665 | 8.62742 | 301° | 11km/h | 29572m | -30.6m/s | -44.8°C | 0.4% | 13.5hPa | 2.5V | 02:45:00 | 00:00:00 | 00:00:00 | |
| DL1XH-15 | 2026-09-03 19:04:08 | 49.06667 | 8.62768 | 223° | 7km/h | 29771m | -26m/s | -44.3°C | 2.6% | 13.1hPa | 2.5V | 02:44:46 | 02:34:06 | 00:00:00 | |
| DL1XH-west | 2026-09-03 19:04:04 | 49.06665 | 8.62766 | 224° | 11km/h | 29745m | -25.6m/s | -44.5°C | 0% | 13.1hPa | 2.5V | 02:45:01 | 02:34:07 | 00:00:00 | |
| HSKMA3-T | 2026-09-03 19:04:03 | 49.06667 | 8.62768 | 223° | 7km/h | 29771m | -26m/s | -44.3°C | 0% | 13.1hPa | 2.5V | 02:45:01 | 02:34:06 | 00:00:00 | |
| DK7TD | 2026-09-03 19:04:01 | 49.06670 | 8.62771 | 241° | 4km/h | 29827m | -29.1m/s | -43.8°C | 0% | 13hPa | 2.6V | 02:45:52 | 02:34:04 | 00:00:00 | |
| DL1ZP-14 | 2026-09-03 19:04:00 | 49.06670 | 8.62772 | 224° | 2km/h | 29856m | -29.5m/s | -43.5°C | 0.3% | 12.9hPa | 2.6V | 00:00:00 | 00:00:00 | 00:00:00 | |
| DL1XH-15 | 2026-09-03 19:03:58 | 49.06677 | 8.62790 | 207° | 16km/h | 30069m | -29.7m/s | -42.5°C | 2.3% | 12.5hPa | 2.5V | 02:44:56 | 02:33:56 | 00:00:00 | |
| BIOWL1-15 | 2026-09-03 19:03:53 | 49.06677 | 8.62790 | 207° | 16km/h | 30069m | -29.7m/s | -42.5°C | 0% | 12.5hPa | 2.5V | 02:45:01 | 02:33:56 | 00:00:00 | |
| DK7TD | 2026-09-03 19:03:50 | 49.06690 | 8.62796 | 178° | 18km/h | 30157m | -29.8m/s | -42.3°C | 0% | 12.3hPa | 2.6V | 02:45:52 | 02:33:53 | 00:00:00 | |
| DM0DOS-11 | 2026-09-03 19:03:50 | 49.06705 | 8.62788 | 132° | 7km/h | 30310m | -26.9m/s | -41.9°C | 2.2% | 12hPa | 2.5V | 02:45:04 | 02:33:48 | 00:00:00 | |
| SONDE2-11 | 2026-09-03 19:03:50 | 49.06690 | 8.62796 | 177° | 16km/h | 30157m | -29.8m/s | -42.3°C | 0.3% | 12.3hPa | 2.6V | 00:00:00 | 00:00:00 | 00:00:00 | |
| DL6DJ-15 | 2026-09-03 19:03:49 | 49.06695 | 8.62795 | 172° | 15km/h | 30187m | -31.4m/s | -42.2°C | 0.3% | 12.3hPa | 2.6V | 00:00:00 | 00:00:00 | 00:00:00 | |
| DL1XH-15 | 2026-09-03 19:03:48 | 49.06707 | 8.62785 | 189° | 4km/h | 30366m | -28.4m/s | -41.6°C | 2.2% | 11.9hPa | 2.6V | 02:45:06 | 02:33:46 | 00:00:00 | |
| HSKMA3-T | 2026-09-03 19:03:46 | 49.06704 | 8.62790 | 138° | 9km/h | 30282m | -29.9m/s | -42°C | 0% | 12.1hPa | 2.5V | 02:45:52 | 02:33:49 | 00:00:00 | |
| AZAK | 2026-09-03 19:03:45 | 49.06703 | 8.62790 | 139° | 9km/h | 30282m | -29.9m/s | -42.0°C | 0.3% | 12.1hPa | 2.6V | 00:00:00 | 00:00:00 | 00:00:00 | |
| DO3MHA-11 | 2026-09-03 19:03:44 | 49.06706 | 8.62786 | 138° | 9km/h | 30338m | -27.7m/s | -41.7°C | 2.2% | 12.0hPa | 2.6V | 02:45:00 | 02:33:47 | 00:00:00 | |
| DL1XH1-15 | 2026-09-03 19:03:43 | 49.06718 | 8.62793 | 212° | 13km/h | 30507m | -27.9m/s | -41.6°C | 2.2% | 11.7hPa | 2.6V | 02:45:11 | 02:33:41 | 00:00:00 | |
| DL1XH-west | 2026-09-03 19:03:43 | 49.06707 | 8.62785 | 190° | 4km/h | 30366m | -28.5m/s | -41.6°C | 0% | 11.9hPa | 2.6V | 02:45:52 | 02:33:46 | 00:00:00 | |
| BIOWL1-15 | 2026-09-03 19:03:42 | 49.06708 | 8.62786 | 190° | 5km/h | 30394m | -28.3m/s | -41.6°C | 0% | 11.9hPa | 2.6V | 02:45:52 | 02:33:45 | 00:00:00 | |
| NBG1-10 | 2026-09-03 19:03:42 | 49.06708 | 8.62786 | 191° | 7km/h | 30395m | -28.2m/s | -41.5°C | 2.2% | 11.8hPa | 2.5V | 00:00:00 | 02:33:45 | 00:00:00 | |
| DM0DOS-11 | 2026-09-03 19:03:40 | 49.06726 | 8.62799 | 203° | 11km/h | 30598m | -33.9m/s | -41.2°C | 2.2% | 11.6hPa | 2.5V | 02:45:14 | 02:33:38 | 00:00:00 | |
| DF8AY | 2026-09-03 19:03:39 | 49.06715 | 8.62790 | 204° | 15km/h | 30479m | -27.7m/s | -41.6°C | 0% | 11.7hPa | 2.5V | 02:46:43 | 02:33:42 | 00:00:00 | |
| HSKMA3-T | 2026-09-03 19:03:36 | 49.06724 | 8.62797 | 200° | 11km/h | 30565m | -31.4m/s | -41.4°C | 0% | 11.6hPa | 2.5V | 02:45:52 | 02:33:39 | 00:00:00 | |
| DK5PH-5 | 2026-09-03 19:03:36 | 49.06723 | 8.62797 | 200° | 9km/h | 30566m | -31.4m/s | -41.4°C | 2.2% | 11.5hPa | 2.5V | 00:00:00 | 02:33:39 | 00:00:00 | |
| DB0UT-9 | 2026-09-03 19:03:35 | 49.06723 | 8.62797 | 200° | 11km/h | 30566m | -31.4m/s | -41.4°C | 0.3% | 11.6hPa | 2.5V | 02:45:00 | 00:00:00 | 00:00:00 | |
| DO3MHA-11 | 2026-09-03 19:03:34 | 49.06728 | 8.62800 | 206° | 5km/h | 30631m | -33.1m/s | -40.9°C | 2.2% | 11.5hPa | 2.5V | 00:00:00 | 02:33:37 | 00:00:00 | |
| DL1XH1-15 | 2026-09-03 19:03:33 | 49.06734 | 8.62814 | 299° | 5km/h | 30827m | -33.9m/s | -40.2°C | 2% | 11.1hPa | 2.5V | 02:45:21 | 02:33:31 | 00:00:00 | |
| DL1XH-west | 2026-09-03 19:03:32 | 49.06732 | 8.62804 | 226° | 11km/h | 30698m | -32.3m/s | -40.7°C | 0% | 11.3hPa | 2.6V | 02:45:52 | 02:33:35 | 00:00:00 | |
| BIOWL1-15 | 2026-09-03 19:03:31 | 49.06733 | 8.62807 | 250° | 9km/h | 30731m | -34m/s | -40.6°C | 0% | 11.3hPa | 2.6V | 02:45:52 | 02:33:34 | 00:00:00 | |
| DB0ND-19 | 2026-09-03 19:03:30 | 49.06734 | 8.62810 | 251° | 5km/h | 30764m | -31.7m/s | -40.5°C | 0.2% | 11.2hPa | 2.5V | 00:00:00 | 00:00:00 | 00:00:00 | |
| DL1ZP-14 | 2026-09-03 19:03:29 | 49.06734 | 8.62812 | 263° | 5km/h | 30795m | -30.9m/s | -40.3°C | 0.2% | 11.2hPa | 2.5V | 00:00:00 | 00:00:00 | 00:00:00 | |
| DL1XH-15 | 2026-09-03 19:03:28 | 49.06731 | 8.62809 | 105° | 7km/h | 30998m | -33.9m/s | -39.8°C | 2% | 10.8hPa | 2.5V | 02:45:26 | 02:33:26 | 00:00:00 | |
| HSKMA3-T | 2026-09-03 19:03:25 | 49.06732 | 8.62814 | 70° | 5km/h | 30928m | -34.3m/s | -39.9°C | 0% | 11hPa | 2.5V | 02:45:52 | 02:33:28 | 00:00:00 | |
| DO3MHA-11 | 2026-09-03 19:03:24 | 49.06731 | 8.62812 | 77° | 7km/h | 30964m | -36.9m/s | -39.8°C | 2.0% | 10.9hPa | 2.5V | 00:00:00 | 02:33:27 | 00:00:00 | |
| DL1XH1-15 | 2026-09-03 19:03:23 | 49.06736 | 8.62806 | 226° | 9km/h | 31155m | -29.9m/s | -39.2°C | 1.9% | 10.6hPa | 2.5V | 02:45:31 | 02:33:21 | 00:00:00 | |
| DL1XH-west | 2026-09-03 19:03:21 | 49.06732 | 8.62804 | 141° | 4km/h | 31063m | -31.8m/s | -39.7°C | 0% | 10.8hPa | 2.6V | 02:45:52 | 02:33:24 | 00:00:00 | |
| BIOWL1-15 | 2026-09-03 19:03:20 | 49.06733 | 8.62804 | 198° | 5km/h | 31094m | -31.7m/s | -39.5°C | 0% | 10.7hPa | 2.6V | 02:45:52 | 02:33:23 | 00:00:00 | |
| DB0UT-7 | 2026-09-03 19:03:20 | 49.06733 | 8.62804 | 198° | 16km/h | 31095m | -31.6m/s | -39.4°C | 2.0% | 10.6hPa | 2.5V | 00:00:00 | 00:00:00 | 00:00:00 | |
| SONDE2-11 | 2026-09-03 19:03:19 | 49.06736 | 8.62806 | 226° | 7km/h | 31155m | -29.9m/s | -39.2°C | 0.2% | 10.6hPa | 2.5V | 00:00:00 | 00:00:00 | 00:00:00 | |
| DL1XH-15 | 2026-09-03 19:03:18 | 49.06740 | 8.62811 | 80° | 7km/h | 31335m | -42.1m/s | -38.3°C | 1.7% | 10.4hPa | 2.5V | 02:45:36 | 02:33:16 | 00:00:00 | |
| DF8AY | 2026-09-03 19:03:17 | 49.06737 | 8.62809 | 233° | 11km/h | 31186m | -31.6m/s | -39°C | 0% | 10.6hPa | 2.5V | 02:46:43 | 02:33:20 | 00:00:00 | |
| HSKMA3-T | 2026-09-03 19:03:15 | 49.06739 | 8.62813 | 196° | 5km/h | 31254m | -39m/s | -38.6°C | 0% | 10.5hPa | 2.6V | 02:45:52 | 02:33:18 | 00:00:00 | |
| DL1XH-west | 2026-09-03 19:03:11 | 49.06737 | 8.62803 | 55° | 16km/h | 31417m | -39.2m/s | -38.3°C | 0% | 10.2hPa | 2.6V | 02:45:52 | 02:33:14 | 00:00:00 | |
| BIOWL1-15 | 2026-09-03 19:03:09 | 49.06731 | 8.62793 | 53° | 20km/h | 31488m | -31.9m/s | -38.6°C | 0% | 10.1hPa | 2.6V | 02:45:52 | 02:33:12 | 00:00:00 | |
| EDDB2-12 | 2026-09-03 19:03:09 | 49.06728 | 8.62787 | 44° | 22km/h | 31519m | -30.1m/s | -38.6°C | 0.2% | 10.1hPa | 2.6V | 00:00:00 | 00:00:00 | 00:00:00 | |
| DL1XH-15 | 2026-09-03 19:03:08 | 49.06713 | 8.62758 | 67° | 16km/h | 31661m | -30.1m/s | -38.9°C | 1.9% | 9.8hPa | 2.6V | 02:45:46 | 02:33:06 | 00:00:00 | |
| DF8AY | 2026-09-03 19:03:04 | 49.06715 | 8.62763 | 68° | 16km/h | 31631m | -31.3m/s | -38.9°C | 0% | 9.9hPa | 2.6V | 02:46:43 | 02:33:07 | 00:00:00 | |
| DL1XH1-15 | 2026-09-03 19:03:03 | 49.06710 | 8.62724 | 91° | 22km/h | 31821m | -40.8m/s | -38.5°C | 1.8% | 9.6hPa | 2.6V | 02:45:51 | 02:33:01 | 00:00:00 | |
| BIOWL1-15 | 2026-09-03 19:03:01 | 49.06710 | 8.62732 | 94° | 20km/h | 31783m | -37.2m/s | -38.5°C | 0% | 9.7hPa | 2.5V | 02:45:52 | 02:33:02 | 00:00:00 | |
| DM0DOS-11 | 2026-09-03 19:03:00 | 49.06712 | 8.62696 | 95° | 27km/h | 31932m | -35.7m/s | -38.1°C | 1.7% | 9.5hPa | 2.5V | 02:45:54 | 02:32:58 | 00:00:00 | |
| DL1XH-west | 2026-09-03 19:03:00 | 49.06711 | 8.62739 | 84° | 18km/h | 31748m | -32.2m/s | -38.5°C | 0% | 9.7hPa | 2.5V | 02:45:52 | 02:33:03 | 00:00:00 | |
| DK7TD | 2026-09-03 19:02:56 | 49.06711 | 8.62706 | 100° | 24km/h | 31897m | -36.4m/s | -38.2°C | 0% | 9.5hPa | 2.5V | 02:46:43 | 02:32:59 | 00:00:00 | |
| DL4BBY-15 | 2026-09-03 19:02:54 | 49.06713 | 8.62686 | 106° | 20km/h | 31967m | -32.9m/s | -38.5°C | 0% | 0hPa | 2.5V | 00:00:00 | 00:00:00 | 00:00:00 | |
| DL1XH1-15 | 2026-09-03 19:02:53 | 49.06727 | 8.62634 | 131° | 20km/h | 32164m | -31.9m/s | -38.4°C | 1.8% | 9.1hPa | 2.5V | 02:46:01 | 02:32:51 | 00:00:00 | |
| HSKMA3-T | 2026-09-03 19:02:52 | 49.06716 | 8.62665 | 108° | 27km/h | 32034m | -32.1m/s | -38.2°C | 0% | 9.3hPa | 2.6V | 02:46:43 | 02:32:55 | 00:00:00 | |
| DJ2DS-15 | 2026-09-03 19:02:52 | 49.06716 | 8.62665 | 109° | 18km/h | 32034m | -32.1m/s | -38.2°C | 1.8% | 9.3hPa | 2.5V | 00:00:00 | 02:32:55 | 00:00:00 | |
| DJTTGO | 2026-09-03 19:02:51 | 49.06716 | 8.62665 | 109° | 27km/h | 32034m | -32.1m/s | -38.2°C | 0.2% | 9.3hPa | 2.5V | 02:46:00 | 00:00:00 | 00:00:00 | |
| DM0DOS-11 | 2026-09-03 19:02:50 | 49.06736 | 8.62617 | 114° | 20km/h | 32255m | -30.8m/s | -38.5°C | 1.8% | 9hPa | 2.5V | 02:46:04 | 02:32:48 | 00:00:00 | |
| DL1XH-west | 2026-09-03 19:02:49 | 49.06724 | 8.62640 | 129° | 20km/h | 32131m | -35.1m/s | -38.3°C | 0% | 9.2hPa | 2.5V | 02:46:43 | 02:32:52 | 00:00:00 | |
| DF8AY | 2026-09-03 19:02:48 | 49.06727 | 8.62634 | 132° | 20km/h | 32164m | -31.9m/s | -38.4°C | 0% | 9.1hPa | 2.5V | 02:46:43 | 02:32:51 | 00:00:00 | |
| DK7TD | 2026-09-03 19:02:45 | 49.06736 | 8.62617 | 115° | 20km/h | 32255m | -30.8m/s | -38.6°C | 0% | 9hPa | 2.5V | 02:46:43 | 02:32:48 | 00:00:00 | |
| DJ2KF-10 | 2026-09-03 19:02:44 | 49.06738 | 8.62609 | 113° | 18km/h | 32286m | -31.0m/s | -38.5°C | 1.8% | 8.9hPa | 2.5V | 00:00:00 | 02:32:47 | 00:00:00 | |
| DL1XH1-15 | 2026-09-03 19:02:43 | 49.06752 | 8.62561 | 150° | 15km/h | 32486m | -35.6m/s | -38.8°C | 1.9% | 8.7hPa | 2.5V | 02:46:11 | 02:32:41 | 00:00:00 | |
| HSKMA3-T | 2026-09-03 19:02:41 | 49.06743 | 8.62581 | 109° | 26km/h | 32382m | -34.1m/s | -38.7°C | 0% | 8.8hPa | 2.6V | 02:46:43 | 02:32:44 | 00:00:00 | |
| DM0DOS-11 | 2026-09-03 19:02:40 | 49.06762 | 8.62562 | 208° | 13km/h | 32596m | -37.6m/s | -38.6°C | 1.9% | 8.6hPa | 2.6V | 02:46:14 | 02:32:38 | 00:00:00 | |
| BIOWL1-15 | 2026-09-03 19:02:38 | 49.06752 | 8.62561 | 150° | 15km/h | 32486m | -35.6m/s | -38.8°C | 0% | 8.7hPa | 2.5V | 02:46:43 | 02:32:41 | 00:00:00 | |
| DF8AY | 2026-09-03 19:02:37 | 49.06755 | 8.62559 | 176° | 13km/h | 32523m | -37.6m/s | -38.7°C | 0% | 8.7hPa | 2.5V | 02:46:43 | 02:32:40 | 00:00:00 | |
| DK7TD | 2026-09-03 19:02:34 | 49.06764 | 8.62564 | 226° | 7km/h | 32635m | -39.3m/s | -38.6°C | 0% | 8.6hPa | 2.6V | 02:46:43 | 02:32:37 | 00:00:00 | |
| DJ2DS-15 | 2026-09-03 19:02:34 | 49.06764 | 8.62566 | 307° | 4km/h | 32674m | -38.8m/s | -38.5°C | 0.2% | 8.5hPa | 2.6V | 00:00:00 | 00:00:00 | 00:00:00 | |
| DL1XH1-15 | 2026-09-03 19:02:33 | 49.06755 | 8.62543 | 77° | 22km/h | 32875m | -39.2m/s | -37.9°C | 1.8% | 8.2hPa | 2.6V | 02:46:21 | 02:32:31 | 00:00:00 | |
| HSKMA3-T | 2026-09-03 19:02:30 | 49.06759 | 8.62558 | 56° | 18km/h | 32793m | -41.8m/s | -38.2°C | 0% | 8.4hPa | 2.5V | 02:46:43 | 02:32:33 | 00:00:00 | |
| DL1XH-west | 2026-09-03 19:02:28 | 49.06755 | 8.62543 | 77° | 22km/h | 32875m | -39.2m/s | -37.9°C | 0% | 8.2hPa | 2.6V | 02:46:43 | 02:32:31 | 00:00:00 | |
| BIOWL1-15 | 2026-09-03 19:02:27 | 49.06754 | 8.62535 | 79° | 22km/h | 32914m | -39.9m/s | -38°C | 0% | 8.2hPa | 2.5V | 02:46:43 | 02:32:30 | 00:00:00 | |
| DL1XH-15 | 2026-09-03 19:02:26 | 49.06762 | 8.62494 | 126° | 15km/h | 33137m | -41.1m/s | -37.8°C | 1.8% | 7.9hPa | 2.5V | 02:46:28 | 02:32:24 | 00:00:00 | |
| DK7TD | 2026-09-03 19:02:24 | 49.06755 | 8.62511 | 104° | 20km/h | 33021m | -34m/s | -38.1°C | 0% | 8hPa | 2.6V | 02:46:43 | 02:32:27 | 00:00:00 | |
| DL4BBY-15 | 2026-09-03 19:02:24 | 49.06755 | 8.62511 | 105° | 16km/h | 33022m | -33.9m/s | -38.4°C | 0% | 0hPa | 2.6V | 00:00:00 | 00:00:00 | 00:00:00 | |
| DL1XH1-15 | 2026-09-03 19:02:23 | 49.06767 | 8.62478 | 105° | 20km/h | 33267m | -42.1m/s | -37.4°C | 1.8% | 7.8hPa | 2.6V | 02:46:31 | 02:32:21 | 00:00:00 | |
| DF8AY | 2026-09-03 19:02:21 | 49.06762 | 8.62494 | 127° | 15km/h | 33137m | -41.1m/s | -37.8°C | 0% | 7.9hPa | 2.5V | 02:46:43 | 02:32:24 | 00:00:00 | |
| HSKMA3-T | 2026-09-03 19:02:20 | 49.06764 | 8.62490 | 122° | 15km/h | 33180m | -44.5m/s | -37.7°C | 0% | 7.9hPa | 2.5V | 02:46:43 | 02:32:23 | 00:00:00 | |
| DL1XH-west | 2026-09-03 19:02:18 | 49.06767 | 8.62478 | 105° | 20km/h | 33268m | -42.1m/s | -37.4°C | 0% | 7.8hPa | 2.6V | 02:46:43 | 02:32:21 | 00:00:00 | |
| BIOWL1-15 | 2026-09-03 19:02:17 | 49.06768 | 8.62470 | 102° | 24km/h | 33308m | -39.6m/s | -37.4°C | 0% | 7.7hPa | 2.6V | 02:46:43 | 02:32:20 | 00:00:00 | |
| SONDE2-11 | 2026-09-03 19:02:17 | 49.06770 | 8.62461 | 100° | 24km/h | 33348m | -40.5m/s | -37.3°C | 0.2% | 7.7hPa | 2.5V | 00:00:00 | 00:00:00 | 00:00:00 | |
| DL6DJ-15 | 2026-09-03 19:02:16 | 49.06770 | 8.62451 | 95° | 24km/h | 33390m | -43.5m/s | -37.2°C | 0.2% | 7.7hPa | 2.5V | 00:00:00 | 00:00:00 | 00:00:00 | |
| DL1XH-15 | 2026-09-03 19:02:15 | 49.06778 | 8.62413 | 153° | 13km/h | 33580m | -34.5m/s | -37°C | 1.8% | 7.4hPa | 2.5V | 02:46:39 | 02:32:13 | 00:00:00 | |
| DK7TD | 2026-09-03 19:02:14 | 49.06771 | 8.62441 | 99° | 27km/h | 33432m | -41.8m/s | -37.2°C | 0% | 7.6hPa | 2.5V | 02:46:43 | 02:32:17 | 00:00:00 | |
| DJ2KF-10 | 2026-09-03 19:02:14 | 49.06771 | 8.62441 | 99° | 16km/h | 33432m | -41.7m/s | -37.1°C | 1.8% | 7.5hPa | 2.5V | 02:46:00 | 02:32:17 | 00:00:00 | |
| DL1XH1-15 | 2026-09-03 19:02:13 | 49.06783 | 8.62413 | 184° | 13km/h | 33646m | -30.6m/s | -36.7°C | 1.8% | 7.3hPa | 2.5V | 02:46:41 | 02:32:11 | 00:00:00 | |
| DO3MHA-11 | 2026-09-03 19:02:13 | 49.06772 | 8.62432 | 102° | 16km/h | 33473m | -39.1m/s | -37.0°C | 1.8% | 7.5hPa | 2.6V | 02:46:00 | 02:32:16 | 00:00:00 | |
| DJ2DS-15 | 2026-09-03 19:02:12 | 49.06773 | 8.62423 | 107° | 16km/h | 33510m | -36.3m/s | -36.9°C | 1.8% | 7.4hPa | 2.6V | 02:46:00 | 02:32:15 | 00:00:00 | |
| DM0DOS-11 | 2026-09-03 19:02:10 | 49.06789 | 8.62405 | 98° | 20km/h | 33747m | -38.2m/s | -36.6°C | 1.7% | 7.2hPa | 2.6V | 02:46:44 | 02:32:08 | 00:00:00 | |
| HSKMA3-T | 2026-09-03 19:02:09 | 49.06781 | 8.62412 | 187° | 11km/h | 33614m | -33.5m/s | -36.9°C | 0% | 7.4hPa | 2.5V | 02:46:43 | 02:32:12 | 00:00:00 | |
| DF8AY | 2026-09-03 19:02:08 | 49.06783 | 8.62413 | 185° | 13km/h | 33646m | -30.6m/s | -36.7°C | 0% | 7.3hPa | 2.5V | 02:46:43 | 02:32:11 | 00:00:00 | |
| BIOWL1-15 | 2026-09-03 19:02:08 | 49.06788 | 8.62411 | 119° | 13km/h | 33710m | -35.7m/s | -36.6°C | 0% | 7.3hPa | 2.6V | 02:46:43 | 02:32:09 | 00:00:00 | |
| DL1XH-west | 2026-09-03 19:02:07 | 49.06786 | 8.62413 | 185° | 11km/h | 33677m | -31.1m/s | -36.6°C | 0% | 7.2hPa | 2.5V | 02:46:43 | 02:32:10 | 00:00:00 | |
| EDDB2-12 | 2026-09-03 19:02:07 | 49.06788 | 8.62411 | 119° | 13km/h | 33710m | -35.7m/s | -36.6°C | 0.2% | 7.3hPa | 2.5V | 00:00:00 | 00:00:00 | 00:00:00 | |
| DK5PH-5 | 2026-09-03 19:02:06 | 49.06788 | 8.62411 | 120° | 16km/h | 33710m | -35.6m/s | -36.5°C | 1.7% | 7.2hPa | 2.5V | 00:00:00 | 02:32:09 | 00:00:00 | |
| DL0LBS | 2026-09-03 19:02:05 | 49.06788 | 8.62411 | 120° | 13km/h | 33710m | -35.7m/s | -36.6°C | 0.2% | 7.3hPa | 2.5V | 02:46:00 | 00:00:00 | 00:00:00 | |
| DL1XH1-15 | 2026-09-03 19:02:03 | 49.06788 | 8.62341 | 141° | 9km/h | 34003m | -36.9m/s | -36.2°C | 1.8% | 7hPa | 2.5V | 02:46:51 | 02:32:01 | 00:00:00 | |
| DK7TD | 2026-09-03 19:02:03 | 49.06789 | 8.62385 | 80° | 31km/h | 33821m | -37.3m/s | -36.7°C | 0% | 7.2hPa | 2.5V | 02:47:34 | 02:32:06 | 00:00:00 | |
| DO3MHA-11 | 2026-09-03 19:02:03 | 49.06789 | 8.62385 | 80° | 18km/h | 33821m | -37.3m/s | -36.6°C | 1.8% | 7.1hPa | 2.6V | 00:00:00 | 02:32:06 | 00:00:00 | |
| DN1GJH-1 | 2026-09-03 19:02:02 | 49.06788 | 8.62385 | 81° | 31km/h | 33821m | -37.3m/s | -36.7°C | 0.2% | 7.2hPa | 2.6V | 02:47:00 | 00:00:00 | 00:00:00 | |
| DG1MJG | 2026-09-03 19:02:01 | 49.06787 | 8.62373 | 83° | 33km/h | 33857m | -33.5m/s | -36.7°C | 0.2% | 7.1hPa | 2.6V | 02:47:00 | 00:00:00 | 00:00:00 | |
| DM0DOS-11 | 2026-09-03 19:01:59 | 49.06795 | 8.62348 | 265° | 9km/h | 34149m | -36.5m/s | -35.1°C | 1.7% | 6.8hPa | 2.6V | 02:46:55 | 02:31:57 | 00:00:00 | |
| HSKMA3-T | 2026-09-03 19:01:59 | 49.06787 | 8.62345 | 105° | 15km/h | 33966m | -36.4m/s | -36.5°C | 0% | 7hPa | 2.6V | 02:47:34 | 02:32:02 | 00:00:00 | |
| DL1XH-west | 2026-09-03 19:01:56 | 49.06792 | 8.62341 | 208° | 13km/h | 34076m | -36m/s | -35.5°C | 0% | 6.9hPa | 2.5V | 02:47:34 | 02:31:59 | 00:00:00 | |
| DL1XH1-15 | 2026-09-03 19:01:53 | 49.06779 | 8.62339 | 47° | 15km/h | 34386m | -41.5m/s | -34.3°C | 1.6% | 6.6hPa | 2.6V | 02:47:01 | 02:31:51 | 00:00:00 | |
| DK7TD | 2026-09-03 19:01:53 | 49.06794 | 8.62351 | 321° | 5km/h | 34187m | -38.4m/s | -34.9°C | 0% | 6.8hPa | 2.6V | 02:47:34 | 02:31:56 | 00:00:00 | |
| DL8DAS-14 | 2026-09-03 19:01:51 | 49.06790 | 8.62351 | 19° | 13km/h | 34263m | -40.6m/s | -34.8°C | 0.1% | 6.7hPa | 2.6V | 00:00:00 | 00:00:00 | 00:00:00 | |
| DF3TZ-5 | 2026-09-03 19:01:50 | 49.06782 | 8.62343 | 37° | 16km/h | 34345m | -41.5m/s | -34.4°C | 0.1% | 6.6hPa | 2.6V | 00:00:00 | 00:00:00 | 00:00:00 | |
| DM0DOS-11 | 2026-09-03 19:01:49 | 49.06775 | 8.62330 | 140° | 4km/h | 34550m | -39.7m/s | -33.2°C | 1.5% | 6.4hPa | 2.6V | 02:47:05 | 02:31:47 | 00:00:00 | |
| HSKMA3-T | 2026-09-03 19:01:48 | 49.06779 | 8.62339 | 47° | 15km/h | 34386m | -41.5m/s | -34.3°C | 0% | 6.6hPa | 2.6V | 02:47:34 | 02:31:51 | 00:00:00 | |
| DL1XH-west | 2026-09-03 19:01:46 | 49.06775 | 8.62333 | 54° | 5km/h | 34468m | -42.1m/s | -34°C | 0% | 6.5hPa | 2.5V | 02:47:34 | 02:31:49 | 00:00:00 | |
| DF8AY | 2026-09-03 19:01:45 | 49.06775 | 8.62331 | 79° | 2km/h | 34509m | -41.2m/s | -33.8°C | 0% | 6.5hPa | 2.5V | 02:47:34 | 02:31:48 | 00:00:00 | |
| DL6DJ-15 | 2026-09-03 19:01:45 | 49.06775 | 8.62330 | 140° | 4km/h | 34550m | -39.7m/s | -33.3°C | 0.1% | 6.4hPa | 2.5V | 00:00:00 | 00:00:00 | 00:00:00 | |
| DJ2KF-10 | 2026-09-03 19:01:44 | 49.06775 | 8.62330 | 141° | 7km/h | 34550m | -39.6m/s | -33.2°C | 1.5% | 6.4hPa | 2.5V | 00:00:00 | 02:31:47 | 00:00:00 | |
| DL1XH1-15 | 2026-09-03 19:01:43 | 49.06763 | 8.62314 | 26° | 20km/h | 34818m | -45.1m/s | -31.3°C | 1.2% | 6.2hPa | 2.5V | 02:47:11 | 02:31:41 | 00:00:00 | |
| DK7TD | 2026-09-03 19:01:43 | 49.06776 | 8.62329 | 119° | 4km/h | 34590m | -41.2m/s | -32.6°C | 0% | 6.4hPa | 2.6V | 02:47:34 | 02:31:46 | 00:00:00 | |
| DO3MHA-11 | 2026-09-03 19:01:43 | 49.06775 | 8.62329 | 120° | 18km/h | 34591m | -41.1m/s | -32.6°C | 1.4% | 6.3hPa | 2.6V | 02:47:00 | 02:31:46 | 00:00:00 | |
| OE9MKV-15 | 2026-09-03 19:01:42 | 49.06776 | 8.62327 | 73° | 11km/h | 34634m | -45.6m/s | -32.0°C | 1.3% | 6.3hPa | 2.6V | 02:47:00 | 02:31:45 | 00:00:00 | |
| DM0DOS-11 | 2026-09-03 19:01:39 | 49.06738 | 8.62299 | 19° | 27km/h | 34983m | -37.4m/s | -32.2°C | 1.4% | 6hPa | 2.5V | 02:47:15 | 02:31:37 | 00:00:00 | |
| HSKMA3-T | 2026-09-03 19:01:37 | 49.06758 | 8.62310 | 22° | 26km/h | 34863m | -43.7m/s | -31.6°C | 0% | 6.1hPa | 2.6V | 02:47:34 | 02:31:40 | 00:00:00 | |
| BIOWL1-15 | 2026-09-03 19:01:36 | 49.06752 | 8.62306 | 23° | 27km/h | 34905m | -40.9m/s | -31.9°C | 0% | 6.1hPa | 2.6V | 02:47:34 | 02:31:39 | 00:00:00 | |
| EDDB2-12 | 2026-09-03 19:01:36 | 49.06745 | 8.62303 | 17° | 27km/h | 34945m | -38.7m/s | -32.1°C | 0.1% | 6.1hPa | 2.5V | 00:00:00 | 00:00:00 | 00:00:00 | |
| NBG1-10 | 2026-09-03 19:01:35 | 49.06745 | 8.62303 | 18° | 26km/h | 34945m | -38.7m/s | -32.0°C | 1.3% | 6.0hPa | 2.5V | 00:00:00 | 02:31:38 | 00:00:00 | |
| DL1XH-15 | 2026-09-03 19:01:34 | 49.06719 | 8.62276 | 85° | 18km/h | 35167m | -33.3m/s | -33.1°C | 1.5% | 5.8hPa | 2.5V | 02:47:20 | 02:31:32 | 00:00:00 | |
| DK7TD | 2026-09-03 19:01:33 | 49.06732 | 8.62296 | 21° | 22km/h | 35021m | -39m/s | -32.4°C | 0% | 6hPa | 2.5V | 02:47:34 | 02:31:36 | 00:00:00 | |
| DO3MHA-11 | 2026-09-03 19:01:33 | 49.06732 | 8.62296 | 22° | 18km/h | 35021m | -39.0m/s | -32.4°C | 1.4% | 5.9hPa | 2.6V | 00:00:00 | 02:31:36 | 00:00:00 | |
| DJ2DS-15 | 2026-09-03 19:01:32 | 49.06727 | 8.62292 | 30° | 13km/h | 35061m | -39.1m/s | -32.6°C | 1.4% | 5.9hPa | 2.6V | 00:00:00 | 02:31:35 | 00:00:00 | |
| DB0UT-9 | 2026-09-03 19:01:31 | 49.06727 | 8.62292 | 30° | 22km/h | 35061m | -39.1m/s | -32.6°C | 0.1% | 5.9hPa | 2.6V | 02:47:00 | 00:00:00 | 00:00:00 | |
| DM0DOS-11 | 2026-09-03 19:01:29 | 49.06720 | 8.62243 | 77° | 9km/h | 35352m | -41m/s | -32°C | 1.4% | 5.7hPa | 2.6V | 02:47:25 | 02:31:27 | 00:00:00 | |
| HSKMA3-T | 2026-09-03 19:01:27 | 49.06719 | 8.62261 | 103° | 20km/h | 35236m | -34.9m/s | -32.7°C | 0% | 5.8hPa | 2.5V | 02:47:34 | 02:31:30 | 00:00:00 | |
| DL1XH-west | 2026-09-03 19:01:26 | 49.06720 | 8.62254 | 95° | 18km/h | 35272m | -36.9m/s | -32.5°C | 0% | 5.8hPa | 2.6V | 02:47:34 | 02:31:29 | 00:00:00 | |
| DL1ZP-14 | 2026-09-03 19:01:25 | 49.06720 | 8.62243 | 77° | 9km/h | 35352m | -41.0m/s | -32.0°C | 0.1% | 5.7hPa | 2.6V | 00:00:00 | 00:00:00 | 00:00:00 | |
| DL1XH-15 | 2026-09-03 19:01:24 | 49.06714 | 8.62250 | 287° | 11km/h | 35565m | -42.2m/s | -30.9°C | 1.2% | 5.5hPa | 2.6V | 02:47:30 | 02:31:22 | 00:00:00 | |
| DK7TD | 2026-09-03 19:01:23 | 49.06720 | 8.62241 | 24° | 5km/h | 35394m | -43.3m/s | -31.7°C | 0% | 5.6hPa | 2.5V | 02:47:34 | 02:31:26 | 00:00:00 | |
| PG1ADW-2 | 2026-09-03 19:01:23 | 49.06719 | 8.62241 | 25° | 11km/h | 35394m | -43.3m/s | -31.7°C | 1.3% | 5.6hPa | 2.5V | 02:47:00 | 00:00:00 | 00:00:00 | |
| DN1GJH-1 | 2026-09-03 19:01:22 | 49.06719 | 8.62241 | 25° | 5km/h | 35394m | -43.3m/s | -31.7°C | 0.1% | 5.6hPa | 2.6V | 02:47:00 | 00:00:00 | 00:00:00 | |
| KANTATE | 2026-09-03 19:01:21 | 49.06718 | 8.62241 | 331° | 7km/h | 35438m | -43.2m/s | -31.4°C | 0.1% | 5.7hPa | 2.6V | 02:47:00 | 00:00:00 | 00:00:00 | |
| DL4BBY-15 | 2026-09-03 19:01:20 | 49.06715 | 8.62247 | 302° | 13km/h | 35523m | -42.2m/s | -31.4°C | 0% | 0hPa | 2.6V | 00:00:00 | 00:00:00 | 00:00:00 | |
| DM0DOS-11 | 2026-09-03 19:01:19 | 49.06714 | 8.62266 | 249° | 4km/h | 35781m | -45.9m/s | -30.9°C | 1.2% | 5.3hPa | 2.6V | 02:47:35 | 02:31:17 | 00:00:00 | |
| HSKMA3-T | 2026-09-03 19:01:17 | 49.06713 | 8.62258 | 266° | 9km/h | 35650m | -42.9m/s | -30.9°C | 0% | 5.5hPa | 2.5V | 02:47:34 | 02:31:20 | 00:00:00 | |
| DL1XH-west | 2026-09-03 19:01:15 | 49.06714 | 8.62264 | 258° | 7km/h | 35735m | -45.5m/s | -30.9°C | 0% | 5.4hPa | 2.6V | 02:47:34 | 02:31:18 | 00:00:00 | |
| SONDE2-11 | 2026-09-03 19:01:15 | 49.06714 | 8.62266 | 249° | 4km/h | 35781m | -45.9m/s | -30.9°C | 0.1% | 5.4hPa | 2.6V | 00:00:00 | 00:00:00 | 00:00:00 | |
| DL6DJ-15 | 2026-09-03 19:01:14 | 49.06714 | 8.62268 | 275° | 4km/h | 35826m | -45.4m/s | -30.8°C | 0.1% | 5.3hPa | 2.6V | 00:00:00 | 00:00:00 | 00:00:00 | |
| DL1XH1-15 | 2026-09-03 19:01:13 | 49.06704 | 8.62270 | 2° | 18km/h | 36047m | -43.7m/s | -31.1°C | 1.2% | 5.2hPa | 2.6V | 02:47:41 | 02:31:11 | 00:00:00 | |
| DK7TD | 2026-09-03 19:01:12 | 49.06714 | 8.62269 | 324° | 4km/h | 35871m | -44m/s | -30.8°C | 0% | 5.3hPa | 2.5V | 02:49:16 | 02:31:15 | 00:00:00 | |
| DJ2DS-15 | 2026-09-03 19:01:12 | 49.06714 | 8.62269 | 325° | 13km/h | 35871m | -44.0m/s | -30.7°C | 1.2% | 5.2hPa | 2.5V | 02:47:00 | 02:31:15 | 00:00:00 | |
| DD1CC8 | 2026-09-03 19:01:11 | 49.06713 | 8.62269 | 344° | 5km/h | 35915m | -43.6m/s | -30.8°C | 0.1% | 5.3hPa | 2.5V | 00:00:00 | 00:00:00 | 00:00:00 | |
| DJ2KF-10 | 2026-09-03 19:01:10 | 49.06711 | 8.62270 | 355° | 20km/h | 35959m | -44.8m/s | -30.8°C | 1.2% | 5.2hPa | 2.5V | 00:00:00 | 02:31:13 | 00:00:00 | |
| DM0DOS-11 | 2026-09-03 19:01:09 | 49.06685 | 8.62263 | 23° | 20km/h | 36207m | -33.4m/s | -31.3°C | 1.3% | 5hPa | 2.5V | 02:47:45 | 02:31:07 | 00:00:00 | |
| HSKMA3-T | 2026-09-03 19:01:06 | 49.06694 | 8.62268 | 14° | 18km/h | 36132m | -41.3m/s | -31.3°C | 0% | 5.1hPa | 2.6V | 02:48:25 | 02:31:09 | 00:00:00 | |
| DF1GD-15 | 2026-09-03 19:01:05 | 49.06694 | 8.62267 | 15° | 18km/h | 36133m | -41.3m/s | -31.3°C | 0.1% | 5.1hPa | 2.5V | 02:48:00 | 00:00:00 | 00:00:00 | |
| DL1XH-15 | 2026-09-03 19:01:04 | 49.06669 | 8.62235 | 76° | 16km/h | 36330m | -22.2m/s | -31.3°C | 1.2% | 4.9hPa | 2.5V | 02:47:50 | 02:31:02 | 00:00:00 | |
| BIOWL1-15 | 2026-09-03 19:01:04 | 49.06685 | 8.62263 | 24° | 20km/h | 36207m | -33.4m/s | -31.3°C | 0% | 5hPa | 2.5V | 02:48:25 | 02:31:07 | 00:00:00 | |
| DF8AY | 2026-09-03 19:01:02 | 49.06677 | 8.62254 | 46° | 20km/h | 36265m | -26.7m/s | -31.3°C | 0% | 5hPa | 2.6V | 02:48:25 | 02:31:05 | 00:00:00 | |
| DK7TD | 2026-09-03 19:01:01 | 49.06674 | 8.62248 | 50° | 20km/h | 36289m | -22.5m/s | -31.3°C | 0% | 4.9hPa | 2.6V | 02:49:16 | 02:31:04 | 00:00:00 | |
| HSKMA3-T | 2026-09-03 19:00:55 | 49.06672 | 8.62222 | 122° | 7km/h | 36458m | -20.9m/s | -31.6°C | 0% | 4.8hPa | 2.6V | 02:48:25 | 02:30:58 | 00:00:00 | |
| DB0ND-19 | 2026-09-03 19:00:55 | 49.06672 | 8.62222 | 121° | 7km/h | 36458m | -20.9m/s | -31.6°C | 0.1% | 4.8hPa | 2.5V | 00:00:00 | 00:00:00 | 00:00:00 | |
| BIOWL7-15 | 2026-09-03 19:00:54 | 49.06672 | 8.62222 | 123° | 7km/h | 36458m | -20.9m/s | -31.5°C | 0.1% | 4.8hPa | 2.5V | 00:00:00 | 00:00:00 | 00:00:00 | |
| DL1XH1-15 | 2026-09-03 19:00:53 | 49.06681 | 8.62178 | 98° | 38km/h | 36460m | 4.7m/s | -31.6°C | 1.3% | 4.8hPa | 2.5V | 02:48:01 | 02:30:51 | 00:00:00 | |
| BIOWL1-15 | 2026-09-03 19:00:53 | 49.06674 | 8.62216 | 127° | 9km/h | 36481m | -2.3m/s | -31.5°C | 0% | 4.8hPa | 2.5V | 02:48:25 | 02:30:56 | 00:00:00 | |
| DK7TD | 2026-09-03 19:00:50 | 49.06678 | 8.62202 | 105° | 24km/h | 36469m | 4.1m/s | -31.6°C | 0% | 4.8hPa | 2.6V | 02:49:16 | 02:30:53 | 00:00:00 | |
| DF8AY | 2026-09-03 19:00:49 | 49.06680 | 8.62192 | 102° | 33km/h | 36465m | 4.4m/s | -31.6°C | 0% | 4.8hPa | 2.5V | 02:48:25 | 02:30:52 | 00:00:00 | |
| DF3TZ-5 | 2026-09-03 19:00:48 | 49.06683 | 8.62163 | 97° | 42km/h | 36456m | 4.4m/s | -31.7°C | 0.1% | 4.8hPa | 2.6V | 00:00:00 | 00:00:00 | 00:00:00 | |
| EDDB2-11 | 2026-09-03 19:00:46 | 49.06684 | 8.62146 | 95° | 44km/h | 36452m | 3.8m/s | -31.7°C | 0.1% | 4.8hPa | 2.6V | 00:00:00 | 00:00:00 | 00:00:00 | |
| DF7PN | 2026-09-03 19:00:45 | 49.06685 | 8.62130 | 94° | 40km/h | 36448m | 3.3m/s | -31.7°C | 0.1% | 4.8hPa | 2.6V | 00:00:00 | 00:00:00 | 00:00:00 | |
| DL1XH-15 | 2026-09-03 19:00:44 | 49.06691 | 8.62086 | 197° | 7km/h | 36424m | 4.5m/s | -31.6°C | 1.3% | 4.8hPa | 2.6V | 02:48:10 | 02:30:42 | 00:00:00 | |
| HSKMA3-T | 2026-09-03 19:00:44 | 49.06686 | 8.62115 | 94° | 37km/h | 36445m | 3.2m/s | -31.7°C | 0% | 4.8hPa | 2.6V | 02:48:25 | 02:30:47 | 00:00:00 | |
| BIOWL1-15 | 2026-09-03 19:00:42 | 49.06687 | 8.62094 | 100° | 18km/h | 36438m | 4.2m/s | -31.7°C | 0% | 4.8hPa | 2.5V | 02:48:25 | 02:30:45 | 00:00:00 | |
| DL1XH-west | 2026-09-03 19:00:41 | 49.06688 | 8.62088 | 112° | 11km/h | 36433m | 4.6m/s | -31.7°C | 0% | 4.8hPa | 2.5V | 02:48:25 | 02:30:44 | 00:00:00 | |
| DK7TD | 2026-09-03 19:00:39 | 49.06691 | 8.62086 | 197° | 7km/h | 36424m | 4.5m/s | -31.6°C | 0% | 4.8hPa | 2.6V | 02:49:16 | 02:30:42 | 00:00:00 | |
| DM0DOS-11 | 2026-09-03 19:00:39 | 49.06699 | 8.62074 | 98° | 24km/h | 36405m | 4.5m/s | -31.6°C | 1.3% | 4.8hPa | 2.5V | 02:48:15 | 02:30:37 | 00:00:00 | |
| DF8AY | 2026-09-03 19:00:38 | 49.06693 | 8.62087 | 201° | 9km/h | 36420m | 3.8m/s | -31.6°C | 0% | 4.8hPa | 2.6V | 02:48:25 | 02:30:41 | 00:00:00 | |
| HEMX73-11 | 2026-09-03 19:00:37 | 49.06693 | 8.62086 | 202° | 9km/h | 36420m | 3.8m/s | -31.6°C | 0.1% | 4.8hPa | 2.6V | 02:48:00 | 00:00:00 | 00:00:00 | |
| DM7RM-13 | 2026-09-03 19:00:36 | 49.06695 | 8.62087 | 180° | 7km/h | 36416m | 3.4m/s | -31.6°C | 0.1% | 4.8hPa | 2.6V | 02:48:00 | 00:00:00 | 00:00:00 | |
| DL1XH-15 | 2026-09-03 19:00:34 | 49.06695 | 8.62003 | 76° | 38km/h | 36383m | 3.1m/s | -31.5°C | 1.3% | 4.8hPa | 2.6V | 02:48:20 | 02:30:32 | 00:00:00 | |
| DL1XH1-15 | 2026-09-03 19:00:33 | 49.06693 | 8.61990 | 72° | 29km/h | 36380m | 3.3m/s | -31.4°C | 1.3% | 4.8hPa | 2.6V | 02:48:21 | 02:30:31 | 00:00:00 | |
| HSKMA3-T | 2026-09-03 19:00:33 | 49.06700 | 8.62063 | 92° | 33km/h | 36400m | 5m/s | -31.5°C | 0% | 4.8hPa | 2.6V | 02:48:25 | 02:30:36 | 00:00:00 | |
| BIOWL1-15 | 2026-09-03 19:00:31 | 49.06689 | 8.61976 | 58° | 9km/h | 36371m | 4.9m/s | -31.4°C | 0% | 4.8hPa | 2.6V | 02:48:25 | 02:30:29 | 00:00:00 | |
| DL1XH-west | 2026-09-03 19:00:30 | 49.06697 | 8.62018 | 80° | 42km/h | 36386m | 3.5m/s | -31.5°C | 0% | 4.9hPa | 2.5V | 02:48:25 | 02:30:33 | 00:00:00 | |
| DK7TD | 2026-09-03 19:00:29 | 49.06695 | 8.62003 | 77° | 38km/h | 36383m | 3.1m/s | -31.5°C | 0% | 4.9hPa | 2.6V | 02:49:16 | 02:30:32 | 00:00:00 | |
| DF8AY | 2026-09-03 19:00:28 | 49.06693 | 8.61990 | 73° | 29km/h | 36380m | 3.3m/s | -31.5°C | 0% | 4.8hPa | 2.6V | 02:48:25 | 02:30:31 | 00:00:00 | |
| DL8DAS-15 | 2026-09-03 19:00:27 | 49.06693 | 8.61990 | 74° | 29km/h | 36380m | 3.3m/s | -31.5°C | 0.1% | 4.8hPa | 2.5V | 00:00:00 | 00:00:00 | 00:00:00 | |
| DO1YAY-16 | 2026-09-03 19:00:26 | 49.06688 | 8.61975 | 351° | 2km/h | 36367m | 5.3m/s | -31.4°C | 0.1% | 4.8hPa | 2.5V | 00:00:00 | 00:00:00 | 00:00:00 | |
| OE5DXL-15 | 2026-09-03 19:00:25 | 49.06688 | 8.61975 | 352° | 16km/h | 36367m | 5.2m/s | 0°C | 0% | 0hPa | 2.5V | 00:00:00 | 00:00:00 | 00:00:00 | |
| DL1XH-15 | 2026-09-03 19:00:24 | 49.06689 | 8.61979 | 75° | 16km/h | 36340m | 4.5m/s | -31.3°C | 1.3% | 4.9hPa | 2.5V | 02:48:30 | 02:30:22 | 00:00:00 | |
| DB0ND-19 | 2026-09-03 19:00:24 | 49.06688 | 8.61979 | 260° | 9km/h | 36357m | 4.6m/s | -31.4°C | 0.1% | 4.9hPa | 2.5V | 00:00:00 | 00:00:00 | 00:00:00 | |
| DL1XH1-15 | 2026-09-03 19:00:23 | 49.06687 | 8.61971 | 73° | 27km/h | 36336m | 5.2m/s | -31.3°C | 1.3% | 4.9hPa | 2.5V | 02:48:31 | 02:30:21 | 00:00:00 | |
| HSKMA3-T | 2026-09-03 19:00:22 | 49.06689 | 8.61983 | 251° | 9km/h | 36352m | 3.8m/s | -31.4°C | 0% | 4.9hPa | 2.6V | 02:49:16 | 02:30:25 | 00:00:00 | |
| BIOWL1-15 | 2026-09-03 19:00:20 | 49.06689 | 8.61984 | 85° | 7km/h | 36345m | 3.8m/s | -31.3°C | 0% | 4.9hPa | 2.5V | 02:49:16 | 02:30:23 | 00:00:00 | |
| DK7TD | 2026-09-03 19:00:19 | 49.06689 | 8.61979 | 76° | 16km/h | 36340m | 4.5m/s | -31.3°C | 0% | 4.9hPa | 2.5V | 02:49:16 | 02:30:22 | 00:00:00 | |
| DF8AY | 2026-09-03 19:00:17 | 49.06685 | 8.61960 | 70° | 37km/h | 36330m | 5.4m/s | -31.3°C | 0% | 4.9hPa | 2.6V | 02:50:07 | 02:30:20 | 00:00:00 | |
| KANTATE | 2026-09-03 19:00:16 | 49.06684 | 8.61960 | 71° | 37km/h | 36331m | 5.4m/s | -31.3°C | 0.1% | 4.9hPa | 2.6V | 02:49:00 | 00:00:00 | 00:00:00 | |
| EDDB2-11 | 2026-09-03 19:00:15 | 49.06672 | 8.61916 | 61° | 40km/h | 36318m | 3.1m/s | -31.2°C | 0.1% | 4.9hPa | 2.6V | 00:00:00 | 00:00:00 | 00:00:00 | |
| DL1XH-15 | 2026-09-03 19:00:14 | 49.06656 | 8.61891 | 287° | 11km/h | 36296m | 5.6m/s | -31.2°C | 1.3% | 4.9hPa | 2.6V | 02:48:40 | 02:30:12 | 00:00:00 | |
| DB0NH | 2026-09-03 19:00:14 | 49.06672 | 8.61916 | 62° | 24km/h | 36318m | 3.1m/s | -31.2°C | 1.3% | 4.9hPa | 2.5V | 02:48:00 | 02:30:17 | 00:00:00 | |
| DL1XH1-15 | 2026-09-03 19:00:13 | 49.06655 | 8.61896 | 269° | 16km/h | 36291m | 5m/s | -31.2°C | 1.3% | 4.9hPa | 2.6V | 02:48:41 | 02:30:11 | 00:00:00 | |
| BIOWL1-15 | 2026-09-03 19:00:11 | 49.06655 | 8.61891 | 287° | 11km/h | 36296m | 5.6m/s | -31.2°C | 0% | 4.9hPa | 2.6V | 02:49:16 | 02:30:12 | 00:00:00 | |
| HSKMA3-T | 2026-09-03 19:00:11 | 49.06659 | 8.61890 | 34° | 15km/h | 36307m | 4.6m/s | -31.2°C | 0% | 4.9hPa | 2.5V | 02:49:16 | 02:30:14 | 00:00:00 | |
| DL1XH-west | 2026-09-03 19:00:10 | 49.06657 | 8.61889 | 346° | 7km/h | 36302m | 5.5m/s | -31.2°C | 0% | 4.9hPa | 2.6V | 02:49:16 | 02:30:13 | 00:00:00 | |
| DK7TD | 2026-09-03 19:00:08 | 49.06655 | 8.61896 | 269° | 16km/h | 36291m | 5m/s | -31.2°C | 0% | 4.9hPa | 2.6V | 02:49:16 | 02:30:11 | 00:00:00 | |
| DF8AY | 2026-09-03 19:00:06 | 49.06656 | 8.61908 | 266° | 13km/h | 36283m | 3m/s | -31.3°C | 0% | 4.9hPa | 2.5V | 02:50:07 | 02:30:09 | 00:00:00 | |
| DF1GD-15 | 2026-09-03 19:00:05 | 49.06656 | 8.61908 | 267° | 13km/h | 36283m | 3.0m/s | -31.3°C | 0.1% | 4.9hPa | 2.6V | 02:49:00 | 00:00:00 | 00:00:00 | |
| DL1XH-15 | 2026-09-03 19:00:04 | 49.06630 | 8.61861 | 50° | 47km/h | 36252m | 3.7m/s | -31.4°C | 1.3% | 5hPa | 2.6V | 02:48:50 | 02:30:02 | 00:00:00 | |
| DL1XH1-15 | 2026-09-03 19:00:03 | 49.06623 | 8.61849 | 45° | 42km/h | 36249m | 3m/s | -31.3°C | 1.3% | 5hPa | 2.6V | 02:48:51 | 02:30:01 | 00:00:00 | |
| HSKMA3-T | 2026-09-03 19:00:00 | 49.06637 | 8.61875 | 53° | 46km/h | 36257m | 4.7m/s | -31.3°C | 0% | 5hPa | 2.6V | 02:49:16 | 02:30:03 | 00:00:00 | |
| BIOWL1-15 | 2026-09-03 19:00:00 | 49.06623 | 8.61849 | 46° | 42km/h | 36249m | 3.1m/s | -31.4°C | 0% | 5hPa | 2.6V | 02:49:16 | 02:30:01 | 00:00:00 | |
| DL1XH-west | 2026-09-03 18:59:59 | 49.06630 | 8.61861 | 50° | 47km/h | 36253m | 3.7m/s | -31.4°C | 0% | 5hPa | 2.6V | 02:49:16 | 02:30:02 | 00:00:00 | |
| DF8AY | 2026-09-03 18:59:56 | 49.06609 | 8.61832 | 26° | 27km/h | 36242m | 4m/s | -31.4°C | 0% | 4.9hPa | 2.5V | 02:50:07 | 02:29:59 | 00:00:00 | |
| DO1YAY-16 | 2026-09-03 18:59:55 | 49.06598 | 8.61831 | 336° | 16km/h | 36233m | 5.5m/s | -31.4°C | 0.1% | 5.0hPa | 2.5V | 00:00:00 | 00:00:00 | 00:00:00 | |
| DL1XH-15 | 2026-09-03 18:59:54 | 49.06582 | 8.61851 | 3° | 16km/h | 36210m | 4m/s | -31.4°C | 1.3% | 5hPa | 2.5V | 02:49:00 | 02:29:52 | 00:00:00 | |
| DL1XH1-15 | 2026-09-03 18:59:53 | 49.06578 | 8.61849 | 26° | 24km/h | 36206m | 5m/s | -31.4°C | 1.3% | 5hPa | 2.6V | 02:49:01 | 02:29:51 | 00:00:00 | |
| HSKMA3-T | 2026-09-03 18:59:49 | 49.06582 | 8.61851 | 3° | 16km/h | 36210m | 4m/s | -31.4°C | 0% | 5hPa | 2.5V | 02:49:16 | 02:29:52 | 00:00:00 | |
| DL1XH-west | 2026-09-03 18:59:48 | 49.06578 | 8.61849 | 26° | 24km/h | 36206m | 5m/s | -31.4°C | 0% | 5hPa | 2.6V | 02:49:16 | 02:29:51 | 00:00:00 | |
| BIOWL1-15 | 2026-09-03 18:59:47 | 49.06572 | 8.61843 | 38° | 31km/h | 36200m | 5.7m/s | -31.4°C | 0% | 5hPa | 2.6V | 02:49:16 | 02:29:50 | 00:00:00 | |
| DF8AY | 2026-09-03 18:59:46 | 49.06565 | 8.61834 | 43° | 40km/h | 36195m | 5.6m/s | -31.4°C | 0% | 5hPa | 2.6V | 02:50:07 | 02:29:49 | 00:00:00 | |
| DF3TZ-5 | 2026-09-03 18:59:45 | 49.06558 | 8.61823 | 45° | 44km/h | 36190m | 4.9m/s | -31.4°C | 0.1% | 5.0hPa | 2.6V | 00:00:00 | 00:00:00 | 00:00:00 | |
| DL1XH-15 | 2026-09-03 18:59:44 | 49.06521 | 8.61785 | 317° | 15km/h | 36165m | 5.4m/s | -31.4°C | 1.3% | 5hPa | 2.6V | 02:49:10 | 02:29:42 | 00:00:00 | |
| HSKMA3-T | 2026-09-03 18:59:39 | 49.06521 | 8.61785 | 318° | 15km/h | 36165m | 5.4m/s | -31.4°C | 0% | 5hPa | 2.6V | 02:49:16 | 02:29:42 | 00:00:00 | |
| BIOWL1-15 | 2026-09-03 18:59:38 | 49.06516 | 8.61805 | 287° | 20km/h | 36151m | 3.5m/s | -31.4°C | 0% | 5hPa | 2.5V | 02:49:16 | 02:29:39 | 00:00:00 | |
| DL1XH-west | 2026-09-03 18:59:38 | 49.06519 | 8.61790 | 293° | 18km/h | 36160m | 5.4m/s | -31.4°C | 0% | 5hPa | 2.5V | 02:49:16 | 02:29:41 | 00:00:00 | |
| DK7TD | 2026-09-03 18:59:35 | 49.06514 | 8.61811 | 301° | 18km/h | 36148m | 3.2m/s | -31.4°C | 0% | 5hPa | 2.6V | 02:49:16 | 02:29:38 | 00:00:00 | |
| DF8AY | 2026-09-03 18:59:34 | 49.06511 | 8.61816 | 331° | 16km/h | 36145m | 3.5m/s | -31.4°C | 0% | 5.1hPa | 2.6V | 02:50:07 | 02:29:37 | 00:00:00 | |
| HSKMA3-T | 2026-09-03 18:59:29 | 49.06483 | 8.61791 | 48° | 37km/h | 36120m | 4.2m/s | -31.4°C | 0% | 5.1hPa | 2.6V | 02:50:07 | 02:29:32 | 00:00:00 | |
| DL1XH-west | 2026-09-03 18:59:28 | 49.06478 | 8.61781 | 52° | 33km/h | 36116m | 3.6m/s | -31.4°C | 0% | 5hPa | 2.6V | 02:50:07 | 02:29:31 | 00:00:00 | |
| BIOWL1-15 | 2026-09-03 18:59:26 | 49.06471 | 8.61767 | 57° | 15km/h | 36109m | 4m/s | -31.4°C | 0% | 5hPa | 2.5V | 02:50:07 | 02:29:29 | 00:00:00 | |
| DK7TD | 2026-09-03 18:59:25 | 49.06470 | 8.61764 | 55° | 4km/h | 36104m | 4.7m/s | -31.4°C | 0% | 5.1hPa | 2.5V | 02:50:07 | 02:29:28 | 00:00:00 | |
| DO1YAY-16 | 2026-09-03 18:59:24 | 49.06471 | 8.61768 | 250° | 13km/h | 36094m | 5.1m/s | -31.3°C | 0.1% | 5.1hPa | 2.6V | 00:00:00 | 00:00:00 | 00:00:00 | |
| DL1XH1-15 | 2026-09-03 18:59:23 | 49.06466 | 8.61794 | 1° | 20km/h | 36075m | 4.5m/s | -31.2°C | 1.3% | 5.1hPa | 2.6V | 02:49:31 | 02:29:21 | 00:00:00 | |
| DF8AY | 2026-09-03 18:59:22 | 49.06472 | 8.61774 | 256° | 18km/h | 36089m | 4.4m/s | -31.3°C | 0% | 5.1hPa | 2.5V | 02:50:07 | 02:29:25 | 00:00:00 | |
| DO3MHA-11 | 2026-09-03 18:59:22 | 49.06472 | 8.61774 | 256° | 27km/h | 36090m | 4.3m/s | -31.2°C | 1.3% | 5.0hPa | 2.5V | 00:00:00 | 02:29:25 | 00:00:00 | |
| CB1BUN | 2026-09-03 18:59:21 | 49.06471 | 8.61774 | 257° | 18km/h | 36090m | 4.4m/s | -31.3°C | 0.1% | 5.1hPa | 2.5V | 02:50:00 | 00:00:00 | 00:00:00 | |
| BIOWL7-15 | 2026-09-03 18:59:20 | 49.06472 | 8.61781 | 268° | 18km/h | 36086m | 3.5m/s | -31.3°C | 0.1% | 5.1hPa | 2.5V | 00:00:00 | 00:00:00 | 00:00:00 | |
| DM0DOS-11 | 2026-09-03 18:59:19 | 49.06436 | 8.61770 | 36° | 40km/h | 36055m | 3.4m/s | -31.2°C | 1.3% | 5.1hPa | 2.5V | 02:49:35 | 02:29:17 | 00:00:00 | |
| HSKMA3-T | 2026-09-03 18:59:18 | 49.06466 | 8.61794 | 1° | 20km/h | 36075m | 4.5m/s | -31.2°C | 0% | 5.1hPa | 2.6V | 02:50:07 | 02:29:21 | 00:00:00 | |
| DL1XH-west | 2026-09-03 18:59:17 | 49.06460 | 8.61792 | 19° | 27km/h | 36070m | 5.4m/s | -31.2°C | 0% | 5.1hPa | 2.6V | 02:50:07 | 02:29:20 | 00:00:00 | |
| BIOWL1-15 | 2026-09-03 18:59:15 | 49.06444 | 8.61779 | 34° | 40km/h | 36059m | 4.7m/s | -31.2°C | 0% | 5.1hPa | 2.5V | 02:50:07 | 02:29:18 | 00:00:00 | |
| DK7TD | 2026-09-03 18:59:13 | 49.06428 | 8.61762 | 36° | 35km/h | 36052m | 2.7m/s | -31.2°C | 0% | 5.1hPa | 2.5V | 02:50:07 | 02:29:16 | 00:00:00 | |
| DF8AY | 2026-09-03 18:59:12 | 49.06422 | 8.61756 | 31° | 24km/h | 36049m | 2.9m/s | -31.2°C | 0% | 5.1hPa | 2.6V | 02:50:07 | 02:29:15 | 00:00:00 | |
| DO3MHA-11 | 2026-09-03 18:59:12 | 49.06422 | 8.61756 | 32° | 22km/h | 36049m | 2.9m/s | -31.2°C | 1.3% | 5.0hPa | 2.6V | 02:49:00 | 02:29:15 | 00:00:00 | |
| DJ2DS-15 | 2026-09-03 18:59:11 | 49.06418 | 8.61753 | 12° | 27km/h | 36046m | 4.0m/s | -31.2°C | 1.3% | 5.0hPa | 2.6V | 02:49:00 | 02:29:14 | 00:00:00 | |
| BIOWL9-15 | 2026-09-03 18:59:10 | 49.06416 | 8.61759 | 257° | 18km/h | 36035m | 6.4m/s | -31.3°C | 0.1% | 5.1hPa | 2.5V | 00:00:00 | 00:00:00 | 00:00:00 | |
| DM0DOS-11 | 2026-09-03 18:59:09 | 49.06428 | 8.61810 | 268° | 15km/h | 36015m | 2.4m/s | -31.1°C | 1.3% | 5.1hPa | 2.5V | 02:49:45 | 02:29:07 | 00:00:00 | |
| HSKMA3-T | 2026-09-03 18:59:08 | 49.06418 | 8.61768 | 249° | 29km/h | 36029m | 6.1m/s | -31.3°C | 0% | 5.1hPa | 2.5V | 02:50:07 | 02:29:11 | 00:00:00 | |
| DL1XH-west | 2026-09-03 18:59:07 | 49.06421 | 8.61779 | 247° | 35km/h | 36023m | 4.7m/s | -31.2°C | 0% | 5.1hPa | 2.5V | 02:50:07 | 02:29:10 | 00:00:00 | |
| BIOWL1-15 | 2026-09-03 18:59:05 | 49.06427 | 8.61802 | 252° | 26km/h | 36017m | 1.8m/s | -31.1°C | 0% | 5.1hPa | 2.6V | 02:50:07 | 02:29:08 | 00:00:00 | |
| DF1GD-15 | 2026-09-03 18:59:04 | 49.06427 | 8.61802 | 253° | 26km/h | 36018m | 1.8m/s | -31.1°C | 0.1% | 5.1hPa | 2.5V | 02:50:00 | 00:00:00 | 00:00:00 | |
| DL1XH1-15 | 2026-09-03 18:59:03 | 49.06395 | 8.61778 | 37° | 42km/h | 35987m | 1.8m/s | -31°C | 1.3% | 5.1hPa | 2.5V | 02:49:51 | 02:29:01 | 00:00:00 | |
| DK7TD | 2026-09-03 18:59:03 | 49.06427 | 8.61814 | 332° | 9km/h | 36012m | 3.9m/s | -31.1°C | 0% | 5.2hPa | 2.5V | 02:50:07 | 02:29:06 | 00:00:00 | |
| DF8AY | 2026-09-03 18:59:01 | 49.06419 | 8.61808 | 37° | 31km/h | 36001m | 6.4m/s | -31.1°C | 0% | 5.1hPa | 2.6V | 02:50:07 | 02:29:04 | 00:00:00 | |
| HSKMA3-T | 2026-09-03 18:58:57 | 49.06388 | 8.61771 | 28° | 31km/h | 35986m | 1.1m/s | -31°C | 0% | 5.1hPa | 2.5V | 02:50:07 | 02:29:00 | 00:00:00 | |
| DL1XH-west | 2026-09-03 18:58:56 | 49.06382 | 8.61768 | 4° | 22km/h | 35984m | 2.2m/s | -31°C | 0% | 5.1hPa | 2.5V | 02:50:07 | 02:28:59 | 00:00:00 | |
| HEMX73-11 | 2026-09-03 18:58:55 | 49.06382 | 8.61768 | 5° | 22km/h | 35985m | 2.2m/s | -31.0°C | 0.1% | 5.1hPa | 2.6V | 02:50:00 | 00:00:00 | 00:00:00 | |
| DM0DOS-11 | 2026-09-03 18:58:54 | 49.06380 | 8.61863 | 269° | 38km/h | 35955m | 0.9m/s | -31°C | 1.3% | 5.2hPa | 2.6V | 02:50:00 | 02:28:52 | 00:00:00 | |
| BIOWL1-15 | 2026-09-03 18:58:54 | 49.06375 | 8.61777 | 282° | 27km/h | 35975m | 6.4m/s | -31°C | 0% | 5.2hPa | 2.6V | 02:50:07 | 02:28:57 | 00:00:00 | |
| DL1XH1-15 | 2026-09-03 18:58:53 | 49.06379 | 8.61875 | 283° | 26km/h | 35953m | 2.4m/s | -31°C | 1.3% | 5.2hPa | 2.5V | 02:50:01 | 02:28:51 | 00:00:00 | |
| DK7TD | 2026-09-03 18:58:52 | 49.06375 | 8.61807 | 262° | 51km/h | 35962m | 5.7m/s | -31°C | 0% | 5.2hPa | 2.5V | 02:50:07 | 02:28:55 | 00:00:00 | |
| DF8AY | 2026-09-03 18:58:51 | 49.06377 | 8.61827 | 260° | 55km/h | 35958m | 3.2m/s | -31°C | 0% | 5.2hPa | 2.5V | 02:50:07 | 02:28:54 | 00:00:00 | |
| HSKMA3-T | 2026-09-03 18:58:47 | 49.06377 | 8.61882 | 320° | 16km/h | 35949m | 4.7m/s | -31°C | 0% | 5.2hPa | 2.5V | 02:50:07 | 02:28:50 | 00:00:00 | |
| DL1XH-west | 2026-09-03 18:58:46 | 49.06373 | 8.61883 | 11° | 20km/h | 35944m | 6.7m/s | -31°C | 0% | 5.2hPa | 2.6V | 02:50:07 | 02:28:49 | 00:00:00 | |
| DL8DAS-14 | 2026-09-03 18:58:45 | 49.06368 | 8.61879 | 34° | 29km/h | 35937m | 6.9m/s | -31.0°C | 0.1% | 5.2hPa | 2.5V | 00:00:00 | 00:00:00 | 00:00:00 | |
| DM0DOS-11 | 2026-09-03 18:58:44 | 49.06340 | 8.61847 | 271° | 18km/h | 35918m | 5.2m/s | -30.9°C | 1.3% | 5.2hPa | 2.5V | 02:50:10 | 02:28:42 | 00:00:00 | |
| BIOWL1-15 | 2026-09-03 18:58:44 | 49.06361 | 8.61871 | 44° | 38km/h | 35931m | 5.4m/s | -30.9°C | 0% | 5.2hPa | 2.5V | 02:50:07 | 02:28:47 | 00:00:00 | |
| DL1XH1-15 | 2026-09-03 18:58:43 | 49.06341 | 8.61857 | 260° | 33km/h | 35912m | 6.6m/s | -30.9°C | 1.2% | 5.2hPa | 2.5V | 02:50:11 | 02:28:41 | 00:00:00 | |
| DK7TD | 2026-09-03 18:58:41 | 49.06344 | 8.61845 | 37° | 18km/h | 35923m | 1.1m/s | -30.9°C | 0% | 5.2hPa | 2.6V | 02:51:49 | 02:28:44 | 00:00:00 | |
| DL1XH-west | 2026-09-03 18:58:35 | 49.06348 | 8.61911 | 263° | 55km/h | 35897m | 2m/s | -30.9°C | 0% | 5.2hPa | 2.5V | 02:50:58 | 02:28:38 | 00:00:00 | |
| DM0DOS-11 | 2026-09-03 18:58:34 | 49.06328 | 8.61957 | 33° | 33km/h | 35873m | 5.6m/s | -31°C | 1.3% | 5.2hPa | 2.5V | 02:50:20 | 02:28:32 | 00:00:00 | |
| OE5DRO-10 | 2026-09-03 18:58:34 | 49.06349 | 8.61931 | 270° | 31km/h | 35895m | 0.9m/s | -30.9°C | 1.2% | 5.2hPa | 2.6V | 00:00:00 | 00:00:00 | 00:00:00 | |
| DL1XH-15 | 2026-09-03 18:58:33 | 49.06322 | 8.61950 | 42° | 35km/h | 35869m | 3.1m/s | -31.1°C | 1.3% | 5.2hPa | 2.6V | 02:50:21 | 02:28:31 | 00:00:00 | |
| DF8AY | 2026-09-03 18:58:30 | 49.06335 | 8.61962 | 15° | 27km/h | 35880m | 6.7m/s | -31°C | 0% | 5.2hPa | 2.5V | 02:50:58 | 02:28:33 | 00:00:00 | |
| DK7TD | 2026-09-03 18:58:27 | 49.06316 | 8.61941 | 47° | 27km/h | 35867m | 1.2m/s | -31.1°C | 0% | 5.2hPa | 2.6V | 02:51:49 | 02:28:30 | 00:00:00 | |
| DL1XH-west | 2026-09-03 18:58:25 | 49.06312 | 8.61935 | 266° | 4km/h | 35864m | 2.9m/s | -31.3°C | 0% | 5.3hPa | 2.5V | 02:50:58 | 02:28:28 | 00:00:00 | |
| DL1XH1-15 | 2026-09-03 18:58:23 | 49.06337 | 8.62045 | 265° | 42km/h | 35834m | 1.6m/s | -31.1°C | 1.3% | 5.3hPa | 2.6V | 02:50:31 | 02:28:21 | 00:00:00 | |
| BIOWL1-15 | 2026-09-03 18:58:21 | 49.06326 | 8.61984 | 248° | 60km/h | 35841m | 5.1m/s | -31.4°C | 0% | 5.3hPa | 2.5V | 02:50:58 | 02:28:24 | 00:00:00 | |
| DF8AY | 2026-09-03 18:58:19 | 49.06335 | 8.62027 | 257° | 55km/h | 35835m | 1.1m/s | -31.3°C | 0% | 5.3hPa | 2.6V | 02:50:58 | 02:28:22 | 00:00:00 | |
| HSKMA3-T | 2026-09-03 18:58:14 | 49.06326 | 8.62066 | 34° | 26km/h | 35813m | 6.2m/s | -31°C | 0% | 5.3hPa | 2.6V | 02:50:58 | 02:28:17 | 00:00:00 | |
| DL1XH-15 | 2026-09-03 18:58:12 | 49.06330 | 8.62059 | 231° | 47km/h | 35787m | 6.7m/s | -31.1°C | 1.2% | 5.3hPa | 2.6V | 02:50:42 | 02:28:10 | 00:00:00 | |
| DK7TD | 2026-09-03 18:58:11 | 49.06315 | 8.62043 | 80° | 15km/h | 35804m | 1.1m/s | -31.1°C | 0% | 5.3hPa | 2.5V | 02:51:49 | 02:28:14 | 00:00:00 | |
| DL1XH-west | 2026-09-03 18:58:04 | 49.06352 | 8.62114 | 246° | 55km/h | 35774m | 1.5m/s | -31.2°C | 0% | 5.3hPa | 2.5V | 02:50:58 | 02:28:07 | 00:00:00 | |
| HSKMA3-T | 2026-09-03 18:58:03 | 49.06356 | 8.62131 | 253° | 42km/h | 35772m | 1.6m/s | -31.2°C | 0% | 5.3hPa | 2.6V | 02:50:58 | 02:28:06 | 00:00:00 | |
| PG1ADW-2 | 2026-09-03 18:58:03 | 49.06356 | 8.62131 | 253° | 27km/h | 35773m | 1.6m/s | -31.2°C | 1.3% | 5.3hPa | 2.6V | 00:00:00 | 00:00:00 | 00:00:00 | |
| DL1XH-15 | 2026-09-03 18:58:02 | 49.06347 | 8.62134 | 70° | 27km/h | 35743m | 2.4m/s | -31.2°C | 1.3% | 5.4hPa | 2.6V | 02:50:52 | 02:28:00 | 00:00:00 | |
| DF8AY | 2026-09-03 18:58:01 | 49.06358 | 8.62152 | 287° | 15km/h | 35766m | 5.4m/s | -31.2°C | 0% | 5.3hPa | 2.5V | 02:50:58 | 02:28:04 | 00:00:00 | |
| BIOWL1-15 | 2026-09-03 18:58:00 | 49.06349 | 8.62143 | 60° | 29km/h | 35747m | 4.7m/s | -31.2°C | 0% | 5.3hPa | 2.6V | 02:50:58 | 02:28:01 | 00:00:00 | |
| DK7TD | 2026-09-03 18:58:00 | 49.06356 | 8.62154 | 7° | 11km/h | 35759m | 6.9m/s | -31.2°C | 0% | 5.3hPa | 2.5V | 02:51:49 | 02:28:03 | 00:00:00 | |
| DL1XH-west | 2026-09-03 18:57:53 | 49.06354 | 8.62123 | 219° | 31km/h | 35730m | 6.1m/s | -31.2°C | 0% | 5.3hPa | 2.6V | 02:50:58 | 02:27:56 | 00:00:00 | |
| HSKMA3-T | 2026-09-03 18:57:52 | 49.06361 | 8.62133 | 229° | 44km/h | 35724m | 6.5m/s | -31.2°C | 0% | 5.3hPa | 2.5V | 02:50:58 | 02:27:55 | 00:00:00 | |
| DM0DOS-11 | 2026-09-03 18:57:52 | 49.06384 | 8.62209 | 279° | 20km/h | 35708m | 3.7m/s | -31°C | 1.3% | 5.4hPa | 2.5V | 02:51:02 | 02:27:50 | 00:00:00 | |
| BIOWL1-15 | 2026-09-03 18:57:49 | 49.06380 | 8.62184 | 250° | 46km/h | 35713m | 1.3m/s | -31.1°C | 0% | 5.3hPa | 2.6V | 02:52:40 | 02:27:52 | 00:00:00 | |
| DF8AY | 2026-09-03 18:57:48 | 49.06383 | 8.62198 | 260° | 33km/h | 35711m | 1.7m/s | -31°C | 0% | 5.4hPa | 2.6V | 02:52:40 | 02:27:51 | 00:00:00 | |
| DL1ZP-14 | 2026-09-03 18:57:47 | 49.06384 | 8.62209 | 279° | 20km/h | 35709m | 3.7m/s | -31.0°C | 0.1% | 5.4hPa | 2.5V | 00:00:00 | 00:00:00 | 00:00:00 | |
| DJ2DS-15 | 2026-09-03 18:57:45 | 49.06378 | 8.62213 | 26° | 20km/h | 35697m | 7.3m/s | -31.0°C | 0.1% | 5.4hPa | 2.5V | 00:00:00 | 00:00:00 | 00:00:00 | |
| DL1XH-west | 2026-09-03 18:57:43 | 49.06367 | 8.62196 | 55° | 38km/h | 35684m | 4m/s | -31°C | 0% | 5.4hPa | 2.5V | 02:51:49 | 02:27:46 | 00:00:00 | |
| PG1ADW-2 | 2026-09-03 18:57:43 | 49.06367 | 8.62196 | 56° | 29km/h | 35685m | 3.9m/s | -30.9°C | 1.3% | 5.3hPa | 2.5V | 00:00:00 | 00:00:00 | 00:00:00 | |
| DM0DOS-11 | 2026-09-03 18:57:42 | 49.06373 | 8.62179 | 227° | 42km/h | 35662m | 6.7m/s | -31°C | 1.3% | 5.4hPa | 2.5V | 02:51:12 | 02:27:40 | 00:00:00 | |
| HSKMA3-T | 2026-09-03 18:57:42 | 49.06362 | 8.62184 | 64° | 35km/h | 35681m | 1.9m/s | -31°C | 0% | 5.4hPa | 2.5V | 02:52:40 | 02:27:45 | 00:00:00 | |
| DK7TD | 2026-09-03 18:57:39 | 49.06362 | 8.62166 | 190° | 15km/h | 35674m | 4.7m/s | -31°C | 0% | 5.4hPa | 2.6V | 02:51:49 | 02:27:42 | 00:00:00 | |
| DJ2KF-10 | 2026-09-03 18:57:39 | 49.06362 | 8.62166 | 190° | 31km/h | 35674m | 4.7m/s | -30.9°C | 1.3% | 5.4hPa | 2.6V | 02:51:00 | 02:27:42 | 00:00:00 | |
| DH7VM-15 | 2026-09-03 18:57:38 | 49.06362 | 8.62166 | 191° | 15km/h | 35674m | 4.7m/s | -31.0°C | 0.1% | 5.4hPa | 2.6V | 00:00:00 | 00:00:00 | 00:00:00 | |
| BIOWL9-15 | 2026-09-03 18:57:37 | 49.06380 | 8.62192 | 235° | 49km/h | 35656m | 5.1m/s | -31.0°C | 0.1% | 5.4hPa | 2.6V | 00:00:00 | 00:00:00 | 00:00:00 | |
| OE5DRO-10 | 2026-09-03 18:57:36 | 49.06380 | 8.62192 | 236° | 33km/h | 35656m | 5.1m/s | -31.0°C | 1.3% | 5.3hPa | 2.6V | 00:00:00 | 00:00:00 | 00:00:00 | |
| DN1GJH-1 | 2026-09-03 18:57:35 | 49.06380 | 8.62192 | 236° | 51km/h | 35656m | 5.1m/s | -31.0°C | 0.1% | 5.4hPa | 2.6V | 02:51:00 | 00:00:00 | 00:00:00 | |
| DL1XH1-15 | 2026-09-03 18:57:33 | 49.06379 | 8.62227 | 62° | 40km/h | 35622m | 4.5m/s | -31°C | 1.3% | 5.4hPa | 2.6V | 02:51:21 | 02:27:31 | 00:00:00 | |
| DL1XH-west | 2026-09-03 18:57:33 | 49.06394 | 8.62238 | 259° | 29km/h | 35648m | 1.8m/s | -31°C | 0% | 5.4hPa | 2.6V | 02:51:49 | 02:27:36 | 00:00:00 | |
| HSKMA3-T | 2026-09-03 18:57:32 | 49.06395 | 8.62246 | 283° | 16km/h | 35645m | 3.5m/s | -31°C | 0% | 5.4hPa | 2.5V | 02:52:40 | 02:27:35 | 00:00:00 | |
| BIOWL1-15 | 2026-09-03 18:57:28 | 49.06379 | 8.62227 | 63° | 40km/h | 35622m | 4.5m/s | -31°C | 0% | 5.4hPa | 2.6V | 02:52:40 | 02:27:31 | 00:00:00 | |
| EDDB2-12 | 2026-09-03 18:57:27 | 49.06375 | 8.62213 | 72° | 37km/h | 35619m | 2.5m/s | -31.0°C | 0.1% | 5.4hPa | 2.5V | 00:00:00 | 00:00:00 | 00:00:00 | |
| DB0UT-9 | 2026-09-03 18:57:25 | 49.06373 | 8.62201 | 87° | 29km/h | 35617m | 1.8m/s | -31.0°C | 0.1% | 5.4hPa | 2.5V | 02:51:00 | 00:00:00 | 00:00:00 | |
| DL1XH1-15 | 2026-09-03 18:57:23 | 49.06408 | 8.62245 | 265° | 26km/h | 35584m | 2.4m/s | -31°C | 1.3% | 5.4hPa | 2.5V | 02:51:31 | 02:27:21 | 00:00:00 | |
| DL1XH-west | 2026-09-03 18:57:22 | 49.06389 | 8.62195 | 221° | 37km/h | 35599m | 6.5m/s | -31°C | 0% | 5.5hPa | 2.5V | 02:51:49 | 02:27:25 | 00:00:00 | |
| HSKMA3-T | 2026-09-03 18:57:20 | 49.06402 | 8.62220 | 241° | 44km/h | 35588m | 3.2m/s | -31°C | 0% | 5.5hPa | 2.6V | 02:52:40 | 02:27:23 | 00:00:00 | |
| DB0UT-7 | 2026-09-03 18:57:20 | 49.06401 | 8.62220 | 241° | 29km/h | 35589m | 3.1m/s | -30.9°C | 1.3% | 5.4hPa | 2.6V | 00:00:00 | 00:00:00 | 00:00:00 | |
| DM0DOS-11 | 2026-09-03 18:57:19 | 49.06394 | 8.62242 | 52° | 37km/h | 35563m | 6m/s | -30.9°C | 1.3% | 5.5hPa | 2.6V | 02:51:35 | 02:27:17 | 00:00:00 | |
| DK7TD | 2026-09-03 18:57:18 | 49.06407 | 8.62245 | 266° | 26km/h | 35584m | 2.4m/s | -31°C | 0% | 5.5hPa | 2.5V | 02:51:49 | 02:27:21 | 00:00:00 | |
| BIOWL1-15 | 2026-09-03 18:57:17 | 49.06399 | 8.62251 | 38° | 26km/h | 35570m | 6.5m/s | -30.9°C | 0% | 5.5hPa | 2.6V | 02:52:40 | 02:27:18 | 00:00:00 | |
| DF8AY | 2026-09-03 18:57:17 | 49.06407 | 8.62252 | 301° | 15km/h | 35580m | 3.8m/s | -30.9°C | 0% | 5.5hPa | 2.5V | 02:52:40 | 02:27:20 | 00:00:00 | |
| OE9MKV-15 | 2026-09-03 18:57:17 | 49.06407 | 8.62252 | 302° | 26km/h | 35581m | 3.7m/s | -30.9°C | 1.3% | 5.4hPa | 2.5V | 00:00:00 | 02:27:20 | 00:00:00 | |
| DL1ZP-14 | 2026-09-03 18:57:16 | 49.06404 | 8.62254 | 5° | 15km/h | 35576m | 5.6m/s | -30.9°C | 0.1% | 5.5hPa | 2.5V | 00:00:00 | 00:00:00 | 00:00:00 | |
| DM7RM-13 | 2026-09-03 18:57:15 | 49.06404 | 8.62254 | 6° | 15km/h | 35576m | 5.6m/s | -30.9°C | 0.1% | 5.5hPa | 2.6V | 00:00:00 | 00:00:00 | 00:00:00 | |
| DN1GJH-1 | 2026-09-03 18:57:14 | 49.06399 | 8.62251 | 39° | 26km/h | 35570m | 6.5m/s | -30.9°C | 0.1% | 5.5hPa | 2.6V | 02:51:00 | 00:00:00 | 00:00:00 | |
| DL1XH1-15 | 2026-09-03 18:57:13 | 49.06391 | 8.62190 | 203° | 22km/h | 35540m | 6.2m/s | -30.9°C | 1.2% | 5.5hPa | 2.6V | 02:51:41 | 02:27:11 | 00:00:00 | |
| DL1XH-west | 2026-09-03 18:57:11 | 49.06383 | 8.62203 | 85° | 29km/h | 35552m | 2m/s | -30.9°C | 0% | 5.5hPa | 2.5V | 02:51:49 | 02:27:14 | 00:00:00 | |
| HSKMA3-T | 2026-09-03 18:57:09 | 49.06386 | 8.62189 | 159° | 15km/h | 35545m | 5.1m/s | -30.9°C | 0% | 5.5hPa | 2.6V | 02:52:40 | 02:27:12 | 00:00:00 | |
| DK7TD | 2026-09-03 18:57:08 | 49.06391 | 8.62190 | 204° | 22km/h | 35540m | 6.2m/s | -30.9°C | 0% | 5.5hPa | 2.6V | 02:51:49 | 02:27:11 | 00:00:00 | |
| BIOWL1-15 | 2026-09-03 18:57:07 | 49.06396 | 8.62196 | 225° | 31km/h | 35534m | 6.1m/s | -30.9°C | 0% | 5.5hPa | 2.5V | 02:52:40 | 02:27:10 | 00:00:00 | |
| BIOWL9-15 | 2026-09-03 18:57:06 | 49.06406 | 8.62219 | 250° | 37km/h | 35525m | 2.9m/s | -30.9°C | 0.1% | 5.5hPa | 2.5V | 00:00:00 | 00:00:00 | 00:00:00 | |
| DL6DJ-15 | 2026-09-03 18:57:05 | 49.06406 | 8.62219 | 250° | 37km/h | 35525m | 2.9m/s | -30.9°C | 0.1% | 5.5hPa | 2.5V | 00:00:00 | 00:00:00 | 00:00:00 | |
| DB0UT-9 | 2026-09-03 18:57:04 | 49.06406 | 8.62219 | 251° | 37km/h | 35525m | 2.9m/s | -30.9°C | 0.1% | 5.5hPa | 2.5V | 02:51:00 | 00:00:00 | 00:00:00 | |
| DL1XH1-15 | 2026-09-03 18:57:03 | 49.06373 | 8.62216 | 51° | 49km/h | 35493m | 3.3m/s | -30.9°C | 1.2% | 5.5hPa | 2.5V | 02:51:51 | 02:27:01 | 00:00:00 | |
| DF8AY | 2026-09-03 18:57:03 | 49.06407 | 8.62240 | 294° | 22km/h | 35520m | 2.8m/s | -30.9°C | 0% | 5.5hPa | 2.6V | 02:52:40 | 02:27:06 | 00:00:00 | |
| DL1XH-west | 2026-09-03 18:57:01 | 49.06397 | 8.62246 | 14° | 27km/h | 35510m | 6.4m/s | -30.9°C | 0% | 5.5hPa | 2.6V | 02:51:49 | 02:27:04 | 00:00:00 | |
| HSKMA3-T | 2026-09-03 18:56:59 | 49.06381 | 8.62230 | 44° | 47km/h | 35498m | 5.5m/s | -30.9°C | 0% | 5.5hPa | 2.5V | 02:52:40 | 02:27:02 | 00:00:00 | |
| DK7TD | 2026-09-03 18:56:57 | 49.06367 | 8.62202 | 60° | 42km/h | 35491m | 1.9m/s | -30.9°C | 0% | 5.5hPa | 2.6V | 02:53:31 | 02:27:00 | 00:00:00 | |
| EDDB2-12 | 2026-09-03 18:56:56 | 49.06363 | 8.62189 | 68° | 29km/h | 35488m | 2.2m/s | -31.0°C | 0.1% | 5.5hPa | 2.6V | 00:00:00 | 00:00:00 | 00:00:00 | |
| DL8DAS-15 | 2026-09-03 18:56:54 | 49.06361 | 8.62181 | 88° | 16km/h | 35485m | 4.0m/s | -31.0°C | 0.1% | 5.6hPa | 2.6V | 02:52:00 | 00:00:00 | 00:00:00 | |
| DL1XH1-15 | 2026-09-03 18:56:53 | 49.06379 | 8.62221 | 311° | 11km/h | 35455m | 3.4m/s | -31.2°C | 1.3% | 5.6hPa | 2.6V | 02:52:01 | 02:26:51 | 00:00:00 | |
| DL1XH-west | 2026-09-03 18:56:51 | 49.06374 | 8.62195 | 240° | 35km/h | 35463m | 3.8m/s | -31.1°C | 0% | 5.6hPa | 2.6V | 02:52:40 | 02:26:54 | 00:00:00 | |
| BIOWL1-15 | 2026-09-03 18:56:50 | 49.06370 | 8.62217 | 38° | 31km/h | 35444m | 7m/s | -31.3°C | 0% | 5.6hPa | 2.5V | 02:52:40 | 02:26:49 | 00:00:00 | |
| DF8AY | 2026-09-03 18:56:48 | 49.06378 | 8.62221 | 311° | 11km/h | 35455m | 3.4m/s | -31.2°C | 0% | 5.6hPa | 2.6V | 02:52:40 | 02:26:51 | 00:00:00 | |
| DK7TD | 2026-09-03 18:56:47 | 49.06375 | 8.62222 | 15° | 16km/h | 35450m | 5.5m/s | -31.3°C | 0% | 5.6hPa | 2.6V | 02:53:31 | 02:26:50 | 00:00:00 | |
| DB0ND-19 | 2026-09-03 18:56:46 | 49.06370 | 8.62217 | 37° | 29km/h | 35445m | 7.0m/s | -31.3°C | 0.1% | 5.6hPa | 2.5V | 00:00:00 | 00:00:00 | 00:00:00 | |
| DL1ZP-14 | 2026-09-03 18:56:45 | 49.06364 | 8.62208 | 47° | 42km/h | 35438m | 6.7m/s | -31.3°C | 0.1% | 5.6hPa | 2.5V | 00:00:00 | 00:00:00 | 00:00:00 | |
| DL1XH1-15 | 2026-09-03 18:56:43 | 49.06346 | 8.62145 | 218° | 24km/h | 35407m | 7.3m/s | -31.4°C | 1.3% | 5.6hPa | 2.6V | 02:52:11 | 02:26:41 | 00:00:00 | |
| PG1ADW-2 | 2026-09-03 18:56:43 | 49.06349 | 8.62178 | 59° | 27km/h | 35429m | 2.3m/s | -31.3°C | 1.3% | 5.5hPa | 2.6V | 00:00:00 | 00:00:00 | 00:00:00 | |
| DL1XH-15 | 2026-09-03 18:56:42 | 49.06351 | 8.62153 | 226° | 35km/h | 35400m | 5.5m/s | -31.4°C | 1.3% | 5.6hPa | 2.6V | 02:52:12 | 02:26:40 | 00:00:00 | |
| DL1XH-west | 2026-09-03 18:56:41 | 49.06341 | 8.62151 | 75° | 26km/h | 35424m | 2.8m/s | -31.3°C | 0% | 5.6hPa | 2.5V | 02:52:40 | 02:26:44 | 00:00:00 | |
| DK7TD | 2026-09-03 18:56:37 | 49.06351 | 8.62153 | 227° | 35km/h | 35400m | 5.5m/s | -31.4°C | 0% | 5.6hPa | 2.6V | 02:53:31 | 02:26:40 | 00:00:00 | |
| BIOWL1-15 | 2026-09-03 18:56:36 | 49.06357 | 8.62163 | 234° | 33km/h | 35396m | 2.9m/s | -31.5°C | 0% | 5.6hPa | 2.6V | 02:52:40 | 02:26:39 | 00:00:00 | |
| DF8AY | 2026-09-03 18:56:35 | 49.06361 | 8.62172 | 238° | 26km/h | 35394m | 1.6m/s | -31.5°C | 0% | 5.6hPa | 2.5V | 02:52:40 | 02:26:38 | 00:00:00 | |
| BIOWL9-15 | 2026-09-03 18:56:35 | 49.06363 | 8.62178 | 245° | 11km/h | 35392m | 2.1m/s | -31.6°C | 0.1% | 5.6hPa | 2.5V | 00:00:00 | 00:00:00 | 00:00:00 | |
| DL6DJ-15 | 2026-09-03 18:56:34 | 49.06363 | 8.62180 | 26° | 4km/h | 35389m | 4.0m/s | -31.6°C | 0.1% | 5.6hPa | 2.5V | 00:00:00 | 00:00:00 | 00:00:00 | |
| DL1XH1-15 | 2026-09-03 18:56:33 | 49.06340 | 8.62121 | 65° | 47km/h | 35362m | 1.9m/s | -31.8°C | 1.3% | 5.6hPa | 2.5V | 02:52:21 | 02:26:31 | 00:00:00 | |
| DO3MHA-11 | 2026-09-03 18:56:32 | 49.06361 | 8.62177 | 51° | 31km/h | 35384m | 6.2m/s | -31.6°C | 1.3% | 5.6hPa | 2.5V | 00:00:00 | 02:26:35 | 00:00:00 | |
| DM0DOS-11 | 2026-09-03 18:56:31 | 49.06334 | 8.62096 | 83° | 22km/h | 35358m | 3.6m/s | -31.9°C | 1.3% | 5.7hPa | 2.5V | 02:52:23 | 02:26:29 | 00:00:00 | |
| DL1XH-west | 2026-09-03 18:56:30 | 49.06351 | 8.62155 | 58° | 47km/h | 35370m | 6.2m/s | -31.8°C | 0% | 5.6hPa | 2.6V | 02:52:40 | 02:26:33 | 00:00:00 | |
| DL1XH-15 | 2026-09-03 18:56:29 | 49.06337 | 8.62090 | 207° | 15km/h | 35346m | 7.3m/s | -31.9°C | 1.3% | 5.7hPa | 2.6V | 02:52:25 | 02:26:27 | 00:00:00 | |
| HSKMA3-T | 2026-09-03 18:56:27 | 49.06336 | 8.62106 | 71° | 35km/h | 35360m | 1.9m/s | -31.8°C | 0% | 5.6hPa | 2.5V | 02:52:40 | 02:26:30 | 00:00:00 | |
| BIOWL1-15 | 2026-09-03 18:56:27 | 49.06334 | 8.62090 | 130° | 9km/h | 35353m | 5.8m/s | -31.9°C | 0% | 5.7hPa | 2.6V | 02:52:40 | 02:26:28 | 00:00:00 | |
| DF8AY | 2026-09-03 18:56:25 | 49.06337 | 8.62090 | 208° | 15km/h | 35346m | 7.3m/s | -31.9°C | 0% | 5.7hPa | 2.6V | 02:52:40 | 02:26:27 | 00:00:00 | |
| DL8DAS-15 | 2026-09-03 18:56:24 | 49.06334 | 8.62090 | 131° | 9km/h | 35353m | 5.8m/s | -31.9°C | 0.1% | 5.7hPa | 2.5V | 02:52:00 | 00:00:00 | 00:00:00 | |
| DL1XH1-15 | 2026-09-03 18:56:23 | 49.06354 | 8.62134 | 13° | 9km/h | 35321m | 5m/s | -32.1°C | 1.3% | 5.7hPa | 2.5V | 02:52:31 | 02:26:21 | 00:00:00 | |
| PG1ADW-2 | 2026-09-03 18:56:23 | 49.06341 | 8.62095 | 226° | 27km/h | 35340m | 6.9m/s | -31.9°C | 1.3% | 5.6hPa | 2.5V | 02:52:00 | 00:00:00 | 00:00:00 | |
| SONCRA | 2026-09-03 18:56:22 | 49.06346 | 8.62105 | 234° | 35km/h | 35334m | 4.7m/s | -32.0°C | 0.1% | 5.7hPa | 2.6V | 00:00:00 | 00:00:00 | 00:00:00 | |
| DM0DOS-11 | 2026-09-03 18:56:21 | 49.06345 | 8.62121 | 51° | 38km/h | 35309m | 7.1m/s | -32.2°C | 1.3% | 5.7hPa | 2.6V | 02:52:33 | 02:26:19 | 00:00:00 | |
| DL1XH-west | 2026-09-03 18:56:20 | 49.06354 | 8.62126 | 248° | 24km/h | 35328m | 1.7m/s | -32°C | 0% | 5.7hPa | 2.6V | 02:52:40 | 02:26:23 | 00:00:00 | |
| HSKMA3-T | 2026-09-03 18:56:17 | 49.06350 | 8.62130 | 43° | 24km/h | 35315m | 6.8m/s | -32.2°C | 0% | 5.7hPa | 2.5V | 02:52:40 | 02:26:20 | 00:00:00 | |
| DK7TD | 2026-09-03 18:56:16 | 49.06345 | 8.62121 | 52° | 38km/h | 35309m | 7.1m/s | -32.2°C | 0% | 5.7hPa | 2.6V | 02:53:31 | 02:26:19 | 00:00:00 | |
| BIOWL1-15 | 2026-09-03 18:56:14 | 49.06333 | 8.62092 | 62° | 49km/h | 35298m | 3.1m/s | -32.3°C | 0% | 5.7hPa | 2.5V | 02:52:40 | 02:26:17 | 00:00:00 | |
| DL1XH1-15 | 2026-09-03 18:56:13 | 49.06336 | 8.62062 | 228° | 33km/h | 35271m | 5.9m/s | -32.6°C | 1.4% | 5.7hPa | 2.5V | 02:52:41 | 02:26:11 | 00:00:00 | |
| DO3MHA-11 | 2026-09-03 18:56:12 | 49.06326 | 8.62064 | 79° | 22km/h | 35294m | 2.6m/s | -32.3°C | 1.3% | 5.6hPa | 2.5V | 02:52:00 | 02:26:15 | 00:00:00 | |
| DJ2DS-15 | 2026-09-03 18:56:11 | 49.06325 | 8.62055 | 104° | 27km/h | 35290m | 4.6m/s | -32.4°C | 1.4% | 5.6hPa | 2.6V | 02:52:00 | 02:26:14 | 00:00:00 | |
| DM0DOS-11 | 2026-09-03 18:56:10 | 49.06347 | 8.62090 | 255° | 15km/h | 35262m | 1.9m/s | -32.6°C | 1.4% | 5.7hPa | 2.6V | 02:52:44 | 02:26:08 | 00:00:00 | |
| DL1XH-west | 2026-09-03 18:56:09 | 49.06331 | 8.62055 | 216° | 22km/h | 35277m | 7.1m/s | -32.6°C | 0% | 5.7hPa | 2.5V | 02:52:40 | 02:26:12 | 00:00:00 | |
| HSKMA3-T | 2026-09-03 18:56:06 | 49.06345 | 8.62082 | 243° | 27km/h | 35264m | 1.6m/s | -32.6°C | 0% | 5.7hPa | 2.6V | 02:54:22 | 02:26:09 | 00:00:00 | |
| KANTATE | 2026-09-03 18:56:05 | 49.06345 | 8.62082 | 244° | 27km/h | 35264m | 1.6m/s | -32.6°C | 0.1% | 5.7hPa | 2.6V | 02:53:00 | 00:00:00 | 00:00:00 | |
| SONDE2-11 | 2026-09-03 18:56:04 | 49.06347 | 8.62093 | 346° | 4km/h | 35259m | 4.0m/s | -32.6°C | 0.1% | 5.7hPa | 2.6V | 00:00:00 | 00:00:00 | 00:00:00 | |
| BIOWL1-15 | 2026-09-03 18:56:04 | 49.06347 | 8.62093 | 346° | 5km/h | 35259m | 4m/s | -32.6°C | 0% | 5.7hPa | 2.6V | 02:53:31 | 02:26:07 | 00:00:00 | |
| DL1XH1-15 | 2026-09-03 18:56:03 | 49.06321 | 8.62014 | 76° | 42km/h | 35228m | 1.9m/s | -32.5°C | 1.3% | 5.8hPa | 2.6V | 02:52:51 | 02:26:01 | 00:00:00 | |
| PG1ADW-2 | 2026-09-03 18:56:03 | 49.06345 | 8.62091 | 47° | 29km/h | 35254m | 6.3m/s | -32.5°C | 1.4% | 5.7hPa | 2.5V | 00:00:00 | 00:00:00 | 00:00:00 | |
| DO3MHA-11 | 2026-09-03 18:56:02 | 49.06341 | 8.62083 | 56° | 35km/h | 35247m | 7.5m/s | -32.5°C | 1.4% | 5.7hPa | 2.5V | 00:00:00 | 02:26:05 | 00:00:00 | |
| OE5DRO-10 | 2026-09-03 18:56:01 | 49.06335 | 8.62069 | 62° | 37km/h | 35240m | 6.9m/s | -32.5°C | 1.4% | 5.7hPa | 2.5V | 00:00:00 | 00:00:00 | 00:00:00 | |
| DM0DOS-11 | 2026-09-03 18:56:00 | 49.06322 | 8.61990 | 184° | 11km/h | 35215m | 7m/s | -32.5°C | 1.3% | 5.8hPa | 2.5V | 02:52:54 | 02:25:58 | 00:00:00 | |
| DL1XH-west | 2026-09-03 18:55:59 | 49.06324 | 8.62032 | 71° | 53km/h | 35230m | 2.5m/s | -32.5°C | 0% | 5.8hPa | 2.6V | 02:53:31 | 02:26:02 | 00:00:00 | |
| HSKMA3-T | 2026-09-03 18:55:56 | 49.06320 | 8.61992 | 110° | 15km/h | 35221m | 5.3m/s | -32.5°C | 0% | 5.8hPa | 2.5V | 02:54:22 | 02:25:59 | 00:00:00 | |
| BIOWL1-15 | 2026-09-03 18:55:54 | 49.06325 | 8.61993 | 228° | 20km/h | 35208m | 7m/s | -32.5°C | 0% | 5.8hPa | 2.5V | 02:53:31 | 02:25:57 | 00:00:00 | |
| DL1XH1-15 | 2026-09-03 18:55:53 | 49.06324 | 8.62019 | 49° | 31km/h | 35184m | 7.1m/s | -32.9°C | 1.4% | 5.8hPa | 2.6V | 02:53:01 | 02:25:51 | 00:00:00 | |
| DF8AY | 2026-09-03 18:55:51 | 49.06332 | 8.62020 | 269° | 20km/h | 35196m | 1.7m/s | -32.6°C | 0% | 5.8hPa | 2.5V | 02:55:13 | 02:25:54 | 00:00:00 | |
| DJ2DS-15 | 2026-09-03 18:55:51 | 49.06332 | 8.62020 | 270° | 31km/h | 35197m | 1.6m/s | -32.6°C | 1.3% | 5.7hPa | 2.5V | 00:00:00 | 02:25:54 | 00:00:00 | |
| DM0DOS-11 | 2026-09-03 18:55:50 | 49.06307 | 8.61967 | 71° | 62km/h | 35165m | 3.6m/s | -33°C | 1.4% | 5.8hPa | 2.5V | 02:53:04 | 02:25:48 | 00:00:00 | |
| DL1XH-west | 2026-09-03 18:55:48 | 49.06324 | 8.62019 | 50° | 31km/h | 35184m | 7.1m/s | -32.9°C | 0% | 5.8hPa | 2.6V | 02:53:31 | 02:25:51 | 00:00:00 | |
| HSKMA3-T | 2026-09-03 18:55:46 | 49.06312 | 8.61988 | 66° | 58km/h | 35170m | 6.2m/s | -33°C | 0% | 5.8hPa | 2.5V | 02:54:22 | 02:25:49 | 00:00:00 | |
| DK7TD | 2026-09-03 18:55:45 | 49.06307 | 8.61967 | 71° | 62km/h | 35165m | 3.6m/s | -33°C | 0% | 5.8hPa | 2.5V | 02:53:31 | 02:25:48 | 00:00:00 | |
| DB0ND-19 | 2026-09-03 18:55:44 | 49.06303 | 8.61945 | 76° | 55km/h | 35163m | 1.8m/s | -33.1°C | 0.1% | 5.8hPa | 2.6V | 00:00:00 | 00:00:00 | 00:00:00 | |
| BIOWL1-15 | 2026-09-03 18:55:43 | 49.06300 | 8.61926 | 83° | 44km/h | 35160m | 2.1m/s | -33.1°C | 0% | 5.8hPa | 2.6V | 02:53:31 | 02:25:46 | 00:00:00 | |
| PG1ADW-2 | 2026-09-03 18:55:43 | 49.06300 | 8.61926 | 83° | 27km/h | 35161m | 2.1m/s | -33.1°C | 1.4% | 5.8hPa | 2.6V | 00:00:00 | 02:25:46 | 00:00:00 | |
| DO3MHA-11 | 2026-09-03 18:55:42 | 49.06299 | 8.61912 | 92° | 24km/h | 35158m | 3.7m/s | -33.1°C | 1.4% | 5.7hPa | 2.6V | 02:53:00 | 02:25:45 | 00:00:00 | |
| DM0DOS-11 | 2026-09-03 18:55:40 | 49.06301 | 8.61934 | 354° | 20km/h | 35125m | 2.9m/s | -33°C | 1.4% | 5.8hPa | 2.6V | 02:53:14 | 02:25:38 | 00:00:00 | |
| DL1XH-west | 2026-09-03 18:55:37 | 49.06307 | 8.61923 | 278° | 24km/h | 35130m | 2.6m/s | -33.1°C | 0% | 5.9hPa | 2.5V | 02:53:31 | 02:25:40 | 00:00:00 | |
| DF8AY | 2026-09-03 18:55:35 | 49.06301 | 8.61934 | 355° | 20km/h | 35125m | 2.9m/s | -33°C | 0% | 5.8hPa | 2.6V | 02:55:13 | 02:25:38 | 00:00:00 | |
| DK7TD | 2026-09-03 18:55:34 | 49.06295 | 8.61932 | 26° | 29km/h | 35121m | 4.9m/s | -33°C | 0% | 5.8hPa | 2.6V | 02:53:31 | 02:25:37 | 00:00:00 | |
| BIOWL1-15 | 2026-09-03 18:55:33 | 49.06288 | 8.61924 | 44° | 42km/h | 35116m | 6.5m/s | -32.9°C | 0% | 5.8hPa | 2.5V | 02:53:31 | 02:25:36 | 00:00:00 | |
| DO3MHA-11 | 2026-09-03 18:55:32 | 49.06280 | 8.61910 | 56° | 37km/h | 35109m | 6.8m/s | -32.8°C | 1.4% | 5.8hPa | 2.5V | 00:00:00 | 02:25:35 | 00:00:00 | |
| DJ2DS-15 | 2026-09-03 18:55:31 | 49.06273 | 8.61890 | 64° | 37km/h | 35103m | 5.3m/s | -32.8°C | 1.4% | 5.8hPa | 2.5V | 00:00:00 | 02:25:34 | 00:00:00 | |
| DM0DOS-11 | 2026-09-03 18:55:30 | 49.06259 | 8.61804 | 222° | 5km/h | 35079m | 6.6m/s | -32.8°C | 1.4% | 5.9hPa | 2.5V | 02:53:24 | 02:25:28 | 00:00:00 | |
| DL1XH-west | 2026-09-03 18:55:26 | 49.06258 | 8.61806 | 107° | 13km/h | 35085m | 5.9m/s | -32.8°C | 0% | 5.9hPa | 2.5V | 02:53:31 | 02:25:29 | 00:00:00 | |
| BIOWL1-15 | 2026-09-03 18:55:23 | 49.06259 | 8.61816 | 284° | 26km/h | 35067m | 4.2m/s | -32.7°C | 0% | 5.9hPa | 2.6V | 02:53:31 | 02:25:26 | 00:00:00 | |
| HSKMA3-T | 2026-09-03 18:55:22 | 49.06257 | 8.61825 | 303° | 27km/h | 35063m | 3m/s | -32.7°C | 0% | 5.9hPa | 2.6V | 02:54:22 | 02:25:25 | 00:00:00 | |
| DF8AY | 2026-09-03 18:55:21 | 49.06252 | 8.61832 | 329° | 27km/h | 35060m | 3m/s | -32.7°C | 0% | 5.9hPa | 2.5V | 02:55:13 | 02:25:24 | 00:00:00 | |
| DJ2DS-15 | 2026-09-03 18:55:21 | 49.06252 | 8.61832 | 329° | 26km/h | 35061m | 3.0m/s | -32.7°C | 0.1% | 5.9hPa | 2.5V | 00:00:00 | 00:00:00 | 00:00:00 | |
| DM0DOS-11 | 2026-09-03 18:55:20 | 49.06207 | 8.61773 | 69° | 53km/h | 35031m | 2.9m/s | -32.6°C | 1.4% | 5.9hPa | 2.5V | 02:53:34 | 02:25:18 | 00:00:00 | |
| DL1XH-west | 2026-09-03 18:55:15 | 49.06207 | 8.61773 | 70° | 53km/h | 35031m | 2.9m/s | -32.6°C | 0% | 5.9hPa | 2.5V | 02:54:22 | 02:25:18 | 00:00:00 | |
| DK7TD | 2026-09-03 18:55:13 | 49.06202 | 8.61742 | 82° | 29km/h | 35025m | 3.6m/s | -32.5°C | 0% | 5.9hPa | 2.6V | 02:56:04 | 02:25:16 | 00:00:00 | |
| DF8AY | 2026-09-03 18:55:12 | 49.06192 | 8.61758 | 326° | 33km/h | 34997m | 3.2m/s | -32.5°C | 0% | 6hPa | 2.5V | 02:55:13 | 02:25:10 | 00:00:00 | |
| BIOWL1-15 | 2026-09-03 18:55:12 | 49.06201 | 8.61733 | 90° | 15km/h | 35021m | 5m/s | -32.5°C | 0% | 6hPa | 2.6V | 02:54:22 | 02:25:15 | 00:00:00 | |
| DO3MHA-11 | 2026-09-03 18:55:12 | 49.06201 | 8.61733 | 91° | 29km/h | 35022m | 5.0m/s | -32.4°C | 1.4% | 5.9hPa | 2.6V | 02:53:00 | 02:25:15 | 00:00:00 | |
| DJ2DS-15 | 2026-09-03 18:55:11 | 49.06201 | 8.61730 | 213° | 31km/h | 35016m | 5.9m/s | -32.4°C | 1.4% | 5.9hPa | 2.6V | 02:53:00 | 02:25:14 | 00:00:00 | |
| DM0DOS-11 | 2026-09-03 18:55:10 | 49.06174 | 8.61764 | 7° | 40km/h | 34989m | 5.2m/s | -32.6°C | 1.4% | 6hPa | 2.6V | 02:53:44 | 02:25:08 | 00:00:00 | |
| DL1XH-west | 2026-09-03 18:55:04 | 49.06164 | 8.61759 | 26° | 46km/h | 34984m | 5.7m/s | -32.5°C | 0% | 6hPa | 2.6V | 02:54:22 | 02:25:07 | 00:00:00 | |
| HSKMA3-T | 2026-09-03 18:55:02 | 49.06145 | 8.61734 | 52° | 53km/h | 34973m | 4m/s | -32.5°C | 0% | 6hPa | 2.5V | 02:54:22 | 02:25:05 | 00:00:00 | |
| BIOWL1-15 | 2026-09-03 18:55:01 | 49.06138 | 8.61718 | 62° | 47km/h | 34970m | 2.6m/s | -32.4°C | 0% | 6hPa | 2.5V | 02:54:22 | 02:25:04 | 00:00:00 | |
| DK7TD | 2026-09-03 18:55:00 | 49.06133 | 8.61703 | 71° | 38km/h | 34967m | 2.5m/s | -32.4°C | 0% | 6hPa | 2.5V | 02:56:04 | 02:25:03 | 00:00:00 | |
| DL1XH-15 | 2026-09-03 18:54:58 | 49.06130 | 8.61723 | 305° | 33km/h | 34935m | 2.3m/s | -32.3°C | 1.4% | 6hPa | 2.5V | 02:53:56 | 02:24:56 | 00:00:00 | |
| DM0DOS-11 | 2026-09-03 18:54:56 | 49.06116 | 8.61734 | 357° | 35km/h | 34928m | 5.2m/s | -32.5°C | 1.4% | 6hPa | 2.6V | 02:53:58 | 02:24:54 | 00:00:00 | |
| DL1XH-west | 2026-09-03 18:54:53 | 49.06130 | 8.61723 | 306° | 33km/h | 34935m | 2.3m/s | -32.3°C | 0% | 6hPa | 2.5V | 02:54:22 | 02:24:56 | 00:00:00 | |
| HSKMA3-T | 2026-09-03 18:54:52 | 49.06124 | 8.61731 | 331° | 31km/h | 34932m | 3.4m/s | -32.4°C | 0% | 6hPa | 2.6V | 02:54:22 | 02:24:55 | 00:00:00 | |
| BIOWL1-15 | 2026-09-03 18:54:51 | 49.06116 | 8.61734 | 358° | 35km/h | 34928m | 5.2m/s | -32.5°C | 0% | 6hPa | 2.6V | 02:54:22 | 02:24:54 | 00:00:00 | |
| DK7TD | 2026-09-03 18:54:46 | 49.06074 | 8.61680 | 65° | 38km/h | 34904m | 2.3m/s | -32.3°C | 0% | 6hPa | 2.6V | 02:56:04 | 02:24:49 | 00:00:00 | |
| DM0DOS-11 | 2026-09-03 18:54:46 | 49.06076 | 8.61674 | 255° | 31km/h | 34880m | 5.3m/s | -31.9°C | 1.3% | 6hPa | 2.6V | 02:54:08 | 02:24:44 | 00:00:00 | |
| OE5DRO-10 | 2026-09-03 18:54:45 | 49.06071 | 8.61668 | 76° | 29km/h | 34902m | 3.1m/s | -32.1°C | 1.3% | 6.0hPa | 2.5V | 00:00:00 | 00:00:00 | 00:00:00 | |
| DL1XH-15 | 2026-09-03 18:54:44 | 49.06077 | 8.61701 | 284° | 35km/h | 34872m | 2.6m/s | -31.9°C | 1.3% | 6.1hPa | 2.5V | 02:54:10 | 02:24:42 | 00:00:00 | |
| BIOWL1-15 | 2026-09-03 18:54:44 | 49.06078 | 8.61687 | 268° | 37km/h | 34876m | 3.9m/s | -32°C | 0% | 6.1hPa | 2.6V | 02:54:22 | 02:24:43 | 00:00:00 | |
| DL1XH1-15 | 2026-09-03 18:54:43 | 49.06073 | 8.61712 | 306° | 33km/h | 34870m | 2.6m/s | -31.9°C | 1.3% | 6.1hPa | 2.5V | 02:54:11 | 02:24:41 | 00:00:00 | |
| DL1XH-west | 2026-09-03 18:54:42 | 49.06074 | 8.61665 | 242° | 22km/h | 34886m | 6.3m/s | -32.1°C | 0% | 6.1hPa | 2.5V | 02:54:22 | 02:24:45 | 00:00:00 | |
| HSKMA3-T | 2026-09-03 18:54:41 | 49.06076 | 8.61674 | 256° | 31km/h | 34880m | 5.4m/s | -32°C | 0% | 6hPa | 2.6V | 02:54:22 | 02:24:44 | 00:00:00 | |
| DB0UT-9 | 2026-09-03 18:54:40 | 49.06076 | 8.61674 | 257° | 31km/h | 34881m | 5.4m/s | -32.0°C | 0.1% | 6.0hPa | 2.5V | 02:54:00 | 00:00:00 | 00:00:00 | |
| DJ2KF-10 | 2026-09-03 18:54:39 | 49.06077 | 8.61701 | 285° | 29km/h | 34873m | 2.6m/s | -31.9°C | 1.3% | 6.0hPa | 2.5V | 02:54:00 | 02:24:42 | 00:00:00 | |
| DL8DAS-14 | 2026-09-03 18:54:37 | 49.06067 | 8.61720 | 331° | 31km/h | 34867m | 3.7m/s | -31.9°C | 0.1% | 6.1hPa | 2.5V | 00:00:00 | 00:00:00 | 00:00:00 | |
| DM0DOS-11 | 2026-09-03 18:54:36 | 49.06015 | 8.61682 | 57° | 35km/h | 34839m | 2.8m/s | -31.7°C | 1.3% | 6.1hPa | 2.5V | 02:54:18 | 02:24:34 | 00:00:00 | |
| DF3TZ-5 | 2026-09-03 18:54:35 | 49.06015 | 8.61682 | 57° | 33km/h | 34839m | 2.8m/s | -31.7°C | 0.1% | 6.1hPa | 2.6V | 00:00:00 | 00:00:00 | 00:00:00 | |
| DL1XH1-15 | 2026-09-03 18:54:33 | 49.06012 | 8.61665 | 202° | 7km/h | 34827m | 5.2m/s | -31.7°C | 1.3% | 6.1hPa | 2.6V | 02:54:21 | 02:24:31 | 00:00:00 | |
| DL1XH-west | 2026-09-03 18:54:32 | 49.06021 | 8.61694 | 49° | 44km/h | 34842m | 3.4m/s | -31.8°C | 0% | 6.1hPa | 2.5V | 02:54:22 | 02:24:35 | 00:00:00 | |
| DK7TD | 2026-09-03 18:54:31 | 49.06015 | 8.61682 | 57° | 35km/h | 34839m | 2.8m/s | -31.7°C | 0% | 6.1hPa | 2.5V | 02:56:04 | 02:24:34 | 00:00:00 | |
| HSKMA3-T | 2026-09-03 18:54:30 | 49.06012 | 8.61672 | 68° | 22km/h | 34836m | 3.5m/s | -31.7°C | 0% | 6.1hPa | 2.5V | 02:54:22 | 02:24:33 | 00:00:00 | |
| BIOWL1-15 | 2026-09-03 18:54:29 | 49.06011 | 8.61666 | 89° | 9km/h | 34832m | 4.3m/s | -31.7°C | 0% | 6.1hPa | 2.6V | 02:54:22 | 02:24:32 | 00:00:00 | |
| DL8DAS-15 | 2026-09-03 18:54:27 | 49.06012 | 8.61665 | 203° | 7km/h | 34827m | 5.2m/s | -31.7°C | 0.1% | 6.1hPa | 2.6V | 00:00:00 | 00:00:00 | 00:00:00 | |
| DM0DOS-11 | 2026-09-03 18:54:26 | 49.05999 | 8.61722 | 342° | 35km/h | 34795m | 4.8m/s | -31.9°C | 1.3% | 6.1hPa | 2.6V | 02:54:28 | 02:24:24 | 00:00:00 | |
| OE9MKV-15 | 2026-09-03 18:54:26 | 49.06015 | 8.61675 | 255° | 18km/h | 34817m | 5.0m/s | 0°C | 0% | 0hPa | 2.5V | 00:00:00 | 02:24:29 | 00:00:00 | |
| DH7VM-15 | 2026-09-03 18:54:25 | 49.06015 | 8.61675 | 255° | 24km/h | 34817m | 5.1m/s | -31.8°C | 0.1% | 6.1hPa | 2.5V | 00:00:00 | 00:00:00 | 00:00:00 | |
| DL1XH1-15 | 2026-09-03 18:54:23 | 49.05971 | 8.61718 | 25° | 38km/h | 34781m | 3.9m/s | -32.1°C | 1.3% | 6.1hPa | 2.5V | 02:54:31 | 02:24:21 | 00:00:00 | |
| DL1XH-west | 2026-09-03 18:54:21 | 49.05999 | 8.61722 | 343° | 35km/h | 34795m | 4.9m/s | -31.9°C | 0% | 6.1hPa | 2.6V | 02:55:13 | 02:24:24 | 00:00:00 | |
| DK7TD | 2026-09-03 18:54:20 | 49.05990 | 8.61724 | 359° | 38km/h | 34790m | 5.1m/s | -32°C | 0% | 6.1hPa | 2.6V | 02:56:04 | 02:24:23 | 00:00:00 | |
| HSKMA3-T | 2026-09-03 18:54:19 | 49.05980 | 8.61723 | 13° | 40km/h | 34785m | 4.6m/s | -32.1°C | 0% | 6.2hPa | 2.5V | 02:55:13 | 02:24:22 | 00:00:00 | |
| BIOWL1-15 | 2026-09-03 18:54:18 | 49.05971 | 8.61718 | 26° | 38km/h | 34781m | 3.9m/s | -32.2°C | 0% | 6.1hPa | 2.5V | 02:55:13 | 02:24:21 | 00:00:00 | |
| SONCRA | 2026-09-03 18:54:18 | 49.05963 | 8.61711 | 37° | 33km/h | 34777m | 3.3m/s | -32.2°C | 0.1% | 6.2hPa | 2.5V | 00:00:00 | 00:00:00 | 00:00:00 | |
| NBG1-10 | 2026-09-03 18:54:17 | 49.05963 | 8.61711 | 38° | 13km/h | 34777m | 3.3m/s | -32.1°C | 1.3% | 6.1hPa | 2.5V | 02:54:00 | 02:24:20 | 00:00:00 | |
| DM0DOS-11 | 2026-09-03 18:54:16 | 49.05963 | 8.61696 | 227° | 20km/h | 34751m | 4.6m/s | -32.5°C | 1.3% | 6.2hPa | 2.5V | 02:54:38 | 02:24:14 | 00:00:00 | |
| DL1XH-15 | 2026-09-03 18:54:15 | 49.05966 | 8.61703 | 241° | 22km/h | 34747m | 4.2m/s | -32.6°C | 1.3% | 6.2hPa | 2.5V | 02:54:39 | 02:24:13 | 00:00:00 | |
| BIOWL7-15 | 2026-09-03 18:54:14 | 49.05955 | 8.61697 | 69° | 16km/h | 34771m | 3.8m/s | -32.3°C | 0.1% | 6.2hPa | 2.6V | 02:55:00 | 00:00:00 | 00:00:00 | |
| DL1XH1-15 | 2026-09-03 18:54:13 | 49.05968 | 8.61718 | 275° | 18km/h | 34739m | 3.9m/s | -32.7°C | 1.3% | 6.2hPa | 2.6V | 02:54:41 | 02:24:11 | 00:00:00 | |
| DL1XH-west | 2026-09-03 18:54:11 | 49.05963 | 8.61696 | 228° | 20km/h | 34751m | 4.6m/s | -32.5°C | 0% | 6.2hPa | 2.5V | 02:55:13 | 02:24:14 | 00:00:00 | |
| DK7TD | 2026-09-03 18:54:10 | 49.05966 | 8.61703 | 241° | 22km/h | 34747m | 4.2m/s | -32.6°C | 0% | 6.2hPa | 2.5V | 02:56:04 | 02:24:13 | 00:00:00 | |
| DF8AY | 2026-09-03 18:54:09 | 49.05968 | 8.61711 | 257° | 22km/h | 34743m | 3.9m/s | -32.7°C | 0% | 6.2hPa | 2.5V | 02:55:13 | 02:24:12 | 00:00:00 | |
| HSKMA3-T | 2026-09-03 18:54:08 | 49.05968 | 8.61718 | 276° | 18km/h | 34739m | 3.9m/s | -32.7°C | 0% | 6.2hPa | 2.6V | 02:55:13 | 02:24:11 | 00:00:00 | |
| OE5DRO-10 | 2026-09-03 18:54:07 | 49.05967 | 8.61725 | 300° | 11km/h | 34736m | 4.2m/s | -32.7°C | 1.3% | 6.1hPa | 2.6V | 00:00:00 | 00:00:00 | 00:00:00 | |
| DM0DOS-11 | 2026-09-03 18:54:06 | 49.05948 | 8.61724 | 59° | 7km/h | 34711m | 3.8m/s | -33.2°C | 1.4% | 6.2hPa | 2.6V | 02:54:48 | 02:24:04 | 00:00:00 | |
| DL1XH-15 | 2026-09-03 18:54:05 | 49.05948 | 8.61722 | 108° | 4km/h | 34707m | 4m/s | -33.2°C | 1.4% | 6.2hPa | 2.6V | 02:54:49 | 02:24:03 | 00:00:00 | |
| DF3TZ-5 | 2026-09-03 18:54:04 | 49.05956 | 8.61731 | 9° | 15km/h | 34723m | 4.0m/s | -33.0°C | 0.1% | 6.2hPa | 2.5V | 00:00:00 | 00:00:00 | 00:00:00 | |
| DL1XH1-15 | 2026-09-03 18:54:03 | 49.05950 | 8.61721 | 201° | 7km/h | 34698m | 3.9m/s | -33.3°C | 1.4% | 6.2hPa | 2.5V | 02:54:51 | 02:24:01 | 00:00:00 | |
| DL1XH-west | 2026-09-03 18:54:01 | 49.05948 | 8.61724 | 60° | 7km/h | 34711m | 3.8m/s | -33.2°C | 0% | 6.2hPa | 2.6V | 02:55:13 | 02:24:04 | 00:00:00 | |
| DK7TD | 2026-09-03 18:54:00 | 49.05948 | 8.61722 | 108° | 5km/h | 34707m | 4m/s | -33.2°C | 0% | 6.2hPa | 2.6V | 02:56:04 | 02:24:03 | 00:00:00 | |
| DF8AY | 2026-09-03 18:53:58 | 49.05952 | 8.61731 | 353° | 9km/h | 34678m | 4.6m/s | -33.6°C | 0% | 6.2hPa | 2.6V | 02:55:13 | 02:23:56 | 00:00:00 | |
| HSKMA3-T | 2026-09-03 18:53:58 | 49.05950 | 8.61721 | 202° | 9km/h | 34698m | 3.9m/s | -33.3°C | 0% | 6.2hPa | 2.5V | 02:55:13 | 02:24:01 | 00:00:00 | |
| DM0DOS-11 | 2026-09-03 18:53:56 | 49.05946 | 8.61729 | 30° | 15km/h | 34669m | 3.9m/s | -33.6°C | 1.4% | 6.2hPa | 2.5V | 02:54:58 | 02:23:54 | 00:00:00 | |
| OE9MKV-15 | 2026-09-03 18:53:56 | 49.05953 | 8.61725 | 238° | 27km/h | 34691m | 3.6m/s | 0°C | 0% | 0hPa | 2.5V | 00:00:00 | 02:23:59 | 00:00:00 | |
| DL1XH-15 | 2026-09-03 18:53:55 | 49.05944 | 8.61726 | 48° | 15km/h | 34666m | 3.5m/s | -33.7°C | 1.4% | 6.3hPa | 2.5V | 02:54:59 | 02:23:53 | 00:00:00 | |
| DL1XH1-15 | 2026-09-03 18:53:53 | 49.05941 | 8.61716 | 91° | 13km/h | 34658m | 4.8m/s | -33.8°C | 1.4% | 6.2hPa | 2.5V | 02:55:01 | 02:23:51 | 00:00:00 | |
| DL1XH-west | 2026-09-03 18:53:50 | 49.05944 | 8.61726 | 48° | 15km/h | 34666m | 3.6m/s | -33.7°C | 0% | 6.3hPa | 2.5V | 02:55:13 | 02:23:53 | 00:00:00 | |
| DK7TD | 2026-09-03 18:53:49 | 49.05942 | 8.61721 | 68° | 13km/h | 34662m | 4m/s | -33.7°C | 0% | 6.2hPa | 2.5V | 02:56:04 | 02:23:52 | 00:00:00 | |
| BIOWL1-15 | 2026-09-03 18:53:48 | 49.05941 | 8.61716 | 91° | 13km/h | 34658m | 4.8m/s | -33.8°C | 0% | 6.2hPa | 2.5V | 02:55:13 | 02:23:51 | 00:00:00 | |
| HSKMA3-T | 2026-09-03 18:53:47 | 49.05942 | 8.61712 | 114° | 13km/h | 34653m | 4.9m/s | -33.9°C | 0% | 6.2hPa | 2.6V | 02:55:13 | 02:23:50 | 00:00:00 | |
| SONCRA | 2026-09-03 18:53:46 | 49.05944 | 8.61707 | 127° | 13km/h | 34648m | 4.2m/s | -34.0°C | 0.1% | 6.3hPa | 2.6V | 00:00:00 | 00:00:00 | 00:00:00 | |
| DL1XH-15 | 2026-09-03 18:53:44 | 49.05930 | 8.61689 | 10° | 29km/h | 34619m | 3.9m/s | -34.8°C | 1.5% | 6.3hPa | 2.6V | 02:55:10 | 02:23:42 | 00:00:00 | |
| NBG1-10 | 2026-09-03 18:53:44 | 49.05947 | 8.61700 | 119° | 24km/h | 34642m | 2.9m/s | -34.2°C | 1.4% | 6.2hPa | 2.6V | 00:00:00 | 02:23:47 | 00:00:00 | |
| DL1XH1-15 | 2026-09-03 18:53:43 | 49.05923 | 8.61687 | 11° | 27km/h | 34616m | 3m/s | -34.9°C | 1.5% | 6.3hPa | 2.6V | 02:55:11 | 02:23:41 | 00:00:00 | |
| DL1XH-west | 2026-09-03 18:53:40 | 49.05937 | 8.61691 | 12° | 26km/h | 34624m | 4.9m/s | -34.8°C | 0% | 6.3hPa | 2.6V | 02:55:13 | 02:23:43 | 00:00:00 | |
| DK7TD | 2026-09-03 18:53:38 | 49.05923 | 8.61687 | 12° | 27km/h | 34616m | 3m/s | -34.9°C | 0% | 6.3hPa | 2.6V | 02:56:04 | 02:23:41 | 00:00:00 | |
| BIOWL1-15 | 2026-09-03 18:53:37 | 49.05917 | 8.61685 | 15° | 22km/h | 34613m | 2.9m/s | -34.9°C | 0% | 6.3hPa | 2.5V | 02:55:13 | 02:23:40 | 00:00:00 | |
| DJ2KF-10 | 2026-09-03 18:53:36 | 49.05913 | 8.61682 | 25° | 27km/h | 34610m | 3.4m/s | -34.9°C | 1.5% | 6.2hPa | 2.5V | 00:00:00 | 02:23:39 | 00:00:00 | |
| DB0NH | 2026-09-03 18:53:35 | 49.05911 | 8.61680 | 60° | 18km/h | 34606m | 4.8m/s | -35.0°C | 1.5% | 6.3hPa | 2.5V | 02:55:00 | 02:23:38 | 00:00:00 | |
| DL1XH-15 | 2026-09-03 18:53:34 | 49.05921 | 8.61656 | 56° | 18km/h | 34583m | 3.3m/s | -35.3°C | 1.5% | 6.3hPa | 2.5V | 02:55:20 | 02:23:32 | 00:00:00 | |
| DL1XH1-15 | 2026-09-03 18:53:33 | 49.05917 | 8.61650 | 36° | 27km/h | 34579m | 5.4m/s | -35.3°C | 1.5% | 6.3hPa | 2.5V | 02:55:21 | 02:23:31 | 00:00:00 | |
| DF8AY | 2026-09-03 18:53:30 | 49.05922 | 8.61662 | 96° | 15km/h | 34586m | 2m/s | -35.2°C | 0% | 6.3hPa | 2.5V | 02:56:55 | 02:23:33 | 00:00:00 | |
| DL1XH-west | 2026-09-03 18:53:29 | 49.05921 | 8.61656 | 57° | 18km/h | 34584m | 3.3m/s | -35.3°C | 0% | 6.3hPa | 2.5V | 02:56:04 | 02:23:32 | 00:00:00 | |
| HSKMA3-T | 2026-09-03 18:53:26 | 49.05899 | 8.61637 | 19° | 49km/h | 34567m | 5.6m/s | -35.4°C | 0% | 6.4hPa | 2.6V | 02:56:04 | 02:23:29 | 00:00:00 | |
| DK7TD | 2026-09-03 18:53:25 | 49.05887 | 8.61632 | 15° | 53km/h | 34562m | 3.4m/s | -35.4°C | 0% | 6.4hPa | 2.6V | 02:56:04 | 02:23:28 | 00:00:00 | |
| DL1XH-15 | 2026-09-03 18:53:24 | 49.05854 | 8.61619 | 172° | 16km/h | 34539m | 6m/s | -35.5°C | 1.5% | 6.4hPa | 2.6V | 02:55:30 | 02:23:22 | 00:00:00 | |
| DL1XH1-15 | 2026-09-03 18:53:23 | 49.05859 | 8.61618 | 171° | 22km/h | 34534m | 3.3m/s | -35.5°C | 1.6% | 6.4hPa | 2.6V | 02:55:31 | 02:23:21 | 00:00:00 | |
| DL1XH-west | 2026-09-03 18:53:19 | 49.05854 | 8.61619 | 173° | 16km/h | 34539m | 6m/s | -35.5°C | 0% | 6.4hPa | 2.6V | 02:56:04 | 02:23:22 | 00:00:00 | |
| BIOWL1-15 | 2026-09-03 18:53:18 | 49.05867 | 8.61613 | 127° | 9km/h | 34530m | 1.1m/s | -35.6°C | 0% | 6.4hPa | 2.5V | 02:56:04 | 02:23:19 | 00:00:00 | |
| HSKMA3-T | 2026-09-03 18:53:15 | 49.05867 | 8.61610 | 49° | 13km/h | 34529m | 3.2m/s | -35.6°C | 0% | 0hPa | 2.5V | 02:56:04 | 02:23:18 | 00:00:00 | |
| DO8TBO-1 | 2026-09-03 18:53:14 | 49.05862 | 8.61606 | 25° | 29km/h | 34525m | 5.6m/s | -35.6°C | 1.6% | 6.3hPa | 2.5V | 02:55:00 | 02:23:17 | 00:00:00 | |
| DL1XH1-15 | 2026-09-03 18:53:13 | 49.05793 | 8.61588 | 0° | 27km/h | 34502m | 2.8m/s | -35.6°C | 1.6% | 6.4hPa | 2.5V | 02:55:41 | 02:23:11 | 00:00:00 | |
| DK7TD | 2026-09-03 18:53:09 | 49.05802 | 8.61588 | 4° | 42km/h | 34504m | 1.1m/s | -35.6°C | 0% | 6.4hPa | 2.5V | 02:56:04 | 02:23:12 | 00:00:00 | |
| DL1XH-west | 2026-09-03 18:53:08 | 49.05793 | 8.61588 | 0° | 27km/h | 34502m | 2.8m/s | -35.7°C | 0% | 6.4hPa | 2.5V | 02:56:04 | 02:23:11 | 00:00:00 | |
| AZAK | 2026-09-03 18:53:07 | 49.05788 | 8.61588 | 352° | 11km/h | 34498m | 5.1m/s | -35.6°C | 0.1% | 6.4hPa | 2.5V | 02:56:00 | 00:00:00 | 00:00:00 | |
| DM0DOS-11 | 2026-09-03 18:53:06 | 49.05814 | 8.61590 | 142° | 7km/h | 34472m | 2.7m/s | -35.6°C | 1.6% | 6.4hPa | 2.5V | 02:55:48 | 02:23:04 | 00:00:00 | |
| BIOWL1-15 | 2026-09-03 18:53:05 | 49.05791 | 8.61590 | 189° | 22km/h | 34485m | 6.6m/s | -35.6°C | 0% | 6.4hPa | 2.6V | 02:56:04 | 02:23:08 | 00:00:00 | |
| HSKMA3-T | 2026-09-03 18:53:04 | 49.05797 | 8.61591 | 185° | 29km/h | 34480m | 4.5m/s | -35.6°C | 0% | 0hPa | 2.6V | 02:56:04 | 02:23:07 | 00:00:00 | |
| DL1XH1-15 | 2026-09-03 18:53:03 | 49.05801 | 8.61585 | 5° | 38km/h | 34457m | 6.3m/s | -35.8°C | 1.5% | 6.4hPa | 2.6V | 02:55:51 | 02:23:01 | 00:00:00 | |
| DL1XH-west | 2026-09-03 18:52:58 | 49.05801 | 8.61585 | 5° | 38km/h | 34457m | 6.3m/s | -35.8°C | 0% | 6.4hPa | 2.6V | 02:56:04 | 02:23:01 | 00:00:00 | |
| BIOWL1-15 | 2026-09-03 18:52:56 | 49.05760 | 8.61589 | 341° | 27km/h | 34442m | 2.8m/s | -35.9°C | 0% | 6.5hPa | 2.5V | 02:56:04 | 02:22:57 | 00:00:00 | |
| DF8AY | 2026-09-03 18:52:55 | 49.05768 | 8.61586 | 351° | 38km/h | 34444m | 2.2m/s | -35.9°C | 0% | 6.5hPa | 2.5V | 02:56:55 | 02:22:58 | 00:00:00 | |
| HSKMA3-T | 2026-09-03 18:52:53 | 49.05756 | 8.61593 | 316° | 15km/h | 34438m | 4.4m/s | -36°C | 0% | 0hPa | 2.5V | 02:56:04 | 02:22:56 | 00:00:00 | |
| DL1XH-west | 2026-09-03 18:52:47 | 49.05783 | 8.61606 | 173° | 15km/h | 34412m | 2.9m/s | -36.2°C | 0% | 6.5hPa | 2.5V | 02:56:04 | 02:22:50 | 00:00:00 | |
| AZAK | 2026-09-03 18:52:46 | 49.05784 | 8.61605 | 95° | 2km/h | 34409m | 4.3m/s | -36.3°C | 0.1% | 6.5hPa | 2.5V | 02:56:00 | 00:00:00 | 00:00:00 | |
| DM0DOS-11 | 2026-09-03 18:52:45 | 49.05746 | 8.61625 | 314° | 27km/h | 34384m | 2.7m/s | -36.4°C | 1.6% | 6.5hPa | 2.5V | 02:56:09 | 02:22:43 | 00:00:00 | |
| DF8AY | 2026-09-03 18:52:44 | 49.05778 | 8.61606 | 354° | 27km/h | 34398m | 5.7m/s | -36.3°C | 0% | 6.5hPa | 2.6V | 02:56:55 | 02:22:47 | 00:00:00 | |
| DO8TBO-1 | 2026-09-03 18:52:44 | 49.05778 | 8.61606 | 354° | 31km/h | 34398m | 5.7m/s | -36.3°C | 1.6% | 6.5hPa | 2.5V | 00:00:00 | 02:22:47 | 00:00:00 | |
| DL1XH1-15 | 2026-09-03 18:52:43 | 49.05743 | 8.61640 | 242° | 20km/h | 34375m | 5.6m/s | -36.4°C | 1.6% | 6.5hPa | 2.5V | 02:56:11 | 02:22:41 | 00:00:00 | |
| HSKMA3-T | 2026-09-03 18:52:43 | 49.05770 | 8.61608 | 347° | 37km/h | 34392m | 4.6m/s | 0°C | 0% | 0hPa | 2.6V | 02:56:55 | 02:22:46 | 00:00:00 | |
| DK7TD | 2026-09-03 18:52:41 | 49.05752 | 8.61618 | 330° | 35km/h | 34386m | 2.1m/s | -36.4°C | 0% | 6.5hPa | 2.5V | 02:56:55 | 02:22:44 | 00:00:00 | |
| DL1XH-15 | 2026-09-03 18:52:40 | 49.05763 | 8.61648 | 169° | 37km/h | 34359m | 3.6m/s | -36.4°C | 1.6% | 6.5hPa | 2.6V | 02:56:14 | 02:22:38 | 00:00:00 | |
| DL1XH-west | 2026-09-03 18:52:36 | 49.05754 | 8.61648 | 185° | 33km/h | 34363m | 5.5m/s | -36.4°C | 0% | 6.5hPa | 2.6V | 02:56:55 | 02:22:39 | 00:00:00 | |
| DB0NH | 2026-09-03 18:52:36 | 49.05754 | 8.61648 | 186° | 35km/h | 34364m | 5.4m/s | -36.3°C | 1.7% | 6.5hPa | 2.6V | 00:00:00 | 02:22:39 | 00:00:00 | |
| DM0DOS-11 | 2026-09-03 18:52:35 | 49.05773 | 8.61613 | 28° | 31km/h | 34339m | 6.5m/s | -36.3°C | 1.6% | 6.5hPa | 2.6V | 02:56:19 | 02:22:33 | 00:00:00 | |
| BIOWL1-15 | 2026-09-03 18:52:34 | 49.05771 | 8.61643 | 152° | 33km/h | 34356m | 2.1m/s | -36.4°C | 0% | 6.5hPa | 2.5V | 02:56:55 | 02:22:37 | 00:00:00 | |
| HSKMA3-T | 2026-09-03 18:52:32 | 49.05779 | 8.61628 | 99° | 22km/h | 34350m | 4.5m/s | 0°C | 0% | 0hPa | 2.5V | 02:56:55 | 02:22:35 | 00:00:00 | |
| DK7TD | 2026-09-03 18:52:27 | 49.05747 | 8.61615 | 331° | 35km/h | 34326m | 1.9m/s | -36.3°C | 0% | 6.6hPa | 2.5V | 02:56:55 | 02:22:30 | 00:00:00 | |
| DL1XH-west | 2026-09-03 18:52:26 | 49.05741 | 8.61622 | 306° | 27km/h | 34324m | 2.7m/s | -36.3°C | 0% | 6.6hPa | 2.5V | 02:56:55 | 02:22:29 | 00:00:00 | |
| DM0DOS-11 | 2026-09-03 18:52:25 | 49.05778 | 8.61639 | 144° | 42km/h | 34296m | 2.1m/s | -36.2°C | 1.6% | 6.6hPa | 2.5V | 02:56:29 | 02:22:23 | 00:00:00 | |
| AZAK | 2026-09-03 18:52:25 | 49.05739 | 8.61631 | 273° | 24km/h | 34321m | 4.8m/s | -36.2°C | 0.1% | 6.6hPa | 2.5V | 00:00:00 | 00:00:00 | 00:00:00 | |
| DK5PH-5 | 2026-09-03 18:52:24 | 49.05741 | 8.61640 | 232° | 35km/h | 34315m | 6.2m/s | -36.2°C | 1.6% | 6.5hPa | 2.5V | 00:00:00 | 02:22:27 | 00:00:00 | |
| DL1XH1-15 | 2026-09-03 18:52:23 | 49.05787 | 8.61616 | 91° | 33km/h | 34290m | 4.7m/s | -36.2°C | 1.6% | 6.6hPa | 2.5V | 02:56:31 | 02:22:21 | 00:00:00 | |
| BIOWL1-15 | 2026-09-03 18:52:23 | 49.05747 | 8.61646 | 201° | 35km/h | 34308m | 6.5m/s | -36.2°C | 0% | 6.6hPa | 2.6V | 02:56:55 | 02:22:26 | 00:00:00 | |
| HSKMA3-T | 2026-09-03 18:52:20 | 49.05778 | 8.61639 | 145° | 42km/h | 34296m | 2.1m/s | 0°C | 0% | 0hPa | 2.5V | 02:56:55 | 02:22:23 | 00:00:00 | |
| DL1XH-west | 2026-09-03 18:52:16 | 49.05778 | 8.61594 | 30° | 40km/h | 34279m | 6.1m/s | -36.2°C | 0% | 6.6hPa | 2.6V | 02:56:55 | 02:22:19 | 00:00:00 | |
| DM0DOS-11 | 2026-09-03 18:52:15 | 49.05738 | 8.61623 | 237° | 27km/h | 34253m | 5.3m/s | -36.5°C | 1.6% | 6.6hPa | 2.5V | 02:56:39 | 02:22:13 | 00:00:00 | |
| BIOWL1-15 | 2026-09-03 18:52:14 | 49.05739 | 8.61602 | 309° | 33km/h | 34262m | 3.6m/s | -36.4°C | 0% | 6.6hPa | 2.5V | 02:56:55 | 02:22:15 | 00:00:00 | |
| DK7TD | 2026-09-03 18:52:13 | 49.05746 | 8.61594 | 332° | 40km/h | 34265m | 3.1m/s | -36.3°C | 0% | 6.6hPa | 2.5V | 02:56:55 | 02:22:16 | 00:00:00 | |
| DF8AY | 2026-09-03 18:52:08 | 49.05752 | 8.61631 | 177° | 40km/h | 34242m | 4.7m/s | -36.6°C | 0% | 6.7hPa | 2.6V | 02:56:55 | 02:22:11 | 00:00:00 | |
| DL1XH-west | 2026-09-03 18:52:06 | 49.05771 | 8.61617 | 131° | 44km/h | 34235m | 3m/s | -36.7°C | 0% | 6.7hPa | 2.5V | 02:56:55 | 02:22:09 | 00:00:00 | |
| DL1ZP-14 | 2026-09-03 18:52:06 | 49.05776 | 8.61603 | 106° | 42km/h | 34231m | 3.6m/s | -36.7°C | 0.2% | 6.7hPa | 2.5V | 00:00:00 | 00:00:00 | 00:00:00 | |
| DM0DOS-11 | 2026-09-03 18:52:05 | 49.05740 | 8.61550 | 356° | 49km/h | 34205m | 3.8m/s | -36.8°C | 1.6% | 6.7hPa | 2.6V | 02:56:49 | 02:22:03 | 00:00:00 | |
| BIOWL1-15 | 2026-09-03 18:52:03 | 49.05753 | 8.61552 | 14° | 51km/h | 34210m | 5.1m/s | -36.8°C | 0% | 6.7hPa | 2.6V | 02:56:55 | 02:22:04 | 00:00:00 | |
| DK7TD | 2026-09-03 18:52:00 | 49.05740 | 8.61550 | 356° | 49km/h | 34205m | 3.8m/s | -36.8°C | 0% | 6.7hPa | 2.6V | 02:56:55 | 02:22:03 | 00:00:00 | |
| DL1XH-west | 2026-09-03 18:51:55 | 49.05726 | 8.61580 | 188° | 29km/h | 34183m | 6.2m/s | -36.9°C | 0% | 6.7hPa | 2.6V | 02:56:55 | 02:21:58 | 00:00:00 | |
| OE5DRO-10 | 2026-09-03 18:51:54 | 49.05734 | 8.61579 | 164° | 40km/h | 34177m | 5.8m/s | -36.9°C | 1.6% | 6.7hPa | 2.6V | 00:00:00 | 00:00:00 | 00:00:00 | |
| DL1XH1-15 | 2026-09-03 18:51:53 | 49.05749 | 8.61493 | 44° | 46km/h | 34146m | 6m/s | -37.3°C | 1.7% | 6.7hPa | 2.6V | 02:57:01 | 02:21:51 | 00:00:00 | |
| HSKMA3-T | 2026-09-03 18:51:52 | 49.05752 | 8.61559 | 126° | 47km/h | 34167m | 4.4m/s | 0°C | 0% | 0hPa | 2.5V | 18:12:15 | 02:21:55 | 00:00:00 | |
| BIOWL1-15 | 2026-09-03 18:51:51 | 49.05757 | 8.61542 | 107° | 47km/h | 34162m | 4.3m/s | -37.1°C | 0% | 6.7hPa | 2.5V | 02:57:46 | 02:21:54 | 00:00:00 | |
| DJ2DS-15 | 2026-09-03 18:51:51 | 49.05757 | 8.61542 | 107° | 37km/h | 34163m | 4.3m/s | -37.0°C | 1.7% | 6.7hPa | 2.5V | 00:00:00 | 02:21:54 | 00:00:00 | |
| DB0UT-7 | 2026-09-03 18:51:50 | 49.05758 | 8.61524 | 87° | 35km/h | 34158m | 4.9m/s | -37.1°C | 1.7% | 6.7hPa | 2.5V | 02:56:00 | 02:21:53 | 00:00:00 | |
| DL4BBY-15 | 2026-09-03 18:51:49 | 49.05756 | 8.61507 | 66° | 35km/h | 34152m | 5.6m/s | -37.6°C | 0% | 0hPa | 2.5V | 00:00:00 | 00:00:00 | 00:00:00 | |
| DL1XH-15 | 2026-09-03 18:51:48 | 49.05713 | 8.61495 | 271° | 18km/h | 34124m | 4.2m/s | -37.4°C | 1.7% | 6.8hPa | 2.5V | 02:57:06 | 02:21:46 | 00:00:00 | |
| DK7TD | 2026-09-03 18:51:47 | 49.05740 | 8.61484 | 23° | 44km/h | 34141m | 5.5m/s | -37.3°C | 0% | 6.8hPa | 2.6V | 02:57:46 | 02:21:50 | 00:00:00 | |
| DL1XH-west | 2026-09-03 18:51:45 | 49.05721 | 8.61482 | 341° | 33km/h | 34132m | 3.7m/s | -37.4°C | 0% | 6.8hPa | 2.5V | 02:57:46 | 02:21:48 | 00:00:00 | |
| BIOWL7-15 | 2026-09-03 18:51:44 | 49.05721 | 8.61482 | 342° | 33km/h | 34132m | 3.7m/s | -37.4°C | 0.2% | 6.8hPa | 2.5V | 00:00:00 | 00:00:00 | 00:00:00 | |
| DL1XH1-15 | 2026-09-03 18:51:43 | 49.05750 | 8.61488 | 137° | 51km/h | 34096m | 4.3m/s | -37.6°C | 1.7% | 6.8hPa | 2.5V | 02:57:11 | 02:21:41 | 00:00:00 | |
| HSKMA3-T | 2026-09-03 18:51:42 | 49.05714 | 8.61501 | 222° | 22km/h | 34119m | 5.4m/s | 0°C | 0% | 0hPa | 2.5V | 18:12:15 | 02:21:45 | 00:00:00 | |
| BIOWL1-15 | 2026-09-03 18:51:40 | 49.05729 | 8.61504 | 169° | 42km/h | 34107m | 6.5m/s | -37.5°C | 0% | 6.8hPa | 2.6V | 02:57:46 | 02:21:43 | 00:00:00 | |
| DM7RM-13 | 2026-09-03 18:51:40 | 49.05729 | 8.61504 | 170° | 42km/h | 34107m | 6.5m/s | -37.5°C | 0.2% | 6.8hPa | 2.6V | 02:57:00 | 00:00:00 | 00:00:00 | |
| DL8DAS-15 | 2026-09-03 18:51:39 | 49.05729 | 8.61504 | 170° | 42km/h | 34107m | 6.5m/s | -37.5°C | 0.2% | 6.8hPa | 2.6V | 00:00:00 | 00:00:00 | 00:00:00 | |
| DL1XH-15 | 2026-09-03 18:51:38 | 49.05757 | 8.61422 | 34° | 27km/h | 34072m | 6.7m/s | -37.7°C | 1.7% | 6.8hPa | 2.6V | 02:57:16 | 02:21:36 | 00:00:00 | |
| DF8AY | 2026-09-03 18:51:37 | 49.05758 | 8.61473 | 123° | 49km/h | 34092m | 3.5m/s | -37.6°C | 0% | 6.8hPa | 2.5V | 02:57:46 | 02:21:40 | 00:00:00 | |
| DL1XH-west | 2026-09-03 18:51:35 | 49.05764 | 8.61443 | 87° | 37km/h | 34084m | 4.7m/s | -37.7°C | 0% | 6.8hPa | 2.5V | 02:57:46 | 02:21:38 | 00:00:00 | |
| DK7TD | 2026-09-03 18:51:34 | 49.05762 | 8.61431 | 62° | 31km/h | 34079m | 6m/s | -37.7°C | 0% | 6.8hPa | 2.6V | 02:57:46 | 02:21:37 | 00:00:00 | |
| DL1XH1-15 | 2026-09-03 18:51:33 | 49.05734 | 8.61434 | 250° | 9km/h | 34046m | 3.9m/s | -37.8°C | 1.7% | 6.8hPa | 2.5V | 02:57:21 | 02:21:31 | 00:00:00 | |
| BIOWL1-15 | 2026-09-03 18:51:29 | 49.05734 | 8.61429 | 300° | 16km/h | 34050m | 3.8m/s | -37.8°C | 0% | 6.8hPa | 2.5V | 02:57:46 | 02:21:32 | 00:00:00 | |
| DF8AY | 2026-09-03 18:51:26 | 49.05740 | 8.61434 | 151° | 22km/h | 34037m | 5.7m/s | -37.8°C | 0% | 6.9hPa | 2.6V | 02:57:46 | 02:21:29 | 00:00:00 | |
| DL1XH-west | 2026-09-03 18:51:25 | 49.05745 | 8.61427 | 135° | 33km/h | 34031m | 6.2m/s | -37.8°C | 0% | 6.9hPa | 2.6V | 02:57:46 | 02:21:28 | 00:00:00 | |
| SONDE2-11 | 2026-09-03 18:51:25 | 49.05751 | 8.61416 | 123° | 40km/h | 34025m | 6.1m/s | -37.8°C | 0.2% | 6.9hPa | 2.5V | 00:00:00 | 00:00:00 | 00:00:00 | |
| IW2NTF | 2026-09-03 18:51:24 | 49.05758 | 8.61341 | 63° | 27km/h | 34000m | 5.1m/s | -37.8°C | 1.8% | 6.9hPa | 2.5V | 02:57:30 | 02:21:22 | 00:00:00 | |
| DK7TD | 2026-09-03 18:51:24 | 49.05751 | 8.61416 | 123° | 42km/h | 34025m | 6.1m/s | -37.8°C | 0% | 6.9hPa | 2.5V | 02:57:46 | 02:21:27 | 00:00:00 | |
| DL1XH1-15 | 2026-09-03 18:51:23 | 49.05754 | 8.61334 | 42° | 20km/h | 33995m | 5.9m/s | -37.8°C | 1.8% | 6.9hPa | 2.5V | 02:57:31 | 02:21:21 | 00:00:00 | |
| BIOWL1-15 | 2026-09-03 18:51:19 | 49.05758 | 8.61341 | 64° | 27km/h | 34000m | 5.1m/s | -37.8°C | 0% | 6.9hPa | 2.5V | 02:57:46 | 02:21:22 | 00:00:00 | |
| DF8AY | 2026-09-03 18:51:16 | 49.05746 | 8.61331 | 342° | 16km/h | 33982m | 5.8m/s | -37.8°C | 0% | 6.9hPa | 2.6V | 02:57:46 | 02:21:19 | 00:00:00 | |
| OE5DRO-10 | 2026-09-03 18:51:16 | 49.05746 | 8.61331 | 343° | 18km/h | 33983m | 5.8m/s | -37.8°C | 1.8% | 6.9hPa | 2.6V | 00:00:00 | 00:00:00 | 00:00:00 | |
| DM0DOS-11 | 2026-09-03 18:51:15 | 49.05736 | 8.61328 | 95° | 24km/h | 33953m | 5.8m/s | -37.7°C | 1.8% | 7hPa | 2.6V | 02:57:39 | 02:21:13 | 00:00:00 | |
| DL1XH-west | 2026-09-03 18:51:14 | 49.05740 | 8.61337 | 319° | 13km/h | 33972m | 4.1m/s | -37.8°C | 0% | 6.9hPa | 2.5V | 02:57:46 | 02:21:17 | 00:00:00 | |
| DL1XH1-15 | 2026-09-03 18:51:13 | 49.05738 | 8.61306 | 102° | 35km/h | 33942m | 5.1m/s | -37.7°C | 1.8% | 7hPa | 2.5V | 02:57:41 | 02:21:11 | 00:00:00 | |
| DK7TD | 2026-09-03 18:51:13 | 49.05738 | 8.61339 | 333° | 7km/h | 33968m | 4.1m/s | -37.8°C | 0% | 7hPa | 2.5V | 02:57:46 | 02:21:16 | 00:00:00 | |
| BIOWL1-15 | 2026-09-03 18:51:08 | 49.05738 | 8.61306 | 102° | 35km/h | 33942m | 5.1m/s | -37.7°C | 0% | 7hPa | 2.5V | 02:57:46 | 02:21:11 | 00:00:00 | |
| DL0LBS | 2026-09-03 18:51:06 | 49.05740 | 8.61292 | 106° | 37km/h | 33937m | 4.7m/s | -37.7°C | 0.2% | 7.0hPa | 2.6V | 02:57:00 | 00:00:00 | 00:00:00 | |
| DM0DOS-11 | 2026-09-03 18:51:05 | 49.05744 | 8.61255 | 357° | 16km/h | 33902m | 5m/s | -37.6°C | 1.8% | 7hPa | 2.6V | 02:57:49 | 02:21:03 | 00:00:00 | |
| DF8AY | 2026-09-03 18:51:05 | 49.05746 | 8.61269 | 112° | 27km/h | 33928m | 4.8m/s | -37.6°C | 0% | 7hPa | 2.5V | 02:57:46 | 02:21:08 | 00:00:00 | |
| DL1XH-west | 2026-09-03 18:51:04 | 49.05748 | 8.61261 | 115° | 18km/h | 33923m | 5.1m/s | -37.6°C | 0% | 7hPa | 2.5V | 02:57:46 | 02:21:07 | 00:00:00 | |
| DL1ZP-14 | 2026-09-03 18:51:04 | 49.05749 | 8.61257 | 111° | 9km/h | 33918m | 5.2m/s | -37.6°C | 0.2% | 7.0hPa | 2.5V | 00:00:00 | 00:00:00 | 00:00:00 | |
| DL1XH1-15 | 2026-09-03 18:51:03 | 49.05733 | 8.61252 | 19° | 26km/h | 33891m | 5.5m/s | -37.5°C | 1.8% | 7hPa | 2.5V | 02:57:51 | 02:21:01 | 00:00:00 | |
| DK7TD | 2026-09-03 18:51:01 | 49.05748 | 8.61254 | 354° | 11km/h | 33907m | 5.1m/s | -37.6°C | 0% | 7hPa | 2.6V | 02:58:37 | 02:21:04 | 00:00:00 | |
| BIOWL1-15 | 2026-09-03 18:50:58 | 49.05733 | 8.61252 | 19° | 26km/h | 33891m | 5.5m/s | -37.5°C | 0% | 7hPa | 2.5V | 02:58:37 | 02:21:01 | 00:00:00 | |
| DF8AY | 2026-09-03 18:50:55 | 49.05719 | 8.61232 | 71° | 26km/h | 33877m | 4.6m/s | -37.5°C | 0% | 7hPa | 2.5V | 02:58:37 | 02:20:58 | 00:00:00 | |
| DL1XH-west | 2026-09-03 18:50:53 | 49.05720 | 8.61214 | 116° | 24km/h | 33866m | 6.6m/s | -37.5°C | 0% | 7hPa | 2.6V | 02:58:37 | 02:20:56 | 00:00:00 | |
| DK7TD | 2026-09-03 18:50:50 | 49.05734 | 8.61196 | 153° | 24km/h | 33849m | 3.7m/s | -37.4°C | 0% | 7.1hPa | 2.5V | 02:58:37 | 02:20:53 | 00:00:00 | |
| DB0UT-7 | 2026-09-03 18:50:50 | 49.05734 | 8.61196 | 153° | 27km/h | 33849m | 3.7m/s | -37.3°C | 1.7% | 7.0hPa | 2.6V | 00:00:00 | 02:20:53 | 00:00:00 | |
| DF1GD-15 | 2026-09-03 18:50:49 | 49.05734 | 8.61196 | 154° | 24km/h | 33849m | 3.7m/s | -37.4°C | 0.2% | 7.1hPa | 2.6V | 02:58:00 | 00:00:00 | 00:00:00 | |
| DL4BBY-15 | 2026-09-03 18:50:48 | 49.05741 | 8.61188 | 114° | 29km/h | 33842m | 4.3m/s | -37.8°C | 0% | 0hPa | 2.6V | 00:00:00 | 00:00:00 | 00:00:00 | |
| DL1XH-15 | 2026-09-03 18:50:47 | 49.05709 | 8.61158 | 29° | 27km/h | 33810m | 3.3m/s | -37.3°C | 1.8% | 7.1hPa | 2.6V | 02:58:07 | 02:20:45 | 00:00:00 | |
| BIOWL1-15 | 2026-09-03 18:50:47 | 49.05741 | 8.61185 | 59° | 13km/h | 33836m | 6.2m/s | -37.4°C | 0% | 7.1hPa | 2.6V | 02:58:37 | 02:20:50 | 00:00:00 | |
| AU51GT2 | 2026-09-03 18:50:46 | 49.05738 | 8.61180 | 34° | 22km/h | 33830m | 7.0m/s | -37.4°C | 0.2% | 7.1hPa | 2.5V | 00:00:00 | 00:00:00 | 00:00:00 | |
| DM0DOS-11 | 2026-09-03 18:50:45 | 49.05703 | 8.61150 | 91° | 9km/h | 33800m | 6.4m/s | -37.2°C | 1.7% | 7.1hPa | 2.5V | 02:58:09 | 02:20:43 | 00:00:00 | |
| DF8AY | 2026-09-03 18:50:45 | 49.05732 | 8.61175 | 27° | 31km/h | 33822m | 6.5m/s | -37.4°C | 0% | 7.1hPa | 2.5V | 02:58:37 | 02:20:48 | 00:00:00 | |
| EDDB2-12 | 2026-09-03 18:50:44 | 49.05716 | 8.61163 | 25° | 33km/h | 33813m | 3.4m/s | -37.3°C | 0.2% | 7.1hPa | 2.6V | 00:00:00 | 00:00:00 | 00:00:00 | |
| DL1XH1-15 | 2026-09-03 18:50:43 | 49.05709 | 8.61144 | 161° | 24km/h | 33786m | 6.3m/s | -37.2°C | 1.7% | 7.1hPa | 2.6V | 02:58:11 | 02:20:41 | 00:00:00 | |
| DL1XH-west | 2026-09-03 18:50:43 | 49.05716 | 8.61163 | 26° | 35km/h | 33813m | 3.4m/s | -37.3°C | 0% | 7.1hPa | 2.6V | 02:58:37 | 02:20:46 | 00:00:00 | |
| PG1ADW-2 | 2026-09-03 18:50:42 | 49.05709 | 8.61158 | 30° | 27km/h | 33810m | 3.3m/s | 0°C | 0% | 0hPa | 2.5V | 00:00:00 | 00:00:00 | 00:00:00 | |
| IW2NTF | 2026-09-03 18:50:40 | 49.05729 | 8.61128 | 133° | 29km/h | 33773m | 3.6m/s | -37.2°C | 1.7% | 7.1hPa | 2.5V | 02:58:14 | 02:20:38 | 00:00:00 | |
| DK7TD | 2026-09-03 18:50:40 | 49.05703 | 8.61150 | 91° | 9km/h | 33800m | 6.4m/s | -37.3°C | 0% | 7.1hPa | 2.5V | 02:58:37 | 02:20:43 | 00:00:00 | |
| BIOWL1-15 | 2026-09-03 18:50:38 | 49.05723 | 8.61135 | 150° | 33km/h | 33777m | 3.6m/s | -37.2°C | 0% | 7.2hPa | 2.5V | 02:58:37 | 02:20:39 | 00:00:00 | |
| DK5PH-5 | 2026-09-03 18:50:38 | 49.05709 | 8.61144 | 162° | 31km/h | 33787m | 6.3m/s | -37.2°C | 1.7% | 7.1hPa | 2.5V | 00:00:00 | 02:20:41 | 00:00:00 | |
| DM7RM-13 | 2026-09-03 18:50:37 | 49.05709 | 8.61144 | 163° | 24km/h | 33787m | 6.3m/s | -37.2°C | 0.2% | 7.1hPa | 2.5V | 02:58:00 | 00:00:00 | 00:00:00 | |
| DO1YAY-16 | 2026-09-03 18:50:36 | 49.05729 | 8.61128 | 133° | 29km/h | 33773m | 3.7m/s | -37.2°C | 0.2% | 7.2hPa | 2.5V | 00:00:00 | 00:00:00 | 00:00:00 | |
| DM0DOS-11 | 2026-09-03 18:50:35 | 49.05717 | 8.61075 | 31° | 42km/h | 33745m | 4.6m/s | -37.1°C | 1.7% | 7.2hPa | 2.5V | 02:58:19 | 02:20:33 | 00:00:00 | |
| DF8AY | 2026-09-03 18:50:34 | 49.05733 | 8.61119 | 110° | 29km/h | 33769m | 4.8m/s | -37.2°C | 0% | 7.1hPa | 2.6V | 02:58:37 | 02:20:37 | 00:00:00 | |
| DL1XH1-15 | 2026-09-03 18:50:34 | 49.05700 | 8.61065 | 8° | 27km/h | 33738m | 2.9m/s | -37.1°C | 1.7% | 7.2hPa | 2.6V | 02:58:21 | 02:20:31 | 00:00:00 | |
| DL1XH-west | 2026-09-03 18:50:32 | 49.05731 | 8.61096 | 61° | 37km/h | 33757m | 6.9m/s | -37.1°C | 0% | 7.1hPa | 2.5V | 02:58:37 | 02:20:35 | 00:00:00 | |
| DK7TD | 2026-09-03 18:50:29 | 49.05708 | 8.61068 | 20° | 37km/h | 33741m | 3.1m/s | -37.1°C | 0% | 7.2hPa | 2.5V | 02:58:37 | 02:20:32 | 00:00:00 | |
| BIOWL1-15 | 2026-09-03 18:50:27 | 49.05695 | 8.61069 | 204° | 18km/h | 33722m | 6.9m/s | -37.1°C | 0% | 7.2hPa | 2.5V | 02:58:37 | 02:20:28 | 00:00:00 | |
| DF3TZ-5 | 2026-09-03 18:50:27 | 49.05693 | 8.61067 | 272° | 7km/h | 33729m | 6.4m/s | -37.1°C | 0.2% | 7.2hPa | 2.5V | 00:00:00 | 00:00:00 | 00:00:00 | |
| DM0DOS-11 | 2026-09-03 18:50:25 | 49.05734 | 8.61035 | 108° | 49km/h | 33698m | 5.2m/s | -37.1°C | 1.7% | 7.2hPa | 2.5V | 02:58:29 | 02:20:23 | 00:00:00 | |
| NBG1-10 | 2026-09-03 18:50:25 | 49.05695 | 8.61069 | 205° | 40km/h | 33722m | 6.9m/s | -37.0°C | 1.7% | 7.1hPa | 2.5V | 00:00:00 | 02:20:28 | 00:00:00 | |
| DF7PN | 2026-09-03 18:50:24 | 49.05701 | 8.61071 | 182° | 31km/h | 33716m | 5.9m/s | -37.1°C | 0.2% | 7.2hPa | 2.5V | 00:00:00 | 00:00:00 | 00:00:00 | |
| DL1XH1-15 | 2026-09-03 18:50:23 | 49.05733 | 8.60997 | 68° | 53km/h | 33686m | 5.6m/s | -37.2°C | 1.7% | 7.2hPa | 2.5V | 02:58:31 | 02:20:21 | 00:00:00 | |
| DL1XH-west | 2026-09-03 18:50:21 | 49.05728 | 8.61051 | 129° | 47km/h | 33703m | 4.4m/s | -37.1°C | 0% | 7.2hPa | 2.6V | 02:58:37 | 02:20:24 | 00:00:00 | |
| DK7TD | 2026-09-03 18:50:17 | 49.05727 | 8.60980 | 51° | 51km/h | 33681m | 4.9m/s | -37.2°C | 0% | 7.2hPa | 2.6V | 02:58:37 | 02:20:20 | 00:00:00 | |
| BIOWL1-15 | 2026-09-03 18:50:15 | 49.05708 | 8.60960 | 18° | 38km/h | 33672m | 4.5m/s | -37.3°C | 0% | 7.2hPa | 2.5V | 02:58:37 | 02:20:18 | 00:00:00 | |
| DB0NH | 2026-09-03 18:50:14 | 49.05700 | 8.60958 | 357° | 27km/h | 33668m | 4.8m/s | -37.3°C | 1.7% | 7.2hPa | 2.6V | 00:00:00 | 02:20:17 | 00:00:00 | |
| DL1XH1-15 | 2026-09-03 18:50:13 | 49.05723 | 8.60958 | 136° | 47km/h | 33638m | 4m/s | -37.5°C | 1.7% | 7.3hPa | 2.6V | 02:58:41 | 02:20:11 | 00:00:00 | |
| DL1XH-west | 2026-09-03 18:50:11 | 49.05698 | 8.60970 | 204° | 24km/h | 33652m | 5.3m/s | -37.5°C | 0% | 7.3hPa | 2.6V | 02:59:28 | 02:20:14 | 00:00:00 | |
| DF8AY | 2026-09-03 18:50:10 | 49.05705 | 8.60971 | 178° | 35km/h | 33647m | 4.7m/s | -37.5°C | 0% | 7.3hPa | 2.5V | 03:00:19 | 02:20:13 | 00:00:00 | |
| DK7TD | 2026-09-03 18:50:06 | 49.05734 | 8.60924 | 97° | 55km/h | 33629m | 5.1m/s | -37.5°C | 0% | 7.3hPa | 2.5V | 02:59:28 | 02:20:09 | 00:00:00 | |
| BIOWL1-15 | 2026-09-03 18:50:05 | 49.05733 | 8.60903 | 79° | 57km/h | 33624m | 5.5m/s | -37.5°C | 0% | 7.3hPa | 2.5V | 02:59:28 | 02:20:08 | 00:00:00 | |
| DJ2KF-10 | 2026-09-03 18:50:05 | 49.05733 | 8.60903 | 79° | 40km/h | 33624m | 5.4m/s | -37.4°C | 1.7% | 7.2hPa | 2.5V | 02:58:00 | 02:20:08 | 00:00:00 | |
| DO1YAY-16 | 2026-09-03 18:50:04 | 49.05728 | 8.60883 | 60° | 55km/h | 33619m | 5.4m/s | -37.5°C | 0.2% | 7.3hPa | 2.5V | 00:00:00 | 00:00:00 | 00:00:00 | |
| DL1XH1-15 | 2026-09-03 18:50:03 | 49.05690 | 8.60860 | 221° | 18km/h | 33590m | 5.3m/s | -37.4°C | 1.7% | 7.3hPa | 2.5V | 02:58:51 | 02:20:01 | 00:00:00 | |
| DL1XH-west | 2026-09-03 18:50:00 | 49.05693 | 8.60851 | 341° | 24km/h | 33599m | 4.5m/s | -37.4°C | 0% | 7.3hPa | 2.6V | 02:59:28 | 02:20:03 | 00:00:00 | |
| DK7TD | 2026-09-03 18:49:56 | 49.05704 | 8.60861 | 164° | 40km/h | 33579m | 5.3m/s | -37.4°C | 0% | 7.3hPa | 2.6V | 02:59:28 | 02:19:59 | 00:00:00 | |
| BIOWL1-15 | 2026-09-03 18:49:54 | 49.05722 | 8.60840 | 125° | 53km/h | 33569m | 4.7m/s | -37.3°C | 0% | 7.4hPa | 2.5V | 02:59:28 | 02:19:57 | 00:00:00 | |
| DL1XH-west | 2026-09-03 18:49:49 | 49.05711 | 8.60747 | 32° | 51km/h | 33544m | 4.8m/s | -37.3°C | 0% | 7.4hPa | 2.5V | 02:59:28 | 02:19:52 | 00:00:00 | |
| DK7TD | 2026-09-03 18:49:45 | 49.05682 | 8.60749 | 266° | 18km/h | 33524m | 5.5m/s | -37.3°C | 0% | 7.4hPa | 2.6V | 02:59:28 | 02:19:48 | 00:00:00 | |
| DM0DOS-11 | 2026-09-03 18:49:45 | 49.05717 | 8.60733 | 119° | 51km/h | 33499m | 4.7m/s | -37.5°C | 1.7% | 7.5hPa | 2.5V | 02:59:09 | 02:19:43 | 00:00:00 | |
| BIOWL1-15 | 2026-09-03 18:49:44 | 49.05685 | 8.60755 | 215° | 24km/h | 33519m | 5.6m/s | -37.4°C | 0% | 7.4hPa | 2.5V | 02:59:28 | 02:19:47 | 00:00:00 | |
| AU51GT2 | 2026-09-03 18:49:44 | 49.05691 | 8.60758 | 183° | 31km/h | 33513m | 5.5m/s | -37.4°C | 0.2% | 7.4hPa | 2.5V | 00:00:00 | 00:00:00 | 00:00:00 | |
| DL1XH1-15 | 2026-09-03 18:49:43 | 49.05722 | 8.60695 | 80° | 53km/h | 33489m | 5.2m/s | -37.6°C | 1.7% | 7.4hPa | 2.5V | 02:59:11 | 02:19:41 | 00:00:00 | |
| EDDB2-12 | 2026-09-03 18:49:42 | 49.05710 | 8.60747 | 139° | 46km/h | 33504m | 4.6m/s | -37.5°C | 0.2% | 7.4hPa | 2.6V | 00:00:00 | 00:00:00 | 00:00:00 | |
| OE5DRO-10 | 2026-09-03 18:49:41 | 49.05710 | 8.60747 | 140° | 44km/h | 33504m | 4.6m/s | -37.4°C | 1.7% | 7.4hPa | 2.6V | 02:59:00 | 00:00:00 | 00:00:00 | |
| DL1XH-15 | 2026-09-03 18:49:39 | 49.05690 | 8.60650 | 358° | 37km/h | 33468m | 4.9m/s | -37.7°C | 1.8% | 7.5hPa | 2.6V | 02:59:15 | 02:19:37 | 00:00:00 | |
| DF8AY | 2026-09-03 18:49:39 | 49.05722 | 8.60715 | 100° | 53km/h | 33494m | 4.9m/s | -37.6°C | 0% | 7.4hPa | 2.5V | 03:00:19 | 02:19:42 | 00:00:00 | |
| DL1XH-west | 2026-09-03 18:49:38 | 49.05722 | 8.60695 | 81° | 53km/h | 33489m | 5.2m/s | -37.6°C | 0% | 7.5hPa | 2.5V | 02:59:28 | 02:19:41 | 00:00:00 | |
| DK5PH-5 | 2026-09-03 18:49:36 | 49.05710 | 8.60662 | 41° | 37km/h | 33479m | 5.2m/s | -37.6°C | 1.7% | 7.4hPa | 2.6V | 02:59:00 | 02:19:39 | 00:00:00 | |
| DM0DOS-11 | 2026-09-03 18:49:35 | 49.05682 | 8.60674 | 205° | 27km/h | 33449m | 5.2m/s | -37.8°C | 1.8% | 7.5hPa | 2.6V | 02:59:19 | 02:19:33 | 00:00:00 | |
| BIOWL1-15 | 2026-09-03 18:49:34 | 49.05690 | 8.60650 | 358° | 37km/h | 33469m | 4.9m/s | -37.7°C | 0% | 7.5hPa | 2.6V | 02:59:28 | 02:19:37 | 00:00:00 | |
| DL1XH1-15 | 2026-09-03 18:49:33 | 49.05699 | 8.60672 | 154° | 44km/h | 33439m | 4.9m/s | -37.8°C | 1.8% | 7.5hPa | 2.5V | 02:59:21 | 02:19:31 | 00:00:00 | |
| DK7TD | 2026-09-03 18:49:32 | 49.05678 | 8.60660 | 293° | 22km/h | 33459m | 4.9m/s | -37.8°C | 0% | 7.5hPa | 2.5V | 02:59:28 | 02:19:35 | 00:00:00 | |
| DL1XH-west | 2026-09-03 18:49:27 | 49.05708 | 8.60661 | 134° | 47km/h | 33434m | 4.8m/s | -37.8°C | 0% | 7.5hPa | 2.5V | 02:59:28 | 02:19:30 | 00:00:00 | |
| DF8AY | 2026-09-03 18:49:26 | 49.05715 | 8.60646 | 116° | 51km/h | 33429m | 4.7m/s | -37.8°C | 0% | 7.5hPa | 2.5V | 03:00:19 | 02:19:29 | 00:00:00 | |
| DM0DOS-11 | 2026-09-03 18:49:25 | 49.05691 | 8.60573 | 345° | 27km/h | 33399m | 4.8m/s | -37.9°C | 1.8% | 7.5hPa | 2.6V | 02:59:29 | 02:19:23 | 00:00:00 | |
| BIOWL1-15 | 2026-09-03 18:49:23 | 49.05714 | 8.60592 | 59° | 46km/h | 33415m | 5.1m/s | -37.9°C | 0% | 7.5hPa | 2.5V | 02:59:28 | 02:19:26 | 00:00:00 | |
| DK7TD | 2026-09-03 18:49:20 | 49.05691 | 8.60573 | 346° | 27km/h | 33399m | 4.9m/s | -37.9°C | 0% | 7.5hPa | 2.6V | 03:01:10 | 02:19:23 | 00:00:00 | |
| DL1XH-west | 2026-09-03 18:49:16 | 49.05694 | 8.60593 | 185° | 31km/h | 33380m | 5.2m/s | -37.9°C | 0% | 7.6hPa | 2.5V | 03:00:19 | 02:19:19 | 00:00:00 | |
| DF8AY | 2026-09-03 18:49:13 | 49.05720 | 8.60570 | 125° | 49km/h | 33365m | 4.8m/s | -37.9°C | 0% | 7.6hPa | 2.5V | 03:00:19 | 02:19:16 | 00:00:00 | |
| DK7TD | 2026-09-03 18:49:07 | 49.05705 | 8.60488 | 7° | 29km/h | 33336m | 4.8m/s | -37.9°C | 0% | 7.6hPa | 2.5V | 03:01:10 | 02:19:10 | 00:00:00 | |
| BIOWL7-15 | 2026-09-03 18:49:06 | 49.05699 | 8.60488 | 340° | 20km/h | 33332m | 4.5m/s | -37.9°C | 0.2% | 7.6hPa | 2.5V | 00:00:00 | 00:00:00 | 00:00:00 | |
| DM0DOS-11 | 2026-09-03 18:49:05 | 49.05724 | 8.60485 | 133° | 46km/h | 33301m | 5m/s | -38°C | 1.8% | 7.7hPa | 2.5V | 02:59:49 | 02:19:03 | 00:00:00 | |
| DL1XH-west | 2026-09-03 18:49:05 | 49.05696 | 8.60492 | 294° | 15km/h | 33327m | 4.6m/s | -37.9°C | 0% | 7.6hPa | 2.6V | 03:00:19 | 02:19:08 | 00:00:00 | |
| DL1XH1-15 | 2026-09-03 18:49:03 | 49.05735 | 8.60453 | 101° | 47km/h | 33291m | 4.9m/s | -38°C | 1.8% | 7.7hPa | 2.6V | 02:59:51 | 02:19:01 | 00:00:00 | |
| BIOWL1-15 | 2026-09-03 18:49:02 | 49.05707 | 8.60500 | 168° | 33km/h | 33312m | 5.4m/s | -38°C | 0% | 7.7hPa | 2.5V | 03:00:19 | 02:19:05 | 00:00:00 | |
| DF8AY | 2026-09-03 18:49:00 | 49.05724 | 8.60485 | 134° | 46km/h | 33301m | 5m/s | -38°C | 0% | 7.7hPa | 2.5V | 03:00:19 | 02:19:03 | 00:00:00 | |
| DL1XH-west | 2026-09-03 18:48:54 | 49.05724 | 8.60399 | 32° | 27km/h | 33272m | 5.1m/s | -38.1°C | 0% | 7.7hPa | 2.5V | 03:00:19 | 02:18:57 | 00:00:00 | |
| DF3TZ-5 | 2026-09-03 18:48:54 | 49.05719 | 8.60396 | 10° | 18km/h | 33266m | 5.4m/s | -38.2°C | 0.2% | 7.7hPa | 2.5V | 00:00:00 | 00:00:00 | 00:00:00 | |
| DL1XH1-15 | 2026-09-03 18:48:53 | 49.05726 | 8.60399 | 156° | 27km/h | 33239m | 5.3m/s | -38.4°C | 1.8% | 7.7hPa | 2.5V | 03:00:01 | 02:18:51 | 00:00:00 | |
| BIOWL1-15 | 2026-09-03 18:48:52 | 49.05715 | 8.60396 | 337° | 11km/h | 33261m | 5.5m/s | -38.2°C | 0% | 7.7hPa | 2.6V | 03:00:19 | 02:18:55 | 00:00:00 | |
| EDDB2-11 | 2026-09-03 18:48:52 | 49.05714 | 8.60398 | 260° | 5km/h | 33256m | 5.6m/s | -38.2°C | 0.2% | 7.7hPa | 2.5V | 00:00:00 | 00:00:00 | 00:00:00 | |
| DF7PN | 2026-09-03 18:48:51 | 49.05714 | 8.60398 | 260° | 5km/h | 33256m | 5.6m/s | -38.2°C | 0.2% | 7.7hPa | 2.5V | 00:00:00 | 00:00:00 | 00:00:00 | |
| SONDE2-11 | 2026-09-03 18:48:50 | 49.05720 | 8.60401 | 175° | 20km/h | 33245m | 5.4m/s | -38.3°C | 0.2% | 7.7hPa | 2.5V | 00:00:00 | 00:00:00 | 00:00:00 | |
| BIOWL9-15 | 2026-09-03 18:48:49 | 49.05720 | 8.60401 | 175° | 20km/h | 33245m | 5.4m/s | -38.3°C | 0.2% | 7.7hPa | 2.5V | 00:00:00 | 00:00:00 | 00:00:00 | |
| IW2NTF | 2026-09-03 18:48:48 | 49.05745 | 8.60341 | 85° | 35km/h | 33214m | 4.9m/s | -38.5°C | 1.8% | 7.7hPa | 2.5V | 03:00:06 | 02:18:46 | 00:00:00 | |
| DF8AY | 2026-09-03 18:48:48 | 49.05726 | 8.60399 | 156° | 27km/h | 33239m | 5.3m/s | -38.4°C | 0% | 7.7hPa | 2.5V | 03:00:19 | 02:18:51 | 00:00:00 | |
| DL6DJ-15 | 2026-09-03 18:48:48 | 49.05732 | 8.60393 | 140° | 33km/h | 33234m | 5.2m/s | -38.4°C | 0.2% | 7.7hPa | 2.6V | 00:00:00 | 00:00:00 | 00:00:00 | |
| DD1CC8 | 2026-09-03 18:48:46 | 49.05738 | 8.60383 | 124° | 37km/h | 33229m | 4.9m/s | -38.4°C | 0.2% | 7.8hPa | 2.6V | 00:00:00 | 00:00:00 | 00:00:00 | |
| DJ2DS-15 | 2026-09-03 18:48:44 | 49.05745 | 8.60355 | 98° | 38km/h | 33220m | 4.7m/s | -38.4°C | 0.2% | 7.8hPa | 2.6V | 00:00:00 | 00:00:00 | 00:00:00 | |
| BIOWL1-15 | 2026-09-03 18:48:43 | 49.05741 | 8.60319 | 56° | 26km/h | 33204m | 5.8m/s | -38.5°C | 0% | 7.8hPa | 2.6V | 03:00:19 | 02:18:44 | 00:00:00 | |
| DL1XH-west | 2026-09-03 18:48:43 | 49.05745 | 8.60341 | 85° | 35km/h | 33214m | 4.9m/s | -38.5°C | 0% | 7.7hPa | 2.5V | 03:00:19 | 02:18:46 | 00:00:00 | |
| DM0DOS-11 | 2026-09-03 18:48:42 | 49.05729 | 8.60306 | 45° | 5km/h | 33184m | 4.4m/s | -38.6°C | 1.8% | 7.8hPa | 2.6V | 03:00:12 | 02:18:40 | 00:00:00 | |
| DK7TD | 2026-09-03 18:48:40 | 49.05737 | 8.60313 | 39° | 20km/h | 33198m | 5.5m/s | -38.5°C | 0% | 7.8hPa | 2.5V | 03:01:10 | 02:18:43 | 00:00:00 | |
| DF8AY | 2026-09-03 18:48:37 | 49.05729 | 8.60306 | 46° | 5km/h | 33184m | 4.4m/s | -38.6°C | 0% | 7.8hPa | 2.6V | 03:00:19 | 02:18:40 | 00:00:00 | |
| DK5PH-5 | 2026-09-03 18:48:36 | 49.05728 | 8.60304 | 105° | 22km/h | 33180m | 5.0m/s | -38.5°C | 1.8% | 7.7hPa | 2.5V | 03:00:00 | 02:18:39 | 00:00:00 | |
| DL1XH-15 | 2026-09-03 18:48:35 | 49.05745 | 8.60241 | 100° | 33km/h | 33148m | 4.8m/s | -38.5°C | 1.8% | 7.8hPa | 2.5V | 03:00:19 | 02:18:33 | 00:00:00 | |
| DL1XH1-15 | 2026-09-03 18:48:33 | 49.05744 | 8.60220 | 71° | 22km/h | 33138m | 5.7m/s | -38.4°C | 1.8% | 7.9hPa | 2.6V | 03:00:21 | 02:18:31 | 00:00:00 | |
| DL1XH-west | 2026-09-03 18:48:33 | 49.05736 | 8.60281 | 115° | 35km/h | 33162m | 5.4m/s | -38.6°C | 0% | 7.8hPa | 2.5V | 03:00:19 | 02:18:36 | 00:00:00 | |
| BIOWL1-15 | 2026-09-03 18:48:33 | 49.05742 | 8.60254 | 106° | 38km/h | 33153m | 4.2m/s | -38.5°C | 0% | 7.8hPa | 2.6V | 03:00:19 | 02:18:34 | 00:00:00 | |
| DK7TD | 2026-09-03 18:48:29 | 49.05745 | 8.60230 | 89° | 27km/h | 33143m | 5.3m/s | -38.5°C | 0% | 7.8hPa | 2.5V | 03:01:10 | 02:18:32 | 00:00:00 | |
| DF8AY | 2026-09-03 18:48:25 | 49.05733 | 8.60203 | 33° | 22km/h | 33122m | 5.2m/s | -38.4°C | 0% | 7.9hPa | 2.5V | 03:01:10 | 02:18:28 | 00:00:00 | |
| DF1GD-15 | 2026-09-03 18:48:24 | 49.05733 | 8.60203 | 33° | 22km/h | 33122m | 5.2m/s | -38.4°C | 0.2% | 7.9hPa | 2.5V | 03:01:00 | 00:00:00 | 00:00:00 | |
| DL1XH1-15 | 2026-09-03 18:48:23 | 49.05721 | 8.60158 | 110° | 18km/h | 33085m | 5.6m/s | -38.4°C | 1.8% | 7.9hPa | 2.5V | 03:00:31 | 02:18:21 | 00:00:00 | |
| DF3TZ-5 | 2026-09-03 18:48:23 | 49.05721 | 8.60186 | 60° | 20km/h | 33106m | 4.8m/s | -38.4°C | 0.2% | 7.9hPa | 2.5V | 00:00:00 | 00:00:00 | 00:00:00 | |
| DM0DOS-11 | 2026-09-03 18:48:22 | 49.05722 | 8.60152 | 113° | 18km/h | 33079m | 4.8m/s | -38.4°C | 1.8% | 7.9hPa | 2.5V | 03:00:32 | 02:18:20 | 00:00:00 | |
| DL1XH-west | 2026-09-03 18:48:22 | 49.05721 | 8.60186 | 60° | 22km/h | 33106m | 4.8m/s | -38.4°C | 0% | 7.9hPa | 2.6V | 03:01:10 | 02:18:25 | 00:00:00 | |
| BIOWL1-15 | 2026-09-03 18:48:20 | 49.05719 | 8.60172 | 88° | 18km/h | 33096m | 5.3m/s | -38.4°C | 0% | 7.9hPa | 2.6V | 03:01:10 | 02:18:23 | 00:00:00 | |
| DB0UT-7 | 2026-09-03 18:48:20 | 49.05719 | 8.60172 | 89° | 24km/h | 33096m | 5.3m/s | -38.3°C | 1.8% | 7.9hPa | 2.5V | 00:00:00 | 00:00:00 | 00:00:00 | |
| IW2NTF | 2026-09-03 18:48:19 | 49.05726 | 8.60129 | 94° | 24km/h | 33066m | 5.1m/s | -38.5°C | 1.8% | 7.9hPa | 2.5V | 03:00:35 | 02:18:17 | 00:00:00 | |
| DK7TD | 2026-09-03 18:48:19 | 49.05719 | 8.60165 | 101° | 18km/h | 33090m | 5.9m/s | -38.4°C | 0% | 7.9hPa | 2.5V | 03:01:10 | 02:18:22 | 00:00:00 | |
| DL4BBY-15 | 2026-09-03 18:48:18 | 49.05720 | 8.60158 | 111° | 24km/h | 33085m | 5.5m/s | -38.8°C | 0% | 0hPa | 2.6V | 00:00:00 | 00:00:00 | 00:00:00 | |
| DL6DJ-15 | 2026-09-03 18:48:17 | 49.05724 | 8.60145 | 110° | 18km/h | 33075m | 4.2m/s | -38.4°C | 0.2% | 7.9hPa | 2.6V | 00:00:00 | 00:00:00 | 00:00:00 | |
| DD1CC8 | 2026-09-03 18:48:15 | 49.05726 | 8.60129 | 94° | 24km/h | 33066m | 5.1m/s | -38.5°C | 0.2% | 7.9hPa | 2.6V | 00:00:00 | 00:00:00 | 00:00:00 | |
| DL1XH1-15 | 2026-09-03 18:48:13 | 49.05709 | 8.60083 | 9° | 22km/h | 33036m | 6.4m/s | -38.6°C | 1.9% | 8hPa | 2.6V | 03:00:41 | 02:18:11 | 00:00:00 | |
| DF8AY | 2026-09-03 18:48:13 | 49.05726 | 8.60120 | 85° | 27km/h | 33061m | 5.6m/s | -38.6°C | 0% | 7.9hPa | 2.5V | 03:01:10 | 02:18:16 | 00:00:00 | |
| DM7RM-13 | 2026-09-03 18:48:13 | 49.05726 | 8.60119 | 86° | 27km/h | 33061m | 5.6m/s | -38.6°C | 0.2% | 7.9hPa | 2.5V | 03:01:00 | 00:00:00 | 00:00:00 | |
| DM0DOS-11 | 2026-09-03 18:48:12 | 49.05704 | 8.60083 | 348° | 20km/h | 33030m | 6.1m/s | -38.6°C | 1.9% | 8hPa | 2.5V | 03:00:42 | 02:18:10 | 00:00:00 | |
| DL1XH-west | 2026-09-03 18:48:11 | 49.05722 | 8.60099 | 63° | 27km/h | 33051m | 4.4m/s | -38.6°C | 0% | 8hPa | 2.5V | 03:01:10 | 02:18:14 | 00:00:00 | |
| BIOWL1-15 | 2026-09-03 18:48:10 | 49.05719 | 8.60091 | 47° | 26km/h | 33046m | 4.2m/s | -38.6°C | 0% | 8hPa | 2.6V | 03:01:10 | 02:18:13 | 00:00:00 | |
| DJ2DS-15 | 2026-09-03 18:48:10 | 49.05719 | 8.60091 | 47° | 26km/h | 33047m | 4.2m/s | -38.6°C | 1.9% | 7.9hPa | 2.6V | 00:00:00 | 02:18:13 | 00:00:00 | |
| IW2NTF | 2026-09-03 18:48:09 | 49.05693 | 8.60089 | 1° | 5km/h | 33016m | 3.6m/s | -38.6°C | 1.8% | 8hPa | 2.6V | 03:00:45 | 02:18:07 | 00:00:00 | |
| DB0UT-9 | 2026-09-03 18:48:09 | 49.05714 | 8.60085 | 30° | 22km/h | 33042m | 5.2m/s | -38.6°C | 0.2% | 8.0hPa | 2.6V | 03:01:00 | 00:00:00 | 00:00:00 | |
| DL1XH-15 | 2026-09-03 18:48:08 | 49.05692 | 8.60087 | 76° | 9km/h | 33012m | 4.4m/s | -38.6°C | 1.8% | 8hPa | 2.6V | 03:00:46 | 02:18:06 | 00:00:00 | |
| DK7TD | 2026-09-03 18:48:05 | 49.05696 | 8.60088 | 331° | 13km/h | 33020m | 3.8m/s | -38.6°C | 0% | 8hPa | 2.5V | 03:01:10 | 02:18:08 | 00:00:00 | |
| DF8AY | 2026-09-03 18:48:04 | 49.05692 | 8.60087 | 77° | 9km/h | 33012m | 4.4m/s | -38.7°C | 0% | 8hPa | 2.6V | 03:01:10 | 02:18:06 | 00:00:00 | |
| OE5DRO-10 | 2026-09-03 18:48:04 | 49.05693 | 8.60089 | 2° | 27km/h | 33017m | 3.6m/s | -38.6°C | 1.8% | 8.0hPa | 2.6V | 03:00:00 | 00:00:00 | 00:00:00 | |
| DL1XH1-15 | 2026-09-03 18:48:03 | 49.05687 | 8.60029 | 65° | 37km/h | 32987m | 2.5m/s | -38.5°C | 1.8% | 8hPa | 2.6V | 03:00:51 | 02:18:01 | 00:00:00 | |
| DM0DOS-11 | 2026-09-03 18:48:02 | 49.05682 | 8.60018 | 46° | 31km/h | 32984m | 3.9m/s | -38.5°C | 1.8% | 8hPa | 2.6V | 03:00:52 | 02:18:00 | 00:00:00 | |
| DL1XH-west | 2026-09-03 18:48:00 | 49.05692 | 8.60058 | 85° | 38km/h | 32994m | 5.2m/s | -38.6°C | 0% | 8hPa | 2.5V | 03:01:10 | 02:18:03 | 00:00:00 | |
| BIOWL1-15 | 2026-09-03 18:47:59 | 49.05690 | 8.60043 | 78° | 40km/h | 32990m | 3.2m/s | -38.6°C | 0% | 8hPa | 2.5V | 03:01:10 | 02:18:02 | 00:00:00 | |
| DL1ZP-14 | 2026-09-03 18:47:57 | 49.05682 | 8.60018 | 46° | 31km/h | 32984m | 3.9m/s | -38.5°C | 0.2% | 8.1hPa | 2.6V | 00:00:00 | 00:00:00 | 00:00:00 | |
| DL1XH-15 | 2026-09-03 18:47:55 | 49.05645 | 8.60050 | 294° | 9km/h | 32949m | 4.4m/s | -38.5°C | 1.8% | 8.1hPa | 2.5V | 03:00:59 | 02:17:53 | 00:00:00 | |
| DL8DAS-14 | 2026-09-03 18:47:54 | 49.05656 | 8.60025 | 310° | 35km/h | 32960m | 4.7m/s | -38.5°C | 0.2% | 8.1hPa | 2.5V | 00:00:00 | 00:00:00 | 00:00:00 | |
| DL1XH1-15 | 2026-09-03 18:47:53 | 49.05645 | 8.60046 | 95° | 20km/h | 32937m | 6.7m/s | -38.5°C | 1.8% | 8.1hPa | 2.5V | 03:01:01 | 02:17:51 | 00:00:00 | |
| DM0DOS-11 | 2026-09-03 18:47:52 | 49.05645 | 8.60037 | 91° | 31km/h | 32931m | 6.1m/s | -38.5°C | 1.8% | 8.1hPa | 2.5V | 03:01:02 | 02:17:50 | 00:00:00 | |
| DK7TD | 2026-09-03 18:47:50 | 49.05646 | 8.60050 | 294° | 9km/h | 32949m | 4.4m/s | -38.5°C | 0% | 8.1hPa | 2.5V | 03:01:10 | 02:17:53 | 00:00:00 | |
| BIOWL1-15 | 2026-09-03 18:47:49 | 49.05645 | 8.60051 | 90° | 5km/h | 32943m | 5.8m/s | -38.5°C | 0% | 8.1hPa | 2.5V | 03:01:10 | 02:17:52 | 00:00:00 | |
| BIOWL9-15 | 2026-09-03 18:47:47 | 49.05646 | 8.60037 | 91° | 31km/h | 32931m | 6.1m/s | -38.5°C | 0.2% | 8.1hPa | 2.6V | 00:00:00 | 00:00:00 | 00:00:00 | |
| DL6DJ-15 | 2026-09-03 18:47:46 | 49.05644 | 8.60009 | 74° | 37km/h | 32922m | 3.2m/s | -38.6°C | 0.2% | 8.1hPa | 2.6V | 00:00:00 | 00:00:00 | 00:00:00 | |
| OE5DRO-10 | 2026-09-03 18:47:45 | 49.05643 | 8.60009 | 75° | 27km/h | 32922m | 3.2m/s | -38.5°C | 1.8% | 8.0hPa | 2.6V | 00:00:00 | 00:00:00 | 00:00:00 | |
| DD1CC8 | 2026-09-03 18:47:44 | 49.05636 | 8.59989 | 34° | 24km/h | 32914m | 4.9m/s | -38.6°C | 0.2% | 8.1hPa | 2.5V | 00:00:00 | 00:00:00 | 00:00:00 | |
| DL1XH1-15 | 2026-09-03 18:47:43 | 49.05610 | 8.60021 | 287° | 31km/h | 32886m | 3.5m/s | -38.7°C | 1.8% | 8.1hPa | 2.5V | 03:01:11 | 02:17:41 | 00:00:00 | |
| DM0DOS-11 | 2026-09-03 18:47:42 | 49.05608 | 8.60031 | 276° | 22km/h | 32882m | 3.7m/s | -38.8°C | 1.9% | 8.1hPa | 2.5V | 03:01:12 | 02:17:40 | 00:00:00 | |
| DL1XH-west | 2026-09-03 18:47:39 | 49.05613 | 8.60009 | 297° | 37km/h | 32890m | 4.5m/s | -38.7°C | 0% | 8.1hPa | 2.6V | 03:01:10 | 02:17:42 | 00:00:00 | |
| BIOWL1-15 | 2026-09-03 18:47:38 | 49.05610 | 8.60021 | 288° | 31km/h | 32886m | 3.5m/s | -38.7°C | 0% | 8.1hPa | 2.5V | 03:02:01 | 02:17:41 | 00:00:00 | |
| DK7TD | 2026-09-03 18:47:37 | 49.05608 | 8.60031 | 277° | 22km/h | 32882m | 3.7m/s | -38.8°C | 0% | 8.1hPa | 2.5V | 03:02:01 | 02:17:40 | 00:00:00 | |
| DK5PH-5 | 2026-09-03 18:47:36 | 49.05608 | 8.60037 | 247° | 26km/h | 32878m | 5.0m/s | -38.8°C | 1.8% | 8.1hPa | 2.6V | 00:00:00 | 02:17:39 | 00:00:00 | |
| SONCRA | 2026-09-03 18:47:34 | 49.05612 | 8.60032 | 115° | 22km/h | 32866m | 7.1m/s | -38.9°C | 0.2% | 8.2hPa | 2.6V | 00:00:00 | 00:00:00 | 00:00:00 | |
| DL1XH1-15 | 2026-09-03 18:47:33 | 49.05604 | 8.59970 | 0° | 22km/h | 32837m | 6.3m/s | -39.1°C | 1.9% | 8.2hPa | 2.6V | 03:01:21 | 02:17:31 | 00:00:00 | |
| NBG1-10 | 2026-09-03 18:47:33 | 49.05614 | 8.60022 | 105° | 26km/h | 32859m | 6.0m/s | -38.9°C | 1.9% | 8.1hPa | 2.6V | 00:00:00 | 02:17:36 | 00:00:00 | |
| IW2NTF | 2026-09-03 18:47:32 | 49.05598 | 8.59974 | 325° | 27km/h | 32831m | 6.8m/s | -39.2°C | 1.9% | 8.2hPa | 2.6V | 03:01:22 | 02:17:30 | 00:00:00 | |
| DL1XH-west | 2026-09-03 18:47:29 | 49.05609 | 8.59973 | 39° | 24km/h | 32843m | 4.8m/s | -39.1°C | 0% | 8.2hPa | 2.5V | 03:02:01 | 02:17:32 | 00:00:00 | |
| BIOWL1-15 | 2026-09-03 18:47:28 | 49.05604 | 8.59970 | 0° | 22km/h | 32837m | 6.3m/s | -39.1°C | 0% | 8.2hPa | 2.6V | 03:02:01 | 02:17:31 | 00:00:00 | |
| OE5DRO-10 | 2026-09-03 18:47:26 | 49.05593 | 8.59982 | 303° | 22km/h | 32825m | 5.6m/s | -39.2°C | 1.9% | 8.2hPa | 2.5V | 00:00:00 | 00:00:00 | 00:00:00 | |
| DK7TD | 2026-09-03 18:47:26 | 49.05593 | 8.59982 | 303° | 35km/h | 32825m | 5.6m/s | -39.2°C | 0% | 8.2hPa | 2.5V | 03:02:01 | 02:17:29 | 00:00:00 | |
| DN1GJH-1 | 2026-09-03 18:47:25 | 49.05593 | 8.59982 | 303° | 35km/h | 32825m | 5.6m/s | -39.2°C | 0.3% | 8.2hPa | 2.5V | 03:02:00 | 00:00:00 | 00:00:00 | |
| DJTTGO | 2026-09-03 18:47:24 | 49.05589 | 8.59994 | 286° | 37km/h | 32820m | 3.8m/s | -39.2°C | 0.2% | 8.2hPa | 2.5V | 03:02:00 | 00:00:00 | 00:00:00 | |
| DL1XH1-15 | 2026-09-03 18:47:23 | 49.05615 | 8.60002 | 117° | 35km/h | 32784m | 4.9m/s | -39.3°C | 1.9% | 8.3hPa | 2.5V | 03:01:31 | 02:17:21 | 00:00:00 | |
| DL8DAS-14 | 2026-09-03 18:47:23 | 49.05593 | 8.60025 | 210° | 20km/h | 32808m | 5.5m/s | -39.2°C | 0.2% | 8.3hPa | 2.5V | 00:00:00 | 00:00:00 | 00:00:00 | |
| DM0DOS-11 | 2026-09-03 18:47:22 | 49.05618 | 8.59991 | 105° | 29km/h | 32779m | 4.3m/s | -39.3°C | 1.9% | 8.3hPa | 2.5V | 03:01:32 | 02:17:20 | 00:00:00 | |
| BIOWL1-15 | 2026-09-03 18:47:19 | 49.05618 | 8.59991 | 106° | 29km/h | 32779m | 4.3m/s | -39.3°C | 0% | 8.3hPa | 2.5V | 03:02:01 | 02:17:20 | 00:00:00 | |
| DL1XH-west | 2026-09-03 18:47:18 | 49.05615 | 8.60002 | 117° | 35km/h | 32784m | 4.9m/s | -39.3°C | 0% | 8.3hPa | 2.5V | 03:02:01 | 02:17:21 | 00:00:00 | |
| DL4BBY-15 | 2026-09-03 18:47:18 | 49.05615 | 8.60002 | 118° | 16km/h | 32785m | 4.8m/s | -39.7°C | 0% | 0hPa | 2.6V | 00:00:00 | 00:00:00 | 00:00:00 | |
| BIOWL9-15 | 2026-09-03 18:47:16 | 49.05618 | 8.59976 | 55° | 11km/h | 32770m | 5.3m/s | -39.4°C | 0.2% | 8.3hPa | 2.6V | 00:00:00 | 00:00:00 | 00:00:00 | |
| DL6DJ-15 | 2026-09-03 18:47:14 | 49.05616 | 8.59974 | 351° | 9km/h | 32764m | 6.0m/s | -39.4°C | 0.2% | 8.3hPa | 2.6V | 00:00:00 | 00:00:00 | 00:00:00 | |
| DL1XH1-15 | 2026-09-03 18:47:13 | 49.05613 | 8.60009 | 195° | 16km/h | 32733m | 5.6m/s | -39.4°C | 1.9% | 8.3hPa | 2.6V | 03:01:41 | 02:17:11 | 00:00:00 | |
| DD1CC8 | 2026-09-03 18:47:13 | 49.05610 | 8.59983 | 296° | 22km/h | 32753m | 5.2m/s | -39.4°C | 0.2% | 8.3hPa | 2.5V | 00:00:00 | 00:00:00 | 00:00:00 | |
| DM0DOS-11 | 2026-09-03 18:47:12 | 49.05618 | 8.60009 | 168° | 22km/h | 32727m | 6m/s | -39.4°C | 1.9% | 8.3hPa | 2.5V | 03:01:42 | 02:17:10 | 00:00:00 | |
| DK7TD | 2026-09-03 18:47:09 | 49.05610 | 8.60005 | 233° | 16km/h | 32738m | 5m/s | -39.4°C | 0% | 8.3hPa | 2.6V | 03:02:01 | 02:17:12 | 00:00:00 | |
| DL1XH-west | 2026-09-03 18:47:08 | 49.05613 | 8.60009 | 195° | 18km/h | 32733m | 5.6m/s | -39.4°C | 0% | 8.3hPa | 2.6V | 03:02:01 | 02:17:11 | 00:00:00 | |
| DF8AY | 2026-09-03 18:47:07 | 49.05618 | 8.60009 | 168° | 22km/h | 32727m | 6m/s | -39.4°C | 0% | 8.3hPa | 2.5V | 03:02:52 | 02:17:10 | 00:00:00 | |
| BIOWL1-15 | 2026-09-03 18:47:06 | 49.05624 | 8.60006 | 153° | 27km/h | 32721m | 5.7m/s | -39.4°C | 0% | 8.4hPa | 2.5V | 03:02:01 | 02:17:09 | 00:00:00 | |
| DK5PH-5 | 2026-09-03 18:47:04 | 49.05635 | 8.59994 | 140° | 13km/h | 32711m | 5.2m/s | -39.4°C | 1.9% | 8.3hPa | 2.6V | 00:00:00 | 02:17:07 | 00:00:00 | |
| DL1XH1-15 | 2026-09-03 18:47:03 | 49.05646 | 8.59984 | 253° | 5km/h | 32678m | 5.1m/s | -39.5°C | 1.9% | 8.4hPa | 2.6V | 03:01:51 | 02:17:01 | 00:00:00 | |
| SONCRA | 2026-09-03 18:47:03 | 49.05643 | 8.59983 | 137° | 13km/h | 32700m | 5.5m/s | -39.5°C | 0.2% | 8.4hPa | 2.6V | 00:00:00 | 00:00:00 | 00:00:00 | |
| DM0DOS-11 | 2026-09-03 18:47:02 | 49.05647 | 8.59985 | 226° | 5km/h | 32673m | 5.5m/s | -39.5°C | 1.9% | 8.4hPa | 2.6V | 03:01:52 | 02:17:00 | 00:00:00 | |
| DK7TD | 2026-09-03 18:46:58 | 49.05646 | 8.59984 | 254° | 5km/h | 32678m | 5.1m/s | -39.5°C | 0% | 8.4hPa | 2.6V | 03:02:01 | 02:17:01 | 00:00:00 | |
| DL1XH-west | 2026-09-03 18:46:57 | 49.05647 | 8.59985 | 226° | 5km/h | 32673m | 5.5m/s | -39.5°C | 0% | 8.4hPa | 2.6V | 03:02:01 | 02:17:00 | 00:00:00 | |
| DF8AY | 2026-09-03 18:46:56 | 49.05648 | 8.59987 | 195° | 9km/h | 32667m | 5.6m/s | -39.5°C | 0% | 8.4hPa | 2.6V | 03:02:52 | 02:16:59 | 00:00:00 | |
| BIOWL1-15 | 2026-09-03 18:46:55 | 49.05651 | 8.59987 | 175° | 13km/h | 32662m | 5.3m/s | -39.5°C | 0% | 8.5hPa | 2.5V | 03:02:01 | 02:16:58 | 00:00:00 | |
| DL1XH1-15 | 2026-09-03 18:46:53 | 49.05673 | 8.59975 | 123° | 7km/h | 32625m | 4.8m/s | -39.5°C | 1.9% | 8.5hPa | 2.5V | 03:02:01 | 02:16:51 | 00:00:00 | |
| DM0DOS-11 | 2026-09-03 18:46:52 | 49.05674 | 8.59972 | 107° | 9km/h | 32620m | 4.6m/s | -39.5°C | 1.9% | 8.5hPa | 2.6V | 03:02:02 | 02:16:50 | 00:00:00 | |
| DL8DAS-14 | 2026-09-03 18:46:52 | 49.05667 | 8.59980 | 159° | 15km/h | 32642m | 5.6m/s | -39.6°C | 0.2% | 8.4hPa | 2.5V | 00:00:00 | 00:00:00 | 00:00:00 | |
| DF3TZ-5 | 2026-09-03 18:46:49 | 49.05672 | 8.59977 | 147° | 7km/h | 32631m | 5.5m/s | -39.5°C | 0.2% | 8.5hPa | 2.5V | 00:00:00 | 00:00:00 | 00:00:00 | |
| EDDB2-11 | 2026-09-03 18:46:48 | 49.05674 | 8.59972 | 107° | 7km/h | 32621m | 4.6m/s | 0°C | -1.0% | 8.5hPa | 2.5V | 00:00:00 | 00:00:00 | 00:00:00 | |
| IW2NTF | 2026-09-03 18:46:47 | 49.05681 | 8.59939 | 115° | 24km/h | 32593m | 4.7m/s | -39.6°C | 1.9% | 8.5hPa | 2.5V | 03:02:07 | 02:16:45 | 00:00:00 | |
| DL1XH-west | 2026-09-03 18:46:46 | 49.05675 | 8.59968 | 103° | 13km/h | 32616m | 4.9m/s | -39.5°C | 0% | 8.5hPa | 2.6V | 03:02:52 | 02:16:49 | 00:00:00 | |
| DF8AY | 2026-09-03 18:46:45 | 49.05676 | 8.59962 | 106° | 16km/h | 32610m | 5.9m/s | -39.5°C | 0% | 8.5hPa | 2.5V | 03:02:52 | 02:16:48 | 00:00:00 | |
| BIOWL1-15 | 2026-09-03 18:46:44 | 49.05677 | 8.59955 | 109° | 22km/h | 32604m | 6.2m/s | -39.6°C | 0% | 8.5hPa | 2.5V | 03:02:52 | 02:16:47 | 00:00:00 | |
| DL1XH1-15 | 2026-09-03 18:46:43 | 49.05688 | 8.59924 | 243° | 2km/h | 32572m | 6.5m/s | -39.6°C | 2% | 8.5hPa | 2.5V | 03:02:11 | 02:16:41 | 00:00:00 | |
| DM0DOS-11 | 2026-09-03 18:46:42 | 49.05688 | 8.59925 | 286° | 5km/h | 32566m | 5.3m/s | -39.6°C | 1.9% | 8.6hPa | 2.5V | 03:02:12 | 02:16:40 | 00:00:00 | |
| DO3MHA-11 | 2026-09-03 18:46:42 | 49.05681 | 8.59939 | 116° | 11km/h | 32593m | 4.7m/s | -39.6°C | 1.9% | 8.4hPa | 2.5V | 00:00:00 | 02:16:45 | 00:00:00 | |
| DF1GD-15 | 2026-09-03 18:46:41 | 49.05681 | 8.59939 | 117° | 24km/h | 32593m | 4.7m/s | -39.6°C | 0.2% | 8.5hPa | 2.5V | 03:02:00 | 00:00:00 | 00:00:00 | |
| DL8DAS-15 | 2026-09-03 18:46:40 | 49.05684 | 8.59932 | 121° | 18km/h | 32589m | 4.3m/s | -39.6°C | 0.3% | 8.5hPa | 2.5V | 00:00:00 | 00:00:00 | 00:00:00 | |
| AU51GT2 | 2026-09-03 18:46:38 | 49.05688 | 8.59925 | 286° | 4km/h | 32567m | 5.4m/s | -39.6°C | 0.2% | 8.6hPa | 2.5V | 00:00:00 | 00:00:00 | 00:00:00 | |
| IW2NTF | 2026-09-03 18:46:37 | 49.05694 | 8.59911 | 121° | 29km/h | 32540m | 6.2m/s | -39.5°C | 2% | 8.6hPa | 2.5V | 03:02:17 | 02:16:35 | 00:00:00 | |
| LOEBOVI | 2026-09-03 18:46:37 | 49.05688 | 8.59923 | 0° | 0km/h | 32573m | 6.5m/s | 0°C | 0% | 0hPa | 2.5V | 00:00:00 | 00:00:00 | 00:00:00 | |
| DL1XH-15 | 2026-09-03 18:46:36 | 49.05698 | 8.59900 | 121° | 35km/h | 32535m | 5.1m/s | -39.5°C | 2% | 8.6hPa | 2.5V | 03:02:18 | 02:16:34 | 00:00:00 | |
| DK7TD | 2026-09-03 18:46:36 | 49.05687 | 8.59926 | 283° | 4km/h | 32561m | 4.2m/s | -39.6°C | 0% | 8.6hPa | 2.5V | 03:02:52 | 02:16:39 | 00:00:00 | |
| DL1XH-west | 2026-09-03 18:46:35 | 49.05688 | 8.59927 | 127° | 4km/h | 32558m | 4.1m/s | -39.5°C | 0% | 8.6hPa | 2.6V | 03:02:52 | 02:16:38 | 00:00:00 | |
| DF8AY | 2026-09-03 18:46:34 | 49.05689 | 8.59924 | 121° | 11km/h | 32553m | 5.4m/s | -39.5°C | 0% | 0hPa | 2.6V | 03:02:52 | 02:16:37 | 00:00:00 | |
| DK5PH-5 | 2026-09-03 18:46:34 | 49.05688 | 8.59924 | 122° | 22km/h | 32553m | 5.3m/s | -39.5°C | 2.0% | 8.5hPa | 2.6V | 03:02:00 | 02:16:37 | 00:00:00 | |
| DM0DOS-11 | 2026-09-03 18:46:32 | 49.05714 | 8.59862 | 121° | 16km/h | 32514m | 5.8m/s | -39.4°C | 2% | 8.6hPa | 2.6V | 03:02:22 | 02:16:30 | 00:00:00 | |
| DO3MHA-11 | 2026-09-03 18:46:32 | 49.05694 | 8.59911 | 122° | 20km/h | 32541m | 6.1m/s | -39.4°C | 2.0% | 8.5hPa | 2.6V | 03:02:00 | 02:16:35 | 00:00:00 | |
| BIOWL7-15 | 2026-09-03 18:46:31 | 49.05694 | 8.59911 | 122° | 29km/h | 32541m | 6.2m/s | -39.5°C | 0.2% | 8.6hPa | 2.6V | 03:02:00 | 00:00:00 | 00:00:00 | |
| DJ2DS-15 | 2026-09-03 18:46:30 | 49.05703 | 8.59889 | 121° | 20km/h | 32530m | 4.6m/s | -39.4°C | 2.0% | 8.5hPa | 2.6V | 00:00:00 | 02:16:33 | 00:00:00 | |
| DJ2KF-10 | 2026-09-03 18:46:29 | 49.05707 | 8.59878 | 122° | 22km/h | 32526m | 4.7m/s | -39.4°C | 1.9% | 8.6hPa | 2.6V | 00:00:00 | 02:16:32 | 00:00:00 | |
| IW2NTF | 2026-09-03 18:46:28 | 49.05721 | 8.59853 | 150° | 13km/h | 32489m | 5.5m/s | -39.3°C | 1.9% | 8.7hPa | 2.6V | 03:02:27 | 02:16:25 | 00:00:00 | |
| DL1XH-west | 2026-09-03 18:46:26 | 49.05716 | 8.59856 | 143° | 4km/h | 32503m | 4.9m/s | -39.4°C | 0% | 8.6hPa | 2.5V | 03:02:52 | 02:16:28 | 00:00:00 | |
| DF8AY | 2026-09-03 18:46:25 | 49.05718 | 8.59855 | 162° | 7km/h | 32494m | 4.7m/s | -39.3°C | 0% | 0hPa | 2.6V | 03:02:52 | 02:16:26 | 00:00:00 | |
| DL1ZP-14 | 2026-09-03 18:46:24 | 49.05717 | 8.59855 | 169° | 4km/h | 32499m | 4.5m/s | -39.4°C | 0.2% | 8.6hPa | 2.5V | 00:00:00 | 00:00:00 | 00:00:00 | |
| DO3MHA-11 | 2026-09-03 18:46:22 | 49.05721 | 8.59853 | 151° | 24km/h | 32489m | 5.5m/s | -39.3°C | 1.9% | 8.6hPa | 2.5V | 00:00:00 | 02:16:25 | 00:00:00 | |
| DL8DAS-14 | 2026-09-03 18:46:21 | 49.05728 | 8.59844 | 140° | 24km/h | 32478m | 5.7m/s | -39.3°C | 0.2% | 8.7hPa | 2.5V | 00:00:00 | 00:00:00 | 00:00:00 | |
| DL1XH-15 | 2026-09-03 18:46:20 | 49.05752 | 8.59790 | 85° | 18km/h | 32440m | 5m/s | -39.2°C | 1.9% | 8.7hPa | 2.5V | 03:02:36 | 02:16:16 | 00:00:00 | |
| IW2NTF | 2026-09-03 18:46:20 | 49.05751 | 8.59782 | 82° | 22km/h | 32435m | 5.1m/s | -39.3°C | 1.9% | 8.7hPa | 2.5V | 03:02:37 | 02:16:15 | 00:00:00 | |
| DL1XH-west | 2026-09-03 18:46:15 | 49.05752 | 8.59797 | 97° | 18km/h | 32445m | 5.1m/s | -39.2°C | 0% | 8.7hPa | 2.5V | 03:02:52 | 02:16:17 | 00:00:00 | |
| DF8AY | 2026-09-03 18:46:14 | 49.05752 | 8.59790 | 86° | 18km/h | 32440m | 5m/s | -39.3°C | 0% | 0hPa | 2.5V | 03:02:52 | 02:16:16 | 00:00:00 | |
| BIOWL1-15 | 2026-09-03 18:46:14 | 49.05751 | 8.59782 | 83° | 22km/h | 32435m | 5.1m/s | -39.3°C | 0% | 8.7hPa | 2.5V | 03:02:52 | 02:16:15 | 00:00:00 | |
| DO3MHA-11 | 2026-09-03 18:46:12 | 49.05751 | 8.59782 | 83° | 22km/h | 32435m | 5.0m/s | -39.2°C | 1.9% | 8.7hPa | 2.5V | 00:00:00 | 02:16:15 | 00:00:00 | |
| DL8DAS-15 | 2026-09-03 18:46:11 | 49.05751 | 8.59782 | 84° | 22km/h | 32435m | 5.1m/s | -39.3°C | 0.3% | 8.7hPa | 2.6V | 00:00:00 | 00:00:00 | 00:00:00 | |
| DM0DOS-11 | 2026-09-03 18:46:10 | 49.05762 | 8.59726 | 152° | 20km/h | 32396m | 6.2m/s | -39.1°C | 1.9% | 8.8hPa | 2.6V | 03:02:44 | 02:16:08 | 00:00:00 | |
| DL1XH-15 | 2026-09-03 18:46:10 | 49.05772 | 8.59720 | 155° | 20km/h | 32386m | 4.2m/s | -39.1°C | 1.9% | 8.8hPa | 2.5V | 03:02:46 | 02:16:06 | 00:00:00 | |
| DJ2DS-15 | 2026-09-03 18:46:10 | 49.05750 | 8.59764 | 91° | 24km/h | 32424m | 5.8m/s | -39.2°C | 1.9% | 8.7hPa | 2.6V | 03:02:00 | 02:16:13 | 00:00:00 | |
| IW2NTF | 2026-09-03 18:46:09 | 49.05776 | 8.59716 | 141° | 22km/h | 32381m | 4.2m/s | -39.1°C | 1.9% | 8.8hPa | 2.5V | 03:02:47 | 02:16:05 | 00:00:00 | |
| DL1XH-west | 2026-09-03 18:46:03 | 49.05771 | 8.59720 | 156° | 20km/h | 32386m | 4.2m/s | -39.1°C | 0% | 8.8hPa | 2.5V | 03:02:52 | 02:16:06 | 00:00:00 | |
| DF8AY | 2026-09-03 18:46:02 | 49.05776 | 8.59716 | 142° | 22km/h | 32381m | 4.2m/s | 0°C | 0% | 0hPa | 2.5V | 03:02:52 | 02:16:05 | 00:00:00 | |
| BIOWL1-15 | 2026-09-03 18:46:01 | 49.05780 | 8.59710 | 128° | 26km/h | 32376m | 5.4m/s | -39.1°C | 0% | 8.8hPa | 2.5V | 03:02:52 | 02:16:04 | 00:00:00 | |
| SONCRA | 2026-09-03 18:46:01 | 49.05783 | 8.59701 | 116° | 29km/h | 32371m | 6.4m/s | -39.1°C | 0.2% | 8.8hPa | 2.5V | 00:00:00 | 00:00:00 | 00:00:00 | |
| DF1GD-15 | 2026-09-03 18:46:00 | 49.05783 | 8.59701 | 117° | 31km/h | 32371m | 6.4m/s | -39.0°C | 0.2% | 8.8hPa | 2.5V | 03:02:00 | 00:00:00 | 00:00:00 | |
| DJ2KF-10 | 2026-09-03 18:45:58 | 49.05789 | 8.59675 | 103° | 26km/h | 32359m | 5.0m/s | -39.0°C | 1.9% | 8.8hPa | 2.5V | 00:00:00 | 02:16:01 | 00:00:00 | |
| DL1XH-15 | 2026-09-03 18:45:57 | 49.05797 | 8.59624 | 147° | 9km/h | 32327m | 4.9m/s | -39.3°C | 1.9% | 8.8hPa | 2.5V | 03:02:57 | 02:15:55 | 00:00:00 | |
| IW2NTF | 2026-09-03 18:45:56 | 49.05799 | 8.59621 | 149° | 13km/h | 32322m | 4.5m/s | -39.3°C | 1.9% | 8.9hPa | 2.5V | 03:02:58 | 02:15:54 | 00:00:00 | |
| DL1XH-west | 2026-09-03 18:45:53 | 49.05795 | 8.59626 | 124° | 9km/h | 32332m | 5.7m/s | -39.2°C | 0% | 8.9hPa | 2.6V | 03:03:43 | 02:15:56 | 00:00:00 | |
| DK7TD | 2026-09-03 18:45:52 | 49.05797 | 8.59623 | 148° | 9km/h | 32327m | 4.9m/s | -39.3°C | 0% | 8.8hPa | 2.5V | 03:03:43 | 02:15:55 | 00:00:00 | |
| DO3MHA-11 | 2026-09-03 18:45:52 | 49.05797 | 8.59623 | 148° | 27km/h | 32327m | 4.8m/s | -39.2°C | 1.9% | 8.8hPa | 2.5V | 03:02:00 | 02:15:55 | 00:00:00 | |
| DM0DOS-11 | 2026-09-03 18:45:50 | 49.05821 | 8.59565 | 106° | 38km/h | 32289m | 5.6m/s | -39.1°C | 1.9% | 8.9hPa | 2.5V | 03:03:04 | 02:15:48 | 00:00:00 | |
| BIOWL1-15 | 2026-09-03 18:45:50 | 49.05802 | 8.59618 | 140° | 18km/h | 32317m | 5.4m/s | -39.3°C | 0% | 8.9hPa | 2.5V | 03:03:43 | 02:15:53 | 00:00:00 | |
| DL8DAS-14 | 2026-09-03 18:45:50 | 49.05806 | 8.59612 | 128° | 24km/h | 32312m | 5.9m/s | -39.2°C | 0.2% | 8.9hPa | 2.6V | 00:00:00 | 00:00:00 | 00:00:00 | |
| DF3TZ-5 | 2026-09-03 18:45:48 | 49.05814 | 8.59592 | 115° | 35km/h | 32300m | 5.4m/s | -39.2°C | 0.2% | 8.9hPa | 2.6V | 00:00:00 | 00:00:00 | 00:00:00 | |
| BIOWL7-15 | 2026-09-03 18:45:47 | 49.05810 | 8.59603 | 122° | 31km/h | 32306m | 5.7m/s | -39.2°C | 0.2% | 8.9hPa | 2.6V | 03:03:00 | 00:00:00 | 00:00:00 | |
| IW2NTF | 2026-09-03 18:45:46 | 49.05823 | 8.59518 | 77° | 26km/h | 32267m | 5.3m/s | -39°C | 1.9% | 8.9hPa | 2.6V | 03:03:08 | 02:15:44 | 00:00:00 | |
| DF7PN | 2026-09-03 18:45:45 | 49.05823 | 8.59551 | 102° | 35km/h | 32284m | 5.8m/s | -39.1°C | 0.2% | 8.9hPa | 2.5V | 00:00:00 | 00:00:00 | 00:00:00 | |
| DJ2DS-15 | 2026-09-03 18:45:44 | 49.05823 | 8.59551 | 102° | 35km/h | 32284m | 5.8m/s | -39.1°C | 0.2% | 8.9hPa | 2.5V | 00:00:00 | 00:00:00 | 00:00:00 | |
| DL1XH1-15 | 2026-09-03 18:45:43 | 49.05818 | 8.59491 | 75° | 24km/h | 32250m | 5.4m/s | -39°C | 1.9% | 9hPa | 2.5V | 03:03:11 | 02:15:41 | 00:00:00 | |
| BIOWL1-15 | 2026-09-03 18:45:43 | 49.05820 | 8.59500 | 72° | 26km/h | 32256m | 6m/s | -39°C | 0% | 9hPa | 2.5V | 03:03:43 | 02:15:42 | 00:00:00 | |
| DL1XH-west | 2026-09-03 18:45:42 | 49.05824 | 8.59528 | 85° | 27km/h | 32273m | 5.4m/s | -39°C | 0% | 8.9hPa | 2.6V | 03:03:43 | 02:15:45 | 00:00:00 | |
| DO3MHA-11 | 2026-09-03 18:45:42 | 49.05824 | 8.59528 | 86° | 22km/h | 32273m | 5.4m/s | -39.0°C | 1.9% | 8.9hPa | 2.6V | 00:00:00 | 02:15:45 | 00:00:00 | |
| DL6DJ-15 | 2026-09-03 18:45:41 | 49.05823 | 8.59518 | 77° | 24km/h | 32267m | 5.3m/s | -39.0°C | 0.2% | 9.0hPa | 2.5V | 00:00:00 | 00:00:00 | 00:00:00 | |
| DM0DOS-11 | 2026-09-03 18:45:40 | 49.05817 | 8.59467 | 107° | 16km/h | 32235m | 5.7m/s | -38.9°C | 1.9% | 9hPa | 2.5V | 03:03:14 | 02:15:38 | 00:00:00 | |
| DF1GD-15 | 2026-09-03 18:45:39 | 49.05821 | 8.59509 | 73° | 26km/h | 32262m | 5.6m/s | -39.0°C | 0.3% | 9.0hPa | 2.6V | 03:03:00 | 00:00:00 | 00:00:00 | |
| DL1XH-15 | 2026-09-03 18:45:37 | 49.05827 | 8.59452 | 146° | 22km/h | 32217m | 5m/s | -39°C | 1.9% | 9hPa | 2.6V | 03:03:17 | 02:15:35 | 00:00:00 | |
| DF8AY | 2026-09-03 18:45:37 | 49.05817 | 8.59482 | 81° | 24km/h | 32245m | 4.8m/s | 0°C | 0% | 0hPa | 2.6V | 03:04:34 | 02:15:40 | 00:00:00 | |
| IW2NTF | 2026-09-03 18:45:36 | 49.05832 | 8.59446 | 141° | 27km/h | 32212m | 4.7m/s | -39°C | 1.9% | 9hPa | 2.6V | 03:03:18 | 02:15:34 | 00:00:00 | |
| KANTATE | 2026-09-03 18:45:35 | 49.05816 | 8.59473 | 94° | 20km/h | 32241m | 4.8m/s | -39.0°C | 0.2% | 9.0hPa | 2.5V | 03:03:00 | 00:00:00 | 00:00:00 | |
| DK5PH-5 | 2026-09-03 18:45:34 | 49.05819 | 8.59461 | 128° | 24km/h | 32230m | 6.4m/s | -38.9°C | 1.9% | 9.0hPa | 2.5V | 00:00:00 | 02:15:37 | 00:00:00 | |
| DL1XH1-15 | 2026-09-03 18:45:33 | 49.05847 | 8.59417 | 114° | 37km/h | 32196m | 5.4m/s | -38.9°C | 1.9% | 9hPa | 2.5V | 03:03:21 | 02:15:31 | 00:00:00 | |
| DL1XH-west | 2026-09-03 18:45:32 | 49.05827 | 8.59452 | 146° | 22km/h | 32217m | 5m/s | -39°C | 0% | 9hPa | 2.6V | 03:03:43 | 02:15:35 | 00:00:00 | |
| DO3MHA-11 | 2026-09-03 18:45:32 | 49.05827 | 8.59452 | 147° | 27km/h | 32218m | 4.9m/s | -38.9°C | 1.9% | 8.9hPa | 2.6V | 00:00:00 | 02:15:35 | 00:00:00 | |
| DM0DOS-11 | 2026-09-03 18:45:30 | 49.05851 | 8.59381 | 82° | 26km/h | 32180m | 6m/s | -38.8°C | 1.9% | 9hPa | 2.6V | 03:03:24 | 02:15:28 | 00:00:00 | |
| BIOWL1-15 | 2026-09-03 18:45:28 | 49.05847 | 8.59417 | 115° | 37km/h | 32196m | 5.4m/s | -38.9°C | 0% | 9.1hPa | 2.5V | 03:03:43 | 02:15:31 | 00:00:00 | |
| DF8AY | 2026-09-03 18:45:26 | 49.05851 | 8.59392 | 94° | 31km/h | 32186m | 4.8m/s | 0°C | 0% | 0hPa | 2.6V | 03:04:34 | 02:15:29 | 00:00:00 | |
| OE5DRO-10 | 2026-09-03 18:45:26 | 49.05851 | 8.59392 | 94° | 24km/h | 32187m | 4.7m/s | -38.8°C | 1.9% | 9.0hPa | 2.6V | 03:03:00 | 00:00:00 | 00:00:00 | |
| DL1XH-15 | 2026-09-03 18:45:25 | 49.05844 | 8.59357 | 108° | 11km/h | 32154m | 5.1m/s | -38.7°C | 1.9% | 9.1hPa | 2.6V | 03:03:29 | 02:15:23 | 00:00:00 | |
| DO1YAY-16 | 2026-09-03 18:45:25 | 49.05851 | 8.59381 | 82° | 24km/h | 32181m | 6.0m/s | -38.8°C | 0.2% | 9.0hPa | 2.5V | 00:00:00 | 00:00:00 | 00:00:00 | |
| DB0ND-19 | 2026-09-03 18:45:24 | 49.05849 | 8.59373 | 66° | 18km/h | 32175m | 6.6m/s | -38.8°C | 0.2% | 9.1hPa | 2.5V | 00:00:00 | 00:00:00 | 00:00:00 | |
| DL1XH1-15 | 2026-09-03 18:45:23 | 49.05849 | 8.59344 | 126° | 29km/h | 32141m | 6.3m/s | -38.7°C | 1.9% | 9.1hPa | 2.5V | 03:03:31 | 02:15:21 | 00:00:00 | |
| DL1XH-west | 2026-09-03 18:45:21 | 49.05844 | 8.59361 | 72° | 7km/h | 32158m | 4.4m/s | -38.8°C | 0% | 9.1hPa | 2.5V | 03:03:43 | 02:15:24 | 00:00:00 | |
| BIOWL1-15 | 2026-09-03 18:45:17 | 49.05854 | 8.59334 | 128° | 37km/h | 32136m | 5.6m/s | -38.7°C | 0% | 9.1hPa | 2.5V | 03:03:43 | 02:15:20 | 00:00:00 | |
| DF3TZ-5 | 2026-09-03 18:45:16 | 49.05866 | 8.59311 | 128° | 37km/h | 32126m | 4.8m/s | -38.7°C | 0.2% | 9.1hPa | 2.5V | 00:00:00 | 00:00:00 | 00:00:00 | |
| DL1XH-15 | 2026-09-03 18:45:15 | 49.05878 | 8.59271 | 74° | 16km/h | 32099m | 5.2m/s | -38.7°C | 1.9% | 9.2hPa | 2.5V | 03:03:39 | 02:15:13 | 00:00:00 | |
| HEMX73-11 | 2026-09-03 18:45:14 | 49.05871 | 8.59301 | 127° | 33km/h | 32121m | 5.3m/s | -38.7°C | 0.2% | 9.1hPa | 2.6V | 03:03:00 | 00:00:00 | 00:00:00 | |
| DL1XH1-15 | 2026-09-03 18:45:13 | 49.05875 | 8.59257 | 71° | 22km/h | 32088m | 5.9m/s | -38.6°C | 1.9% | 9.2hPa | 2.6V | 03:03:41 | 02:15:11 | 00:00:00 | |
| DF8AY | 2026-09-03 18:45:13 | 49.05876 | 8.59291 | 121° | 26km/h | 32115m | 5.5m/s | 0°C | 0% | 0hPa | 2.5V | 03:04:34 | 02:15:16 | 00:00:00 | |
| BIOWL9-15 | 2026-09-03 18:45:12 | 49.05879 | 8.59277 | 90° | 15km/h | 32105m | 5.1m/s | -38.7°C | 0.2% | 9.1hPa | 2.5V | 00:00:00 | 00:00:00 | 00:00:00 | |
| DL8DAS-15 | 2026-09-03 18:45:11 | 49.05879 | 8.59277 | 92° | 16km/h | 32105m | 5.1m/s | -38.7°C | 0.2% | 9.1hPa | 2.5V | 00:00:00 | 00:00:00 | 00:00:00 | |
| DM0DOS-11 | 2026-09-03 18:45:10 | 49.05873 | 8.59228 | 96° | 26km/h | 32072m | 5m/s | -38.6°C | 1.8% | 9.2hPa | 2.5V | 03:03:44 | 02:15:08 | 00:00:00 | |
| DL1XH-west | 2026-09-03 18:45:10 | 49.05879 | 8.59271 | 75° | 16km/h | 32099m | 5.3m/s | -38.7°C | 0% | 9.2hPa | 2.5V | 03:03:43 | 02:15:13 | 00:00:00 | |
| BIOWL1-15 | 2026-09-03 18:45:06 | 49.05873 | 8.59238 | 87° | 26km/h | 32077m | 5m/s | -38.6°C | 0% | 9.2hPa | 2.5V | 03:03:43 | 02:15:09 | 00:00:00 | |
| AU51GT2 | 2026-09-03 18:45:05 | 49.05875 | 8.59219 | 105° | 24km/h | 32067m | 5.3m/s | -38.6°C | 0.2% | 9.2hPa | 2.5V | 00:00:00 | 00:00:00 | 00:00:00 | |
| DK5PH-5 | 2026-09-03 18:45:04 | 49.05875 | 8.59219 | 106° | 26km/h | 32067m | 5.2m/s | -38.5°C | 1.8% | 9.2hPa | 2.5V | 00:00:00 | 02:15:07 | 00:00:00 | |
| DL1XH1-15 | 2026-09-03 18:45:03 | 49.05890 | 8.59171 | 102° | 29km/h | 32035m | 5.8m/s | -38.6°C | 1.9% | 9.2hPa | 2.6V | 03:03:51 | 02:15:01 | 00:00:00 | |
| DF8AY | 2026-09-03 18:45:01 | 49.05882 | 8.59196 | 127° | 20km/h | 32049m | 4.9m/s | 0°C | 0% | 0hPa | 2.5V | 03:04:34 | 02:15:04 | 00:00:00 | |
| DM0DOS-11 | 2026-09-03 18:45:00 | 49.05890 | 8.59130 | 78° | 40km/h | 32019m | 4.4m/s | -38.6°C | 1.8% | 9.3hPa | 2.5V | 03:03:54 | 02:14:58 | 00:00:00 | |
| DL1XH-west | 2026-09-03 18:44:59 | 49.05888 | 8.59181 | 112° | 26km/h | 32040m | 4.5m/s | -38.7°C | 0% | 9.3hPa | 2.5V | 03:04:34 | 02:15:02 | 00:00:00 | |
| BIOWL1-15 | 2026-09-03 18:44:57 | 49.05890 | 8.59130 | 78° | 40km/h | 32019m | 4.4m/s | -38.6°C | 0% | 9.3hPa | 2.5V | 03:04:34 | 02:14:58 | 00:00:00 | |
| DO1YAY-16 | 2026-09-03 18:44:54 | 49.05884 | 8.59102 | 65° | 33km/h | 32009m | 5.7m/s | -38.6°C | 0.2% | 9.3hPa | 2.5V | 00:00:00 | 00:00:00 | 00:00:00 | |
| DL1XH1-15 | 2026-09-03 18:44:53 | 49.05873 | 8.59069 | 92° | 16km/h | 31981m | 5.3m/s | -38.7°C | 1.8% | 9.3hPa | 2.5V | 03:04:01 | 02:14:51 | 00:00:00 | |
| DB0ND-19 | 2026-09-03 18:44:53 | 49.05884 | 8.59102 | 65° | 33km/h | 32009m | 5.7m/s | -38.6°C | 0.2% | 9.3hPa | 2.5V | 00:00:00 | 00:00:00 | 00:00:00 | |
| DL1XH-15 | 2026-09-03 18:44:52 | 49.05873 | 8.59061 | 101° | 22km/h | 31975m | 6.3m/s | -38.7°C | 1.8% | 9.3hPa | 2.5V | 03:04:02 | 02:14:50 | 00:00:00 | |
| DL1ZP-14 | 2026-09-03 18:44:51 | 49.05877 | 8.59084 | 53° | 20km/h | 31997m | 6.3m/s | -38.6°C | 0.2% | 9.3hPa | 2.6V | 00:00:00 | 00:00:00 | 00:00:00 | |
| DM0DOS-11 | 2026-09-03 18:44:50 | 49.05876 | 8.59040 | 100° | 33km/h | 31963m | 4.9m/s | -38.6°C | 1.8% | 9.4hPa | 2.6V | 03:04:04 | 02:14:48 | 00:00:00 | |
| DF8AY | 2026-09-03 18:44:50 | 49.05875 | 8.59079 | 55° | 15km/h | 31991m | 5.5m/s | 0°C | 0% | 0hPa | 2.6V | 03:04:34 | 02:14:53 | 00:00:00 | |
| DL1XH-west | 2026-09-03 18:44:48 | 49.05873 | 8.59069 | 92° | 16km/h | 31981m | 5.3m/s | -38.7°C | 0% | 9.3hPa | 2.5V | 03:04:34 | 02:14:51 | 00:00:00 | |
| BIOWL1-15 | 2026-09-03 18:44:44 | 49.05877 | 8.59027 | 95° | 35km/h | 31959m | 4.6m/s | -38.7°C | 0% | 9.4hPa | 2.5V | 03:04:34 | 02:14:47 | 00:00:00 | |
| DL1XH1-15 | 2026-09-03 18:44:43 | 49.05867 | 8.58968 | 60° | 20km/h | 31926m | 4.9m/s | -38.8°C | 1.9% | 9.4hPa | 2.5V | 03:04:11 | 02:14:41 | 00:00:00 | |
| DO3MHA-11 | 2026-09-03 18:44:42 | 49.05877 | 8.59002 | 80° | 24km/h | 31948m | 6.3m/s | -38.7°C | 1.8% | 9.3hPa | 2.5V | 00:00:00 | 02:14:45 | 00:00:00 | |
| SONDE2-11 | 2026-09-03 18:44:41 | 49.05875 | 8.58991 | 70° | 26km/h | 31942m | 5.9m/s | -38.7°C | 0.2% | 9.4hPa | 2.6V | 00:00:00 | 00:00:00 | 00:00:00 | |
| DM0DOS-11 | 2026-09-03 18:44:40 | 49.05864 | 8.58945 | 90° | 26km/h | 31909m | 5.3m/s | -38.8°C | 1.9% | 9.4hPa | 2.6V | 03:04:14 | 02:14:38 | 00:00:00 | |
| DL1XH-west | 2026-09-03 18:44:37 | 49.05865 | 8.58961 | 71° | 20km/h | 31920m | 5.7m/s | -38.8°C | 0% | 9.4hPa | 2.5V | 03:04:34 | 02:14:40 | 00:00:00 | |
| BIOWL1-15 | 2026-09-03 18:44:36 | 49.05864 | 8.58935 | 93° | 27km/h | 31904m | 4.8m/s | -38.8°C | 0% | 9.4hPa | 2.5V | 03:04:34 | 02:14:37 | 00:00:00 | |
| DF8AY | 2026-09-03 18:44:35 | 49.05863 | 8.58945 | 90° | 26km/h | 31909m | 5.3m/s | 0°C | 0% | 0hPa | 2.6V | 03:04:34 | 02:14:38 | 00:00:00 | |
| DK5PH-5 | 2026-09-03 18:44:34 | 49.05864 | 8.58935 | 93° | 18km/h | 31905m | 4.8m/s | -38.8°C | 1.9% | 9.4hPa | 2.6V | 03:04:00 | 02:14:37 | 00:00:00 | |
| DL1XH1-15 | 2026-09-03 18:44:33 | 49.05857 | 8.58886 | 63° | 16km/h | 31872m | 5m/s | -39.2°C | 1.9% | 9.5hPa | 2.6V | 03:04:21 | 02:14:31 | 00:00:00 | |
| DO3MHA-11 | 2026-09-03 18:44:32 | 49.05864 | 8.58915 | 86° | 20km/h | 31895m | 5.1m/s | -38.9°C | 1.9% | 9.4hPa | 2.5V | 03:04:00 | 02:14:35 | 00:00:00 | |
| KANTATE | 2026-09-03 18:44:31 | 49.05864 | 8.58915 | 87° | 24km/h | 31895m | 5.1m/s | -39.0°C | 0.2% | 9.4hPa | 2.5V | 00:00:00 | 00:00:00 | 00:00:00 | |
| DM0DOS-11 | 2026-09-03 18:44:30 | 49.05855 | 8.58866 | 93° | 18km/h | 31854m | 5.6m/s | -39.1°C | 1.9% | 9.5hPa | 2.5V | 03:04:24 | 02:14:28 | 00:00:00 | |
| DL1XH-west | 2026-09-03 18:44:27 | 49.05856 | 8.58880 | 73° | 16km/h | 31867m | 5.6m/s | -39.2°C | 0% | 9.5hPa | 2.5V | 03:04:34 | 02:14:30 | 00:00:00 | |
| BIOWL1-15 | 2026-09-03 18:44:25 | 49.05855 | 8.58851 | 90° | 18km/h | 31845m | 4.6m/s | -39.2°C | 0% | 9.5hPa | 2.6V | 03:04:34 | 02:14:26 | 00:00:00 | |
| DF8AY | 2026-09-03 18:44:25 | 49.05855 | 8.58866 | 93° | 18km/h | 31855m | 5.6m/s | 0°C | 0% | 0hPa | 2.5V | 03:04:34 | 02:14:28 | 00:00:00 | |
| DM7RM-13 | 2026-09-03 18:44:24 | 49.05855 | 8.58866 | 94° | 18km/h | 31855m | 5.6m/s | -39.2°C | 0.3% | 9.5hPa | 2.5V | 03:04:00 | 00:00:00 | 00:00:00 | |
| DO1YAY-16 | 2026-09-03 18:44:23 | 49.05855 | 8.58845 | 79° | 16km/h | 31840m | 5.0m/s | -39.1°C | 0.2% | 9.5hPa | 2.5V | 00:00:00 | 00:00:00 | 00:00:00 | |
| DO3MHA-11 | 2026-09-03 18:44:22 | 49.05855 | 8.58845 | 80° | 20km/h | 31840m | 4.9m/s | -39.1°C | 1.9% | 9.5hPa | 2.5V | 00:00:00 | 02:14:25 | 00:00:00 | |
| NBG1-10 | 2026-09-03 18:44:21 | 49.05853 | 8.58838 | 62° | 16km/h | 31835m | 6.0m/s | -39.0°C | 1.9% | 9.5hPa | 2.5V | 00:00:00 | 02:14:24 | 00:00:00 | |
| DM0DOS-11 | 2026-09-03 18:44:20 | 49.05836 | 8.58807 | 87° | 22km/h | 31802m | 6.4m/s | -39°C | 1.9% | 9.6hPa | 2.5V | 03:04:34 | 02:14:18 | 00:00:00 | |
| DL1XH-west | 2026-09-03 18:44:17 | 49.05840 | 8.58820 | 49° | 18km/h | 31813m | 4.3m/s | -39°C | 0% | 9.6hPa | 2.5V | 03:04:34 | 02:14:20 | 00:00:00 | |
| DK7TD | 2026-09-03 18:44:16 | 49.05838 | 8.58814 | 68° | 18km/h | 31808m | 5.5m/s | -39°C | 0% | 9.6hPa | 2.5V | 03:07:58 | 02:14:19 | 00:00:00 | |
| DF3TZ-5 | 2026-09-03 18:44:14 | 49.05837 | 8.58798 | 101° | 24km/h | 31796m | 5.8m/s | -39.0°C | 0.2% | 9.6hPa | 2.6V | 00:00:00 | 00:00:00 | 00:00:00 | |
| DF8AY | 2026-09-03 18:44:14 | 49.05837 | 8.58798 | 102° | 24km/h | 31796m | 5.8m/s | 0°C | 0% | 0hPa | 2.6V | 18:12:15 | 02:14:17 | 00:00:00 | |
| DL1XH1-15 | 2026-09-03 18:44:13 | 49.05841 | 8.58763 | 18° | 9km/h | 31764m | 5.1m/s | -39°C | 1.9% | 9.6hPa | 2.6V | 03:04:41 | 02:14:11 | 00:00:00 | |
| BIOWL1-15 | 2026-09-03 18:44:13 | 49.05839 | 8.58789 | 108° | 26km/h | 31791m | 4.9m/s | -39°C | 0% | 9.6hPa | 2.6V | 03:05:25 | 02:14:16 | 00:00:00 | |
| DL1XH-west | 2026-09-03 18:44:06 | 49.05836 | 8.58760 | 25° | 11km/h | 31754m | 5.2m/s | -39°C | 0% | 9.7hPa | 2.5V | 03:05:25 | 02:14:09 | 00:00:00 | |
| BIOWL1-15 | 2026-09-03 18:44:03 | 49.05830 | 8.58741 | 80° | 18km/h | 31732m | 4.7m/s | -38.9°C | 0% | 9.7hPa | 2.6V | 03:05:25 | 02:14:05 | 00:00:00 | |
| DL1XH1-15 | 2026-09-03 18:44:03 | 49.05825 | 8.58720 | 44° | 9km/h | 31710m | 5.3m/s | -39°C | 1.9% | 9.7hPa | 2.5V | 03:04:51 | 02:14:01 | 00:00:00 | |
| DF8AY | 2026-09-03 18:44:03 | 49.05831 | 8.58747 | 75° | 18km/h | 31737m | 5.3m/s | 0°C | 0% | 0hPa | 2.6V | 18:12:15 | 02:14:06 | 00:00:00 | |
| DO3MHA-11 | 2026-09-03 18:44:02 | 49.05830 | 8.58740 | 80° | 13km/h | 31732m | 4.7m/s | -38.9°C | 1.9% | 9.6hPa | 2.5V | 00:00:00 | 02:14:05 | 00:00:00 | |
| DM0DOS-11 | 2026-09-03 18:44:00 | 49.05820 | 8.58713 | 53° | 11km/h | 31695m | 5.9m/s | -39°C | 1.9% | 9.7hPa | 2.5V | 03:04:54 | 02:13:58 | 00:00:00 | |
| DK7TD | 2026-09-03 18:44:00 | 49.05828 | 8.58728 | 73° | 15km/h | 31722m | 5.7m/s | -38.9°C | 0% | 9.7hPa | 2.5V | 03:07:58 | 02:14:03 | 00:00:00 | |
| BIOWL7-15 | 2026-09-03 18:43:59 | 49.05828 | 8.58728 | 74° | 15km/h | 31722m | 5.7m/s | -38.9°C | 0.2% | 9.7hPa | 2.5V | 00:00:00 | 00:00:00 | 00:00:00 | |
| DJ2KF-10 | 2026-09-03 18:43:58 | 49.05825 | 8.58720 | 45° | 22km/h | 31711m | 5.2m/s | -38.9°C | 1.9% | 9.6hPa | 2.5V | 00:00:00 | 02:14:01 | 00:00:00 | |
| DL1XH-15 | 2026-09-03 18:43:56 | 49.05810 | 8.58694 | 38° | 22km/h | 31673m | 6m/s | -39°C | 1.9% | 9.8hPa | 2.6V | 03:04:58 | 02:13:54 | 00:00:00 | |
| DL1XH-west | 2026-09-03 18:43:56 | 49.05822 | 8.58715 | 43° | 9km/h | 31700m | 5.2m/s | -39°C | 0% | 9.7hPa | 2.6V | 03:05:25 | 02:13:59 | 00:00:00 | |
| DL1XH1-15 | 2026-09-03 18:43:53 | 49.05793 | 8.58679 | 26° | 29km/h | 31656m | 4.5m/s | -39°C | 1.9% | 9.8hPa | 2.5V | 03:05:01 | 02:13:51 | 00:00:00 | |
| DF8AY | 2026-09-03 18:43:53 | 49.05817 | 8.58704 | 56° | 15km/h | 31684m | 5.1m/s | 0°C | 0% | 0hPa | 2.5V | 18:12:15 | 02:13:56 | 00:00:00 | |
| BIOWL1-15 | 2026-09-03 18:43:53 | 49.05810 | 8.58694 | 39° | 22km/h | 31673m | 6m/s | -39°C | 0% | 9.8hPa | 2.6V | 03:05:25 | 02:13:54 | 00:00:00 | |
| DO1YAY-16 | 2026-09-03 18:43:52 | 49.05810 | 8.58694 | 38° | 20km/h | 31673m | 6.0m/s | -39.0°C | 0.2% | 9.8hPa | 2.5V | 00:00:00 | 00:00:00 | 00:00:00 | |
| DB0ND-19 | 2026-09-03 18:43:51 | 49.05805 | 8.58689 | 30° | 24km/h | 31667m | 6.3m/s | -39.0°C | 0.2% | 9.8hPa | 2.5V | 00:00:00 | 00:00:00 | 00:00:00 | |
| DM0DOS-11 | 2026-09-03 18:43:50 | 49.05777 | 8.58661 | 52° | 26km/h | 31640m | 6.2m/s | -38.9°C | 1.9% | 9.8hPa | 2.5V | 03:05:04 | 02:13:48 | 00:00:00 | |
| DK7TD | 2026-09-03 18:43:49 | 49.05799 | 8.58684 | 26° | 27km/h | 31661m | 5.5m/s | -39°C | 0% | 9.8hPa | 2.5V | 03:07:58 | 02:13:52 | 00:00:00 | |
| DL1ZP-14 | 2026-09-03 18:43:49 | 49.05793 | 8.58679 | 26° | 27km/h | 31656m | 4.5m/s | -39.0°C | 0.2% | 9.8hPa | 2.5V | 00:00:00 | 00:00:00 | 00:00:00 | |
| DJ2DS-15 | 2026-09-03 18:43:48 | 49.05793 | 8.58679 | 27° | 26km/h | 31656m | 4.4m/s | -38.9°C | 1.9% | 9.8hPa | 2.5V | 00:00:00 | 02:13:51 | 00:00:00 | |
| SFWM-10 | 2026-09-03 18:43:46 | 49.05787 | 8.58674 | 32° | 27km/h | 31652m | 4.3m/s | -39.0°C | 0.2% | 9.8hPa | 2.5V | 03:05:00 | 00:00:00 | 00:00:00 | |
| DL1XH-15 | 2026-09-03 18:43:45 | 49.05761 | 8.58622 | 33° | 22km/h | 31614m | 6.2m/s | -38.8°C | 1.9% | 9.9hPa | 2.5V | 03:05:09 | 02:13:43 | 00:00:00 | |
| DL1XH-west | 2026-09-03 18:43:45 | 49.05777 | 8.58661 | 52° | 26km/h | 31641m | 6.2m/s | -38.9°C | 0% | 9.8hPa | 2.5V | 03:05:25 | 02:13:48 | 00:00:00 | |
| DL1XH1-15 | 2026-09-03 18:43:43 | 49.05749 | 8.58616 | 6° | 27km/h | 31602m | 5.4m/s | -38.8°C | 1.9% | 9.9hPa | 2.5V | 03:05:11 | 02:13:41 | 00:00:00 | |
| BIOWL1-15 | 2026-09-03 18:43:41 | 49.05765 | 8.58628 | 51° | 22km/h | 31619m | 4.7m/s | -38.8°C | 0% | 9.8hPa | 2.6V | 03:05:25 | 02:13:44 | 00:00:00 | |
| DM0DOS-11 | 2026-09-03 18:43:40 | 49.05729 | 8.58610 | 24° | 24km/h | 31587m | 5.4m/s | -38.7°C | 1.9% | 9.9hPa | 2.5V | 03:05:14 | 02:13:38 | 00:00:00 | |
| DL1XH-west | 2026-09-03 18:43:34 | 49.05724 | 8.58605 | 43° | 22km/h | 31582m | 6m/s | -38.7°C | 0% | 9.9hPa | 2.5V | 03:05:25 | 02:13:37 | 00:00:00 | |
| DK5PH-5 | 2026-09-03 18:43:34 | 49.05724 | 8.58605 | 44° | 16km/h | 31582m | 6.0m/s | -38.7°C | 1.9% | 9.9hPa | 2.5V | 00:00:00 | 02:13:37 | 00:00:00 | |
| DO3MHA-11 | 2026-09-03 18:43:32 | 49.05718 | 8.58590 | 76° | 18km/h | 31571m | 4.7m/s | -38.6°C | 1.9% | 9.9hPa | 2.6V | 00:00:00 | 02:13:35 | 00:00:00 | |
| DL0LBS | 2026-09-03 18:43:31 | 49.05718 | 8.58590 | 76° | 26km/h | 31571m | 4.7m/s | -38.7°C | 0.3% | 9.9hPa | 2.6V | 03:05:00 | 00:00:00 | 00:00:00 | |
| DK7TD | 2026-09-03 18:43:31 | 49.05717 | 8.58580 | 79° | 26km/h | 31566m | 4.8m/s | -38.7°C | 0% | 9.9hPa | 2.6V | 03:07:58 | 02:13:34 | 00:00:00 | |
| DM0DOS-11 | 2026-09-03 18:43:30 | 49.05701 | 8.58545 | 31° | 13km/h | 31533m | 6m/s | -38.6°C | 1.9% | 10hPa | 2.6V | 03:05:24 | 02:13:28 | 00:00:00 | |
| BIOWL1-15 | 2026-09-03 18:43:30 | 49.05715 | 8.58571 | 75° | 24km/h | 31561m | 5.7m/s | -38.6°C | 0% | 9.9hPa | 2.5V | 03:05:25 | 02:13:33 | 00:00:00 | |
| DL1XH-west | 2026-09-03 18:43:23 | 49.05697 | 8.58540 | 31° | 11km/h | 31522m | 5.1m/s | -38.6°C | 0% | 10hPa | 2.5V | 03:06:16 | 02:13:26 | 00:00:00 | |
| DM7RM-13 | 2026-09-03 18:43:22 | 49.05696 | 8.58540 | 32° | 11km/h | 31523m | 5.1m/s | -38.6°C | 0.3% | 10.0hPa | 2.6V | 03:06:00 | 00:00:00 | 00:00:00 | |
| DO1YAY-16 | 2026-09-03 18:43:21 | 49.05688 | 8.58535 | 13° | 11km/h | 31507m | 6.1m/s | -38.7°C | 0.2% | 10.0hPa | 2.6V | 00:00:00 | 00:00:00 | 00:00:00 | |
| DM0DOS-11 | 2026-09-03 18:43:20 | 49.05679 | 8.58517 | 94° | 18km/h | 31480m | 6.3m/s | -38.7°C | 1.9% | 10.1hPa | 2.6V | 03:05:34 | 02:13:18 | 00:00:00 | |
| BIOWL1-15 | 2026-09-03 18:43:20 | 49.05688 | 8.58535 | 13° | 13km/h | 31507m | 6.1m/s | -38.7°C | 0% | 10hPa | 2.6V | 03:06:16 | 02:13:23 | 00:00:00 | |
| DB0ND-19 | 2026-09-03 18:43:20 | 49.05685 | 8.58534 | 17° | 13km/h | 31501m | 5.1m/s | -38.7°C | 0.2% | 10.0hPa | 2.5V | 00:00:00 | 00:00:00 | 00:00:00 | |
| DL1ZP-14 | 2026-09-03 18:43:18 | 49.05680 | 8.58529 | 58° | 13km/h | 31492m | 4.8m/s | -38.7°C | 0.2% | 10.0hPa | 2.5V | 00:00:00 | 00:00:00 | 00:00:00 | |
| NBG1-10 | 2026-09-03 18:43:15 | 49.05679 | 8.58517 | 95° | 15km/h | 31480m | 6.2m/s | -38.7°C | 1.9% | 10.0hPa | 2.5V | 03:05:00 | 02:13:18 | 00:00:00 | |
| DN1GJH-1 | 2026-09-03 18:43:14 | 49.05679 | 8.58517 | 95° | 18km/h | 31480m | 6.3m/s | -38.7°C | 0.3% | 10.1hPa | 2.5V | 03:06:00 | 00:00:00 | 00:00:00 | |
| OE5DRO-10 | 2026-09-03 18:43:13 | 49.05680 | 8.58503 | 105° | 15km/h | 31470m | 4.0m/s | -38.6°C | 1.9% | 10.0hPa | 2.5V | 00:00:00 | 00:00:00 | 00:00:00 | |
| IW2NTF | 2026-09-03 18:43:12 | 49.05668 | 8.58500 | 336° | 18km/h | 31440m | 3.5m/s | -38.6°C | 1.9% | 10.1hPa | 2.5V | 03:05:42 | 02:13:10 | 00:00:00 | |
| BIOWL1-15 | 2026-09-03 18:43:12 | 49.05680 | 8.58492 | 356° | 9km/h | 31455m | 6.2m/s | -38.6°C | 0% | 10.1hPa | 2.6V | 03:06:16 | 02:13:13 | 00:00:00 | |
| DL1XH-west | 2026-09-03 18:43:12 | 49.05681 | 8.58497 | 98° | 13km/h | 31465m | 4.1m/s | -38.7°C | 0% | 10.1hPa | 2.5V | 03:06:16 | 02:13:15 | 00:00:00 | |
| DK7TD | 2026-09-03 18:43:07 | 49.05668 | 8.58500 | 337° | 18km/h | 31440m | 3.5m/s | -38.6°C | 0% | 10.1hPa | 2.5V | 03:07:58 | 02:13:10 | 00:00:00 | |
| DL6DJ-15 | 2026-09-03 18:43:06 | 49.05664 | 8.58502 | 346° | 11km/h | 31437m | 4.1m/s | -38.6°C | 0.2% | 10.1hPa | 2.5V | 00:00:00 | 00:00:00 | 00:00:00 | |
| KANTATE | 2026-09-03 18:43:05 | 49.05664 | 8.58502 | 348° | 13km/h | 31437m | 4.1m/s | -38.6°C | 0.2% | 10.1hPa | 2.5V | 03:06:00 | 00:00:00 | 00:00:00 | |
| DK5PH-5 | 2026-09-03 18:43:04 | 49.05662 | 8.58499 | 116° | 15km/h | 31426m | 6.2m/s | -38.7°C | 1.9% | 10.1hPa | 2.5V | 00:00:00 | 02:13:07 | 00:00:00 | |
| DL1XH1-15 | 2026-09-03 18:43:03 | 49.05684 | 8.58473 | 143° | 5km/h | 31395m | 5m/s | -38.8°C | 1.9% | 10.2hPa | 2.5V | 03:05:51 | 02:13:01 | 00:00:00 | |
| DL1XH-west | 2026-09-03 18:43:02 | 49.05668 | 8.58490 | 141° | 24km/h | 31414m | 5.5m/s | -38.8°C | 0% | 10.2hPa | 2.5V | 03:06:16 | 02:13:05 | 00:00:00 | |
| DF8AY | 2026-09-03 18:43:01 | 49.05673 | 8.58484 | 145° | 26km/h | 31408m | 4.5m/s | 0°C | 0% | 0hPa | 2.5V | 18:12:15 | 02:13:04 | 00:00:00 | |
| DM0DOS-11 | 2026-09-03 18:43:00 | 49.05680 | 8.58473 | 2° | 13km/h | 31379m | 4.8m/s | -38.8°C | 1.8% | 10.2hPa | 2.6V | 03:05:54 | 02:12:58 | 00:00:00 | |
| BIOWL1-15 | 2026-09-03 18:43:00 | 49.05678 | 8.58479 | 149° | 22km/h | 31404m | 4.2m/s | -38.8°C | 0% | 10.2hPa | 2.6V | 03:06:16 | 02:13:03 | 00:00:00 | |
| DK7TD | 2026-09-03 18:42:57 | 49.05684 | 8.58473 | 8° | 4km/h | 31390m | 5.4m/s | -38.8°C | 0% | 10.2hPa | 2.5V | 03:07:58 | 02:13:00 | 00:00:00 | |
| DF1GD-15 | 2026-09-03 18:42:55 | 49.05683 | 8.58473 | 358° | 9km/h | 31385m | 5.3m/s | -38.8°C | 0.3% | 10.2hPa | 2.6V | 03:06:00 | 00:00:00 | 00:00:00 | |
| IW2NTF | 2026-09-03 18:42:54 | 49.05687 | 8.58465 | 182° | 27km/h | 31350m | 5.5m/s | -39°C | 1.8% | 10.2hPa | 2.6V | 03:06:00 | 02:12:52 | 00:00:00 | |
| OE5DRO-10 | 2026-09-03 18:42:54 | 49.05677 | 8.58472 | 13° | 16km/h | 31375m | 4.6m/s | -38.8°C | 1.9% | 10.2hPa | 2.6V | 03:05:00 | 00:00:00 | 00:00:00 | |
| DL1XH1-15 | 2026-09-03 18:42:53 | 49.05695 | 8.58466 | 189° | 29km/h | 31344m | 5.7m/s | -39°C | 1.9% | 10.2hPa | 2.5V | 03:06:01 | 02:12:51 | 00:00:00 | |
| DL1XH-west | 2026-09-03 18:42:52 | 49.05675 | 8.58469 | 123° | 7km/h | 31365m | 4.8m/s | -38.9°C | 0% | 10.2hPa | 2.5V | 03:06:16 | 02:12:55 | 00:00:00 | |
| BIOWL1-15 | 2026-09-03 18:42:51 | 49.05687 | 8.58465 | 182° | 27km/h | 31350m | 5.5m/s | -39°C | 0% | 10.3hPa | 2.6V | 03:06:16 | 02:12:52 | 00:00:00 | |
| DK7TD | 2026-09-03 18:42:47 | 49.05702 | 8.58469 | 197° | 27km/h | 31339m | 5m/s | -39°C | 0% | 10.3hPa | 2.5V | 03:07:58 | 02:12:50 | 00:00:00 | |
| DL1ZP-14 | 2026-09-03 18:42:47 | 49.05708 | 8.58472 | 202° | 22km/h | 31334m | 4.2m/s | -39.0°C | 0.2% | 10.3hPa | 2.5V | 00:00:00 | 00:00:00 | 00:00:00 | |
| DJ2DS-15 | 2026-09-03 18:42:44 | 49.05713 | 8.58476 | 196° | 2km/h | 31326m | 5.0m/s | -39.1°C | 0.2% | 10.3hPa | 2.5V | 00:00:00 | 00:00:00 | 00:00:00 | |
| DL1XH1-15 | 2026-09-03 18:42:43 | 49.05698 | 8.58455 | 13° | 15km/h | 31295m | 4.3m/s | -39.2°C | 1.9% | 10.3hPa | 2.5V | 03:06:11 | 02:12:41 | 00:00:00 | |
| IW2NTF | 2026-09-03 18:42:42 | 49.05695 | 8.58455 | 337° | 11km/h | 31290m | 5.5m/s | -39.2°C | 1.9% | 10.3hPa | 2.5V | 03:06:12 | 02:12:40 | 00:00:00 | |
| DL1XH-west | 2026-09-03 18:42:41 | 49.05709 | 8.58467 | 47° | 20km/h | 31308m | 5.5m/s | -39.1°C | 0% | 10.3hPa | 2.5V | 03:06:16 | 02:12:44 | 00:00:00 | |
| DB0NH | 2026-09-03 18:42:40 | 49.05705 | 8.58462 | 44° | 15km/h | 31303m | 4.3m/s | -39.1°C | 1.9% | 10.3hPa | 2.6V | 03:06:00 | 02:12:43 | 00:00:00 | |
| DM0DOS-11 | 2026-09-03 18:42:38 | 49.05694 | 8.58475 | 233° | 15km/h | 31270m | 3.6m/s | -39.3°C | 1.9% | 10.4hPa | 2.5V | 03:06:16 | 02:12:36 | 00:00:00 | |
| BIOWL1-15 | 2026-09-03 18:42:38 | 49.05698 | 8.58455 | 14° | 15km/h | 31295m | 4.4m/s | -39.2°C | 0% | 10.3hPa | 2.5V | 03:06:16 | 02:12:41 | 00:00:00 | |
| DK7TD | 2026-09-03 18:42:35 | 49.05692 | 8.58464 | 274° | 16km/h | 31279m | 5.1m/s | -39.2°C | 0% | 10.4hPa | 2.6V | 03:07:58 | 02:12:38 | 00:00:00 | |
| OE5DRO-10 | 2026-09-03 18:42:35 | 49.05692 | 8.58464 | 275° | 15km/h | 31279m | 5.1m/s | -39.2°C | 1.9% | 10.3hPa | 2.5V | 00:00:00 | 00:00:00 | 00:00:00 | |
| DK5PH-5 | 2026-09-03 18:42:34 | 49.05692 | 8.58470 | 256° | 13km/h | 31274m | 3.9m/s | -39.2°C | 1.9% | 10.3hPa | 2.5V | 03:06:00 | 02:12:37 | 00:00:00 | |
| DL1XH1-15 | 2026-09-03 18:42:33 | 49.05705 | 8.58454 | 95° | 27km/h | 31244m | 3.9m/s | -39.4°C | 1.9% | 10.4hPa | 2.5V | 03:06:21 | 02:12:31 | 00:00:00 | |
| DL1XH-west | 2026-09-03 18:42:30 | 49.05702 | 8.58472 | 120° | 22km/h | 31254m | 6.3m/s | -39.3°C | 0% | 10.4hPa | 2.6V | 03:07:07 | 02:12:33 | 00:00:00 | |
| IW2NTF | 2026-09-03 18:42:29 | 49.05701 | 8.58431 | 320° | 7km/h | 31224m | 5.7m/s | -39.4°C | 1.9% | 10.5hPa | 2.6V | 03:06:25 | 02:12:27 | 00:00:00 | |
| AU51GT2 | 2026-09-03 18:42:29 | 49.05704 | 8.58464 | 105° | 26km/h | 31248m | 5.1m/s | -39.3°C | 0.2% | 10.4hPa | 2.5V | 00:00:00 | 00:00:00 | 00:00:00 | |
| DM0DOS-11 | 2026-09-03 18:42:28 | 49.05700 | 8.58435 | 285° | 13km/h | 31218m | 5.3m/s | -39.4°C | 1.9% | 10.5hPa | 2.5V | 03:06:26 | 02:12:26 | 00:00:00 | |
| BIOWL1-15 | 2026-09-03 18:42:27 | 49.05705 | 8.58444 | 86° | 24km/h | 31240m | 4m/s | -39.4°C | 0% | 10.4hPa | 2.5V | 03:07:07 | 02:12:30 | 00:00:00 | |
| HEMX73-11 | 2026-09-03 18:42:26 | 49.05705 | 8.58443 | 87° | 24km/h | 31240m | 4.0m/s | -39.4°C | 0.2% | 10.4hPa | 2.5V | 03:07:00 | 00:00:00 | 00:00:00 | |
| SFWM-10 | 2026-09-03 18:42:24 | 49.05703 | 8.58432 | 43° | 9km/h | 31230m | 5.7m/s | -39.3°C | 0.2% | 10.4hPa | 2.5V | 03:07:00 | 00:00:00 | 00:00:00 | |
| DL1XH1-15 | 2026-09-03 18:42:23 | 49.05705 | 8.58453 | 151° | 9km/h | 31194m | 4.7m/s | -39.4°C | 1.9% | 10.5hPa | 2.5V | 03:06:31 | 02:12:21 | 00:00:00 | |
| DO3MHA-11 | 2026-09-03 18:42:22 | 49.05700 | 8.58440 | 270° | 13km/h | 31213m | 5.1m/s | -39.4°C | 1.9% | 10.4hPa | 2.6V | 00:00:00 | 02:12:25 | 00:00:00 | |
| DM7RM-13 | 2026-09-03 18:42:21 | 49.05700 | 8.58440 | 271° | 16km/h | 31213m | 5.1m/s | -39.4°C | 0.3% | 10.5hPa | 2.6V | 03:07:00 | 00:00:00 | 00:00:00 | |
| DL1XH-15 | 2026-09-03 18:42:20 | 49.05709 | 8.58441 | 95° | 15km/h | 31178m | 5.8m/s | -39.5°C | 1.9% | 10.5hPa | 2.6V | 03:06:34 | 02:12:18 | 00:00:00 | |
| DF8AY | 2026-09-03 18:42:20 | 49.05702 | 8.58451 | 238° | 13km/h | 31203m | 4.9m/s | 0°C | 0% | 0hPa | 2.6V | 18:12:15 | 02:12:23 | 00:00:00 | |
| DL1XH-west | 2026-09-03 18:42:19 | 49.05703 | 8.58454 | 200° | 9km/h | 31198m | 4.7m/s | -39.4°C | 0% | 10.5hPa | 2.6V | 03:07:07 | 02:12:22 | 00:00:00 | |
| DM0DOS-11 | 2026-09-03 18:42:18 | 49.05709 | 8.58431 | 85° | 11km/h | 31167m | 4.9m/s | -39.6°C | 2% | 10.5hPa | 2.5V | 03:06:36 | 02:12:16 | 00:00:00 | |
| BIOWL1-15 | 2026-09-03 18:42:18 | 49.05709 | 8.58446 | 107° | 15km/h | 31183m | 5.4m/s | -39.5°C | 0% | 10.5hPa | 2.5V | 03:07:07 | 02:12:19 | 00:00:00 | |
| DB0ND-19 | 2026-09-03 18:42:18 | 49.05707 | 8.58451 | 123° | 11km/h | 31189m | 4.8m/s | -39.4°C | 0.3% | 10.5hPa | 2.6V | 00:00:00 | 00:00:00 | 00:00:00 | |
| DL1ZP-14 | 2026-09-03 18:42:16 | 49.05709 | 8.58441 | 95° | 13km/h | 31178m | 5.8m/s | -39.5°C | 0.3% | 10.5hPa | 2.6V | 00:00:00 | 00:00:00 | 00:00:00 | |
| DF1GD-15 | 2026-09-03 18:42:14 | 49.05709 | 8.58441 | 97° | 15km/h | 31178m | 5.8m/s | -39.5°C | 0.3% | 10.5hPa | 2.5V | 03:07:00 | 00:00:00 | 00:00:00 | |
| DL1XH1-15 | 2026-09-03 18:42:13 | 49.05713 | 8.58420 | 206° | 7km/h | 31141m | 4.7m/s | -39.7°C | 2% | 10.6hPa | 2.5V | 03:06:41 | 02:12:11 | 00:00:00 | |
| DO3MHA-11 | 2026-09-03 18:42:12 | 49.05709 | 8.58427 | 89° | 9km/h | 31163m | 4.7m/s | -39.6°C | 2.0% | 10.5hPa | 2.5V | 00:00:00 | 02:12:15 | 00:00:00 | |
| DG1MJG | 2026-09-03 18:42:11 | 49.05709 | 8.58427 | 90° | 9km/h | 31163m | 4.8m/s | -39.6°C | 0.3% | 10.5hPa | 2.6V | 03:07:00 | 00:00:00 | 00:00:00 | |
| DL1XH-15 | 2026-09-03 18:42:10 | 49.05715 | 8.58431 | 281° | 15km/h | 31124m | 5.8m/s | -39.7°C | 1.9% | 10.6hPa | 2.6V | 03:06:44 | 02:12:08 | 00:00:00 | |
| DL1XH-west | 2026-09-03 18:42:09 | 49.05711 | 8.58420 | 164° | 7km/h | 31146m | 5.4m/s | -39.7°C | 0% | 10.6hPa | 2.6V | 03:07:07 | 02:12:12 | 00:00:00 | |
| BIOWL1-15 | 2026-09-03 18:42:06 | 49.05715 | 8.58426 | 264° | 13km/h | 31130m | 6.1m/s | -39.7°C | 0% | 10.6hPa | 2.5V | 03:07:07 | 02:12:09 | 00:00:00 | |
| DK7TD | 2026-09-03 18:42:04 | 49.05714 | 8.58436 | 299° | 13km/h | 31119m | 4.5m/s | -39.8°C | 0% | 10.6hPa | 2.6V | 03:07:58 | 02:12:07 | 00:00:00 | |
| DK5PH-5 | 2026-09-03 18:42:04 | 49.05714 | 8.58436 | 299° | 13km/h | 31119m | 4.5m/s | -39.7°C | 2.0% | 10.6hPa | 2.6V | 00:00:00 | 02:12:07 | 00:00:00 | |
| SFWM-10 | 2026-09-03 18:42:03 | 49.05714 | 8.58436 | 300° | 13km/h | 31119m | 4.5m/s | -39.8°C | 0.3% | 10.6hPa | 2.5V | 03:07:00 | 00:00:00 | 00:00:00 | |
| DL1XH1-15 | 2026-09-03 18:42:03 | 49.05710 | 8.58413 | 95° | 24km/h | 31087m | 4.1m/s | -40°C | 2% | 10.7hPa | 2.5V | 03:06:51 | 02:12:01 | 00:00:00 | |
| DO3MHA-11 | 2026-09-03 18:42:02 | 49.05710 | 8.58439 | 30° | 15km/h | 31110m | 5.2m/s | -39.8°C | 2.0% | 10.6hPa | 2.5V | 00:00:00 | 02:12:05 | 00:00:00 | |
| DL8DAS-15 | 2026-09-03 18:42:01 | 49.05710 | 8.58439 | 30° | 7km/h | 31110m | 5.2m/s | -39.9°C | 0.3% | 10.6hPa | 2.5V | 00:00:00 | 00:00:00 | 00:00:00 | |
| DB0UT-9 | 2026-09-03 18:42:00 | 49.05709 | 8.58436 | 75° | 13km/h | 31104m | 6.7m/s | -39.9°C | 0.3% | 10.6hPa | 2.5V | 03:07:00 | 00:00:00 | 00:00:00 | |
| KANTATE | 2026-09-03 18:41:59 | 49.05709 | 8.58430 | 90° | 20km/h | 31098m | 6.4m/s | -40.0°C | 0.3% | 10.7hPa | 2.5V | 03:07:00 | 00:00:00 | 00:00:00 | |
| IW2NTF | 2026-09-03 18:41:58 | 49.05708 | 8.58406 | 281° | 16km/h | 31061m | 5.5m/s | -40.1°C | 2% | 10.7hPa | 2.5V | 03:06:56 | 02:11:56 | 00:00:00 | |
| DL1XH-west | 2026-09-03 18:41:58 | 49.05710 | 8.58413 | 95° | 24km/h | 31087m | 4.1m/s | -40°C | 0% | 10.7hPa | 2.5V | 03:07:07 | 02:12:01 | 00:00:00 | |
| BIOWL1-15 | 2026-09-03 18:41:56 | 49.05710 | 8.58400 | 86° | 9km/h | 31077m | 5.6m/s | -40.1°C | 0% | 10.7hPa | 2.5V | 03:07:07 | 02:11:59 | 00:00:00 | |
| DJ2KF-10 | 2026-09-03 18:41:56 | 49.05710 | 8.58400 | 87° | 15km/h | 31078m | 5.5m/s | -40.0°C | 2.0% | 10.6hPa | 2.5V | 00:00:00 | 02:11:59 | 00:00:00 | |
| DL1XH1-15 | 2026-09-03 18:41:53 | 49.05705 | 8.58430 | 338° | 5km/h | 31035m | 5.3m/s | -40.1°C | 2% | 10.7hPa | 2.5V | 03:07:01 | 02:11:51 | 00:00:00 | |
| DO3MHA-11 | 2026-09-03 18:41:52 | 49.05708 | 8.58412 | 278° | 11km/h | 31055m | 5.5m/s | -40.1°C | 2.0% | 10.7hPa | 2.6V | 03:06:00 | 02:11:55 | 00:00:00 | |
| DL8DAS-15 | 2026-09-03 18:41:51 | 49.05708 | 8.58412 | 279° | 18km/h | 31055m | 5.6m/s | -40.1°C | 0.3% | 10.7hPa | 2.6V | 00:00:00 | 00:00:00 | 00:00:00 | |
| DL1XH-15 | 2026-09-03 18:41:50 | 49.05700 | 8.58426 | 48° | 11km/h | 31018m | 5m/s | -40.1°C | 2% | 10.8hPa | 2.6V | 03:07:04 | 02:11:48 | 00:00:00 | |
| DB0UT-7 | 2026-09-03 18:41:50 | 49.05707 | 8.58425 | 279° | 15km/h | 31045m | 4.8m/s | -40.1°C | 2.0% | 10.7hPa | 2.5V | 03:06:00 | 02:11:53 | 00:00:00 | |
| IW2NTF | 2026-09-03 18:41:49 | 49.05698 | 8.58418 | 93° | 11km/h | 31008m | 5m/s | -40.2°C | 2% | 10.8hPa | 2.5V | 03:07:06 | 02:11:46 | 00:00:00 | |
| DL1XH-west | 2026-09-03 18:41:47 | 49.05704 | 8.58430 | 18° | 7km/h | 31029m | 5.9m/s | -40.1°C | 0% | 10.7hPa | 2.5V | 03:07:07 | 02:11:50 | 00:00:00 | |
| BIOWL1-15 | 2026-09-03 18:41:46 | 49.05702 | 8.58428 | 35° | 9km/h | 31023m | 5.7m/s | -40.1°C | 0% | 10.8hPa | 2.5V | 03:07:07 | 02:11:49 | 00:00:00 | |
| DL1ZP-14 | 2026-09-03 18:41:45 | 49.05699 | 8.58422 | 67° | 11km/h | 31013m | 4.7m/s | -40.2°C | 0.3% | 10.8hPa | 2.6V | 00:00:00 | 00:00:00 | 00:00:00 | |
| HEMX73-11 | 2026-09-03 18:41:44 | 49.05700 | 8.58425 | 50° | 11km/h | 31018m | 5.0m/s | -40.2°C | 0.3% | 10.8hPa | 2.5V | 03:07:00 | 00:00:00 | 00:00:00 | |
| DO3MHA-11 | 2026-09-03 18:41:42 | 49.05699 | 8.58413 | 118° | 15km/h | 31003m | 5.7m/s | -40.1°C | 2.0% | 10.7hPa | 2.5V | 00:00:00 | 02:11:45 | 00:00:00 | |
| SFWM-10 | 2026-09-03 18:41:41 | 49.05699 | 8.58413 | 119° | 15km/h | 31003m | 5.8m/s | -40.2°C | 0.3% | 10.8hPa | 2.6V | 03:07:00 | 00:00:00 | 00:00:00 | |
| DL1XH-15 | 2026-09-03 18:41:40 | 49.05706 | 8.58410 | 332° | 20km/h | 30965m | 5.8m/s | -40.3°C | 2% | 10.8hPa | 2.6V | 03:07:14 | 02:11:38 | 00:00:00 | |
| DF8AY | 2026-09-03 18:41:39 | 49.05708 | 8.58403 | 163° | 13km/h | 30987m | 4m/s | 0°C | 0% | 0hPa | 2.6V | 18:12:15 | 02:11:42 | 00:00:00 | |
| DF3TZ-5 | 2026-09-03 18:41:39 | 49.05708 | 8.58403 | 163° | 11km/h | 30987m | 4.0m/s | -40.2°C | 0.3% | 10.8hPa | 2.5V | 00:00:00 | 00:00:00 | 00:00:00 | |
| IW2NTF | 2026-09-03 18:41:38 | 49.05695 | 8.58414 | 2° | 24km/h | 30955m | 4.4m/s | -40.3°C | 2% | 10.9hPa | 2.5V | 03:07:16 | 02:11:36 | 00:00:00 | |
| DL1XH-west | 2026-09-03 18:41:36 | 49.05710 | 8.58407 | 315° | 13km/h | 30971m | 6.5m/s | -40.3°C | 0% | 10.8hPa | 2.5V | 03:07:58 | 02:11:39 | 00:00:00 | |
| BIOWL1-15 | 2026-09-03 18:41:35 | 49.05706 | 8.58410 | 333° | 20km/h | 30965m | 5.8m/s | -40.3°C | 0% | 10.9hPa | 2.6V | 03:07:58 | 02:11:38 | 00:00:00 | |
| DK7TD | 2026-09-03 18:41:34 | 49.05701 | 8.58413 | 347° | 24km/h | 30960m | 4.5m/s | -40.3°C | 0% | 10.9hPa | 2.6V | 03:07:58 | 02:11:37 | 00:00:00 | |
| DK5PH-5 | 2026-09-03 18:41:34 | 49.05701 | 8.58413 | 348° | 15km/h | 30960m | 4.5m/s | -40.3°C | 2.0% | 10.8hPa | 2.6V | 00:00:00 | 02:11:37 | 00:00:00 | |
| DL6DJ-15 | 2026-09-03 18:41:33 | 49.05690 | 8.58412 | 22° | 20km/h | 30950m | 5.6m/s | -40.3°C | 0.2% | 10.9hPa | 2.6V | 00:00:00 | 00:00:00 | 00:00:00 | |
| DO3MHA-11 | 2026-09-03 18:41:32 | 49.05690 | 8.58412 | 23° | 18km/h | 30951m | 5.5m/s | -40.3°C | 2.0% | 10.8hPa | 2.6V | 00:00:00 | 02:11:35 | 00:00:00 | |
| DD1CC8 | 2026-09-03 18:41:31 | 49.05684 | 8.58401 | 82° | 18km/h | 30939m | 5.6m/s | -40.3°C | 0.3% | 10.9hPa | 2.6V | 00:00:00 | 00:00:00 | 00:00:00 | |
| DM0DOS-11 | 2026-09-03 18:41:30 | 49.05698 | 8.58387 | 226° | 18km/h | 30911m | 5.9m/s | -40.3°C | 2% | 11hPa | 2.6V | 03:07:24 | 02:11:28 | 00:00:00 | |
| DF8AY | 2026-09-03 18:41:26 | 49.05694 | 8.58383 | 193° | 15km/h | 30917m | 6.4m/s | 0°C | 0% | 0hPa | 2.5V | 18:12:15 | 02:11:29 | 00:00:00 | |
| BIOWL1-15 | 2026-09-03 18:41:25 | 49.05698 | 8.58387 | 226° | 18km/h | 30911m | 5.9m/s | -40.3°C | 0% | 11hPa | 2.6V | 03:07:58 | 02:11:28 | 00:00:00 | |
| DL1XH1-15 | 2026-09-03 18:41:23 | 49.05695 | 8.58414 | 55° | 15km/h | 30874m | 5.2m/s | -40.5°C | 2% | 11hPa | 2.5V | 03:07:31 | 02:11:21 | 00:00:00 | |
| DK7TD | 2026-09-03 18:41:22 | 49.05702 | 8.58408 | 276° | 18km/h | 30896m | 4.6m/s | -40.4°C | 0% | 11hPa | 2.5V | 03:07:58 | 02:11:25 | 00:00:00 | |
| DO3MHA-11 | 2026-09-03 18:41:22 | 49.05701 | 8.58408 | 277° | 13km/h | 30897m | 4.6m/s | -40.4°C | 2.0% | 10.9hPa | 2.6V | 00:00:00 | 02:11:25 | 00:00:00 | |
| DJ2KF-10 | 2026-09-03 18:41:21 | 49.05701 | 8.58414 | 292° | 11km/h | 30891m | 5.2m/s | -40.4°C | 2.0% | 10.9hPa | 2.6V | 03:07:00 | 02:11:24 | 00:00:00 | |
| DM0DOS-11 | 2026-09-03 18:41:20 | 49.05689 | 8.58397 | 57° | 15km/h | 30859m | 5.1m/s | -40.6°C | 2% | 11hPa | 2.6V | 03:07:34 | 02:11:18 | 00:00:00 | |
| DB0UT-7 | 2026-09-03 18:41:20 | 49.05699 | 8.58418 | 330° | 11km/h | 30886m | 5.9m/s | -40.4°C | 2.0% | 11.0hPa | 2.6V | 00:00:00 | 00:00:00 | 00:00:00 | |
| IW2NTF | 2026-09-03 18:41:19 | 49.05687 | 8.58394 | 42° | 7km/h | 30854m | 5.6m/s | -40.6°C | 2% | 11.1hPa | 2.6V | 03:07:35 | 02:11:17 | 00:00:00 | |
| DL1XH-west | 2026-09-03 18:41:15 | 49.05689 | 8.58397 | 58° | 15km/h | 30859m | 5.1m/s | -40.6°C | 0% | 11hPa | 2.6V | 03:07:58 | 02:11:18 | 00:00:00 | |
| BIOWL1-15 | 2026-09-03 18:41:14 | 49.05687 | 8.58394 | 42° | 7km/h | 30854m | 5.6m/s | -40.6°C | 0% | 11.1hPa | 2.6V | 03:07:58 | 02:11:17 | 00:00:00 | |
| DL1XH1-15 | 2026-09-03 18:41:13 | 49.05696 | 8.58409 | 188° | 15km/h | 30821m | 6m/s | -40.6°C | 2% | 11.1hPa | 2.5V | 03:07:41 | 02:11:11 | 00:00:00 | |
| DF8AY | 2026-09-03 18:41:12 | 49.05686 | 8.58395 | 259° | 9km/h | 30843m | 5.6m/s | 0°C | 0% | 0hPa | 2.5V | 18:12:15 | 02:11:15 | 00:00:00 | |
| DO3MHA-11 | 2026-09-03 18:41:12 | 49.05686 | 8.58395 | 259° | 11km/h | 30843m | 5.5m/s | -40.5°C | 2.1% | 11.0hPa | 2.5V | 03:07:00 | 02:11:15 | 00:00:00 | |
| DN1GJH-1 | 2026-09-03 18:41:11 | 49.05686 | 8.58395 | 260° | 9km/h | 30843m | 5.6m/s | -40.6°C | 0.3% | 11.1hPa | 2.6V | 03:07:00 | 00:00:00 | 00:00:00 | |
| DB0NH | 2026-09-03 18:41:10 | 49.05689 | 8.58403 | 227° | 11km/h | 30833m | 4.8m/s | -40.5°C | 2.0% | 11.0hPa | 2.6V | 00:00:00 | 02:11:13 | 00:00:00 | |
| DM0DOS-11 | 2026-09-03 18:41:09 | 49.05705 | 8.58401 | 89° | 5km/h | 30800m | 5.6m/s | -40.6°C | 2% | 11.1hPa | 2.6V | 03:07:45 | 02:11:07 | 00:00:00 | |
| DL1XH-west | 2026-09-03 18:41:05 | 49.05705 | 8.58404 | 124° | 9km/h | 30806m | 4.9m/s | -40.6°C | 0% | 11.1hPa | 2.6V | 03:07:58 | 02:11:08 | 00:00:00 | |
| BIOWL1-15 | 2026-09-03 18:41:04 | 49.05705 | 8.58401 | 90° | 5km/h | 30800m | 5.6m/s | -40.6°C | 0% | 11.1hPa | 2.6V | 03:07:58 | 02:11:07 | 00:00:00 | |
| DK7TD | 2026-09-03 18:41:01 | 49.05701 | 8.58401 | 331° | 9km/h | 30783m | 4.5m/s | -40.7°C | 0% | 11.2hPa | 2.5V | 03:07:58 | 02:11:04 | 00:00:00 | |
| DL1XH-15 | 2026-09-03 18:41:00 | 49.05708 | 8.58406 | 182° | 16km/h | 30752m | 4.8m/s | -40.8°C | 2% | 11.2hPa | 2.6V | 03:07:54 | 02:10:58 | 00:00:00 | |
| DD1CC8 | 2026-09-03 18:41:00 | 49.05698 | 8.58405 | 285° | 4km/h | 30774m | 5.4m/s | -40.7°C | 0.3% | 11.2hPa | 2.6V | 00:00:00 | 00:00:00 | 00:00:00 | |
| DM0DOS-11 | 2026-09-03 18:40:59 | 49.05712 | 8.58407 | 193° | 16km/h | 30747m | 4.9m/s | -40.8°C | 2% | 11.2hPa | 2.6V | 03:07:55 | 02:10:57 | 00:00:00 | |
| DF8AY | 2026-09-03 18:40:55 | 49.05708 | 8.58406 | 183° | 16km/h | 30752m | 4.8m/s | 0°C | 0% | 0hPa | 2.6V | 18:12:15 | 02:10:58 | 00:00:00 | |
| DL1XH-west | 2026-09-03 18:40:54 | 49.05712 | 8.58407 | 194° | 16km/h | 30747m | 4.9m/s | -40.8°C | 0% | 11.2hPa | 2.6V | 03:07:58 | 02:10:57 | 00:00:00 | |
| DL1XH1-15 | 2026-09-03 18:40:53 | 49.05721 | 8.58429 | 245° | 7km/h | 30713m | 6.1m/s | -40.9°C | 2.1% | 11.2hPa | 2.5V | 03:08:01 | 02:10:51 | 00:00:00 | |
| BIOWL1-15 | 2026-09-03 18:40:53 | 49.05715 | 8.58409 | 210° | 15km/h | 30741m | 6.1m/s | -40.8°C | 0% | 11.2hPa | 2.5V | 03:07:58 | 02:10:56 | 00:00:00 | |
| DO3MHA-11 | 2026-09-03 18:40:52 | 49.05718 | 8.58412 | 235° | 9km/h | 30735m | 5.9m/s | -40.7°C | 2.1% | 11.2hPa | 2.5V | 00:00:00 | 02:10:55 | 00:00:00 | |
| DJ2KF-10 | 2026-09-03 18:40:51 | 49.05719 | 8.58417 | 255° | 13km/h | 30730m | 5.1m/s | -40.7°C | 2.0% | 11.2hPa | 2.5V | 00:00:00 | 02:10:54 | 00:00:00 | |
| DL1XH-15 | 2026-09-03 18:40:50 | 49.05725 | 8.58433 | 189° | 9km/h | 30697m | 4.9m/s | -41°C | 2.1% | 11.3hPa | 2.6V | 03:08:04 | 02:10:48 | 00:00:00 | |
| DB0UT-7 | 2026-09-03 18:40:50 | 49.05719 | 8.58422 | 265° | 13km/h | 30725m | 4.6m/s | -40.8°C | 2.0% | 11.2hPa | 2.6V | 00:00:00 | 02:10:53 | 00:00:00 | |
| DM0DOS-11 | 2026-09-03 18:40:49 | 49.05727 | 8.58434 | 199° | 9km/h | 30692m | 5.9m/s | -41°C | 2.1% | 11.3hPa | 2.6V | 03:08:05 | 02:10:47 | 00:00:00 | |
| DK7TD | 2026-09-03 18:40:49 | 49.05720 | 8.58426 | 264° | 11km/h | 30720m | 5.6m/s | -40.8°C | 0% | 11.3hPa | 2.6V | 03:10:31 | 02:10:52 | 00:00:00 | |
| DO1YAY-16 | 2026-09-03 18:40:45 | 49.05725 | 8.58433 | 189° | 7km/h | 30697m | 4.9m/s | -41.0°C | 0.3% | 11.3hPa | 2.5V | 00:00:00 | 00:00:00 | 00:00:00 | |
| BIOWL1-15 | 2026-09-03 18:40:44 | 49.05733 | 8.58438 | 207° | 15km/h | 30681m | 4.9m/s | -41.1°C | 0% | 11.3hPa | 2.5V | 03:08:49 | 02:10:45 | 00:00:00 | |
| DL1XH1-15 | 2026-09-03 18:40:43 | 49.05751 | 8.58443 | 178° | 20km/h | 30659m | 5.4m/s | -41.2°C | 2.1% | 11.4hPa | 2.5V | 03:08:11 | 02:10:41 | 00:00:00 | |
| DL1XH-west | 2026-09-03 18:40:43 | 49.05730 | 8.58435 | 207° | 11km/h | 30686m | 5.7m/s | -41°C | 0% | 11.3hPa | 2.5V | 03:08:49 | 02:10:46 | 00:00:00 | |
| DO3MHA-11 | 2026-09-03 18:40:42 | 49.05733 | 8.58438 | 207° | 15km/h | 30681m | 4.9m/s | -41.0°C | 2.1% | 11.3hPa | 2.5V | 00:00:00 | 02:10:45 | 00:00:00 | |
| HEMX73-11 | 2026-09-03 18:40:41 | 49.05733 | 8.58438 | 208° | 15km/h | 30681m | 4.9m/s | -41.1°C | 0.3% | 11.3hPa | 2.6V | 03:08:00 | 00:00:00 | 00:00:00 | |
| DL1XH-15 | 2026-09-03 18:40:40 | 49.05762 | 8.58444 | 207° | 7km/h | 30643m | 6.1m/s | -41.2°C | 2.1% | 11.4hPa | 2.6V | 03:08:14 | 02:10:38 | 00:00:00 | |
| DB0NH | 2026-09-03 18:40:40 | 49.05741 | 8.58442 | 194° | 13km/h | 30671m | 5.6m/s | -41.1°C | 2.1% | 11.3hPa | 2.6V | 03:08:00 | 02:10:43 | 00:00:00 | |
| DM0DOS-11 | 2026-09-03 18:40:39 | 49.05763 | 8.58446 | 258° | 7km/h | 30637m | 6.6m/s | -41.2°C | 2.1% | 11.4hPa | 2.6V | 03:08:15 | 02:10:37 | 00:00:00 | |
| DK7TD | 2026-09-03 18:40:37 | 49.05756 | 8.58443 | 179° | 18km/h | 30653m | 4.8m/s | -41.2°C | 0% | 11.4hPa | 2.5V | 03:10:31 | 02:10:40 | 00:00:00 | |
| BIOWL1-15 | 2026-09-03 18:40:35 | 49.05761 | 8.58455 | 280° | 5km/h | 30621m | 4.5m/s | -41.4°C | 0% | 11.4hPa | 2.5V | 03:08:49 | 02:10:34 | 00:00:00 | |
| DL1XH-west | 2026-09-03 18:40:33 | 49.05763 | 8.58449 | 290° | 9km/h | 30631m | 5.7m/s | -41.3°C | 0% | 11.4hPa | 2.5V | 03:08:49 | 02:10:36 | 00:00:00 | |
| SONDE2-11 | 2026-09-03 18:40:33 | 49.05762 | 8.58452 | 298° | 7km/h | 30626m | 4.7m/s | -41.3°C | 0.3% | 11.4hPa | 2.6V | 00:00:00 | 00:00:00 | 00:00:00 | |
| DO3MHA-11 | 2026-09-03 18:40:32 | 49.05762 | 8.58452 | 299° | 16km/h | 30626m | 4.6m/s | -41.3°C | 2.1% | 11.4hPa | 2.6V | 03:08:00 | 02:10:35 | 00:00:00 | |
| DL6DJ-15 | 2026-09-03 18:40:31 | 49.05762 | 8.58456 | 203° | 4km/h | 30616m | 6.0m/s | -41.4°C | 0.3% | 11.4hPa | 2.6V | 00:00:00 | 00:00:00 | 00:00:00 | |
| DL1XH-15 | 2026-09-03 18:40:30 | 49.05784 | 8.58459 | 200° | 24km/h | 30588m | 5.9m/s | -41.7°C | 2.2% | 11.5hPa | 2.6V | 03:08:24 | 02:10:28 | 00:00:00 | |
| DM0DOS-11 | 2026-09-03 18:40:29 | 49.05790 | 8.58463 | 214° | 22km/h | 30582m | 5.6m/s | -41.6°C | 2.2% | 11.5hPa | 2.6V | 03:08:25 | 02:10:27 | 00:00:00 | |
| DK7TD | 2026-09-03 18:40:26 | 49.05778 | 8.58456 | 189° | 26km/h | 30593m | 5.2m/s | -41.7°C | 0% | 11.5hPa | 2.5V | 03:10:31 | 02:10:29 | 00:00:00 | |
| AU51GT2 | 2026-09-03 18:40:25 | 49.05784 | 8.58459 | 200° | 24km/h | 30588m | 5.9m/s | 0°C | -1.0% | -1.0hPa | 2.5V | 00:00:00 | 00:00:00 | 00:00:00 | |
| CB1BUN | 2026-09-03 18:40:24 | 49.05784 | 8.58458 | 201° | 24km/h | 30588m | 5.9m/s | -41.7°C | 0.3% | 11.5hPa | 2.5V | 03:08:00 | 00:00:00 | 00:00:00 | |
| DL1XH1-15 | 2026-09-03 18:40:23 | 49.05799 | 8.58477 | 94° | 7km/h | 30549m | 5.6m/s | -41.6°C | 2.2% | 11.6hPa | 2.5V | 03:08:31 | 02:10:21 | 00:00:00 | |
| BIOWL1-15 | 2026-09-03 18:40:23 | 49.05798 | 8.58477 | 244° | 11km/h | 30567m | 5.4m/s | -41.6°C | 0% | 11.5hPa | 2.5V | 03:08:49 | 02:10:24 | 00:00:00 | |
| DL1XH-west | 2026-09-03 18:40:23 | 49.05793 | 8.58468 | 228° | 20km/h | 30577m | 5m/s | -41.6°C | 0% | 11.5hPa | 2.5V | 03:08:49 | 02:10:26 | 00:00:00 | |
| DO3MHA-11 | 2026-09-03 18:40:22 | 49.05796 | 8.58473 | 239° | 7km/h | 30572m | 4.5m/s | -41.6°C | 2.2% | 11.5hPa | 2.6V | 00:00:00 | 02:10:25 | 00:00:00 | |
| DJ2KF-10 | 2026-09-03 18:40:21 | 49.05797 | 8.58477 | 244° | 13km/h | 30567m | 5.3m/s | -41.5°C | 2.2% | 11.5hPa | 2.6V | 00:00:00 | 02:10:24 | 00:00:00 | |
| DJ2DS-15 | 2026-09-03 18:40:20 | 49.05799 | 8.58480 | 116° | 2km/h | 30555m | 6.1m/s | -41.6°C | 0.3% | 11.6hPa | 2.6V | 00:00:00 | 00:00:00 | 00:00:00 | |
| DM0DOS-11 | 2026-09-03 18:40:19 | 49.05800 | 8.58467 | 193° | 4km/h | 30528m | 5.7m/s | -41.5°C | 2.1% | 11.6hPa | 2.6V | 03:08:35 | 02:10:17 | 00:00:00 | |
| DK7TD | 2026-09-03 18:40:16 | 49.05800 | 8.58470 | 92° | 9km/h | 30539m | 4.8m/s | -41.6°C | 0% | 11.6hPa | 2.5V | 03:10:31 | 02:10:19 | 00:00:00 | |
| DL4BBY-15 | 2026-09-03 18:40:16 | 49.05800 | 8.58471 | 92° | 15km/h | 30539m | 4.7m/s | -41.9°C | 0% | 0hPa | 2.5V | 00:00:00 | 00:00:00 | 00:00:00 | |
| SFWM-10 | 2026-09-03 18:40:15 | 49.05799 | 8.58470 | 93° | 9km/h | 30539m | 4.8m/s | -41.6°C | 0.3% | 11.6hPa | 2.5V | 00:00:00 | 00:00:00 | 00:00:00 | |
| DO1YAY-16 | 2026-09-03 18:40:14 | 49.05800 | 8.58467 | 193° | 2km/h | 30528m | 5.7m/s | -41.6°C | 0.3% | 11.6hPa | 2.5V | 00:00:00 | 00:00:00 | 00:00:00 | |
| DL1XH1-15 | 2026-09-03 18:40:13 | 49.05827 | 8.58487 | 195° | 26km/h | 30495m | 4.1m/s | 0°C | 0% | 0hPa | 2.5V | 03:08:41 | 02:10:11 | 00:00:00 | |
| BIOWL1-15 | 2026-09-03 18:40:12 | 49.05814 | 8.58480 | 204° | 26km/h | 30506m | 6.5m/s | -41.5°C | 0% | 11.6hPa | 2.6V | 03:08:49 | 02:10:13 | 00:00:00 | |
| DL1XH-west | 2026-09-03 18:40:12 | 49.05804 | 8.58472 | 217° | 16km/h | 30517m | 5m/s | -41.6°C | 0% | 11.6hPa | 2.5V | 03:08:49 | 02:10:15 | 00:00:00 | |
| DO3MHA-11 | 2026-09-03 18:40:12 | 49.05804 | 8.58471 | 217° | 18km/h | 30518m | 5.0m/s | -41.5°C | 2.2% | 11.6hPa | 2.5V | 00:00:00 | 02:10:15 | 00:00:00 | |
| DL1ZP-14 | 2026-09-03 18:40:11 | 49.05808 | 8.58476 | 210° | 22km/h | 30512m | 6.1m/s | -41.5°C | 0.3% | 11.6hPa | 2.5V | 00:00:00 | 00:00:00 | 00:00:00 | |
| DL1XH-15 | 2026-09-03 18:40:10 | 49.05838 | 8.58493 | 237° | 4km/h | 30480m | 6.7m/s | -41.5°C | 2.2% | 11.7hPa | 2.6V | 03:08:44 | 02:10:08 | 00:00:00 | |
| DK7TD | 2026-09-03 18:40:04 | 49.05837 | 8.58494 | 341° | 7km/h | 30474m | 6.6m/s | -41.5°C | 0% | 11.7hPa | 2.6V | 03:10:31 | 02:10:07 | 00:00:00 | |
| DL1XH-west | 2026-09-03 18:40:01 | 49.05828 | 8.58492 | 36° | 11km/h | 30458m | 5m/s | -41.5°C | 0% | 11.7hPa | 2.5V | 03:08:49 | 02:10:04 | 00:00:00 | |
| DM0DOS-11 | 2026-09-03 18:39:59 | 49.05852 | 8.58481 | 201° | 16km/h | 30420m | 5m/s | -41.5°C | 2.1% | 11.8hPa | 2.6V | 03:08:55 | 02:09:57 | 00:00:00 | |
| BIOWL1-15 | 2026-09-03 18:39:59 | 49.05827 | 8.58485 | 127° | 13km/h | 30447m | 5.6m/s | -41.5°C | 0% | 11.7hPa | 2.6V | 03:09:40 | 02:10:02 | 00:00:00 | |
| DD1CC8 | 2026-09-03 18:39:58 | 49.05835 | 8.58479 | 168° | 22km/h | 30436m | 5.4m/s | -41.5°C | 0.3% | 11.8hPa | 2.5V | 00:00:00 | 00:00:00 | 00:00:00 | |
| DL1XH-15 | 2026-09-03 18:39:57 | 49.05856 | 8.58484 | 198° | 2km/h | 30410m | 5.2m/s | -41.5°C | 2.1% | 11.8hPa | 2.5V | 03:08:57 | 02:09:55 | 00:00:00 | |
| DO8TBO-1 | 2026-09-03 18:39:57 | 49.05835 | 8.58479 | 169° | 15km/h | 30436m | 5.3m/s | -41.5°C | 2.1% | 11.7hPa | 2.5V | 00:00:00 | 02:10:00 | 00:00:00 | |
| NBG1-10 | 2026-09-03 18:39:56 | 49.05841 | 8.58478 | 181° | 16km/h | 30431m | 5.1m/s | -41.5°C | 2.1% | 11.7hPa | 2.5V | 00:00:00 | 02:09:59 | 00:00:00 | |
| DM7RM-13 | 2026-09-03 18:39:55 | 49.05841 | 8.58478 | 182° | 24km/h | 30431m | 5.2m/s | -41.5°C | 0.3% | 11.8hPa | 2.5V | 03:09:00 | 00:00:00 | 00:00:00 | |
| SFWM-10 | 2026-09-03 18:39:54 | 49.05847 | 8.58479 | 193° | 22km/h | 30426m | 5.0m/s | -41.5°C | 0.3% | 11.8hPa | 2.5V | 00:00:00 | 00:00:00 | 00:00:00 | |
| DL1XH1-15 | 2026-09-03 18:39:53 | 49.05854 | 8.58467 | 93° | 18km/h | 30389m | 4.7m/s | -41.5°C | 2.1% | 11.9hPa | 2.5V | 03:09:01 | 02:09:51 | 00:00:00 | |
| DK7TD | 2026-09-03 18:39:53 | 49.05855 | 8.58483 | 210° | 9km/h | 30415m | 5m/s | -41.5°C | 0% | 11.8hPa | 2.5V | 03:10:31 | 02:09:56 | 00:00:00 | |
| DL1XH-west | 2026-09-03 18:39:50 | 49.05855 | 8.58479 | 71° | 13km/h | 30399m | 5.7m/s | -41.5°C | 0% | 11.8hPa | 2.6V | 03:09:40 | 02:09:53 | 00:00:00 | |
| BIOWL1-15 | 2026-09-03 18:39:50 | 49.05854 | 8.58467 | 93° | 20km/h | 30389m | 4.7m/s | -41.5°C | 0% | 11.9hPa | 2.5V | 03:09:40 | 02:09:51 | 00:00:00 | |
| DB0UT-7 | 2026-09-03 18:39:50 | 49.05855 | 8.58479 | 71° | 16km/h | 30400m | 5.6m/s | -41.4°C | 2.1% | 11.8hPa | 2.6V | 03:08:00 | 02:09:53 | 00:00:00 | |
| DN1GJH-1 | 2026-09-03 18:39:49 | 49.05855 | 8.58479 | 72° | 13km/h | 30400m | 5.7m/s | -41.5°C | 0.3% | 11.8hPa | 2.5V | 03:09:00 | 00:00:00 | 00:00:00 | |
| DJ2DS-15 | 2026-09-03 18:39:48 | 49.05853 | 8.58467 | 94° | 16km/h | 30389m | 4.7m/s | -41.5°C | 2.1% | 11.8hPa | 2.5V | 00:00:00 | 02:09:51 | 00:00:00 | |
| DL1XH-15 | 2026-09-03 18:39:47 | 49.05871 | 8.58453 | 203° | 18km/h | 30357m | 4.7m/s | -41.7°C | 2.1% | 11.9hPa | 2.5V | 03:09:07 | 02:09:45 | 00:00:00 | |
| DL4BBY-15 | 2026-09-03 18:39:46 | 49.05856 | 8.58454 | 128° | 16km/h | 30380m | 4.6m/s | -41.9°C | 0% | 0hPa | 2.5V | 00:00:00 | 00:00:00 | 00:00:00 | |
| DL0LBS | 2026-09-03 18:39:45 | 49.05856 | 8.58454 | 128° | 16km/h | 30380m | 4.6m/s | -41.5°C | 0.3% | 11.9hPa | 2.5V | 03:09:00 | 00:00:00 | 00:00:00 | |
| DJ2DS-15 | 2026-09-03 18:39:44 | 49.05867 | 8.58451 | 200° | 16km/h | 30362m | 5.7m/s | -41.6°C | 0.3% | 11.9hPa | 2.5V | 00:00:00 | 00:00:00 | 00:00:00 | |
| DL1XH1-15 | 2026-09-03 18:39:43 | 49.05886 | 8.58450 | 125° | 18km/h | 30335m | 5.5m/s | -41.7°C | 2.2% | 11.9hPa | 2.5V | 03:09:11 | 02:09:41 | 00:00:00 | |
| DK7TD | 2026-09-03 18:39:42 | 49.05871 | 8.58453 | 204° | 18km/h | 30357m | 4.7m/s | -41.7°C | 0% | 11.9hPa | 2.5V | 03:10:31 | 02:09:45 | 00:00:00 | |
| DL1XH-west | 2026-09-03 18:39:40 | 49.05879 | 8.58456 | 177° | 16km/h | 30347m | 5.8m/s | -41.7°C | 0% | 11.9hPa | 2.6V | 03:09:40 | 02:09:43 | 00:00:00 | |
| DM0DOS-11 | 2026-09-03 18:39:39 | 49.05891 | 8.58425 | 107° | 15km/h | 30312m | 5.4m/s | -41.9°C | 2.2% | 12hPa | 2.6V | 03:09:15 | 02:09:37 | 00:00:00 | |
| BIOWL1-15 | 2026-09-03 18:39:37 | 49.05888 | 8.58444 | 111° | 18km/h | 30330m | 5.5m/s | -41.8°C | 0% | 11.9hPa | 2.5V | 03:09:40 | 02:09:40 | 00:00:00 | |
| DB0UT-9 | 2026-09-03 18:39:36 | 49.05888 | 8.58444 | 112° | 18km/h | 30330m | 5.5m/s | -41.8°C | 0.3% | 11.9hPa | 2.6V | 03:09:00 | 00:00:00 | 00:00:00 | |
| DL1XH-15 | 2026-09-03 18:39:35 | 49.05903 | 8.58411 | 158° | 22km/h | 30290m | 6.2m/s | -42°C | 2.2% | 12hPa | 2.6V | 03:09:19 | 02:09:33 | 00:00:00 | |
| DF3TZ-5 | 2026-09-03 18:39:35 | 49.05891 | 8.58425 | 107° | 13km/h | 30313m | 5.4m/s | -41.9°C | 0.3% | 12.0hPa | 2.5V | 00:00:00 | 00:00:00 | 00:00:00 | |
| DK5PH-5 | 2026-09-03 18:39:34 | 49.05891 | 8.58425 | 108° | 18km/h | 30313m | 5.4m/s | -41.9°C | 2.2% | 11.9hPa | 2.5V | 00:00:00 | 02:09:37 | 00:00:00 | |
| DL1XH1-15 | 2026-09-03 18:39:33 | 49.05915 | 8.58406 | 171° | 24km/h | 30280m | 4.4m/s | -42°C | 2.2% | 12hPa | 2.5V | 03:09:21 | 02:09:31 | 00:00:00 | |
| DL1XH-west | 2026-09-03 18:39:29 | 49.05909 | 8.58408 | 164° | 26km/h | 30285m | 5m/s | -42°C | 0% | 12hPa | 2.6V | 03:09:40 | 02:09:32 | 00:00:00 | |
| IW2NTF | 2026-09-03 18:39:28 | 49.05931 | 8.58410 | 49° | 0km/h | 30253m | 5.2m/s | -42.2°C | 2.2% | 12.1hPa | 2.5V | 03:09:26 | 02:09:26 | 00:00:00 | |
| DK7TD | 2026-09-03 18:39:28 | 49.05915 | 8.58406 | 172° | 24km/h | 30280m | 4.4m/s | -42°C | 0% | 12hPa | 2.5V | 03:10:31 | 02:09:31 | 00:00:00 | |
| BIOWL1-15 | 2026-09-03 18:39:27 | 49.05920 | 8.58405 | 180° | 22km/h | 30275m | 4.9m/s | -42°C | 0% | 12.1hPa | 2.5V | 03:09:40 | 02:09:30 | 00:00:00 | |
| DD1CC8 | 2026-09-03 18:39:26 | 49.05925 | 8.58406 | 191° | 16km/h | 30270m | 6.1m/s | -42.1°C | 0.3% | 12.0hPa | 2.6V | 00:00:00 | 00:00:00 | 00:00:00 | |
| DL1XH-15 | 2026-09-03 18:39:25 | 49.05931 | 8.58399 | 98° | 16km/h | 30235m | 5.3m/s | -42.3°C | 2.2% | 12.1hPa | 2.6V | 03:09:29 | 02:09:23 | 00:00:00 | |
| DL1XH1-15 | 2026-09-03 18:39:23 | 49.05934 | 8.58386 | 127° | 20km/h | 30226m | 4.1m/s | -42.3°C | 2.3% | 12.1hPa | 2.5V | 03:09:31 | 02:09:21 | 00:00:00 | |
| DL1XH-west | 2026-09-03 18:39:19 | 49.05932 | 8.58393 | 112° | 20km/h | 30230m | 4.2m/s | -42.3°C | 0% | 12.1hPa | 2.6V | 03:09:40 | 02:09:22 | 00:00:00 | |
| DK7TD | 2026-09-03 18:39:17 | 49.05938 | 8.58381 | 148° | 18km/h | 30222m | 5.2m/s | -42.3°C | 0% | 12.1hPa | 2.5V | 03:10:31 | 02:09:20 | 00:00:00 | |
| SONCRA | 2026-09-03 18:39:17 | 49.05938 | 8.58381 | 147° | 18km/h | 30222m | 5.2m/s | -42.3°C | 0.3% | 12.1hPa | 2.6V | 00:00:00 | 00:00:00 | 00:00:00 | |
| DL4BBY-15 | 2026-09-03 18:39:16 | 49.05942 | 8.58379 | 172° | 18km/h | 30216m | 6.4m/s | -42.7°C | 0% | 0hPa | 2.6V | 00:00:00 | 00:00:00 | 00:00:00 | |
| LOEBOVI | 2026-09-03 18:39:15 | 49.05942 | 8.58379 | 173° | 20km/h | 30216m | 6.5m/s | 0°C | 0% | 0hPa | 2.6V | 00:00:00 | 00:00:00 | 00:00:00 | |
| DL1XH-15 | 2026-09-03 18:39:14 | 49.05983 | 8.58385 | 140° | 22km/h | 30177m | 5.2m/s | -42.3°C | 2.2% | 12.2hPa | 2.6V | 03:09:40 | 02:09:12 | 00:00:00 | |
| DL1XH1-15 | 2026-09-03 18:39:13 | 49.05986 | 8.58379 | 121° | 20km/h | 30172m | 5m/s | -42.3°C | 2.2% | 12.2hPa | 2.5V | 03:09:41 | 02:09:11 | 00:00:00 | |
| DO3MHA-11 | 2026-09-03 18:39:12 | 49.05966 | 8.58389 | 196° | 16km/h | 30194m | 4.6m/s | -42.3°C | 2.2% | 12.1hPa | 2.5V | 03:09:00 | 02:09:15 | 00:00:00 | |
| DB0ND-19 | 2026-09-03 18:39:11 | 49.05972 | 8.58391 | 181° | 24km/h | 30188m | 6.0m/s | -42.3°C | 0.3% | 12.2hPa | 2.6V | 00:00:00 | 00:00:00 | 00:00:00 | |
| SFWM-10 | 2026-09-03 18:39:10 | 49.05972 | 8.58391 | 182° | 26km/h | 30188m | 6.0m/s | -42.3°C | 0.3% | 12.2hPa | 2.6V | 00:00:00 | 00:00:00 | 00:00:00 | |
| IW2NTF | 2026-09-03 18:39:09 | 49.05988 | 8.58360 | 77° | 4km/h | 30149m | 4.7m/s | -42.3°C | 2.2% | 12.3hPa | 2.6V | 03:09:45 | 02:09:07 | 00:00:00 | |
| DL1XH-west | 2026-09-03 18:39:08 | 49.05986 | 8.58380 | 122° | 20km/h | 30172m | 5m/s | -42.3°C | 0% | 12.2hPa | 2.5V | 03:10:31 | 02:09:11 | 00:00:00 | |
| BIOWL1-15 | 2026-09-03 18:39:06 | 49.05989 | 8.58367 | 90° | 15km/h | 30160m | 5.9m/s | -42.3°C | 0% | 12.3hPa | 2.5V | 03:10:31 | 02:09:09 | 00:00:00 | |
| DL0LBS | 2026-09-03 18:39:05 | 49.05989 | 8.58367 | 91° | 15km/h | 30161m | 5.9m/s | -42.3°C | 0.3% | 12.3hPa | 2.6V | 03:10:00 | 00:00:00 | 00:00:00 | |
| DL1XH-15 | 2026-09-03 18:39:04 | 49.06002 | 8.58361 | 191° | 24km/h | 30123m | 4.8m/s | -42.3°C | 2.3% | 12.3hPa | 2.6V | 03:09:50 | 02:09:02 | 00:00:00 | |
| DK5PH-5 | 2026-09-03 18:39:04 | 49.05988 | 8.58360 | 78° | 15km/h | 30150m | 4.6m/s | -42.3°C | 2.2% | 12.2hPa | 2.6V | 00:00:00 | 02:09:07 | 00:00:00 | |
| DL1XH1-15 | 2026-09-03 18:39:03 | 49.06008 | 8.58363 | 197° | 24km/h | 30118m | 4.8m/s | -42.3°C | 2.3% | 12.3hPa | 2.5V | 03:09:51 | 02:09:01 | 00:00:00 | |
| DL1XH-west | 2026-09-03 18:38:58 | 49.06008 | 8.58363 | 198° | 24km/h | 30118m | 4.8m/s | -42.3°C | 0% | 12.3hPa | 2.5V | 03:10:31 | 02:09:01 | 00:00:00 | |
| DL6DJ-15 | 2026-09-03 18:38:57 | 49.06013 | 8.58366 | 205° | 22km/h | 30113m | 5.9m/s | -42.3°C | 0.3% | 12.3hPa | 2.5V | 00:00:00 | 00:00:00 | 00:00:00 | |
| DM0DOS-11 | 2026-09-03 18:38:56 | 49.06028 | 8.58379 | 124° | 9km/h | 30079m | 6m/s | -42.3°C | 2.2% | 12.4hPa | 2.5V | 03:09:58 | 02:08:54 | 00:00:00 | |
| DK7TD | 2026-09-03 18:38:55 | 49.06022 | 8.58375 | 224° | 16km/h | 30101m | 5.1m/s | -42.4°C | 0% | 12.4hPa | 2.6V | 03:10:31 | 02:08:58 | 00:00:00 | |
| DL1XH-15 | 2026-09-03 18:38:54 | 49.06032 | 8.58372 | 139° | 11km/h | 30069m | 4.2m/s | -42.4°C | 2.2% | 12.4hPa | 2.6V | 03:10:00 | 02:08:52 | 00:00:00 | |
| DL1XH1-15 | 2026-09-03 18:38:53 | 49.06034 | 8.58370 | 169° | 11km/h | 30064m | 4.6m/s | -42.4°C | 2.2% | 12.4hPa | 2.5V | 03:10:01 | 02:08:51 | 00:00:00 | |
| DL1XH-west | 2026-09-03 18:38:47 | 49.06037 | 8.58371 | 204° | 13km/h | 30059m | 6.1m/s | -42.4°C | 0% | 12.4hPa | 2.5V | 03:10:31 | 02:08:50 | 00:00:00 | |
| DM0DOS-11 | 2026-09-03 18:38:46 | 49.06063 | 8.58406 | 199° | 20km/h | 30026m | 5m/s | -42.5°C | 2.2% | 12.5hPa | 2.5V | 03:10:08 | 02:08:44 | 00:00:00 | |
| DK7TD | 2026-09-03 18:38:45 | 49.06044 | 8.58381 | 231° | 24km/h | 30047m | 5.4m/s | -42.4°C | 0% | 12.5hPa | 2.6V | 03:10:31 | 02:08:48 | 00:00:00 | |
| BIOWL1-15 | 2026-09-03 18:38:44 | 49.06048 | 8.58388 | 231° | 27km/h | 30042m | 4.9m/s | -42.4°C | 0% | 12.5hPa | 2.6V | 03:10:31 | 02:08:47 | 00:00:00 | |
| DL1XH1-15 | 2026-09-03 18:38:43 | 49.06074 | 8.58406 | 152° | 9km/h | 30011m | 5.8m/s | -42.5°C | 2.2% | 12.5hPa | 2.5V | 03:10:11 | 02:08:41 | 00:00:00 | |
| DL1XH-west | 2026-09-03 18:38:37 | 49.06075 | 8.58404 | 141° | 5km/h | 30005m | 6m/s | -42.5°C | 0% | 12.6hPa | 2.5V | 03:10:31 | 02:08:40 | 00:00:00 | |
| DL8DAS-14 | 2026-09-03 18:38:35 | 49.06076 | 8.58403 | 167° | 0km/h | 29994m | 4.8m/s | -42.5°C | 0.3% | 12.6hPa | 2.6V | 00:00:00 | 00:00:00 | 00:00:00 | |
| DL1XH-15 | 2026-09-03 18:38:34 | 49.06091 | 8.58399 | 172° | 15km/h | 29963m | 4.1m/s | -42.6°C | 2.2% | 12.6hPa | 2.6V | 03:10:20 | 02:08:32 | 00:00:00 | |
| DK7TD | 2026-09-03 18:38:34 | 49.06077 | 8.58403 | 184° | 4km/h | 29990m | 4.6m/s | -42.5°C | 0% | 12.6hPa | 2.6V | 03:10:31 | 02:08:37 | 00:00:00 | |
| DK5PH-5 | 2026-09-03 18:38:34 | 49.06077 | 8.58403 | 184° | 9km/h | 29990m | 4.6m/s | -42.5°C | 2.2% | 12.5hPa | 2.5V | 03:10:00 | 02:08:37 | 00:00:00 | |
| DF3TZ-5 | 2026-09-03 18:38:33 | 49.06080 | 8.58402 | 168° | 9km/h | 29979m | 6.2m/s | -42.5°C | 0.3% | 12.6hPa | 2.5V | 00:00:00 | 00:00:00 | 00:00:00 | |
| DJ2DS-15 | 2026-09-03 18:38:32 | 49.06083 | 8.58401 | 165° | 13km/h | 29973m | 5.9m/s | -42.6°C | 0.3% | 12.6hPa | 2.5V | 00:00:00 | 00:00:00 | 00:00:00 | |
| DF7PN | 2026-09-03 18:38:30 | 49.06087 | 8.58400 | 165° | 15km/h | 29968m | 4.9m/s | -42.6°C | 0.3% | 12.6hPa | 2.5V | 00:00:00 | 00:00:00 | 00:00:00 | |
| SONDE2-11 | 2026-09-03 18:38:29 | 49.06094 | 8.58399 | 187° | 11km/h | 29959m | 4.9m/s | -42.6°C | 0.3% | 12.7hPa | 2.5V | 00:00:00 | 00:00:00 | 00:00:00 | |
| DJ2DS-15 | 2026-09-03 18:38:28 | 49.06094 | 8.58399 | 188° | 9km/h | 29959m | 4.9m/s | -42.5°C | 2.2% | 12.6hPa | 2.5V | 00:00:00 | 02:08:31 | 00:00:00 | |
| DM0DOS-11 | 2026-09-03 18:38:26 | 49.06099 | 8.58413 | 119° | 7km/h | 29919m | 5.3m/s | -42.9°C | 2.2% | 12.7hPa | 2.5V | 03:10:28 | 02:08:24 | 00:00:00 | |
| DL1XH-west | 2026-09-03 18:38:26 | 49.06098 | 8.58403 | 247° | 11km/h | 29947m | 6m/s | -42.7°C | 0% | 12.6hPa | 2.5V | 03:10:31 | 02:08:29 | 00:00:00 | |
| DN1GJH-1 | 2026-09-03 18:38:25 | 49.06099 | 8.58403 | 248° | 11km/h | 29948m | 6.0m/s | -42.7°C | 0.4% | 12.6hPa | 2.6V | 03:10:00 | 00:00:00 | 00:00:00 | |
| DL1XH-15 | 2026-09-03 18:38:24 | 49.06101 | 8.58407 | 114° | 9km/h | 29909m | 5.3m/s | -43°C | 2.3% | 12.7hPa | 2.6V | 03:10:30 | 02:08:22 | 00:00:00 | |
| BIOWL1-15 | 2026-09-03 18:38:23 | 49.06099 | 8.58414 | 282° | 4km/h | 29931m | 5.7m/s | -42.8°C | 0% | 12.7hPa | 2.5V | 03:10:31 | 02:08:26 | 00:00:00 | |
| IW2NTF | 2026-09-03 18:38:22 | 49.06103 | 8.58402 | 119° | 5km/h | 29898m | 5.3m/s | -43°C | 2.3% | 12.7hPa | 2.5V | 03:10:32 | 02:08:20 | 00:00:00 | |
| DK7TD | 2026-09-03 18:38:17 | 49.06103 | 8.58402 | 120° | 5km/h | 29898m | 5.3m/s | -43.1°C | 0% | 12.7hPa | 2.5V | 03:11:22 | 02:08:20 | 00:00:00 | |
| DM0DOS-11 | 2026-09-03 18:38:16 | 49.06113 | 8.58405 | 217° | 15km/h | 29867m | 4.5m/s | -43.4°C | 2.3% | 12.8hPa | 2.5V | 03:10:38 | 02:08:14 | 00:00:00 | |
| DL1XH-west | 2026-09-03 18:38:15 | 49.06104 | 8.58400 | 183° | 4km/h | 29888m | 4.9m/s | -43.1°C | 0% | 12.8hPa | 2.6V | 03:11:22 | 02:08:18 | 00:00:00 | |
| BIOWL1-15 | 2026-09-03 18:38:14 | 49.06110 | 8.58403 | 204° | 13km/h | 29872m | 5.2m/s | -43.3°C | 0% | 12.8hPa | 2.5V | 03:11:22 | 02:08:15 | 00:00:00 | |
| DL1XH1-15 | 2026-09-03 18:38:13 | 49.06120 | 8.58422 | 254° | 18km/h | 29850m | 5.9m/s | -43.5°C | 2.3% | 12.8hPa | 2.5V | 03:10:41 | 02:08:11 | 00:00:00 | |
| DO3MHA-11 | 2026-09-03 18:38:12 | 49.06110 | 8.58403 | 205° | 13km/h | 29872m | 5.1m/s | -43.3°C | 2.3% | 12.7hPa | 2.5V | 00:00:00 | 02:08:15 | 00:00:00 | |
| IW2NTF | 2026-09-03 18:38:11 | 49.06121 | 8.58433 | 272° | 9km/h | 29840m | 4.7m/s | -43.6°C | 2.3% | 12.9hPa | 2.5V | 03:10:43 | 02:08:09 | 00:00:00 | |
| DK7TD | 2026-09-03 18:38:06 | 49.06121 | 8.58433 | 273° | 9km/h | 29840m | 4.7m/s | -43.6°C | 0% | 12.9hPa | 2.5V | 03:11:22 | 02:08:09 | 00:00:00 | |
| DM0DOS-11 | 2026-09-03 18:38:06 | 49.06118 | 8.58420 | 71° | 13km/h | 29813m | 4.4m/s | -43.8°C | 2.4% | 12.9hPa | 2.5V | 03:10:48 | 02:08:04 | 00:00:00 | |
| DL8DAS-15 | 2026-09-03 18:38:05 | 49.06121 | 8.58432 | 274° | 9km/h | 29840m | 4.7m/s | -43.6°C | 0.4% | 12.9hPa | 2.6V | 00:00:00 | 00:00:00 | 00:00:00 | |
| DL1XH-15 | 2026-09-03 18:38:04 | 49.06115 | 8.58415 | 347° | 5km/h | 29802m | 5.9m/s | -44°C | 2.4% | 12.9hPa | 2.6V | 03:10:50 | 02:08:02 | 00:00:00 | |
| DL1XH-west | 2026-09-03 18:38:04 | 49.06120 | 8.58434 | 78° | 7km/h | 29828m | 6.4m/s | -43.7°C | 0% | 12.9hPa | 2.6V | 03:11:22 | 02:08:07 | 00:00:00 | |
| BIOWL1-15 | 2026-09-03 18:38:02 | 49.06119 | 8.58425 | 78° | 15km/h | 29818m | 4.2m/s | -43.8°C | 0% | 12.9hPa | 2.5V | 03:11:22 | 02:08:05 | 00:00:00 | |
| DK7TD | 2026-09-03 18:37:56 | 49.06112 | 8.58429 | 274° | 18km/h | 29786m | 4.8m/s | -44.1°C | 0% | 13hPa | 2.5V | 03:11:22 | 02:07:59 | 00:00:00 | |
| DL6DJ-15 | 2026-09-03 18:37:55 | 49.06112 | 8.58436 | 264° | 16km/h | 29781m | 4.5m/s | -44.1°C | 0.4% | 13.0hPa | 2.6V | 00:00:00 | 00:00:00 | 00:00:00 | |
| DL1XH-15 | 2026-09-03 18:37:54 | 49.06115 | 8.58436 | 55° | 9km/h | 29751m | 4.5m/s | -44.2°C | 2.4% | 13hPa | 2.6V | 03:11:00 | 02:07:52 | 00:00:00 | |
| DL1XH1-15 | 2026-09-03 18:37:53 | 49.06113 | 8.58434 | 11° | 9km/h | 29746m | 5.4m/s | -44.3°C | 2.4% | 13hPa | 2.5V | 03:11:01 | 02:07:51 | 00:00:00 | |
| DL1XH-west | 2026-09-03 18:37:53 | 49.06114 | 8.58445 | 224° | 7km/h | 29771m | 5.5m/s | -44.2°C | 0% | 13hPa | 2.5V | 03:11:22 | 02:07:56 | 00:00:00 | |
| DO3MHA-11 | 2026-09-03 18:37:52 | 49.06115 | 8.58445 | 150° | 15km/h | 29766m | 5.5m/s | -44.2°C | 2.4% | 13.0hPa | 2.5V | 03:10:00 | 02:07:55 | 00:00:00 | |
| IW2NTF | 2026-09-03 18:37:51 | 49.06108 | 8.58439 | 302° | 18km/h | 29734m | 5.9m/s | -44.3°C | 2.4% | 13.1hPa | 2.5V | 03:11:03 | 02:07:49 | 00:00:00 | |
| BIOWL1-15 | 2026-09-03 18:37:51 | 49.06116 | 8.58443 | 106° | 9km/h | 29760m | 5m/s | -44.2°C | 0% | 13hPa | 2.5V | 03:11:22 | 02:07:54 | 00:00:00 | |
| DK7TD | 2026-09-03 18:37:46 | 49.06108 | 8.58439 | 303° | 18km/h | 29734m | 5.9m/s | -44.3°C | 0% | 13.1hPa | 2.5V | 03:11:22 | 02:07:49 | 00:00:00 | |
| DL4BBY-15 | 2026-09-03 18:37:46 | 49.06108 | 8.58439 | 303° | 13km/h | 29735m | 5.8m/s | -44.7°C | 0% | 0hPa | 2.6V | 00:00:00 | 00:00:00 | 00:00:00 | |
| DL1XH-15 | 2026-09-03 18:37:44 | 49.06117 | 8.58479 | 166° | 18km/h | 29697m | 4.7m/s | -44.4°C | 2.4% | 13.1hPa | 2.6V | 03:11:10 | 02:07:42 | 00:00:00 | |
| SONCRA | 2026-09-03 18:37:44 | 49.06105 | 8.58465 | 262° | 22km/h | 29720m | 4.9m/s | 0°C | -1.0% | 13.1hPa | 2.5V | 00:00:00 | 00:00:00 | 00:00:00 | |
| DL1XH1-15 | 2026-09-03 18:37:43 | 49.06121 | 8.58477 | 159° | 16km/h | 29692m | 4.7m/s | -44.4°C | 2.4% | 13.1hPa | 2.5V | 03:11:11 | 02:07:41 | 00:00:00 | |
| DL1XH-west | 2026-09-03 18:37:42 | 49.06106 | 8.58472 | 245° | 20km/h | 29714m | 5.8m/s | -44.3°C | 0% | 13.1hPa | 2.5V | 03:11:22 | 02:07:45 | 00:00:00 | |
| DO3MHA-11 | 2026-09-03 18:37:42 | 49.06106 | 8.58472 | 245° | 13km/h | 29715m | 5.8m/s | -44.3°C | 2.5% | 13.1hPa | 2.5V | 00:00:00 | 02:07:45 | 00:00:00 | |
| IW2NTF | 2026-09-03 18:37:41 | 49.06127 | 8.58474 | 172° | 7km/h | 29682m | 5.5m/s | -44.4°C | 2.4% | 13.2hPa | 2.6V | 03:11:13 | 02:07:39 | 00:00:00 | |
| BIOWL1-15 | 2026-09-03 18:37:40 | 49.06113 | 8.58480 | 186° | 16km/h | 29702m | 5.5m/s | -44.4°C | 0% | 13.1hPa | 2.6V | 03:11:22 | 02:07:43 | 00:00:00 | |
| DK7TD | 2026-09-03 18:37:35 | 49.06128 | 8.58475 | 231° | 4km/h | 29677m | 5.5m/s | -44.4°C | 0% | 13.2hPa | 2.6V | 03:11:22 | 02:07:38 | 00:00:00 | |
| DL1XH-15 | 2026-09-03 18:37:34 | 49.06124 | 8.58493 | 273° | 11km/h | 29644m | 5.1m/s | -44.5°C | 2.5% | 13.2hPa | 2.6V | 03:11:20 | 02:07:32 | 00:00:00 | |
| DL1XH1-15 | 2026-09-03 18:37:34 | 49.06124 | 8.58497 | 268° | 13km/h | 29638m | 6.3m/s | -44.5°C | 2.5% | 13.3hPa | 2.5V | 03:11:21 | 02:07:31 | 00:00:00 | |
| DL1XH-west | 2026-09-03 18:37:31 | 49.06126 | 8.58486 | 294° | 9km/h | 29654m | 5.6m/s | -44.5°C | 0% | 13.2hPa | 2.5V | 03:11:22 | 02:07:34 | 00:00:00 | |
| BIOWL1-15 | 2026-09-03 18:37:29 | 49.06124 | 8.58493 | 274° | 11km/h | 29644m | 5.1m/s | -44.5°C | 0% | 13.2hPa | 2.6V | 03:11:22 | 02:07:32 | 00:00:00 | |
| DJ2DS-15 | 2026-09-03 18:37:28 | 49.06124 | 8.58497 | 269° | 13km/h | 29638m | 6.3m/s | -44.4°C | 2.5% | 13.2hPa | 2.5V | 00:00:00 | 02:07:31 | 00:00:00 | |
| SONDE2-11 | 2026-09-03 18:37:27 | 49.06126 | 8.58507 | 251° | 13km/h | 29627m | 5.1m/s | -44.5°C | 0.4% | 13.3hPa | 2.5V | 00:00:00 | 00:00:00 | 00:00:00 | |
| DM0DOS-11 | 2026-09-03 18:37:26 | 49.06134 | 8.58512 | 148° | 5km/h | 29599m | 4.1m/s | -44.5°C | 2.5% | 13.3hPa | 2.5V | 03:11:28 | 02:07:24 | 00:00:00 | |
| DK7TD | 2026-09-03 18:37:25 | 49.06127 | 8.58511 | 234° | 11km/h | 29621m | 4.9m/s | -44.5°C | 0% | 13.3hPa | 2.6V | 03:13:04 | 02:07:28 | 00:00:00 | |
| DL6DJ-15 | 2026-09-03 18:37:24 | 49.06131 | 8.58514 | 171° | 7km/h | 29610m | 6.4m/s | -44.5°C | 0.4% | 13.3hPa | 2.5V | 00:00:00 | 00:00:00 | 00:00:00 | |
| DL1XH1-15 | 2026-09-03 18:37:23 | 49.06133 | 8.58518 | 298° | 16km/h | 29583m | 6m/s | -44.5°C | 2.5% | 13.3hPa | 2.5V | 03:11:31 | 02:07:21 | 00:00:00 | |
| DL1XH-west | 2026-09-03 18:37:21 | 49.06134 | 8.58512 | 148° | 5km/h | 29599m | 4.1m/s | -44.5°C | 0% | 13.3hPa | 2.5V | 03:12:13 | 02:07:24 | 00:00:00 | |
| BIOWL1-15 | 2026-09-03 18:37:19 | 49.06135 | 8.58513 | 293° | 9km/h | 29589m | 6.4m/s | -44.5°C | 0% | 13.3hPa | 2.6V | 03:12:13 | 02:07:22 | 00:00:00 | |
| CB1BUN | 2026-09-03 18:37:17 | 49.06133 | 8.58518 | 300° | 16km/h | 29583m | 6.0m/s | -44.5°C | 0.4% | 13.3hPa | 2.5V | 03:12:00 | 00:00:00 | 00:00:00 | |
| DM0DOS-11 | 2026-09-03 18:37:16 | 49.06121 | 8.58560 | 230° | 9km/h | 29545m | 5.4m/s | -44.6°C | 2.5% | 13.4hPa | 2.5V | 03:11:38 | 02:07:14 | 00:00:00 | |
| DK7TD | 2026-09-03 18:37:15 | 49.06125 | 8.58540 | 299° | 24km/h | 29567m | 5.3m/s | -44.6°C | 0% | 13.4hPa | 2.6V | 03:13:04 | 02:07:18 | 00:00:00 | |
| DL1XH-15 | 2026-09-03 18:37:14 | 49.06125 | 8.58565 | 214° | 13km/h | 29533m | 6.2m/s | -44.6°C | 2.5% | 13.5hPa | 2.6V | 03:11:40 | 02:07:12 | 00:00:00 | |
| BIOWL1-15 | 2026-09-03 18:37:12 | 49.06128 | 8.58568 | 214° | 15km/h | 29528m | 5.3m/s | -44.7°C | 0% | 13.5hPa | 2.5V | 03:12:13 | 02:07:11 | 00:00:00 | |
| DL1XH-west | 2026-09-03 18:37:10 | 49.06123 | 8.58562 | 216° | 11km/h | 29539m | 5.7m/s | -44.6°C | 0% | 13.5hPa | 2.6V | 03:12:13 | 02:07:13 | 00:00:00 | |
| DO2KSM | 2026-09-03 18:37:09 | 49.06123 | 8.58562 | 217° | 11km/h | 29540m | 5.7m/s | 0°C | 0% | 0hPa | 2.5V | 00:00:00 | 00:00:00 | 00:00:00 | |
| DO1YAY-16 | 2026-09-03 18:37:08 | 49.06128 | 8.58568 | 213° | 13km/h | 29528m | 5.3m/s | -44.7°C | 0.4% | 13.5hPa | 2.5V | 00:00:00 | 00:00:00 | 00:00:00 | |
| DB0ND-19 | 2026-09-03 18:37:07 | 49.06131 | 8.58571 | 207° | 13km/h | 29523m | 4.5m/s | -44.7°C | 0.4% | 13.5hPa | 2.5V | 00:00:00 | 00:00:00 | 00:00:00 | |
| DM0DOS-11 | 2026-09-03 18:37:06 | 49.06137 | 8.58568 | 338° | 5km/h | 29490m | 6.5m/s | -44.6°C | 2.5% | 13.6hPa | 2.5V | 03:11:48 | 02:07:04 | 00:00:00 | |
| DF8AY | 2026-09-03 18:37:06 | 49.06134 | 8.58572 | 194° | 11km/h | 29518m | 5.1m/s | -44.7°C | 0% | 0hPa | 2.5V | 03:13:04 | 02:07:09 | 00:00:00 | |
| DL1ZP-14 | 2026-09-03 18:37:05 | 49.06136 | 8.58572 | 170° | 7km/h | 29512m | 6.4m/s | -44.7°C | 0.4% | 13.5hPa | 2.6V | 00:00:00 | 00:00:00 | 00:00:00 | |
| DL1XH-15 | 2026-09-03 18:37:04 | 49.06134 | 8.58573 | 310° | 11km/h | 29478m | 5m/s | -44.6°C | 2.5% | 13.6hPa | 2.6V | 03:11:50 | 02:07:02 | 00:00:00 | |
| DK7TD | 2026-09-03 18:37:03 | 49.06138 | 8.58570 | 98° | 4km/h | 29501m | 4.7m/s | -44.6°C | 0% | 13.5hPa | 2.5V | 03:13:04 | 02:07:06 | 00:00:00 | |
| DO3MHA-11 | 2026-09-03 18:37:02 | 49.06138 | 8.58568 | 34° | 7km/h | 29496m | 4.9m/s | -44.6°C | 2.5% | 13.5hPa | 2.5V | 00:00:00 | 02:07:05 | 00:00:00 | |
| IW2NTF | 2026-09-03 18:37:01 | 49.06131 | 8.58579 | 172° | 2km/h | 29462m | 5.8m/s | -44.6°C | 2.5% | 13.6hPa | 2.5V | 03:11:53 | 02:06:59 | 00:00:00 | |
| DL1XH-west | 2026-09-03 18:37:00 | 49.06135 | 8.58570 | 318° | 9km/h | 29484m | 6m/s | -44.7°C | 0% | 13.6hPa | 2.6V | 03:12:13 | 02:07:03 | 00:00:00 | |
| BIOWL1-15 | 2026-09-03 18:36:59 | 49.06131 | 8.58578 | 294° | 5km/h | 29468m | 5.9m/s | -44.6°C | 0% | 13.6hPa | 2.5V | 03:12:13 | 02:07:00 | 00:00:00 | |
| DF7PN | 2026-09-03 18:36:57 | 49.06131 | 8.58579 | 172° | 0km/h | 29463m | 5.8m/s | -44.7°C | 0.4% | 13.6hPa | 2.5V | 00:00:00 | 00:00:00 | 00:00:00 | |
| CB1BUN | 2026-09-03 18:36:56 | 49.06131 | 8.58578 | 295° | 5km/h | 29469m | 5.9m/s | -44.6°C | 0.4% | 13.6hPa | 2.5V | 03:12:00 | 00:00:00 | 00:00:00 | |
| AZAK | 2026-09-03 18:36:55 | 49.06132 | 8.58578 | 147° | 7km/h | 29457m | 5.0m/s | -44.7°C | 0.4% | 13.6hPa | 2.5V | 00:00:00 | 00:00:00 | 00:00:00 | |
| DL1XH1-15 | 2026-09-03 18:36:53 | 49.06149 | 8.58577 | 181° | 4km/h | 29420m | 5.8m/s | -44.8°C | 2.5% | 13.7hPa | 2.5V | 03:12:01 | 02:06:51 | 00:00:00 | |
| DK7TD | 2026-09-03 18:36:52 | 49.06139 | 8.58574 | 178° | 13km/h | 29441m | 5.9m/s | -44.7°C | 0% | 13.7hPa | 2.5V | 03:13:04 | 02:06:55 | 00:00:00 | |
| DL1XH-west | 2026-09-03 18:36:50 | 49.06145 | 8.58576 | 196° | 11km/h | 29430m | 4.9m/s | -44.8°C | 0% | 13.7hPa | 2.6V | 03:12:13 | 02:06:53 | 00:00:00 | |
| BIOWL1-15 | 2026-09-03 18:36:50 | 49.06149 | 8.58576 | 36° | 4km/h | 29408m | 5.1m/s | -44.7°C | 0% | 13.7hPa | 2.5V | 03:12:13 | 02:06:49 | 00:00:00 | |
| DB0UT-7 | 2026-09-03 18:36:50 | 49.06145 | 8.58576 | 197° | 7km/h | 29431m | 4.8m/s | -44.7°C | 2.5% | 13.6hPa | 2.6V | 00:00:00 | 02:06:53 | 00:00:00 | |
| DJ2DS-15 | 2026-09-03 18:36:48 | 49.06149 | 8.58577 | 182° | 7km/h | 29420m | 5.7m/s | -44.7°C | 2.5% | 13.6hPa | 2.6V | 03:12:00 | 02:06:51 | 00:00:00 | |
| DL4BBY-15 | 2026-09-03 18:36:46 | 49.06149 | 8.58576 | 37° | 9km/h | 29409m | 5.0m/s | -45.1°C | 0% | 0hPa | 2.6V | 00:00:00 | 00:00:00 | 00:00:00 | |
| DF1GD-15 | 2026-09-03 18:36:45 | 49.06149 | 8.58576 | 37° | 5km/h | 29409m | 5.1m/s | -44.7°C | 0.4% | 13.7hPa | 2.6V | 03:12:00 | 00:00:00 | 00:00:00 | |
| DL1XH-15 | 2026-09-03 18:36:44 | 49.06140 | 8.58599 | 277° | 11km/h | 29372m | 5.4m/s | -44.6°C | 2.5% | 13.8hPa | 2.6V | 03:12:10 | 02:06:42 | 00:00:00 | |
| DK7TD | 2026-09-03 18:36:42 | 49.06143 | 8.58583 | 291° | 15km/h | 29387m | 5.5m/s | -44.7°C | 0% | 13.8hPa | 2.5V | 03:13:04 | 02:06:45 | 00:00:00 | |
| DO3MHA-11 | 2026-09-03 18:36:42 | 49.06143 | 8.58583 | 291° | 9km/h | 29387m | 5.5m/s | -44.6°C | 2.5% | 13.7hPa | 2.5V | 00:00:00 | 02:06:45 | 00:00:00 | |
| DL0LBS | 2026-09-03 18:36:40 | 49.06142 | 8.58589 | 284° | 16km/h | 29382m | 4.5m/s | -44.7°C | 0.4% | 13.8hPa | 2.6V | 03:12:00 | 00:00:00 | 00:00:00 | |
| IW2NTF | 2026-09-03 18:36:39 | 49.06142 | 8.58601 | 171° | 5km/h | 29346m | 5.2m/s | -44.6°C | 2.5% | 13.9hPa | 2.6V | 03:12:15 | 02:06:37 | 00:00:00 | |
| DL1XH-west | 2026-09-03 18:36:39 | 49.06140 | 8.58599 | 278° | 11km/h | 29373m | 5.4m/s | -44.6°C | 0% | 13.8hPa | 2.6V | 03:12:13 | 02:06:42 | 00:00:00 | |
| DO1YAY-16 | 2026-09-03 18:36:37 | 49.06140 | 8.58603 | 307° | 0km/h | 29361m | 5.6m/s | -44.6°C | 0.4% | 13.8hPa | 2.5V | 00:00:00 | 00:00:00 | 00:00:00 | |
| DM0DOS-11 | 2026-09-03 18:36:36 | 49.06148 | 8.58607 | 227° | 15km/h | 29329m | 5m/s | -44.6°C | 2.5% | 13.9hPa | 2.5V | 03:12:18 | 02:06:34 | 00:00:00 | |
| BIOWL1-15 | 2026-09-03 18:36:35 | 49.06141 | 8.58602 | 135° | 4km/h | 29351m | 4.5m/s | -44.6°C | 0% | 13.9hPa | 2.6V | 03:13:04 | 02:06:38 | 00:00:00 | |
| DL1XH-15 | 2026-09-03 18:36:34 | 49.06152 | 8.58614 | 224° | 7km/h | 29319m | 4.8m/s | -44.7°C | 2.5% | 13.9hPa | 2.6V | 03:12:20 | 02:06:32 | 00:00:00 | |
| DK5PH-5 | 2026-09-03 18:36:34 | 49.06142 | 8.58601 | 172° | 11km/h | 29346m | 5.2m/s | -44.6°C | 2.5% | 13.8hPa | 2.5V | 03:12:00 | 02:06:37 | 00:00:00 | |
| DL1XH1-15 | 2026-09-03 18:36:33 | 49.06153 | 8.58615 | 181° | 4km/h | 29314m | 6.3m/s | -44.7°C | 2.5% | 13.9hPa | 2.5V | 03:12:21 | 02:06:31 | 00:00:00 | |
| DF8AY | 2026-09-03 18:36:33 | 49.06143 | 8.58601 | 206° | 7km/h | 29340m | 6.2m/s | -44.7°C | 0% | 0hPa | 2.5V | 03:13:04 | 02:06:36 | 00:00:00 | |
| DK7TD | 2026-09-03 18:36:31 | 49.06148 | 8.58607 | 228° | 15km/h | 29329m | 5m/s | -44.7°C | 0% | 13.9hPa | 2.5V | 03:13:04 | 02:06:34 | 00:00:00 | |
| LOEBOVI | 2026-09-03 18:36:30 | 49.06148 | 8.58607 | 229° | 15km/h | 29329m | 5.0m/s | 0°C | 0% | 0hPa | 2.6V | 00:00:00 | 00:00:00 | 00:00:00 | |
| IW2NTF | 2026-09-03 18:36:29 | 49.06150 | 8.58602 | 59° | 11km/h | 29292m | 5.4m/s | -44.9°C | 2.6% | 14hPa | 2.6V | 03:12:25 | 02:06:27 | 00:00:00 | |
| DL1XH-west | 2026-09-03 18:36:28 | 49.06153 | 8.58615 | 181° | 4km/h | 29314m | 6.3m/s | -44.7°C | 0% | 13.9hPa | 2.5V | 03:13:04 | 02:06:31 | 00:00:00 | |
| DJ2DS-15 | 2026-09-03 18:36:28 | 49.06153 | 8.58615 | 182° | 11km/h | 29314m | 6.2m/s | -44.7°C | 2.5% | 13.9hPa | 2.5V | 00:00:00 | 02:06:31 | 00:00:00 | |
| DM0DOS-11 | 2026-09-03 18:36:26 | 49.06149 | 8.58598 | 185° | 4km/h | 29276m | 4.6m/s | -44.9°C | 2.5% | 14hPa | 2.5V | 03:12:28 | 02:06:24 | 00:00:00 | |
| HSKMA3-T | 2026-09-03 18:36:26 | 49.06153 | 8.58611 | 72° | 11km/h | 29302m | 5.2m/s | 0°C | 0% | 0hPa | 2.5V | 18:12:15 | 02:06:29 | 00:00:00 | |
| BIOWL1-15 | 2026-09-03 18:36:25 | 49.06152 | 8.58606 | 65° | 13km/h | 29297m | 4.4m/s | -44.9°C | 0% | 14hPa | 2.6V | 03:13:04 | 02:06:28 | 00:00:00 | |
| DL1XH-15 | 2026-09-03 18:36:24 | 49.06152 | 8.58597 | 157° | 11km/h | 29266m | 5.5m/s | -44.9°C | 2.5% | 14.1hPa | 2.6V | 03:12:30 | 02:06:22 | 00:00:00 | |
| BIOWL9-15 | 2026-09-03 18:36:24 | 49.06149 | 8.58599 | 52° | 5km/h | 29287m | 6.0m/s | 0°C | -1.0% | -1.0hPa | 2.5V | 00:00:00 | 00:00:00 | 00:00:00 | |
| DL1XH1-15 | 2026-09-03 18:36:23 | 49.06154 | 8.58594 | 140° | 15km/h | 29260m | 5.8m/s | -44.9°C | 2.5% | 14hPa | 2.5V | 03:12:31 | 02:06:21 | 00:00:00 | |
| DF8AY | 2026-09-03 18:36:23 | 49.06148 | 8.58598 | 58° | 2km/h | 29281m | 5.3m/s | -44.9°C | 0% | 0hPa | 2.5V | 03:13:04 | 02:06:25 | 00:00:00 | |
| DK7TD | 2026-09-03 18:36:21 | 49.06148 | 8.58598 | 186° | 4km/h | 29276m | 4.6m/s | -44.9°C | 0% | 14hPa | 2.5V | 03:13:04 | 02:06:24 | 00:00:00 | |
| DL1XH-west | 2026-09-03 18:36:17 | 49.06157 | 8.58590 | 126° | 16km/h | 29255m | 5.2m/s | -44.9°C | 0% | 14.1hPa | 2.5V | 03:13:04 | 02:06:20 | 00:00:00 | |
| DM0DOS-11 | 2026-09-03 18:36:16 | 49.06156 | 8.58563 | 340° | 4km/h | 29224m | 5.2m/s | -44.9°C | 2.5% | 14.1hPa | 2.6V | 03:12:38 | 02:06:14 | 00:00:00 | |
| BIOWL1-15 | 2026-09-03 18:36:14 | 49.06160 | 8.58571 | 79° | 15km/h | 29240m | 5.4m/s | -44.9°C | 0% | 14.1hPa | 2.6V | 03:13:04 | 02:06:17 | 00:00:00 | |
| DL1XH1-15 | 2026-09-03 18:36:13 | 49.06159 | 8.58568 | 187° | 15km/h | 29208m | 5.5m/s | -44.9°C | 2.6% | 14.1hPa | 2.5V | 03:12:41 | 02:06:11 | 00:00:00 | |
| DF8AY | 2026-09-03 18:36:10 | 49.06155 | 8.58565 | 252° | 4km/h | 29219m | 5m/s | -44.9°C | 0% | 0hPa | 2.6V | 03:13:04 | 02:06:13 | 00:00:00 | |
| HSKMA3-T | 2026-09-03 18:36:09 | 49.06157 | 8.58566 | 213° | 9km/h | 29214m | 5.5m/s | 0°C | 0% | 0hPa | 2.6V | 18:12:15 | 02:06:12 | 00:00:00 | |
| DL1XH-west | 2026-09-03 18:36:06 | 49.06168 | 8.58565 | 153° | 22km/h | 29197m | 4.9m/s | -44.8°C | 0% | 14.2hPa | 2.5V | 03:13:04 | 02:06:09 | 00:00:00 | |
| DO1YAY-16 | 2026-09-03 18:36:06 | 49.06173 | 8.58560 | 136° | 22km/h | 29193m | 4.6m/s | -44.8°C | 0.4% | 14.2hPa | 2.6V | 00:00:00 | 00:00:00 | 00:00:00 | |
| DB0ND-19 | 2026-09-03 18:36:05 | 49.06173 | 8.58560 | 136° | 22km/h | 29193m | 4.6m/s | -44.8°C | 0.4% | 14.2hPa | 2.6V | 00:00:00 | 00:00:00 | 00:00:00 | |
| DL1XH-15 | 2026-09-03 18:36:04 | 49.06170 | 8.58547 | 286° | 18km/h | 29162m | 5.9m/s | -44.8°C | 2.5% | 14.2hPa | 2.6V | 03:12:50 | 02:06:02 | 00:00:00 | |
| BIOWL1-15 | 2026-09-03 18:36:04 | 49.06176 | 8.58553 | 119° | 20km/h | 29188m | 4.7m/s | -44.8°C | 0% | 14.2hPa | 2.6V | 03:13:04 | 02:06:07 | 00:00:00 | |
| DK7TD | 2026-09-03 18:35:59 | 49.06170 | 8.58547 | 286° | 18km/h | 29162m | 5.9m/s | -44.8°C | 0% | 14.2hPa | 2.6V | 03:13:04 | 02:06:02 | 00:00:00 | |
| HSKMA3-T | 2026-09-03 18:35:57 | 49.06172 | 8.58563 | 240° | 26km/h | 29151m | 5.2m/s | 0°C | 0% | 0hPa | 2.5V | 18:12:15 | 02:06:00 | 00:00:00 | |
| DL1XH-west | 2026-09-03 18:35:56 | 49.06177 | 8.58571 | 221° | 27km/h | 29146m | 5.1m/s | -44.8°C | 0% | 14.3hPa | 2.5V | 03:13:04 | 02:05:59 | 00:00:00 | |
| BIOWL1-15 | 2026-09-03 18:35:55 | 49.06196 | 8.58579 | 170° | 26km/h | 29130m | 5.2m/s | -44.8°C | 0% | 14.3hPa | 2.5V | 03:13:04 | 02:05:56 | 00:00:00 | |
| DF7PN | 2026-09-03 18:35:55 | 49.06189 | 8.58579 | 185° | 27km/h | 29136m | 5.3m/s | -44.8°C | 0.4% | 14.3hPa | 2.6V | 00:00:00 | 00:00:00 | 00:00:00 | |
| DL1XH-15 | 2026-09-03 18:35:54 | 49.06209 | 8.58570 | 160° | 2km/h | 29107m | 5.5m/s | -44.8°C | 0% | 14.4hPa | 2.6V | 03:13:00 | 02:05:52 | 00:00:00 | |
| DK7TD | 2026-09-03 18:35:49 | 49.06209 | 8.58570 | 160° | 2km/h | 29107m | 5.5m/s | -44.8°C | 0% | 14.4hPa | 2.6V | 03:13:04 | 02:05:52 | 00:00:00 | |
| DJ2DS-15 | 2026-09-03 18:35:48 | 49.06210 | 8.58570 | 257° | 11km/h | 29103m | 4.9m/s | -44.7°C | 2.6% | 14.3hPa | 2.6V | 00:00:00 | 02:05:51 | 00:00:00 | |
| DM0DOS-11 | 2026-09-03 18:35:46 | 49.06228 | 8.58589 | 196° | 15km/h | 29066m | 5.7m/s | -44.7°C | 2.5% | 14.4hPa | 2.6V | 03:13:08 | 02:05:44 | 00:00:00 | |
| HSKMA3-T | 2026-09-03 18:35:46 | 49.06211 | 8.58576 | 238° | 11km/h | 29092m | 5.5m/s | 0°C | 0% | 0hPa | 2.5V | 18:12:15 | 02:05:49 | 00:00:00 | |
| DL1XH-west | 2026-09-03 18:35:45 | 49.06213 | 8.58579 | 222° | 15km/h | 29086m | 5.5m/s | -44.7°C | 0% | 14.4hPa | 2.6V | 03:13:04 | 02:05:48 | 00:00:00 | |
| DL1XH-15 | 2026-09-03 18:35:44 | 49.06233 | 8.58591 | 194° | 7km/h | 29054m | 5.6m/s | -44.7°C | 0% | 14.4hPa | 2.6V | 03:13:10 | 02:05:42 | 00:00:00 | |
| DF8AY | 2026-09-03 18:35:44 | 49.06216 | 8.58583 | 209° | 16km/h | 29081m | 5.2m/s | -44.7°C | 0% | 0hPa | 2.6V | 03:13:55 | 02:05:47 | 00:00:00 | |
| BIOWL1-15 | 2026-09-03 18:35:44 | 49.06224 | 8.58587 | 197° | 16km/h | 29071m | 4.9m/s | -44.7°C | 0% | 14.4hPa | 2.5V | 03:13:55 | 02:05:45 | 00:00:00 | |
| DL1XH1-15 | 2026-09-03 18:35:43 | 49.06235 | 8.58592 | 186° | 5km/h | 29049m | 5.1m/s | -44.7°C | 2.5% | 14.5hPa | 2.5V | 03:13:11 | 02:05:41 | 00:00:00 | |
| DK7TD | 2026-09-03 18:35:39 | 49.06233 | 8.58591 | 195° | 7km/h | 29054m | 5.6m/s | -44.7°C | 0% | 14.5hPa | 2.6V | 03:13:55 | 02:05:42 | 00:00:00 | |
| HSKMA3-T | 2026-09-03 18:35:35 | 49.06241 | 8.58591 | 171° | 11km/h | 29032m | 5.3m/s | 0°C | 0% | 0hPa | 2.6V | 18:12:15 | 02:05:38 | 00:00:00 | |
| DL1XH-west | 2026-09-03 18:35:34 | 49.06244 | 8.58590 | 173° | 11km/h | 29027m | 4.8m/s | -44.7°C | 0% | 14.5hPa | 2.6V | 03:13:55 | 02:05:37 | 00:00:00 | |
| DB0NH | 2026-09-03 18:35:34 | 49.06244 | 8.58590 | 173° | 9km/h | 29027m | 4.7m/s | -44.7°C | 2.5% | 14.5hPa | 2.5V | 03:13:00 | 02:05:37 | 00:00:00 | |
| DL1XH1-15 | 2026-09-03 18:35:33 | 49.06251 | 8.58588 | 138° | 7km/h | 28993m | 6.4m/s | -44.8°C | 2.5% | 14.6hPa | 2.5V | 03:13:21 | 02:05:31 | 00:00:00 | |
| BIOWL1-15 | 2026-09-03 18:35:33 | 49.06249 | 8.58590 | 193° | 2km/h | 29009m | 5.7m/s | -44.8°C | 0% | 14.6hPa | 2.6V | 03:13:55 | 02:05:34 | 00:00:00 | |
| DF8AY | 2026-09-03 18:35:32 | 49.06248 | 8.58590 | 183° | 4km/h | 29015m | 6.5m/s | -44.8°C | 0% | 0hPa | 2.5V | 03:13:55 | 02:05:35 | 00:00:00 | |
| DK7TD | 2026-09-03 18:35:28 | 49.06251 | 8.58588 | 138° | 7km/h | 28993m | 6.4m/s | -44.8°C | 0% | 14.6hPa | 2.5V | 03:13:55 | 02:05:31 | 00:00:00 | |
| BIOWL1-15 | 2026-09-03 18:35:24 | 49.06260 | 8.58582 | 320° | 5km/h | 28949m | 5.4m/s | -44.8°C | 0% | 14.7hPa | 2.6V | 03:13:55 | 02:05:23 | 00:00:00 | |
| DL1XH-west | 2026-09-03 18:35:24 | 49.06260 | 8.58579 | 159° | 7km/h | 28972m | 5.5m/s | -44.8°C | 0% | 14.7hPa | 2.6V | 03:13:55 | 02:05:27 | 00:00:00 | |
| DF8AY | 2026-09-03 18:35:21 | 49.06261 | 8.58580 | 313° | 5km/h | 28954m | 5m/s | -44.8°C | 0% | 0hPa | 2.6V | 03:13:55 | 02:05:24 | 00:00:00 | |
| DJ2KF-10 | 2026-09-03 18:35:21 | 49.06261 | 8.58580 | 314° | 7km/h | 28954m | 5.0m/s | -44.7°C | 2.5% | 14.7hPa | 2.6V | 03:13:00 | 02:05:24 | 00:00:00 | |
| DB0UT-7 | 2026-09-03 18:35:20 | 49.06260 | 8.58582 | 320° | 9km/h | 28949m | 5.4m/s | -44.7°C | 2.5% | 14.7hPa | 2.6V | 00:00:00 | 00:00:00 | 00:00:00 | |
| DN1GJH-1 | 2026-09-03 18:35:19 | 49.06260 | 8.58582 | 321° | 5km/h | 28949m | 5.4m/s | -44.8°C | 0.4% | 14.7hPa | 2.5V | 03:13:00 | 00:00:00 | 00:00:00 | |
| DD1CC8 | 2026-09-03 18:35:18 | 49.06259 | 8.58583 | 49° | 0km/h | 28937m | 5.6m/s | -44.8°C | 0.4% | 14.7hPa | 2.5V | 00:00:00 | 00:00:00 | 00:00:00 | |
| DM0DOS-11 | 2026-09-03 18:35:16 | 49.06254 | 8.58566 | 119° | 5km/h | 28898m | 6.4m/s | -44.8°C | 2.6% | 14.8hPa | 2.5V | 03:13:38 | 02:05:14 | 00:00:00 | |
| DK7TD | 2026-09-03 18:35:15 | 49.06257 | 8.58577 | 58° | 9km/h | 28919m | 6.4m/s | -44.9°C | 0% | 14.8hPa | 2.6V | 03:13:55 | 02:05:18 | 00:00:00 | |
| DL1XH-15 | 2026-09-03 18:35:13 | 49.06258 | 8.58566 | 235° | 9km/h | 28881m | 4.8m/s | -44.8°C | 0% | 14.9hPa | 2.5V | 03:13:41 | 02:05:11 | 00:00:00 | |
| DL1XH-west | 2026-09-03 18:35:13 | 49.06254 | 8.58571 | 61° | 9km/h | 28908m | 4.7m/s | -44.9°C | 0% | 14.8hPa | 2.5V | 03:13:55 | 02:05:16 | 00:00:00 | |
| DF8AY | 2026-09-03 18:35:10 | 49.06255 | 8.58565 | 156° | 7km/h | 28892m | 5.9m/s | -44.8°C | 0% | 0hPa | 2.6V | 03:13:55 | 02:05:13 | 00:00:00 | |
| DB0UT-9 | 2026-09-03 18:35:09 | 49.06255 | 8.58564 | 157° | 7km/h | 28892m | 5.9m/s | -44.8°C | 0.4% | 14.8hPa | 2.5V | 03:13:00 | 00:00:00 | 00:00:00 | |
| DJ2DS-15 | 2026-09-03 18:35:08 | 49.06258 | 8.58566 | 236° | 11km/h | 28882m | 4.8m/s | -44.7°C | 2.5% | 14.8hPa | 2.5V | 00:00:00 | 02:05:11 | 00:00:00 | |
| DM7RM-13 | 2026-09-03 18:35:07 | 49.06259 | 8.58569 | 266° | 11km/h | 28876m | 6.4m/s | -44.8°C | 0.5% | 14.9hPa | 2.5V | 03:13:00 | 00:00:00 | 00:00:00 | |
| DM0DOS-11 | 2026-09-03 18:35:06 | 49.06253 | 8.58594 | 193° | 4km/h | 28843m | 5.8m/s | -44.7°C | 2.5% | 14.9hPa | 2.5V | 03:13:48 | 02:05:04 | 00:00:00 | |
| DK7TD | 2026-09-03 18:35:05 | 49.06257 | 8.58580 | 297° | 16km/h | 28864m | 5m/s | -44.8°C | 0% | 14.9hPa | 2.6V | 03:13:55 | 02:05:08 | 00:00:00 | |
| DO1YAY-16 | 2026-09-03 18:35:04 | 49.06253 | 8.58590 | 297° | 11km/h | 28855m | 5.0m/s | -44.8°C | 0.4% | 14.9hPa | 2.5V | 00:00:00 | 00:00:00 | 00:00:00 | |
| DL1XH1-15 | 2026-09-03 18:35:03 | 49.06259 | 8.58591 | 161° | 7km/h | 28828m | 5.2m/s | -44.7°C | 2.5% | 15hPa | 2.5V | 03:13:51 | 02:05:01 | 00:00:00 | |
| DL1XH-west | 2026-09-03 18:35:02 | 49.06252 | 8.58593 | 279° | 5km/h | 28849m | 6.3m/s | -44.8°C | 0% | 14.9hPa | 2.5V | 03:13:55 | 02:05:05 | 00:00:00 | |
| BIOWL1-15 | 2026-09-03 18:34:59 | 49.06257 | 8.58593 | 159° | 9km/h | 28833m | 4.6m/s | -44.7°C | 0% | 15hPa | 2.6V | 03:13:55 | 02:05:02 | 00:00:00 | |
| DF8AY | 2026-09-03 18:34:58 | 49.06259 | 8.58591 | 161° | 7km/h | 28828m | 5.2m/s | 0°C | 0% | 0hPa | 2.5V | 03:13:55 | 02:05:01 | 00:00:00 | |
| DK7TD | 2026-09-03 18:34:54 | 49.06260 | 8.58596 | 293° | 9km/h | 28805m | 5m/s | -44.8°C | 0% | 15hPa | 2.6V | 03:13:55 | 02:04:57 | 00:00:00 | |
| DL1XH1-15 | 2026-09-03 18:34:53 | 49.06263 | 8.58625 | 251° | 18km/h | 28773m | 5.8m/s | -44.8°C | 2.5% | 15.1hPa | 2.5V | 03:14:01 | 02:04:51 | 00:00:00 | |
| DL1XH-west | 2026-09-03 18:34:51 | 49.06259 | 8.58608 | 255° | 11km/h | 28789m | 5.4m/s | -44.9°C | 0% | 15.1hPa | 2.6V | 03:14:46 | 02:04:54 | 00:00:00 | |
| BIOWL1-15 | 2026-09-03 18:34:48 | 49.06263 | 8.58625 | 252° | 18km/h | 28773m | 5.8m/s | -44.8°C | 0% | 15.1hPa | 2.5V | 03:14:46 | 02:04:51 | 00:00:00 | |
| DJ2DS-15 | 2026-09-03 18:34:48 | 49.06263 | 8.58625 | 252° | 15km/h | 28773m | 5.7m/s | -44.8°C | 2.5% | 15.1hPa | 2.6V | 00:00:00 | 02:04:51 | 00:00:00 | |
| DO8TBO-1 | 2026-09-03 18:34:47 | 49.06264 | 8.58632 | 258° | 18km/h | 28767m | 6.5m/s | -44.8°C | 2.5% | 15.1hPa | 2.6V | 03:14:00 | 02:04:50 | 00:00:00 | |
| DL4BBY-15 | 2026-09-03 18:34:46 | 49.06265 | 8.58640 | 261° | 16km/h | 28761m | 5.3m/s | -45.2°C | 0% | 0hPa | 2.6V | 00:00:00 | 00:00:00 | 00:00:00 | |
| DM0DOS-11 | 2026-09-03 18:34:44 | 49.06274 | 8.58661 | 240° | 5km/h | 28723m | 5.8m/s | -45°C | 2.6% | 15.2hPa | 2.6V | 03:14:10 | 02:04:42 | 00:00:00 | |
| DK7TD | 2026-09-03 18:34:44 | 49.06267 | 8.58654 | 252° | 15km/h | 28752m | 5m/s | -44.9°C | 0% | 15.2hPa | 2.6V | 03:14:46 | 02:04:47 | 00:00:00 | |
| DL1XH-west | 2026-09-03 18:34:41 | 49.06271 | 8.58660 | 178° | 5km/h | 28734m | 5.1m/s | -45°C | 0% | 15.2hPa | 2.6V | 03:14:46 | 02:04:44 | 00:00:00 | |
| BIOWL1-15 | 2026-09-03 18:34:39 | 49.06274 | 8.58670 | 267° | 18km/h | 28712m | 5.1m/s | -45.1°C | 0% | 15.3hPa | 2.5V | 03:14:46 | 02:04:40 | 00:00:00 | |
| DN1GJH-1 | 2026-09-03 18:34:37 | 49.06274 | 8.58664 | 264° | 11km/h | 28718m | 6.0m/s | -45.1°C | 0.5% | 15.2hPa | 2.6V | 03:14:00 | 00:00:00 | 00:00:00 | |
| DH7VM-15 | 2026-09-03 18:34:36 | 49.06274 | 8.58670 | 268° | 18km/h | 28712m | 5.1m/s | -45.1°C | 0.4% | 15.3hPa | 2.6V | 00:00:00 | 00:00:00 | 00:00:00 | |
| DL0LBS | 2026-09-03 18:34:35 | 49.06275 | 8.58677 | 265° | 20km/h | 28707m | 4.6m/s | -45.1°C | 0.4% | 15.3hPa | 2.6V | 03:14:00 | 00:00:00 | 00:00:00 | |
| DM0DOS-11 | 2026-09-03 18:34:34 | 49.06286 | 8.58718 | 253° | 11km/h | 28669m | 6.2m/s | -45.2°C | 2.6% | 15.3hPa | 2.6V | 03:14:20 | 02:04:32 | 00:00:00 | |
| DK5PH-5 | 2026-09-03 18:34:34 | 49.06277 | 8.58693 | 252° | 16km/h | 28697m | 5.9m/s | -45.1°C | 2.6% | 15.2hPa | 2.6V | 03:14:00 | 02:04:37 | 00:00:00 | |
| DL1XH1-15 | 2026-09-03 18:34:33 | 49.06287 | 8.58722 | 265° | 11km/h | 28664m | 5.5m/s | -45.2°C | 2.6% | 15.3hPa | 2.5V | 03:14:21 | 02:04:31 | 00:00:00 | |
| DK7TD | 2026-09-03 18:34:33 | 49.06279 | 8.58700 | 241° | 18km/h | 28691m | 5.6m/s | -45.1°C | 0% | 15.3hPa | 2.5V | 03:14:46 | 02:04:36 | 00:00:00 | |
| DL1XH-west | 2026-09-03 18:34:30 | 49.06285 | 8.58714 | 238° | 11km/h | 28675m | 5.1m/s | -45.2°C | 0% | 15.3hPa | 2.6V | 03:14:46 | 02:04:33 | 00:00:00 | |
| BIOWL1-15 | 2026-09-03 18:34:26 | 49.06287 | 8.58731 | 259° | 11km/h | 28654m | 4.6m/s | -45.2°C | 0% | 15.4hPa | 2.5V | 03:14:46 | 02:04:29 | 00:00:00 | |
| DM0DOS-11 | 2026-09-03 18:34:24 | 49.06306 | 8.58765 | 240° | 26km/h | 28616m | 4.9m/s | -45.3°C | 2.6% | 15.5hPa | 2.5V | 03:14:30 | 02:04:22 | 00:00:00 | |
| DL1XH1-15 | 2026-09-03 18:34:23 | 49.06310 | 8.58773 | 240° | 24km/h | 28611m | 4.3m/s | -45.3°C | 2.6% | 15.5hPa | 2.6V | 03:14:31 | 02:04:21 | 00:00:00 | |
| DK7TD | 2026-09-03 18:34:22 | 49.06296 | 8.58745 | 219° | 18km/h | 28632m | 4.8m/s | -45.3°C | 0% | 15.4hPa | 2.6V | 03:14:46 | 02:04:25 | 00:00:00 | |
| DL1XH-west | 2026-09-03 18:34:20 | 49.06303 | 8.58757 | 235° | 24km/h | 28621m | 6.1m/s | -45.3°C | 0% | 15.4hPa | 2.5V | 03:14:46 | 02:04:23 | 00:00:00 | |
| BIOWL1-15 | 2026-09-03 18:34:15 | 49.06319 | 8.58792 | 226° | 15km/h | 28594m | 5.3m/s | -45.3°C | 0% | 15.5hPa | 2.5V | 03:14:46 | 02:04:18 | 00:00:00 | |
| DL1XH1-15 | 2026-09-03 18:34:13 | 49.06331 | 8.58820 | 208° | 16km/h | 28557m | 6.1m/s | -45.3°C | 2.5% | 15.6hPa | 2.6V | 03:14:41 | 02:04:11 | 00:00:00 | |
| DK7TD | 2026-09-03 18:34:11 | 49.06325 | 8.58808 | 253° | 13km/h | 28573m | 5m/s | -45.3°C | 0% | 15.6hPa | 2.6V | 03:14:46 | 02:04:14 | 00:00:00 | |
| DL1XH-west | 2026-09-03 18:34:09 | 49.06328 | 8.58816 | 224° | 13km/h | 28563m | 5.3m/s | -45.3°C | 0% | 15.6hPa | 2.5V | 03:14:46 | 02:04:12 | 00:00:00 | |
| DJ2DS-15 | 2026-09-03 18:34:08 | 49.06331 | 8.58820 | 209° | 20km/h | 28558m | 6.1m/s | -45.2°C | 2.5% | 15.6hPa | 2.6V | 03:14:00 | 02:04:11 | 00:00:00 | |
| DB0UT-9 | 2026-09-03 18:34:07 | 49.06331 | 8.58820 | 209° | 16km/h | 28558m | 6.1m/s | -45.3°C | 0.4% | 15.6hPa | 2.5V | 03:14:00 | 00:00:00 | 00:00:00 | |
| DM7RM-13 | 2026-09-03 18:34:06 | 49.06335 | 8.58823 | 201° | 20km/h | 28552m | 5.4m/s | -45.3°C | 0.4% | 15.6hPa | 2.5V | 03:14:00 | 00:00:00 | 00:00:00 | |
| SFWM-10 | 2026-09-03 18:34:05 | 49.06341 | 8.58825 | 203° | 24km/h | 28547m | 4.6m/s | -45.3°C | 0.4% | 15.6hPa | 2.5V | 00:00:00 | 00:00:00 | 00:00:00 | |
| DM0DOS-11 | 2026-09-03 18:34:04 | 49.06375 | 8.58864 | 200° | 16km/h | 28511m | 5.9m/s | -45.4°C | 2.6% | 15.7hPa | 2.5V | 03:14:50 | 02:04:02 | 00:00:00 | |
| BIOWL1-15 | 2026-09-03 18:34:04 | 49.06352 | 8.58835 | 215° | 27km/h | 28536m | 6.1m/s | -45.3°C | 0% | 15.7hPa | 2.5V | 03:14:46 | 02:04:07 | 00:00:00 | |
| DK7TD | 2026-09-03 18:34:00 | 49.06371 | 8.58861 | 216° | 20km/h | 28516m | 5.5m/s | -45.4°C | 0% | 15.7hPa | 2.5V | 03:15:37 | 02:04:03 | 00:00:00 | |
| DL1XH-west | 2026-09-03 18:33:59 | 49.06375 | 8.58864 | 200° | 16km/h | 28511m | 5.9m/s | -45.4°C | 0% | 15.7hPa | 2.5V | 03:15:37 | 02:04:02 | 00:00:00 | |
| DL1ZP-14 | 2026-09-03 18:33:59 | 49.06379 | 8.58866 | 184° | 15km/h | 28506m | 5.0m/s | -45.4°C | 0.4% | 15.8hPa | 2.6V | 00:00:00 | 00:00:00 | 00:00:00 | |
| KANTATE | 2026-09-03 18:33:58 | 49.06375 | 8.58864 | 201° | 16km/h | 28511m | 5.9m/s | -45.4°C | 0.4% | 15.7hPa | 2.5V | 03:15:00 | 00:00:00 | 00:00:00 | |
| DB0NH | 2026-09-03 18:33:57 | 49.06382 | 8.58866 | 178° | 15km/h | 28501m | 4.2m/s | -45.3°C | 2.6% | 15.7hPa | 2.5V | 00:00:00 | 02:04:00 | 00:00:00 | |
| DN1GJH-1 | 2026-09-03 18:33:56 | 49.06383 | 8.58866 | 179° | 15km/h | 28501m | 4.2m/s | -45.4°C | 0.5% | 15.7hPa | 2.5V | 03:15:00 | 00:00:00 | 00:00:00 | |
| DL0LBS | 2026-09-03 18:33:55 | 49.06386 | 8.58866 | 185° | 13km/h | 28497m | 4.7m/s | -45.4°C | 0.4% | 15.8hPa | 2.5V | 03:15:00 | 00:00:00 | 00:00:00 | |
| DM0DOS-11 | 2026-09-03 18:33:54 | 49.06413 | 8.58890 | 189° | 24km/h | 28459m | 5.7m/s | -45.6°C | 2.6% | 15.8hPa | 2.5V | 03:15:00 | 02:03:52 | 00:00:00 | |
| BIOWL1-15 | 2026-09-03 18:33:53 | 49.06395 | 8.58874 | 226° | 18km/h | 28480m | 4.8m/s | -45.4°C | 0% | 15.8hPa | 2.6V | 03:15:37 | 02:03:56 | 00:00:00 | |
| DK7TD | 2026-09-03 18:33:50 | 49.06407 | 8.58888 | 202° | 22km/h | 28465m | 5.9m/s | -45.5°C | 0% | 15.8hPa | 2.5V | 03:15:37 | 02:03:53 | 00:00:00 | |
| DL1XH-west | 2026-09-03 18:33:49 | 49.06413 | 8.58890 | 189° | 24km/h | 28459m | 5.7m/s | -45.6°C | 0% | 15.9hPa | 2.5V | 03:15:37 | 02:03:52 | 00:00:00 | |
| BIOWL9-15 | 2026-09-03 18:33:49 | 49.06419 | 8.58891 | 180° | 24km/h | 28454m | 5.0m/s | -45.6°C | 0.4% | 15.9hPa | 2.5V | 00:00:00 | 00:00:00 | 00:00:00 | |
| DL6DJ-15 | 2026-09-03 18:33:47 | 49.06435 | 8.58891 | 185° | 16km/h | 28439m | 5.8m/s | -45.7°C | 0.5% | 15.9hPa | 2.5V | 00:00:00 | 00:00:00 | 00:00:00 | |
| DD1CC8 | 2026-09-03 18:33:45 | 49.06435 | 8.58891 | 185° | 16km/h | 28439m | 5.8m/s | -45.7°C | 0.5% | 15.9hPa | 2.5V | 00:00:00 | 00:00:00 | 00:00:00 | |
| DM0DOS-11 | 2026-09-03 18:33:44 | 49.06450 | 8.58890 | 165° | 11km/h | 28407m | 4.9m/s | -46°C | 2.7% | 16hPa | 2.5V | 03:15:10 | 02:03:42 | 00:00:00 | |
| BIOWL1-15 | 2026-09-03 18:33:44 | 49.06443 | 8.58893 | 181° | 7km/h | 28423m | 5.1m/s | -45.8°C | 0% | 15.9hPa | 2.6V | 03:15:37 | 02:03:45 | 00:00:00 | |
| DL1XH1-15 | 2026-09-03 18:33:43 | 49.06453 | 8.58890 | 177° | 9km/h | 28402m | 5.5m/s | -46.1°C | 2.7% | 16hPa | 2.6V | 03:15:11 | 02:03:41 | 00:00:00 | |
| DL1XH-west | 2026-09-03 18:33:39 | 49.06450 | 8.58890 | 166° | 11km/h | 28407m | 4.9m/s | -46°C | 0% | 16hPa | 2.5V | 03:15:37 | 02:03:42 | 00:00:00 | |
| DK7TD | 2026-09-03 18:33:37 | 49.06455 | 8.58890 | 195° | 9km/h | 28396m | 5.9m/s | -46.1°C | 0% | 16hPa | 2.6V | 03:15:37 | 02:03:40 | 00:00:00 | |
| DN1GJH-1 | 2026-09-03 18:33:36 | 49.06455 | 8.58890 | 196° | 9km/h | 28396m | 5.9m/s | -46.1°C | 0.5% | 16.0hPa | 2.5V | 03:15:00 | 00:00:00 | 00:00:00 | |
| DL0LBS | 2026-09-03 18:33:35 | 49.06457 | 8.58891 | 206° | 9km/h | 28391m | 4.6m/s | -46.2°C | 0.5% | 16.0hPa | 2.5V | 03:15:00 | 00:00:00 | 00:00:00 | |
| DM0DOS-11 | 2026-09-03 18:33:34 | 49.06480 | 8.58882 | 153° | 13km/h | 28356m | 5.9m/s | -46.1°C | 2.7% | 16.1hPa | 2.5V | 03:15:20 | 02:03:32 | 00:00:00 | |
| BIOWL1-15 | 2026-09-03 18:33:32 | 49.06469 | 8.58891 | 156° | 16km/h | 28371m | 5.6m/s | -46.1°C | 0% | 16.1hPa | 2.6V | 03:15:37 | 02:03:35 | 00:00:00 | |
| DO3MHA-11 | 2026-09-03 18:33:32 | 49.06469 | 8.58891 | 156° | 11km/h | 28371m | 5.5m/s | -46.1°C | 2.7% | 16.0hPa | 2.6V | 00:00:00 | 02:03:35 | 00:00:00 | |
| DL8DAS-15 | 2026-09-03 18:33:31 | 49.06469 | 8.58891 | 157° | 16km/h | 28371m | 5.6m/s | -46.1°C | 0.5% | 16.1hPa | 2.6V | 03:15:00 | 00:00:00 | 00:00:00 | |
| DL1XH-15 | 2026-09-03 18:33:30 | 49.06487 | 8.58879 | 158° | 7km/h | 28336m | 5.8m/s | -46.2°C | 0% | 0hPa | 2.6V | 03:15:24 | 02:03:28 | 00:00:00 | |
| DL1XH-west | 2026-09-03 18:33:28 | 49.06482 | 8.58881 | 162° | 7km/h | 28350m | 5.2m/s | -46.2°C | 0% | 16.1hPa | 2.6V | 03:15:37 | 02:03:31 | 00:00:00 | |
| DK7TD | 2026-09-03 18:33:26 | 49.06485 | 8.58879 | 165° | 5km/h | 28341m | 4.6m/s | -46.2°C | 0% | 16.1hPa | 2.6V | 03:15:37 | 02:03:29 | 00:00:00 | |
| NBG1-10 | 2026-09-03 18:33:26 | 49.06485 | 8.58879 | 165° | 9km/h | 28341m | 4.5m/s | -46.2°C | 2.7% | 16.1hPa | 2.6V | 00:00:00 | 02:03:29 | 00:00:00 | |
| DM7RM-13 | 2026-09-03 18:33:25 | 49.06485 | 8.58879 | 166° | 5km/h | 28341m | 4.6m/s | -46.2°C | 0.5% | 16.1hPa | 2.6V | 03:15:00 | 00:00:00 | 00:00:00 | |
| DM0DOS-11 | 2026-09-03 18:33:24 | 49.06494 | 8.58883 | 263° | 9km/h | 28304m | 4.8m/s | -46.2°C | 2.8% | 16.2hPa | 2.6V | 03:15:30 | 02:03:22 | 00:00:00 | |
| BIOWL1-15 | 2026-09-03 18:33:21 | 49.06493 | 8.58877 | 224° | 5km/h | 28315m | 5.8m/s | -46.2°C | 0% | 16.2hPa | 2.5V | 03:15:37 | 02:03:24 | 00:00:00 | |
| DL1XH-west | 2026-09-03 18:33:18 | 49.06494 | 8.58886 | 256° | 9km/h | 28299m | 4.3m/s | -46.2°C | 0% | 16.2hPa | 2.6V | 03:15:37 | 02:03:21 | 00:00:00 | |
| DK7TD | 2026-09-03 18:33:16 | 49.06497 | 8.58890 | 190° | 7km/h | 28289m | 6m/s | -46.3°C | 0% | 16.3hPa | 2.5V | 03:15:37 | 02:03:19 | 00:00:00 | |
| DL6DJ-15 | 2026-09-03 18:33:16 | 49.06499 | 8.58890 | 164° | 9km/h | 28284m | 5.2m/s | -46.3°C | 0.5% | 16.3hPa | 2.5V | 00:00:00 | 00:00:00 | 00:00:00 | |
| DL0LBS | 2026-09-03 18:33:15 | 49.06499 | 8.58890 | 165° | 11km/h | 28284m | 5.2m/s | -46.3°C | 0.5% | 16.3hPa | 2.5V | 03:15:00 | 00:00:00 | 00:00:00 | |
| DM0DOS-11 | 2026-09-03 18:33:12 | 49.06516 | 8.58900 | 206° | 11km/h | 28244m | 5.5m/s | -46.2°C | 2.7% | 16.4hPa | 2.5V | 03:15:42 | 02:03:10 | 00:00:00 | |
| DO3MHA-11 | 2026-09-03 18:33:12 | 49.06506 | 8.58888 | 193° | 9km/h | 28269m | 5.8m/s | -46.2°C | 2.7% | 16.3hPa | 2.5V | 03:15:00 | 02:03:15 | 00:00:00 | |
| DL1XH1-15 | 2026-09-03 18:33:11 | 49.06518 | 8.58902 | 195° | 11km/h | 28239m | 4.7m/s | -46.2°C | 2.7% | 16.4hPa | 2.5V | 03:15:43 | 02:03:09 | 00:00:00 | |
| BIOWL1-15 | 2026-09-03 18:33:10 | 49.06510 | 8.58892 | 231° | 11km/h | 28259m | 4.3m/s | -46.2°C | 0% | 16.3hPa | 2.6V | 03:16:28 | 02:03:13 | 00:00:00 | |
| DL1XH-west | 2026-09-03 18:33:07 | 49.06516 | 8.58900 | 206° | 11km/h | 28244m | 5.5m/s | -46.2°C | 0% | 16.4hPa | 2.5V | 03:16:28 | 02:03:10 | 00:00:00 | |
| DK7TD | 2026-09-03 18:33:06 | 49.06518 | 8.58901 | 196° | 11km/h | 28239m | 4.7m/s | -46.2°C | 0% | 16.4hPa | 2.5V | 03:18:10 | 02:03:09 | 00:00:00 | |
| DM7RM-13 | 2026-09-03 18:33:05 | 49.06518 | 8.58901 | 197° | 11km/h | 28239m | 4.7m/s | -46.2°C | 0.5% | 16.4hPa | 2.5V | 03:16:00 | 00:00:00 | 00:00:00 | |
| DM0DOS-11 | 2026-09-03 18:33:02 | 49.06526 | 8.58907 | 111° | 11km/h | 28195m | 4.9m/s | -46.1°C | 2.7% | 16.5hPa | 2.5V | 03:15:52 | 02:03:00 | 00:00:00 | |
| DO3MHA-11 | 2026-09-03 18:33:02 | 49.06525 | 8.58908 | 252° | 9km/h | 28220m | 5.3m/s | -46.1°C | 2.7% | 16.4hPa | 2.5V | 00:00:00 | 02:03:05 | 00:00:00 | |
| DL1XH1-15 | 2026-09-03 18:33:01 | 49.06528 | 8.58903 | 127° | 11km/h | 28190m | 4.4m/s | -46°C | 2.7% | 16.5hPa | 2.5V | 03:15:53 | 02:02:59 | 00:00:00 | |
| BIOWL1-15 | 2026-09-03 18:33:00 | 49.06525 | 8.58912 | 285° | 2km/h | 28211m | 4.1m/s | -46.1°C | 0% | 16.5hPa | 2.6V | 03:16:28 | 02:03:03 | 00:00:00 | |
| DL1XH-west | 2026-09-03 18:32:56 | 49.06528 | 8.58903 | 127° | 11km/h | 28190m | 4.4m/s | -46.1°C | 0% | 16.5hPa | 2.5V | 03:16:28 | 02:02:59 | 00:00:00 | |
| DK7TD | 2026-09-03 18:32:55 | 49.06530 | 8.58900 | 153° | 11km/h | 28185m | 5.1m/s | -46°C | 0% | 16.5hPa | 2.6V | 03:18:10 | 02:02:58 | 00:00:00 | |
| DO8TBO-1 | 2026-09-03 18:32:54 | 49.06532 | 8.58899 | 184° | 15km/h | 28180m | 5.7m/s | -46.0°C | 2.7% | 16.5hPa | 2.6V | 00:00:00 | 02:02:57 | 00:00:00 | |
| NBG1-10 | 2026-09-03 18:32:53 | 49.06536 | 8.58901 | 208° | 13km/h | 28175m | 4.9m/s | -46.0°C | 2.7% | 16.5hPa | 2.6V | 00:00:00 | 02:02:56 | 00:00:00 | |
| DM0DOS-11 | 2026-09-03 18:32:52 | 49.06550 | 8.58918 | 215° | 4km/h | 28146m | 4.2m/s | -46.1°C | 2.7% | 16.6hPa | 2.5V | 03:16:02 | 02:02:50 | 00:00:00 | |
| DO3MHA-11 | 2026-09-03 18:32:52 | 49.06539 | 8.58904 | 218° | 9km/h | 28171m | 4.2m/s | -46.0°C | 2.7% | 16.5hPa | 2.5V | 00:00:00 | 02:02:55 | 00:00:00 | |
| DL1XH1-15 | 2026-09-03 18:32:51 | 49.06551 | 8.58919 | 244° | 4km/h | 28141m | 4.3m/s | -46.1°C | 2.7% | 16.6hPa | 2.5V | 03:16:03 | 02:02:49 | 00:00:00 | |
| BIOWL1-15 | 2026-09-03 18:32:49 | 49.06548 | 8.58915 | 216° | 11km/h | 28155m | 5.3m/s | -46°C | 0% | 16.6hPa | 2.6V | 03:16:28 | 02:02:52 | 00:00:00 | |
| DL1XH-west | 2026-09-03 18:32:45 | 49.06551 | 8.58920 | 249° | 5km/h | 28137m | 5.2m/s | -46.1°C | 0% | 16.6hPa | 2.6V | 03:16:28 | 02:02:48 | 00:00:00 | |
| DB0UT-9 | 2026-09-03 18:32:44 | 49.06551 | 8.58920 | 250° | 5km/h | 28137m | 5.2m/s | -46.1°C | 0.5% | 16.7hPa | 2.5V | 03:16:00 | 00:00:00 | 00:00:00 | |
| DD1CC8 | 2026-09-03 18:32:43 | 49.06554 | 8.58927 | 236° | 11km/h | 28126m | 5.0m/s | -46.1°C | 0.5% | 16.7hPa | 2.5V | 00:00:00 | 00:00:00 | 00:00:00 | |
| DM0DOS-11 | 2026-09-03 18:32:42 | 49.06565 | 8.58941 | 258° | 4km/h | 28098m | 4.1m/s | -46.2°C | 2.7% | 16.7hPa | 2.5V | 03:16:12 | 02:02:40 | 00:00:00 | |
| DO3MHA-11 | 2026-09-03 18:32:42 | 49.06556 | 8.58931 | 229° | 13km/h | 28121m | 4.4m/s | -46.1°C | 2.7% | 16.6hPa | 2.5V | 00:00:00 | 02:02:45 | 00:00:00 | |
| DL1XH1-15 | 2026-09-03 18:32:41 | 49.06565 | 8.58943 | 272° | 9km/h | 28093m | 4.3m/s | -46.2°C | 2.7% | 16.8hPa | 2.6V | 03:16:13 | 02:02:39 | 00:00:00 | |
| BIOWL1-15 | 2026-09-03 18:32:41 | 49.06563 | 8.58939 | 200° | 7km/h | 28107m | 5m/s | -46.2°C | 0% | 16.7hPa | 2.7V | 03:16:28 | 02:02:42 | 00:00:00 | |
| DL1XH-west | 2026-09-03 18:32:34 | 49.06566 | 8.58954 | 255° | 22km/h | 28084m | 5.3m/s | -46.2°C | 0% | 16.8hPa | 2.6V | 03:16:28 | 02:02:37 | 00:00:00 | |
| KANTATE | 2026-09-03 18:32:33 | 49.06566 | 8.58954 | 256° | 20km/h | 28084m | 5.3m/s | -46.2°C | 0.4% | 16.8hPa | 2.6V | 00:00:00 | 00:00:00 | 00:00:00 | |
| DM0DOS-11 | 2026-09-03 18:32:32 | 49.06598 | 8.58993 | 180° | 11km/h | 28050m | 5.1m/s | -46.3°C | 2.7% | 16.8hPa | 2.6V | 03:16:22 | 02:02:30 | 00:00:00 | |
| DO3MHA-11 | 2026-09-03 18:32:32 | 49.06572 | 8.58972 | 233° | 18km/h | 28074m | 4.7m/s | -46.2°C | 2.7% | 16.7hPa | 2.6V | 03:16:00 | 02:02:35 | 00:00:00 | |
| DL1XH1-15 | 2026-09-03 18:32:31 | 49.06600 | 8.58994 | 190° | 5km/h | 28045m | 4.8m/s | -46.3°C | 2.7% | 16.9hPa | 2.6V | 03:16:23 | 02:02:29 | 00:00:00 | |
| BIOWL1-15 | 2026-09-03 18:32:28 | 49.06594 | 8.58993 | 187° | 18km/h | 28055m | 5m/s | -46.3°C | 0% | 16.9hPa | 2.7V | 03:16:28 | 02:02:31 | 00:00:00 | |
| DL1XH-west | 2026-09-03 18:32:24 | 49.06601 | 8.58998 | 263° | 11km/h | 28036m | 4.5m/s | -46.3°C | 0% | 16.9hPa | 2.5V | 03:16:28 | 02:02:27 | 00:00:00 | |
| DM0DOS-11 | 2026-09-03 18:32:22 | 49.06630 | 8.59034 | 191° | 24km/h | 28001m | 4.4m/s | -46.5°C | 2.8% | 17hPa | 2.6V | 03:16:32 | 02:02:20 | 00:00:00 | |
| DK7TD | 2026-09-03 18:32:22 | 49.06604 | 8.59009 | 242° | 20km/h | 28027m | 5.2m/s | -46.3°C | 0% | 16.9hPa | 2.6V | 03:18:10 | 02:02:25 | 00:00:00 | |
| DO3MHA-11 | 2026-09-03 18:32:22 | 49.06604 | 8.59009 | 242° | 20km/h | 28027m | 5.1m/s | -46.3°C | 2.7% | 16.9hPa | 2.6V | 00:00:00 | 02:02:25 | 00:00:00 | |
| DL1XH1-15 | 2026-09-03 18:32:21 | 49.06636 | 8.59035 | 189° | 20km/h | 27996m | 4.9m/s | -46.5°C | 2.7% | 17hPa | 2.6V | 03:16:33 | 02:02:19 | 00:00:00 | |
| BIOWL1-15 | 2026-09-03 18:32:18 | 49.06624 | 8.59031 | 197° | 27km/h | 28006m | 4.7m/s | -46.4°C | 0% | 17hPa | 2.6V | 03:17:19 | 02:02:21 | 00:00:00 | |
| DL1XH-west | 2026-09-03 18:32:14 | 49.06643 | 8.59038 | 204° | 11km/h | 27986m | 5.2m/s | -46.5°C | 0% | 17hPa | 2.5V | 03:17:19 | 02:02:17 | 00:00:00 | |
| KANTATE | 2026-09-03 18:32:13 | 49.06645 | 8.59040 | 214° | 9km/h | 27982m | 4.6m/s | -46.5°C | 0.5% | 17.1hPa | 2.6V | 00:00:00 | 00:00:00 | 00:00:00 | |
| DM0DOS-11 | 2026-09-03 18:32:12 | 49.06664 | 8.59048 | 191° | 15km/h | 27951m | 4.7m/s | -46.5°C | 2.8% | 17.1hPa | 2.6V | 03:16:42 | 02:02:10 | 00:00:00 | |
| DD1CC8 | 2026-09-03 18:32:12 | 49.06649 | 8.59044 | 204° | 9km/h | 27972m | 5.2m/s | -46.5°C | 0.5% | 17.1hPa | 2.6V | 00:00:00 | 00:00:00 | 00:00:00 | |
| DL1XH1-15 | 2026-09-03 18:32:11 | 49.06667 | 8.59050 | 199° | 13km/h | 27946m | 6m/s | -46.5°C | 2.8% | 17.2hPa | 2.6V | 03:16:43 | 02:02:09 | 00:00:00 | |
| DK7TD | 2026-09-03 18:32:09 | 49.06656 | 8.59046 | 190° | 15km/h | 27961m | 5.2m/s | -46.5°C | 0% | 17.1hPa | 2.5V | 03:18:10 | 02:02:12 | 00:00:00 | |
| BIOWL1-15 | 2026-09-03 18:32:07 | 49.06663 | 8.59048 | 192° | 15km/h | 27951m | 4.7m/s | -46.5°C | 0% | 17.1hPa | 2.6V | 03:17:19 | 02:02:10 | 00:00:00 | |
| DL1XH-west | 2026-09-03 18:32:03 | 49.06674 | 8.59056 | 215° | 13km/h | 27930m | 4.6m/s | -46.5°C | 0% | 17.2hPa | 2.6V | 03:17:19 | 02:02:06 | 00:00:00 | |
| DM0DOS-11 | 2026-09-03 18:32:02 | 49.06699 | 8.59064 | 176° | 13km/h | 27901m | 5.6m/s | -46.4°C | 2.7% | 17.2hPa | 2.6V | 03:16:52 | 02:02:00 | 00:00:00 | |
| DO3MHA-11 | 2026-09-03 18:32:02 | 49.06677 | 8.59059 | 207° | 13km/h | 27925m | 5.8m/s | -46.5°C | 2.7% | 17.2hPa | 2.7V | 00:00:00 | 02:02:05 | 00:00:00 | |
| DL1XH1-15 | 2026-09-03 18:32:01 | 49.06701 | 8.59064 | 180° | 5km/h | 27895m | 5.7m/s | -46.4°C | 2.7% | 17.3hPa | 2.7V | 03:16:53 | 02:01:59 | 00:00:00 | |
| DL1XH-15 | 2026-09-03 18:31:59 | 49.06703 | 8.59065 | 245° | 4km/h | 27885m | 4.2m/s | -46.3°C | 0% | 0hPa | 2.5V | 03:16:55 | 02:01:57 | 00:00:00 | |
| DK7TD | 2026-09-03 18:31:59 | 49.06690 | 8.59064 | 183° | 20km/h | 27910m | 3.9m/s | -46.5°C | 0% | 17.2hPa | 2.5V | 03:18:10 | 02:02:02 | 00:00:00 | |
| BIOWL1-15 | 2026-09-03 18:31:58 | 49.06701 | 8.59064 | 180° | 5km/h | 27895m | 5.7m/s | -46.4°C | 0% | 17.3hPa | 2.7V | 03:17:19 | 02:01:59 | 00:00:00 | |
| DL1XH-west | 2026-09-03 18:31:53 | 49.06703 | 8.59066 | 228° | 5km/h | 27880m | 5.2m/s | -46.3°C | 0% | 17.3hPa | 2.6V | 03:17:19 | 02:01:56 | 00:00:00 | |
| DM0DOS-11 | 2026-09-03 18:31:52 | 49.06722 | 8.59071 | 160° | 11km/h | 27849m | 5.6m/s | -46.4°C | 2.7% | 17.4hPa | 2.5V | 03:17:02 | 02:01:50 | 00:00:00 | |
| DO3MHA-11 | 2026-09-03 18:31:52 | 49.06705 | 8.59068 | 210° | 13km/h | 27875m | 5.7m/s | -46.2°C | 2.7% | 17.3hPa | 2.5V | 03:16:00 | 02:01:55 | 00:00:00 | |
| DL1XH1-15 | 2026-09-03 18:31:51 | 49.06725 | 8.59069 | 152° | 11km/h | 27843m | 4.8m/s | -46.4°C | 2.7% | 17.4hPa | 2.5V | 03:17:03 | 02:01:49 | 00:00:00 | |
| DK7TD | 2026-09-03 18:31:48 | 49.06719 | 8.59072 | 175° | 15km/h | 27854m | 6.1m/s | -46.3°C | 0% | 17.4hPa | 2.6V | 03:18:10 | 02:01:51 | 00:00:00 | |
| BIOWL1-15 | 2026-09-03 18:31:48 | 49.06725 | 8.59069 | 153° | 11km/h | 27843m | 4.8m/s | -46.4°C | 0% | 17.4hPa | 2.5V | 03:17:19 | 02:01:49 | 00:00:00 | |
| DL8DAS-14 | 2026-09-03 18:31:47 | 49.06722 | 8.59071 | 160° | 11km/h | 27849m | 5.6m/s | -46.4°C | 0.5% | 17.4hPa | 2.6V | 00:00:00 | 00:00:00 | 00:00:00 | |
| DF7PN | 2026-09-03 18:31:46 | 49.06725 | 8.59069 | 152° | 9km/h | 27843m | 4.8m/s | -46.4°C | 0.5% | 17.4hPa | 2.6V | 00:00:00 | 00:00:00 | 00:00:00 | |
| BIOWL9-15 | 2026-09-03 18:31:45 | 49.06730 | 8.59066 | 157° | 11km/h | 27833m | 6.0m/s | -46.6°C | 0.5% | 17.5hPa | 2.6V | 00:00:00 | 00:00:00 | 00:00:00 | |
| DL1XH-west | 2026-09-03 18:31:43 | 49.06733 | 8.59064 | 164° | 11km/h | 27828m | 5.4m/s | -46.6°C | 0% | 17.4hPa | 2.6V | 03:17:19 | 02:01:46 | 00:00:00 | |
| DM0DOS-11 | 2026-09-03 18:31:42 | 49.06738 | 8.59059 | 133° | 4km/h | 27797m | 4.2m/s | -46.7°C | 2.8% | 17.5hPa | 2.6V | 03:17:12 | 02:01:40 | 00:00:00 | |
| DO3MHA-11 | 2026-09-03 18:31:42 | 49.06735 | 8.59063 | 167° | 9km/h | 27823m | 4.4m/s | -46.6°C | 2.8% | 17.4hPa | 2.6V | 00:00:00 | 02:01:45 | 00:00:00 | |
| DL1XH1-15 | 2026-09-03 18:31:41 | 49.06739 | 8.59058 | 157° | 7km/h | 27792m | 5.8m/s | -46.7°C | 2.8% | 17.6hPa | 2.5V | 03:17:13 | 02:01:39 | 00:00:00 | |
| DK7TD | 2026-09-03 18:31:37 | 49.06738 | 8.59059 | 134° | 4km/h | 27797m | 4.2m/s | -46.7°C | 0% | 17.5hPa | 2.6V | 03:18:10 | 02:01:40 | 00:00:00 | |
| BIOWL1-15 | 2026-09-03 18:31:37 | 49.06742 | 8.59057 | 166° | 13km/h | 27786m | 6.1m/s | -46.7°C | 0% | 17.6hPa | 2.6V | 03:17:19 | 02:01:38 | 00:00:00 | |
| DL1XH-west | 2026-09-03 18:31:32 | 49.06755 | 8.59051 | 159° | 18km/h | 27771m | 5.5m/s | -46.8°C | 0% | 17.6hPa | 2.6V | 03:17:19 | 02:01:35 | 00:00:00 | |
| DO3MHA-11 | 2026-09-03 18:31:32 | 49.06755 | 8.59051 | 159° | 11km/h | 27771m | 5.5m/s | -46.7°C | 2.8% | 17.5hPa | 2.6V | 00:00:00 | 02:01:35 | 00:00:00 | |
| DL1XH1-15 | 2026-09-03 18:31:31 | 49.06771 | 8.59037 | 166° | 11km/h | 27738m | 5m/s | -46.8°C | 2.8% | 17.7hPa | 2.6V | 03:17:23 | 02:01:29 | 00:00:00 | |
| DK7TD | 2026-09-03 18:31:25 | 49.06774 | 8.59036 | 169° | 9km/h | 27733m | 4.5m/s | -46.8°C | 0% | 17.7hPa | 2.5V | 03:18:10 | 02:01:28 | 00:00:00 | |
| BIOWL1-15 | 2026-09-03 18:31:24 | 49.06776 | 8.59035 | 168° | 9km/h | 27728m | 5.4m/s | -46.8°C | 0% | 17.7hPa | 2.6V | 03:18:10 | 02:01:27 | 00:00:00 | |
| DL1ZP-14 | 2026-09-03 18:31:23 | 49.06778 | 8.59034 | 164° | 5km/h | 27722m | 6.0m/s | -46.9°C | 0.5% | 17.7hPa | 2.7V | 00:00:00 | 00:00:00 | 00:00:00 | |
| DM0DOS-11 | 2026-09-03 18:31:22 | 49.06803 | 8.59030 | 183° | 26km/h | 27691m | 4.4m/s | -47°C | 2.8% | 17.8hPa | 2.6V | 03:17:32 | 02:01:20 | 00:00:00 | |
| DL1XH-west | 2026-09-03 18:31:22 | 49.06780 | 8.59033 | 160° | 7km/h | 27717m | 4.9m/s | -46.9°C | 0% | 17.8hPa | 2.6V | 03:18:10 | 02:01:25 | 00:00:00 | |
| HEMX73-11 | 2026-09-03 18:31:22 | 49.06780 | 8.59033 | 161° | 7km/h | 27717m | 4.9m/s | -46.9°C | 0.5% | 17.8hPa | 2.6V | 00:00:00 | 00:00:00 | 00:00:00 | |
| DB0UT-9 | 2026-09-03 18:31:21 | 49.06780 | 8.59033 | 161° | 7km/h | 27717m | 4.9m/s | -46.9°C | 0.5% | 17.8hPa | 2.6V | 03:18:00 | 00:00:00 | 00:00:00 | |
| DJ2KF-10 | 2026-09-03 18:31:20 | 49.06786 | 8.59031 | 170° | 13km/h | 27708m | 5.2m/s | -46.8°C | 2.7% | 17.7hPa | 2.6V | 03:17:00 | 02:01:23 | 00:00:00 | |
| DL1XH-15 | 2026-09-03 18:31:19 | 49.06815 | 8.59033 | 206° | 7km/h | 27675m | 5.5m/s | 0°C | 0% | 0hPa | 2.6V | 00:00:00 | 02:01:17 | 00:00:00 | |
| DK7TD | 2026-09-03 18:31:15 | 49.06813 | 8.59032 | 194° | 15km/h | 27681m | 6.1m/s | -47°C | 0% | 17.8hPa | 2.6V | 03:18:10 | 02:01:18 | 00:00:00 | |
| BIOWL1-15 | 2026-09-03 18:31:15 | 49.06816 | 8.59034 | 252° | 2km/h | 27670m | 4.8m/s | -47.1°C | 0% | 17.9hPa | 2.6V | 03:18:10 | 02:01:16 | 00:00:00 | |
| SONDE2-11 | 2026-09-03 18:31:14 | 49.06815 | 8.59033 | 206° | 5km/h | 27675m | 5.5m/s | -47.1°C | 0.5% | 17.9hPa | 2.6V | 00:00:00 | 00:00:00 | 00:00:00 | |
| BIOWL9-15 | 2026-09-03 18:31:13 | 49.06816 | 8.59034 | 251° | 0km/h | 27670m | 4.8m/s | -47.1°C | 0.5% | 17.9hPa | 2.6V | 00:00:00 | 00:00:00 | 00:00:00 | |
| DM0DOS-11 | 2026-09-03 18:31:12 | 49.06819 | 8.59023 | 146° | 9km/h | 27639m | 5.4m/s | -47.2°C | 2.8% | 18hPa | 2.6V | 03:17:42 | 02:01:10 | 00:00:00 | |
| DL1XH-west | 2026-09-03 18:31:11 | 49.06815 | 8.59033 | 67° | 4km/h | 27659m | 5.7m/s | -47.2°C | 0% | 17.9hPa | 2.6V | 03:18:10 | 02:01:14 | 00:00:00 | |
| DD1CC8 | 2026-09-03 18:31:10 | 49.06816 | 8.59028 | 115° | 7km/h | 27649m | 4.9m/s | -47.2°C | 0.5% | 17.9hPa | 2.5V | 00:00:00 | 00:00:00 | 00:00:00 | |
| DL1XH-15 | 2026-09-03 18:31:08 | 49.06829 | 8.59022 | 189° | 15km/h | 27617m | 5.5m/s | 0°C | 0% | 0hPa | 2.5V | 00:00:00 | 02:01:06 | 00:00:00 | |
| DK7TD | 2026-09-03 18:31:04 | 49.06826 | 8.59021 | 191° | 11km/h | 27622m | 5m/s | -47.2°C | 0% | 18hPa | 2.6V | 03:18:10 | 02:01:07 | 00:00:00 | |
| BIOWL1-15 | 2026-09-03 18:31:03 | 49.06829 | 8.59022 | 189° | 15km/h | 27617m | 5.5m/s | -47.3°C | 0% | 18hPa | 2.5V | 03:18:10 | 02:01:06 | 00:00:00 | |
| DL1XH-west | 2026-09-03 18:31:00 | 49.06840 | 8.59022 | 169° | 13km/h | 27601m | 4.4m/s | -47.3°C | 0% | 18.1hPa | 2.6V | 03:18:10 | 02:01:03 | 00:00:00 | |
| DK5PH-5 | 2026-09-03 18:30:58 | 49.06844 | 8.59020 | 133° | 11km/h | 27590m | 6.4m/s | -47.3°C | 2.8% | 18.0hPa | 2.5V | 00:00:00 | 02:01:01 | 00:00:00 | |
| DL1XH-15 | 2026-09-03 18:30:57 | 49.06853 | 8.59002 | 157° | 20km/h | 27557m | 4.9m/s | 0°C | 0% | 0hPa | 2.6V | 00:00:00 | 02:00:55 | 00:00:00 | |
| BIOWL1-15 | 2026-09-03 18:30:53 | 49.06849 | 8.59005 | 143° | 18km/h | 27562m | 5.3m/s | -47.4°C | 0% | 18.1hPa | 2.5V | 03:18:10 | 02:00:56 | 00:00:00 | |
| DM0DOS-11 | 2026-09-03 18:30:52 | 49.06875 | 8.59008 | 223° | 16km/h | 27530m | 4.9m/s | -47.7°C | 2.9% | 18.3hPa | 2.6V | 03:18:02 | 02:00:50 | 00:00:00 | |
| DL1XH-west | 2026-09-03 18:30:50 | 49.06863 | 8.58999 | 183° | 20km/h | 27546m | 6.4m/s | -47.6°C | 0% | 18.2hPa | 2.7V | 03:18:10 | 02:00:53 | 00:00:00 | |
| DF3TZ-5 | 2026-09-03 18:30:47 | 49.06875 | 8.59008 | 223° | 15km/h | 27530m | 4.9m/s | -47.7°C | 0.5% | 18.3hPa | 2.6V | 00:00:00 | 00:00:00 | 00:00:00 | |
| DL8DAS-14 | 2026-09-03 18:30:45 | 49.06880 | 8.59015 | 216° | 11km/h | 27519m | 5.5m/s | -47.7°C | 0.5% | 18.3hPa | 2.6V | 00:00:00 | 00:00:00 | 00:00:00 | |
| DF7PN | 2026-09-03 18:30:44 | 49.06882 | 8.59017 | 209° | 7km/h | 27514m | 4.8m/s | -47.7°C | 0.5% | 18.3hPa | 2.6V | 00:00:00 | 00:00:00 | 00:00:00 | |
| BIOWL1-15 | 2026-09-03 18:30:42 | 49.06884 | 8.59018 | 352° | 2km/h | 27504m | 5.3m/s | -47.8°C | 0% | 18.4hPa | 2.6V | 03:18:10 | 02:00:45 | 00:00:00 | |
| DK7TD | 2026-09-03 18:30:41 | 49.06883 | 8.59018 | 0° | 5km/h | 27498m | 6.4m/s | -47.9°C | 0% | 18.4hPa | 2.6V | 03:18:10 | 02:00:44 | 00:00:00 | |
| DL1XH-west | 2026-09-03 18:30:40 | 49.06881 | 8.59018 | 5° | 9km/h | 27492m | 5.9m/s | -47.9°C | 0% | 18.3hPa | 2.7V | 03:18:10 | 02:00:43 | 00:00:00 | |
| BIOWL1-15 | 2026-09-03 18:30:32 | 49.06876 | 8.59020 | 271° | 15km/h | 27449m | 6.4m/s | -48°C | 0% | 18.5hPa | 2.6V | 03:19:01 | 02:00:35 | 00:00:00 | |
| DO3MHA-11 | 2026-09-03 18:30:32 | 49.06876 | 8.59019 | 271° | 9km/h | 27449m | 6.4m/s | -47.9°C | 3.0% | 18.4hPa | 2.5V | 03:18:00 | 02:00:35 | 00:00:00 | |
| DL1XH1-15 | 2026-09-03 18:30:31 | 49.06876 | 8.59049 | 186° | 4km/h | 27416m | 4.7m/s | -48.1°C | 3% | 18.6hPa | 2.5V | 03:18:23 | 02:00:29 | 00:00:00 | |
| DK7TD | 2026-09-03 18:30:30 | 49.06875 | 8.59033 | 276° | 18km/h | 27438m | 4.5m/s | -48.1°C | 0% | 18.6hPa | 2.6V | 03:19:01 | 02:00:33 | 00:00:00 | |
| DL1XH-west | 2026-09-03 18:30:29 | 49.06875 | 8.59040 | 273° | 15km/h | 27433m | 5.3m/s | -48.1°C | 0% | 18.6hPa | 2.7V | 03:19:01 | 02:00:32 | 00:00:00 | |
| BIOWL1-15 | 2026-09-03 18:30:23 | 49.06877 | 8.59056 | 267° | 13km/h | 27390m | 5.1m/s | -48°C | 0% | 18.7hPa | 2.6V | 03:19:01 | 02:00:24 | 00:00:00 | |
| DK7TD | 2026-09-03 18:30:20 | 49.06878 | 8.59062 | 255° | 16km/h | 27385m | 4.8m/s | -48°C | 0% | 18.7hPa | 2.6V | 03:19:01 | 02:00:23 | 00:00:00 | |
| DL1XH-west | 2026-09-03 18:30:18 | 49.06882 | 8.59074 | 228° | 20km/h | 27374m | 6.5m/s | -47.9°C | 0% | 18.7hPa | 2.6V | 03:19:01 | 02:00:21 | 00:00:00 | |
| BIOWL1-15 | 2026-09-03 18:30:11 | 49.06898 | 8.59100 | 277° | 5km/h | 27336m | 5.1m/s | -48°C | 0% | 18.8hPa | 2.6V | 03:19:01 | 02:00:14 | 00:00:00 | |
| DK7TD | 2026-09-03 18:30:09 | 49.06899 | 8.59103 | 219° | 5km/h | 27324m | 5.5m/s | -48°C | 0% | 18.9hPa | 2.6V | 03:19:01 | 02:00:12 | 00:00:00 | |
| DL1XH-west | 2026-09-03 18:30:07 | 49.06903 | 8.59108 | 223° | 15km/h | 27314m | 5m/s | -48°C | 0% | 18.9hPa | 2.7V | 03:19:01 | 02:00:10 | 00:00:00 | |
| DJ2DS-15 | 2026-09-03 18:30:07 | 49.06906 | 8.59113 | 231° | 18km/h | 27309m | 6.3m/s | -48.0°C | 0.5% | 18.9hPa | 2.6V | 00:00:00 | 00:00:00 | 00:00:00 | |
| DJ2DS-15 | 2026-09-03 18:30:06 | 49.06906 | 8.59112 | 232° | 22km/h | 27309m | 6.2m/s | -47.9°C | 3.0% | 18.8hPa | 2.6V | 03:18:00 | 02:00:09 | 00:00:00 | |
| BIOWL7-15 | 2026-09-03 18:30:04 | 49.06909 | 8.59119 | 238° | 24km/h | 27302m | 6.3m/s | -47.9°C | 0.5% | 18.9hPa | 2.6V | 00:00:00 | 00:00:00 | 00:00:00 | |
| DO3MHA-11 | 2026-09-03 18:30:02 | 49.06919 | 8.59142 | 228° | 13km/h | 27287m | 5.1m/s | -47.9°C | 2.9% | 18.9hPa | 2.6V | 00:00:00 | 02:00:05 | 00:00:00 | |
| DM0DOS-11 | 2026-09-03 18:30:01 | 49.06934 | 8.59151 | 240° | 9km/h | 27252m | 5.2m/s | -47.8°C | 3% | 19hPa | 2.6V | 03:18:53 | 01:59:59 | 00:00:00 | |
| BIOWL1-15 | 2026-09-03 18:30:00 | 49.06926 | 8.59149 | 192° | 13km/h | 27275m | 5.9m/s | -47.8°C | 0% | 19hPa | 2.6V | 03:19:01 | 02:00:03 | 00:00:00 | |
| DK7TD | 2026-09-03 18:29:59 | 49.06929 | 8.59149 | 175° | 9km/h | 27270m | 5.4m/s | -47.8°C | 0% | 19hPa | 2.6V | 03:19:01 | 02:00:02 | 00:00:00 | |
| DL1XH-west | 2026-09-03 18:29:56 | 49.06934 | 8.59151 | 241° | 9km/h | 27252m | 5.2m/s | -47.8°C | 0% | 19.1hPa | 2.6V | 03:19:01 | 01:59:59 | 00:00:00 | |
| DB0ND-19 | 2026-09-03 18:29:53 | 49.06945 | 8.59173 | 220° | 26km/h | 27231m | 6.4m/s | -47.9°C | 0.6% | 19.1hPa | 2.7V | 00:00:00 | 00:00:00 | 00:00:00 | |
| DO3MHA-11 | 2026-09-03 18:29:52 | 49.06945 | 8.59173 | 221° | 27km/h | 27232m | 6.3m/s | -47.8°C | 3.0% | 19.1hPa | 2.7V | 03:18:00 | 01:59:55 | 00:00:00 | |
| DL1XH1-15 | 2026-09-03 18:29:51 | 49.06984 | 8.59219 | 210° | 27km/h | 27198m | 5.3m/s | -47.9°C | 3% | 19.2hPa | 2.7V | 03:19:03 | 01:59:49 | 00:00:00 | |
| BIOWL1-15 | 2026-09-03 18:29:50 | 49.06957 | 8.59188 | 217° | 35km/h | 27220m | 5.4m/s | -47.8°C | 0% | 19.1hPa | 2.5V | 03:19:01 | 01:59:53 | 00:00:00 | |
| DK7TD | 2026-09-03 18:29:48 | 49.06972 | 8.59205 | 219° | 37km/h | 27208m | 5.5m/s | -47.8°C | 0% | 19.2hPa | 2.6V | 03:19:01 | 01:59:51 | 00:00:00 | |
| DL1XH-west | 2026-09-03 18:29:46 | 49.06984 | 8.59219 | 210° | 27km/h | 27198m | 5.3m/s | -47.9°C | 0% | 19.2hPa | 2.7V | 03:19:52 | 01:59:49 | 00:00:00 | |
| DF3TZ-5 | 2026-09-03 18:29:45 | 49.06990 | 8.59223 | 198° | 22km/h | 27192m | 6.6m/s | -47.9°C | 0.5% | 19.2hPa | 2.5V | 00:00:00 | 00:00:00 | 00:00:00 | |
| DL8DAS-14 | 2026-09-03 18:29:43 | 49.07003 | 8.59223 | 175° | 13km/h | 27177m | 4.0m/s | -47.9°C | 0.5% | 19.3hPa | 2.5V | 00:00:00 | 00:00:00 | 00:00:00 | |
| DO3MHA-11 | 2026-09-03 18:29:42 | 49.07003 | 8.59223 | 176° | 33km/h | 27177m | 3.9m/s | -47.9°C | 3.0% | 19.2hPa | 2.5V | 00:00:00 | 01:59:45 | 00:00:00 | |
| DL1XH1-15 | 2026-09-03 18:29:41 | 49.07035 | 8.59262 | 214° | 47km/h | 27145m | 5.8m/s | -47.8°C | 3% | 19.4hPa | 2.6V | 03:19:13 | 01:59:39 | 00:00:00 | |
| BIOWL1-15 | 2026-09-03 18:29:39 | 49.07014 | 8.59232 | 227° | 26km/h | 27162m | 5.2m/s | -47.9°C | 0% | 19.3hPa | 2.7V | 03:19:52 | 01:59:42 | 00:00:00 | |
| DK7TD | 2026-09-03 18:29:38 | 49.07019 | 8.59241 | 226° | 35km/h | 27157m | 5.2m/s | -47.9°C | 0% | 19.3hPa | 2.6V | 03:19:52 | 01:59:41 | 00:00:00 | |
| DL1XH-west | 2026-09-03 18:29:35 | 49.07046 | 8.59271 | 208° | 47km/h | 27140m | 5.2m/s | -47.8°C | 0% | 19.4hPa | 2.6V | 03:19:52 | 01:59:38 | 00:00:00 | |
| AU51GT2 | 2026-09-03 18:29:34 | 49.07067 | 8.59283 | 193° | 38km/h | 27131m | 4.8m/s | -47.7°C | 0.5% | 19.4hPa | 2.5V | 00:00:00 | 00:00:00 | 00:00:00 | |
| DO3MHA-11 | 2026-09-03 18:29:32 | 49.07076 | 8.59286 | 189° | 26km/h | 27126m | 5.1m/s | -47.6°C | 3.0% | 19.4hPa | 2.5V | 00:00:00 | 01:59:35 | 00:00:00 | |
| DL1XH1-15 | 2026-09-03 18:29:31 | 49.07109 | 8.59299 | 195° | 24km/h | 27093m | 5.2m/s | -47.5°C | 2.9% | 19.5hPa | 2.5V | 03:19:23 | 01:59:29 | 00:00:00 | |
| DK7TD | 2026-09-03 18:29:28 | 49.07099 | 8.59294 | 203° | 18km/h | 27103m | 4.7m/s | -47.6°C | 0% | 19.5hPa | 2.6V | 03:19:52 | 01:59:31 | 00:00:00 | |
| DL1XH-west | 2026-09-03 18:29:25 | 49.07115 | 8.59301 | 190° | 27km/h | 27088m | 6.2m/s | -47.5°C | 0% | 19.5hPa | 2.6V | 03:19:52 | 01:59:28 | 00:00:00 | |
| DG1MJG | 2026-09-03 18:29:24 | 49.07115 | 8.59301 | 191° | 27km/h | 27088m | 6.2m/s | -47.5°C | 0.5% | 19.5hPa | 2.6V | 03:19:00 | 00:00:00 | 00:00:00 | |
| NBG1-10 | 2026-09-03 18:29:23 | 49.07131 | 8.59304 | 187° | 27km/h | 27077m | 4.9m/s | -47.5°C | 2.9% | 19.5hPa | 2.6V | 03:19:00 | 01:59:26 | 00:00:00 | |
| DO3MHA-11 | 2026-09-03 18:29:22 | 49.07140 | 8.59306 | 191° | 35km/h | 27072m | 4.6m/s | -47.5°C | 2.9% | 19.5hPa | 2.6V | 00:00:00 | 01:59:25 | 00:00:00 | |
| DL1XH1-15 | 2026-09-03 18:29:21 | 49.07190 | 8.59340 | 197° | 33km/h | 27041m | 5.5m/s | -47.4°C | 2.8% | 19.7hPa | 2.6V | 03:19:33 | 01:59:19 | 00:00:00 | |
| BIOWL1-15 | 2026-09-03 18:29:17 | 49.07182 | 8.59335 | 207° | 35km/h | 27046m | 4.5m/s | -47.4°C | 0% | 19.7hPa | 2.6V | 03:19:52 | 01:59:20 | 00:00:00 | |
| DL1XH-west | 2026-09-03 18:29:14 | 49.07206 | 8.59343 | 175° | 33km/h | 27029m | 5.8m/s | -47.4°C | 0% | 19.7hPa | 2.7V | 03:19:52 | 01:59:17 | 00:00:00 | |
| DH7VM-15 | 2026-09-03 18:29:14 | 49.07206 | 8.59343 | 176° | 33km/h | 27029m | 5.8m/s | -47.4°C | 0.5% | 19.7hPa | 2.5V | 00:00:00 | 00:00:00 | 00:00:00 | |
| DO3MHA-11 | 2026-09-03 18:29:12 | 49.07221 | 8.59338 | 164° | 24km/h | 27018m | 6.1m/s | -47.4°C | 2.8% | 19.7hPa | 2.5V | 03:19:00 | 01:59:15 | 00:00:00 | |
| DL1XH1-15 | 2026-09-03 18:29:11 | 49.07256 | 8.59324 | 166° | 24km/h | 26984m | 5.3m/s | -47.8°C | 2.9% | 19.9hPa | 2.6V | 03:19:43 | 01:59:09 | 00:00:00 | |
| BIOWL1-15 | 2026-09-03 18:29:07 | 49.07250 | 8.59327 | 165° | 22km/h | 26990m | 6.3m/s | -47.7°C | 0% | 19.8hPa | 2.7V | 03:19:52 | 01:59:10 | 00:00:00 | |
| DK7TD | 2026-09-03 18:29:06 | 49.07256 | 8.59324 | 167° | 24km/h | 26984m | 5.4m/s | -47.8°C | 0% | 19.9hPa | 2.6V | 03:19:52 | 01:59:09 | 00:00:00 | |
| DL1XH-west | 2026-09-03 18:29:03 | 49.07273 | 8.59324 | 193° | 22km/h | 26969m | 6.2m/s | -47.9°C | 0% | 19.9hPa | 2.6V | 03:19:52 | 01:59:06 | 00:00:00 | |
| DO3MHA-11 | 2026-09-03 18:29:02 | 49.07278 | 8.59326 | 200° | 26km/h | 26964m | 5.2m/s | -47.9°C | 2.9% | 19.8hPa | 2.7V | 00:00:00 | 01:59:05 | 00:00:00 | |
| DL1XH1-15 | 2026-09-03 18:29:01 | 49.07309 | 8.59311 | 136° | 31km/h | 26931m | 5.3m/s | -48°C | 2.9% | 20hPa | 2.7V | 03:19:53 | 01:58:59 | 00:00:00 | |
| DM0DOS-11 | 2026-09-03 18:28:59 | 49.07320 | 8.59297 | 146° | 27km/h | 26920m | 6.1m/s | -48°C | 2.9% | 20hPa | 2.5V | 03:19:55 | 01:58:57 | 00:00:00 | |
| BIOWL1-15 | 2026-09-03 18:28:56 | 49.07309 | 8.59311 | 137° | 31km/h | 26931m | 5.4m/s | -48°C | 0% | 20hPa | 2.7V | 03:20:43 | 01:58:59 | 00:00:00 | |
| DK7TD | 2026-09-03 18:28:55 | 49.07315 | 8.59303 | 139° | 31km/h | 26925m | 5.1m/s | -48°C | 0% | 20hPa | 2.6V | 03:22:25 | 01:58:58 | 00:00:00 | |
| DL1XH-west | 2026-09-03 18:28:53 | 49.07326 | 8.59292 | 158° | 26km/h | 26914m | 5.8m/s | -48°C | 0% | 20.1hPa | 2.6V | 03:20:43 | 01:58:56 | 00:00:00 | |
| DO3MHA-11 | 2026-09-03 18:28:52 | 49.07332 | 8.59289 | 169° | 24km/h | 26909m | 4.9m/s | -48.0°C | 2.9% | 20.0hPa | 2.7V | 00:00:00 | 01:58:55 | 00:00:00 | |
| DL1XH1-15 | 2026-09-03 18:28:51 | 49.07372 | 8.59284 | 180° | 26km/h | 26876m | 6m/s | -48.4°C | 3% | 20.2hPa | 2.7V | 03:20:03 | 01:58:49 | 00:00:00 | |
| DB0UT-7 | 2026-09-03 18:28:50 | 49.07345 | 8.59287 | 174° | 20km/h | 26898m | 6.1m/s | -48.1°C | 2.9% | 20.1hPa | 2.6V | 00:00:00 | 01:58:53 | 00:00:00 | |
| DM0DOS-11 | 2026-09-03 18:28:49 | 49.07384 | 8.59283 | 167° | 20km/h | 26866m | 4.3m/s | -48.4°C | 3% | 20.2hPa | 2.6V | 03:20:05 | 01:58:47 | 00:00:00 | |
| BIOWL1-15 | 2026-09-03 18:28:45 | 49.07378 | 8.59284 | 178° | 22km/h | 26870m | 5m/s | -48.4°C | 0% | 20.2hPa | 2.7V | 03:20:43 | 01:58:48 | 00:00:00 | |
| DL1XH-west | 2026-09-03 18:28:42 | 49.07392 | 8.59276 | 133° | 18km/h | 26854m | 6.3m/s | -48.5°C | 0% | 20.2hPa | 2.6V | 03:20:43 | 01:58:45 | 00:00:00 | |
| DO3MHA-11 | 2026-09-03 18:28:42 | 49.07392 | 8.59276 | 133° | 13km/h | 26855m | 6.2m/s | -48.4°C | 3.0% | 20.2hPa | 2.6V | 00:00:00 | 01:58:45 | 00:00:00 | |
| DL1XH1-15 | 2026-09-03 18:28:41 | 49.07402 | 8.59258 | 204° | 9km/h | 26822m | 5.2m/s | -48.6°C | 3% | 20.4hPa | 2.7V | 03:20:13 | 01:58:39 | 00:00:00 | |
| DL8DAS-14 | 2026-09-03 18:28:41 | 49.07396 | 8.59264 | 112° | 15km/h | 26844m | 4.6m/s | -48.5°C | 0.5% | 20.3hPa | 2.7V | 00:00:00 | 00:00:00 | 00:00:00 | |
| IW2NTF | 2026-09-03 18:28:40 | 49.07405 | 8.59259 | 196° | 13km/h | 26817m | 5.9m/s | -48.6°C | 3% | 20.4hPa | 2.7V | 03:20:14 | 01:58:38 | 00:00:00 | |
| DF7PN | 2026-09-03 18:28:40 | 49.07398 | 8.59260 | 113° | 11km/h | 26839m | 5.6m/s | -48.5°C | 0.6% | 20.3hPa | 2.6V | 00:00:00 | 00:00:00 | 00:00:00 | |
| DM0DOS-11 | 2026-09-03 18:28:39 | 49.07408 | 8.59260 | 184° | 16km/h | 26811m | 6.1m/s | -48.6°C | 3% | 20.4hPa | 2.6V | 03:20:15 | 01:58:37 | 00:00:00 | |
| DK7TD | 2026-09-03 18:28:36 | 49.07402 | 8.59257 | 205° | 9km/h | 26822m | 5.2m/s | -48.6°C | 0% | 20.4hPa | 2.7V | 03:22:25 | 01:58:39 | 00:00:00 | |
| BIOWL1-15 | 2026-09-03 18:28:34 | 49.07408 | 8.59260 | 185° | 16km/h | 26811m | 6.1m/s | -48.6°C | 0% | 20.4hPa | 2.6V | 03:20:43 | 01:58:37 | 00:00:00 | |
| DL1XH-west | 2026-09-03 18:28:31 | 49.07425 | 8.59259 | 176° | 26km/h | 26794m | 6m/s | -48.6°C | 0% | 20.4hPa | 2.6V | 03:20:43 | 01:58:34 | 00:00:00 | |
| IW2NTF | 2026-09-03 18:28:30 | 49.07462 | 8.59238 | 137° | 22km/h | 26763m | 4.8m/s | -48.7°C | 3% | 20.5hPa | 2.6V | 03:20:24 | 01:58:28 | 00:00:00 | |
| DM0DOS-11 | 2026-09-03 18:28:29 | 49.07465 | 8.59233 | 135° | 16km/h | 26758m | 4.7m/s | -48.7°C | 3% | 20.6hPa | 2.6V | 03:20:25 | 01:58:27 | 00:00:00 | |
| DK7TD | 2026-09-03 18:28:26 | 49.07457 | 8.59244 | 143° | 26km/h | 26768m | 5.6m/s | -48.7°C | 0% | 20.5hPa | 2.6V | 03:22:25 | 01:58:29 | 00:00:00 | |
| BIOWL1-15 | 2026-09-03 18:28:23 | 49.07468 | 8.59229 | 144° | 11km/h | 26753m | 6.4m/s | -48.7°C | 0% | 20.6hPa | 2.7V | 03:20:43 | 01:58:26 | 00:00:00 | |
| DO3MHA-11 | 2026-09-03 18:28:22 | 49.07469 | 8.59228 | 180° | 22km/h | 26747m | 5.6m/s | -48.7°C | 3.0% | 20.5hPa | 2.6V | 00:00:00 | 01:58:25 | 00:00:00 | |
| DL1XH1-15 | 2026-09-03 18:28:21 | 49.07496 | 8.59225 | 159° | 33km/h | 26716m | 4.7m/s | -48.8°C | 3% | 20.7hPa | 2.6V | 03:20:33 | 01:58:19 | 00:00:00 | |
| DL1XH-west | 2026-09-03 18:28:21 | 49.07471 | 8.59229 | 205° | 9km/h | 26742m | 4.4m/s | -48.8°C | 0% | 20.6hPa | 2.6V | 03:20:43 | 01:58:24 | 00:00:00 | |
| AZAK | 2026-09-03 18:28:20 | 49.07474 | 8.59230 | 200° | 13km/h | 26738m | 4.5m/s | -48.8°C | 0.5% | 20.6hPa | 2.6V | 03:20:00 | 00:00:00 | 00:00:00 | |
| DM0DOS-11 | 2026-09-03 18:28:19 | 49.07512 | 8.59216 | 159° | 33km/h | 26706m | 5.5m/s | -48.9°C | 3% | 20.7hPa | 2.6V | 03:20:35 | 01:58:17 | 00:00:00 | |
| DK7TD | 2026-09-03 18:28:15 | 49.07504 | 8.59221 | 159° | 35km/h | 26711m | 5.3m/s | -48.8°C | 0% | 20.7hPa | 2.6V | 03:22:25 | 01:58:18 | 00:00:00 | |
| BIOWL1-15 | 2026-09-03 18:28:13 | 49.07519 | 8.59212 | 161° | 31km/h | 26701m | 5.1m/s | -48.9°C | 0% | 20.7hPa | 2.7V | 03:20:43 | 01:58:16 | 00:00:00 | |
| DO3MHA-11 | 2026-09-03 18:28:12 | 49.07526 | 8.59208 | 160° | 22km/h | 26696m | 4.8m/s | -48.9°C | 3.1% | 20.7hPa | 2.7V | 00:00:00 | 01:58:15 | 00:00:00 | |
| DL1XH1-15 | 2026-09-03 18:28:11 | 49.07555 | 8.59180 | 146° | 16km/h | 26665m | 5.4m/s | -49.1°C | 3.1% | 20.8hPa | 2.6V | 03:20:43 | 01:58:09 | 00:00:00 | |
| DL1XH-west | 2026-09-03 18:28:10 | 49.07538 | 8.59200 | 149° | 24km/h | 26685m | 5.9m/s | -49°C | 0% | 20.8hPa | 2.6V | 03:20:43 | 01:58:13 | 00:00:00 | |
| OE5DRO-10 | 2026-09-03 18:28:10 | 49.07538 | 8.59200 | 150° | 26km/h | 26686m | 5.9m/s | -48.9°C | 3.1% | 20.7hPa | 2.6V | 00:00:00 | 00:00:00 | 00:00:00 | |
| DM0DOS-11 | 2026-09-03 18:28:09 | 49.07562 | 8.59175 | 167° | 16km/h | 26654m | 4.9m/s | -49.2°C | 3.1% | 20.9hPa | 2.6V | 03:20:45 | 01:58:07 | 00:00:00 | |
| BIOWL1-15 | 2026-09-03 18:28:04 | 49.07571 | 8.59171 | 160° | 22km/h | 26644m | 5.6m/s | -49.3°C | 0% | 20.9hPa | 2.7V | 03:21:34 | 01:58:05 | 00:00:00 | |
| DK7TD | 2026-09-03 18:28:03 | 49.07567 | 8.59174 | 166° | 18km/h | 26649m | 3.9m/s | -49.2°C | 0% | 20.9hPa | 2.7V | 03:22:25 | 01:58:06 | 00:00:00 | |
| DL9PN | 2026-09-03 18:28:02 | 49.07571 | 8.59171 | 159° | 20km/h | 26644m | 5.6m/s | -49.3°C | 0.6% | 20.9hPa | 2.6V | 00:00:00 | 00:00:00 | 00:00:00 | |
| DL1XH1-15 | 2026-09-03 18:28:01 | 49.07610 | 8.59141 | 157° | 26km/h | 26612m | 4.9m/s | -49.4°C | 3.2% | 21hPa | 2.6V | 03:20:53 | 01:57:59 | 00:00:00 | |
| DL1XH-west | 2026-09-03 18:27:59 | 49.07590 | 8.59157 | 150° | 31km/h | 26628m | 4.7m/s | -49.3°C | 0% | 21hPa | 2.6V | 03:21:34 | 01:58:02 | 00:00:00 | |
| DK5PH-5 | 2026-09-03 18:27:57 | 49.07603 | 8.59145 | 155° | 18km/h | 26618m | 5.7m/s | -49.3°C | 3.1% | 20.9hPa | 2.7V | 00:00:00 | 01:58:00 | 00:00:00 | |
| DM0DOS-11 | 2026-09-03 18:27:56 | 49.07634 | 8.59116 | 138° | 26km/h | 26588m | 4.2m/s | -49.5°C | 3.2% | 21.1hPa | 2.6V | 03:20:58 | 01:57:54 | 00:00:00 | |
| IW2NTF | 2026-09-03 18:27:56 | 49.07639 | 8.59110 | 145° | 26km/h | 26583m | 4.4m/s | -49.5°C | 3.2% | 21.1hPa | 2.6V | 03:20:59 | 01:57:53 | 00:00:00 | |
| DK7TD | 2026-09-03 18:27:52 | 49.07629 | 8.59123 | 137° | 24km/h | 26593m | 5m/s | -49.5°C | 0% | 21.1hPa | 2.7V | 03:22:25 | 01:57:55 | 00:00:00 | |
| BIOWL1-15 | 2026-09-03 18:27:51 | 49.07634 | 8.59116 | 139° | 26km/h | 26588m | 4.2m/s | -49.5°C | 0% | 21.1hPa | 2.6V | 03:21:34 | 01:57:54 | 00:00:00 | |
| DL1XH-west | 2026-09-03 18:27:49 | 49.07645 | 8.59105 | 156° | 27km/h | 26579m | 5.8m/s | -49.5°C | 0% | 21.1hPa | 2.6V | 03:21:34 | 01:57:52 | 00:00:00 | |
| BIOWL7-15 | 2026-09-03 18:27:49 | 49.07645 | 8.59105 | 157° | 27km/h | 26579m | 5.8m/s | -49.5°C | 0.6% | 21.1hPa | 2.6V | 03:21:00 | 00:00:00 | 00:00:00 | |
| DL0LBS | 2026-09-03 18:27:48 | 49.07645 | 8.59105 | 157° | 27km/h | 26579m | 5.8m/s | -49.5°C | 0.6% | 21.1hPa | 2.6V | 03:21:00 | 00:00:00 | 00:00:00 | |
| DM0DOS-11 | 2026-09-03 18:27:46 | 49.07687 | 8.59087 | 148° | 15km/h | 26537m | 5.8m/s | -49.5°C | 3.2% | 21.2hPa | 2.6V | 03:21:08 | 01:57:44 | 00:00:00 | |
| DJ2DS-15 | 2026-09-03 18:27:46 | 49.07665 | 8.59099 | 175° | 16km/h | 26563m | 4.2m/s | -49.5°C | 3.2% | 21.1hPa | 2.6V | 00:00:00 | 01:57:49 | 00:00:00 | |
| IW2NTF | 2026-09-03 18:27:45 | 49.07690 | 8.59085 | 154° | 13km/h | 26532m | 5.4m/s | -49.5°C | 3.2% | 21.3hPa | 2.6V | 03:21:09 | 01:57:43 | 00:00:00 | |
| DF1GD-15 | 2026-09-03 18:27:44 | 49.07671 | 8.59098 | 171° | 24km/h | 26558m | 5.2m/s | -49.6°C | 0.6% | 21.2hPa | 2.7V | 03:21:00 | 00:00:00 | 00:00:00 | |
| DJ2DS-15 | 2026-09-03 18:27:43 | 49.07684 | 8.59090 | 146° | 15km/h | 26543m | 4.5m/s | -49.5°C | 0.6% | 21.2hPa | 2.7V | 00:00:00 | 00:00:00 | 00:00:00 | |
| DO3MHA-11 | 2026-09-03 18:27:42 | 49.07684 | 8.59090 | 147° | 15km/h | 26543m | 4.5m/s | -49.5°C | 3.2% | 21.2hPa | 2.7V | 00:00:00 | 01:57:45 | 00:00:00 | |
| DL1XH1-15 | 2026-09-03 18:27:41 | 49.07702 | 8.59073 | 136° | 16km/h | 26511m | 5.7m/s | -49.5°C | 3.2% | 21.3hPa | 2.7V | 03:21:13 | 01:57:39 | 00:00:00 | |
| BIOWL1-15 | 2026-09-03 18:27:41 | 49.07687 | 8.59087 | 149° | 15km/h | 26537m | 5.8m/s | -49.5°C | 0% | 21.3hPa | 2.6V | 03:21:34 | 01:57:44 | 00:00:00 | |
| DL1XH-west | 2026-09-03 18:27:38 | 49.07696 | 8.59080 | 152° | 13km/h | 26522m | 4.8m/s | -49.5°C | 0% | 21.3hPa | 2.6V | 03:21:34 | 01:57:41 | 00:00:00 | |
| DF7PN | 2026-09-03 18:27:38 | 49.07699 | 8.59077 | 144° | 15km/h | 26517m | 5.8m/s | -49.5°C | 0.6% | 21.3hPa | 2.6V | 00:00:00 | 00:00:00 | 00:00:00 | |
| SONDE2-11 | 2026-09-03 18:27:37 | 49.07702 | 8.59073 | 136° | 16km/h | 26511m | 5.7m/s | -49.5°C | 0.6% | 21.3hPa | 2.6V | 00:00:00 | 00:00:00 | 00:00:00 | |
| DM0DOS-11 | 2026-09-03 18:27:36 | 49.07719 | 8.59059 | 189° | 16km/h | 26487m | 5.4m/s | -49.5°C | 3.2% | 21.4hPa | 2.6V | 03:21:18 | 01:57:34 | 00:00:00 | |
| DJ2KF-10 | 2026-09-03 18:27:35 | 49.07705 | 8.59069 | 134° | 11km/h | 26506m | 4.5m/s | -49.4°C | 3.2% | 21.3hPa | 2.6V | 00:00:00 | 01:57:38 | 00:00:00 | |
| DL6DJ-15 | 2026-09-03 18:27:34 | 49.07712 | 8.59061 | 153° | 15km/h | 26498m | 4.4m/s | -49.5°C | 0.6% | 21.4hPa | 2.6V | 00:00:00 | 00:00:00 | 00:00:00 | |
| DO8TBO-1 | 2026-09-03 18:27:33 | 49.07712 | 8.59061 | 154° | 11km/h | 26498m | 4.3m/s | -49.4°C | 3.1% | 21.3hPa | 2.6V | 03:21:00 | 01:57:36 | 00:00:00 | |
| DO3MHA-11 | 2026-09-03 18:27:32 | 49.07716 | 8.59059 | 173° | 16km/h | 26493m | 5.9m/s | -49.4°C | 3.1% | 21.3hPa | 2.6V | 00:00:00 | 01:57:35 | 00:00:00 | |
| DL1XH1-15 | 2026-09-03 18:27:31 | 49.07737 | 8.59055 | 124° | 18km/h | 26462m | 5m/s | -49.6°C | 3.2% | 21.5hPa | 2.6V | 03:21:23 | 01:57:29 | 00:00:00 | |
| BIOWL1-15 | 2026-09-03 18:27:31 | 49.07746 | 8.59030 | 143° | 7km/h | 26437m | 4.9m/s | -49.6°C | 0% | 21.6hPa | 2.6V | 03:21:34 | 01:57:24 | 00:00:00 | |
| DK7TD | 2026-09-03 18:27:30 | 49.07724 | 8.59060 | 195° | 16km/h | 26482m | 4.3m/s | -49.6°C | 0% | 21.4hPa | 2.7V | 03:22:25 | 01:57:33 | 00:00:00 | |
| DL0LBS | 2026-09-03 18:27:28 | 49.07727 | 8.59062 | 188° | 15km/h | 26478m | 4.0m/s | -49.6°C | 0.7% | 21.5hPa | 2.6V | 03:21:00 | 00:00:00 | 00:00:00 | |
| IW2NTF | 2026-09-03 18:27:27 | 49.07745 | 8.59032 | 129° | 11km/h | 26443m | 5.5m/s | -49.6°C | 3.2% | 21.6hPa | 2.6V | 03:21:27 | 01:57:25 | 00:00:00 | |
| DL1XH-west | 2026-09-03 18:27:27 | 49.07734 | 8.59059 | 142° | 15km/h | 26468m | 5.7m/s | -49.6°C | 0% | 21.5hPa | 2.6V | 03:21:34 | 01:57:30 | 00:00:00 | |
| DF1GD-15 | 2026-09-03 18:27:24 | 49.07739 | 8.59049 | 116° | 18km/h | 26458m | 4.4m/s | -49.6°C | 0.6% | 21.5hPa | 2.6V | 03:21:00 | 00:00:00 | 00:00:00 | |
| DO3MHA-11 | 2026-09-03 18:27:22 | 49.07744 | 8.59032 | 130° | 7km/h | 26443m | 5.5m/s | -49.6°C | 3.2% | 21.5hPa | 2.6V | 00:00:00 | 01:57:25 | 00:00:00 | |
| DL1XH1-15 | 2026-09-03 18:27:21 | 49.07750 | 8.59021 | 116° | 7km/h | 26412m | 4.5m/s | -49.8°C | 3.2% | 21.6hPa | 2.6V | 03:21:33 | 01:57:19 | 00:00:00 | |
| DK7TD | 2026-09-03 18:27:19 | 49.07749 | 8.59027 | 129° | 4km/h | 26428m | 5.6m/s | -49.7°C | 0% | 21.6hPa | 2.7V | 03:22:25 | 01:57:22 | 00:00:00 | |
| DL1XH-west | 2026-09-03 18:27:16 | 49.07750 | 8.59021 | 117° | 7km/h | 26412m | 4.5m/s | -49.8°C | 0% | 21.7hPa | 2.6V | 03:21:34 | 01:57:19 | 00:00:00 | |
| BIOWL1-15 | 2026-09-03 18:27:12 | 49.07758 | 8.59013 | 146° | 15km/h | 26391m | 4.7m/s | -49.8°C | 0% | 21.7hPa | 2.6V | 03:22:25 | 01:57:15 | 00:00:00 | |
| DO3MHA-11 | 2026-09-03 18:27:12 | 49.07758 | 8.59013 | 146° | 13km/h | 26392m | 4.7m/s | -49.7°C | 3.2% | 21.7hPa | 2.6V | 03:21:00 | 01:57:15 | 00:00:00 | |
| DL1XH1-15 | 2026-09-03 18:27:11 | 49.07771 | 8.58987 | 155° | 11km/h | 26361m | 5.6m/s | -49.8°C | 3.2% | 21.8hPa | 2.6V | 03:21:43 | 01:57:09 | 00:00:00 | |
| DK7TD | 2026-09-03 18:27:08 | 49.07767 | 8.58994 | 118° | 15km/h | 26371m | 4.3m/s | -49.8°C | 0% | 21.8hPa | 2.6V | 03:22:25 | 01:57:11 | 00:00:00 | |
| DL8DAS-14 | 2026-09-03 18:27:08 | 49.07769 | 8.58990 | 131° | 11km/h | 26367m | 5.6m/s | -49.8°C | 0.6% | 21.8hPa | 2.6V | 00:00:00 | 00:00:00 | 00:00:00 | |
| DJ2DS-15 | 2026-09-03 18:27:07 | 49.07771 | 8.58987 | 155° | 9km/h | 26361m | 5.6m/s | -49.8°C | 0.6% | 21.8hPa | 2.6V | 00:00:00 | 00:00:00 | 00:00:00 | |
| DM0DOS-11 | 2026-09-03 18:27:06 | 49.07782 | 8.58985 | 149° | 11km/h | 26336m | 4.1m/s | -49.9°C | 3.2% | 21.9hPa | 2.6V | 03:21:48 | 01:57:04 | 00:00:00 | |
| SONDE2-11 | 2026-09-03 18:27:06 | 49.07773 | 8.58986 | 177° | 9km/h | 26356m | 4.7m/s | -49.9°C | 0.6% | 21.9hPa | 2.7V | 00:00:00 | 00:00:00 | 00:00:00 | |
| IW2NTF | 2026-09-03 18:27:05 | 49.07785 | 8.58982 | 149° | 15km/h | 26331m | 4.3m/s | -49.9°C | 3.2% | 21.9hPa | 2.7V | 03:21:49 | 01:57:03 | 00:00:00 | |
| DL1XH-west | 2026-09-03 18:27:05 | 49.07773 | 8.58986 | 177° | 9km/h | 26356m | 4.7m/s | -49.9°C | 0% | 21.9hPa | 2.7V | 03:22:25 | 01:57:08 | 00:00:00 | |
| BIOWL1-15 | 2026-09-03 18:27:02 | 49.07780 | 8.58986 | 162° | 7km/h | 26341m | 5.1m/s | -49.9°C | 0% | 21.9hPa | 2.6V | 03:22:25 | 01:57:05 | 00:00:00 | |
| DO3MHA-11 | 2026-09-03 18:27:02 | 49.07780 | 8.58986 | 162° | 18km/h | 26341m | 5.1m/s | -49.9°C | 3.2% | 21.9hPa | 2.6V | 00:00:00 | 01:57:05 | 00:00:00 | |
| DL1XH1-15 | 2026-09-03 18:27:01 | 49.07805 | 8.58969 | 157° | 24km/h | 26312m | 4.4m/s | -49.9°C | 3.2% | 22hPa | 2.6V | 03:21:53 | 01:56:59 | 00:00:00 | |
| DL9PN | 2026-09-03 18:27:00 | 49.07785 | 8.58982 | 149° | 15km/h | 26332m | 4.3m/s | -49.9°C | 0.6% | 21.9hPa | 2.7V | 00:00:00 | 00:00:00 | 00:00:00 | |
| AU51GT2 | 2026-09-03 18:26:57 | 49.07799 | 8.58972 | 159° | 24km/h | 26316m | 4.6m/s | -49.9°C | 0.6% | 22.0hPa | 2.7V | 00:00:00 | 00:00:00 | 00:00:00 | |
| IW2NTF | 2026-09-03 18:26:55 | 49.07826 | 8.58951 | 177° | 15km/h | 26281m | 5.5m/s | -49.9°C | 3.2% | 22.1hPa | 2.7V | 03:21:59 | 01:56:53 | 00:00:00 | |
| DK7TD | 2026-09-03 18:26:55 | 49.07810 | 8.58965 | 151° | 22km/h | 26307m | 5.7m/s | -49.9°C | 0% | 22.1hPa | 2.7V | 03:22:25 | 01:56:58 | 00:00:00 | |
| DL1XH-west | 2026-09-03 18:26:54 | 49.07814 | 8.58961 | 143° | 18km/h | 26301m | 5.4m/s | -49.9°C | 0% | 22hPa | 2.7V | 03:22:25 | 01:56:57 | 00:00:00 | |
| OE5DRO-10 | 2026-09-03 18:26:54 | 49.07814 | 8.58961 | 144° | 20km/h | 26301m | 5.3m/s | -49.9°C | 3.2% | 22.0hPa | 2.7V | 00:00:00 | 00:00:00 | 00:00:00 | |
| DM0DOS-11 | 2026-09-03 18:26:53 | 49.07834 | 8.58951 | 174° | 18km/h | 26272m | 4.2m/s | -49.9°C | 3.2% | 22.1hPa | 2.6V | 03:22:01 | 01:56:51 | 00:00:00 | |
| BIOWL1-15 | 2026-09-03 18:26:51 | 49.07830 | 8.58951 | 181° | 16km/h | 26277m | 4.4m/s | -49.9°C | 0% | 22.1hPa | 2.7V | 03:22:25 | 01:56:52 | 00:00:00 | |
| DO1YAY-16 | 2026-09-03 18:26:47 | 49.07843 | 8.58946 | 147° | 18km/h | 26263m | 5.4m/s | -50.0°C | 0.6% | 22.2hPa | 2.7V | 00:00:00 | 00:00:00 | 00:00:00 | |
| DJ2DS-15 | 2026-09-03 18:26:46 | 49.07843 | 8.58946 | 148° | 27km/h | 26263m | 5.3m/s | -49.9°C | 3.2% | 22.1hPa | 2.7V | 00:00:00 | 01:56:49 | 00:00:00 | |
| IW2NTF | 2026-09-03 18:26:45 | 49.07874 | 8.58911 | 158° | 27km/h | 26233m | 4.3m/s | -50.2°C | 3.3% | 22.3hPa | 2.7V | 03:22:09 | 01:56:43 | 00:00:00 | |
| DL1ZP-14 | 2026-09-03 18:26:44 | 49.07852 | 8.58935 | 133° | 24km/h | 26253m | 4.6m/s | -50.0°C | 0.6% | 22.2hPa | 2.7V | 00:00:00 | 00:00:00 | 00:00:00 | |
| DL1XH-west | 2026-09-03 18:26:43 | 49.07856 | 8.58928 | 137° | 27km/h | 26248m | 4.5m/s | -50.1°C | 0% | 22.2hPa | 2.6V | 03:22:25 | 01:56:46 | 00:00:00 | |
| DO3MHA-11 | 2026-09-03 18:26:42 | 49.07862 | 8.58921 | 145° | 26km/h | 26243m | 5.9m/s | -50.1°C | 3.2% | 22.2hPa | 2.6V | 00:00:00 | 01:56:45 | 00:00:00 | |
| DL1XH1-15 | 2026-09-03 18:26:41 | 49.07898 | 8.58898 | 162° | 24km/h | 26212m | 4.8m/s | -50.2°C | 3.2% | 22.4hPa | 2.6V | 03:22:13 | 01:56:39 | 00:00:00 | |
| BIOWL1-15 | 2026-09-03 18:26:40 | 49.07887 | 8.58904 | 160° | 26km/h | 26223m | 5.8m/s | -50.2°C | 0% | 22.3hPa | 2.6V | 03:22:25 | 01:56:41 | 00:00:00 | |
| DK7TD | 2026-09-03 18:26:36 | 49.07898 | 8.58898 | 163° | 24km/h | 26212m | 4.8m/s | -50.2°C | 0% | 22.4hPa | 2.6V | 03:22:25 | 01:56:39 | 00:00:00 | |
| BIOWL1-15 | 2026-09-03 18:26:36 | 49.07933 | 8.58880 | 140° | 29km/h | 26182m | 5.8m/s | -50.4°C | 0% | 22.4hPa | 2.7V | 03:22:25 | 01:56:33 | 00:00:00 | |
| DL1XH-west | 2026-09-03 18:26:33 | 49.07916 | 8.58893 | 169° | 24km/h | 26197m | 4m/s | -50.3°C | 0% | 22.4hPa | 2.6V | 03:22:25 | 01:56:36 | 00:00:00 | |
| DL6DJ-15 | 2026-09-03 18:26:32 | 49.07927 | 8.58886 | 149° | 26km/h | 26188m | 5.7m/s | -50.3°C | 0.6% | 22.4hPa | 2.6V | 00:00:00 | 00:00:00 | 00:00:00 | |
| DL1XH1-15 | 2026-09-03 18:26:31 | 49.07960 | 8.58847 | 149° | 37km/h | 26162m | 4.8m/s | -50.5°C | 3.2% | 22.5hPa | 2.6V | 03:22:23 | 01:56:29 | 00:00:00 | |
| DJ2DS-15 | 2026-09-03 18:26:31 | 49.07933 | 8.58880 | 139° | 29km/h | 26182m | 5.8m/s | -50.4°C | 0.6% | 22.4hPa | 2.6V | 00:00:00 | 00:00:00 | 00:00:00 | |
| DD1CC8 | 2026-09-03 18:26:30 | 49.07933 | 8.58880 | 139° | 29km/h | 26182m | 5.8m/s | -50.4°C | 0.6% | 22.4hPa | 2.6V | 00:00:00 | 00:00:00 | 00:00:00 | |
| DL9PN | 2026-09-03 18:26:29 | 49.07939 | 8.58872 | 137° | 33km/h | 26177m | 4.9m/s | -50.4°C | 0.6% | 22.5hPa | 2.6V | 00:00:00 | 00:00:00 | 00:00:00 | |
| KANTATE | 2026-09-03 18:26:28 | 49.07939 | 8.58872 | 138° | 33km/h | 26177m | 4.9m/s | -50.4°C | 0.6% | 22.5hPa | 2.6V | 00:00:00 | 00:00:00 | 00:00:00 | |
| DJTTGO | 2026-09-03 18:26:27 | 49.07945 | 8.58863 | 140° | 35km/h | 26173m | 4.7m/s | -50.4°C | 0.6% | 22.5hPa | 2.6V | 00:00:00 | 00:00:00 | 00:00:00 | |
| DJ2DS-15 | 2026-09-03 18:26:26 | 49.07960 | 8.58847 | 150° | 22km/h | 26162m | 4.7m/s | -50.4°C | 3.2% | 22.5hPa | 2.6V | 00:00:00 | 01:56:29 | 00:00:00 | |
| DL0LBS | 2026-09-03 18:26:25 | 49.07960 | 8.58847 | 151° | 37km/h | 26162m | 4.8m/s | -50.5°C | 0.6% | 22.5hPa | 2.6V | 03:22:00 | 00:00:00 | 00:00:00 | |
| DL2OL | 2026-09-03 18:26:24 | 49.07968 | 8.58840 | 155° | 33km/h | 26158m | 4.1m/s | -50.5°C | 0.6% | 22.5hPa | 2.6V | 00:00:00 | 00:00:00 | 00:00:00 | |
| DM0DOS-11 | 2026-09-03 18:26:23 | 49.08005 | 8.58824 | 193° | 15km/h | 26122m | 4.3m/s | -50.8°C | 3.3% | 22.7hPa | 2.6V | 03:22:31 | 01:56:21 | 00:00:00 | |
| DL1XH-west | 2026-09-03 18:26:22 | 49.07988 | 8.58826 | 157° | 24km/h | 26143m | 4.7m/s | -50.7°C | 0% | 22.6hPa | 2.6V | 03:23:16 | 01:56:25 | 00:00:00 | |
| DO3MHA-11 | 2026-09-03 18:26:22 | 49.07988 | 8.58826 | 157° | 16km/h | 26143m | 4.7m/s | -50.6°C | 3.3% | 22.6hPa | 2.6V | 00:00:00 | 01:56:25 | 00:00:00 | |
| DL1XH1-15 | 2026-09-03 18:26:21 | 49.08011 | 8.58824 | 158° | 11km/h | 26113m | 5.1m/s | -51°C | 3.3% | 22.7hPa | 2.6V | 03:22:33 | 01:56:19 | 00:00:00 | |
| BIOWL1-15 | 2026-09-03 18:26:19 | 49.08001 | 8.58823 | 187° | 16km/h | 26127m | 5.8m/s | -50.7°C | 0% | 22.7hPa | 2.7V | 03:23:16 | 01:56:22 | 00:00:00 | |
| DL8DAS-15 | 2026-09-03 18:26:18 | 49.08001 | 8.58823 | 188° | 16km/h | 26127m | 5.8m/s | -50.7°C | 0.7% | 22.7hPa | 2.6V | 03:23:00 | 00:00:00 | 00:00:00 | |
| DB0ND-19 | 2026-09-03 18:26:16 | 49.08013 | 8.58821 | 130° | 11km/h | 26108m | 5.8m/s | -51.1°C | 0.6% | 22.7hPa | 2.6V | 00:00:00 | 00:00:00 | 00:00:00 | |
| DO1YAY-16 | 2026-09-03 18:26:15 | 49.08021 | 8.58804 | 127° | 20km/h | 26093m | 5.2m/s | -51.4°C | 0.7% | 22.8hPa | 2.6V | 00:00:00 | 00:00:00 | 00:00:00 | |
| DM0DOS-11 | 2026-09-03 18:26:13 | 49.08041 | 8.58785 | 161° | 26km/h | 26072m | 5.5m/s | -51.6°C | 3.5% | 22.8hPa | 2.6V | 03:22:41 | 01:56:11 | 00:00:00 | |
| DL1XH-west | 2026-09-03 18:26:12 | 49.08021 | 8.58804 | 128° | 22km/h | 26093m | 5.2m/s | -51.4°C | 0% | 22.8hPa | 2.6V | 03:23:16 | 01:56:15 | 00:00:00 | |
| DO3MHA-11 | 2026-09-03 18:26:12 | 49.08021 | 8.58804 | 128° | 24km/h | 26093m | 5.1m/s | -51.3°C | 3.5% | 22.7hPa | 2.6V | 00:00:00 | 01:56:15 | 00:00:00 | |
| DL1XH1-15 | 2026-09-03 18:26:11 | 49.08053 | 8.58780 | 163° | 24km/h | 26061m | 4.6m/s | -51.6°C | 3.5% | 22.9hPa | 2.6V | 03:22:43 | 01:56:09 | 00:00:00 | |
| BIOWL1-15 | 2026-09-03 18:26:11 | 49.08035 | 8.58788 | 159° | 26km/h | 26077m | 4.8m/s | -51.6°C | 0% | 22.8hPa | 2.7V | 03:23:16 | 01:56:12 | 00:00:00 | |
| DK7TD | 2026-09-03 18:26:06 | 49.08053 | 8.58780 | 164° | 24km/h | 26061m | 4.6m/s | -51.6°C | 0% | 22.9hPa | 2.6V | 03:24:58 | 01:56:09 | 00:00:00 | |
| DL1XH-west | 2026-09-03 18:26:01 | 49.08085 | 8.58768 | 156° | 26km/h | 26037m | 4.9m/s | -51.7°C | 0% | 23hPa | 2.6V | 03:23:16 | 01:56:04 | 00:00:00 | |
| BIOWL1-15 | 2026-09-03 18:25:58 | 49.08098 | 8.58750 | 125° | 24km/h | 26021m | 4.1m/s | -51.6°C | 0% | 23hPa | 2.6V | 03:23:16 | 01:56:01 | 00:00:00 | |
| DK7TD | 2026-09-03 18:25:55 | 49.08110 | 8.58732 | 150° | 20km/h | 26007m | 5.6m/s | -51.6°C | 0% | 23.1hPa | 2.7V | 03:24:58 | 01:55:58 | 00:00:00 | |
| DJ2DS-15 | 2026-09-03 18:25:54 | 49.08114 | 8.58728 | 162° | 20km/h | 26002m | 5.0m/s | -51.7°C | 0.7% | 23.1hPa | 2.6V | 00:00:00 | 00:00:00 | 00:00:00 | |
| DM0DOS-11 | 2026-09-03 18:25:53 | 49.08139 | 8.58727 | 180° | 16km/h | 25971m | 5.7m/s | -51.7°C | 3.5% | 23.2hPa | 2.6V | 03:23:01 | 01:55:51 | 00:00:00 | |
| DL1XH-west | 2026-09-03 18:25:51 | 49.08128 | 8.58726 | 180° | 15km/h | 25986m | 5.2m/s | -51.7°C | 0% | 23.1hPa | 2.6V | 03:23:16 | 01:55:54 | 00:00:00 | |
| DB0UT-7 | 2026-09-03 18:25:50 | 49.08131 | 8.58726 | 184° | 13km/h | 25981m | 4.4m/s | -51.6°C | 3.5% | 23.1hPa | 2.7V | 03:22:00 | 01:55:53 | 00:00:00 | |
| IW2NTF | 2026-09-03 18:25:49 | 49.08153 | 8.58715 | 115° | 18km/h | 25950m | 6.2m/s | -51.8°C | 3.4% | 23.3hPa | 2.7V | 03:23:05 | 01:55:47 | 00:00:00 | |
| BIOWL1-15 | 2026-09-03 18:25:48 | 49.08139 | 8.58727 | 181° | 16km/h | 25971m | 5.7m/s | -51.7°C | 0% | 23.2hPa | 2.6V | 03:23:16 | 01:55:51 | 00:00:00 | |
| DB0ND-19 | 2026-09-03 18:25:45 | 49.08153 | 8.58715 | 115° | 18km/h | 25950m | 6.2m/s | -51.8°C | 0.7% | 23.3hPa | 2.6V | 00:00:00 | 00:00:00 | 00:00:00 | |
| DL0LBS | 2026-09-03 18:25:44 | 49.08150 | 8.58720 | 134° | 16km/h | 25956m | 6.0m/s | -51.7°C | 0.7% | 23.3hPa | 2.6V | 03:23:00 | 00:00:00 | 00:00:00 | |
| DM0DOS-11 | 2026-09-03 18:25:43 | 49.08167 | 8.58683 | 175° | 11km/h | 25920m | 4.5m/s | -52°C | 3.5% | 23.4hPa | 2.6V | 03:23:11 | 01:55:41 | 00:00:00 | |
| DK7TD | 2026-09-03 18:25:42 | 49.08156 | 8.58700 | 109° | 20km/h | 25940m | 4.4m/s | -51.9°C | 0% | 23.3hPa | 2.6V | 03:24:58 | 01:55:45 | 00:00:00 | |
| DL1XH-west | 2026-09-03 18:25:40 | 49.08161 | 8.58687 | 135° | 16km/h | 25930m | 5m/s | -51.9°C | 0% | 23.3hPa | 2.7V | 03:23:16 | 01:55:43 | 00:00:00 | |
| IW2NTF | 2026-09-03 18:25:40 | 49.08174 | 8.58690 | 237° | 9km/h | 25899m | 4.3m/s | -52.1°C | 3.6% | 23.4hPa | 2.7V | 03:23:15 | 01:55:37 | 00:00:00 | |
| BIOWL1-15 | 2026-09-03 18:25:37 | 49.08173 | 8.58687 | 245° | 9km/h | 25904m | 5m/s | -52.1°C | 0% | 23.4hPa | 2.7V | 03:23:16 | 01:55:38 | 00:00:00 | |
| DF3TZ-5 | 2026-09-03 18:25:37 | 49.08172 | 8.58685 | 229° | 7km/h | 25910m | 6.0m/s | -52.0°C | 0.7% | 23.4hPa | 2.6V | 00:00:00 | 00:00:00 | 00:00:00 | |
| OE5DRO-10 | 2026-09-03 18:25:36 | 49.08172 | 8.58684 | 230° | 9km/h | 25910m | 5.9m/s | -52.0°C | 3.6% | 23.4hPa | 2.6V | 00:00:00 | 00:00:00 | 00:00:00 | |
| DL8DAS-14 | 2026-09-03 18:25:35 | 49.08174 | 8.58690 | 237° | 7km/h | 25899m | 4.3m/s | -52.1°C | 0.7% | 23.5hPa | 2.6V | 00:00:00 | 00:00:00 | 00:00:00 | |
| DM0DOS-11 | 2026-09-03 18:25:33 | 49.08183 | 8.58682 | 84° | 13km/h | 25867m | 5.1m/s | -52°C | 3.5% | 23.6hPa | 2.6V | 03:23:21 | 01:55:31 | 00:00:00 | |
| DL1XH-west | 2026-09-03 18:25:30 | 49.08181 | 8.58691 | 125° | 11km/h | 25879m | 5.1m/s | -52°C | 0% | 23.5hPa | 2.7V | 03:24:07 | 01:55:33 | 00:00:00 | |
| DK7TD | 2026-09-03 18:25:29 | 49.08182 | 8.58687 | 100° | 11km/h | 25873m | 6.2m/s | -52°C | 0% | 23.5hPa | 2.7V | 03:24:58 | 01:55:32 | 00:00:00 | |
| BIOWL1-15 | 2026-09-03 18:25:29 | 49.08182 | 8.58677 | 80° | 13km/h | 25863m | 4.1m/s | -52.1°C | 0% | 23.6hPa | 2.6V | 03:24:07 | 01:55:30 | 00:00:00 | |
| DD1CC8 | 2026-09-03 18:25:28 | 49.08182 | 8.58682 | 84° | 13km/h | 25867m | 5.1m/s | -52.0°C | 0.7% | 23.6hPa | 2.6V | 00:00:00 | 00:00:00 | 00:00:00 | |
| DL9PN | 2026-09-03 18:25:27 | 49.08182 | 8.58677 | 80° | 13km/h | 25863m | 4.1m/s | -52.1°C | 0.7% | 23.6hPa | 2.6V | 00:00:00 | 00:00:00 | 00:00:00 | |
| DJ2DS-15 | 2026-09-03 18:25:26 | 49.08182 | 8.58673 | 89° | 15km/h | 25859m | 4.6m/s | -52.1°C | 3.6% | 23.5hPa | 2.6V | 00:00:00 | 01:55:29 | 00:00:00 | |
| DL0LBS | 2026-09-03 18:25:25 | 49.08182 | 8.58669 | 113° | 9km/h | 25854m | 5.8m/s | -52.2°C | 0.7% | 23.6hPa | 2.6V | 03:24:00 | 00:00:00 | 00:00:00 | |
| AU51GT2 | 2026-09-03 18:25:24 | 49.08183 | 8.58666 | 145° | 9km/h | 25848m | 5.2m/s | -52.3°C | 0.7% | 23.6hPa | 2.6V | 00:00:00 | 00:00:00 | 00:00:00 | |
| DM0DOS-11 | 2026-09-03 18:25:23 | 49.08197 | 8.58661 | 144° | 11km/h | 25819m | 3.9m/s | -52.2°C | 3.6% | 23.8hPa | 2.6V | 03:23:31 | 01:55:21 | 00:00:00 | |
| DO3MHA-11 | 2026-09-03 18:25:22 | 49.08188 | 8.58664 | 179° | 16km/h | 25839m | 4.4m/s | -52.2°C | 3.6% | 23.6hPa | 2.6V | 00:00:00 | 01:55:25 | 00:00:00 | |
| DL1XH1-15 | 2026-09-03 18:25:21 | 49.08204 | 8.58653 | 138° | 22km/h | 25809m | 6.1m/s | -52.1°C | 3.6% | 23.8hPa | 2.6V | 03:23:33 | 01:55:19 | 00:00:00 | |
| DL1XH-west | 2026-09-03 18:25:20 | 49.08193 | 8.58664 | 176° | 7km/h | 25828m | 5.4m/s | -52.2°C | 0% | 23.7hPa | 2.7V | 03:24:07 | 01:55:23 | 00:00:00 | |
| DK7TD | 2026-09-03 18:25:19 | 49.08195 | 8.58663 | 157° | 7km/h | 25823m | 4.3m/s | -52.2°C | 0% | 23.7hPa | 2.7V | 03:24:58 | 01:55:22 | 00:00:00 | |
| BIOWL1-15 | 2026-09-03 18:25:16 | 49.08213 | 8.58639 | 135° | 29km/h | 25798m | 4.9m/s | -52°C | 0% | 23.8hPa | 2.7V | 03:24:07 | 01:55:17 | 00:00:00 | |
| DL4BBY-15 | 2026-09-03 18:25:16 | 49.08203 | 8.58653 | 139° | 18km/h | 25810m | 6.1m/s | -52.5°C | 0% | 0hPa | 2.6V | 00:00:00 | 00:00:00 | 00:00:00 | |
| DL2OL | 2026-09-03 18:25:15 | 49.08203 | 8.58653 | 139° | 22km/h | 25809m | 6.1m/s | -52.1°C | 0.7% | 23.8hPa | 2.6V | 03:24:00 | 00:00:00 | 00:00:00 | |
| DB0ND-19 | 2026-09-03 18:25:14 | 49.08218 | 8.58632 | 131° | 27km/h | 25793m | 4.2m/s | -52.0°C | 0.7% | 23.8hPa | 2.6V | 00:00:00 | 00:00:00 | 00:00:00 | |
| DM0DOS-11 | 2026-09-03 18:25:13 | 49.08231 | 8.58611 | 181° | 9km/h | 25769m | 5.1m/s | -51.9°C | 3.6% | 23.9hPa | 2.6V | 03:23:41 | 01:55:11 | 00:00:00 | |
| DO3MHA-11 | 2026-09-03 18:25:12 | 49.08222 | 8.58624 | 129° | 15km/h | 25789m | 5.1m/s | -51.9°C | 3.5% | 23.8hPa | 2.6V | 03:23:00 | 01:55:15 | 00:00:00 | |
| DL1XH1-15 | 2026-09-03 18:25:11 | 49.08237 | 8.58611 | 182° | 16km/h | 25758m | 4.6m/s | -51.9°C | 3.6% | 23.9hPa | 2.6V | 03:23:43 | 01:55:09 | 00:00:00 | |
| DL1XH-west | 2026-09-03 18:25:10 | 49.08227 | 8.58613 | 127° | 11km/h | 25778m | 4.6m/s | -52°C | 0% | 23.9hPa | 2.7V | 03:24:07 | 01:55:13 | 00:00:00 | |
| DK7TD | 2026-09-03 18:25:09 | 49.08229 | 8.58611 | 153° | 7km/h | 25773m | 4.4m/s | -51.9°C | 0% | 23.9hPa | 2.7V | 03:24:58 | 01:55:12 | 00:00:00 | |
| BIOWL1-15 | 2026-09-03 18:25:06 | 49.08237 | 8.58611 | 182° | 16km/h | 25758m | 4.6m/s | -51.9°C | 0% | 24hPa | 2.6V | 03:24:07 | 01:55:09 | 00:00:00 | |
| DF3TZ-5 | 2026-09-03 18:25:06 | 49.08242 | 8.58611 | 176° | 18km/h | 25754m | 3.9m/s | -51.9°C | 0.7% | 24.0hPa | 2.7V | 00:00:00 | 00:00:00 | 00:00:00 | |
| DJ2DS-15 | 2026-09-03 18:25:05 | 49.08242 | 8.58611 | 177° | 16km/h | 25754m | 3.9m/s | -51.9°C | 3.6% | 23.9hPa | 2.7V | 00:00:00 | 01:55:08 | 00:00:00 | |
| DL8DAS-14 | 2026-09-03 18:25:04 | 49.08251 | 8.58609 | 161° | 16km/h | 25744m | 5.5m/s | -52.0°C | 0.7% | 24.0hPa | 2.6V | 00:00:00 | 00:00:00 | 00:00:00 | |
| DM0DOS-11 | 2026-09-03 18:25:03 | 49.08270 | 8.58589 | 146° | 22km/h | 25719m | 5.8m/s | -51.9°C | 3.6% | 24.1hPa | 2.6V | 03:23:51 | 01:55:01 | 00:00:00 | |
| SONDE2-11 | 2026-09-03 18:25:02 | 49.08258 | 8.58602 | 141° | 16km/h | 25734m | 4.6m/s | -51.9°C | 0.7% | 24.1hPa | 2.6V | 00:00:00 | 00:00:00 | 00:00:00 | |
| DL1XH1-15 | 2026-09-03 18:25:01 | 49.08278 | 8.58581 | 149° | 18km/h | 25708m | 4.9m/s | -51.9°C | 3.6% | 24.1hPa | 2.6V | 03:23:53 | 01:54:59 | 00:00:00 | |
| DL1XH-west | 2026-09-03 18:24:59 | 49.08266 | 8.58593 | 141° | 20km/h | 25725m | 5.3m/s | -51.9°C | 0% | 24.1hPa | 2.7V | 03:24:07 | 01:55:02 | 00:00:00 | |
| BIOWL1-15 | 2026-09-03 18:24:57 | 49.08284 | 8.58574 | 137° | 11km/h | 25697m | 5.3m/s | -51.9°C | 0% | 24.2hPa | 2.7V | 03:24:07 | 01:54:57 | 00:00:00 | |
| DK7TD | 2026-09-03 18:24:55 | 49.08282 | 8.58577 | 145° | 15km/h | 25703m | 5.9m/s | -51.9°C | 0% | 24.2hPa | 2.7V | 03:24:58 | 01:54:58 | 00:00:00 | |
| DJTTGO | 2026-09-03 18:24:55 | 49.08282 | 8.58577 | 146° | 15km/h | 25703m | 5.9m/s | -51.9°C | 0.7% | 24.2hPa | 2.6V | 03:24:00 | 00:00:00 | 00:00:00 | |
| DH7VM-15 | 2026-09-03 18:24:54 | 49.08282 | 8.58577 | 146° | 15km/h | 25703m | 5.9m/s | -51.9°C | 0.7% | 24.2hPa | 2.6V | 00:00:00 | 00:00:00 | 00:00:00 | |
| DM0DOS-11 | 2026-09-03 18:24:53 | 49.08302 | 8.58556 | 144° | 20km/h | 25668m | 4.8m/s | -51.9°C | 3.5% | 24.3hPa | 2.6V | 03:24:01 | 01:54:51 | 00:00:00 | |
| DO3MHA-11 | 2026-09-03 18:24:52 | 49.08288 | 8.58569 | 141° | 16km/h | 25689m | 4.3m/s | -51.9°C | 3.6% | 24.2hPa | 2.6V | 00:00:00 | 01:54:55 | 00:00:00 | |
| DL1XH1-15 | 2026-09-03 18:24:51 | 49.08309 | 8.58546 | 129° | 18km/h | 25657m | 5.3m/s | -51.9°C | 3.5% | 24.3hPa | 2.6V | 03:24:03 | 01:54:49 | 00:00:00 | |
| DL1XH-west | 2026-09-03 18:24:49 | 49.08298 | 8.58560 | 149° | 20km/h | 25673m | 4.7m/s | -51.9°C | 0% | 24.3hPa | 2.7V | 03:24:07 | 01:54:52 | 00:00:00 | |
| BIOWL1-15 | 2026-09-03 18:24:45 | 49.08311 | 8.58541 | 125° | 16km/h | 25652m | 4.4m/s | -51.9°C | 0% | 24.4hPa | 2.7V | 03:24:07 | 01:54:48 | 00:00:00 | |
| DL0LBS | 2026-09-03 18:24:44 | 49.08311 | 8.58541 | 126° | 16km/h | 25652m | 4.4m/s | -51.9°C | 0.7% | 24.3hPa | 2.6V | 03:24:00 | 00:00:00 | 00:00:00 | |
| DM0DOS-11 | 2026-09-03 18:24:43 | 49.08334 | 8.58516 | 146° | 11km/h | 25616m | 5.1m/s | -51.8°C | 3.5% | 24.5hPa | 2.6V | 03:24:11 | 01:54:41 | 00:00:00 | |
| DO3MHA-11 | 2026-09-03 18:24:42 | 49.08321 | 8.58527 | 149° | 16km/h | 25637m | 5.4m/s | -51.7°C | 3.5% | 24.4hPa | 2.6V | 00:00:00 | 01:54:45 | 00:00:00 | |
| DL1XH1-15 | 2026-09-03 18:24:41 | 49.08339 | 8.58512 | 162° | 13km/h | 25607m | 4.7m/s | -51.8°C | 3.5% | 24.6hPa | 2.6V | 03:24:13 | 01:54:39 | 00:00:00 | |
| DL1XH-west | 2026-09-03 18:24:38 | 49.08334 | 8.58516 | 147° | 11km/h | 25616m | 5.1m/s | -51.8°C | 0% | 24.5hPa | 2.6V | 03:24:58 | 01:54:41 | 00:00:00 | |
| BIOWL1-15 | 2026-09-03 18:24:34 | 49.08347 | 8.58510 | 169° | 20km/h | 25596m | 5.3m/s | -51.8°C | 0% | 24.6hPa | 2.7V | 03:24:58 | 01:54:37 | 00:00:00 | |
| DL8DAS-14 | 2026-09-03 18:24:33 | 49.08358 | 8.58505 | 160° | 22km/h | 25586m | 5.2m/s | -51.9°C | 0.7% | 24.6hPa | 2.6V | 00:00:00 | 00:00:00 | 00:00:00 | |
| DO3MHA-11 | 2026-09-03 18:24:32 | 49.08358 | 8.58505 | 161° | 22km/h | 25586m | 5.2m/s | -51.9°C | 3.5% | 24.6hPa | 2.6V | 03:24:00 | 01:54:35 | 00:00:00 | |
| DL1XH1-15 | 2026-09-03 18:24:31 | 49.08388 | 8.58481 | 160° | 26km/h | 25555m | 5.1m/s | -52.1°C | 3.6% | 24.7hPa | 2.6V | 03:24:23 | 01:54:29 | 00:00:00 | |
| DL1XH-west | 2026-09-03 18:24:27 | 49.08382 | 8.58484 | 155° | 24km/h | 25560m | 5.8m/s | -52.1°C | 0% | 24.7hPa | 2.6V | 03:24:58 | 01:54:30 | 00:00:00 | |
| BIOWL1-15 | 2026-09-03 18:24:24 | 49.08399 | 8.58475 | 161° | 22km/h | 25546m | 4.4m/s | -52.2°C | 0% | 24.8hPa | 2.7V | 03:24:58 | 01:54:27 | 00:00:00 | |
| DK7TD | 2026-09-03 18:24:23 | 49.08404 | 8.58472 | 155° | 18km/h | 25541m | 6m/s | -52.2°C | 0% | 24.8hPa | 2.6V | 03:24:58 | 01:54:26 | 00:00:00 | |
| DO3MHA-11 | 2026-09-03 18:24:22 | 49.08408 | 8.58469 | 147° | 11km/h | 25536m | 5.4m/s | -52.1°C | 3.6% | 24.8hPa | 2.6V | 00:00:00 | 01:54:25 | 00:00:00 | |
| DL1XH1-15 | 2026-09-03 18:24:21 | 49.08422 | 8.58459 | 159° | 11km/h | 25504m | 5.2m/s | -52°C | 3.6% | 24.9hPa | 2.6V | 03:24:33 | 01:54:19 | 00:00:00 | |
| DL1XH-west | 2026-09-03 18:24:16 | 49.08422 | 8.58459 | 160° | 11km/h | 25504m | 5.2m/s | -52°C | 0% | 24.9hPa | 2.6V | 03:24:58 | 01:54:19 | 00:00:00 | |
| BIOWL1-15 | 2026-09-03 18:24:13 | 49.08428 | 8.58451 | 132° | 13km/h | 25489m | 4.1m/s | -52°C | 0% | 25hPa | 2.6V | 03:24:58 | 01:54:16 | 00:00:00 | |
| DK7TD | 2026-09-03 18:24:12 | 49.08431 | 8.58448 | 140° | 15km/h | 25485m | 4.9m/s | -52°C | 0% | 25hPa | 2.6V | 03:24:58 | 01:54:15 | 00:00:00 | |
| DO3MHA-11 | 2026-09-03 18:24:12 | 49.08430 | 8.58447 | 141° | 11km/h | 25485m | 4.9m/s | -52.0°C | 3.6% | 25.0hPa | 2.6V | 00:00:00 | 01:54:15 | 00:00:00 | |
| DL1XH1-15 | 2026-09-03 18:24:11 | 49.08451 | 8.58433 | 137° | 7km/h | 25452m | 4.4m/s | -52°C | 3.6% | 25.1hPa | 2.6V | 03:24:43 | 01:54:09 | 00:00:00 | |
| DL1XH-west | 2026-09-03 18:24:06 | 49.08451 | 8.58433 | 137° | 7km/h | 25452m | 4.4m/s | -52.1°C | 0% | 25.1hPa | 2.6V | 03:24:58 | 01:54:09 | 00:00:00 | |
| BIOWL1-15 | 2026-09-03 18:24:02 | 49.08454 | 8.58432 | 217° | 5km/h | 25433m | 5m/s | -52°C | 0% | 25.2hPa | 2.6V | 03:24:58 | 01:54:05 | 00:00:00 | |
| DL8DAS-14 | 2026-09-03 18:24:02 | 49.08455 | 8.58433 | 209° | 4km/h | 25429m | 4.4m/s | -52.0°C | 0.7% | 25.2hPa | 2.6V | 00:00:00 | 00:00:00 | 00:00:00 | |
| DL1XH1-15 | 2026-09-03 18:24:01 | 49.08459 | 8.58426 | 121° | 11km/h | 25403m | 4.7m/s | -51.9°C | 3.6% | 25.3hPa | 2.6V | 03:24:53 | 01:53:59 | 00:00:00 | |
| DL1XH-west | 2026-09-03 18:23:55 | 49.08461 | 8.58422 | 140° | 13km/h | 25398m | 5.7m/s | -51.9°C | 0% | 25.4hPa | 2.7V | 03:24:58 | 01:53:58 | 00:00:00 | |
| DD1CC8 | 2026-09-03 18:23:55 | 49.08464 | 8.58420 | 159° | 13km/h | 25393m | 5.7m/s | -51.9°C | 0.7% | 25.3hPa | 2.6V | 00:00:00 | 00:00:00 | 00:00:00 | |
| DL9PN | 2026-09-03 18:23:54 | 49.08468 | 8.58419 | 171° | 15km/h | 25387m | 4.7m/s | -51.9°C | 0.7% | 25.4hPa | 2.6V | 00:00:00 | 00:00:00 | 00:00:00 | |
| DM0DOS-11 | 2026-09-03 18:23:53 | 49.08478 | 8.58418 | 171° | 0km/h | 25362m | 4.9m/s | -51.8°C | 3.6% | 25.5hPa | 2.6V | 03:25:01 | 01:53:51 | 00:00:00 | |
| BIOWL1-15 | 2026-09-03 18:23:52 | 49.08471 | 8.58418 | 178° | 15km/h | 25383m | 4.3m/s | -51.9°C | 0% | 25.4hPa | 2.6V | 03:24:58 | 01:53:55 | 00:00:00 | |
| DK7TD | 2026-09-03 18:23:52 | 49.08474 | 8.58418 | 179° | 11km/h | 25378m | 5.4m/s | -51.9°C | 0% | 25.4hPa | 2.6V | 03:24:58 | 01:53:54 | 00:00:00 | |
| AU51GT2 | 2026-09-03 18:23:51 | 49.08474 | 8.58418 | 179° | 9km/h | 25378m | 5.4m/s | -51.9°C | 0.7% | 25.4hPa | 2.7V | 00:00:00 | 00:00:00 | 00:00:00 | |
| IW2NTF | 2026-09-03 18:23:50 | 49.08478 | 8.58419 | 254° | 0km/h | 25346m | 4.4m/s | -51.8°C | 3.6% | 25.6hPa | 2.7V | 03:25:04 | 01:53:48 | 00:00:00 | |
| DL1XH-west | 2026-09-03 18:23:44 | 49.08478 | 8.58419 | 60° | 2km/h | 25342m | 4.8m/s | -51.7°C | 0% | 25.6hPa | 2.7V | 03:25:49 | 01:53:47 | 00:00:00 | |
| DM0DOS-11 | 2026-09-03 18:23:43 | 49.08484 | 8.58413 | 192° | 16km/h | 25312m | 5.1m/s | -51.6°C | 3.6% | 25.7hPa | 2.6V | 03:25:11 | 01:53:41 | 00:00:00 | |
| BIOWL1-15 | 2026-09-03 18:23:42 | 49.08477 | 8.58416 | 79° | 5km/h | 25331m | 4.5m/s | -51.7°C | 0% | 25.6hPa | 2.6V | 03:25:49 | 01:53:45 | 00:00:00 | |
| DO3MHA-11 | 2026-09-03 18:23:42 | 49.08477 | 8.58416 | 79° | 11km/h | 25332m | 4.5m/s | -51.7°C | 3.6% | 25.6hPa | 2.6V | 00:00:00 | 01:53:45 | 00:00:00 | |
| DL1XH1-15 | 2026-09-03 18:23:41 | 49.08493 | 8.58416 | 194° | 16km/h | 25302m | 4.7m/s | -51.6°C | 3.5% | 25.7hPa | 2.6V | 03:25:13 | 01:53:39 | 00:00:00 | |
| DK7TD | 2026-09-03 18:23:41 | 49.08477 | 8.58414 | 113° | 5km/h | 25327m | 4m/s | -51.7°C | 0% | 25.6hPa | 2.6V | 03:25:49 | 01:53:44 | 00:00:00 | |
| DL1XH-west | 2026-09-03 18:23:34 | 49.08499 | 8.58419 | 196° | 7km/h | 25292m | 5.2m/s | -51.5°C | 0% | 25.7hPa | 2.7V | 03:25:49 | 01:53:37 | 00:00:00 | |
| BIOWL1-15 | 2026-09-03 18:23:33 | 49.08501 | 8.58420 | 244° | 2km/h | 25278m | 5m/s | -51.5°C | 0% | 25.8hPa | 2.6V | 03:25:49 | 01:53:34 | 00:00:00 | |
| DK7TD | 2026-09-03 18:23:30 | 49.08502 | 8.58421 | 229° | 5km/h | 25273m | 5.7m/s | -51.5°C | 0% | 25.9hPa | 2.7V | 03:25:49 | 01:53:33 | 00:00:00 | |
| DJ2KF-10 | 2026-09-03 18:23:29 | 49.08503 | 8.58423 | 221° | 11km/h | 25268m | 5.4m/s | -51.5°C | 3.5% | 25.8hPa | 2.6V | 00:00:00 | 01:53:32 | 00:00:00 | |
| IW2NTF | 2026-09-03 18:23:28 | 49.08518 | 8.58428 | 170° | 13km/h | 25237m | 4.9m/s | -51.5°C | 3.5% | 26hPa | 2.6V | 03:25:26 | 01:53:26 | 00:00:00 | |
| BIOWL9-15 | 2026-09-03 18:23:28 | 49.08505 | 8.58425 | 214° | 11km/h | 25262m | 4.9m/s | -51.5°C | 0.7% | 25.9hPa | 2.6V | 00:00:00 | 00:00:00 | 00:00:00 | |
| DB0UT-9 | 2026-09-03 18:23:27 | 49.08505 | 8.58425 | 215° | 11km/h | 25262m | 4.9m/s | -51.5°C | 0.7% | 25.9hPa | 2.6V | 03:25:00 | 00:00:00 | 00:00:00 | |
| DJ2DS-15 | 2026-09-03 18:23:25 | 49.08512 | 8.58429 | 181° | 13km/h | 25247m | 5.7m/s | -51.5°C | 3.5% | 25.9hPa | 2.6V | 03:25:00 | 01:53:28 | 00:00:00 | |
| DD1CC8 | 2026-09-03 18:23:24 | 49.08518 | 8.58428 | 170° | 13km/h | 25237m | 4.9m/s | -51.5°C | 0.7% | 26.0hPa | 2.6V | 00:00:00 | 00:00:00 | 00:00:00 | |
| DM0DOS-11 | 2026-09-03 18:23:23 | 49.08537 | 8.58430 | 196° | 11km/h | 25211m | 6.1m/s | -51.5°C | 3.5% | 26.1hPa | 2.6V | 03:25:31 | 01:53:21 | 00:00:00 | |
| DL1XH-west | 2026-09-03 18:23:23 | 49.08518 | 8.58428 | 170° | 13km/h | 25237m | 4.9m/s | -51.5°C | 0% | 26hPa | 2.6V | 03:25:49 | 01:53:26 | 00:00:00 | |
| BIOWL1-15 | 2026-09-03 18:23:21 | 49.08526 | 8.58427 | 182° | 18km/h | 25225m | 5m/s | -51.5°C | 0% | 26hPa | 2.6V | 03:25:49 | 01:53:24 | 00:00:00 | |
| DK7TD | 2026-09-03 18:23:19 | 49.08534 | 8.58429 | 191° | 15km/h | 25216m | 4.7m/s | -51.5°C | 0% | 26.1hPa | 2.7V | 03:25:49 | 01:53:22 | 00:00:00 | |
| HEMX73-11 | 2026-09-03 18:23:18 | 49.08534 | 8.58429 | 192° | 15km/h | 25217m | 4.7m/s | -51.5°C | 0.7% | 26.1hPa | 2.6V | 03:25:00 | 00:00:00 | 00:00:00 | |
| DK5PH-5 | 2026-09-03 18:23:17 | 49.08539 | 8.58431 | 207° | 13km/h | 25206m | 5.1m/s | -51.4°C | 3.5% | 26.1hPa | 2.6V | 00:00:00 | 01:53:20 | 00:00:00 | |
| DF1GD-15 | 2026-09-03 18:23:16 | 49.08539 | 8.58431 | 207° | 7km/h | 25206m | 5.1m/s | -51.5°C | 0.7% | 26.1hPa | 2.7V | 03:25:00 | 00:00:00 | 00:00:00 | |
| IW2NTF | 2026-09-03 18:23:15 | 49.08559 | 8.58439 | 180° | 13km/h | 25170m | 5.8m/s | -51.5°C | 3.5% | 26.3hPa | 2.7V | 03:25:39 | 01:53:13 | 00:00:00 | |
| DN1GJH-1 | 2026-09-03 18:23:14 | 49.08542 | 8.58434 | 213° | 7km/h | 25196m | 4.9m/s | -51.5°C | 0.7% | 26.2hPa | 2.6V | 03:25:00 | 00:00:00 | 00:00:00 | |
| DM0DOS-11 | 2026-09-03 18:23:13 | 49.08564 | 8.58439 | 187° | 11km/h | 25160m | 3.9m/s | -51.5°C | 3.5% | 26.3hPa | 2.6V | 03:25:41 | 01:53:11 | 00:00:00 | |
| BIOWL1-15 | 2026-09-03 18:23:12 | 49.08558 | 8.58439 | 181° | 13km/h | 25170m | 5.8m/s | -51.5°C | 0% | 26.3hPa | 2.7V | 03:25:49 | 01:53:13 | 00:00:00 | |
| DL1XH-west | 2026-09-03 18:23:12 | 49.08551 | 8.58438 | 189° | 16km/h | 25180m | 4.8m/s | -51.5°C | 0% | 26.2hPa | 2.6V | 03:25:49 | 01:53:15 | 00:00:00 | |
| DO3MHA-11 | 2026-09-03 18:23:12 | 49.08551 | 8.58438 | 189° | 13km/h | 25180m | 4.8m/s | -51.5°C | 3.5% | 26.2hPa | 2.6V | 03:25:00 | 01:53:15 | 00:00:00 | |
| DL1XH1-15 | 2026-09-03 18:23:11 | 49.08570 | 8.58442 | 207° | 13km/h | 25150m | 5.8m/s | -51.5°C | 3.5% | 26.3hPa | 2.6V | 03:25:43 | 01:53:09 | 00:00:00 | |
| DK7TD | 2026-09-03 18:23:09 | 49.08562 | 8.58439 | 180° | 11km/h | 25165m | 4.8m/s | -51.5°C | 0% | 26.3hPa | 2.7V | 03:25:49 | 01:53:12 | 00:00:00 | |
| CB1BUN | 2026-09-03 18:23:08 | 49.08562 | 8.58438 | 181° | 11km/h | 25165m | 4.8m/s | -51.5°C | 0.7% | 26.3hPa | 2.6V | 03:25:00 | 00:00:00 | 00:00:00 | |
| DM7RM-13 | 2026-09-03 18:23:07 | 49.08564 | 8.58439 | 189° | 11km/h | 25160m | 3.9m/s | -51.5°C | 0.7% | 26.3hPa | 2.6V | 03:25:00 | 00:00:00 | 00:00:00 | |
| DL1ZP-14 | 2026-09-03 18:23:06 | 49.08570 | 8.58442 | 207° | 13km/h | 25150m | 5.8m/s | -51.5°C | 0.7% | 26.3hPa | 2.6V | 00:00:00 | 00:00:00 | 00:00:00 | |
| IW2NTF | 2026-09-03 18:23:05 | 49.08580 | 8.58457 | 232° | 4km/h | 25120m | 4.6m/s | -51.4°C | 3.5% | 26.4hPa | 2.7V | 03:25:49 | 01:53:03 | 00:00:00 | |
| DL1XH-west | 2026-09-03 18:23:01 | 49.08580 | 8.58456 | 248° | 4km/h | 25125m | 5.1m/s | -51.4°C | 0% | 26.4hPa | 2.6V | 03:25:49 | 01:53:04 | 00:00:00 | |
| BIOWL1-15 | 2026-09-03 18:23:00 | 49.08581 | 8.58457 | 233° | 4km/h | 25120m | 4.6m/s | -51.4°C | 0% | 26.5hPa | 2.7V | 03:25:49 | 01:53:03 | 00:00:00 | |
| DK7TD | 2026-09-03 18:22:59 | 49.08581 | 8.58458 | 208° | 5km/h | 25115m | 5.9m/s | -51.5°C | 0% | 26.5hPa | 2.7V | 03:26:40 | 01:53:02 | 00:00:00 | |
| DL1XH-west | 2026-09-03 18:22:51 | 49.08610 | 8.58457 | 189° | 20km/h | 25073m | 5.5m/s | -51.5°C | 0% | 26.6hPa | 2.6V | 03:26:40 | 01:52:54 | 00:00:00 | |
| DB0UT-7 | 2026-09-03 18:22:50 | 49.08615 | 8.58459 | 200° | 18km/h | 25069m | 4.4m/s | -51.5°C | 3.5% | 26.6hPa | 2.7V | 00:00:00 | 01:52:53 | 00:00:00 | |
| DM0DOS-11 | 2026-09-03 18:22:49 | 49.08625 | 8.58480 | 242° | 13km/h | 25038m | 5.7m/s | -51.6°C | 3.5% | 26.8hPa | 2.7V | 03:26:05 | 01:52:47 | 00:00:00 | |
| BIOWL1-15 | 2026-09-03 18:22:49 | 49.08619 | 8.58462 | 211° | 16km/h | 25064m | 4.5m/s | -51.5°C | 0% | 26.7hPa | 2.7V | 03:26:40 | 01:52:52 | 00:00:00 | |
| DK7TD | 2026-09-03 18:22:48 | 49.08622 | 8.58465 | 227° | 13km/h | 25059m | 6.2m/s | -51.5°C | 0% | 26.7hPa | 2.6V | 03:26:40 | 01:52:51 | 00:00:00 | |
| DK5PH-5 | 2026-09-03 18:22:47 | 49.08623 | 8.58469 | 254° | 18km/h | 25053m | 5.4m/s | -51.5°C | 3.4% | 26.7hPa | 2.6V | 03:26:00 | 01:52:50 | 00:00:00 | |
| DB0UT-9 | 2026-09-03 18:22:46 | 49.08623 | 8.58469 | 254° | 9km/h | 25053m | 5.5m/s | -51.6°C | 0.7% | 26.7hPa | 2.6V | 03:26:00 | 00:00:00 | 00:00:00 | |
| DJ2DS-15 | 2026-09-03 18:22:45 | 49.08623 | 8.58476 | 263° | 16km/h | 25043m | 4.6m/s | -51.5°C | 3.4% | 26.7hPa | 2.6V | 00:00:00 | 01:52:48 | 00:00:00 | |
| DO3MHA-11 | 2026-09-03 18:22:42 | 49.08630 | 8.58487 | 201° | 20km/h | 25028m | 4.6m/s | -51.6°C | 3.5% | 26.8hPa | 2.6V | 00:00:00 | 01:52:45 | 00:00:00 | |
| DL1XH1-15 | 2026-09-03 18:22:41 | 49.08662 | 8.58486 | 181° | 24km/h | 24997m | 6m/s | -51.7°C | 3.6% | 27hPa | 2.6V | 03:26:13 | 01:52:39 | 00:00:00 | |
| DL1XH-west | 2026-09-03 18:22:40 | 49.08640 | 8.58489 | 177° | 20km/h | 25017m | 5.8m/s | -51.7°C | 0% | 26.9hPa | 2.7V | 03:26:40 | 01:52:43 | 00:00:00 | |
| DL4BBY-15 | 2026-09-03 18:22:40 | 49.08639 | 8.58489 | 177° | 18km/h | 25017m | 5.7m/s | -52.1°C | 0% | 0hPa | 2.7V | 00:00:00 | 00:00:00 | 00:00:00 | |
| DM0DOS-11 | 2026-09-03 18:22:39 | 49.08672 | 8.58488 | 195° | 18km/h | 24987m | 4.5m/s | -51.7°C | 3.6% | 27hPa | 2.7V | 03:26:15 | 01:52:37 | 00:00:00 | |
| BIOWL1-15 | 2026-09-03 18:22:38 | 49.08662 | 8.58486 | 182° | 24km/h | 24997m | 6m/s | -51.7°C | 0% | 27hPa | 2.6V | 03:26:40 | 01:52:39 | 00:00:00 | |
| OE5DRO-10 | 2026-09-03 18:22:37 | 49.08656 | 8.58486 | 176° | 15km/h | 25002m | 4.9m/s | -51.6°C | 3.6% | 26.9hPa | 2.7V | 03:26:00 | 00:00:00 | 00:00:00 | |
| DK7TD | 2026-09-03 18:22:37 | 49.08656 | 8.58486 | 175° | 24km/h | 25002m | 5m/s | -51.7°C | 0% | 26.9hPa | 2.6V | 03:26:40 | 01:52:40 | 00:00:00 | |
| DL1ZP-14 | 2026-09-03 18:22:35 | 49.08668 | 8.58486 | 188° | 22km/h | 24991m | 4.8m/s | -51.7°C | 0.7% | 27.0hPa | 2.7V | 00:00:00 | 00:00:00 | 00:00:00 | |
| DO3MHA-11 | 2026-09-03 18:22:32 | 49.08678 | 8.58492 | 216° | 18km/h | 24976m | 5.5m/s | -51.7°C | 3.5% | 27.0hPa | 2.6V | 03:26:00 | 01:52:35 | 00:00:00 | |
| DL1XH1-15 | 2026-09-03 18:22:31 | 49.08698 | 8.58495 | 166° | 29km/h | 24946m | 4.9m/s | -51.8°C | 3.6% | 27.1hPa | 2.6V | 03:26:23 | 01:52:29 | 00:00:00 | |
| DL1XH-west | 2026-09-03 18:22:30 | 49.08681 | 8.58495 | 212° | 7km/h | 24967m | 4.1m/s | -51.8°C | 0% | 27.1hPa | 2.7V | 03:26:40 | 01:52:33 | 00:00:00 | |
| BIOWL1-15 | 2026-09-03 18:22:27 | 49.08692 | 8.58497 | 174° | 24km/h | 24952m | 5.3m/s | -51.8°C | 0% | 27.1hPa | 2.6V | 03:26:40 | 01:52:30 | 00:00:00 | |
| DM7RM-13 | 2026-09-03 18:22:27 | 49.08692 | 8.58497 | 175° | 24km/h | 24952m | 5.3m/s | -51.8°C | 0.7% | 27.1hPa | 2.6V | 03:26:00 | 00:00:00 | 00:00:00 | |
| BIOWL9-15 | 2026-09-03 18:22:26 | 49.08698 | 8.58495 | 166° | 27km/h | 24947m | 4.9m/s | -51.8°C | 0.7% | 27.2hPa | 2.6V | 00:00:00 | 00:00:00 | 00:00:00 | |
| DJ2DS-15 | 2026-09-03 18:22:25 | 49.08705 | 8.58492 | 160° | 22km/h | 24942m | 5.1m/s | -51.8°C | 3.5% | 27.1hPa | 2.6V | 00:00:00 | 01:52:28 | 00:00:00 | |
| DB0NH | 2026-09-03 18:22:23 | 49.08719 | 8.58481 | 149° | 18km/h | 24931m | 4.5m/s | -51.7°C | 3.5% | 27.2hPa | 2.6V | 00:00:00 | 01:52:26 | 00:00:00 | |
| DO3MHA-11 | 2026-09-03 18:22:22 | 49.08725 | 8.58476 | 150° | 18km/h | 24927m | 4.1m/s | -51.7°C | 3.5% | 27.2hPa | 2.6V | 00:00:00 | 01:52:25 | 00:00:00 | |
| DL1XH1-15 | 2026-09-03 18:22:21 | 49.08751 | 8.58468 | 167° | 13km/h | 24895m | 5.1m/s | -51.7°C | 3.5% | 27.4hPa | 2.6V | 03:26:33 | 01:52:19 | 00:00:00 | |
| DL1XH-west | 2026-09-03 18:22:19 | 49.08739 | 8.58469 | 178° | 18km/h | 24911m | 5.1m/s | -51.7°C | 0% | 27.3hPa | 2.7V | 03:26:40 | 01:52:22 | 00:00:00 | |
| BIOWL1-15 | 2026-09-03 18:22:16 | 49.08758 | 8.58465 | 162° | 18km/h | 24886m | 4.7m/s | -51.7°C | 0% | 27.4hPa | 2.7V | 03:26:40 | 01:52:17 | 00:00:00 | |
| DK7TD | 2026-09-03 18:22:16 | 49.08750 | 8.58468 | 167° | 13km/h | 24895m | 5.1m/s | -51.7°C | 0% | 27.4hPa | 2.6V | 03:26:40 | 01:52:19 | 00:00:00 | |
| NBG1-10 | 2026-09-03 18:22:16 | 49.08750 | 8.58468 | 168° | 16km/h | 24895m | 5.1m/s | -51.6°C | 3.5% | 27.4hPa | 2.6V | 00:00:00 | 01:52:19 | 00:00:00 | |
| OE5DRO-10 | 2026-09-03 18:22:15 | 49.08754 | 8.58466 | 162° | 16km/h | 24891m | 4.0m/s | -51.6°C | 3.5% | 27.4hPa | 2.6V | 00:00:00 | 00:00:00 | 00:00:00 | |
| DF1GD-15 | 2026-09-03 18:22:14 | 49.08753 | 8.58467 | 163° | 15km/h | 24891m | 4.0m/s | -51.7°C | 0.7% | 27.4hPa | 2.6V | 03:26:00 | 00:00:00 | 00:00:00 | |
| DO3MHA-11 | 2026-09-03 18:22:12 | 49.08768 | 8.58460 | 163° | 20km/h | 24875m | 5.1m/s | -51.6°C | 3.5% | 27.4hPa | 2.6V | 00:00:00 | 01:52:15 | 00:00:00 | |
| DL1XH1-15 | 2026-09-03 18:22:11 | 49.08797 | 8.58431 | 147° | 18km/h | 24846m | 5.2m/s | -51.8°C | 3.5% | 27.6hPa | 2.6V | 03:26:43 | 01:52:09 | 00:00:00 | |
| DO8TBO-1 | 2026-09-03 18:22:11 | 49.08773 | 8.58456 | 159° | 18km/h | 24870m | 4.3m/s | -51.7°C | 3.5% | 27.5hPa | 2.7V | 00:00:00 | 01:52:14 | 00:00:00 | |
| DJTTGO | 2026-09-03 18:22:10 | 49.08774 | 8.58456 | 159° | 26km/h | 24870m | 4.3m/s | -51.7°C | 0.7% | 27.5hPa | 2.7V | 00:00:00 | 00:00:00 | 00:00:00 | |
| DM0DOS-11 | 2026-09-03 18:22:09 | 49.08805 | 8.58428 | 178° | 15km/h | 24835m | 5m/s | -51.8°C | 3.5% | 27.7hPa | 2.7V | 03:26:45 | 01:52:07 | 00:00:00 | |
| DL1XH-west | 2026-09-03 18:22:08 | 49.08789 | 8.58441 | 137° | 22km/h | 24855m | 4.4m/s | -51.8°C | 0% | 27.6hPa | 2.6V | 03:27:31 | 01:52:11 | 00:00:00 | |
| BIOWL1-15 | 2026-09-03 18:22:06 | 49.08801 | 8.58429 | 164° | 16km/h | 24841m | 5.8m/s | -51.8°C | 0% | 27.6hPa | 2.7V | 03:27:31 | 01:52:08 | 00:00:00 | |
| DK7TD | 2026-09-03 18:22:06 | 49.08797 | 8.58431 | 148° | 18km/h | 24846m | 5.2m/s | -51.8°C | 0% | 27.6hPa | 2.6V | 03:27:31 | 01:52:09 | 00:00:00 | |
| DJ2DS-15 | 2026-09-03 18:22:05 | 49.08801 | 8.58429 | 164° | 13km/h | 24841m | 5.7m/s | -51.8°C | 3.5% | 27.6hPa | 2.7V | 03:26:00 | 01:52:08 | 00:00:00 | |
| DL1ZP-14 | 2026-09-03 18:22:04 | 49.08805 | 8.58428 | 178° | 15km/h | 24835m | 5.0m/s | -51.8°C | 0.7% | 27.7hPa | 2.7V | 00:00:00 | 00:00:00 | 00:00:00 | |
| DO3MHA-11 | 2026-09-03 18:22:02 | 49.08811 | 8.58429 | 187° | 13km/h | 24826m | 5.0m/s | -51.8°C | 3.5% | 27.7hPa | 2.6V | 00:00:00 | 01:52:05 | 00:00:00 | |
| DL1XH1-15 | 2026-09-03 18:22:01 | 49.08826 | 8.58418 | 155° | 16km/h | 24794m | 4.8m/s | -52.1°C | 3.6% | 27.8hPa | 2.6V | 03:26:53 | 01:51:59 | 00:00:00 | |
| AZAK | 2026-09-03 18:22:00 | 49.08814 | 8.58429 | 176° | 9km/h | 24820m | 6.0m/s | -51.9°C | 0.7% | 27.7hPa | 2.7V | 03:27:00 | 00:00:00 | 00:00:00 | |
| DM0DOS-11 | 2026-09-03 18:21:59 | 49.08833 | 8.58413 | 153° | 15km/h | 24785m | 4.9m/s | -52.1°C | 3.6% | 27.9hPa | 2.7V | 03:26:55 | 01:51:57 | 00:00:00 | |
| DL1XH-west | 2026-09-03 18:21:58 | 49.08820 | 8.58423 | 142° | 11km/h | 24805m | 4.9m/s | -52°C | 0% | 27.8hPa | 2.6V | 03:27:31 | 01:52:01 | 00:00:00 | |
| BIOWL1-15 | 2026-09-03 18:21:57 | 49.08829 | 8.58416 | 157° | 16km/h | 24790m | 4.3m/s | -52.1°C | 0% | 27.9hPa | 2.7V | 03:27:31 | 01:51:58 | 00:00:00 | |
| DK7TD | 2026-09-03 18:21:56 | 49.08826 | 8.58418 | 155° | 16km/h | 24794m | 4.8m/s | -52.1°C | 0% | 27.8hPa | 2.6V | 03:27:31 | 01:51:59 | 00:00:00 | |
| BIOWL9-15 | 2026-09-03 18:21:55 | 49.08833 | 8.58413 | 153° | 15km/h | 24785m | 4.9m/s | -52.1°C | 0.7% | 27.9hPa | 2.6V | 00:00:00 | 00:00:00 | 00:00:00 | |
| DJ2KF-10 | 2026-09-03 18:21:54 | 49.08833 | 8.58413 | 154° | 24km/h | 24785m | 4.8m/s | -52.1°C | 3.6% | 27.8hPa | 2.6V | 00:00:00 | 01:51:57 | 00:00:00 | |
| DB0NH | 2026-09-03 18:21:53 | 49.08836 | 8.58410 | 147° | 24km/h | 24781m | 5.2m/s | -52.1°C | 3.6% | 27.8hPa | 2.6V | 00:00:00 | 01:51:56 | 00:00:00 | |
| DO3MHA-11 | 2026-09-03 18:21:52 | 49.08838 | 8.58408 | 144° | 16km/h | 24776m | 4.1m/s | -52.1°C | 3.5% | 27.9hPa | 2.6V | 03:26:00 | 01:51:55 | 00:00:00 | |
| DL1XH1-15 | 2026-09-03 18:21:51 | 49.08852 | 8.58397 | 129° | 16km/h | 24747m | 5.9m/s | -52.3°C | 3.6% | 28hPa | 2.6V | 03:27:03 | 01:51:49 | 00:00:00 | |
| DB0UT-7 | 2026-09-03 18:21:50 | 49.08842 | 8.58404 | 163° | 26km/h | 24767m | 5.2m/s | -52.2°C | 3.6% | 27.9hPa | 2.7V | 03:26:00 | 01:51:53 | 00:00:00 | |
| DM0DOS-11 | 2026-09-03 18:21:49 | 49.08857 | 8.58383 | 117° | 27km/h | 24736m | 5.3m/s | -52.2°C | 3.6% | 28.1hPa | 2.7V | 03:27:05 | 01:51:47 | 00:00:00 | |
| IW2NTF | 2026-09-03 18:21:48 | 49.08861 | 8.58373 | 120° | 31km/h | 24730m | 5.3m/s | -52.2°C | 3.7% | 28.1hPa | 2.6V | 03:27:06 | 01:51:46 | 00:00:00 | |
| DL1XH-west | 2026-09-03 18:21:47 | 49.08849 | 8.58401 | 146° | 13km/h | 24752m | 4.1m/s | -52.3°C | 0% | 28hPa | 2.6V | 03:27:31 | 01:51:50 | 00:00:00 | |
| DK7TD | 2026-09-03 18:21:45 | 49.08855 | 8.58391 | 119° | 22km/h | 24742m | 5.8m/s | -52.3°C | 0% | 28.1hPa | 2.7V | 03:27:31 | 01:51:48 | 00:00:00 | |
| DJ2DS-15 | 2026-09-03 18:21:45 | 49.08855 | 8.58391 | 120° | 27km/h | 24742m | 5.8m/s | -52.2°C | 3.7% | 28.0hPa | 2.6V | 00:00:00 | 01:51:48 | 00:00:00 | |
| DM7RM-13 | 2026-09-03 18:21:44 | 49.08855 | 8.58391 | 120° | 22km/h | 24742m | 5.8m/s | -52.3°C | 0.8% | 28.1hPa | 2.6V | 03:27:00 | 00:00:00 | 00:00:00 | |
| NBG1-10 | 2026-09-03 18:21:43 | 49.08861 | 8.58373 | 121° | 29km/h | 24731m | 5.2m/s | -52.2°C | 3.7% | 28.1hPa | 2.6V | 00:00:00 | 01:51:46 | 00:00:00 | |
| DO3MHA-11 | 2026-09-03 18:21:42 | 49.08866 | 8.58362 | 125° | 26km/h | 24725m | 5.9m/s | -52.2°C | 3.7% | 28.1hPa | 2.6V | 00:00:00 | 01:51:45 | 00:00:00 | |
| DL1XH1-15 | 2026-09-03 18:21:41 | 49.08893 | 8.58304 | 126° | 18km/h | 24695m | 5.1m/s | -52.3°C | 3.6% | 28.3hPa | 2.6V | 03:27:13 | 01:51:39 | 00:00:00 | |
| AZAK | 2026-09-03 18:21:40 | 49.08876 | 8.58340 | 130° | 35km/h | 24716m | 4.0m/s | -52.2°C | 0.7% | 28.2hPa | 2.7V | 03:27:00 | 00:00:00 | 00:00:00 | |
| DM0DOS-11 | 2026-09-03 18:21:39 | 49.08898 | 8.58296 | 137° | 11km/h | 24684m | 4.5m/s | -52.4°C | 3.6% | 28.3hPa | 2.7V | 03:27:15 | 01:51:37 | 00:00:00 | |
| DL1XH-west | 2026-09-03 18:21:36 | 49.08893 | 8.58304 | 126° | 18km/h | 24695m | 5.1m/s | -52.3°C | 0% | 28.3hPa | 2.6V | 03:27:31 | 01:51:39 | 00:00:00 | |
| DK7TD | 2026-09-03 18:21:35 | 49.08896 | 8.58299 | 133° | 15km/h | 24689m | 6.3m/s | -52.4°C | 0% | 28.3hPa | 2.7V | 03:27:31 | 01:51:38 | 00:00:00 | |
| BIOWL1-15 | 2026-09-03 18:21:34 | 49.08898 | 8.58296 | 137° | 11km/h | 24684m | 4.5m/s | -52.4°C | 0% | 28.3hPa | 2.7V | 03:27:31 | 01:51:37 | 00:00:00 | |
| DL1ZP-14 | 2026-09-03 18:21:33 | 49.08900 | 8.58293 | 123° | 11km/h | 24680m | 3.6m/s | -52.4°C | 0.7% | 28.3hPa | 2.6V | 00:00:00 | 00:00:00 | 00:00:00 | |
| DF1GD-15 | 2026-09-03 18:21:32 | 49.08900 | 8.58292 | 124° | 11km/h | 24680m | 3.6m/s | -52.4°C | 0.8% | 28.3hPa | 2.6V | 03:27:00 | 00:00:00 | 00:00:00 | |
| DL1XH1-15 | 2026-09-03 18:21:31 | 49.08912 | 8.58220 | 114° | 37km/h | 24644m | 4.5m/s | -52.5°C | 3.7% | 28.5hPa | 2.6V | 03:27:23 | 01:51:29 | 00:00:00 | |
| DM0DOS-11 | 2026-09-03 18:21:29 | 49.08920 | 8.58196 | 114° | 33km/h | 24635m | 4.9m/s | -52.4°C | 3.7% | 28.5hPa | 2.7V | 03:27:25 | 01:51:27 | 00:00:00 | |
| DL1XH-west | 2026-09-03 18:21:26 | 49.08912 | 8.58220 | 115° | 37km/h | 24644m | 4.5m/s | -52.5°C | 0% | 28.5hPa | 2.6V | 03:27:31 | 01:51:29 | 00:00:00 | |
| DK7TD | 2026-09-03 18:21:25 | 49.08916 | 8.58208 | 116° | 35km/h | 24640m | 4.1m/s | -52.5°C | 0% | 28.5hPa | 2.7V | 03:27:31 | 01:51:28 | 00:00:00 | |
| BIOWL1-15 | 2026-09-03 18:21:23 | 49.08926 | 8.58166 | 102° | 22km/h | 24620m | 4.9m/s | -52.4°C | 0% | 28.6hPa | 2.6V | 03:27:31 | 01:51:24 | 00:00:00 | |
| DB0NH | 2026-09-03 18:21:22 | 49.08925 | 8.58175 | 106° | 26km/h | 24625m | 5.2m/s | -52.4°C | 3.7% | 28.5hPa | 2.6V | 03:27:00 | 01:51:25 | 00:00:00 | |
| DL1XH1-15 | 2026-09-03 18:21:21 | 49.08931 | 8.58123 | 90° | 29km/h | 24594m | 6.1m/s | -52.5°C | 3.6% | 28.7hPa | 2.6V | 03:27:33 | 01:51:19 | 00:00:00 | |
| DB0UT-7 | 2026-09-03 18:21:20 | 49.08927 | 8.58157 | 104° | 24km/h | 24614m | 5.9m/s | -52.4°C | 3.6% | 28.6hPa | 2.7V | 00:00:00 | 00:00:00 | 00:00:00 | |
| DM0DOS-11 | 2026-09-03 18:21:19 | 49.08931 | 8.58097 | 87° | 38km/h | 24583m | 4.5m/s | -52.5°C | 3.7% | 28.8hPa | 2.7V | 03:27:35 | 01:51:17 | 00:00:00 | |
| DL1XH-west | 2026-09-03 18:21:15 | 49.08931 | 8.58111 | 87° | 35km/h | 24588m | 5.7m/s | -52.5°C | 0% | 28.7hPa | 2.7V | 03:28:22 | 01:51:18 | 00:00:00 | |
| DK7TD | 2026-09-03 18:21:14 | 49.08931 | 8.58097 | 87° | 38km/h | 24583m | 4.5m/s | -52.5°C | 0% | 28.8hPa | 2.7V | 03:28:22 | 01:51:17 | 00:00:00 | |
| BIOWL1-15 | 2026-09-03 18:21:13 | 49.08931 | 8.58082 | 91° | 38km/h | 24578m | 5.1m/s | -52.6°C | 0% | 28.8hPa | 2.6V | 03:28:22 | 01:51:16 | 00:00:00 | |
| DO3MHA-11 | 2026-09-03 18:21:12 | 49.08931 | 8.58067 | 95° | 26km/h | 24573m | 5.7m/s | -52.5°C | 3.7% | 28.7hPa | 2.6V | 03:27:00 | 01:51:15 | 00:00:00 | |
| DL1XH1-15 | 2026-09-03 18:21:11 | 49.08935 | 8.58002 | 97° | 18km/h | 24542m | 5.8m/s | -52.6°C | 3.8% | 28.9hPa | 2.6V | 03:27:43 | 01:51:09 | 00:00:00 | |
| NBG1-10 | 2026-09-03 18:21:10 | 49.08933 | 8.58040 | 98° | 18km/h | 24563m | 4.5m/s | -52.5°C | 3.7% | 28.8hPa | 2.7V | 03:27:00 | 01:51:13 | 00:00:00 | |
| DM0DOS-11 | 2026-09-03 18:21:09 | 49.08937 | 8.57990 | 101° | 16km/h | 24531m | 4.4m/s | -52.6°C | 3.7% | 29hPa | 2.7V | 03:27:45 | 01:51:07 | 00:00:00 | |
| DL1XH-west | 2026-09-03 18:21:05 | 49.08936 | 8.57996 | 103° | 16km/h | 24536m | 5.8m/s | -52.6°C | 0% | 29hPa | 2.7V | 03:28:22 | 01:51:08 | 00:00:00 | |
| DK7TD | 2026-09-03 18:21:04 | 49.08937 | 8.57989 | 101° | 16km/h | 24531m | 4.4m/s | -52.6°C | 0% | 29hPa | 2.7V | 03:28:22 | 01:51:07 | 00:00:00 | |
| BIOWL1-15 | 2026-09-03 18:21:03 | 49.08937 | 8.57983 | 95° | 18km/h | 24527m | 4.5m/s | -52.6°C | 0% | 29hPa | 2.6V | 03:28:22 | 01:51:06 | 00:00:00 | |
| DO3MHA-11 | 2026-09-03 18:21:02 | 49.08937 | 8.57975 | 87° | 24km/h | 24522m | 6.0m/s | -52.5°C | 3.7% | 29.0hPa | 2.7V | 00:00:00 | 01:51:05 | 00:00:00 | |
| DB0UT-9 | 2026-09-03 18:21:01 | 49.08937 | 8.57975 | 87° | 22km/h | 24522m | 6.1m/s | -52.6°C | 0.8% | 29.0hPa | 2.7V | 03:28:00 | 00:00:00 | 00:00:00 | |
| DF3TZ-5 | 2026-09-03 18:20:57 | 49.08934 | 8.57921 | 95° | 26km/h | 24496m | 4.4m/s | -52.5°C | 0.7% | 29.1hPa | 2.7V | 00:00:00 | 00:00:00 | 00:00:00 | |
| DL0LBS | 2026-09-03 18:20:56 | 49.08934 | 8.57921 | 96° | 26km/h | 24496m | 4.4m/s | -52.5°C | 0.8% | 29.2hPa | 2.7V | 03:28:00 | 00:00:00 | 00:00:00 | |
| DM0DOS-11 | 2026-09-03 18:20:55 | 49.08937 | 8.57884 | 130° | 9km/h | 24461m | 6m/s | -52.4°C | 3.7% | 29.3hPa | 2.7V | 03:27:59 | 01:50:53 | 00:00:00 | |
| DL1XH-west | 2026-09-03 18:20:54 | 49.08936 | 8.57898 | 92° | 15km/h | 24482m | 5.5m/s | -52.5°C | 0% | 29.2hPa | 2.7V | 03:28:22 | 01:50:57 | 00:00:00 | |
| BIOWL1-15 | 2026-09-03 18:20:53 | 49.08936 | 8.57893 | 87° | 11km/h | 24476m | 4.8m/s | -52.5°C | 0% | 29.2hPa | 2.6V | 03:28:22 | 01:50:56 | 00:00:00 | |
| BIOWL9-15 | 2026-09-03 18:20:53 | 49.08936 | 8.57890 | 94° | 7km/h | 24472m | 4.4m/s | -52.5°C | 0.8% | 29.3hPa | 2.6V | 00:00:00 | 00:00:00 | 00:00:00 | |
| IW2NTF | 2026-09-03 18:20:52 | 49.08942 | 8.57872 | 103° | 15km/h | 24446m | 5.8m/s | -52.4°C | 3.7% | 29.4hPa | 2.6V | 03:28:02 | 01:50:50 | 00:00:00 | |
| DO3MHA-11 | 2026-09-03 18:20:52 | 49.08936 | 8.57890 | 95° | 15km/h | 24472m | 4.4m/s | -52.4°C | 3.7% | 29.2hPa | 2.6V | 00:00:00 | 01:50:55 | 00:00:00 | |
| DL1XH1-15 | 2026-09-03 18:20:51 | 49.08942 | 8.57866 | 88° | 18km/h | 24440m | 5.7m/s | -52.4°C | 3.7% | 29.4hPa | 2.6V | 03:28:03 | 01:50:49 | 00:00:00 | |
| DL6DJ-15 | 2026-09-03 18:20:50 | 49.08937 | 8.57884 | 130° | 7km/h | 24462m | 6.0m/s | -52.4°C | 0% | 29.3hPa | 2.7V | 00:00:00 | 00:00:00 | 00:00:00 | |
| DD1CC8 | 2026-09-03 18:20:48 | 49.08941 | 8.57877 | 119° | 13km/h | 24451m | 4.6m/s | -52.4°C | 0.7% | 29.4hPa | 2.7V | 00:00:00 | 00:00:00 | 00:00:00 | |
| DK5PH-5 | 2026-09-03 18:20:47 | 49.08942 | 8.57872 | 104° | 9km/h | 24446m | 5.7m/s | -52.3°C | 3.7% | 29.3hPa | 2.7V | 03:28:00 | 01:50:50 | 00:00:00 | |
| DM0DOS-11 | 2026-09-03 18:20:45 | 49.08944 | 8.57823 | 118° | 11km/h | 24412m | 4.2m/s | -52.1°C | 3.7% | 29.5hPa | 2.7V | 03:28:09 | 01:50:43 | 00:00:00 | |
| DL1XH-west | 2026-09-03 18:20:43 | 49.08941 | 8.57841 | 89° | 22km/h | 24426m | 5.4m/s | -52.3°C | 0% | 29.5hPa | 2.6V | 03:28:22 | 01:50:46 | 00:00:00 | |
| BIOWL1-15 | 2026-09-03 18:20:42 | 49.08944 | 8.57823 | 119° | 11km/h | 24412m | 4.2m/s | -52.2°C | 0% | 29.5hPa | 2.7V | 03:28:22 | 01:50:43 | 00:00:00 | |
| DO3MHA-11 | 2026-09-03 18:20:42 | 49.08941 | 8.57833 | 98° | 7km/h | 24421m | 5.3m/s | -52.2°C | 3.7% | 29.5hPa | 2.6V | 00:00:00 | 01:50:45 | 00:00:00 | |
| IW2NTF | 2026-09-03 18:20:41 | 49.08945 | 8.57818 | 274° | 0km/h | 24391m | 4.2m/s | -52°C | 3.6% | 29.6hPa | 2.6V | 03:28:13 | 01:50:39 | 00:00:00 | |
| DB0UT-9 | 2026-09-03 18:20:41 | 49.08941 | 8.57833 | 99° | 18km/h | 24421m | 5.3m/s | -52.2°C | 0.8% | 29.5hPa | 2.7V | 03:28:00 | 00:00:00 | 00:00:00 | |
| DL1XH1-15 | 2026-09-03 18:20:40 | 49.08945 | 8.57818 | 149° | 2km/h | 24387m | 4.8m/s | -52°C | 3.6% | 29.6hPa | 2.7V | 03:28:14 | 01:50:38 | 00:00:00 | |
| OE5DRO-10 | 2026-09-03 18:20:40 | 49.08943 | 8.57823 | 119° | 7km/h | 24412m | 4.2m/s | -52.1°C | 3.7% | 29.5hPa | 2.7V | 00:00:00 | 00:00:00 | 00:00:00 | |
| AZAK | 2026-09-03 18:20:38 | 49.08945 | 8.57818 | 124° | 2km/h | 24402m | 5.9m/s | -52.1°C | 0.7% | 29.6hPa | 2.7V | 03:28:00 | 00:00:00 | 00:00:00 | |
| NBG1-10 | 2026-09-03 18:20:37 | 49.08945 | 8.57818 | 325° | 5km/h | 24396m | 4.9m/s | -52.0°C | 3.7% | 29.5hPa | 2.7V | 00:00:00 | 01:50:40 | 00:00:00 | |
| DH7VM-15 | 2026-09-03 18:20:36 | 49.08945 | 8.57818 | 0° | 0km/h | 24396m | 4.9m/s | -52.1°C | 0.8% | 29.6hPa | 2.7V | 00:00:00 | 00:00:00 | 00:00:00 | |
| DM0DOS-11 | 2026-09-03 18:20:35 | 49.08952 | 8.57801 | 99° | 13km/h | 24361m | 5.1m/s | -52°C | 3.6% | 29.8hPa | 2.7V | 03:28:19 | 01:50:33 | 00:00:00 | |
| DK7TD | 2026-09-03 18:20:33 | 49.08948 | 8.57815 | 132° | 11km/h | 24376m | 5m/s | -52°C | 0% | 29.7hPa | 2.6V | 03:28:22 | 01:50:36 | 00:00:00 | |
| DL1XH-west | 2026-09-03 18:20:32 | 49.08950 | 8.57811 | 122° | 13km/h | 24371m | 4.5m/s | -52°C | 0% | 29.7hPa | 2.6V | 03:28:22 | 01:50:35 | 00:00:00 | |
| DO3MHA-11 | 2026-09-03 18:20:32 | 49.08950 | 8.57811 | 122° | 9km/h | 24372m | 4.4m/s | -51.9°C | 3.5% | 29.7hPa | 2.6V | 03:28:00 | 01:50:35 | 00:00:00 | |
| DL1ZP-14 | 2026-09-03 18:20:31 | 49.08951 | 8.57806 | 111° | 13km/h | 24366m | 5.7m/s | -52.0°C | 0.7% | 29.7hPa | 2.6V | 00:00:00 | 00:00:00 | 00:00:00 | |
| DL1XH1-15 | 2026-09-03 18:20:30 | 49.08957 | 8.57788 | 183° | 4km/h | 24336m | 4.8m/s | -52°C | 3.6% | 29.9hPa | 2.7V | 03:28:24 | 01:50:28 | 00:00:00 | |
| DL4BBY-15 | 2026-09-03 18:20:29 | 49.08953 | 8.57796 | 100° | 7km/h | 24356m | 3.9m/s | -52.4°C | 0% | 0hPa | 2.7V | 00:00:00 | 00:00:00 | 00:00:00 | |
| DN1GJH-1 | 2026-09-03 18:20:28 | 49.08953 | 8.57796 | 100° | 11km/h | 24356m | 4.0m/s | -52.0°C | 0.8% | 29.8hPa | 2.7V | 03:28:00 | 00:00:00 | 00:00:00 | |
| DJTTGO | 2026-09-03 18:20:27 | 49.08953 | 8.57792 | 106° | 9km/h | 24352m | 5.0m/s | -52.0°C | 0.7% | 29.8hPa | 2.7V | 03:28:00 | 00:00:00 | 00:00:00 | |
| DM0DOS-11 | 2026-09-03 18:20:25 | 49.08956 | 8.57791 | 268° | 4km/h | 24310m | 5.8m/s | -52°C | 3.6% | 30hPa | 2.7V | 03:28:29 | 01:50:23 | 00:00:00 | |
| DK7TD | 2026-09-03 18:20:23 | 49.08957 | 8.57789 | 296° | 2km/h | 24325m | 6.1m/s | -52°C | 0% | 29.9hPa | 2.6V | 03:29:13 | 01:50:26 | 00:00:00 | |
| DL1XH-west | 2026-09-03 18:20:21 | 49.08956 | 8.57790 | 309° | 4km/h | 24315m | 4.5m/s | -52°C | 0% | 30hPa | 2.6V | 03:29:13 | 01:50:24 | 00:00:00 | |
| DB0UT-7 | 2026-09-03 18:20:20 | 49.08956 | 8.57791 | 269° | 5km/h | 24310m | 5.8m/s | -52.0°C | 3.6% | 30.0hPa | 2.7V | 00:00:00 | 00:00:00 | 00:00:00 | |
| DB0NH | 2026-09-03 18:20:19 | 49.08957 | 8.57793 | 232° | 9km/h | 24304m | 5.8m/s | -52.0°C | 3.7% | 30.0hPa | 2.7V | 00:00:00 | 01:50:22 | 00:00:00 | |
| AZAK | 2026-09-03 18:20:17 | 49.08960 | 8.57795 | 201° | 7km/h | 24295m | 4.4m/s | -52.0°C | 0.7% | 30.1hPa | 2.7V | 00:00:00 | 00:00:00 | 00:00:00 | |
| DM0DOS-11 | 2026-09-03 18:20:15 | 49.08969 | 8.57802 | 238° | 9km/h | 24260m | 4.1m/s | -52.1°C | 3.7% | 30.2hPa | 2.7V | 03:28:39 | 01:50:13 | 00:00:00 | |
| DK7TD | 2026-09-03 18:20:12 | 49.08967 | 8.57797 | 218° | 7km/h | 24269m | 5.9m/s | -52.1°C | 0% | 30.2hPa | 2.6V | 03:29:13 | 01:50:15 | 00:00:00 | |
| BIOWL1-15 | 2026-09-03 18:20:10 | 49.08969 | 8.57802 | 239° | 9km/h | 24260m | 4.1m/s | -52.1°C | 0% | 30.2hPa | 2.7V | 03:29:13 | 01:50:13 | 00:00:00 | |
| DN1GJH-1 | 2026-09-03 18:20:08 | 49.08970 | 8.57805 | 251° | 5km/h | 24255m | 5.2m/s | -52.1°C | 0.8% | 30.3hPa | 2.7V | 03:29:00 | 00:00:00 | 00:00:00 | |
| DJTTGO | 2026-09-03 18:20:06 | 49.08970 | 8.57806 | 25° | 4km/h | 24244m | 4.8m/s | -52.1°C | 0.7% | 30.3hPa | 2.7V | 03:29:00 | 00:00:00 | 00:00:00 | |
| DM0DOS-11 | 2026-09-03 18:20:05 | 49.08976 | 8.57797 | 140° | 9km/h | 24209m | 5.5m/s | -52°C | 3.7% | 30.5hPa | 2.7V | 03:28:49 | 01:50:03 | 00:00:00 | |
| DK7TD | 2026-09-03 18:20:02 | 49.08972 | 8.57800 | 161° | 9km/h | 24219m | 4.7m/s | -52°C | 0% | 30.4hPa | 2.6V | 03:29:13 | 01:50:05 | 00:00:00 | |
| BIOWL1-15 | 2026-09-03 18:19:59 | 49.08979 | 8.57792 | 125° | 2km/h | 24195m | 5.3m/s | -51.9°C | 0% | 30.5hPa | 2.6V | 03:29:13 | 01:50:00 | 00:00:00 | |
| DL1XH-west | 2026-09-03 18:19:59 | 49.08978 | 8.57795 | 126° | 7km/h | 24204m | 4.3m/s | -51.9°C | 0% | 30.5hPa | 2.7V | 03:29:13 | 01:50:02 | 00:00:00 | |
| DF3TZ-5 | 2026-09-03 18:19:55 | 49.08979 | 8.57792 | 301° | 0km/h | 24185m | 4.4m/s | -51.9°C | 0.8% | 30.6hPa | 2.6V | 00:00:00 | 00:00:00 | 00:00:00 | |
| DJ2KF-10 | 2026-09-03 18:19:54 | 49.08979 | 8.57792 | 47° | 15km/h | 24181m | 4.2m/s | -51.9°C | 3.7% | 30.6hPa | 2.6V | 00:00:00 | 01:49:57 | 00:00:00 | |
| DM0DOS-11 | 2026-09-03 18:19:53 | 49.08978 | 8.57765 | 116° | 13km/h | 24150m | 5.3m/s | -51.8°C | 3.6% | 30.7hPa | 2.6V | 03:29:01 | 01:49:51 | 00:00:00 | |
| DK7TD | 2026-09-03 18:19:51 | 49.08977 | 8.57782 | 81° | 15km/h | 24165m | 4.4m/s | -51.9°C | 0% | 30.7hPa | 2.6V | 03:29:13 | 01:49:54 | 00:00:00 | |
| BIOWL1-15 | 2026-09-03 18:19:51 | 49.08977 | 8.57770 | 100° | 15km/h | 24155m | 5.9m/s | -51.9°C | 0% | 30.7hPa | 2.7V | 03:29:13 | 01:49:52 | 00:00:00 | |
| DL1XH-west | 2026-09-03 18:19:48 | 49.08978 | 8.57765 | 116° | 13km/h | 24150m | 5.3m/s | -51.8°C | 0% | 30.8hPa | 2.6V | 03:29:13 | 01:49:51 | 00:00:00 | |
| DL6DJ-15 | 2026-09-03 18:19:48 | 49.08979 | 8.57761 | 126° | 9km/h | 24145m | 4.4m/s | -51.8°C | 0.7% | 30.8hPa | 2.6V | 00:00:00 | 00:00:00 | 00:00:00 | |
| DD1CC8 | 2026-09-03 18:19:46 | 49.08981 | 8.57758 | 123° | 9km/h | 24141m | 4.3m/s | -51.8°C | 0.7% | 30.8hPa | 2.6V | 00:00:00 | 00:00:00 | 00:00:00 | |
| DK7TD | 2026-09-03 18:19:41 | 49.08977 | 8.57740 | 45° | 13km/h | 24115m | 5.9m/s | -51.8°C | 0% | 30.9hPa | 2.6V | 03:29:13 | 01:49:44 | 00:00:00 | |
| BIOWL1-15 | 2026-09-03 18:19:39 | 49.08972 | 8.57733 | 42° | 15km/h | 24104m | 4.4m/s | -51.9°C | 0% | 30.9hPa | 2.7V | 03:29:13 | 01:49:42 | 00:00:00 | |
| DL1XH-west | 2026-09-03 18:19:38 | 49.08969 | 8.57728 | 47° | 18km/h | 24100m | 4.9m/s | -51.9°C | 0% | 31hPa | 2.6V | 03:29:13 | 01:49:41 | 00:00:00 | |
| DK7TD | 2026-09-03 18:19:30 | 49.08951 | 8.57676 | 71° | 16km/h | 24060m | 5.4m/s | -52°C | 0% | 31.2hPa | 2.7V | 03:30:55 | 01:49:33 | 00:00:00 | |
| BIOWL1-15 | 2026-09-03 18:19:29 | 49.08949 | 8.57670 | 61° | 18km/h | 24054m | 5.5m/s | -52.1°C | 0% | 31.2hPa | 2.7V | 03:30:04 | 01:49:32 | 00:00:00 | |
| DL1XH-west | 2026-09-03 18:19:27 | 49.08943 | 8.57657 | 49° | 22km/h | 24045m | 4.2m/s | -52.1°C | 0% | 31.3hPa | 2.6V | 03:30:04 | 01:49:30 | 00:00:00 | |
| DJ2DS-15 | 2026-09-03 18:19:25 | 49.08936 | 8.57645 | 46° | 18km/h | 24036m | 5.1m/s | -52.1°C | 3.7% | 31.3hPa | 2.7V | 03:29:00 | 01:49:28 | 00:00:00 | |
| DJ2KF-10 | 2026-09-03 18:19:24 | 49.08932 | 8.57640 | 47° | 16km/h | 24030m | 4.6m/s | -52.0°C | 3.7% | 31.3hPa | 2.7V | 00:00:00 | 01:49:27 | 00:00:00 | |
| DL8DAS-15 | 2026-09-03 18:19:23 | 49.08932 | 8.57640 | 47° | 20km/h | 24030m | 4.6m/s | -52.1°C | 0.8% | 31.3hPa | 2.7V | 03:30:00 | 00:00:00 | 00:00:00 | |
| DO3MHA-11 | 2026-09-03 18:19:22 | 49.08925 | 8.57627 | 54° | 18km/h | 24022m | 4.4m/s | -52.1°C | 3.7% | 31.3hPa | 2.7V | 00:00:00 | 01:49:25 | 00:00:00 | |
| DF7PN | 2026-09-03 18:19:21 | 49.08918 | 8.57611 | 57° | 27km/h | 24012m | 4.4m/s | -52.1°C | 0.8% | 31.4hPa | 2.7V | 00:00:00 | 00:00:00 | 00:00:00 | |
| DM0DOS-11 | 2026-09-03 18:19:20 | 49.08907 | 8.57580 | 35° | 5km/h | 23989m | 4m/s | -52.1°C | 3.6% | 31.6hPa | 2.7V | 03:29:34 | 01:49:18 | 00:00:00 | |
| BIOWL1-15 | 2026-09-03 18:19:20 | 49.08912 | 8.57594 | 66° | 22km/h | 24004m | 3.9m/s | -52.1°C | 0% | 31.5hPa | 2.6V | 03:30:04 | 01:49:21 | 00:00:00 | |
| DK7TD | 2026-09-03 18:19:19 | 49.08914 | 8.57602 | 61° | 26km/h | 24008m | 3.8m/s | -52.1°C | 0% | 31.4hPa | 2.7V | 03:30:55 | 01:49:22 | 00:00:00 | |
| DL1XH-west | 2026-09-03 18:19:17 | 49.08910 | 8.57587 | 70° | 18km/h | 23999m | 5.5m/s | -52.1°C | 0% | 31.5hPa | 2.6V | 03:30:04 | 01:49:20 | 00:00:00 | |
| DL6DJ-15 | 2026-09-03 18:19:17 | 49.08908 | 8.57582 | 69° | 9km/h | 23994m | 5.0m/s | -52.1°C | 0.8% | 31.5hPa | 2.6V | 00:00:00 | 00:00:00 | 00:00:00 | |
| DD1CC8 | 2026-09-03 18:19:15 | 49.08907 | 8.57579 | 35° | 4km/h | 23990m | 4.0m/s | -52.1°C | 0.8% | 31.6hPa | 2.6V | 00:00:00 | 00:00:00 | 00:00:00 | |
| DL4BBY-15 | 2026-09-03 18:19:14 | 49.08906 | 8.57579 | 354° | 9km/h | 23985m | 4.3m/s | -52.5°C | 0% | 0hPa | 2.6V | 00:00:00 | 00:00:00 | 00:00:00 | |
| DL8DAS-15 | 2026-09-03 18:19:13 | 49.08906 | 8.57579 | 354° | 7km/h | 23986m | 4.4m/s | -52.1°C | 0.8% | 31.6hPa | 2.6V | 03:30:00 | 00:00:00 | 00:00:00 | |
| DO3MHA-11 | 2026-09-03 18:19:12 | 49.08900 | 8.57580 | 356° | 13km/h | 23975m | 5.2m/s | -52.0°C | 3.6% | 31.6hPa | 2.6V | 03:29:00 | 01:49:15 | 00:00:00 | |
| DL1XH1-15 | 2026-09-03 18:19:10 | 49.08876 | 8.57569 | 56° | 5km/h | 23941m | 4.3m/s | -51.9°C | 3.7% | 31.8hPa | 2.7V | 03:29:44 | 01:49:08 | 00:00:00 | |
| DK7TD | 2026-09-03 18:19:09 | 49.08885 | 8.57578 | 15° | 18km/h | 23961m | 4.9m/s | -52°C | 0% | 31.7hPa | 2.7V | 03:30:55 | 01:49:12 | 00:00:00 | |
| BIOWL1-15 | 2026-09-03 18:19:08 | 49.08875 | 8.57569 | 56° | 5km/h | 23941m | 4.4m/s | -52°C | 0% | 31.8hPa | 2.7V | 03:30:04 | 01:49:08 | 00:00:00 | |
| DL1XH-west | 2026-09-03 18:19:07 | 49.08878 | 8.57573 | 32° | 11km/h | 23951m | 5.3m/s | -52°C | 0% | 31.7hPa | 2.6V | 03:30:04 | 01:49:10 | 00:00:00 | |
| DN1GJH-1 | 2026-09-03 18:19:06 | 49.08878 | 8.57573 | 33° | 11km/h | 23951m | 5.3m/s | -52.0°C | 0.8% | 31.7hPa | 2.7V | 03:30:00 | 00:00:00 | 00:00:00 | |
| DJ2DS-15 | 2026-09-03 18:19:05 | 49.08875 | 8.57569 | 57° | 7km/h | 23941m | 4.3m/s | -51.9°C | 3.7% | 31.7hPa | 2.7V | 00:00:00 | 01:49:08 | 00:00:00 | |
| OE5DRO-10 | 2026-09-03 18:19:03 | 49.08873 | 8.57565 | 40° | 9km/h | 23932m | 5.5m/s | -51.8°C | 3.6% | 31.8hPa | 2.6V | 00:00:00 | 00:00:00 | 00:00:00 | |
| DO1YAY-16 | 2026-09-03 18:19:01 | 49.08869 | 8.57562 | 16° | 9km/h | 23923m | 4.1m/s | -51.8°C | 0.8% | 31.9hPa | 2.7V | 00:00:00 | 00:00:00 | 00:00:00 | |
| DL1XH1-15 | 2026-09-03 18:19:00 | 49.08858 | 8.57564 | 355° | 9km/h | 23893m | 5.4m/s | -51.7°C | 3.5% | 32hPa | 2.7V | 03:29:54 | 01:48:58 | 00:00:00 | |
| DK7TD | 2026-09-03 18:18:58 | 49.08863 | 8.57562 | 330° | 5km/h | 23907m | 4.7m/s | -51.8°C | 0% | 31.9hPa | 2.6V | 03:30:55 | 01:49:01 | 00:00:00 | |
| DL1XH-west | 2026-09-03 18:18:56 | 49.08860 | 8.57564 | 342° | 7km/h | 23899m | 4.8m/s | -51.7°C | 0% | 32hPa | 2.6V | 03:30:04 | 01:48:59 | 00:00:00 | |
| DF3TZ-5 | 2026-09-03 18:18:53 | 49.08854 | 8.57564 | 18° | 7km/h | 23884m | 4.5m/s | -51.7°C | 0.7% | 32.0hPa | 2.6V | 00:00:00 | 00:00:00 | 00:00:00 | |
| DL8DAS-14 | 2026-09-03 18:18:51 | 49.08852 | 8.57562 | 42° | 2km/h | 23874m | 5.0m/s | -51.8°C | 0.7% | 32.1hPa | 2.6V | 00:00:00 | 00:00:00 | 00:00:00 | |
| DM0DOS-11 | 2026-09-03 18:18:50 | 49.08847 | 8.57578 | 280° | 15km/h | 23845m | 5.7m/s | -52.1°C | 3.6% | 32.2hPa | 2.6V | 03:30:04 | 01:48:48 | 00:00:00 | |
| DK7TD | 2026-09-03 18:18:46 | 49.08848 | 8.57572 | 289° | 15km/h | 23850m | 4.2m/s | -52°C | 0% | 32.2hPa | 2.6V | 03:30:55 | 01:48:49 | 00:00:00 | |
| BIOWL1-15 | 2026-09-03 18:18:45 | 49.08846 | 8.57584 | 273° | 16km/h | 23839m | 5.5m/s | -52.1°C | 0% | 32.3hPa | 2.7V | 03:30:55 | 01:48:47 | 00:00:00 | |
| DL1XH-west | 2026-09-03 18:18:45 | 49.08847 | 8.57578 | 280° | 15km/h | 23845m | 5.7m/s | -52.1°C | 0% | 32.2hPa | 2.6V | 03:30:04 | 01:48:48 | 00:00:00 | |
| DJ2DS-15 | 2026-09-03 18:18:45 | 49.08847 | 8.57577 | 281° | 15km/h | 23845m | 5.7m/s | -52.0°C | 3.6% | 32.2hPa | 2.7V | 00:00:00 | 01:48:48 | 00:00:00 | |
| DL4BBY-15 | 2026-09-03 18:18:44 | 49.08846 | 8.57584 | 274° | 15km/h | 23839m | 5.4m/s | 0°C | 0% | 0hPa | 2.7V | 00:00:00 | 00:00:00 | 00:00:00 | |
| DL8DAS-15 | 2026-09-03 18:18:43 | 49.08846 | 8.57584 | 274° | 16km/h | 23839m | 5.5m/s | -52.1°C | 0.8% | 32.3hPa | 2.7V | 03:30:00 | 00:00:00 | 00:00:00 | |
| DO3MHA-11 | 2026-09-03 18:18:42 | 49.08845 | 8.57596 | 283° | 11km/h | 23830m | 4.6m/s | -52.0°C | 3.5% | 32.3hPa | 2.7V | 00:00:00 | 01:48:45 | 00:00:00 | |
| AU51GT2 | 2026-09-03 18:18:41 | 49.08844 | 8.57602 | 292° | 15km/h | 23824m | 5.5m/s | -52.1°C | 0.7% | 32.4hPa | 2.6V | 00:00:00 | 00:00:00 | 00:00:00 | |
| DM0DOS-11 | 2026-09-03 18:18:40 | 49.08840 | 8.57624 | 237° | 7km/h | 23796m | 4m/s | -52.4°C | 3.7% | 32.5hPa | 2.6V | 03:30:14 | 01:48:38 | 00:00:00 | |
| DL1XH1-15 | 2026-09-03 18:18:39 | 49.08841 | 8.57626 | 245° | 7km/h | 23792m | 5.2m/s | -52.4°C | 3.7% | 32.5hPa | 2.6V | 03:30:15 | 01:48:37 | 00:00:00 | |
| BIOWL1-15 | 2026-09-03 18:18:34 | 49.08841 | 8.57626 | 245° | 7km/h | 23792m | 5.2m/s | -52.4°C | 0% | 32.5hPa | 2.6V | 03:30:55 | 01:48:37 | 00:00:00 | |
| DO8TBO-1 | 2026-09-03 18:18:34 | 49.08840 | 8.57626 | 246° | 16km/h | 23792m | 5.1m/s | -52.4°C | 3.7% | 32.5hPa | 2.6V | 00:00:00 | 01:48:37 | 00:00:00 | |
| DL0LBS | 2026-09-03 18:18:33 | 49.08840 | 8.57626 | 246° | 7km/h | 23792m | 5.2m/s | -52.4°C | 0.8% | 32.5hPa | 2.6V | 03:30:00 | 00:00:00 | 00:00:00 | |
| DO3MHA-11 | 2026-09-03 18:18:32 | 49.08842 | 8.57633 | 261° | 16km/h | 23783m | 3.8m/s | -52.4°C | 3.7% | 32.5hPa | 2.6V | 03:30:00 | 01:48:35 | 00:00:00 | |
| DJTTGO | 2026-09-03 18:18:31 | 49.08842 | 8.57633 | 261° | 11km/h | 23783m | 3.8m/s | -52.5°C | 0.8% | 32.5hPa | 2.6V | 03:30:00 | 00:00:00 | 00:00:00 | |
| DM0DOS-11 | 2026-09-03 18:18:30 | 49.08852 | 8.57678 | 267° | 15km/h | 23748m | 4.6m/s | -52.6°C | 3.7% | 32.7hPa | 2.6V | 03:30:24 | 01:48:28 | 00:00:00 | |
| DO1YAY-16 | 2026-09-03 18:18:30 | 49.08846 | 8.57650 | 244° | 20km/h | 23768m | 5.2m/s | -52.6°C | 0.8% | 32.7hPa | 2.6V | 00:00:00 | 00:00:00 | 00:00:00 | |
| DL1XH1-15 | 2026-09-03 18:18:29 | 49.08852 | 8.57683 | 269° | 13km/h | 23744m | 3.6m/s | -52.6°C | 3.7% | 32.7hPa | 2.6V | 03:30:25 | 01:48:27 | 00:00:00 | |
| BIOWL1-15 | 2026-09-03 18:18:25 | 49.08852 | 8.57688 | 261° | 9km/h | 23740m | 4.5m/s | -52.6°C | 0% | 32.8hPa | 2.7V | 03:30:55 | 01:48:26 | 00:00:00 | |
| DL1XH-west | 2026-09-03 18:18:24 | 49.08852 | 8.57683 | 270° | 13km/h | 23744m | 3.6m/s | -52.6°C | 0% | 32.7hPa | 2.6V | 03:30:55 | 01:48:27 | 00:00:00 | |
| DO3MHA-11 | 2026-09-03 18:18:22 | 49.08853 | 8.57691 | 238° | 16km/h | 23736m | 5.2m/s | -52.6°C | 3.7% | 32.8hPa | 2.6V | 00:00:00 | 01:48:25 | 00:00:00 | |
| DM0DOS-11 | 2026-09-03 18:18:20 | 49.08869 | 8.57724 | 255° | 20km/h | 23702m | 3.9m/s | -52.9°C | 3.7% | 33hPa | 2.6V | 03:30:34 | 01:48:18 | 00:00:00 | |
| DB0UT-7 | 2026-09-03 18:18:20 | 49.08858 | 8.57697 | 216° | 18km/h | 23726m | 4.7m/s | -52.6°C | 3.7% | 32.8hPa | 2.6V | 00:00:00 | 00:00:00 | 00:00:00 | |
| DL1XH1-15 | 2026-09-03 18:18:19 | 49.08871 | 8.57732 | 251° | 22km/h | 23698m | 5m/s | -53°C | 3.7% | 33hPa | 2.6V | 03:30:35 | 01:48:17 | 00:00:00 | |
| DL1XH-west | 2026-09-03 18:18:14 | 49.08871 | 8.57732 | 252° | 22km/h | 23698m | 5m/s | -53°C | 0% | 33hPa | 2.6V | 03:30:55 | 01:48:17 | 00:00:00 | |
| BIOWL1-15 | 2026-09-03 18:18:13 | 49.08873 | 8.57739 | 244° | 22km/h | 23693m | 5.3m/s | -53°C | 0% | 33hPa | 2.7V | 03:30:55 | 01:48:16 | 00:00:00 | |
| DO3MHA-11 | 2026-09-03 18:18:12 | 49.08876 | 8.57747 | 236° | 18km/h | 23688m | 4.5m/s | -53.0°C | 3.8% | 33.0hPa | 2.7V | 00:00:00 | 01:48:15 | 00:00:00 | |
| DL2OL | 2026-09-03 18:18:11 | 49.08875 | 8.57747 | 236° | 22km/h | 23688m | 4.6m/s | -53.0°C | 0.8% | 33.0hPa | 2.6V | 00:00:00 | 00:00:00 | 00:00:00 | |
| DM0DOS-11 | 2026-09-03 18:18:10 | 49.08894 | 8.57781 | 232° | 18km/h | 23654m | 5.2m/s | -53°C | 3.8% | 33.2hPa | 2.6V | 03:30:44 | 01:48:08 | 00:00:00 | |
| DL1XH1-15 | 2026-09-03 18:18:09 | 49.08897 | 8.57787 | 232° | 20km/h | 23649m | 4.1m/s | -53°C | 3.8% | 33.2hPa | 2.6V | 03:30:45 | 01:48:07 | 00:00:00 | |
| DK7TD | 2026-09-03 18:18:04 | 49.08897 | 8.57787 | 233° | 20km/h | 23649m | 4.1m/s | -53°C | 0% | 33.2hPa | 2.6V | 03:30:55 | 01:48:07 | 00:00:00 | |
| DL1XH-west | 2026-09-03 18:18:03 | 49.08900 | 8.57793 | 234° | 20km/h | 23645m | 4.7m/s | -53°C | 0% | 33.3hPa | 2.7V | 03:30:55 | 01:48:06 | 00:00:00 | |
| DM0DOS-11 | 2026-09-03 18:18:00 | 49.08929 | 8.57835 | 210° | 18km/h | 23607m | 5.3m/s | -53°C | 3.8% | 33.4hPa | 2.6V | 03:30:54 | 01:47:58 | 00:00:00 | |
| DL1XH1-15 | 2026-09-03 18:17:59 | 49.08933 | 8.57838 | 203° | 15km/h | 23602m | 5.3m/s | -53°C | 3.8% | 33.5hPa | 2.6V | 03:30:55 | 01:47:57 | 00:00:00 | |
| DL1XH-west | 2026-09-03 18:17:53 | 49.08936 | 8.57840 | 196° | 13km/h | 23597m | 4m/s | -53°C | 0% | 33.5hPa | 2.6V | 03:31:46 | 01:47:56 | 00:00:00 | |
| DF3TZ-5 | 2026-09-03 18:17:51 | 49.08942 | 8.57842 | 197° | 13km/h | 23589m | 5.3m/s | -53.0°C | 0.8% | 33.5hPa | 2.7V | 00:00:00 | 00:00:00 | 00:00:00 | |
| DM0DOS-11 | 2026-09-03 18:17:50 | 49.08966 | 8.57856 | 202° | 18km/h | 23559m | 4.2m/s | -53°C | 3.9% | 33.7hPa | 2.7V | 03:31:04 | 01:47:48 | 00:00:00 | |
| DB0UT-7 | 2026-09-03 18:17:50 | 49.08945 | 8.57844 | 203° | 16km/h | 23584m | 5.5m/s | -52.9°C | 3.9% | 33.5hPa | 2.6V | 03:30:00 | 01:47:53 | 00:00:00 | |
| DL1XH1-15 | 2026-09-03 18:17:49 | 49.08970 | 8.57859 | 211° | 20km/h | 23554m | 5.2m/s | -53°C | 3.9% | 33.8hPa | 2.6V | 03:31:05 | 01:47:47 | 00:00:00 | |
| DF7PN | 2026-09-03 18:17:48 | 49.08958 | 8.57852 | 198° | 16km/h | 23569m | 5.9m/s | -53.0°C | 0.8% | 33.7hPa | 2.6V | 00:00:00 | 00:00:00 | 00:00:00 | |
| BIOWL9-15 | 2026-09-03 18:17:46 | 49.08962 | 8.57854 | 197° | 16km/h | 23564m | 4.9m/s | -53.0°C | 0.8% | 33.7hPa | 2.6V | 00:00:00 | 00:00:00 | 00:00:00 | |
| DL1XH-west | 2026-09-03 18:17:42 | 49.08979 | 8.57869 | 219° | 24km/h | 23544m | 4.2m/s | -53°C | 0.1% | 33.8hPa | 2.6V | 03:31:46 | 01:47:45 | 00:00:00 | |
| DO3MHA-11 | 2026-09-03 18:17:42 | 49.08979 | 8.57869 | 220° | 20km/h | 23544m | 4.1m/s | -52.9°C | 3.9% | 33.8hPa | 2.6V | 00:00:00 | 01:47:45 | 00:00:00 | |
| IW2NTF | 2026-09-03 18:17:40 | 49.09011 | 8.57883 | 185° | 20km/h | 23510m | 5.3m/s | -52.8°C | 0% | 34hPa | 2.7V | 03:31:14 | 01:47:38 | 00:00:00 | |
| DL1XH1-15 | 2026-09-03 18:17:39 | 49.09016 | 8.57884 | 187° | 22km/h | 23505m | 4.1m/s | -52.8°C | 3.8% | 34hPa | 2.6V | 03:31:15 | 01:47:37 | 00:00:00 | |
| DL1XH-west | 2026-09-03 18:17:32 | 49.09026 | 8.57886 | 180° | 18km/h | 23496m | 5.8m/s | -52.9°C | 0% | 34hPa | 2.6V | 03:31:46 | 01:47:35 | 00:00:00 | |
| DO3MHA-11 | 2026-09-03 18:17:32 | 49.09026 | 8.57886 | 181° | 13km/h | 23496m | 5.8m/s | -52.9°C | 3.8% | 34.0hPa | 2.7V | 00:00:00 | 01:47:35 | 00:00:00 | |
| IW2NTF | 2026-09-03 18:17:30 | 49.09049 | 8.57894 | 208° | 9km/h | 23459m | 6m/s | -52.7°C | 0% | 34.2hPa | 2.7V | 03:31:24 | 01:47:28 | 00:00:00 | |
| DJ2DS-15 | 2026-09-03 18:17:30 | 49.09034 | 8.57885 | 178° | 13km/h | 23485m | 4.7m/s | -52.8°C | 0.8% | 34.1hPa | 2.6V | 00:00:00 | 00:00:00 | 00:00:00 | |
| DM0DOS-11 | 2026-09-03 18:17:29 | 49.09051 | 8.57895 | 184° | 7km/h | 23453m | 5.6m/s | -52.7°C | 3.8% | 34.3hPa | 2.6V | 03:31:25 | 01:47:27 | 00:00:00 | |
| DL1XH-west | 2026-09-03 18:17:21 | 49.09057 | 8.57893 | 172° | 11km/h | 23439m | 5.7m/s | -52.8°C | 0% | 34.4hPa | 2.7V | 03:31:46 | 01:47:24 | 00:00:00 | |
| IW2NTF | 2026-09-03 18:17:20 | 49.09078 | 8.57891 | 176° | 13km/h | 23410m | 4.3m/s | -52.7°C | 0% | 34.5hPa | 2.7V | 03:31:34 | 01:47:18 | 00:00:00 | |
| DB0UT-7 | 2026-09-03 18:17:20 | 49.09060 | 8.57893 | 182° | 13km/h | 23434m | 5.2m/s | -52.7°C | 3.8% | 34.3hPa | 2.7V | 00:00:00 | 00:00:00 | 00:00:00 | |
| DM0DOS-11 | 2026-09-03 18:17:19 | 49.09081 | 8.57891 | 191° | 15km/h | 23405m | 5.5m/s | -52.7°C | 3.8% | 34.5hPa | 2.7V | 03:31:35 | 01:47:17 | 00:00:00 | |
| DL1XH-west | 2026-09-03 18:17:11 | 49.09093 | 8.57899 | 211° | 18km/h | 23390m | 3.9m/s | -52.7°C | 0% | 34.6hPa | 2.6V | 03:31:46 | 01:47:14 | 00:00:00 | |
| DK7TD | 2026-09-03 18:17:10 | 49.09096 | 8.57902 | 206° | 15km/h | 23385m | 5.4m/s | -52.7°C | 0% | 34.6hPa | 2.6V | 03:31:46 | 01:47:13 | 00:00:00 | |
| DL1XH1-15 | 2026-09-03 18:17:09 | 49.09116 | 8.57910 | 209° | 13km/h | 23355m | 4.1m/s | -52.8°C | 3.7% | 34.8hPa | 2.7V | 03:31:45 | 01:47:07 | 00:00:00 | |
| DL1XH-west | 2026-09-03 18:17:01 | 49.09121 | 8.57917 | 228° | 7km/h | 23341m | 5m/s | -52.9°C | 0% | 34.9hPa | 2.6V | 03:32:37 | 01:47:04 | 00:00:00 | |
| DK7TD | 2026-09-03 18:17:00 | 49.09122 | 8.57919 | 227° | 7km/h | 23336m | 4.4m/s | -52.9°C | 0% | 34.9hPa | 2.6V | 03:32:37 | 01:47:03 | 00:00:00 | |
| DM0DOS-11 | 2026-09-03 18:16:57 | 49.09140 | 8.57930 | 191° | 5km/h | 23296m | 4.7m/s | -53.2°C | 3.9% | 35.1hPa | 2.6V | 03:31:57 | 01:46:55 | 00:00:00 | |
| BIOWL1-15 | 2026-09-03 18:16:50 | 49.09143 | 8.57947 | 281° | 13km/h | 23271m | 5.8m/s | -53.2°C | 0% | 35.3hPa | 2.6V | 03:32:37 | 01:46:50 | 00:00:00 | |
| DL1XH-west | 2026-09-03 18:16:50 | 49.09142 | 8.57934 | 242° | 9km/h | 23286m | 4.8m/s | -53.1°C | 0.1% | 35.2hPa | 2.6V | 03:32:37 | 01:46:53 | 00:00:00 | |
| DB0UT-7 | 2026-09-03 18:16:50 | 49.09142 | 8.57934 | 242° | 13km/h | 23286m | 4.8m/s | -53.1°C | 3.8% | 35.2hPa | 2.7V | 00:00:00 | 01:46:53 | 00:00:00 | |
| DL1XH1-15 | 2026-09-03 18:16:49 | 49.09141 | 8.57959 | 276° | 9km/h | 23256m | 5.5m/s | -53.2°C | 3.8% | 35.3hPa | 2.7V | 03:32:05 | 01:46:47 | 00:00:00 | |
| DK7TD | 2026-09-03 18:16:49 | 49.09143 | 8.57938 | 255° | 11km/h | 23281m | 4.5m/s | -53.1°C | 0.1% | 35.2hPa | 2.7V | 03:32:37 | 01:46:52 | 00:00:00 | |
| DK5PH-5 | 2026-09-03 18:16:47 | 49.09143 | 8.57947 | 281° | 13km/h | 23271m | 5.7m/s | -53.1°C | 3.8% | 35.2hPa | 2.6V | 03:32:00 | 01:46:50 | 00:00:00 | |
| DM0DOS-11 | 2026-09-03 18:16:45 | 49.09144 | 8.57970 | 231° | 5km/h | 23236m | 5.7m/s | -53.3°C | 3.8% | 35.4hPa | 2.6V | 03:32:09 | 01:46:43 | 00:00:00 | |
| BIOWL9-15 | 2026-09-03 18:16:44 | 49.09141 | 8.57959 | 276° | 9km/h | 23256m | 5.5m/s | -53.2°C | 0.8% | 35.4hPa | 2.6V | 00:00:00 | 00:00:00 | 00:00:00 | |
| DN1GJH-1 | 2026-09-03 18:16:43 | 49.09141 | 8.57959 | 277° | 9km/h | 23256m | 5.5m/s | -53.2°C | 0.9% | 35.3hPa | 2.6V | 03:32:00 | 00:00:00 | 00:00:00 | |
| DO3MHA-11 | 2026-09-03 18:16:42 | 49.09142 | 8.57966 | 240° | 9km/h | 23246m | 4.1m/s | -53.2°C | 3.8% | 35.3hPa | 2.6V | 00:00:00 | 01:46:45 | 00:00:00 | |
| DL6DJ-15 | 2026-09-03 18:16:41 | 49.09143 | 8.57968 | 232° | 5km/h | 23242m | 4.2m/s | -53.3°C | 0.8% | 35.4hPa | 2.7V | 00:00:00 | 00:00:00 | 00:00:00 | |
| DD1CC8 | 2026-09-03 18:16:40 | 49.09144 | 8.57970 | 231° | 4km/h | 23237m | 5.7m/s | -53.3°C | 0.8% | 35.4hPa | 2.7V | 00:00:00 | 00:00:00 | 00:00:00 | |
| DL1XH1-15 | 2026-09-03 18:16:39 | 49.09150 | 8.57986 | 236° | 18km/h | 23206m | 4.5m/s | -53.5°C | 3.8% | 35.6hPa | 2.7V | 03:32:15 | 01:46:37 | 00:00:00 | |
| DL1XH-west | 2026-09-03 18:16:39 | 49.09144 | 8.57972 | 238° | 4km/h | 23231m | 5.4m/s | -53.3°C | 0.1% | 35.5hPa | 2.7V | 03:32:37 | 01:46:42 | 00:00:00 | |
| BIOWL1-15 | 2026-09-03 18:16:38 | 49.09145 | 8.57973 | 249° | 4km/h | 23226m | 4.5m/s | -53.3°C | 0.1% | 35.5hPa | 2.7V | 03:32:37 | 01:46:41 | 00:00:00 | |
| CB1BUN | 2026-09-03 18:16:36 | 49.09145 | 8.57974 | 243° | 5km/h | 23222m | 4.4m/s | -53.4°C | 0.8% | 35.6hPa | 2.7V | 03:32:00 | 00:00:00 | 00:00:00 | |
| DM7RM-13 | 2026-09-03 18:16:35 | 49.09146 | 8.57977 | 240° | 11km/h | 23217m | 5.9m/s | -53.4°C | 0.9% | 35.6hPa | 2.7V | 03:32:00 | 00:00:00 | 00:00:00 | |
| DJTTGO | 2026-09-03 18:16:34 | 49.09148 | 8.57981 | 237° | 15km/h | 23211m | 5.5m/s | -53.4°C | 0.8% | 35.6hPa | 2.7V | 03:32:00 | 00:00:00 | 00:00:00 | |
| DB0UT-9 | 2026-09-03 18:16:33 | 49.09150 | 8.57986 | 237° | 18km/h | 23206m | 4.5m/s | -53.5°C | 0.9% | 35.6hPa | 2.7V | 03:32:00 | 00:00:00 | 00:00:00 | |
| DJ2KF-10 | 2026-09-03 18:16:32 | 49.09155 | 8.57998 | 244° | 22km/h | 23196m | 5.6m/s | -53.4°C | 3.8% | 35.6hPa | 2.7V | 03:32:00 | 01:46:35 | 00:00:00 | |
| DM0DOS-11 | 2026-09-03 18:16:31 | 49.09171 | 8.58020 | 180° | 15km/h | 23165m | 4.9m/s | -53.6°C | 4% | 35.8hPa | 2.7V | 03:32:23 | 01:46:29 | 00:00:00 | |
| DO8TBO-1 | 2026-09-03 18:16:31 | 49.09157 | 8.58004 | 245° | 20km/h | 23191m | 4.8m/s | -53.4°C | 3.9% | 35.6hPa | 2.6V | 00:00:00 | 01:46:34 | 00:00:00 | |
| IW2NTF | 2026-09-03 18:16:30 | 49.09175 | 8.58019 | 167° | 15km/h | 23160m | 6m/s | 0°C | 0% | 0hPa | 2.6V | 00:00:00 | 01:46:28 | 00:00:00 | |
| DL1XH-west | 2026-09-03 18:16:29 | 49.09161 | 8.58013 | 226° | 15km/h | 23181m | 5m/s | -53.5°C | 0.1% | 35.8hPa | 2.6V | 03:32:37 | 01:46:32 | 00:00:00 | |
| DK7TD | 2026-09-03 18:16:27 | 49.09167 | 8.58019 | 195° | 16km/h | 23170m | 4.8m/s | -53.5°C | 0.2% | 35.8hPa | 2.7V | 03:32:37 | 01:46:30 | 00:00:00 | |
| DB0ND-19 | 2026-09-03 18:16:26 | 49.09171 | 8.58020 | 180° | 15km/h | 23166m | 4.9m/s | -53.6°C | 0.9% | 35.8hPa | 2.7V | 00:00:00 | 00:00:00 | 00:00:00 | |
| DB0NH | 2026-09-03 18:16:25 | 49.09175 | 8.58019 | 168° | 22km/h | 23160m | 5.9m/s | -53.6°C | 4.0% | 35.8hPa | 2.7V | 03:32:00 | 01:46:28 | 00:00:00 | |
| DF1GD-15 | 2026-09-03 18:16:24 | 49.09175 | 8.58019 | 169° | 15km/h | 23160m | 6.0m/s | -53.6°C | 0.9% | 35.9hPa | 2.7V | 03:32:00 | 00:00:00 | 00:00:00 | |
| DL1ZP-14 | 2026-09-03 18:16:23 | 49.09186 | 8.58014 | 171° | 16km/h | 23146m | 4.6m/s | -53.6°C | 0.9% | 35.9hPa | 2.7V | 00:00:00 | 00:00:00 | 00:00:00 | |
| DO3MHA-11 | 2026-09-03 18:16:22 | 49.09186 | 8.58014 | 172° | 22km/h | 23146m | 4.5m/s | -53.5°C | 3.9% | 35.9hPa | 2.7V | 00:00:00 | 01:46:25 | 00:00:00 | |
| DM0DOS-11 | 2026-09-03 18:16:21 | 49.09216 | 8.58029 | 208° | 22km/h | 23117m | 4.1m/s | -53.5°C | 3.9% | 36.1hPa | 2.7V | 03:32:33 | 01:46:19 | 00:00:00 | |
| IW2NTF | 2026-09-03 18:16:20 | 49.09221 | 8.58033 | 202° | 22km/h | 23112m | 4.2m/s | 0°C | 0% | 0hPa | 2.6V | 00:00:00 | 01:46:18 | 00:00:00 | |
| DL1XH-west | 2026-09-03 18:16:19 | 49.09201 | 8.58018 | 202° | 24km/h | 23131m | 3.9m/s | -53.6°C | 0% | 36hPa | 2.6V | 03:32:37 | 01:46:22 | 00:00:00 | |
| DK7TD | 2026-09-03 18:16:15 | 49.09221 | 8.58033 | 203° | 22km/h | 23113m | 4.2m/s | -53.5°C | 0.1% | 36.1hPa | 2.6V | 03:32:37 | 01:46:18 | 00:00:00 | |
| DF7PN | 2026-09-03 18:16:14 | 49.09227 | 8.58036 | 196° | 24km/h | 23108m | 5.2m/s | -53.6°C | 0.9% | 36.2hPa | 2.7V | 00:00:00 | 00:00:00 | 00:00:00 | |
| DO3MHA-11 | 2026-09-03 18:16:12 | 49.09240 | 8.58040 | 185° | 20km/h | 23098m | 4.2m/s | -53.5°C | 3.9% | 36.2hPa | 2.7V | 00:00:00 | 01:46:15 | 00:00:00 | |
| DM0DOS-11 | 2026-09-03 18:16:11 | 49.09273 | 8.58031 | 168° | 22km/h | 23068m | 5.2m/s | -53.6°C | 3.9% | 36.4hPa | 2.7V | 03:32:43 | 01:46:09 | 00:00:00 | |
| DL6DJ-15 | 2026-09-03 18:16:10 | 49.09252 | 8.58039 | 172° | 22km/h | 23088m | 5.8m/s | -53.5°C | 0.8% | 36.3hPa | 2.6V | 00:00:00 | 00:00:00 | 00:00:00 | |
| IW2NTF | 2026-09-03 18:16:08 | 49.09289 | 8.58029 | 185° | 18km/h | 23053m | 5.6m/s | 0°C | 0% | 0hPa | 2.6V | 00:00:00 | 01:46:06 | 00:00:00 | |
| DL1XH-west | 2026-09-03 18:16:08 | 49.09263 | 8.58036 | 162° | 20km/h | 23079m | 4.2m/s | -53.5°C | 0.1% | 36.4hPa | 2.6V | 03:33:28 | 01:46:11 | 00:00:00 | |
| BIOWL1-15 | 2026-09-03 18:16:06 | 49.09273 | 8.58031 | 168° | 22km/h | 23068m | 5.2m/s | -53.6°C | 0% | 36.4hPa | 2.7V | 03:33:28 | 01:46:09 | 00:00:00 | |
| DK7TD | 2026-09-03 18:16:05 | 49.09279 | 8.58030 | 173° | 22km/h | 23063m | 4.7m/s | -53.6°C | 0.1% | 36.4hPa | 2.6V | 03:33:28 | 01:46:08 | 00:00:00 | |
| DJ2DS-15 | 2026-09-03 18:16:05 | 49.09279 | 8.58030 | 174° | 20km/h | 23064m | 4.6m/s | -53.6°C | 3.9% | 36.4hPa | 2.6V | 00:00:00 | 01:46:08 | 00:00:00 | |
| HEMX73-11 | 2026-09-03 18:16:04 | 49.09279 | 8.58030 | 174° | 22km/h | 23064m | 4.7m/s | -53.6°C | 0.9% | 36.4hPa | 2.7V | 03:33:00 | 00:00:00 | 00:00:00 | |
| DF1GD-15 | 2026-09-03 18:16:03 | 49.09284 | 8.58029 | 179° | 20km/h | 23059m | 5.1m/s | -53.7°C | 0.9% | 36.5hPa | 2.7V | 03:33:00 | 00:00:00 | 00:00:00 | |
| DO8TBO-1 | 2026-09-03 18:16:01 | 49.09297 | 8.58032 | 192° | 18km/h | 23043m | 4.8m/s | -53.8°C | 4.0% | 36.5hPa | 2.7V | 03:32:00 | 01:46:04 | 00:00:00 | |
| DM0DOS-11 | 2026-09-03 18:16:00 | 49.09328 | 8.58020 | 137° | 22km/h | 23012m | 5m/s | -53.8°C | 4% | 36.7hPa | 2.7V | 03:32:54 | 01:45:58 | 00:00:00 | |
| BIOWL1-15 | 2026-09-03 18:16:00 | 49.09324 | 8.58025 | 147° | 22km/h | 23018m | 5.8m/s | -53.9°C | 0.2% | 36.7hPa | 2.7V | 03:33:28 | 01:45:59 | 00:00:00 | |
| DL1XH1-15 | 2026-09-03 18:15:59 | 49.09332 | 8.58014 | 133° | 22km/h | 23008m | 3.9m/s | -53.8°C | 4% | 36.7hPa | 2.7V | 03:32:55 | 01:45:57 | 00:00:00 | |
| DL1XH-west | 2026-09-03 18:15:58 | 49.09313 | 8.58032 | 167° | 24km/h | 23027m | 4.2m/s | -53.8°C | 0.2% | 36.6hPa | 2.6V | 03:33:28 | 01:46:01 | 00:00:00 | |
| DK7TD | 2026-09-03 18:15:54 | 49.09332 | 8.58014 | 134° | 22km/h | 23008m | 3.9m/s | -53.8°C | 0.2% | 36.8hPa | 2.7V | 03:33:28 | 01:45:57 | 00:00:00 | |
| DL1ZP-14 | 2026-09-03 18:15:52 | 49.09345 | 8.57997 | 147° | 24km/h | 22994m | 4.3m/s | -53.8°C | 0.9% | 36.8hPa | 2.6V | 00:00:00 | 00:00:00 | 00:00:00 | |
| DM0DOS-11 | 2026-09-03 18:15:50 | 49.09370 | 8.57976 | 149° | 18km/h | 22963m | 5.2m/s | -53.8°C | 4% | 37hPa | 2.7V | 03:33:04 | 01:45:48 | 00:00:00 | |
| DB0UT-7 | 2026-09-03 18:15:50 | 49.09350 | 8.57992 | 150° | 16km/h | 22989m | 4.2m/s | -53.8°C | 4.0% | 36.8hPa | 2.7V | 03:32:00 | 01:45:53 | 00:00:00 | |
| DL1XH1-15 | 2026-09-03 18:15:49 | 49.09373 | 8.57972 | 139° | 18km/h | 22959m | 3.8m/s | -53.8°C | 4% | 37hPa | 2.7V | 03:33:05 | 01:45:47 | 00:00:00 | |
| DL1XH-west | 2026-09-03 18:15:48 | 49.09359 | 8.57985 | 151° | 16km/h | 22978m | 5.3m/s | -53.9°C | 0.2% | 36.9hPa | 2.6V | 03:33:28 | 01:45:51 | 00:00:00 | |
| BIOWL1-15 | 2026-09-03 18:15:45 | 49.09370 | 8.57976 | 149° | 18km/h | 22963m | 5.2m/s | -53.8°C | 0.2% | 37hPa | 2.7V | 03:33:28 | 01:45:48 | 00:00:00 | |
| DK7TD | 2026-09-03 18:15:44 | 49.09374 | 8.57972 | 140° | 18km/h | 22959m | 3.8m/s | -53.8°C | 0.1% | 37hPa | 2.7V | 03:33:28 | 01:45:47 | 00:00:00 | |
| DF7PN | 2026-09-03 18:15:43 | 49.09376 | 8.57967 | 125° | 16km/h | 22955m | 4.1m/s | -53.8°C | 0.9% | 37.0hPa | 2.7V | 00:00:00 | 00:00:00 | 00:00:00 | |
| BIOWL9-15 | 2026-09-03 18:15:42 | 49.09378 | 8.57962 | 110° | 15km/h | 22950m | 5.6m/s | -53.8°C | 0.9% | 37.1hPa | 2.7V | 00:00:00 | 00:00:00 | 00:00:00 | |
| DN1GJH-1 | 2026-09-03 18:15:41 | 49.09378 | 8.57962 | 111° | 16km/h | 22950m | 5.6m/s | -53.8°C | 0.9% | 37.1hPa | 2.7V | 03:33:00 | 00:00:00 | 00:00:00 | |
| DM0DOS-11 | 2026-09-03 18:15:40 | 49.09389 | 8.57918 | 143° | 22km/h | 22915m | 3.5m/s | -53.9°C | 4% | 37.3hPa | 2.7V | 03:33:14 | 01:45:38 | 00:00:00 | |
| DO3MHA-11 | 2026-09-03 18:15:40 | 49.09379 | 8.57949 | 88° | 18km/h | 22939m | 5.0m/s | -53.7°C | 4.0% | 37.1hPa | 2.7V | 03:33:00 | 01:45:43 | 00:00:00 | |
| DL1XH1-15 | 2026-09-03 18:15:39 | 49.09394 | 8.57913 | 146° | 18km/h | 22911m | 4.6m/s | -53.9°C | 4% | 37.3hPa | 2.7V | 03:33:15 | 01:45:37 | 00:00:00 | |
| DL1XH-west | 2026-09-03 18:15:37 | 49.09382 | 8.57929 | 122° | 20km/h | 22924m | 5.3m/s | -53.9°C | 0.2% | 37.2hPa | 2.6V | 03:33:28 | 01:45:40 | 00:00:00 | |
| BIOWL1-15 | 2026-09-03 18:15:35 | 49.09390 | 8.57918 | 144° | 22km/h | 22915m | 3.5m/s | -53.9°C | 0.1% | 37.3hPa | 2.7V | 03:33:28 | 01:45:38 | 00:00:00 | |
| DK7TD | 2026-09-03 18:15:33 | 49.09397 | 8.57910 | 147° | 16km/h | 22907m | 5.3m/s | -53.9°C | 0.2% | 37.3hPa | 2.6V | 03:33:28 | 01:45:36 | 00:00:00 | |
| DB0UT-9 | 2026-09-03 18:15:32 | 49.09397 | 8.57910 | 148° | 16km/h | 22907m | 5.3m/s | -53.9°C | 0.9% | 37.3hPa | 2.6V | 03:33:00 | 00:00:00 | 00:00:00 | |
| DM0DOS-11 | 2026-09-03 18:15:30 | 49.09405 | 8.57867 | 88° | 15km/h | 22868m | 4.8m/s | -53.6°C | 4% | 37.6hPa | 2.6V | 03:33:24 | 01:45:28 | 00:00:00 | |
| DO3MHA-11 | 2026-09-03 18:15:30 | 49.09403 | 8.57899 | 108° | 15km/h | 22892m | 5.1m/s | -53.7°C | 4.0% | 37.4hPa | 2.7V | 00:00:00 | 01:45:33 | 00:00:00 | |
| DL1XH1-15 | 2026-09-03 18:15:29 | 49.09405 | 8.57862 | 96° | 13km/h | 22863m | 4.1m/s | -53.5°C | 3.9% | 37.6hPa | 2.7V | 03:33:25 | 01:45:27 | 00:00:00 | |
| BIOWL1-15 | 2026-09-03 18:15:27 | 49.09405 | 8.57867 | 88° | 15km/h | 22868m | 4.8m/s | -53.6°C | 0.1% | 37.6hPa | 2.6V | 03:33:28 | 01:45:28 | 00:00:00 | |
| DL1XH-west | 2026-09-03 18:15:26 | 49.09405 | 8.57873 | 88° | 16km/h | 22873m | 5.5m/s | -53.6°C | 0.1% | 37.5hPa | 2.6V | 03:33:28 | 01:45:29 | 00:00:00 | |
| DK7TD | 2026-09-03 18:15:22 | 49.09407 | 8.57853 | 122° | 15km/h | 22854m | 5.9m/s | -53.5°C | 0.1% | 37.6hPa | 2.7V | 03:33:28 | 01:45:25 | 00:00:00 | |
| DM0DOS-11 | 2026-09-03 18:15:20 | 49.09420 | 8.57836 | 108° | 7km/h | 22820m | 5.4m/s | -53.5°C | 3.9% | 37.8hPa | 2.6V | 03:33:34 | 01:45:18 | 00:00:00 | |
| DL1XH-west | 2026-09-03 18:15:15 | 49.09420 | 8.57836 | 109° | 7km/h | 22820m | 5.4m/s | -53.5°C | 0.1% | 37.8hPa | 2.6V | 03:34:19 | 01:45:18 | 00:00:00 | |
| BIOWL1-15 | 2026-09-03 18:15:14 | 49.09421 | 8.57833 | 101° | 9km/h | 22815m | 5.1m/s | -53.5°C | 0.1% | 37.9hPa | 2.6V | 03:34:19 | 01:45:17 | 00:00:00 | |
| DK7TD | 2026-09-03 18:15:12 | 49.09421 | 8.57824 | 87° | 13km/h | 22805m | 5m/s | -53.4°C | 0.1% | 37.9hPa | 2.7V | 03:34:19 | 01:45:15 | 00:00:00 | |
| DL1XH1-15 | 2026-09-03 18:15:11 | 49.09423 | 8.57799 | 127° | 13km/h | 22776m | 4.2m/s | -53.4°C | 3.8% | 38.1hPa | 2.6V | 03:33:43 | 01:45:09 | 00:00:00 | |
| DM0DOS-11 | 2026-09-03 18:15:10 | 49.09426 | 8.57796 | 132° | 11km/h | 22773m | 3.7m/s | -53.4°C | 3.8% | 38.1hPa | 2.6V | 03:33:44 | 01:45:08 | 00:00:00 | |
| DL1XH-west | 2026-09-03 18:15:05 | 49.09426 | 8.57796 | 132° | 11km/h | 22773m | 3.7m/s | -53.4°C | 0.1% | 38.1hPa | 2.6V | 03:34:19 | 01:45:08 | 00:00:00 | |
| BIOWL1-15 | 2026-09-03 18:15:03 | 49.09428 | 8.57792 | 108° | 2km/h | 22763m | 5.3m/s | -53.4°C | 0.1% | 38.2hPa | 2.7V | 03:34:19 | 01:45:06 | 00:00:00 | |
| DL1XH1-15 | 2026-09-03 18:15:01 | 49.09419 | 8.57782 | 25° | 5km/h | 22729m | 5.2m/s | -53.9°C | 4.1% | 38.4hPa | 2.6V | 03:33:53 | 01:44:59 | 00:00:00 | |
| DK7TD | 2026-09-03 18:15:01 | 49.09427 | 8.57790 | 23° | 5km/h | 22753m | 4.7m/s | -53.6°C | 0.1% | 38.2hPa | 2.6V | 03:34:19 | 01:45:04 | 00:00:00 | |
| DM0DOS-11 | 2026-09-03 18:15:00 | 49.09418 | 8.57781 | 52° | 2km/h | 22724m | 4.3m/s | -53.9°C | 4.1% | 38.4hPa | 2.6V | 03:33:54 | 01:44:58 | 00:00:00 | |
| DL1XH-west | 2026-09-03 18:14:54 | 49.09419 | 8.57780 | 134° | 4km/h | 22720m | 4.4m/s | -53.9°C | 0.2% | 38.4hPa | 2.6V | 03:34:19 | 01:44:57 | 00:00:00 | |
| BIOWL1-15 | 2026-09-03 18:14:53 | 49.09420 | 8.57779 | 143° | 7km/h | 22715m | 5.7m/s | -53.8°C | 0.2% | 38.5hPa | 2.7V | 03:34:19 | 01:44:56 | 00:00:00 | |
| DK7TD | 2026-09-03 18:14:51 | 49.09424 | 8.57775 | 150° | 11km/h | 22705m | 4.3m/s | -53.8°C | 0.2% | 38.5hPa | 2.6V | 03:34:19 | 01:44:54 | 00:00:00 | |
| DM0DOS-11 | 2026-09-03 18:14:50 | 49.09422 | 8.57769 | 33° | 13km/h | 22677m | 5m/s | -53.6°C | 3.8% | 38.7hPa | 2.6V | 03:34:04 | 01:44:48 | 00:00:00 | |
| DL1ZP-14 | 2026-09-03 18:14:49 | 49.09427 | 8.57772 | 168° | 2km/h | 22695m | 5.0m/s | -53.7°C | 0.9% | 38.6hPa | 2.6V | 00:00:00 | 00:00:00 | 00:00:00 | |
| DF3TZ-5 | 2026-09-03 18:14:45 | 49.09420 | 8.57766 | 43° | 13km/h | 22672m | 4.1m/s | -53.6°C | 0.9% | 38.7hPa | 2.6V | 00:00:00 | 00:00:00 | 00:00:00 | |
| DL1XH-west | 2026-09-03 18:14:43 | 49.09418 | 8.57762 | 53° | 11km/h | 22668m | 4.2m/s | -53.6°C | 0.1% | 38.8hPa | 2.6V | 03:34:19 | 01:44:46 | 00:00:00 | |
| BIOWL1-15 | 2026-09-03 18:14:42 | 49.09416 | 8.57760 | 67° | 7km/h | 22663m | 4.8m/s | -53.7°C | 0.1% | 38.8hPa | 2.7V | 03:34:19 | 01:44:45 | 00:00:00 | |
| DK7TD | 2026-09-03 18:14:41 | 49.09416 | 8.57758 | 108° | 4km/h | 22659m | 5m/s | -53.7°C | 0.1% | 38.8hPa | 2.7V | 03:34:19 | 01:44:44 | 00:00:00 | |
| SONDE2-11 | 2026-09-03 18:14:41 | 49.09417 | 8.57757 | 167° | 4km/h | 22654m | 4.6m/s | -53.7°C | 0.9% | 38.8hPa | 2.7V | 00:00:00 | 00:00:00 | 00:00:00 | |
| DM0DOS-11 | 2026-09-03 18:14:40 | 49.09422 | 8.57751 | 118° | 9km/h | 22630m | 4.2m/s | -53.7°C | 3.9% | 39hPa | 2.7V | 03:34:14 | 01:44:38 | 00:00:00 | |
| BIOWL1-15 | 2026-09-03 18:14:34 | 49.09428 | 8.57743 | 151° | 13km/h | 22616m | 5.2m/s | -53.7°C | 0.1% | 39.1hPa | 2.6V | 03:34:19 | 01:44:35 | 00:00:00 | |
| DL1XH-west | 2026-09-03 18:14:33 | 49.09425 | 8.57746 | 141° | 11km/h | 22621m | 5.3m/s | -53.7°C | 0.1% | 39hPa | 2.6V | 03:34:19 | 01:44:36 | 00:00:00 | |
| AU51GT2 | 2026-09-03 18:14:33 | 49.09428 | 8.57743 | 151° | 11km/h | 22616m | 5.2m/s | -53.7°C | 0.9% | 39.1hPa | 2.7V | 00:00:00 | 00:00:00 | 00:00:00 | |
| NBG1-10 | 2026-09-03 18:14:32 | 49.09428 | 8.57743 | 152° | 18km/h | 22616m | 5.1m/s | -53.7°C | 3.9% | 39.0hPa | 2.7V | 03:34:00 | 01:44:35 | 00:00:00 | |
| DM7RM-13 | 2026-09-03 18:14:31 | 49.09427 | 8.57743 | 152° | 13km/h | 22616m | 5.2m/s | -53.7°C | 0.9% | 39.1hPa | 2.7V | 03:34:00 | 00:00:00 | 00:00:00 | |
| DM0DOS-11 | 2026-09-03 18:14:30 | 49.09444 | 8.57720 | 144° | 13km/h | 22583m | 5.3m/s | -54.1°C | 4% | 39.3hPa | 2.7V | 03:34:24 | 01:44:28 | 00:00:00 | |
| DK7TD | 2026-09-03 18:14:30 | 49.09433 | 8.57738 | 146° | 13km/h | 22607m | 4.6m/s | -53.8°C | 0.1% | 39.1hPa | 2.7V | 03:34:19 | 01:44:33 | 00:00:00 | |
| BIOWL1-15 | 2026-09-03 18:14:23 | 49.09456 | 8.57710 | 141° | 15km/h | 22564m | 5.1m/s | -54.1°C | 0.1% | 39.4hPa | 2.6V | 03:35:10 | 01:44:24 | 00:00:00 | |
| DL1XH-west | 2026-09-03 18:14:22 | 49.09453 | 8.57713 | 150° | 13km/h | 22569m | 5.2m/s | -54.1°C | 0.1% | 39.4hPa | 2.6V | 03:35:10 | 01:44:25 | 00:00:00 | |
| DL1XH1-15 | 2026-09-03 18:14:21 | 49.09472 | 8.57690 | 142° | 20km/h | 22541m | 4m/s | -54.2°C | 3.9% | 0hPa | 2.6V | 03:34:33 | 01:44:19 | 00:00:00 | |
| DK7TD | 2026-09-03 18:14:20 | 49.09458 | 8.57707 | 136° | 15km/h | 22560m | 3.7m/s | -54.1°C | 0.1% | 39.4hPa | 2.7V | 03:35:10 | 01:44:23 | 00:00:00 | |
| DF1GD-15 | 2026-09-03 18:14:20 | 49.09458 | 8.57706 | 137° | 15km/h | 22560m | 3.7m/s | -54.1°C | 0.9% | 39.4hPa | 2.7V | 03:35:00 | 00:00:00 | 00:00:00 | |
| DN1GJH-1 | 2026-09-03 18:14:19 | 49.09461 | 8.57702 | 138° | 16km/h | 22556m | 4.0m/s | -54.1°C | 0.9% | 39.4hPa | 2.7V | 03:35:00 | 00:00:00 | 00:00:00 | |
| DL1ZP-14 | 2026-09-03 18:14:18 | 49.09464 | 8.57698 | 141° | 16km/h | 22551m | 5.5m/s | -54.1°C | 0.9% | 39.5hPa | 2.7V | 00:00:00 | 00:00:00 | 00:00:00 | |
| DK5PH-5 | 2026-09-03 18:14:17 | 49.09468 | 8.57694 | 146° | 24km/h | 22546m | 4.7m/s | -54.1°C | 3.9% | 39.5hPa | 2.6V | 00:00:00 | 01:44:20 | 00:00:00 | |
| IW2NTF | 2026-09-03 18:14:16 | 49.09489 | 8.57661 | 133° | 22km/h | 22517m | 5.5m/s | 0°C | 0% | 0hPa | 2.6V | 00:00:00 | 01:44:14 | 00:00:00 | |
| DL1XH-west | 2026-09-03 18:14:12 | 49.09485 | 8.57667 | 127° | 20km/h | 22522m | 4.3m/s | -54.4°C | 0.1% | 39.7hPa | 2.6V | 03:35:10 | 01:44:15 | 00:00:00 | |
| DL1XH1-15 | 2026-09-03 18:14:11 | 49.09509 | 8.57630 | 126° | 24km/h | 22494m | 3.9m/s | -54.6°C | 4.1% | 0hPa | 2.6V | 03:34:43 | 01:44:09 | 00:00:00 | |
| BIOWL1-15 | 2026-09-03 18:14:10 | 49.09493 | 8.57655 | 140° | 22km/h | 22512m | 4.9m/s | -54.5°C | 0.1% | 39.7hPa | 2.6V | 03:35:10 | 01:44:13 | 00:00:00 | |
| SONDE2-11 | 2026-09-03 18:14:10 | 49.09497 | 8.57650 | 140° | 22km/h | 22508m | 3.9m/s | -54.5°C | 0.9% | 39.8hPa | 2.7V | 00:00:00 | 00:00:00 | 00:00:00 | |
| BIOWL9-15 | 2026-09-03 18:14:09 | 49.09497 | 8.57650 | 140° | 22km/h | 22508m | 3.9m/s | -54.5°C | 0.9% | 39.8hPa | 2.7V | 00:00:00 | 00:00:00 | 00:00:00 | |
| DB0UT-9 | 2026-09-03 18:14:08 | 49.09497 | 8.57649 | 142° | 24km/h | 22508m | 3.9m/s | -54.5°C | 0.9% | 39.8hPa | 2.7V | 03:35:00 | 00:00:00 | 00:00:00 | |
| DH7VM-15 | 2026-09-03 18:14:07 | 49.09501 | 8.57644 | 138° | 24km/h | 22504m | 4.8m/s | -54.5°C | 0.9% | 39.8hPa | 2.7V | 00:00:00 | 00:00:00 | 00:00:00 | |
| DL6DJ-15 | 2026-09-03 18:14:06 | 49.09509 | 8.57630 | 126° | 24km/h | 22494m | 3.9m/s | -54.6°C | 0.9% | 39.8hPa | 2.7V | 00:00:00 | 00:00:00 | 00:00:00 | |
| DD1CC8 | 2026-09-03 18:14:05 | 49.09517 | 8.57614 | 127° | 27km/h | 22485m | 5.5m/s | -54.7°C | 0.9% | 39.9hPa | 2.7V | 00:00:00 | 00:00:00 | 00:00:00 | |
| IW2NTF | 2026-09-03 18:14:04 | 49.09536 | 8.57566 | 101° | 26km/h | 22463m | 5.2m/s | 0°C | 0% | 0hPa | 2.7V | 00:00:00 | 01:44:02 | 00:00:00 | |
| DL1XH-west | 2026-09-03 18:14:01 | 49.09530 | 8.57586 | 120° | 29km/h | 22472m | 3.8m/s | -54.7°C | 0.3% | 40hPa | 2.6V | 03:35:10 | 01:44:04 | 00:00:00 | |
| DO3MHA-11 | 2026-09-03 18:14:00 | 49.09534 | 8.57576 | 113° | 26km/h | 22468m | 5.3m/s | -54.7°C | 4.2% | 39.9hPa | 2.6V | 00:00:00 | 01:44:03 | 00:00:00 | |
| DM0DOS-11 | 2026-09-03 18:13:59 | 49.09543 | 8.57522 | 125° | 26km/h | 22440m | 4.4m/s | -54.8°C | 4.2% | 40.1hPa | 2.6V | 03:34:55 | 01:43:57 | 00:00:00 | |
| DK7TD | 2026-09-03 18:13:59 | 49.09536 | 8.57566 | 102° | 27km/h | 22463m | 5.2m/s | -54.8°C | 0.3% | 40hPa | 2.7V | 03:35:10 | 01:44:02 | 00:00:00 | |
| NBG1-10 | 2026-09-03 18:13:59 | 49.09536 | 8.57566 | 102° | 16km/h | 22463m | 5.1m/s | -54.7°C | 4.2% | 40.0hPa | 2.7V | 00:00:00 | 01:44:02 | 00:00:00 | |
| DN1GJH-1 | 2026-09-03 18:13:58 | 49.09536 | 8.57566 | 103° | 27km/h | 22463m | 5.2m/s | -54.8°C | 1.0% | 40.0hPa | 2.6V | 03:35:00 | 00:00:00 | 00:00:00 | |
| DJTTGO | 2026-09-03 18:13:57 | 49.09537 | 8.57556 | 96° | 26km/h | 22458m | 4.2m/s | -54.8°C | 0.9% | 40.1hPa | 2.6V | 03:35:00 | 00:00:00 | 00:00:00 | |
| DB0NH | 2026-09-03 18:13:55 | 49.09540 | 8.57530 | 116° | 13km/h | 22445m | 5.0m/s | -54.8°C | 4.2% | 40.1hPa | 2.6V | 00:00:00 | 01:43:58 | 00:00:00 | |
| IW2NTF | 2026-09-03 18:13:54 | 49.09563 | 8.57480 | 122° | 24km/h | 22418m | 4.1m/s | 0°C | 0% | 0hPa | 2.6V | 00:00:00 | 01:43:52 | 00:00:00 | |
| DL1XH-west | 2026-09-03 18:13:51 | 49.09556 | 8.57497 | 125° | 27km/h | 22427m | 5.3m/s | -54.8°C | 0.2% | 40.2hPa | 2.7V | 03:35:10 | 01:43:54 | 00:00:00 | |
| BIOWL1-15 | 2026-09-03 18:13:49 | 49.09563 | 8.57480 | 122° | 24km/h | 22418m | 4.1m/s | -54.8°C | 0.2% | 40.3hPa | 2.6V | 03:35:10 | 01:43:52 | 00:00:00 | |
| DK5PH-5 | 2026-09-03 18:13:47 | 49.09569 | 8.57467 | 126° | 11km/h | 22408m | 5.1m/s | -54.8°C | 4.2% | 40.3hPa | 2.6V | 00:00:00 | 01:43:50 | 00:00:00 | |
| DJ2DS-15 | 2026-09-03 18:13:45 | 49.09572 | 8.57457 | 105° | 11km/h | 22399m | 5.4m/s | -54.8°C | 4.3% | 40.4hPa | 2.6V | 00:00:00 | 01:43:48 | 00:00:00 | |
| IW2NTF | 2026-09-03 18:13:44 | 49.09571 | 8.57431 | 98° | 13km/h | 22364m | 5.4m/s | 0°C | 0% | 0hPa | 2.6V | 00:00:00 | 01:43:41 | 00:00:00 | |
| BIOWL7-15 | 2026-09-03 18:13:42 | 49.09572 | 8.57448 | 69° | 11km/h | 22388m | 4.0m/s | -54.8°C | 1.0% | 40.5hPa | 2.7V | 03:35:00 | 00:00:00 | 00:00:00 | |
| DL1XH1-15 | 2026-09-03 18:13:41 | 49.09573 | 8.57420 | 115° | 16km/h | 22355m | 4.3m/s | 0°C | 0% | 0hPa | 2.7V | 00:00:00 | 01:43:39 | 00:00:00 | |
| DL1XH-west | 2026-09-03 18:13:40 | 49.09570 | 8.57438 | 94° | 9km/h | 22374m | 4.1m/s | 0°C | 0% | 40.6hPa | 2.6V | 03:35:10 | 01:43:43 | 00:00:00 | |
| BIOWL1-15 | 2026-09-03 18:13:39 | 49.09570 | 8.57435 | 97° | 9km/h | 22370m | 4.3m/s | -54.6°C | 0.3% | 40.6hPa | 2.6V | 03:35:10 | 01:43:42 | 00:00:00 | |
| DL1XH-west | 2026-09-03 18:13:30 | 49.09587 | 8.57399 | 98° | 5km/h | 22327m | 4.9m/s | 0°C | 0% | 0hPa | 2.6V | 18:12:15 | 01:43:33 | 00:00:00 | |
| BIOWL1-15 | 2026-09-03 18:13:28 | 49.09586 | 8.57397 | 4° | 5km/h | 22318m | 4.6m/s | -54.4°C | 0.2% | 40.9hPa | 2.6V | 03:36:01 | 01:43:31 | 00:00:00 | |
| KANTATE | 2026-09-03 18:13:27 | 49.09586 | 8.57397 | 5° | 5km/h | 22318m | 4.6m/s | -54.4°C | 0.9% | 40.9hPa | 2.7V | 00:00:00 | 00:00:00 | 00:00:00 | |
| NBG1-10 | 2026-09-03 18:13:26 | 49.09584 | 8.57399 | 296° | 11km/h | 22308m | 5.2m/s | -54.4°C | 4.2% | 40.9hPa | 2.7V | 00:00:00 | 01:43:29 | 00:00:00 | |
| DJ2DS-15 | 2026-09-03 18:13:25 | 49.09583 | 8.57401 | 273° | 9km/h | 22303m | 4.0m/s | -54.3°C | 4.1% | 41.0hPa | 2.7V | 00:00:00 | 01:43:28 | 00:00:00 | |
| SFWM-10 | 2026-09-03 18:13:24 | 49.09583 | 8.57401 | 274° | 5km/h | 22303m | 4.1m/s | -54.4°C | 0.9% | 41.0hPa | 2.7V | 03:36:00 | 00:00:00 | 00:00:00 | |
| DL0LBS | 2026-09-03 18:13:23 | 49.09583 | 8.57402 | 254° | 4km/h | 22299m | 4.7m/s | -54.4°C | 1.0% | 41.1hPa | 2.7V | 03:36:00 | 00:00:00 | 00:00:00 | |
| BIOWL7-15 | 2026-09-03 18:13:22 | 49.09584 | 8.57402 | 162° | 4km/h | 22294m | 5.5m/s | -54.3°C | 0.9% | 41.1hPa | 2.7V | 00:00:00 | 00:00:00 | 00:00:00 | |
| DO3MHA-11 | 2026-09-03 18:13:20 | 49.09589 | 8.57398 | 162° | 11km/h | 22280m | 5.1m/s | -54.1°C | 4.1% | 41.1hPa | 2.7V | 00:00:00 | 01:43:23 | 00:00:00 | |
| DM0DOS-11 | 2026-09-03 18:13:19 | 49.09602 | 8.57402 | 265° | 7km/h | 22251m | 4.3m/s | -54°C | 4.1% | 41.4hPa | 2.7V | 03:35:35 | 01:43:17 | 00:00:00 | |
| BIOWL1-15 | 2026-09-03 18:13:19 | 49.09598 | 8.57398 | 192° | 11km/h | 22265m | 4.8m/s | -54.1°C | 0.2% | 41.3hPa | 2.6V | 03:36:01 | 01:43:20 | 00:00:00 | |
| DL1XH-west | 2026-09-03 18:13:19 | 49.09592 | 8.57397 | 175° | 13km/h | 22274m | 5.6m/s | 0°C | 0% | 0hPa | 2.7V | 18:12:15 | 01:43:22 | 00:00:00 | |
| DK7TD | 2026-09-03 18:13:18 | 49.09595 | 8.57397 | 185° | 13km/h | 22269m | 4.4m/s | -54.1°C | 0.3% | 41.3hPa | 2.6V | 03:36:01 | 01:43:21 | 00:00:00 | |
| DJ2DS-15 | 2026-09-03 18:13:18 | 49.09598 | 8.57398 | 191° | 9km/h | 22265m | 4.8m/s | -54.1°C | 0.9% | 41.3hPa | 2.6V | 00:00:00 | 00:00:00 | 00:00:00 | |
| DK5PH-5 | 2026-09-03 18:13:17 | 49.09598 | 8.57397 | 192° | 11km/h | 22265m | 4.7m/s | -54.1°C | 4.1% | 41.3hPa | 2.6V | 00:00:00 | 01:43:20 | 00:00:00 | |
| DL1ZP-14 | 2026-09-03 18:13:16 | 49.09600 | 8.57399 | 201° | 7km/h | 22260m | 5.2m/s | -54.1°C | 0.9% | 41.3hPa | 2.6V | 00:00:00 | 00:00:00 | 00:00:00 | |
| DJTTGO | 2026-09-03 18:13:11 | 49.09601 | 8.57410 | 280° | 13km/h | 22241m | 4.6m/s | -54.0°C | 0.9% | 41.4hPa | 2.6V | 00:00:00 | 00:00:00 | 00:00:00 | |
| DO3MHA-11 | 2026-09-03 18:13:10 | 49.09600 | 8.57419 | 288° | 11km/h | 22232m | 4.8m/s | -53.9°C | 4.1% | 41.4hPa | 2.6V | 00:00:00 | 01:43:13 | 00:00:00 | |
| DM0DOS-11 | 2026-09-03 18:13:09 | 49.09610 | 8.57426 | 186° | 16km/h | 22202m | 5.1m/s | -53.7°C | 4.1% | 41.7hPa | 2.6V | 03:35:45 | 01:43:07 | 00:00:00 | |
| BIOWL1-15 | 2026-09-03 18:13:08 | 49.09603 | 8.57424 | 190° | 11km/h | 22213m | 5.7m/s | -53.8°C | 0.2% | 41.6hPa | 2.6V | 03:36:01 | 01:43:09 | 00:00:00 | |
| DL1XH-west | 2026-09-03 18:13:08 | 49.09600 | 8.57423 | 223° | 4km/h | 22223m | 4.2m/s | 0°C | 0% | 0hPa | 2.7V | 18:12:15 | 01:43:11 | 00:00:00 | |
| DK7TD | 2026-09-03 18:13:07 | 49.09601 | 8.57424 | 190° | 5km/h | 22218m | 5m/s | -53.8°C | 0.2% | 41.6hPa | 2.7V | 03:36:01 | 01:43:10 | 00:00:00 | |
| DB0UT-9 | 2026-09-03 18:13:06 | 49.09601 | 8.57423 | 191° | 5km/h | 22218m | 5.0m/s | -53.8°C | 0.9% | 41.6hPa | 2.6V | 03:36:00 | 00:00:00 | 00:00:00 | |
| DJ2DS-15 | 2026-09-03 18:13:05 | 49.09606 | 8.57425 | 189° | 15km/h | 22207m | 5.1m/s | -53.7°C | 4.1% | 41.6hPa | 2.6V | 00:00:00 | 01:43:08 | 00:00:00 | |
| DL6DJ-15 | 2026-09-03 18:13:04 | 49.09614 | 8.57426 | 186° | 16km/h | 22197m | 5.4m/s | -53.7°C | 0.9% | 41.7hPa | 2.6V | 00:00:00 | 00:00:00 | 00:00:00 | |
| DL8DAS-15 | 2026-09-03 18:13:02 | 49.09614 | 8.57426 | 187° | 16km/h | 22197m | 5.4m/s | -53.7°C | 1.0% | 41.7hPa | 2.6V | 00:00:00 | 00:00:00 | 00:00:00 | |
| BIOWL7-15 | 2026-09-03 18:13:01 | 49.09618 | 8.57427 | 195° | 16km/h | 22192m | 4.0m/s | -53.7°C | 0.9% | 41.8hPa | 2.6V | 00:00:00 | 00:00:00 | 00:00:00 | |
| AU51GT2 | 2026-09-03 18:13:00 | 49.09633 | 8.57459 | 242° | 4km/h | 22160m | 4.9m/s | -53.6°C | 0.9% | 42.0hPa | 2.6V | 00:00:00 | 00:00:00 | 00:00:00 | |
| IW2NTF | 2026-09-03 18:12:59 | 49.09634 | 8.57459 | 184° | 4km/h | 22155m | 3.9m/s | 0°C | 0% | 0hPa | 2.6V | 00:00:00 | 01:42:57 | 00:00:00 | |
| DK7TD | 2026-09-03 18:12:57 | 49.09632 | 8.57451 | 253° | 15km/h | 22170m | 3.9m/s | -53.6°C | 0.2% | 41.9hPa | 2.7V | 03:36:01 | 01:43:00 | 00:00:00 | |
| BIOWL1-15 | 2026-09-03 18:12:56 | 49.09632 | 8.57456 | 254° | 11km/h | 22165m | 5.6m/s | -53.6°C | 0.2% | 41.9hPa | 2.6V | 03:36:01 | 01:42:59 | 00:00:00 | |
| DB0NH | 2026-09-03 18:12:55 | 49.09633 | 8.57458 | 243° | 18km/h | 22160m | 4.8m/s | -53.5°C | 4.0% | 41.9hPa | 2.6V | 00:00:00 | 01:42:58 | 00:00:00 | |
| DM0DOS-11 | 2026-09-03 18:12:54 | 49.09645 | 8.57464 | 209° | 16km/h | 22132m | 4.2m/s | -53.4°C | 4% | 42.1hPa | 2.6V | 03:36:00 | 01:42:52 | 00:00:00 | |
| DK7TD | 2026-09-03 18:12:47 | 49.09653 | 8.57471 | 215° | 18km/h | 22122m | 5.1m/s | -53.4°C | 0.2% | 42.2hPa | 2.7V | 03:36:52 | 01:42:50 | 00:00:00 | |
| BIOWL1-15 | 2026-09-03 18:12:46 | 49.09657 | 8.57475 | 219° | 20km/h | 22117m | 4.2m/s | -53.3°C | 0.1% | 42.2hPa | 2.6V | 03:36:52 | 01:42:49 | 00:00:00 | |
| DL1ZP-14 | 2026-09-03 18:12:45 | 49.09661 | 8.57480 | 221° | 20km/h | 22113m | 4.7m/s | -53.3°C | 0.9% | 42.3hPa | 2.6V | 00:00:00 | 00:00:00 | 00:00:00 | |
| DK7TD | 2026-09-03 18:12:37 | 49.09688 | 8.57504 | 175° | 15km/h | 22075m | 4.5m/s | -53.1°C | 0.1% | 42.5hPa | 2.7V | 03:36:52 | 01:42:40 | 00:00:00 | |
| BIOWL1-15 | 2026-09-03 18:12:35 | 49.09698 | 8.57505 | 192° | 24km/h | 22065m | 4.7m/s | -53.1°C | 0.2% | 42.6hPa | 2.7V | 03:36:52 | 01:42:38 | 00:00:00 | |
| BIOWL1-15 | 2026-09-03 18:12:26 | 49.09762 | 8.57552 | 198° | 20km/h | 22014m | 4.6m/s | -53.2°C | 0.1% | 42.9hPa | 2.6V | 03:36:52 | 01:42:27 | 00:00:00 | |
| DK7TD | 2026-09-03 18:12:23 | 49.09766 | 8.57553 | 191° | 16km/h | 22009m | 5.2m/s | -53.3°C | 0.1% | 43hPa | 2.6V | 03:36:52 | 01:42:26 | 00:00:00 | |
| BIOWL1-15 | 2026-09-03 18:12:16 | 49.09827 | 8.57561 | 183° | 31km/h | 21966m | 5.5m/s | -53.7°C | 0.1% | 43.3hPa | 2.6V | 03:36:52 | 01:42:17 | 00:00:00 | |
| DM0DOS-11 | 2026-09-03 18:12:14 | 49.09866 | 8.57542 | 151° | 37km/h | 21941m | 4.4m/s | -53.8°C | 3.9% | 43.4hPa | 2.6V | 03:36:40 | 01:42:12 | 00:00:00 | |
| DK7TD | 2026-09-03 18:12:13 | 49.09835 | 8.57561 | 173° | 29km/h | 21961m | 4.5m/s | -53.7°C | 0.1% | 43.3hPa | 2.6V | 03:36:52 | 01:42:16 | 00:00:00 | |
| DO3MHA-11 | 2026-09-03 18:12:10 | 49.09857 | 8.57549 | 154° | 37km/h | 21946m | 5.5m/s | -53.7°C | 4.0% | 43.3hPa | 2.7V | 00:00:00 | 01:42:13 | 00:00:00 | |
| CB1BUN | 2026-09-03 18:12:09 | 49.09857 | 8.57549 | 155° | 37km/h | 21946m | 5.6m/s | -53.8°C | 0.9% | 43.4hPa | 2.7V | 03:36:00 | 00:00:00 | 00:00:00 | |
| DL8DAS-14 | 2026-09-03 18:12:08 | 49.09874 | 8.57536 | 151° | 35km/h | 21936m | 4.7m/s | -53.8°C | 0.9% | 43.4hPa | 2.7V | 00:00:00 | 00:00:00 | 00:00:00 | |
| OE5DRO-10 | 2026-09-03 18:12:07 | 49.09882 | 8.57530 | 154° | 37km/h | 21932m | 5.2m/s | 0°C | 0% | 0hPa | 2.7V | 00:00:00 | 00:00:00 | 00:00:00 | |
| DO8TBO-1 | 2026-09-03 18:12:06 | 49.09889 | 8.57524 | 159° | 35km/h | 21927m | 4.4m/s | -53.8°C | 3.9% | 43.5hPa | 2.7V | 03:36:00 | 01:42:09 | 00:00:00 | |
| DJ2DS-15 | 2026-09-03 18:12:05 | 49.09897 | 8.57520 | 165° | 35km/h | 21922m | 4.2m/s | -53.7°C | 3.9% | 43.5hPa | 2.7V | 00:00:00 | 01:42:08 | 00:00:00 | |
| DM0DOS-11 | 2026-09-03 18:12:04 | 49.09951 | 8.57503 | 157° | 29km/h | 21894m | 4.2m/s | -53.9°C | 3.9% | 43.7hPa | 2.6V | 03:36:50 | 01:42:02 | 00:00:00 | |
| DK7TD | 2026-09-03 18:12:03 | 49.09916 | 8.57514 | 170° | 38km/h | 21912m | 4.7m/s | -53.8°C | 0.1% | 43.6hPa | 2.6V | 03:36:52 | 01:42:06 | 00:00:00 | |
| SFWM-10 | 2026-09-03 18:12:02 | 49.09916 | 8.57514 | 171° | 38km/h | 21912m | 4.7m/s | -53.8°C | 0.9% | 43.6hPa | 2.6V | 03:36:00 | 00:00:00 | 00:00:00 | |
| DL8DAS-15 | 2026-09-03 18:12:01 | 49.09925 | 8.57512 | 173° | 38km/h | 21908m | 4.0m/s | -53.8°C | 0.9% | 43.6hPa | 2.6V | 03:36:00 | 00:00:00 | 00:00:00 | |
| DD1CC8 | 2026-09-03 18:12:00 | 49.09943 | 8.57507 | 167° | 31km/h | 21899m | 5.3m/s | -53.9°C | 0.9% | 43.7hPa | 2.6V | 00:00:00 | 00:00:00 | 00:00:00 | |
| AU51GT2 | 2026-09-03 18:11:58 | 49.09964 | 8.57491 | 139° | 31km/h | 21885m | 5.2m/s | -53.9°C | 0.9% | 43.8hPa | 2.6V | 00:00:00 | 00:00:00 | 00:00:00 | |
| DH7VM-15 | 2026-09-03 18:11:57 | 49.09958 | 8.57498 | 148° | 29km/h | 21890m | 4.0m/s | -53.9°C | 0.9% | 43.8hPa | 2.6V | 00:00:00 | 00:00:00 | 00:00:00 | |
| DF1GD-15 | 2026-09-03 18:11:56 | 49.09964 | 8.57491 | 140° | 33km/h | 21885m | 5.2m/s | -53.9°C | 0.9% | 43.8hPa | 2.6V | 03:36:00 | 00:00:00 | 00:00:00 | |
| DM0DOS-11 | 2026-09-03 18:11:54 | 49.10020 | 8.57426 | 158° | 38km/h | 21845m | 4.4m/s | -54.3°C | 4% | 44.1hPa | 2.6V | 03:37:00 | 01:41:52 | 00:00:00 | |
| BIOWL1-15 | 2026-09-03 18:11:52 | 49.09996 | 8.57444 | 146° | 33km/h | 21860m | 4.4m/s | -54.2°C | 0.2% | 44hPa | 2.7V | 03:37:43 | 01:41:55 | 00:00:00 | |
| DB0ND-19 | 2026-09-03 18:11:47 | 49.10045 | 8.57412 | 160° | 31km/h | 21832m | 4.9m/s | -54.5°C | 1.0% | 44.2hPa | 2.6V | 00:00:00 | 00:00:00 | 00:00:00 | |
| DJ2KF-10 | 2026-09-03 18:11:46 | 49.10045 | 8.57412 | 161° | 33km/h | 21832m | 4.9m/s | 0°C | 0% | 0hPa | 2.6V | 00:00:00 | 01:41:49 | 00:00:00 | |
| DJ2DS-15 | 2026-09-03 18:11:45 | 49.10053 | 8.57408 | 156° | 31km/h | 21827m | 4.4m/s | -54.5°C | 4.1% | 44.2hPa | 2.6V | 00:00:00 | 01:41:48 | 00:00:00 | |
| DM0DOS-11 | 2026-09-03 18:11:44 | 49.10094 | 8.57357 | 142° | 37km/h | 21801m | 4.8m/s | -54.6°C | 4% | 44.4hPa | 2.6V | 03:37:10 | 01:41:42 | 00:00:00 | |
| BIOWL1-15 | 2026-09-03 18:11:41 | 49.10079 | 8.57377 | 136° | 38km/h | 21809m | 3.9m/s | -54.7°C | 0.2% | 44.3hPa | 2.7V | 03:37:43 | 01:41:44 | 00:00:00 | |
| DO3MHA-11 | 2026-09-03 18:11:40 | 49.10086 | 8.57366 | 139° | 29km/h | 21806m | 3.4m/s | -54.6°C | 4.1% | 44.3hPa | 2.7V | 03:37:00 | 01:41:43 | 00:00:00 | |
| DL0LBS | 2026-09-03 18:11:39 | 49.10087 | 8.57366 | 139° | 38km/h | 21806m | 3.4m/s | -54.7°C | 1.0% | 44.4hPa | 2.7V | 03:37:00 | 00:00:00 | 00:00:00 | |
| DJTTGO | 2026-09-03 18:11:38 | 49.10094 | 8.57357 | 144° | 37km/h | 21802m | 4.8m/s | -54.6°C | 0.9% | 44.4hPa | 2.7V | 03:37:00 | 00:00:00 | 00:00:00 | |
| DL8DAS-14 | 2026-09-03 18:11:37 | 49.10108 | 8.57344 | 155° | 29km/h | 21792m | 4.2m/s | -54.6°C | 0.9% | 44.4hPa | 2.7V | 00:00:00 | 00:00:00 | 00:00:00 | |
| DO8TBO-1 | 2026-09-03 18:11:36 | 49.10115 | 8.57340 | 159° | 29km/h | 21789m | 3.1m/s | -54.5°C | 4.0% | 44.4hPa | 2.7V | 00:00:00 | 01:41:39 | 00:00:00 | |
| DF7PN | 2026-09-03 18:11:35 | 49.10121 | 8.57336 | 154° | 26km/h | 21784m | 4.7m/s | -54.5°C | 0.9% | 44.5hPa | 2.7V | 00:00:00 | 00:00:00 | 00:00:00 | |
| DM0DOS-11 | 2026-09-03 18:11:34 | 49.10149 | 8.57290 | 123° | 31km/h | 21755m | 4.4m/s | -54.8°C | 4.1% | 44.7hPa | 2.7V | 03:37:20 | 01:41:32 | 00:00:00 | |
| BIOWL1-15 | 2026-09-03 18:11:30 | 49.10145 | 8.57299 | 123° | 29km/h | 21760m | 5.5m/s | -54.7°C | 0.2% | 44.6hPa | 2.7V | 03:37:43 | 01:41:33 | 00:00:00 | |
| DO3MHA-11 | 2026-09-03 18:11:30 | 49.10145 | 8.57299 | 124° | 33km/h | 21761m | 5.4m/s | -54.7°C | 4.1% | 44.6hPa | 2.7V | 00:00:00 | 01:41:33 | 00:00:00 | |
| DD1CC8 | 2026-09-03 18:11:29 | 49.10149 | 8.57289 | 123° | 29km/h | 21755m | 4.4m/s | -54.8°C | 0.9% | 44.7hPa | 2.7V | 00:00:00 | 00:00:00 | 00:00:00 | |
| DM7RM-13 | 2026-09-03 18:11:28 | 49.10149 | 8.57290 | 124° | 31km/h | 21755m | 4.4m/s | -54.8°C | 1.0% | 44.7hPa | 2.7V | 03:37:00 | 00:00:00 | 00:00:00 | |
| AU51GT2 | 2026-09-03 18:11:27 | 49.10163 | 8.57256 | 126° | 38km/h | 21741m | 4.8m/s | -55.1°C | 1.0% | 44.8hPa | 2.7V | 00:00:00 | 00:00:00 | 00:00:00 | |
| DJ2DS-15 | 2026-09-03 18:11:25 | 49.10170 | 8.57244 | 132° | 27km/h | 21737m | 2.9m/s | -55.2°C | 4.2% | 44.8hPa | 2.7V | 03:37:00 | 01:41:28 | 00:00:00 | |
| DM0DOS-11 | 2026-09-03 18:11:24 | 49.10202 | 8.57205 | 117° | 15km/h | 21712m | 4.8m/s | -55.4°C | 4.3% | 45hPa | 2.7V | 03:37:30 | 01:41:22 | 00:00:00 | |
| DK7TD | 2026-09-03 18:11:19 | 49.10202 | 8.57205 | 117° | 15km/h | 21712m | 4.9m/s | -55.4°C | 0.3% | 45hPa | 2.7V | 03:37:43 | 01:41:22 | 00:00:00 | |
| DK5PH-5 | 2026-09-03 18:11:17 | 49.10204 | 8.57190 | 97° | 27km/h | 21703m | 4.2m/s | -55.3°C | 4.3% | 45.0hPa | 2.7V | 00:00:00 | 01:41:20 | 00:00:00 | |
| DB0ND-19 | 2026-09-03 18:11:16 | 49.10207 | 8.57167 | 105° | 33km/h | 21694m | 4.9m/s | -55.3°C | 1.0% | 45.1hPa | 2.6V | 00:00:00 | 00:00:00 | 00:00:00 | |
| DO1YAY-16 | 2026-09-03 18:11:15 | 49.10207 | 8.57167 | 105° | 33km/h | 21694m | 4.9m/s | -55.3°C | 1.0% | 45.1hPa | 2.6V | 00:00:00 | 00:00:00 | 00:00:00 | |
| DM0DOS-11 | 2026-09-03 18:11:14 | 49.10223 | 8.57099 | 102° | 24km/h | 21666m | 4.3m/s | -55.1°C | 4.2% | 45.3hPa | 2.6V | 03:37:40 | 01:41:12 | 00:00:00 | |
| BIOWL1-15 | 2026-09-03 18:11:10 | 49.10224 | 8.57090 | 101° | 22km/h | 21662m | 3.9m/s | -55.1°C | 0.3% | 45.4hPa | 2.7V | 03:37:43 | 01:41:11 | 00:00:00 | |
| DK7TD | 2026-09-03 18:11:09 | 49.10223 | 8.57099 | 102° | 24km/h | 21666m | 4.3m/s | -55.2°C | 0.2% | 45.3hPa | 2.6V | 03:37:43 | 01:41:12 | 00:00:00 | |
| DL1XH-west | 2026-09-03 18:11:07 | 49.10225 | 8.57081 | 104° | 24km/h | 21658m | 4.7m/s | -55.1°C | 0.2% | 45.4hPa | 2.7V | 03:37:43 | 01:41:10 | 00:00:00 | |
| DO8TBO-1 | 2026-09-03 18:11:06 | 49.10227 | 8.57072 | 108° | 27km/h | 21653m | 5.3m/s | -55.0°C | 4.2% | 45.4hPa | 2.6V | 00:00:00 | 01:41:09 | 00:00:00 | |
| DJ2DS-15 | 2026-09-03 18:11:05 | 49.10229 | 8.57063 | 111° | 24km/h | 21648m | 4.3m/s | -55.0°C | 4.2% | 45.4hPa | 2.6V | 00:00:00 | 01:41:08 | 00:00:00 | |
| DM0DOS-11 | 2026-09-03 18:11:04 | 49.10247 | 8.57017 | 128° | 24km/h | 21621m | 4.4m/s | -54.9°C | 4.2% | 45.6hPa | 2.6V | 03:37:50 | 01:41:02 | 00:00:00 | |
| BIOWL1-15 | 2026-09-03 18:10:58 | 49.10251 | 8.57009 | 127° | 26km/h | 21616m | 5.5m/s | -54.9°C | 0.2% | 45.7hPa | 2.6V | 03:38:34 | 01:41:01 | 00:00:00 | |
| DL1XH-west | 2026-09-03 18:10:56 | 49.10259 | 8.56992 | 123° | 27km/h | 21607m | 3.8m/s | -55°C | 0.2% | 45.7hPa | 2.7V | 03:38:34 | 01:40:59 | 00:00:00 | |
| AU51GT2 | 2026-09-03 18:10:56 | 49.10262 | 8.56984 | 123° | 24km/h | 21603m | 5.4m/s | -55.1°C | 1.0% | 45.8hPa | 2.6V | 00:00:00 | 00:00:00 | 00:00:00 | |
| DM0DOS-11 | 2026-09-03 18:10:54 | 49.10287 | 8.56944 | 146° | 24km/h | 21573m | 5.2m/s | -55.2°C | 4.3% | 46hPa | 2.6V | 03:38:00 | 01:40:52 | 00:00:00 | |
| DK7TD | 2026-09-03 18:10:48 | 49.10293 | 8.56939 | 151° | 22km/h | 21567m | 5.6m/s | -55.1°C | 0.3% | 46hPa | 2.6V | 03:38:34 | 01:40:51 | 00:00:00 | |
| DL1XH-west | 2026-09-03 18:10:45 | 49.10308 | 8.56925 | 142° | 26km/h | 21552m | 5.5m/s | -55.1°C | 0.3% | 46.1hPa | 2.7V | 03:38:34 | 01:40:48 | 00:00:00 | |
| DB0ND-19 | 2026-09-03 18:10:45 | 49.10313 | 8.56918 | 137° | 27km/h | 21548m | 4.2m/s | -55.1°C | 1.0% | 46.1hPa | 2.6V | 00:00:00 | 00:00:00 | 00:00:00 | |
| DO1YAY-16 | 2026-09-03 18:10:44 | 49.10313 | 8.56918 | 137° | 27km/h | 21548m | 4.2m/s | -55.1°C | 1.0% | 46.1hPa | 2.6V | 00:00:00 | 00:00:00 | 00:00:00 | |
| DM0DOS-11 | 2026-09-03 18:10:44 | 49.10335 | 8.56880 | 131° | 26km/h | 21524m | 4.5m/s | -55°C | 4.3% | 46.3hPa | 2.7V | 03:38:10 | 01:40:42 | 00:00:00 | |
| BIOWL1-15 | 2026-09-03 18:10:37 | 49.10350 | 8.56854 | 132° | 31km/h | 21510m | 3.7m/s | -54.8°C | 0.3% | 46.5hPa | 2.6V | 03:38:34 | 01:40:39 | 00:00:00 | |
| DK7TD | 2026-09-03 18:10:37 | 49.10345 | 8.56863 | 132° | 31km/h | 21514m | 4.8m/s | -54.9°C | 0.3% | 46.4hPa | 2.6V | 03:38:34 | 01:40:40 | 00:00:00 | |
| DL1XH-west | 2026-09-03 18:10:35 | 49.10356 | 8.56845 | 133° | 31km/h | 21506m | 3.5m/s | -54.8°C | 0.3% | 46.5hPa | 2.6V | 03:38:34 | 01:40:38 | 00:00:00 | |
| DM0DOS-11 | 2026-09-03 18:10:34 | 49.10383 | 8.56811 | 145° | 24km/h | 21478m | 4.5m/s | -54.7°C | 4.2% | 46.7hPa | 2.7V | 03:38:20 | 01:40:32 | 00:00:00 | |
| DK7TD | 2026-09-03 18:10:27 | 49.10393 | 8.56801 | 144° | 22km/h | 21469m | 5.1m/s | -54.7°C | 0.2% | 46.8hPa | 2.6V | 03:38:34 | 01:40:30 | 00:00:00 | |
| BIOWL1-15 | 2026-09-03 18:10:26 | 49.10397 | 8.56795 | 141° | 22km/h | 21463m | 5.6m/s | -54.7°C | 0.2% | 46.8hPa | 2.6V | 03:38:34 | 01:40:29 | 00:00:00 | |
| DL1XH-west | 2026-09-03 18:10:25 | 49.10401 | 8.56790 | 135° | 22km/h | 21458m | 4.8m/s | -54.7°C | 0.2% | 46.8hPa | 2.6V | 03:38:34 | 01:40:28 | 00:00:00 | |
| DJ2DS-15 | 2026-09-03 18:10:25 | 49.10401 | 8.56790 | 135° | 24km/h | 21458m | 4.8m/s | -54.6°C | 4.1% | 46.8hPa | 2.6V | 00:00:00 | 01:40:28 | 00:00:00 | |
| DM0DOS-11 | 2026-09-03 18:10:24 | 49.10420 | 8.56742 | 113° | 20km/h | 21429m | 5.1m/s | -54.6°C | 4.1% | 47hPa | 2.6V | 03:38:30 | 01:40:22 | 00:00:00 | |
| DK7TD | 2026-09-03 18:10:16 | 49.10428 | 8.56721 | 127° | 22km/h | 21414m | 5.1m/s | -54.6°C | 0.3% | 47.2hPa | 2.7V | 03:38:34 | 01:40:19 | 00:00:00 | |
| BIOWL1-15 | 2026-09-03 18:10:15 | 49.10432 | 8.56714 | 133° | 24km/h | 21409m | 4m/s | -54.5°C | 0.3% | 47.2hPa | 2.6V | 03:38:34 | 01:40:18 | 00:00:00 | |
| DL1XH-west | 2026-09-03 18:10:14 | 49.10436 | 8.56708 | 136° | 22km/h | 21405m | 4.8m/s | 0°C | 0% | 47.2hPa | 2.6V | 03:39:25 | 01:40:17 | 00:00:00 | |
| DB0ND-19 | 2026-09-03 18:10:14 | 49.10440 | 8.56703 | 139° | 20km/h | 21400m | 5.5m/s | -54.5°C | 1.0% | 47.2hPa | 2.6V | 00:00:00 | 00:00:00 | 00:00:00 | |
| DM0DOS-11 | 2026-09-03 18:10:13 | 49.10459 | 8.56670 | 120° | 27km/h | 21376m | 3.6m/s | -54.3°C | 4.1% | 47.4hPa | 2.6V | 03:38:41 | 01:40:11 | 00:00:00 | |
| DK7TD | 2026-09-03 18:10:06 | 49.10465 | 8.56652 | 109° | 22km/h | 21366m | 5.4m/s | -54.3°C | 0.2% | 47.5hPa | 2.7V | 03:39:25 | 01:40:09 | 00:00:00 | |
| BIOWL1-15 | 2026-09-03 18:10:04 | 49.10467 | 8.56638 | 101° | 18km/h | 21356m | 4.5m/s | -54.2°C | 0.1% | 47.6hPa | 2.7V | 03:39:25 | 01:40:07 | 00:00:00 | |
| DM0DOS-11 | 2026-09-03 18:10:03 | 49.10476 | 8.56612 | 151° | 13km/h | 21327m | 4.5m/s | -54.4°C | 4.2% | 47.8hPa | 2.6V | 03:38:51 | 01:40:01 | 00:00:00 | |
| DK7TD | 2026-09-03 18:09:56 | 49.10483 | 8.56605 | 144° | 20km/h | 21317m | 5.7m/s | -54.4°C | 0.3% | 47.9hPa | 2.6V | 03:39:25 | 01:39:59 | 00:00:00 | |
| BIOWL1-15 | 2026-09-03 18:09:54 | 49.10492 | 8.56593 | 134° | 26km/h | 21309m | 3.2m/s | -54.3°C | 0.3% | 47.9hPa | 2.7V | 03:39:25 | 01:39:57 | 00:00:00 | |
| DK7TD | 2026-09-03 18:09:45 | 49.10510 | 8.56559 | 129° | 11km/h | 21268m | 3.9m/s | -54°C | 0.3% | 48.2hPa | 2.6V | 03:39:25 | 01:39:48 | 00:00:00 | |
| DL1XH-west | 2026-09-03 18:09:44 | 49.10512 | 8.56556 | 128° | 9km/h | 21263m | 5.1m/s | 0°C | 0% | 48.3hPa | 2.6V | 03:39:25 | 01:39:47 | 00:00:00 | |
| BIOWL1-15 | 2026-09-03 18:09:43 | 49.10535 | 8.56548 | 179° | 29km/h | 21235m | 4.7m/s | -53.8°C | 0.3% | 48.5hPa | 2.7V | 03:39:25 | 01:39:41 | 00:00:00 | |
| DB0ND-19 | 2026-09-03 18:09:43 | 49.10515 | 8.56551 | 153° | 9km/h | 21254m | 4.0m/s | -53.9°C | 1.0% | 48.4hPa | 2.7V | 00:00:00 | 00:00:00 | 00:00:00 | |
| DM0DOS-11 | 2026-09-03 18:09:42 | 49.10535 | 8.56548 | 178° | 29km/h | 21234m | 4.7m/s | -53.8°C | 4.1% | 48.5hPa | 2.7V | 03:39:11 | 01:39:41 | 00:00:00 | |
| DK7TD | 2026-09-03 18:09:35 | 49.10555 | 8.56547 | 179° | 18km/h | 21221m | 5.4m/s | -53.7°C | 0.2% | 48.6hPa | 2.6V | 03:39:25 | 01:39:38 | 00:00:00 | |
| DL1XH-west | 2026-09-03 18:09:34 | 49.10559 | 8.56547 | 170° | 13km/h | 21216m | 4.6m/s | 0°C | 0% | 48.6hPa | 2.6V | 03:39:25 | 01:39:37 | 00:00:00 | |
| BIOWL1-15 | 2026-09-03 18:09:32 | 49.10563 | 8.56543 | 125° | 9km/h | 21207m | 5.5m/s | -53.6°C | 0.1% | 48.7hPa | 2.7V | 03:39:25 | 01:39:35 | 00:00:00 | |
| BIOWL1-15 | 2026-09-03 18:09:26 | 49.10611 | 8.56511 | 144° | 26km/h | 21153m | 4.1m/s | -53.3°C | 0.2% | 49.1hPa | 2.7V | 03:40:16 | 01:39:24 | 00:00:00 | |
| DK7TD | 2026-09-03 18:09:24 | 49.10594 | 8.56525 | 166° | 27km/h | 21168m | 5.2m/s | -53.4°C | 0.2% | 49hPa | 2.6V | 03:39:25 | 01:39:27 | 00:00:00 | |
| DL1XH-west | 2026-09-03 18:09:23 | 49.10600 | 8.56522 | 157° | 27km/h | 21162m | 5.8m/s | 0°C | 0% | 49hPa | 2.6V | 03:40:16 | 01:39:26 | 00:00:00 | |
| DK7TD | 2026-09-03 18:09:14 | 49.10650 | 8.56478 | 148° | 29km/h | 21119m | 5.5m/s | -53.1°C | 0.1% | 49.4hPa | 2.7V | 03:40:16 | 01:39:17 | 00:00:00 | |
| DL1XH-west | 2026-09-03 18:09:12 | 49.10661 | 8.56467 | 148° | 26km/h | 21109m | 5.6m/s | 0°C | 0% | 49.4hPa | 2.6V | 03:40:16 | 01:39:15 | 00:00:00 | |
| BIOWL1-15 | 2026-09-03 18:09:10 | 49.10695 | 8.56435 | 148° | 29km/h | 21079m | 4.5m/s | -53°C | 0.1% | 49.7hPa | 2.6V | 03:40:16 | 01:39:09 | 00:00:00 | |
| DK7TD | 2026-09-03 18:09:03 | 49.10715 | 8.56418 | 152° | 31km/h | 21064m | 3.7m/s | -53°C | 0.2% | 49.8hPa | 2.7V | 03:40:16 | 01:39:06 | 00:00:00 | |
| DL1XH-west | 2026-09-03 18:09:02 | 49.10723 | 8.56412 | 149° | 33km/h | 21060m | 5.2m/s | 0°C | 0% | 49.8hPa | 2.6V | 03:40:16 | 01:39:05 | 00:00:00 | |
| BIOWL1-15 | 2026-09-03 18:08:57 | 49.10756 | 8.56372 | 142° | 29km/h | 21033m | 5.5m/s | -53.2°C | 0.2% | 50hPa | 2.7V | 03:40:16 | 01:39:00 | 00:00:00 | |
| DL6DJ-15 | 2026-09-03 18:08:55 | 49.10767 | 8.56358 | 141° | 29km/h | 21023m | 5.7m/s | 0°C | -1.0% | -1.0hPa | 2.7V | 00:00:00 | 00:00:00 | 00:00:00 | |
| DD1CC8 | 2026-09-03 18:08:54 | 49.10780 | 8.56341 | 140° | 37km/h | 21012m | 4.6m/s | -53.3°C | 0.9% | 50.2hPa | 2.7V | 00:00:00 | 00:00:00 | 00:00:00 | |
| DM0DOS-11 | 2026-09-03 18:08:52 | 49.10826 | 8.56284 | 133° | 42km/h | 20982m | 5.9m/s | -53.2°C | 3.9% | 50.4hPa | 2.7V | 03:40:02 | 01:38:50 | 00:00:00 | |
| DK7TD | 2026-09-03 18:08:52 | 49.10788 | 8.56332 | 142° | 38km/h | 21007m | 4.7m/s | -53.3°C | 0.1% | 50.2hPa | 2.7V | 03:40:16 | 01:38:55 | 00:00:00 | |
| BIOWL1-15 | 2026-09-03 18:08:47 | 49.10826 | 8.56284 | 133° | 42km/h | 20982m | 5.9m/s | -53.2°C | 0.2% | 50.4hPa | 2.7V | 03:40:16 | 01:38:50 | 00:00:00 | |
| DK7TD | 2026-09-03 18:08:42 | 49.10861 | 8.56226 | 140° | 38km/h | 20956m | 4.6m/s | -53.1°C | 0.1% | 50.6hPa | 2.7V | 03:40:16 | 01:38:45 | 00:00:00 | |
| BIOWL1-15 | 2026-09-03 18:08:38 | 49.10908 | 8.56170 | 144° | 33km/h | 20925m | 5.3m/s | -53.1°C | 0.1% | 50.9hPa | 2.7V | 03:40:16 | 01:38:39 | 00:00:00 | |
| DL1XH-west | 2026-09-03 18:08:38 | 49.10893 | 8.56186 | 143° | 40km/h | 20936m | 4.8m/s | 0°C | 0% | 50.8hPa | 2.6V | 03:40:16 | 01:38:41 | 00:00:00 | |
| DK7TD | 2026-09-03 18:08:32 | 49.10929 | 8.56134 | 122° | 33km/h | 20904m | 4.1m/s | -53.2°C | 0.2% | 51.1hPa | 2.6V | 03:41:07 | 01:38:35 | 00:00:00 | |
| DL1XH-west | 2026-09-03 18:08:27 | 49.10956 | 8.56088 | 144° | 33km/h | 20879m | 4.8m/s | 0°C | 0% | 51.2hPa | 2.6V | 18:12:15 | 01:38:30 | 00:00:00 | |
| BIOWL1-15 | 2026-09-03 18:08:25 | 49.10970 | 8.56072 | 143° | 35km/h | 20869m | 4.5m/s | -53.6°C | 0.2% | 51.3hPa | 2.7V | 03:41:07 | 01:38:28 | 00:00:00 | |
| DK7TD | 2026-09-03 18:08:21 | 49.10995 | 8.56046 | 147° | 26km/h | 20850m | 4.5m/s | -53.6°C | 0.1% | 51.5hPa | 2.6V | 03:41:07 | 01:38:24 | 00:00:00 | |
| DL1XH-west | 2026-09-03 18:08:16 | 49.11018 | 8.56004 | 122° | 33km/h | 20826m | 5.2m/s | 0°C | 0% | 0hPa | 2.6V | 18:12:15 | 01:38:19 | 00:00:00 | |
| BIOWL1-15 | 2026-09-03 18:08:15 | 49.11027 | 8.55983 | 125° | 33km/h | 20816m | 4.6m/s | -53.6°C | 0.2% | 51.7hPa | 2.6V | 03:41:07 | 01:38:17 | 00:00:00 | |
| KANTATE | 2026-09-03 18:08:13 | 49.11027 | 8.55983 | 126° | 33km/h | 20816m | 4.6m/s | -53.6°C | 1.0% | 51.7hPa | 2.7V | 00:00:00 | 00:00:00 | 00:00:00 | |
| DM0DOS-11 | 2026-09-03 18:08:11 | 49.11063 | 8.55919 | 151° | 24km/h | 20782m | 4.7m/s | -53.8°C | 4% | 52hPa | 2.7V | 03:40:42 | 01:38:10 | 00:00:00 | |
| DK7TD | 2026-09-03 18:08:11 | 49.11041 | 8.55951 | 125° | 35km/h | 20801m | 4.7m/s | -53.7°C | 0.2% | 51.9hPa | 2.6V | 03:41:07 | 01:38:14 | 00:00:00 | |
| DL1XH-west | 2026-09-03 18:08:06 | 49.11068 | 8.55915 | 154° | 22km/h | 20778m | 3.8m/s | 0°C | 0% | 0hPa | 2.6V | 18:12:15 | 01:38:09 | 00:00:00 | |
| BIOWL1-15 | 2026-09-03 18:08:05 | 49.11072 | 8.55911 | 149° | 20km/h | 20773m | 5.1m/s | -53.8°C | 0.2% | 52.1hPa | 2.6V | 03:41:07 | 01:38:08 | 00:00:00 | |
| DJ2DS-15 | 2026-09-03 18:08:04 | 49.11076 | 8.55906 | 138° | 29km/h | 20769m | 5.0m/s | -53.8°C | 3.9% | 52.1hPa | 2.6V | 00:00:00 | 01:38:07 | 00:00:00 | |
| DM0DOS-11 | 2026-09-03 18:08:01 | 49.11105 | 8.55855 | 131° | 29km/h | 20736m | 5.4m/s | -53.9°C | 3.9% | 52.4hPa | 2.6V | 03:40:52 | 01:38:00 | 00:00:00 | |
| DK7TD | 2026-09-03 18:08:01 | 49.11087 | 8.55886 | 126° | 24km/h | 20755m | 4.9m/s | -53.9°C | 0.1% | 52.2hPa | 2.7V | 03:41:07 | 01:38:04 | 00:00:00 | |
| DL1XH-west | 2026-09-03 18:07:55 | 49.11115 | 8.55838 | 132° | 31km/h | 20727m | 3.7m/s | 0°C | 0% | 0hPa | 2.7V | 18:12:15 | 01:37:58 | 00:00:00 | |
| DJ2DS-15 | 2026-09-03 18:07:53 | 49.11126 | 8.55821 | 141° | 31km/h | 20718m | 5.7m/s | -54.1°C | 1.0% | 52.5hPa | 2.6V | 00:00:00 | 00:00:00 | 00:00:00 | |
| DD1CC8 | 2026-09-03 18:07:52 | 49.11140 | 8.55807 | 148° | 31km/h | 20708m | 4.6m/s | -54.4°C | 1.0% | 52.6hPa | 2.6V | 00:00:00 | 00:00:00 | 00:00:00 | |
| DM0DOS-11 | 2026-09-03 18:07:51 | 49.11164 | 8.55776 | 134° | 33km/h | 20689m | 3.9m/s | -54.7°C | 4.2% | 52.8hPa | 2.6V | 03:41:02 | 01:37:50 | 00:00:00 | |
| DK7TD | 2026-09-03 18:07:50 | 49.11146 | 8.55801 | 145° | 31km/h | 20703m | 5.4m/s | -54.6°C | 0.3% | 52.7hPa | 2.7V | 03:41:07 | 01:37:53 | 00:00:00 | |
| BIOWL1-15 | 2026-09-03 18:07:46 | 49.11185 | 8.55748 | 138° | 40km/h | 20675m | 4.3m/s | -54.7°C | 0.3% | 52.9hPa | 2.7V | 03:41:07 | 01:37:47 | 00:00:00 | |
| DJ2DS-15 | 2026-09-03 18:07:44 | 49.11185 | 8.55747 | 138° | 42km/h | 20675m | 4.3m/s | -54.7°C | 4.2% | 52.9hPa | 2.6V | 00:00:00 | 01:37:47 | 00:00:00 | |
| DJTTGO | 2026-09-03 18:07:43 | 49.11185 | 8.55747 | 139° | 40km/h | 20675m | 4.3m/s | -54.7°C | 1.0% | 52.9hPa | 2.6V | 03:41:00 | 00:00:00 | 00:00:00 | |
| DM0DOS-11 | 2026-09-03 18:07:41 | 49.11240 | 8.55670 | 142° | 42km/h | 20642m | 3.6m/s | -54.7°C | 4.3% | 53.2hPa | 2.6V | 03:41:12 | 01:37:40 | 00:00:00 | |
| DK7TD | 2026-09-03 18:07:39 | 49.11223 | 8.55690 | 140° | 44km/h | 20650m | 5.3m/s | 0°C | 0% | 53.1hPa | 2.7V | 18:12:15 | 01:37:42 | 00:00:00 | |
| DL1XH-west | 2026-09-03 18:07:36 | 49.11248 | 8.55660 | 138° | 40km/h | 20638m | 4.4m/s | 0°C | 0% | 0hPa | 2.6V | 18:12:15 | 01:37:39 | 00:00:00 | |
| BIOWL1-15 | 2026-09-03 18:07:35 | 49.11267 | 8.55623 | 122° | 42km/h | 20624m | 3.8m/s | -54.7°C | 0.3% | 53.3hPa | 2.7V | 03:41:58 | 01:37:36 | 00:00:00 | |
| DL1ZP-14 | 2026-09-03 18:07:35 | 49.11262 | 8.55636 | 125° | 40km/h | 20628m | 4.2m/s | -54.7°C | 1.0% | 53.3hPa | 2.7V | 00:00:00 | 00:00:00 | 00:00:00 | |
| DO3DL | 2026-09-03 18:07:33 | 49.11262 | 8.55636 | 126° | 40km/h | 20629m | 4.2m/s | -54.7°C | 1.0% | 53.3hPa | 2.6V | 00:00:00 | 00:00:00 | 00:00:00 | |
| DM0DOS-11 | 2026-09-03 18:07:32 | 49.11308 | 8.55549 | 134° | 35km/h | 20597m | 4.5m/s | -54.8°C | 4.2% | 53.5hPa | 2.6V | 03:41:22 | 01:37:30 | 00:00:00 | |
| DK7TD | 2026-09-03 18:07:28 | 49.11301 | 8.55559 | 135° | 38km/h | 20602m | 4.7m/s | 0°C | 0% | 0hPa | 2.7V | 18:12:15 | 01:37:31 | 00:00:00 | |
| DL1XH-west | 2026-09-03 18:07:25 | 49.11319 | 8.55528 | 127° | 37km/h | 20589m | 4.6m/s | 0°C | 0% | 0hPa | 2.6V | 18:12:15 | 01:37:28 | 00:00:00 | |
| BIOWL1-15 | 2026-09-03 18:07:23 | 49.11331 | 8.55503 | 123° | 44km/h | 20579m | 4.7m/s | -54.8°C | 0.2% | 53.7hPa | 2.7V | 03:41:58 | 01:37:26 | 00:00:00 | |
| DM0DOS-11 | 2026-09-03 18:07:22 | 49.11369 | 8.55415 | 118° | 44km/h | 20552m | 5.3m/s | -55.1°C | 4.2% | 53.9hPa | 2.6V | 03:41:32 | 01:37:20 | 00:00:00 | |
| DK7TD | 2026-09-03 18:07:17 | 49.11369 | 8.55415 | 119° | 44km/h | 20552m | 5.3m/s | 0°C | 0% | 0hPa | 2.6V | 18:12:15 | 01:37:20 | 00:00:00 | |
| BIOWL1-15 | 2026-09-03 18:07:13 | 49.11387 | 8.55358 | 118° | 37km/h | 20535m | 4.6m/s | -55.2°C | 0.3% | 54.1hPa | 2.7V | 03:41:58 | 01:37:16 | 00:00:00 | |
| DK7TD | 2026-09-03 18:07:07 | 49.11417 | 8.55274 | 114° | 46km/h | 20511m | 3.6m/s | 0°C | 0% | 0hPa | 2.6V | 18:12:15 | 01:37:10 | 00:00:00 | |
| BIOWL1-15 | 2026-09-03 18:07:02 | 49.11438 | 8.55201 | 115° | 40km/h | 20490m | 4.8m/s | -55.4°C | 0.3% | 54.5hPa | 2.6V | 03:41:58 | 01:37:05 | 00:00:00 | |
| BIOWL1-15 | 2026-09-03 18:06:53 | 49.11471 | 8.55036 | 113° | 40km/h | 20443m | 5m/s | -55.5°C | 0.4% | 54.9hPa | 2.6V | 03:41:58 | 01:36:54 | 00:00:00 | |
| DD1CC8 | 2026-09-03 18:06:50 | 49.11478 | 8.55008 | 109° | 37km/h | 20435m | 3.3m/s | -55.5°C | 1.1% | 55.0hPa | 2.7V | 00:00:00 | 00:00:00 | 00:00:00 | |
| AU51GT2 | 2026-09-03 18:06:47 | 49.11484 | 8.54981 | 105° | 38km/h | 20427m | 4.8m/s | -55.5°C | 1.1% | 55.0hPa | 2.7V | 00:00:00 | 00:00:00 | 00:00:00 | |
| BIOWL1-15 | 2026-09-03 18:06:45 | 49.11491 | 8.54893 | 91° | 35km/h | 20402m | 3.7m/s | -55.5°C | 0.3% | 55.2hPa | 2.7V | 03:42:49 | 01:36:44 | 00:00:00 | |
| DJ2DS-15 | 2026-09-03 18:06:44 | 49.11490 | 8.54936 | 97° | 35km/h | 20415m | 4.1m/s | -55.4°C | 4.3% | 55.1hPa | 2.6V | 00:00:00 | 01:36:47 | 00:00:00 | |
| BIOWL7-15 | 2026-09-03 18:06:42 | 49.11490 | 8.54921 | 94° | 37km/h | 20411m | 5.2m/s | -55.4°C | 1.1% | 55.1hPa | 2.6V | 03:42:00 | 00:00:00 | 00:00:00 | |
| DJ2DS-15 | 2026-09-03 18:06:41 | 49.11491 | 8.54893 | 90° | 35km/h | 20402m | 3.7m/s | -55.5°C | 1.1% | 55.2hPa | 2.6V | 00:00:00 | 00:00:00 | 00:00:00 | |
| DO3MHA-11 | 2026-09-03 18:06:40 | 49.11491 | 8.54879 | 95° | 35km/h | 20398m | 4.3m/s | -55.5°C | 4.3% | 55.2hPa | 2.6V | 00:00:00 | 01:36:43 | 00:00:00 | |
| DM0DOS-11 | 2026-09-03 18:06:38 | 49.11497 | 8.54835 | 105° | 40km/h | 20385m | 3.9m/s | -55.7°C | 4.2% | 55.3hPa | 2.6V | 03:42:12 | 01:36:40 | 00:00:00 | |
| DB0NH | 2026-09-03 18:06:37 | 49.11497 | 8.54834 | 106° | 27km/h | 20385m | 3.8m/s | -55.6°C | 4.2% | 55.3hPa | 2.6V | 00:00:00 | 01:36:40 | 00:00:00 | |
| DB0ND-19 | 2026-09-03 18:06:36 | 49.11500 | 8.54820 | 107° | 37km/h | 20380m | 5.0m/s | -55.7°C | 1.0% | 55.4hPa | 2.6V | 00:00:00 | 00:00:00 | 00:00:00 | |
| DJTTGO | 2026-09-03 18:06:35 | 49.11500 | 8.54820 | 108° | 37km/h | 20381m | 5.0m/s | -55.7°C | 1.0% | 55.4hPa | 2.6V | 03:42:00 | 00:00:00 | 00:00:00 | |
| DL1ZP-14 | 2026-09-03 18:06:33 | 49.11511 | 8.54772 | 107° | 31km/h | 20362m | 4.2m/s | -55.7°C | 1.1% | 55.6hPa | 2.6V | 00:00:00 | 00:00:00 | 00:00:00 | |
| DM0DOS-11 | 2026-09-03 18:06:32 | 49.11512 | 8.54713 | 85° | 35km/h | 20341m | 4.2m/s | -56.1°C | 4.6% | 55.7hPa | 2.6V | 03:42:22 | 01:36:30 | 00:00:00 | |
| BIOWL1-15 | 2026-09-03 18:06:31 | 49.11513 | 8.54761 | 101° | 31km/h | 20358m | 3.5m/s | -55.8°C | 0.4% | 55.6hPa | 2.6V | 03:42:49 | 01:36:34 | 00:00:00 | |
| DO3MHA-11 | 2026-09-03 18:06:30 | 49.11514 | 8.54749 | 94° | 33km/h | 20354m | 5.2m/s | -55.8°C | 4.4% | 55.6hPa | 2.7V | 00:00:00 | 01:36:33 | 00:00:00 | |
| DF3TZ-5 | 2026-09-03 18:06:28 | 49.11513 | 8.54726 | 82° | 31km/h | 20345m | 3.5m/s | -56.1°C | 1.1% | 55.7hPa | 2.6V | 00:00:00 | 00:00:00 | 00:00:00 | |
| DO3DL | 2026-09-03 18:06:27 | 49.11512 | 8.54713 | 87° | 35km/h | 20341m | 4.2m/s | -56.1°C | 1.1% | 55.7hPa | 2.6V | 03:42:00 | 00:00:00 | 00:00:00 | |
| DF1GD-15 | 2026-09-03 18:06:26 | 49.11512 | 8.54713 | 87° | 35km/h | 20341m | 4.2m/s | -56.1°C | 1.2% | 55.7hPa | 2.6V | 03:42:00 | 00:00:00 | 00:00:00 | |
| DN1GJH-1 | 2026-09-03 18:06:25 | 49.11512 | 8.54700 | 93° | 37km/h | 20337m | 4.8m/s | -56.1°C | 1.2% | 55.8hPa | 2.6V | 03:42:00 | 00:00:00 | 00:00:00 | |
| DJ2DS-15 | 2026-09-03 18:06:24 | 49.11514 | 8.54673 | 107° | 26km/h | 20329m | 3.4m/s | -56.0°C | 4.6% | 55.8hPa | 2.6V | 00:00:00 | 01:36:27 | 00:00:00 | |
| BIOWL9-15 | 2026-09-03 18:06:23 | 49.11517 | 8.54660 | 110° | 33km/h | 20324m | 4.8m/s | -56.0°C | 1.2% | 55.9hPa | 2.6V | 00:00:00 | 00:00:00 | 00:00:00 | |
| BIOWL7-15 | 2026-09-03 18:06:22 | 49.11517 | 8.54660 | 112° | 33km/h | 20324m | 4.8m/s | -56.0°C | 1.2% | 55.9hPa | 2.6V | 03:42:00 | 00:00:00 | 00:00:00 | |
| DM0DOS-11 | 2026-09-03 18:06:20 | 49.11533 | 8.54581 | 92° | 27km/h | 20290m | 4.9m/s | -55.7°C | 4.4% | 56.2hPa | 2.6V | 03:42:34 | 01:36:18 | 00:00:00 | |
| BIOWL1-15 | 2026-09-03 18:06:20 | 49.11526 | 8.54631 | 114° | 24km/h | 20311m | 3.3m/s | -56°C | 0.5% | 56hPa | 2.6V | 03:42:49 | 01:36:23 | 00:00:00 | |
| BIOWL1-15 | 2026-09-03 18:06:12 | 49.11532 | 8.54534 | 87° | 26km/h | 20267m | 4.4m/s | -55.6°C | 0.4% | 56.4hPa | 2.6V | 03:42:49 | 01:36:13 | 00:00:00 | |
| DO3DL | 2026-09-03 18:06:11 | 49.11532 | 8.54553 | 88° | 24km/h | 20277m | 4.4m/s | -55.6°C | 1.1% | 56.3hPa | 2.7V | 03:42:00 | 00:00:00 | 00:00:00 | |
| DM0DOS-11 | 2026-09-03 18:06:10 | 49.11531 | 8.54490 | 95° | 18km/h | 20246m | 3.9m/s | -55.5°C | 4.5% | 56.6hPa | 2.7V | 03:42:44 | 01:36:08 | 00:00:00 | |
| BIOWL1-15 | 2026-09-03 18:06:02 | 49.11539 | 8.54449 | 104° | 20km/h | 20223m | 5.1m/s | -55.4°C | 0.4% | 56.8hPa | 2.7V | 03:42:49 | 01:36:03 | 00:00:00 | |
| DO8TBO-1 | 2026-09-03 18:06:01 | 49.11537 | 8.54457 | 107° | 18km/h | 20228m | 3.7m/s | 0°C | 0% | 0hPa | 2.6V | 03:42:00 | 01:36:04 | 00:00:00 | |
| DM0DOS-11 | 2026-09-03 18:06:00 | 49.11540 | 8.54417 | 92° | 18km/h | 20199m | 4.6m/s | -55.6°C | 4.5% | 57hPa | 2.6V | 03:42:54 | 01:35:58 | 00:00:00 | |
| DF3TZ-5 | 2026-09-03 18:05:57 | 49.11540 | 8.54429 | 90° | 15km/h | 20209m | 4.5m/s | -55.4°C | 1.1% | 56.9hPa | 2.6V | 00:00:00 | 00:00:00 | 00:00:00 | |
| DL8DAS-14 | 2026-09-03 18:05:56 | 49.11540 | 8.54417 | 92° | 16km/h | 20199m | 4.6m/s | -55.6°C | 1.1% | 57.0hPa | 2.6V | 00:00:00 | 00:00:00 | 00:00:00 | |
| DF7PN | 2026-09-03 18:05:53 | 49.11540 | 8.54403 | 84° | 16km/h | 20191m | 4.1m/s | -55.6°C | 1.1% | 57.1hPa | 2.6V | 00:00:00 | 00:00:00 | 00:00:00 | |
| BIOWL9-15 | 2026-09-03 18:05:52 | 49.11539 | 8.54396 | 77° | 16km/h | 20187m | 4.9m/s | -55.6°C | 1.1% | 57.1hPa | 2.6V | 00:00:00 | 00:00:00 | 00:00:00 | |
| DM0DOS-11 | 2026-09-03 18:05:50 | 49.11540 | 8.54350 | 122° | 20km/h | 20155m | 4.2m/s | -55.5°C | 4.4% | 57.4hPa | 2.6V | 03:43:04 | 01:35:48 | 00:00:00 | |
| BIOWL1-15 | 2026-09-03 18:05:49 | 49.11546 | 8.54338 | 129° | 16km/h | 20146m | 4.8m/s | -55.5°C | 0.4% | 57.5hPa | 2.6V | 03:43:40 | 01:35:46 | 00:00:00 | |
| DD1CC8 | 2026-09-03 18:05:47 | 49.11536 | 8.54365 | 103° | 20km/h | 20164m | 5.1m/s | -55.5°C | 1.1% | 57.3hPa | 2.7V | 00:00:00 | 00:00:00 | 00:00:00 | |
| AU51GT2 | 2026-09-03 18:05:45 | 49.11540 | 8.54350 | 122° | 20km/h | 20155m | 4.3m/s | -55.5°C | 1.1% | -1.0hPa | 2.7V | 00:00:00 | 00:00:00 | 00:00:00 | |
| DJ2DS-15 | 2026-09-03 18:05:44 | 49.11543 | 8.54343 | 127° | 18km/h | 20151m | 4.9m/s | -55.4°C | 4.4% | 57.4hPa | 2.7V | 00:00:00 | 01:35:47 | 00:00:00 | |
| SFWM-10 | 2026-09-03 18:05:43 | 49.11543 | 8.54343 | 128° | 20km/h | 20151m | 5.0m/s | -55.5°C | 1.1% | 57.5hPa | 2.7V | 00:00:00 | 00:00:00 | 00:00:00 | |
| DM0DOS-11 | 2026-09-03 18:05:40 | 49.11558 | 8.54292 | 116° | 15km/h | 20109m | 4.2m/s | -55.3°C | 4.5% | 57.8hPa | 2.7V | 03:43:14 | 01:35:38 | 00:00:00 | |
| BIOWL1-15 | 2026-09-03 18:05:36 | 49.11556 | 8.54298 | 107° | 15km/h | 20114m | 5.3m/s | -55.3°C | 0.5% | 57.8hPa | 2.7V | 03:43:40 | 01:35:39 | 00:00:00 | |
| DB0NH | 2026-09-03 18:05:35 | 49.11558 | 8.54292 | 117° | 20km/h | 20110m | 4.2m/s | -55.3°C | 4.5% | 57.8hPa | 2.6V | 00:00:00 | 01:35:38 | 00:00:00 | |
| DB0ND-19 | 2026-09-03 18:05:34 | 49.11560 | 8.54287 | 126° | 16km/h | 20106m | 3.8m/s | -55.3°C | 1.1% | 57.9hPa | 2.6V | 00:00:00 | 00:00:00 | 00:00:00 | |
| NBG1-10 | 2026-09-03 18:05:33 | 49.11563 | 8.54282 | 132° | 20km/h | 20101m | 5.4m/s | -55.2°C | 4.5% | 57.8hPa | 2.6V | 00:00:00 | 01:35:36 | 00:00:00 | |
| DL2OL | 2026-09-03 18:05:31 | 49.11566 | 8.54276 | 135° | 24km/h | 20096m | 5.1m/s | -55.3°C | 1.1% | 58.0hPa | 2.7V | 00:00:00 | 00:00:00 | 00:00:00 | |
| DM0DOS-11 | 2026-09-03 18:05:30 | 49.11590 | 8.54236 | 111° | 18km/h | 20061m | 4.8m/s | -55°C | 4.1% | 58.2hPa | 2.7V | 03:43:24 | 01:35:28 | 00:00:00 | |
| BIOWL1-15 | 2026-09-03 18:05:25 | 49.11590 | 8.54236 | 112° | 18km/h | 20061m | 4.8m/s | -55°C | 0.2% | 58.2hPa | 2.7V | 03:43:40 | 01:35:28 | 00:00:00 | |
| BIOWL1-15 | 2026-09-03 18:05:16 | 49.11611 | 8.54168 | 139° | 16km/h | 20008m | 4.2m/s | -55°C | 0.4% | 58.7hPa | 2.6V | 03:43:40 | 01:35:17 | 00:00:00 | |
| AU51GT2 | 2026-09-03 18:05:14 | 49.11611 | 8.54168 | 138° | 15km/h | 20008m | 4.2m/s | 0°C | -1.0% | -1.0hPa | 2.6V | 00:00:00 | 00:00:00 | 00:00:00 | |
| DM7RM-13 | 2026-09-03 18:05:12 | 49.11614 | 8.54164 | 138° | 16km/h | 20004m | 4.8m/s | -55.0°C | 1.2% | 58.8hPa | 2.6V | 03:43:00 | 00:00:00 | 00:00:00 | |
| DM0DOS-11 | 2026-09-03 18:05:10 | 49.11628 | 8.54104 | 109° | 24km/h | 19963m | 5.3m/s | -55°C | 4.3% | 59.1hPa | 2.6V | 03:43:44 | 01:35:08 | 00:00:00 | |
| BIOWL1-15 | 2026-09-03 18:05:08 | 49.11630 | 8.54096 | 119° | 24km/h | 19959m | 4.4m/s | -55°C | 0.4% | 59.2hPa | 2.6V | 03:44:31 | 01:35:07 | 00:00:00 | |
| DB0NH | 2026-09-03 18:05:05 | 49.11628 | 8.54104 | 110° | 18km/h | 19964m | 5.3m/s | -55.0°C | 4.3% | 59.1hPa | 2.6V | 00:00:00 | 01:35:08 | 00:00:00 | |
| DJ2DS-15 | 2026-09-03 18:05:04 | 49.11630 | 8.54095 | 120° | 20km/h | 19959m | 4.4m/s | -54.9°C | 4.3% | 59.1hPa | 2.6V | 00:00:00 | 01:35:07 | 00:00:00 | |
| DJTTGO | 2026-09-03 18:05:01 | 49.11637 | 8.54082 | 138° | 20km/h | 19949m | 6.1m/s | -54.9°C | 1.1% | 59.3hPa | 2.7V | 03:44:00 | 00:00:00 | 00:00:00 | |
| DM0DOS-11 | 2026-09-03 18:05:00 | 49.11655 | 8.54045 | 75° | 16km/h | 19913m | 5.9m/s | -54.9°C | 4.4% | 59.6hPa | 2.7V | 03:43:54 | 01:34:58 | 00:00:00 | |
| DK7TD | 2026-09-03 18:04:59 | 49.11648 | 8.54068 | 139° | 20km/h | 19933m | 5.6m/s | -54.9°C | 0.3% | 59.4hPa | 2.7V | 03:47:04 | 01:35:02 | 00:00:00 | |
| BIOWL1-15 | 2026-09-03 18:04:53 | 49.11649 | 8.54027 | 64° | 22km/h | 19899m | 3.9m/s | -54.9°C | 0.4% | 59.8hPa | 2.6V | 03:44:31 | 01:34:55 | 00:00:00 | |
| DJ2DS-15 | 2026-09-03 18:04:53 | 49.11649 | 8.54027 | 64° | 20km/h | 19899m | 3.9m/s | -54.9°C | 1.1% | 59.8hPa | 2.6V | 00:00:00 | 00:00:00 | 00:00:00 | |
| DF7PN | 2026-09-03 18:04:51 | 49.11646 | 8.54019 | 72° | 22km/h | 19895m | 5.0m/s | -54.8°C | 1.1% | 59.8hPa | 2.6V | 00:00:00 | 00:00:00 | 00:00:00 | |
| DM0DOS-11 | 2026-09-03 18:04:50 | 49.11656 | 8.53981 | 163° | 15km/h | 19866m | 4.4m/s | -54.7°C | 4.2% | 60.1hPa | 2.6V | 03:44:04 | 01:34:48 | 00:00:00 | |
| DK7TD | 2026-09-03 18:04:47 | 49.11649 | 8.53987 | 131° | 16km/h | 19876m | 5.7m/s | -54.7°C | 0.3% | 60hPa | 2.7V | 03:47:04 | 01:34:50 | 00:00:00 | |
| DD1CC8 | 2026-09-03 18:04:45 | 49.11656 | 8.53981 | 163° | 15km/h | 19866m | 4.4m/s | -54.7°C | 1.1% | 60.1hPa | 2.7V | 00:00:00 | 00:00:00 | 00:00:00 | |
| BIOWL1-15 | 2026-09-03 18:04:42 | 49.11666 | 8.53974 | 136° | 18km/h | 19851m | 5.6m/s | -54.5°C | 0.3% | 60.2hPa | 2.7V | 03:44:31 | 01:34:45 | 00:00:00 | |
| AZAK | 2026-09-03 18:04:41 | 49.11666 | 8.53974 | 137° | 18km/h | 19851m | 5.6m/s | -54.5°C | 1.0% | 60.2hPa | 2.7V | 00:00:00 | 00:00:00 | 00:00:00 | |
| DM0DOS-11 | 2026-09-03 18:04:40 | 49.11673 | 8.53924 | 90° | 11km/h | 19816m | 4.3m/s | -54.4°C | 4.3% | 60.5hPa | 2.7V | 03:44:14 | 01:34:38 | 00:00:00 | |
| BIOWL1-15 | 2026-09-03 18:04:31 | 49.11679 | 8.53900 | 120° | 15km/h | 19791m | 4.3m/s | -54.4°C | 0.3% | 60.8hPa | 2.7V | 03:44:31 | 01:34:33 | 00:00:00 | |
| BIOWL1-15 | 2026-09-03 18:04:21 | 49.11666 | 8.53854 | 40° | 18km/h | 19745m | 5m/s | -54°C | 0.3% | 61.2hPa | 2.6V | 03:44:31 | 01:34:24 | 00:00:00 | |
| DM0DOS-11 | 2026-09-03 18:04:20 | 49.11659 | 8.53828 | 100° | 9km/h | 19716m | 4.4m/s | -53.7°C | 4.2% | 61.5hPa | 2.6V | 03:44:34 | 01:34:18 | 00:00:00 | |
| BIOWL1-15 | 2026-09-03 18:04:13 | 49.11655 | 8.53820 | 31° | 7km/h | 19696m | 5.4m/s | -53.6°C | 0.2% | 61.7hPa | 2.7V | 03:45:22 | 01:34:14 | 00:00:00 | |
| DM0DOS-11 | 2026-09-03 18:04:10 | 49.11643 | 8.53799 | 58° | 18km/h | 19665m | 3.8m/s | -53.5°C | 4% | 62hPa | 2.6V | 03:44:44 | 01:34:08 | 00:00:00 | |
| DK7TD | 2026-09-03 18:04:09 | 49.11652 | 8.53816 | 48° | 9km/h | 19685m | 4.5m/s | -53.6°C | 0.2% | 61.8hPa | 2.6V | 03:47:04 | 01:34:12 | 00:00:00 | |
| BIOWL1-15 | 2026-09-03 18:04:03 | 49.11642 | 8.53775 | 119° | 15km/h | 19646m | 4m/s | -53.4°C | 0.3% | 62.2hPa | 2.7V | 03:45:22 | 01:34:04 | 00:00:00 | |
| DB0ND-19 | 2026-09-03 18:04:01 | 49.11642 | 8.53775 | 119° | 15km/h | 19646m | 4.0m/s | -53.4°C | 1.1% | 62.2hPa | 2.7V | 00:00:00 | 00:00:00 | 00:00:00 | |
| DM0DOS-11 | 2026-09-03 18:04:00 | 49.11643 | 8.53763 | 51° | 4km/h | 19616m | 4.5m/s | -53.2°C | 4% | 62.5hPa | 2.7V | 03:44:54 | 01:33:58 | 00:00:00 | |
| BIOWL1-15 | 2026-09-03 18:03:50 | 49.11654 | 8.53740 | 108° | 7km/h | 19576m | 3.6m/s | -52.9°C | 0.2% | 62.8hPa | 2.6V | 03:45:22 | 01:33:50 | 00:00:00 | |
| DM0DOS-11 | 2026-09-03 18:03:50 | 49.11655 | 8.53736 | 138° | 7km/h | 19566m | 5.2m/s | -52.9°C | 3.9% | 63hPa | 2.6V | 03:45:04 | 01:33:48 | 00:00:00 | |
| DF7PN | 2026-09-03 18:03:49 | 49.11652 | 8.53746 | 114° | 9km/h | 19585m | 5.2m/s | -53.0°C | 1.0% | 62.8hPa | 2.7V | 00:00:00 | 00:00:00 | 00:00:00 | |
| BIOWL9-15 | 2026-09-03 18:03:48 | 49.11653 | 8.53743 | 105° | 7km/h | 19580m | 4.0m/s | -53.0°C | 1.0% | 62.8hPa | 2.7V | 00:00:00 | 00:00:00 | 00:00:00 | |
| DK7TD | 2026-09-03 18:03:42 | 49.11660 | 8.53729 | 118° | 9km/h | 19552m | 5.7m/s | -52.9°C | 0.3% | 63.1hPa | 2.7V | 03:47:04 | 01:33:45 | 00:00:00 | |
| BIOWL1-15 | 2026-09-03 18:03:40 | 49.11661 | 8.53722 | 114° | 9km/h | 19543m | 3.5m/s | -52.8°C | 0.3% | 63.1hPa | 2.6V | 03:45:22 | 01:33:43 | 00:00:00 | |
| DK7TD | 2026-09-03 18:03:31 | 49.11682 | 8.53707 | 152° | 15km/h | 19500m | 5.6m/s | -52.5°C | 0.2% | 63.6hPa | 2.6V | 03:47:04 | 01:33:34 | 00:00:00 | |
| BIOWL1-15 | 2026-09-03 18:03:30 | 49.11685 | 8.53704 | 154° | 16km/h | 19494m | 5m/s | -52.5°C | 0.2% | 63.6hPa | 2.6V | 03:45:22 | 01:33:33 | 00:00:00 | |
| DO3MHA-11 | 2026-09-03 18:03:30 | 49.11685 | 8.53704 | 154° | 15km/h | 19494m | 5.0m/s | -52.4°C | 3.8% | 63.6hPa | 2.6V | 00:00:00 | 01:33:33 | 00:00:00 | |
| DM7RM-13 | 2026-09-03 18:03:29 | 49.11685 | 8.53704 | 155° | 16km/h | 19494m | 5.0m/s | -52.5°C | 1.0% | 63.6hPa | 2.7V | 03:45:00 | 00:00:00 | 00:00:00 | |
| DO8TBO-1 | 2026-09-03 18:03:28 | 49.11692 | 8.53698 | 145° | 15km/h | 19484m | 5.6m/s | 0°C | 0% | 0hPa | 2.7V | 00:00:00 | 01:33:31 | 00:00:00 | |
| DL1ZP-14 | 2026-09-03 18:03:26 | 49.11698 | 8.53692 | 146° | 13km/h | 19475m | 3.4m/s | -52.4°C | 1.0% | 63.8hPa | 2.7V | 00:00:00 | 00:00:00 | 00:00:00 | |
| DJ2DS-15 | 2026-09-03 18:03:24 | 49.11704 | 8.53688 | 170° | 16km/h | 19466m | 5.1m/s | -52.3°C | 3.9% | 63.9hPa | 2.7V | 03:45:00 | 01:33:27 | 00:00:00 | |
| Es werden nur die letzten 3500 von 5152 Frames angezeigt. GPX/KML und Diagramme bleiben verfügbar. | |||||||||||||||